﻿<?xml version="1.0" encoding="UTF-8" standalone="no" ?>
<gpx xmlns="http://www.topografix.com/GPX/1/1" creator="CompeGPS" version="1.1" xmlns:xsi="http://www.w3.org/2001/XMLSchema-instance" xsi:schemaLocation="http://www.topografix.com/GPX/1/1 http://www.topografix.com/GPX/1/1/gpx.xsd http://www.garmin.com/xmlschemas/GpxExtensions/v3 http://www.garmin.com/xmlschemas/GpxExtensionsv3.xsd http://www.garmin.com/xmlschemas/TrackPointExtension/v1 http://www.garmin.com/xmlschemas/TrackPointExtensionv1.xsd" xmlns:gpxtpx="http://www.garmin.com/xmlschemas/TrackPointExtension/v1">
  <metadata>
    <link href="http://www.compegps.com">
      <text>CompeGPS TEAM, SL</text>
    </link>
    <time>2016-07-20T13:54:01Z</time>
    <bounds maxlat="43.632199" maxlon="11.083315" minlat="43.443119" minlon="10.903920"/>
  </metadata>
  <trk>
    <name>GiroOrtiminoVolterraFATTO</name>
    <trkseg>
      <trkpt lat="43.632036" lon="11.019364">
        <ele>126.2</ele>
        <time>2016-07-06T13:49:03Z</time>
        <sat>6</sat>
      </trkpt>
      <trkpt lat="43.632035" lon="11.019377">
        <ele>126.2</ele>
        <time>2016-07-06T13:49:04Z</time>
        <sat>6</sat>
      </trkpt>
      <trkpt lat="43.632098" lon="11.019481">
        <ele>133.0</ele>
        <time>2016-07-06T13:53:51Z</time>
        <sat>9</sat>
      </trkpt>
      <trkpt lat="43.632103" lon="11.019653">
        <ele>131.0</ele>
        <time>2016-07-06T13:53:59Z</time>
        <sat>9</sat>
      </trkpt>
      <trkpt lat="43.632026" lon="11.019813">
        <ele>130.3</ele>
        <time>2016-07-06T13:54:02Z</time>
        <sat>9</sat>
      </trkpt>
      <trkpt lat="43.631988" lon="11.019947">
        <ele>130.6</ele>
        <time>2016-07-06T13:54:04Z</time>
        <sat>7</sat>
      </trkpt>
      <trkpt lat="43.631951" lon="11.020067">
        <ele>130.5</ele>
        <time>2016-07-06T13:54:06Z</time>
        <sat>10</sat>
      </trkpt>
      <trkpt lat="43.631829" lon="11.020151">
        <ele>130.0</ele>
        <time>2016-07-06T13:54:08Z</time>
        <sat>10</sat>
      </trkpt>
      <trkpt lat="43.631673" lon="11.020229">
        <ele>129.7</ele>
        <time>2016-07-06T13:54:10Z</time>
        <sat>9</sat>
      </trkpt>
      <trkpt lat="43.631587" lon="11.020285">
        <ele>129.5</ele>
        <time>2016-07-06T13:54:11Z</time>
        <sat>10</sat>
      </trkpt>
      <trkpt lat="43.631492" lon="11.020349">
        <ele>129.3</ele>
        <time>2016-07-06T13:54:12Z</time>
        <sat>9</sat>
      </trkpt>
      <trkpt lat="43.631389" lon="11.020412">
        <ele>129.1</ele>
        <time>2016-07-06T13:54:13Z</time>
        <sat>9</sat>
      </trkpt>
      <trkpt lat="43.631278" lon="11.020468">
        <ele>128.9</ele>
        <time>2016-07-06T13:54:14Z</time>
        <sat>8</sat>
      </trkpt>
      <trkpt lat="43.631163" lon="11.020527">
        <ele>128.6</ele>
        <time>2016-07-06T13:54:15Z</time>
        <sat>9</sat>
      </trkpt>
      <trkpt lat="43.631043" lon="11.020589">
        <ele>128.4</ele>
        <time>2016-07-06T13:54:16Z</time>
        <sat>8</sat>
      </trkpt>
      <trkpt lat="43.630919" lon="11.020654">
        <ele>128.5</ele>
        <time>2016-07-06T13:54:17Z</time>
        <sat>8</sat>
      </trkpt>
      <trkpt lat="43.630789" lon="11.020729">
        <ele>128.6</ele>
        <time>2016-07-06T13:54:18Z</time>
        <sat>8</sat>
      </trkpt>
      <trkpt lat="43.630661" lon="11.020807">
        <ele>128.9</ele>
        <time>2016-07-06T13:54:19Z</time>
        <sat>8</sat>
      </trkpt>
      <trkpt lat="43.630541" lon="11.020874">
        <ele>128.8</ele>
        <time>2016-07-06T13:54:20Z</time>
        <sat>9</sat>
      </trkpt>
      <trkpt lat="43.630430" lon="11.020913">
        <ele>128.6</ele>
        <time>2016-07-06T13:54:21Z</time>
        <sat>10</sat>
      </trkpt>
      <trkpt lat="43.630319" lon="11.020920">
        <ele>128.9</ele>
        <time>2016-07-06T13:54:22Z</time>
        <sat>10</sat>
      </trkpt>
      <trkpt lat="43.630203" lon="11.020891">
        <ele>129.0</ele>
        <time>2016-07-06T13:54:23Z</time>
        <sat>10</sat>
      </trkpt>
      <trkpt lat="43.630071" lon="11.020833">
        <ele>129.1</ele>
        <time>2016-07-06T13:54:24Z</time>
        <sat>9</sat>
      </trkpt>
      <trkpt lat="43.629932" lon="11.020764">
        <ele>129.0</ele>
        <time>2016-07-06T13:54:25Z</time>
        <sat>10</sat>
      </trkpt>
      <trkpt lat="43.629791" lon="11.020693">
        <ele>128.8</ele>
        <time>2016-07-06T13:54:26Z</time>
        <sat>9</sat>
      </trkpt>
      <trkpt lat="43.629644" lon="11.020613">
        <ele>128.6</ele>
        <time>2016-07-06T13:54:27Z</time>
        <sat>10</sat>
      </trkpt>
      <trkpt lat="43.629498" lon="11.020530">
        <ele>128.6</ele>
        <time>2016-07-06T13:54:28Z</time>
        <sat>10</sat>
      </trkpt>
      <trkpt lat="43.629359" lon="11.020451">
        <ele>128.3</ele>
        <time>2016-07-06T13:54:29Z</time>
        <sat>10</sat>
      </trkpt>
      <trkpt lat="43.629225" lon="11.020370">
        <ele>128.1</ele>
        <time>2016-07-06T13:54:30Z</time>
        <sat>10</sat>
      </trkpt>
      <trkpt lat="43.629097" lon="11.020284">
        <ele>128.0</ele>
        <time>2016-07-06T13:54:31Z</time>
        <sat>9</sat>
      </trkpt>
      <trkpt lat="43.628970" lon="11.020194">
        <ele>127.8</ele>
        <time>2016-07-06T13:54:32Z</time>
        <sat>10</sat>
      </trkpt>
      <trkpt lat="43.628839" lon="11.020100">
        <ele>127.7</ele>
        <time>2016-07-06T13:54:33Z</time>
        <sat>9</sat>
      </trkpt>
      <trkpt lat="43.628712" lon="11.020014">
        <ele>127.6</ele>
        <time>2016-07-06T13:54:34Z</time>
        <sat>10</sat>
      </trkpt>
      <trkpt lat="43.628587" lon="11.019937">
        <ele>127.6</ele>
        <time>2016-07-06T13:54:35Z</time>
        <sat>10</sat>
      </trkpt>
      <trkpt lat="43.628454" lon="11.019871">
        <ele>127.5</ele>
        <time>2016-07-06T13:54:36Z</time>
        <sat>8</sat>
      </trkpt>
      <trkpt lat="43.628317" lon="11.019827">
        <ele>127.8</ele>
        <time>2016-07-06T13:54:37Z</time>
        <sat>8</sat>
      </trkpt>
      <trkpt lat="43.628183" lon="11.019793">
        <ele>127.9</ele>
        <time>2016-07-06T13:54:38Z</time>
        <sat>6</sat>
      </trkpt>
      <trkpt lat="43.628054" lon="11.019777">
        <ele>127.9</ele>
        <time>2016-07-06T13:54:39Z</time>
        <sat>9</sat>
      </trkpt>
      <trkpt lat="43.627917" lon="11.019760">
        <ele>127.7</ele>
        <time>2016-07-06T13:54:40Z</time>
        <sat>9</sat>
      </trkpt>
      <trkpt lat="43.627773" lon="11.019713">
        <ele>127.1</ele>
        <time>2016-07-06T13:54:41Z</time>
        <sat>8</sat>
      </trkpt>
      <trkpt lat="43.627615" lon="11.019658">
        <ele>125.7</ele>
        <time>2016-07-06T13:54:42Z</time>
        <sat>9</sat>
      </trkpt>
      <trkpt lat="43.627485" lon="11.019587">
        <ele>118.7</ele>
        <time>2016-07-06T13:54:43Z</time>
        <sat>9</sat>
      </trkpt>
      <trkpt lat="43.627327" lon="11.019505">
        <ele>118.0</ele>
        <time>2016-07-06T13:54:44Z</time>
        <sat>9</sat>
      </trkpt>
      <trkpt lat="43.627170" lon="11.019433">
        <ele>115.9</ele>
        <time>2016-07-06T13:54:45Z</time>
        <sat>9</sat>
      </trkpt>
      <trkpt lat="43.627011" lon="11.019358">
        <ele>115.9</ele>
        <time>2016-07-06T13:54:46Z</time>
        <sat>9</sat>
      </trkpt>
      <trkpt lat="43.626850" lon="11.019287">
        <ele>116.2</ele>
        <time>2016-07-06T13:54:47Z</time>
        <sat>10</sat>
      </trkpt>
      <trkpt lat="43.626699" lon="11.019223">
        <ele>115.8</ele>
        <time>2016-07-06T13:54:48Z</time>
        <sat>10</sat>
      </trkpt>
      <trkpt lat="43.626566" lon="11.019159">
        <ele>115.1</ele>
        <time>2016-07-06T13:54:49Z</time>
        <sat>10</sat>
      </trkpt>
      <trkpt lat="43.626439" lon="11.019088">
        <ele>114.8</ele>
        <time>2016-07-06T13:54:50Z</time>
        <sat>10</sat>
      </trkpt>
      <trkpt lat="43.626326" lon="11.019012">
        <ele>114.4</ele>
        <time>2016-07-06T13:54:51Z</time>
        <sat>10</sat>
      </trkpt>
      <trkpt lat="43.626217" lon="11.018923">
        <ele>114.9</ele>
        <time>2016-07-06T13:54:52Z</time>
        <sat>10</sat>
      </trkpt>
      <trkpt lat="43.626121" lon="11.018817">
        <ele>114.4</ele>
        <time>2016-07-06T13:54:53Z</time>
        <sat>10</sat>
      </trkpt>
      <trkpt lat="43.626037" lon="11.018692">
        <ele>113.4</ele>
        <time>2016-07-06T13:54:54Z</time>
        <sat>10</sat>
      </trkpt>
      <trkpt lat="43.625970" lon="11.018548">
        <ele>112.4</ele>
        <time>2016-07-06T13:54:55Z</time>
        <sat>8</sat>
      </trkpt>
      <trkpt lat="43.625906" lon="11.018384">
        <ele>111.3</ele>
        <time>2016-07-06T13:54:56Z</time>
        <sat>9</sat>
      </trkpt>
      <trkpt lat="43.625765" lon="11.018002">
        <ele>109.2</ele>
        <time>2016-07-06T13:54:58Z</time>
        <sat>10</sat>
      </trkpt>
      <trkpt lat="43.625691" lon="11.017784">
        <ele>108.7</ele>
        <time>2016-07-06T13:54:59Z</time>
        <sat>10</sat>
      </trkpt>
      <trkpt lat="43.625616" lon="11.017564">
        <ele>107.9</ele>
        <time>2016-07-06T13:55:00Z</time>
        <sat>10</sat>
      </trkpt>
      <trkpt lat="43.625536" lon="11.017342">
        <ele>107.4</ele>
        <time>2016-07-06T13:55:01Z</time>
        <sat>10</sat>
      </trkpt>
      <trkpt lat="43.625446" lon="11.017119">
        <ele>107.1</ele>
        <time>2016-07-06T13:55:02Z</time>
        <sat>9</sat>
      </trkpt>
      <trkpt lat="43.625353" lon="11.016914">
        <ele>107.1</ele>
        <time>2016-07-06T13:55:03Z</time>
        <sat>10</sat>
      </trkpt>
      <trkpt lat="43.625257" lon="11.016728">
        <ele>107.3</ele>
        <time>2016-07-06T13:55:04Z</time>
        <sat>10</sat>
      </trkpt>
      <trkpt lat="43.625151" lon="11.016551">
        <ele>107.7</ele>
        <time>2016-07-06T13:55:05Z</time>
        <sat>10</sat>
      </trkpt>
      <trkpt lat="43.625036" lon="11.016382">
        <ele>106.8</ele>
        <time>2016-07-06T13:55:06Z</time>
        <sat>10</sat>
      </trkpt>
      <trkpt lat="43.624911" lon="11.016225">
        <ele>106.6</ele>
        <time>2016-07-06T13:55:07Z</time>
        <sat>10</sat>
      </trkpt>
      <trkpt lat="43.624774" lon="11.016087">
        <ele>106.6</ele>
        <time>2016-07-06T13:55:08Z</time>
        <sat>9</sat>
      </trkpt>
      <trkpt lat="43.624619" lon="11.015968">
        <ele>107.0</ele>
        <time>2016-07-06T13:55:09Z</time>
        <sat>10</sat>
      </trkpt>
      <trkpt lat="43.624448" lon="11.015859">
        <ele>107.5</ele>
        <time>2016-07-06T13:55:10Z</time>
        <sat>9</sat>
      </trkpt>
      <trkpt lat="43.624274" lon="11.015749">
        <ele>107.8</ele>
        <time>2016-07-06T13:55:11Z</time>
        <sat>10</sat>
      </trkpt>
      <trkpt lat="43.624110" lon="11.015635">
        <ele>108.1</ele>
        <time>2016-07-06T13:55:12Z</time>
        <sat>10</sat>
      </trkpt>
      <trkpt lat="43.623961" lon="11.015529">
        <ele>108.7</ele>
        <time>2016-07-06T13:55:13Z</time>
        <sat>10</sat>
      </trkpt>
      <trkpt lat="43.623816" lon="11.015437">
        <ele>109.3</ele>
        <time>2016-07-06T13:55:14Z</time>
        <sat>10</sat>
      </trkpt>
      <trkpt lat="43.623660" lon="11.015371">
        <ele>109.8</ele>
        <time>2016-07-06T13:55:15Z</time>
        <sat>10</sat>
      </trkpt>
      <trkpt lat="43.623491" lon="11.015318">
        <ele>110.0</ele>
        <time>2016-07-06T13:55:16Z</time>
        <sat>10</sat>
      </trkpt>
      <trkpt lat="43.623313" lon="11.015261">
        <ele>109.5</ele>
        <time>2016-07-06T13:55:17Z</time>
        <sat>10</sat>
      </trkpt>
      <trkpt lat="43.623128" lon="11.015195">
        <ele>109.8</ele>
        <time>2016-07-06T13:55:18Z</time>
        <sat>9</sat>
      </trkpt>
      <trkpt lat="43.622947" lon="11.015116">
        <ele>110.3</ele>
        <time>2016-07-06T13:55:19Z</time>
        <sat>9</sat>
      </trkpt>
      <trkpt lat="43.622775" lon="11.015033">
        <ele>110.9</ele>
        <time>2016-07-06T13:55:20Z</time>
        <sat>10</sat>
      </trkpt>
      <trkpt lat="43.622605" lon="11.014946">
        <ele>111.9</ele>
        <time>2016-07-06T13:55:21Z</time>
        <sat>10</sat>
      </trkpt>
      <trkpt lat="43.622447" lon="11.014850">
        <ele>112.9</ele>
        <time>2016-07-06T13:55:22Z</time>
        <sat>10</sat>
      </trkpt>
      <trkpt lat="43.622311" lon="11.014753">
        <ele>113.4</ele>
        <time>2016-07-06T13:55:23Z</time>
        <sat>10</sat>
      </trkpt>
      <trkpt lat="43.622195" lon="11.014664">
        <ele>113.4</ele>
        <time>2016-07-06T13:55:24Z</time>
        <sat>10</sat>
      </trkpt>
      <trkpt lat="43.622084" lon="11.014592">
        <ele>113.0</ele>
        <time>2016-07-06T13:55:25Z</time>
        <sat>10</sat>
      </trkpt>
      <trkpt lat="43.621959" lon="11.014546">
        <ele>112.5</ele>
        <time>2016-07-06T13:55:26Z</time>
        <sat>10</sat>
      </trkpt>
      <trkpt lat="43.621814" lon="11.014517">
        <ele>112.2</ele>
        <time>2016-07-06T13:55:27Z</time>
        <sat>10</sat>
      </trkpt>
      <trkpt lat="43.621652" lon="11.014508">
        <ele>110.7</ele>
        <time>2016-07-06T13:55:28Z</time>
        <sat>10</sat>
      </trkpt>
      <trkpt lat="43.621484" lon="11.014501">
        <ele>109.5</ele>
        <time>2016-07-06T13:55:29Z</time>
        <sat>10</sat>
      </trkpt>
      <trkpt lat="43.621322" lon="11.014492">
        <ele>108.5</ele>
        <time>2016-07-06T13:55:30Z</time>
        <sat>10</sat>
      </trkpt>
      <trkpt lat="43.621172" lon="11.014486">
        <ele>107.4</ele>
        <time>2016-07-06T13:55:31Z</time>
        <sat>10</sat>
      </trkpt>
      <trkpt lat="43.621035" lon="11.014479">
        <ele>106.6</ele>
        <time>2016-07-06T13:55:32Z</time>
        <sat>10</sat>
      </trkpt>
      <trkpt lat="43.620913" lon="11.014463">
        <ele>106.1</ele>
        <time>2016-07-06T13:55:33Z</time>
        <sat>10</sat>
      </trkpt>
      <trkpt lat="43.620801" lon="11.014431">
        <ele>105.7</ele>
        <time>2016-07-06T13:55:34Z</time>
        <sat>10</sat>
      </trkpt>
      <trkpt lat="43.620687" lon="11.014380">
        <ele>105.2</ele>
        <time>2016-07-06T13:55:35Z</time>
        <sat>10</sat>
      </trkpt>
      <trkpt lat="43.620565" lon="11.014320">
        <ele>104.5</ele>
        <time>2016-07-06T13:55:36Z</time>
        <sat>10</sat>
      </trkpt>
      <trkpt lat="43.620435" lon="11.014259">
        <ele>102.9</ele>
        <time>2016-07-06T13:55:37Z</time>
        <sat>10</sat>
      </trkpt>
      <trkpt lat="43.620307" lon="11.014210">
        <ele>101.5</ele>
        <time>2016-07-06T13:55:38Z</time>
        <sat>10</sat>
      </trkpt>
      <trkpt lat="43.620188" lon="11.014169">
        <ele>100.6</ele>
        <time>2016-07-06T13:55:39Z</time>
        <sat>10</sat>
      </trkpt>
      <trkpt lat="43.620079" lon="11.014132">
        <ele>99.8</ele>
        <time>2016-07-06T13:55:40Z</time>
        <sat>10</sat>
      </trkpt>
      <trkpt lat="43.619978" lon="11.014100">
        <ele>99.1</ele>
        <time>2016-07-06T13:55:41Z</time>
        <sat>10</sat>
      </trkpt>
      <trkpt lat="43.619873" lon="11.014076">
        <ele>98.6</ele>
        <time>2016-07-06T13:55:42Z</time>
        <sat>10</sat>
      </trkpt>
      <trkpt lat="43.619753" lon="11.014054">
        <ele>97.8</ele>
        <time>2016-07-06T13:55:43Z</time>
        <sat>10</sat>
      </trkpt>
      <trkpt lat="43.619618" lon="11.014031">
        <ele>97.4</ele>
        <time>2016-07-06T13:55:44Z</time>
        <sat>10</sat>
      </trkpt>
      <trkpt lat="43.619474" lon="11.014005">
        <ele>97.1</ele>
        <time>2016-07-06T13:55:45Z</time>
        <sat>10</sat>
      </trkpt>
      <trkpt lat="43.619328" lon="11.013980">
        <ele>97.0</ele>
        <time>2016-07-06T13:55:46Z</time>
        <sat>9</sat>
      </trkpt>
      <trkpt lat="43.619182" lon="11.013956">
        <ele>96.9</ele>
        <time>2016-07-06T13:55:47Z</time>
        <sat>10</sat>
      </trkpt>
      <trkpt lat="43.619035" lon="11.013935">
        <ele>96.8</ele>
        <time>2016-07-06T13:55:48Z</time>
        <sat>10</sat>
      </trkpt>
      <trkpt lat="43.618882" lon="11.013919">
        <ele>96.5</ele>
        <time>2016-07-06T13:55:49Z</time>
        <sat>10</sat>
      </trkpt>
      <trkpt lat="43.618714" lon="11.013902">
        <ele>95.8</ele>
        <time>2016-07-06T13:55:50Z</time>
        <sat>10</sat>
      </trkpt>
      <trkpt lat="43.618533" lon="11.013885">
        <ele>94.8</ele>
        <time>2016-07-06T13:55:51Z</time>
        <sat>10</sat>
      </trkpt>
      <trkpt lat="43.618349" lon="11.013868">
        <ele>93.5</ele>
        <time>2016-07-06T13:55:52Z</time>
        <sat>10</sat>
      </trkpt>
      <trkpt lat="43.618162" lon="11.013852">
        <ele>92.6</ele>
        <time>2016-07-06T13:55:53Z</time>
        <sat>10</sat>
      </trkpt>
      <trkpt lat="43.617974" lon="11.013837">
        <ele>91.8</ele>
        <time>2016-07-06T13:55:54Z</time>
        <sat>10</sat>
      </trkpt>
      <trkpt lat="43.617789" lon="11.013825">
        <ele>91.3</ele>
        <time>2016-07-06T13:55:55Z</time>
        <sat>10</sat>
      </trkpt>
      <trkpt lat="43.617608" lon="11.013815">
        <ele>90.8</ele>
        <time>2016-07-06T13:55:56Z</time>
        <sat>10</sat>
      </trkpt>
      <trkpt lat="43.617426" lon="11.013803">
        <ele>90.7</ele>
        <time>2016-07-06T13:55:57Z</time>
        <sat>10</sat>
      </trkpt>
      <trkpt lat="43.617067" lon="11.013797">
        <ele>91.2</ele>
        <time>2016-07-06T13:55:59Z</time>
        <sat>10</sat>
      </trkpt>
      <trkpt lat="43.616909" lon="11.013818">
        <ele>91.9</ele>
        <time>2016-07-06T13:56:00Z</time>
        <sat>9</sat>
      </trkpt>
      <trkpt lat="43.616780" lon="11.013848">
        <ele>92.3</ele>
        <time>2016-07-06T13:56:01Z</time>
        <sat>10</sat>
      </trkpt>
      <trkpt lat="43.616667" lon="11.013859">
        <ele>92.6</ele>
        <time>2016-07-06T13:56:02Z</time>
        <sat>10</sat>
      </trkpt>
      <trkpt lat="43.616558" lon="11.013833">
        <ele>92.3</ele>
        <time>2016-07-06T13:56:03Z</time>
        <sat>10</sat>
      </trkpt>
      <trkpt lat="43.616453" lon="11.013764">
        <ele>92.1</ele>
        <time>2016-07-06T13:56:04Z</time>
        <sat>10</sat>
      </trkpt>
      <trkpt lat="43.616350" lon="11.013662">
        <ele>91.6</ele>
        <time>2016-07-06T13:56:05Z</time>
        <sat>10</sat>
      </trkpt>
      <trkpt lat="43.616261" lon="11.013544">
        <ele>88.5</ele>
        <time>2016-07-06T13:56:06Z</time>
        <sat>10</sat>
      </trkpt>
      <trkpt lat="43.616159" lon="11.013426">
        <ele>86.7</ele>
        <time>2016-07-06T13:56:07Z</time>
        <sat>10</sat>
      </trkpt>
      <trkpt lat="43.616062" lon="11.013321">
        <ele>84.9</ele>
        <time>2016-07-06T13:56:08Z</time>
        <sat>10</sat>
      </trkpt>
      <trkpt lat="43.615971" lon="11.013240">
        <ele>83.1</ele>
        <time>2016-07-06T13:56:09Z</time>
        <sat>10</sat>
      </trkpt>
      <trkpt lat="43.615880" lon="11.013193">
        <ele>81.1</ele>
        <time>2016-07-06T13:56:10Z</time>
        <sat>10</sat>
      </trkpt>
      <trkpt lat="43.615787" lon="11.013194">
        <ele>79.0</ele>
        <time>2016-07-06T13:56:11Z</time>
        <sat>10</sat>
      </trkpt>
      <trkpt lat="43.615702" lon="11.013246">
        <ele>77.4</ele>
        <time>2016-07-06T13:56:12Z</time>
        <sat>10</sat>
      </trkpt>
      <trkpt lat="43.615627" lon="11.013344">
        <ele>75.8</ele>
        <time>2016-07-06T13:56:13Z</time>
        <sat>10</sat>
      </trkpt>
      <trkpt lat="43.615554" lon="11.013453">
        <ele>73.9</ele>
        <time>2016-07-06T13:56:14Z</time>
        <sat>10</sat>
      </trkpt>
      <trkpt lat="43.615470" lon="11.013535">
        <ele>72.0</ele>
        <time>2016-07-06T13:56:15Z</time>
        <sat>10</sat>
      </trkpt>
      <trkpt lat="43.615371" lon="11.013578">
        <ele>70.0</ele>
        <time>2016-07-06T13:56:16Z</time>
        <sat>10</sat>
      </trkpt>
      <trkpt lat="43.615258" lon="11.013580">
        <ele>67.9</ele>
        <time>2016-07-06T13:56:17Z</time>
        <sat>10</sat>
      </trkpt>
      <trkpt lat="43.615134" lon="11.013557">
        <ele>65.6</ele>
        <time>2016-07-06T13:56:18Z</time>
        <sat>10</sat>
      </trkpt>
      <trkpt lat="43.615007" lon="11.013541">
        <ele>63.1</ele>
        <time>2016-07-06T13:56:19Z</time>
        <sat>10</sat>
      </trkpt>
      <trkpt lat="43.614879" lon="11.013542">
        <ele>60.8</ele>
        <time>2016-07-06T13:56:20Z</time>
        <sat>10</sat>
      </trkpt>
      <trkpt lat="43.614753" lon="11.013544">
        <ele>58.6</ele>
        <time>2016-07-06T13:56:21Z</time>
        <sat>10</sat>
      </trkpt>
      <trkpt lat="43.614637" lon="11.013529">
        <ele>56.4</ele>
        <time>2016-07-06T13:56:22Z</time>
        <sat>8</sat>
      </trkpt>
      <trkpt lat="43.614537" lon="11.013486">
        <ele>54.5</ele>
        <time>2016-07-06T13:56:23Z</time>
        <sat>10</sat>
      </trkpt>
      <trkpt lat="43.614461" lon="11.013406">
        <ele>52.7</ele>
        <time>2016-07-06T13:56:24Z</time>
        <sat>10</sat>
      </trkpt>
      <trkpt lat="43.614411" lon="11.013289">
        <ele>51.9</ele>
        <time>2016-07-06T13:56:25Z</time>
        <sat>10</sat>
      </trkpt>
      <trkpt lat="43.614391" lon="11.013150">
        <ele>50.6</ele>
        <time>2016-07-06T13:56:26Z</time>
        <sat>10</sat>
      </trkpt>
      <trkpt lat="43.614392" lon="11.013004">
        <ele>49.4</ele>
        <time>2016-07-06T13:56:27Z</time>
        <sat>10</sat>
      </trkpt>
      <trkpt lat="43.614394" lon="11.012864">
        <ele>48.2</ele>
        <time>2016-07-06T13:56:28Z</time>
        <sat>10</sat>
      </trkpt>
      <trkpt lat="43.614395" lon="11.012732">
        <ele>47.0</ele>
        <time>2016-07-06T13:56:29Z</time>
        <sat>10</sat>
      </trkpt>
      <trkpt lat="43.614374" lon="11.012519">
        <ele>44.6</ele>
        <time>2016-07-06T13:56:31Z</time>
        <sat>10</sat>
      </trkpt>
      <trkpt lat="43.614286" lon="11.012440">
        <ele>39.3</ele>
        <time>2016-07-06T13:56:33Z</time>
        <sat>10</sat>
      </trkpt>
      <trkpt lat="43.614117" lon="11.012522">
        <ele>35.9</ele>
        <time>2016-07-06T13:56:35Z</time>
        <sat>10</sat>
      </trkpt>
      <trkpt lat="43.614009" lon="11.012569">
        <ele>36.2</ele>
        <time>2016-07-06T13:56:36Z</time>
        <sat>10</sat>
      </trkpt>
      <trkpt lat="43.613909" lon="11.012590">
        <ele>33.9</ele>
        <time>2016-07-06T13:56:37Z</time>
        <sat>10</sat>
      </trkpt>
      <trkpt lat="43.613809" lon="11.012558">
        <ele>32.7</ele>
        <time>2016-07-06T13:56:38Z</time>
        <sat>10</sat>
      </trkpt>
      <trkpt lat="43.613720" lon="11.012488">
        <ele>31.8</ele>
        <time>2016-07-06T13:56:39Z</time>
        <sat>10</sat>
      </trkpt>
      <trkpt lat="43.613650" lon="11.012399">
        <ele>31.5</ele>
        <time>2016-07-06T13:56:40Z</time>
        <sat>10</sat>
      </trkpt>
      <trkpt lat="43.613549" lon="11.012244">
        <ele>30.8</ele>
        <time>2016-07-06T13:56:42Z</time>
        <sat>10</sat>
      </trkpt>
      <trkpt lat="43.613495" lon="11.012120">
        <ele>30.3</ele>
        <time>2016-07-06T13:56:45Z</time>
        <sat>10</sat>
      </trkpt>
      <trkpt lat="43.613540" lon="11.012245">
        <ele>29.7</ele>
        <time>2016-07-06T13:56:50Z</time>
        <sat>9</sat>
      </trkpt>
      <trkpt lat="43.613610" lon="11.012407">
        <ele>29.7</ele>
        <time>2016-07-06T13:56:52Z</time>
        <sat>10</sat>
      </trkpt>
      <trkpt lat="43.613615" lon="11.012685">
        <ele>29.7</ele>
        <time>2016-07-06T13:56:54Z</time>
        <sat>10</sat>
      </trkpt>
      <trkpt lat="43.613613" lon="11.012858">
        <ele>29.5</ele>
        <time>2016-07-06T13:56:55Z</time>
        <sat>10</sat>
      </trkpt>
      <trkpt lat="43.613620" lon="11.013041">
        <ele>29.6</ele>
        <time>2016-07-06T13:56:56Z</time>
        <sat>10</sat>
      </trkpt>
      <trkpt lat="43.613643" lon="11.013230">
        <ele>29.7</ele>
        <time>2016-07-06T13:56:57Z</time>
        <sat>9</sat>
      </trkpt>
      <trkpt lat="43.613684" lon="11.013415">
        <ele>29.8</ele>
        <time>2016-07-06T13:56:58Z</time>
        <sat>10</sat>
      </trkpt>
      <trkpt lat="43.613810" lon="11.013783">
        <ele>30.2</ele>
        <time>2016-07-06T13:57:00Z</time>
        <sat>10</sat>
      </trkpt>
      <trkpt lat="43.613883" lon="11.013950">
        <ele>30.4</ele>
        <time>2016-07-06T13:57:01Z</time>
        <sat>10</sat>
      </trkpt>
      <trkpt lat="43.613960" lon="11.014093">
        <ele>30.5</ele>
        <time>2016-07-06T13:57:02Z</time>
        <sat>8</sat>
      </trkpt>
      <trkpt lat="43.614064" lon="11.014242">
        <ele>30.7</ele>
        <time>2016-07-06T13:57:03Z</time>
        <sat>8</sat>
      </trkpt>
      <trkpt lat="43.614188" lon="11.014412">
        <ele>30.6</ele>
        <time>2016-07-06T13:57:04Z</time>
        <sat>9</sat>
      </trkpt>
      <trkpt lat="43.614319" lon="11.014590">
        <ele>31.0</ele>
        <time>2016-07-06T13:57:05Z</time>
        <sat>9</sat>
      </trkpt>
      <trkpt lat="43.614446" lon="11.014772">
        <ele>31.4</ele>
        <time>2016-07-06T13:57:06Z</time>
        <sat>10</sat>
      </trkpt>
      <trkpt lat="43.614571" lon="11.014957">
        <ele>31.8</ele>
        <time>2016-07-06T13:57:07Z</time>
        <sat>10</sat>
      </trkpt>
      <trkpt lat="43.614703" lon="11.015135">
        <ele>32.2</ele>
        <time>2016-07-06T13:57:08Z</time>
        <sat>9</sat>
      </trkpt>
      <trkpt lat="43.614846" lon="11.015314">
        <ele>32.6</ele>
        <time>2016-07-06T13:57:09Z</time>
        <sat>10</sat>
      </trkpt>
      <trkpt lat="43.614992" lon="11.015496">
        <ele>32.9</ele>
        <time>2016-07-06T13:57:10Z</time>
        <sat>10</sat>
      </trkpt>
      <trkpt lat="43.615124" lon="11.015710">
        <ele>32.9</ele>
        <time>2016-07-06T13:57:11Z</time>
        <sat>10</sat>
      </trkpt>
      <trkpt lat="43.615245" lon="11.015929">
        <ele>33.3</ele>
        <time>2016-07-06T13:57:12Z</time>
        <sat>10</sat>
      </trkpt>
      <trkpt lat="43.615349" lon="11.016128">
        <ele>33.5</ele>
        <time>2016-07-06T13:57:13Z</time>
        <sat>10</sat>
      </trkpt>
      <trkpt lat="43.615444" lon="11.016304">
        <ele>34.0</ele>
        <time>2016-07-06T13:57:14Z</time>
        <sat>9</sat>
      </trkpt>
      <trkpt lat="43.615531" lon="11.016466">
        <ele>34.7</ele>
        <time>2016-07-06T13:57:15Z</time>
        <sat>10</sat>
      </trkpt>
      <trkpt lat="43.615615" lon="11.016629">
        <ele>35.4</ele>
        <time>2016-07-06T13:57:16Z</time>
        <sat>10</sat>
      </trkpt>
      <trkpt lat="43.615688" lon="11.016800">
        <ele>35.4</ele>
        <time>2016-07-06T13:57:17Z</time>
        <sat>8</sat>
      </trkpt>
      <trkpt lat="43.615744" lon="11.016993">
        <ele>34.4</ele>
        <time>2016-07-06T13:57:18Z</time>
        <sat>9</sat>
      </trkpt>
      <trkpt lat="43.615783" lon="11.017191">
        <ele>34.2</ele>
        <time>2016-07-06T13:57:19Z</time>
        <sat>10</sat>
      </trkpt>
      <trkpt lat="43.615805" lon="11.017377">
        <ele>34.2</ele>
        <time>2016-07-06T13:57:20Z</time>
        <sat>10</sat>
      </trkpt>
      <trkpt lat="43.615816" lon="11.017539">
        <ele>34.2</ele>
        <time>2016-07-06T13:57:21Z</time>
        <sat>10</sat>
      </trkpt>
      <trkpt lat="43.615825" lon="11.017683">
        <ele>34.3</ele>
        <time>2016-07-06T13:57:22Z</time>
        <sat>10</sat>
      </trkpt>
      <trkpt lat="43.615846" lon="11.017813">
        <ele>34.0</ele>
        <time>2016-07-06T13:57:23Z</time>
        <sat>10</sat>
      </trkpt>
      <trkpt lat="43.615930" lon="11.018035">
        <ele>33.3</ele>
        <time>2016-07-06T13:57:25Z</time>
        <sat>10</sat>
      </trkpt>
      <trkpt lat="43.616014" lon="11.018137">
        <ele>33.3</ele>
        <time>2016-07-06T13:57:26Z</time>
        <sat>10</sat>
      </trkpt>
      <trkpt lat="43.616105" lon="11.018230">
        <ele>32.9</ele>
        <time>2016-07-06T13:57:27Z</time>
        <sat>10</sat>
      </trkpt>
      <trkpt lat="43.616179" lon="11.018321">
        <ele>32.7</ele>
        <time>2016-07-06T13:57:28Z</time>
        <sat>10</sat>
      </trkpt>
      <trkpt lat="43.616261" lon="11.018518">
        <ele>32.7</ele>
        <time>2016-07-06T13:57:30Z</time>
        <sat>10</sat>
      </trkpt>
      <trkpt lat="43.616270" lon="11.018663">
        <ele>32.8</ele>
        <time>2016-07-06T13:57:31Z</time>
        <sat>10</sat>
      </trkpt>
      <trkpt lat="43.616258" lon="11.018846">
        <ele>32.8</ele>
        <time>2016-07-06T13:57:32Z</time>
        <sat>10</sat>
      </trkpt>
      <trkpt lat="43.616230" lon="11.019047">
        <ele>32.7</ele>
        <time>2016-07-06T13:57:33Z</time>
        <sat>10</sat>
      </trkpt>
      <trkpt lat="43.616197" lon="11.019256">
        <ele>32.7</ele>
        <time>2016-07-06T13:57:34Z</time>
        <sat>10</sat>
      </trkpt>
      <trkpt lat="43.616174" lon="11.019448">
        <ele>32.7</ele>
        <time>2016-07-06T13:57:35Z</time>
        <sat>10</sat>
      </trkpt>
      <trkpt lat="43.616164" lon="11.019607">
        <ele>32.7</ele>
        <time>2016-07-06T13:57:36Z</time>
        <sat>10</sat>
      </trkpt>
      <trkpt lat="43.616162" lon="11.019749">
        <ele>32.7</ele>
        <time>2016-07-06T13:57:37Z</time>
        <sat>10</sat>
      </trkpt>
      <trkpt lat="43.616167" lon="11.019885">
        <ele>33.2</ele>
        <time>2016-07-06T13:57:38Z</time>
        <sat>10</sat>
      </trkpt>
      <trkpt lat="43.616186" lon="11.020022">
        <ele>33.3</ele>
        <time>2016-07-06T13:57:39Z</time>
        <sat>10</sat>
      </trkpt>
      <trkpt lat="43.616220" lon="11.020172">
        <ele>33.2</ele>
        <time>2016-07-06T13:57:40Z</time>
        <sat>10</sat>
      </trkpt>
      <trkpt lat="43.616256" lon="11.020340">
        <ele>33.1</ele>
        <time>2016-07-06T13:57:41Z</time>
        <sat>10</sat>
      </trkpt>
      <trkpt lat="43.616291" lon="11.020512">
        <ele>33.1</ele>
        <time>2016-07-06T13:57:42Z</time>
        <sat>10</sat>
      </trkpt>
      <trkpt lat="43.616318" lon="11.020666">
        <ele>32.5</ele>
        <time>2016-07-06T13:57:43Z</time>
        <sat>10</sat>
      </trkpt>
      <trkpt lat="43.616336" lon="11.020798">
        <ele>32.0</ele>
        <time>2016-07-06T13:57:44Z</time>
        <sat>9</sat>
      </trkpt>
      <trkpt lat="43.616350" lon="11.021058">
        <ele>30.8</ele>
        <time>2016-07-06T13:57:46Z</time>
        <sat>10</sat>
      </trkpt>
      <trkpt lat="43.616352" lon="11.021220">
        <ele>30.3</ele>
        <time>2016-07-06T13:57:47Z</time>
        <sat>10</sat>
      </trkpt>
      <trkpt lat="43.616352" lon="11.021415">
        <ele>29.9</ele>
        <time>2016-07-06T13:57:48Z</time>
        <sat>9</sat>
      </trkpt>
      <trkpt lat="43.616348" lon="11.021624">
        <ele>29.2</ele>
        <time>2016-07-06T13:57:49Z</time>
        <sat>8</sat>
      </trkpt>
      <trkpt lat="43.616318" lon="11.021847">
        <ele>28.6</ele>
        <time>2016-07-06T13:57:50Z</time>
        <sat>9</sat>
      </trkpt>
      <trkpt lat="43.616260" lon="11.022071">
        <ele>28.2</ele>
        <time>2016-07-06T13:57:51Z</time>
        <sat>10</sat>
      </trkpt>
      <trkpt lat="43.616193" lon="11.022294">
        <ele>27.9</ele>
        <time>2016-07-06T13:57:52Z</time>
        <sat>10</sat>
      </trkpt>
      <trkpt lat="43.616123" lon="11.022522">
        <ele>27.8</ele>
        <time>2016-07-06T13:57:53Z</time>
        <sat>10</sat>
      </trkpt>
      <trkpt lat="43.616053" lon="11.022750">
        <ele>27.7</ele>
        <time>2016-07-06T13:57:54Z</time>
        <sat>10</sat>
      </trkpt>
      <trkpt lat="43.615983" lon="11.022964">
        <ele>27.8</ele>
        <time>2016-07-06T13:57:55Z</time>
        <sat>9</sat>
      </trkpt>
      <trkpt lat="43.615917" lon="11.023160">
        <ele>27.8</ele>
        <time>2016-07-06T13:57:56Z</time>
        <sat>10</sat>
      </trkpt>
      <trkpt lat="43.615857" lon="11.023338">
        <ele>28.0</ele>
        <time>2016-07-06T13:57:57Z</time>
        <sat>10</sat>
      </trkpt>
      <trkpt lat="43.615807" lon="11.023501">
        <ele>28.1</ele>
        <time>2016-07-06T13:57:58Z</time>
        <sat>9</sat>
      </trkpt>
      <trkpt lat="43.615761" lon="11.023650">
        <ele>28.2</ele>
        <time>2016-07-06T13:57:59Z</time>
        <sat>9</sat>
      </trkpt>
      <trkpt lat="43.615682" lon="11.023918">
        <ele>28.1</ele>
        <time>2016-07-06T13:58:01Z</time>
        <sat>9</sat>
      </trkpt>
      <trkpt lat="43.615647" lon="11.024034">
        <ele>28.2</ele>
        <time>2016-07-06T13:58:02Z</time>
        <sat>9</sat>
      </trkpt>
      <trkpt lat="43.615593" lon="11.024255">
        <ele>28.4</ele>
        <time>2016-07-06T13:58:04Z</time>
        <sat>9</sat>
      </trkpt>
      <trkpt lat="43.615592" lon="11.024385">
        <ele>28.6</ele>
        <time>2016-07-06T13:58:05Z</time>
        <sat>9</sat>
      </trkpt>
      <trkpt lat="43.615616" lon="11.024542">
        <ele>28.8</ele>
        <time>2016-07-06T13:58:06Z</time>
        <sat>9</sat>
      </trkpt>
      <trkpt lat="43.615658" lon="11.024719">
        <ele>28.6</ele>
        <time>2016-07-06T13:58:07Z</time>
        <sat>9</sat>
      </trkpt>
      <trkpt lat="43.615706" lon="11.024891">
        <ele>28.3</ele>
        <time>2016-07-06T13:58:08Z</time>
        <sat>9</sat>
      </trkpt>
      <trkpt lat="43.615746" lon="11.025028">
        <ele>28.1</ele>
        <time>2016-07-06T13:58:09Z</time>
        <sat>9</sat>
      </trkpt>
      <trkpt lat="43.615772" lon="11.025234">
        <ele>28.2</ele>
        <time>2016-07-06T13:58:11Z</time>
        <sat>9</sat>
      </trkpt>
      <trkpt lat="43.615726" lon="11.025496">
        <ele>27.3</ele>
        <time>2016-07-06T13:58:13Z</time>
        <sat>9</sat>
      </trkpt>
      <trkpt lat="43.615689" lon="11.025680">
        <ele>26.8</ele>
        <time>2016-07-06T13:58:14Z</time>
        <sat>9</sat>
      </trkpt>
      <trkpt lat="43.615666" lon="11.025866">
        <ele>26.2</ele>
        <time>2016-07-06T13:58:15Z</time>
        <sat>9</sat>
      </trkpt>
      <trkpt lat="43.615648" lon="11.026033">
        <ele>25.9</ele>
        <time>2016-07-06T13:58:16Z</time>
        <sat>9</sat>
      </trkpt>
      <trkpt lat="43.615631" lon="11.026178">
        <ele>25.2</ele>
        <time>2016-07-06T13:58:17Z</time>
        <sat>10</sat>
      </trkpt>
      <trkpt lat="43.615619" lon="11.026316">
        <ele>25.0</ele>
        <time>2016-07-06T13:58:18Z</time>
        <sat>9</sat>
      </trkpt>
      <trkpt lat="43.615612" lon="11.026456">
        <ele>24.7</ele>
        <time>2016-07-06T13:58:19Z</time>
        <sat>10</sat>
      </trkpt>
      <trkpt lat="43.615610" lon="11.026606">
        <ele>25.6</ele>
        <time>2016-07-06T13:58:20Z</time>
        <sat>10</sat>
      </trkpt>
      <trkpt lat="43.615612" lon="11.026750">
        <ele>26.2</ele>
        <time>2016-07-06T13:58:21Z</time>
        <sat>10</sat>
      </trkpt>
      <trkpt lat="43.615607" lon="11.026878">
        <ele>27.0</ele>
        <time>2016-07-06T13:58:22Z</time>
        <sat>10</sat>
      </trkpt>
      <trkpt lat="43.615595" lon="11.027052">
        <ele>27.5</ele>
        <time>2016-07-06T13:58:24Z</time>
        <sat>9</sat>
      </trkpt>
      <trkpt lat="43.615571" lon="11.027228">
        <ele>30.2</ele>
        <time>2016-07-06T14:00:27Z</time>
        <sat>10</sat>
      </trkpt>
      <trkpt lat="43.615533" lon="11.027685">
        <ele>30.1</ele>
        <time>2016-07-06T14:00:31Z</time>
        <sat>9</sat>
      </trkpt>
      <trkpt lat="43.615542" lon="11.027818">
        <ele>29.9</ele>
        <time>2016-07-06T14:00:32Z</time>
        <sat>10</sat>
      </trkpt>
      <trkpt lat="43.615564" lon="11.027941">
        <ele>29.7</ele>
        <time>2016-07-06T14:00:33Z</time>
        <sat>9</sat>
      </trkpt>
      <trkpt lat="43.615601" lon="11.028061">
        <ele>29.4</ele>
        <time>2016-07-06T14:00:34Z</time>
        <sat>10</sat>
      </trkpt>
      <trkpt lat="43.615639" lon="11.028184">
        <ele>29.4</ele>
        <time>2016-07-06T14:00:35Z</time>
        <sat>10</sat>
      </trkpt>
      <trkpt lat="43.615676" lon="11.028320">
        <ele>29.4</ele>
        <time>2016-07-06T14:00:36Z</time>
        <sat>9</sat>
      </trkpt>
      <trkpt lat="43.615708" lon="11.028458">
        <ele>29.6</ele>
        <time>2016-07-06T14:00:37Z</time>
        <sat>8</sat>
      </trkpt>
      <trkpt lat="43.615725" lon="11.028598">
        <ele>29.9</ele>
        <time>2016-07-06T14:00:38Z</time>
        <sat>7</sat>
      </trkpt>
      <trkpt lat="43.615729" lon="11.028745">
        <ele>30.3</ele>
        <time>2016-07-06T14:00:39Z</time>
        <sat>7</sat>
      </trkpt>
      <trkpt lat="43.615730" lon="11.028881">
        <ele>30.4</ele>
        <time>2016-07-06T14:00:40Z</time>
        <sat>8</sat>
      </trkpt>
      <trkpt lat="43.615707" lon="11.029116">
        <ele>30.4</ele>
        <time>2016-07-06T14:00:42Z</time>
        <sat>8</sat>
      </trkpt>
      <trkpt lat="43.615716" lon="11.029309">
        <ele>30.5</ele>
        <time>2016-07-06T14:00:44Z</time>
        <sat>8</sat>
      </trkpt>
      <trkpt lat="43.615777" lon="11.029495">
        <ele>30.7</ele>
        <time>2016-07-06T14:00:46Z</time>
        <sat>8</sat>
      </trkpt>
      <trkpt lat="43.615829" lon="11.029604">
        <ele>30.9</ele>
        <time>2016-07-06T14:00:47Z</time>
        <sat>8</sat>
      </trkpt>
      <trkpt lat="43.615892" lon="11.029731">
        <ele>31.1</ele>
        <time>2016-07-06T14:00:48Z</time>
        <sat>9</sat>
      </trkpt>
      <trkpt lat="43.615960" lon="11.029869">
        <ele>31.0</ele>
        <time>2016-07-06T14:00:49Z</time>
        <sat>8</sat>
      </trkpt>
      <trkpt lat="43.616015" lon="11.030012">
        <ele>30.6</ele>
        <time>2016-07-06T14:00:50Z</time>
        <sat>9</sat>
      </trkpt>
      <trkpt lat="43.616063" lon="11.030141">
        <ele>30.7</ele>
        <time>2016-07-06T14:00:51Z</time>
        <sat>8</sat>
      </trkpt>
      <trkpt lat="43.616107" lon="11.030254">
        <ele>31.7</ele>
        <time>2016-07-06T14:00:52Z</time>
        <sat>7</sat>
      </trkpt>
      <trkpt lat="43.616139" lon="11.030449">
        <ele>31.7</ele>
        <time>2016-07-06T14:00:54Z</time>
        <sat>7</sat>
      </trkpt>
      <trkpt lat="43.616121" lon="11.030650">
        <ele>31.6</ele>
        <time>2016-07-06T14:00:56Z</time>
        <sat>7</sat>
      </trkpt>
      <trkpt lat="43.616076" lon="11.030891">
        <ele>31.2</ele>
        <time>2016-07-06T14:00:58Z</time>
        <sat>8</sat>
      </trkpt>
      <trkpt lat="43.616059" lon="11.031027">
        <ele>31.3</ele>
        <time>2016-07-06T14:00:59Z</time>
        <sat>9</sat>
      </trkpt>
      <trkpt lat="43.616058" lon="11.031156">
        <ele>31.4</ele>
        <time>2016-07-06T14:01:00Z</time>
        <sat>8</sat>
      </trkpt>
      <trkpt lat="43.616099" lon="11.031400">
        <ele>32.1</ele>
        <time>2016-07-06T14:01:02Z</time>
        <sat>9</sat>
      </trkpt>
      <trkpt lat="43.616130" lon="11.031551">
        <ele>32.2</ele>
        <time>2016-07-06T14:01:03Z</time>
        <sat>8</sat>
      </trkpt>
      <trkpt lat="43.616166" lon="11.031709">
        <ele>32.0</ele>
        <time>2016-07-06T14:01:04Z</time>
        <sat>9</sat>
      </trkpt>
      <trkpt lat="43.616202" lon="11.031856">
        <ele>31.8</ele>
        <time>2016-07-06T14:01:05Z</time>
        <sat>9</sat>
      </trkpt>
      <trkpt lat="43.616239" lon="11.031999">
        <ele>32.0</ele>
        <time>2016-07-06T14:01:06Z</time>
        <sat>8</sat>
      </trkpt>
      <trkpt lat="43.616279" lon="11.032149">
        <ele>31.7</ele>
        <time>2016-07-06T14:01:07Z</time>
        <sat>8</sat>
      </trkpt>
      <trkpt lat="43.616319" lon="11.032306">
        <ele>31.6</ele>
        <time>2016-07-06T14:01:08Z</time>
        <sat>9</sat>
      </trkpt>
      <trkpt lat="43.616358" lon="11.032460">
        <ele>31.4</ele>
        <time>2016-07-06T14:01:09Z</time>
        <sat>8</sat>
      </trkpt>
      <trkpt lat="43.616392" lon="11.032595">
        <ele>31.5</ele>
        <time>2016-07-06T14:01:10Z</time>
        <sat>9</sat>
      </trkpt>
      <trkpt lat="43.616457" lon="11.032795">
        <ele>31.5</ele>
        <time>2016-07-06T14:01:12Z</time>
        <sat>9</sat>
      </trkpt>
      <trkpt lat="43.616562" lon="11.032911">
        <ele>31.5</ele>
        <time>2016-07-06T14:01:14Z</time>
        <sat>10</sat>
      </trkpt>
      <trkpt lat="43.616682" lon="11.033000">
        <ele>32.0</ele>
        <time>2016-07-06T14:01:16Z</time>
        <sat>10</sat>
      </trkpt>
      <trkpt lat="43.616745" lon="11.033145">
        <ele>32.0</ele>
        <time>2016-07-06T14:01:18Z</time>
        <sat>9</sat>
      </trkpt>
      <trkpt lat="43.616819" lon="11.033295">
        <ele>32.3</ele>
        <time>2016-07-06T14:01:20Z</time>
        <sat>10</sat>
      </trkpt>
      <trkpt lat="43.616888" lon="11.033380">
        <ele>31.9</ele>
        <time>2016-07-06T14:01:21Z</time>
        <sat>9</sat>
      </trkpt>
      <trkpt lat="43.616964" lon="11.033460">
        <ele>31.7</ele>
        <time>2016-07-06T14:01:22Z</time>
        <sat>10</sat>
      </trkpt>
      <trkpt lat="43.617043" lon="11.033530">
        <ele>31.7</ele>
        <time>2016-07-06T14:01:23Z</time>
        <sat>10</sat>
      </trkpt>
      <trkpt lat="43.617132" lon="11.033603">
        <ele>31.3</ele>
        <time>2016-07-06T14:01:24Z</time>
        <sat>10</sat>
      </trkpt>
      <trkpt lat="43.617215" lon="11.033666">
        <ele>31.4</ele>
        <time>2016-07-06T14:01:25Z</time>
        <sat>10</sat>
      </trkpt>
      <trkpt lat="43.617294" lon="11.033729">
        <ele>31.5</ele>
        <time>2016-07-06T14:01:26Z</time>
        <sat>9</sat>
      </trkpt>
      <trkpt lat="43.617372" lon="11.033824">
        <ele>31.2</ele>
        <time>2016-07-06T14:01:27Z</time>
        <sat>10</sat>
      </trkpt>
      <trkpt lat="43.617453" lon="11.033928">
        <ele>30.8</ele>
        <time>2016-07-06T14:01:28Z</time>
        <sat>10</sat>
      </trkpt>
      <trkpt lat="43.617612" lon="11.034082">
        <ele>32.5</ele>
        <time>2016-07-06T14:01:30Z</time>
        <sat>9</sat>
      </trkpt>
      <trkpt lat="43.617755" lon="11.034193">
        <ele>33.0</ele>
        <time>2016-07-06T14:01:32Z</time>
        <sat>10</sat>
      </trkpt>
      <trkpt lat="43.617884" lon="11.034389">
        <ele>29.0</ele>
        <time>2016-07-06T14:01:34Z</time>
        <sat>10</sat>
      </trkpt>
      <trkpt lat="43.617937" lon="11.034508">
        <ele>28.7</ele>
        <time>2016-07-06T14:01:35Z</time>
        <sat>10</sat>
      </trkpt>
      <trkpt lat="43.618005" lon="11.034722">
        <ele>29.8</ele>
        <time>2016-07-06T14:01:37Z</time>
        <sat>9</sat>
      </trkpt>
      <trkpt lat="43.618039" lon="11.034925">
        <ele>28.2</ele>
        <time>2016-07-06T14:01:39Z</time>
        <sat>8</sat>
      </trkpt>
      <trkpt lat="43.618073" lon="11.035130">
        <ele>27.5</ele>
        <time>2016-07-06T14:01:41Z</time>
        <sat>9</sat>
      </trkpt>
      <trkpt lat="43.618096" lon="11.035258">
        <ele>27.4</ele>
        <time>2016-07-06T14:01:42Z</time>
        <sat>10</sat>
      </trkpt>
      <trkpt lat="43.618119" lon="11.035404">
        <ele>27.6</ele>
        <time>2016-07-06T14:01:43Z</time>
        <sat>10</sat>
      </trkpt>
      <trkpt lat="43.618136" lon="11.035557">
        <ele>28.1</ele>
        <time>2016-07-06T14:01:44Z</time>
        <sat>10</sat>
      </trkpt>
      <trkpt lat="43.618149" lon="11.035718">
        <ele>28.3</ele>
        <time>2016-07-06T14:01:45Z</time>
        <sat>10</sat>
      </trkpt>
      <trkpt lat="43.618164" lon="11.035879">
        <ele>28.6</ele>
        <time>2016-07-06T14:01:46Z</time>
        <sat>10</sat>
      </trkpt>
      <trkpt lat="43.618185" lon="11.036027">
        <ele>28.7</ele>
        <time>2016-07-06T14:01:47Z</time>
        <sat>10</sat>
      </trkpt>
      <trkpt lat="43.618209" lon="11.036163">
        <ele>28.8</ele>
        <time>2016-07-06T14:01:48Z</time>
        <sat>10</sat>
      </trkpt>
      <trkpt lat="43.618233" lon="11.036305">
        <ele>29.1</ele>
        <time>2016-07-06T14:01:49Z</time>
        <sat>10</sat>
      </trkpt>
      <trkpt lat="43.618252" lon="11.036466">
        <ele>29.9</ele>
        <time>2016-07-06T14:01:50Z</time>
        <sat>10</sat>
      </trkpt>
      <trkpt lat="43.618269" lon="11.036631">
        <ele>30.5</ele>
        <time>2016-07-06T14:01:51Z</time>
        <sat>10</sat>
      </trkpt>
      <trkpt lat="43.618285" lon="11.036776">
        <ele>30.0</ele>
        <time>2016-07-06T14:01:52Z</time>
        <sat>10</sat>
      </trkpt>
      <trkpt lat="43.618313" lon="11.036993">
        <ele>29.8</ele>
        <time>2016-07-06T14:01:54Z</time>
        <sat>10</sat>
      </trkpt>
      <trkpt lat="43.618360" lon="11.037197">
        <ele>29.4</ele>
        <time>2016-07-06T14:01:56Z</time>
        <sat>10</sat>
      </trkpt>
      <trkpt lat="43.618385" lon="11.037326">
        <ele>29.4</ele>
        <time>2016-07-06T14:01:57Z</time>
        <sat>8</sat>
      </trkpt>
      <trkpt lat="43.618404" lon="11.037458">
        <ele>29.4</ele>
        <time>2016-07-06T14:01:58Z</time>
        <sat>10</sat>
      </trkpt>
      <trkpt lat="43.618426" lon="11.037581">
        <ele>29.5</ele>
        <time>2016-07-06T14:01:59Z</time>
        <sat>9</sat>
      </trkpt>
      <trkpt lat="43.618455" lon="11.037788">
        <ele>29.8</ele>
        <time>2016-07-06T14:02:01Z</time>
        <sat>10</sat>
      </trkpt>
      <trkpt lat="43.618475" lon="11.037956">
        <ele>29.3</ele>
        <time>2016-07-06T14:02:03Z</time>
        <sat>8</sat>
      </trkpt>
      <trkpt lat="43.618549" lon="11.038089">
        <ele>27.3</ele>
        <time>2016-07-06T14:02:05Z</time>
        <sat>10</sat>
      </trkpt>
      <trkpt lat="43.618626" lon="11.038255">
        <ele>26.4</ele>
        <time>2016-07-06T14:02:08Z</time>
        <sat>9</sat>
      </trkpt>
      <trkpt lat="43.618669" lon="11.038427">
        <ele>26.5</ele>
        <time>2016-07-06T14:02:10Z</time>
        <sat>9</sat>
      </trkpt>
      <trkpt lat="43.618689" lon="11.038579">
        <ele>27.2</ele>
        <time>2016-07-06T14:02:12Z</time>
        <sat>9</sat>
      </trkpt>
      <trkpt lat="43.618638" lon="11.038720">
        <ele>27.7</ele>
        <time>2016-07-06T14:02:14Z</time>
        <sat>9</sat>
      </trkpt>
      <trkpt lat="43.618561" lon="11.038867">
        <ele>27.2</ele>
        <time>2016-07-06T14:02:16Z</time>
        <sat>9</sat>
      </trkpt>
      <trkpt lat="43.618497" lon="11.038991">
        <ele>27.3</ele>
        <time>2016-07-06T14:02:18Z</time>
        <sat>10</sat>
      </trkpt>
      <trkpt lat="43.618399" lon="11.039138">
        <ele>27.0</ele>
        <time>2016-07-06T14:02:20Z</time>
        <sat>10</sat>
      </trkpt>
      <trkpt lat="43.618266" lon="11.039306">
        <ele>27.9</ele>
        <time>2016-07-06T14:02:22Z</time>
        <sat>10</sat>
      </trkpt>
      <trkpt lat="43.618120" lon="11.039444">
        <ele>29.0</ele>
        <time>2016-07-06T14:02:24Z</time>
        <sat>10</sat>
      </trkpt>
      <trkpt lat="43.618047" lon="11.039519">
        <ele>29.9</ele>
        <time>2016-07-06T14:02:25Z</time>
        <sat>10</sat>
      </trkpt>
      <trkpt lat="43.617928" lon="11.039690">
        <ele>31.9</ele>
        <time>2016-07-06T14:02:27Z</time>
        <sat>10</sat>
      </trkpt>
      <trkpt lat="43.617820" lon="11.039859">
        <ele>33.2</ele>
        <time>2016-07-06T14:02:29Z</time>
        <sat>9</sat>
      </trkpt>
      <trkpt lat="43.617628" lon="11.040268">
        <ele>36.3</ele>
        <time>2016-07-06T14:02:33Z</time>
        <sat>10</sat>
      </trkpt>
      <trkpt lat="43.617597" lon="11.040387">
        <ele>37.0</ele>
        <time>2016-07-06T14:02:34Z</time>
        <sat>10</sat>
      </trkpt>
      <trkpt lat="43.617556" lon="11.040603">
        <ele>39.1</ele>
        <time>2016-07-06T14:02:36Z</time>
        <sat>10</sat>
      </trkpt>
      <trkpt lat="43.617522" lon="11.040783">
        <ele>39.0</ele>
        <time>2016-07-06T14:02:38Z</time>
        <sat>10</sat>
      </trkpt>
      <trkpt lat="43.617475" lon="11.040922">
        <ele>39.4</ele>
        <time>2016-07-06T14:02:40Z</time>
        <sat>8</sat>
      </trkpt>
      <trkpt lat="43.617403" lon="11.041083">
        <ele>39.6</ele>
        <time>2016-07-06T14:02:42Z</time>
        <sat>10</sat>
      </trkpt>
      <trkpt lat="43.617335" lon="11.041199">
        <ele>39.3</ele>
        <time>2016-07-06T14:02:44Z</time>
        <sat>8</sat>
      </trkpt>
      <trkpt lat="43.617270" lon="11.041295">
        <ele>40.6</ele>
        <time>2016-07-06T14:02:47Z</time>
        <sat>10</sat>
      </trkpt>
      <trkpt lat="43.617241" lon="11.041454">
        <ele>42.3</ele>
        <time>2016-07-06T14:02:53Z</time>
        <sat>10</sat>
      </trkpt>
      <trkpt lat="43.617224" lon="11.041597">
        <ele>41.8</ele>
        <time>2016-07-06T14:02:55Z</time>
        <sat>10</sat>
      </trkpt>
      <trkpt lat="43.617147" lon="11.041735">
        <ele>42.0</ele>
        <time>2016-07-06T14:02:57Z</time>
        <sat>10</sat>
      </trkpt>
      <trkpt lat="43.617075" lon="11.041829">
        <ele>41.9</ele>
        <time>2016-07-06T14:02:58Z</time>
        <sat>10</sat>
      </trkpt>
      <trkpt lat="43.616992" lon="11.041936">
        <ele>42.0</ele>
        <time>2016-07-06T14:02:59Z</time>
        <sat>10</sat>
      </trkpt>
      <trkpt lat="43.616904" lon="11.042050">
        <ele>41.9</ele>
        <time>2016-07-06T14:03:00Z</time>
        <sat>10</sat>
      </trkpt>
      <trkpt lat="43.616818" lon="11.042157">
        <ele>41.6</ele>
        <time>2016-07-06T14:03:01Z</time>
        <sat>10</sat>
      </trkpt>
      <trkpt lat="43.616739" lon="11.042253">
        <ele>41.2</ele>
        <time>2016-07-06T14:03:02Z</time>
        <sat>9</sat>
      </trkpt>
      <trkpt lat="43.616667" lon="11.042338">
        <ele>41.0</ele>
        <time>2016-07-06T14:03:03Z</time>
        <sat>10</sat>
      </trkpt>
      <trkpt lat="43.616572" lon="11.042462">
        <ele>40.9</ele>
        <time>2016-07-06T14:03:05Z</time>
        <sat>10</sat>
      </trkpt>
      <trkpt lat="43.616513" lon="11.042619">
        <ele>41.2</ele>
        <time>2016-07-06T14:03:07Z</time>
        <sat>10</sat>
      </trkpt>
      <trkpt lat="43.616421" lon="11.042808">
        <ele>41.0</ele>
        <time>2016-07-06T14:03:09Z</time>
        <sat>9</sat>
      </trkpt>
      <trkpt lat="43.616321" lon="11.042995">
        <ele>41.1</ele>
        <time>2016-07-06T14:03:11Z</time>
        <sat>9</sat>
      </trkpt>
      <trkpt lat="43.616237" lon="11.043161">
        <ele>41.2</ele>
        <time>2016-07-06T14:03:13Z</time>
        <sat>9</sat>
      </trkpt>
      <trkpt lat="43.616258" lon="11.043327">
        <ele>41.5</ele>
        <time>2016-07-06T14:03:15Z</time>
        <sat>9</sat>
      </trkpt>
      <trkpt lat="43.616274" lon="11.043530">
        <ele>41.0</ele>
        <time>2016-07-06T14:03:17Z</time>
        <sat>10</sat>
      </trkpt>
      <trkpt lat="43.616260" lon="11.043775">
        <ele>41.8</ele>
        <time>2016-07-06T14:03:19Z</time>
        <sat>10</sat>
      </trkpt>
      <trkpt lat="43.616254" lon="11.043915">
        <ele>42.0</ele>
        <time>2016-07-06T14:03:20Z</time>
        <sat>10</sat>
      </trkpt>
      <trkpt lat="43.616246" lon="11.044054">
        <ele>42.3</ele>
        <time>2016-07-06T14:03:21Z</time>
        <sat>10</sat>
      </trkpt>
      <trkpt lat="43.616239" lon="11.044192">
        <ele>42.8</ele>
        <time>2016-07-06T14:03:22Z</time>
        <sat>10</sat>
      </trkpt>
      <trkpt lat="43.616232" lon="11.044327">
        <ele>43.2</ele>
        <time>2016-07-06T14:03:23Z</time>
        <sat>10</sat>
      </trkpt>
      <trkpt lat="43.616228" lon="11.044460">
        <ele>43.7</ele>
        <time>2016-07-06T14:03:24Z</time>
        <sat>10</sat>
      </trkpt>
      <trkpt lat="43.616224" lon="11.044597">
        <ele>44.7</ele>
        <time>2016-07-06T14:03:25Z</time>
        <sat>10</sat>
      </trkpt>
      <trkpt lat="43.616221" lon="11.044735">
        <ele>46.1</ele>
        <time>2016-07-06T14:03:26Z</time>
        <sat>10</sat>
      </trkpt>
      <trkpt lat="43.616215" lon="11.044872">
        <ele>47.8</ele>
        <time>2016-07-06T14:03:27Z</time>
        <sat>10</sat>
      </trkpt>
      <trkpt lat="43.616183" lon="11.045104">
        <ele>51.2</ele>
        <time>2016-07-06T14:03:29Z</time>
        <sat>10</sat>
      </trkpt>
      <trkpt lat="43.616143" lon="11.045322">
        <ele>53.0</ele>
        <time>2016-07-06T14:03:31Z</time>
        <sat>10</sat>
      </trkpt>
      <trkpt lat="43.616059" lon="11.045673">
        <ele>51.1</ele>
        <time>2016-07-06T14:03:35Z</time>
        <sat>10</sat>
      </trkpt>
      <trkpt lat="43.615996" lon="11.045902">
        <ele>50.5</ele>
        <time>2016-07-06T14:03:37Z</time>
        <sat>10</sat>
      </trkpt>
      <trkpt lat="43.615927" lon="11.046135">
        <ele>50.1</ele>
        <time>2016-07-06T14:03:39Z</time>
        <sat>10</sat>
      </trkpt>
      <trkpt lat="43.615890" lon="11.046267">
        <ele>49.8</ele>
        <time>2016-07-06T14:03:40Z</time>
        <sat>10</sat>
      </trkpt>
      <trkpt lat="43.615855" lon="11.046399">
        <ele>49.4</ele>
        <time>2016-07-06T14:03:41Z</time>
        <sat>10</sat>
      </trkpt>
      <trkpt lat="43.615821" lon="11.046519">
        <ele>48.8</ele>
        <time>2016-07-06T14:03:42Z</time>
        <sat>10</sat>
      </trkpt>
      <trkpt lat="43.615780" lon="11.046636">
        <ele>47.8</ele>
        <time>2016-07-06T14:03:43Z</time>
        <sat>10</sat>
      </trkpt>
      <trkpt lat="43.615726" lon="11.046762">
        <ele>46.8</ele>
        <time>2016-07-06T14:03:44Z</time>
        <sat>10</sat>
      </trkpt>
      <trkpt lat="43.615667" lon="11.046890">
        <ele>46.3</ele>
        <time>2016-07-06T14:03:45Z</time>
        <sat>9</sat>
      </trkpt>
      <trkpt lat="43.615606" lon="11.047023">
        <ele>46.0</ele>
        <time>2016-07-06T14:03:46Z</time>
        <sat>9</sat>
      </trkpt>
      <trkpt lat="43.615548" lon="11.047159">
        <ele>45.8</ele>
        <time>2016-07-06T14:03:47Z</time>
        <sat>9</sat>
      </trkpt>
      <trkpt lat="43.615492" lon="11.047296">
        <ele>45.7</ele>
        <time>2016-07-06T14:03:48Z</time>
        <sat>10</sat>
      </trkpt>
      <trkpt lat="43.615442" lon="11.047426">
        <ele>45.4</ele>
        <time>2016-07-06T14:03:49Z</time>
        <sat>9</sat>
      </trkpt>
      <trkpt lat="43.615395" lon="11.047548">
        <ele>45.3</ele>
        <time>2016-07-06T14:03:50Z</time>
        <sat>10</sat>
      </trkpt>
      <trkpt lat="43.615352" lon="11.047666">
        <ele>45.2</ele>
        <time>2016-07-06T14:03:51Z</time>
        <sat>10</sat>
      </trkpt>
      <trkpt lat="43.615280" lon="11.047868">
        <ele>45.1</ele>
        <time>2016-07-06T14:03:53Z</time>
        <sat>6</sat>
      </trkpt>
      <trkpt lat="43.615197" lon="11.048033">
        <ele>45.3</ele>
        <time>2016-07-06T14:03:55Z</time>
        <sat>8</sat>
      </trkpt>
      <trkpt lat="43.615098" lon="11.048213">
        <ele>46.1</ele>
        <time>2016-07-06T14:03:57Z</time>
        <sat>9</sat>
      </trkpt>
      <trkpt lat="43.614989" lon="11.048401">
        <ele>46.3</ele>
        <time>2016-07-06T14:03:59Z</time>
        <sat>10</sat>
      </trkpt>
      <trkpt lat="43.614932" lon="11.048500">
        <ele>46.3</ele>
        <time>2016-07-06T14:04:00Z</time>
        <sat>9</sat>
      </trkpt>
      <trkpt lat="43.614836" lon="11.048673">
        <ele>46.5</ele>
        <time>2016-07-06T14:04:02Z</time>
        <sat>10</sat>
      </trkpt>
      <trkpt lat="43.614756" lon="11.048814">
        <ele>46.3</ele>
        <time>2016-07-06T14:04:04Z</time>
        <sat>10</sat>
      </trkpt>
      <trkpt lat="43.614760" lon="11.048960">
        <ele>45.9</ele>
        <time>2016-07-06T14:04:06Z</time>
        <sat>10</sat>
      </trkpt>
      <trkpt lat="43.614889" lon="11.049141">
        <ele>45.9</ele>
        <time>2016-07-06T14:04:08Z</time>
        <sat>10</sat>
      </trkpt>
      <trkpt lat="43.614979" lon="11.049239">
        <ele>46.0</ele>
        <time>2016-07-06T14:04:09Z</time>
        <sat>10</sat>
      </trkpt>
      <trkpt lat="43.615061" lon="11.049331">
        <ele>46.2</ele>
        <time>2016-07-06T14:04:10Z</time>
        <sat>10</sat>
      </trkpt>
      <trkpt lat="43.615164" lon="11.049499">
        <ele>46.1</ele>
        <time>2016-07-06T14:04:12Z</time>
        <sat>10</sat>
      </trkpt>
      <trkpt lat="43.615131" lon="11.049672">
        <ele>46.5</ele>
        <time>2016-07-06T14:04:14Z</time>
        <sat>10</sat>
      </trkpt>
      <trkpt lat="43.615069" lon="11.049767">
        <ele>46.8</ele>
        <time>2016-07-06T14:04:15Z</time>
        <sat>10</sat>
      </trkpt>
      <trkpt lat="43.614996" lon="11.049875">
        <ele>47.1</ele>
        <time>2016-07-06T14:04:16Z</time>
        <sat>10</sat>
      </trkpt>
      <trkpt lat="43.614918" lon="11.050008">
        <ele>47.5</ele>
        <time>2016-07-06T14:04:17Z</time>
        <sat>10</sat>
      </trkpt>
      <trkpt lat="43.614844" lon="11.050161">
        <ele>47.9</ele>
        <time>2016-07-06T14:04:18Z</time>
        <sat>9</sat>
      </trkpt>
      <trkpt lat="43.614787" lon="11.050307">
        <ele>48.2</ele>
        <time>2016-07-06T14:04:19Z</time>
        <sat>10</sat>
      </trkpt>
      <trkpt lat="43.614747" lon="11.050457">
        <ele>48.5</ele>
        <time>2016-07-06T14:04:20Z</time>
        <sat>10</sat>
      </trkpt>
      <trkpt lat="43.614709" lon="11.050611">
        <ele>48.9</ele>
        <time>2016-07-06T14:04:21Z</time>
        <sat>9</sat>
      </trkpt>
      <trkpt lat="43.614665" lon="11.050768">
        <ele>49.1</ele>
        <time>2016-07-06T14:04:22Z</time>
        <sat>8</sat>
      </trkpt>
      <trkpt lat="43.614620" lon="11.050934">
        <ele>49.5</ele>
        <time>2016-07-06T14:04:23Z</time>
        <sat>10</sat>
      </trkpt>
      <trkpt lat="43.614578" lon="11.051120">
        <ele>49.8</ele>
        <time>2016-07-06T14:04:24Z</time>
        <sat>10</sat>
      </trkpt>
      <trkpt lat="43.614534" lon="11.051311">
        <ele>49.7</ele>
        <time>2016-07-06T14:04:25Z</time>
        <sat>10</sat>
      </trkpt>
      <trkpt lat="43.614488" lon="11.051492">
        <ele>49.6</ele>
        <time>2016-07-06T14:04:26Z</time>
        <sat>10</sat>
      </trkpt>
      <trkpt lat="43.614445" lon="11.051655">
        <ele>49.7</ele>
        <time>2016-07-06T14:04:27Z</time>
        <sat>10</sat>
      </trkpt>
      <trkpt lat="43.614404" lon="11.051796">
        <ele>49.7</ele>
        <time>2016-07-06T14:04:28Z</time>
        <sat>10</sat>
      </trkpt>
      <trkpt lat="43.614360" lon="11.051912">
        <ele>49.5</ele>
        <time>2016-07-06T14:04:29Z</time>
        <sat>10</sat>
      </trkpt>
      <trkpt lat="43.614244" lon="11.052052">
        <ele>48.9</ele>
        <time>2016-07-06T14:04:31Z</time>
        <sat>10</sat>
      </trkpt>
      <trkpt lat="43.614148" lon="11.052084">
        <ele>48.8</ele>
        <time>2016-07-06T14:04:32Z</time>
        <sat>10</sat>
      </trkpt>
      <trkpt lat="43.613903" lon="11.052128">
        <ele>48.8</ele>
        <time>2016-07-06T14:04:34Z</time>
        <sat>10</sat>
      </trkpt>
      <trkpt lat="43.613786" lon="11.052147">
        <ele>48.6</ele>
        <time>2016-07-06T14:04:35Z</time>
        <sat>10</sat>
      </trkpt>
      <trkpt lat="43.613689" lon="11.052175">
        <ele>48.6</ele>
        <time>2016-07-06T14:04:36Z</time>
        <sat>9</sat>
      </trkpt>
      <trkpt lat="43.613538" lon="11.052268">
        <ele>49.0</ele>
        <time>2016-07-06T14:04:38Z</time>
        <sat>8</sat>
      </trkpt>
      <trkpt lat="43.613463" lon="11.052341">
        <ele>49.3</ele>
        <time>2016-07-06T14:04:39Z</time>
        <sat>8</sat>
      </trkpt>
      <trkpt lat="43.613375" lon="11.052408">
        <ele>49.0</ele>
        <time>2016-07-06T14:04:40Z</time>
        <sat>10</sat>
      </trkpt>
      <trkpt lat="43.613297" lon="11.052496">
        <ele>48.3</ele>
        <time>2016-07-06T14:04:41Z</time>
        <sat>9</sat>
      </trkpt>
      <trkpt lat="43.613241" lon="11.052616">
        <ele>47.4</ele>
        <time>2016-07-06T14:04:42Z</time>
        <sat>10</sat>
      </trkpt>
      <trkpt lat="43.613190" lon="11.052736">
        <ele>46.6</ele>
        <time>2016-07-06T14:04:43Z</time>
        <sat>10</sat>
      </trkpt>
      <trkpt lat="43.613087" lon="11.052885">
        <ele>46.1</ele>
        <time>2016-07-06T14:04:45Z</time>
        <sat>10</sat>
      </trkpt>
      <trkpt lat="43.612949" lon="11.052907">
        <ele>45.9</ele>
        <time>2016-07-06T14:04:48Z</time>
        <sat>10</sat>
      </trkpt>
      <trkpt lat="43.612784" lon="11.052786">
        <ele>44.9</ele>
        <time>2016-07-06T14:04:50Z</time>
        <sat>10</sat>
      </trkpt>
      <trkpt lat="43.612679" lon="11.052700">
        <ele>44.7</ele>
        <time>2016-07-06T14:04:51Z</time>
        <sat>10</sat>
      </trkpt>
      <trkpt lat="43.612560" lon="11.052614">
        <ele>44.5</ele>
        <time>2016-07-06T14:04:52Z</time>
        <sat>10</sat>
      </trkpt>
      <trkpt lat="43.612439" lon="11.052527">
        <ele>44.2</ele>
        <time>2016-07-06T14:04:53Z</time>
        <sat>10</sat>
      </trkpt>
      <trkpt lat="43.612316" lon="11.052446">
        <ele>43.6</ele>
        <time>2016-07-06T14:04:54Z</time>
        <sat>10</sat>
      </trkpt>
      <trkpt lat="43.612192" lon="11.052369">
        <ele>42.6</ele>
        <time>2016-07-06T14:04:55Z</time>
        <sat>10</sat>
      </trkpt>
      <trkpt lat="43.612066" lon="11.052310">
        <ele>41.8</ele>
        <time>2016-07-06T14:04:56Z</time>
        <sat>9</sat>
      </trkpt>
      <trkpt lat="43.611954" lon="11.052263">
        <ele>40.7</ele>
        <time>2016-07-06T14:04:57Z</time>
        <sat>8</sat>
      </trkpt>
      <trkpt lat="43.611861" lon="11.052221">
        <ele>40.1</ele>
        <time>2016-07-06T14:04:58Z</time>
        <sat>10</sat>
      </trkpt>
      <trkpt lat="43.611721" lon="11.052238">
        <ele>39.6</ele>
        <time>2016-07-06T14:05:00Z</time>
        <sat>10</sat>
      </trkpt>
      <trkpt lat="43.611650" lon="11.052322">
        <ele>39.1</ele>
        <time>2016-07-06T14:05:01Z</time>
        <sat>10</sat>
      </trkpt>
      <trkpt lat="43.611568" lon="11.052429">
        <ele>39.4</ele>
        <time>2016-07-06T14:05:02Z</time>
        <sat>10</sat>
      </trkpt>
      <trkpt lat="43.611472" lon="11.052534">
        <ele>39.9</ele>
        <time>2016-07-06T14:05:03Z</time>
        <sat>10</sat>
      </trkpt>
      <trkpt lat="43.611359" lon="11.052621">
        <ele>41.0</ele>
        <time>2016-07-06T14:05:04Z</time>
        <sat>9</sat>
      </trkpt>
      <trkpt lat="43.611232" lon="11.052671">
        <ele>41.4</ele>
        <time>2016-07-06T14:05:05Z</time>
        <sat>8</sat>
      </trkpt>
      <trkpt lat="43.611091" lon="11.052680">
        <ele>41.8</ele>
        <time>2016-07-06T14:05:06Z</time>
        <sat>10</sat>
      </trkpt>
      <trkpt lat="43.610945" lon="11.052672">
        <ele>42.7</ele>
        <time>2016-07-06T14:05:07Z</time>
        <sat>8</sat>
      </trkpt>
      <trkpt lat="43.610791" lon="11.052658">
        <ele>43.3</ele>
        <time>2016-07-06T14:05:08Z</time>
        <sat>8</sat>
      </trkpt>
      <trkpt lat="43.610633" lon="11.052659">
        <ele>43.5</ele>
        <time>2016-07-06T14:05:09Z</time>
        <sat>8</sat>
      </trkpt>
      <trkpt lat="43.610477" lon="11.052689">
        <ele>43.4</ele>
        <time>2016-07-06T14:05:10Z</time>
        <sat>8</sat>
      </trkpt>
      <trkpt lat="43.610327" lon="11.052729">
        <ele>43.9</ele>
        <time>2016-07-06T14:05:11Z</time>
        <sat>8</sat>
      </trkpt>
      <trkpt lat="43.610196" lon="11.052767">
        <ele>44.2</ele>
        <time>2016-07-06T14:05:12Z</time>
        <sat>8</sat>
      </trkpt>
      <trkpt lat="43.610073" lon="11.052794">
        <ele>44.5</ele>
        <time>2016-07-06T14:05:13Z</time>
        <sat>7</sat>
      </trkpt>
      <trkpt lat="43.609947" lon="11.052813">
        <ele>45.1</ele>
        <time>2016-07-06T14:05:14Z</time>
        <sat>8</sat>
      </trkpt>
      <trkpt lat="43.609818" lon="11.052828">
        <ele>45.6</ele>
        <time>2016-07-06T14:05:15Z</time>
        <sat>8</sat>
      </trkpt>
      <trkpt lat="43.609687" lon="11.052840">
        <ele>46.6</ele>
        <time>2016-07-06T14:05:16Z</time>
        <sat>7</sat>
      </trkpt>
      <trkpt lat="43.609567" lon="11.052858">
        <ele>47.7</ele>
        <time>2016-07-06T14:05:17Z</time>
        <sat>8</sat>
      </trkpt>
      <trkpt lat="43.609475" lon="11.052892">
        <ele>48.6</ele>
        <time>2016-07-06T14:05:18Z</time>
        <sat>8</sat>
      </trkpt>
      <trkpt lat="43.609395" lon="11.052960">
        <ele>49.1</ele>
        <time>2016-07-06T14:05:19Z</time>
        <sat>8</sat>
      </trkpt>
      <trkpt lat="43.609314" lon="11.053156">
        <ele>49.5</ele>
        <time>2016-07-06T14:05:21Z</time>
        <sat>8</sat>
      </trkpt>
      <trkpt lat="43.609307" lon="11.053286">
        <ele>50.6</ele>
        <time>2016-07-06T14:05:22Z</time>
        <sat>8</sat>
      </trkpt>
      <trkpt lat="43.609316" lon="11.053425">
        <ele>54.0</ele>
        <time>2016-07-06T14:05:23Z</time>
        <sat>8</sat>
      </trkpt>
      <trkpt lat="43.609306" lon="11.053557">
        <ele>56.6</ele>
        <time>2016-07-06T14:05:24Z</time>
        <sat>8</sat>
      </trkpt>
      <trkpt lat="43.609261" lon="11.053668">
        <ele>59.4</ele>
        <time>2016-07-06T14:05:25Z</time>
        <sat>7</sat>
      </trkpt>
      <trkpt lat="43.609188" lon="11.053769">
        <ele>61.2</ele>
        <time>2016-07-06T14:05:26Z</time>
        <sat>8</sat>
      </trkpt>
      <trkpt lat="43.609103" lon="11.053873">
        <ele>62.8</ele>
        <time>2016-07-06T14:05:27Z</time>
        <sat>8</sat>
      </trkpt>
      <trkpt lat="43.609007" lon="11.053980">
        <ele>64.5</ele>
        <time>2016-07-06T14:05:28Z</time>
        <sat>7</sat>
      </trkpt>
      <trkpt lat="43.608910" lon="11.054078">
        <ele>63.3</ele>
        <time>2016-07-06T14:05:29Z</time>
        <sat>6</sat>
      </trkpt>
      <trkpt lat="43.608832" lon="11.054180">
        <ele>64.2</ele>
        <time>2016-07-06T14:05:30Z</time>
        <sat>8</sat>
      </trkpt>
      <trkpt lat="43.608749" lon="11.054264">
        <ele>65.3</ele>
        <time>2016-07-06T14:05:31Z</time>
        <sat>8</sat>
      </trkpt>
      <trkpt lat="43.608641" lon="11.054329">
        <ele>66.5</ele>
        <time>2016-07-06T14:05:32Z</time>
        <sat>8</sat>
      </trkpt>
      <trkpt lat="43.608540" lon="11.054418">
        <ele>67.7</ele>
        <time>2016-07-06T14:05:33Z</time>
        <sat>8</sat>
      </trkpt>
      <trkpt lat="43.608364" lon="11.054630">
        <ele>70.6</ele>
        <time>2016-07-06T14:05:35Z</time>
        <sat>8</sat>
      </trkpt>
      <trkpt lat="43.608260" lon="11.054723">
        <ele>72.4</ele>
        <time>2016-07-06T14:05:36Z</time>
        <sat>8</sat>
      </trkpt>
      <trkpt lat="43.608157" lon="11.054800">
        <ele>76.5</ele>
        <time>2016-07-06T14:05:37Z</time>
        <sat>7</sat>
      </trkpt>
      <trkpt lat="43.608039" lon="11.054876">
        <ele>79.5</ele>
        <time>2016-07-06T14:05:38Z</time>
        <sat>9</sat>
      </trkpt>
      <trkpt lat="43.607915" lon="11.054958">
        <ele>83.2</ele>
        <time>2016-07-06T14:05:39Z</time>
        <sat>9</sat>
      </trkpt>
      <trkpt lat="43.607789" lon="11.055007">
        <ele>87.0</ele>
        <time>2016-07-06T14:05:40Z</time>
        <sat>10</sat>
      </trkpt>
      <trkpt lat="43.607661" lon="11.055023">
        <ele>92.0</ele>
        <time>2016-07-06T14:05:41Z</time>
        <sat>10</sat>
      </trkpt>
      <trkpt lat="43.607522" lon="11.055011">
        <ele>95.6</ele>
        <time>2016-07-06T14:05:42Z</time>
        <sat>10</sat>
      </trkpt>
      <trkpt lat="43.607374" lon="11.054975">
        <ele>98.7</ele>
        <time>2016-07-06T14:05:43Z</time>
        <sat>10</sat>
      </trkpt>
      <trkpt lat="43.607218" lon="11.054937">
        <ele>102.5</ele>
        <time>2016-07-06T14:05:44Z</time>
        <sat>10</sat>
      </trkpt>
      <trkpt lat="43.607068" lon="11.054895">
        <ele>106.1</ele>
        <time>2016-07-06T14:05:45Z</time>
        <sat>10</sat>
      </trkpt>
      <trkpt lat="43.606927" lon="11.054848">
        <ele>109.1</ele>
        <time>2016-07-06T14:05:46Z</time>
        <sat>10</sat>
      </trkpt>
      <trkpt lat="43.606789" lon="11.054786">
        <ele>111.1</ele>
        <time>2016-07-06T14:05:47Z</time>
        <sat>10</sat>
      </trkpt>
      <trkpt lat="43.606657" lon="11.054710">
        <ele>112.6</ele>
        <time>2016-07-06T14:05:48Z</time>
        <sat>10</sat>
      </trkpt>
      <trkpt lat="43.606528" lon="11.054625">
        <ele>114.4</ele>
        <time>2016-07-06T14:05:49Z</time>
        <sat>9</sat>
      </trkpt>
      <trkpt lat="43.606399" lon="11.054535">
        <ele>116.5</ele>
        <time>2016-07-06T14:05:50Z</time>
        <sat>10</sat>
      </trkpt>
      <trkpt lat="43.606282" lon="11.054447">
        <ele>118.4</ele>
        <time>2016-07-06T14:05:51Z</time>
        <sat>10</sat>
      </trkpt>
      <trkpt lat="43.606183" lon="11.054355">
        <ele>120.6</ele>
        <time>2016-07-06T14:05:52Z</time>
        <sat>9</sat>
      </trkpt>
      <trkpt lat="43.606101" lon="11.054242">
        <ele>122.8</ele>
        <time>2016-07-06T14:05:53Z</time>
        <sat>9</sat>
      </trkpt>
      <trkpt lat="43.606028" lon="11.054124">
        <ele>125.1</ele>
        <time>2016-07-06T14:05:54Z</time>
        <sat>10</sat>
      </trkpt>
      <trkpt lat="43.605956" lon="11.054020">
        <ele>126.7</ele>
        <time>2016-07-06T14:05:55Z</time>
        <sat>10</sat>
      </trkpt>
      <trkpt lat="43.605887" lon="11.053923">
        <ele>128.5</ele>
        <time>2016-07-06T14:05:56Z</time>
        <sat>9</sat>
      </trkpt>
      <trkpt lat="43.605754" lon="11.053806">
        <ele>132.4</ele>
        <time>2016-07-06T14:05:58Z</time>
        <sat>9</sat>
      </trkpt>
      <trkpt lat="43.605653" lon="11.053749">
        <ele>131.0</ele>
        <time>2016-07-06T14:06:00Z</time>
        <sat>10</sat>
      </trkpt>
      <trkpt lat="43.605510" lon="11.053697">
        <ele>133.1</ele>
        <time>2016-07-06T14:06:02Z</time>
        <sat>10</sat>
      </trkpt>
      <trkpt lat="43.605424" lon="11.053657">
        <ele>133.9</ele>
        <time>2016-07-06T14:06:03Z</time>
        <sat>9</sat>
      </trkpt>
      <trkpt lat="43.605330" lon="11.053611">
        <ele>135.0</ele>
        <time>2016-07-06T14:06:04Z</time>
        <sat>9</sat>
      </trkpt>
      <trkpt lat="43.605234" lon="11.053565">
        <ele>136.0</ele>
        <time>2016-07-06T14:06:05Z</time>
        <sat>9</sat>
      </trkpt>
      <trkpt lat="43.605140" lon="11.053521">
        <ele>137.0</ele>
        <time>2016-07-06T14:06:06Z</time>
        <sat>8</sat>
      </trkpt>
      <trkpt lat="43.605045" lon="11.053477">
        <ele>138.0</ele>
        <time>2016-07-06T14:06:07Z</time>
        <sat>9</sat>
      </trkpt>
      <trkpt lat="43.604949" lon="11.053431">
        <ele>138.8</ele>
        <time>2016-07-06T14:06:08Z</time>
        <sat>9</sat>
      </trkpt>
      <trkpt lat="43.604851" lon="11.053388">
        <ele>139.8</ele>
        <time>2016-07-06T14:06:09Z</time>
        <sat>9</sat>
      </trkpt>
      <trkpt lat="43.604754" lon="11.053346">
        <ele>140.9</ele>
        <time>2016-07-06T14:06:10Z</time>
        <sat>8</sat>
      </trkpt>
      <trkpt lat="43.604656" lon="11.053303">
        <ele>141.9</ele>
        <time>2016-07-06T14:06:11Z</time>
        <sat>9</sat>
      </trkpt>
      <trkpt lat="43.604560" lon="11.053269">
        <ele>140.1</ele>
        <time>2016-07-06T14:06:12Z</time>
        <sat>8</sat>
      </trkpt>
      <trkpt lat="43.604459" lon="11.053218">
        <ele>140.0</ele>
        <time>2016-07-06T14:06:13Z</time>
        <sat>8</sat>
      </trkpt>
      <trkpt lat="43.604367" lon="11.053169">
        <ele>139.9</ele>
        <time>2016-07-06T14:06:14Z</time>
        <sat>8</sat>
      </trkpt>
      <trkpt lat="43.604211" lon="11.053076">
        <ele>140.3</ele>
        <time>2016-07-06T14:06:16Z</time>
        <sat>10</sat>
      </trkpt>
      <trkpt lat="43.604090" lon="11.053004">
        <ele>140.4</ele>
        <time>2016-07-06T14:06:18Z</time>
        <sat>10</sat>
      </trkpt>
      <trkpt lat="43.603985" lon="11.052942">
        <ele>141.8</ele>
        <time>2016-07-06T14:06:21Z</time>
        <sat>10</sat>
      </trkpt>
      <trkpt lat="43.603907" lon="11.052875">
        <ele>144.6</ele>
        <time>2016-07-06T14:08:16Z</time>
        <sat>9</sat>
      </trkpt>
      <trkpt lat="43.603714" lon="11.052835">
        <ele>143.8</ele>
        <time>2016-07-06T14:08:22Z</time>
        <sat>10</sat>
      </trkpt>
      <trkpt lat="43.603615" lon="11.052902">
        <ele>143.7</ele>
        <time>2016-07-06T14:08:24Z</time>
        <sat>10</sat>
      </trkpt>
      <trkpt lat="43.603499" lon="11.052991">
        <ele>143.0</ele>
        <time>2016-07-06T14:08:26Z</time>
        <sat>10</sat>
      </trkpt>
      <trkpt lat="43.603398" lon="11.053078">
        <ele>142.3</ele>
        <time>2016-07-06T14:08:28Z</time>
        <sat>10</sat>
      </trkpt>
      <trkpt lat="43.603300" lon="11.053176">
        <ele>141.5</ele>
        <time>2016-07-06T14:08:30Z</time>
        <sat>8</sat>
      </trkpt>
      <trkpt lat="43.603208" lon="11.053253">
        <ele>140.7</ele>
        <time>2016-07-06T14:08:32Z</time>
        <sat>9</sat>
      </trkpt>
      <trkpt lat="43.603119" lon="11.053338">
        <ele>139.8</ele>
        <time>2016-07-06T14:08:36Z</time>
        <sat>10</sat>
      </trkpt>
      <trkpt lat="43.603030" lon="11.053498">
        <ele>139.0</ele>
        <time>2016-07-06T14:08:39Z</time>
        <sat>9</sat>
      </trkpt>
      <trkpt lat="43.602975" lon="11.053609">
        <ele>138.6</ele>
        <time>2016-07-06T14:08:40Z</time>
        <sat>9</sat>
      </trkpt>
      <trkpt lat="43.602889" lon="11.053739">
        <ele>138.8</ele>
        <time>2016-07-06T14:08:41Z</time>
        <sat>9</sat>
      </trkpt>
      <trkpt lat="43.602768" lon="11.053887">
        <ele>138.7</ele>
        <time>2016-07-06T14:08:42Z</time>
        <sat>10</sat>
      </trkpt>
      <trkpt lat="43.602628" lon="11.054038">
        <ele>138.9</ele>
        <time>2016-07-06T14:08:43Z</time>
        <sat>9</sat>
      </trkpt>
      <trkpt lat="43.602507" lon="11.054181">
        <ele>139.2</ele>
        <time>2016-07-06T14:08:44Z</time>
        <sat>9</sat>
      </trkpt>
      <trkpt lat="43.602413" lon="11.054311">
        <ele>139.7</ele>
        <time>2016-07-06T14:08:45Z</time>
        <sat>9</sat>
      </trkpt>
      <trkpt lat="43.602347" lon="11.054451">
        <ele>140.2</ele>
        <time>2016-07-06T14:08:46Z</time>
        <sat>9</sat>
      </trkpt>
      <trkpt lat="43.602306" lon="11.054612">
        <ele>140.8</ele>
        <time>2016-07-06T14:08:47Z</time>
        <sat>9</sat>
      </trkpt>
      <trkpt lat="43.602280" lon="11.054788">
        <ele>144.6</ele>
        <time>2016-07-06T14:08:48Z</time>
        <sat>9</sat>
      </trkpt>
      <trkpt lat="43.602258" lon="11.054949">
        <ele>145.7</ele>
        <time>2016-07-06T14:08:49Z</time>
        <sat>8</sat>
      </trkpt>
      <trkpt lat="43.602231" lon="11.055079">
        <ele>146.7</ele>
        <time>2016-07-06T14:08:50Z</time>
        <sat>8</sat>
      </trkpt>
      <trkpt lat="43.602192" lon="11.055194">
        <ele>147.6</ele>
        <time>2016-07-06T14:08:51Z</time>
        <sat>8</sat>
      </trkpt>
      <trkpt lat="43.602150" lon="11.055316">
        <ele>146.7</ele>
        <time>2016-07-06T14:08:52Z</time>
        <sat>8</sat>
      </trkpt>
      <trkpt lat="43.602096" lon="11.055456">
        <ele>145.9</ele>
        <time>2016-07-06T14:08:53Z</time>
        <sat>9</sat>
      </trkpt>
      <trkpt lat="43.602031" lon="11.055600">
        <ele>145.1</ele>
        <time>2016-07-06T14:08:54Z</time>
        <sat>8</sat>
      </trkpt>
      <trkpt lat="43.601960" lon="11.055732">
        <ele>144.0</ele>
        <time>2016-07-06T14:08:55Z</time>
        <sat>8</sat>
      </trkpt>
      <trkpt lat="43.601888" lon="11.055854">
        <ele>142.7</ele>
        <time>2016-07-06T14:08:56Z</time>
        <sat>8</sat>
      </trkpt>
      <trkpt lat="43.601809" lon="11.055959">
        <ele>141.5</ele>
        <time>2016-07-06T14:08:57Z</time>
        <sat>8</sat>
      </trkpt>
      <trkpt lat="43.601711" lon="11.056048">
        <ele>140.2</ele>
        <time>2016-07-06T14:08:58Z</time>
        <sat>10</sat>
      </trkpt>
      <trkpt lat="43.601593" lon="11.056136">
        <ele>139.3</ele>
        <time>2016-07-06T14:08:59Z</time>
        <sat>10</sat>
      </trkpt>
      <trkpt lat="43.601460" lon="11.056228">
        <ele>139.5</ele>
        <time>2016-07-06T14:09:00Z</time>
        <sat>10</sat>
      </trkpt>
      <trkpt lat="43.601333" lon="11.056316">
        <ele>138.8</ele>
        <time>2016-07-06T14:09:01Z</time>
        <sat>10</sat>
      </trkpt>
      <trkpt lat="43.601218" lon="11.056406">
        <ele>138.8</ele>
        <time>2016-07-06T14:09:02Z</time>
        <sat>10</sat>
      </trkpt>
      <trkpt lat="43.601116" lon="11.056487">
        <ele>138.9</ele>
        <time>2016-07-06T14:09:03Z</time>
        <sat>10</sat>
      </trkpt>
      <trkpt lat="43.601019" lon="11.056557">
        <ele>139.2</ele>
        <time>2016-07-06T14:09:04Z</time>
        <sat>8</sat>
      </trkpt>
      <trkpt lat="43.600927" lon="11.056619">
        <ele>139.4</ele>
        <time>2016-07-06T14:09:05Z</time>
        <sat>9</sat>
      </trkpt>
      <trkpt lat="43.600837" lon="11.056678">
        <ele>139.6</ele>
        <time>2016-07-06T14:09:06Z</time>
        <sat>9</sat>
      </trkpt>
      <trkpt lat="43.600747" lon="11.056734">
        <ele>139.9</ele>
        <time>2016-07-06T14:09:07Z</time>
        <sat>7</sat>
      </trkpt>
      <trkpt lat="43.600655" lon="11.056798">
        <ele>140.7</ele>
        <time>2016-07-06T14:09:08Z</time>
        <sat>10</sat>
      </trkpt>
      <trkpt lat="43.600561" lon="11.056867">
        <ele>141.4</ele>
        <time>2016-07-06T14:09:09Z</time>
        <sat>10</sat>
      </trkpt>
      <trkpt lat="43.600469" lon="11.056941">
        <ele>141.2</ele>
        <time>2016-07-06T14:09:10Z</time>
        <sat>10</sat>
      </trkpt>
      <trkpt lat="43.600370" lon="11.057029">
        <ele>141.5</ele>
        <time>2016-07-06T14:09:11Z</time>
        <sat>10</sat>
      </trkpt>
      <trkpt lat="43.600266" lon="11.057120">
        <ele>141.1</ele>
        <time>2016-07-06T14:09:12Z</time>
        <sat>9</sat>
      </trkpt>
      <trkpt lat="43.600162" lon="11.057215">
        <ele>139.1</ele>
        <time>2016-07-06T14:09:13Z</time>
        <sat>10</sat>
      </trkpt>
      <trkpt lat="43.600049" lon="11.057317">
        <ele>138.9</ele>
        <time>2016-07-06T14:09:14Z</time>
        <sat>10</sat>
      </trkpt>
      <trkpt lat="43.599931" lon="11.057418">
        <ele>138.6</ele>
        <time>2016-07-06T14:09:15Z</time>
        <sat>10</sat>
      </trkpt>
      <trkpt lat="43.599810" lon="11.057510">
        <ele>137.8</ele>
        <time>2016-07-06T14:09:16Z</time>
        <sat>10</sat>
      </trkpt>
      <trkpt lat="43.599689" lon="11.057603">
        <ele>137.0</ele>
        <time>2016-07-06T14:09:17Z</time>
        <sat>10</sat>
      </trkpt>
      <trkpt lat="43.599471" lon="11.057786">
        <ele>135.5</ele>
        <time>2016-07-06T14:09:19Z</time>
        <sat>10</sat>
      </trkpt>
      <trkpt lat="43.599368" lon="11.057854">
        <ele>135.2</ele>
        <time>2016-07-06T14:09:20Z</time>
        <sat>10</sat>
      </trkpt>
      <trkpt lat="43.599268" lon="11.057920">
        <ele>135.0</ele>
        <time>2016-07-06T14:09:21Z</time>
        <sat>10</sat>
      </trkpt>
      <trkpt lat="43.599175" lon="11.057980">
        <ele>134.0</ele>
        <time>2016-07-06T14:09:22Z</time>
        <sat>9</sat>
      </trkpt>
      <trkpt lat="43.599088" lon="11.058034">
        <ele>132.5</ele>
        <time>2016-07-06T14:09:23Z</time>
        <sat>10</sat>
      </trkpt>
      <trkpt lat="43.599001" lon="11.058084">
        <ele>130.6</ele>
        <time>2016-07-06T14:09:24Z</time>
        <sat>10</sat>
      </trkpt>
      <trkpt lat="43.598904" lon="11.058119">
        <ele>129.3</ele>
        <time>2016-07-06T14:09:25Z</time>
        <sat>10</sat>
      </trkpt>
      <trkpt lat="43.598800" lon="11.058139">
        <ele>127.4</ele>
        <time>2016-07-06T14:09:26Z</time>
        <sat>10</sat>
      </trkpt>
      <trkpt lat="43.598690" lon="11.058141">
        <ele>125.9</ele>
        <time>2016-07-06T14:09:27Z</time>
        <sat>10</sat>
      </trkpt>
      <trkpt lat="43.598570" lon="11.058126">
        <ele>124.7</ele>
        <time>2016-07-06T14:09:28Z</time>
        <sat>10</sat>
      </trkpt>
      <trkpt lat="43.598443" lon="11.058094">
        <ele>123.5</ele>
        <time>2016-07-06T14:09:29Z</time>
        <sat>10</sat>
      </trkpt>
      <trkpt lat="43.598319" lon="11.058050">
        <ele>122.4</ele>
        <time>2016-07-06T14:09:30Z</time>
        <sat>10</sat>
      </trkpt>
      <trkpt lat="43.598205" lon="11.057995">
        <ele>121.2</ele>
        <time>2016-07-06T14:09:31Z</time>
        <sat>9</sat>
      </trkpt>
      <trkpt lat="43.598095" lon="11.057940">
        <ele>120.2</ele>
        <time>2016-07-06T14:09:32Z</time>
        <sat>9</sat>
      </trkpt>
      <trkpt lat="43.597983" lon="11.057897">
        <ele>119.1</ele>
        <time>2016-07-06T14:09:33Z</time>
        <sat>9</sat>
      </trkpt>
      <trkpt lat="43.597860" lon="11.057862">
        <ele>118.2</ele>
        <time>2016-07-06T14:09:34Z</time>
        <sat>10</sat>
      </trkpt>
      <trkpt lat="43.597726" lon="11.057842">
        <ele>117.9</ele>
        <time>2016-07-06T14:09:35Z</time>
        <sat>10</sat>
      </trkpt>
      <trkpt lat="43.597596" lon="11.057831">
        <ele>117.7</ele>
        <time>2016-07-06T14:09:36Z</time>
        <sat>9</sat>
      </trkpt>
      <trkpt lat="43.597476" lon="11.057822">
        <ele>119.3</ele>
        <time>2016-07-06T14:09:37Z</time>
        <sat>9</sat>
      </trkpt>
      <trkpt lat="43.597358" lon="11.057830">
        <ele>119.6</ele>
        <time>2016-07-06T14:09:38Z</time>
        <sat>9</sat>
      </trkpt>
      <trkpt lat="43.597229" lon="11.057858">
        <ele>122.8</ele>
        <time>2016-07-06T14:09:39Z</time>
        <sat>9</sat>
      </trkpt>
      <trkpt lat="43.597108" lon="11.057904">
        <ele>123.8</ele>
        <time>2016-07-06T14:09:40Z</time>
        <sat>9</sat>
      </trkpt>
      <trkpt lat="43.596991" lon="11.057974">
        <ele>125.0</ele>
        <time>2016-07-06T14:09:41Z</time>
        <sat>9</sat>
      </trkpt>
      <trkpt lat="43.596882" lon="11.058046">
        <ele>125.6</ele>
        <time>2016-07-06T14:09:42Z</time>
        <sat>9</sat>
      </trkpt>
      <trkpt lat="43.596781" lon="11.058115">
        <ele>126.2</ele>
        <time>2016-07-06T14:09:43Z</time>
        <sat>8</sat>
      </trkpt>
      <trkpt lat="43.596672" lon="11.058196">
        <ele>125.2</ele>
        <time>2016-07-06T14:09:44Z</time>
        <sat>9</sat>
      </trkpt>
      <trkpt lat="43.596567" lon="11.058289">
        <ele>124.8</ele>
        <time>2016-07-06T14:09:45Z</time>
        <sat>9</sat>
      </trkpt>
      <trkpt lat="43.596461" lon="11.058393">
        <ele>125.2</ele>
        <time>2016-07-06T14:09:46Z</time>
        <sat>9</sat>
      </trkpt>
      <trkpt lat="43.596354" lon="11.058505">
        <ele>125.6</ele>
        <time>2016-07-06T14:09:47Z</time>
        <sat>9</sat>
      </trkpt>
      <trkpt lat="43.596241" lon="11.058624">
        <ele>126.8</ele>
        <time>2016-07-06T14:09:48Z</time>
        <sat>9</sat>
      </trkpt>
      <trkpt lat="43.596139" lon="11.058735">
        <ele>127.1</ele>
        <time>2016-07-06T14:09:49Z</time>
        <sat>9</sat>
      </trkpt>
      <trkpt lat="43.596047" lon="11.058839">
        <ele>127.6</ele>
        <time>2016-07-06T14:09:50Z</time>
        <sat>9</sat>
      </trkpt>
      <trkpt lat="43.595970" lon="11.058946">
        <ele>127.4</ele>
        <time>2016-07-06T14:09:51Z</time>
        <sat>9</sat>
      </trkpt>
      <trkpt lat="43.595901" lon="11.059059">
        <ele>129.1</ele>
        <time>2016-07-06T14:09:52Z</time>
        <sat>9</sat>
      </trkpt>
      <trkpt lat="43.595843" lon="11.059186">
        <ele>130.2</ele>
        <time>2016-07-06T14:09:53Z</time>
        <sat>9</sat>
      </trkpt>
      <trkpt lat="43.595792" lon="11.059328">
        <ele>131.0</ele>
        <time>2016-07-06T14:09:54Z</time>
        <sat>9</sat>
      </trkpt>
      <trkpt lat="43.595745" lon="11.059478">
        <ele>131.8</ele>
        <time>2016-07-06T14:09:55Z</time>
        <sat>9</sat>
      </trkpt>
      <trkpt lat="43.595702" lon="11.059633">
        <ele>132.8</ele>
        <time>2016-07-06T14:09:56Z</time>
        <sat>9</sat>
      </trkpt>
      <trkpt lat="43.595664" lon="11.059786">
        <ele>133.5</ele>
        <time>2016-07-06T14:09:57Z</time>
        <sat>9</sat>
      </trkpt>
      <trkpt lat="43.595623" lon="11.059925">
        <ele>135.5</ele>
        <time>2016-07-06T14:09:58Z</time>
        <sat>9</sat>
      </trkpt>
      <trkpt lat="43.595584" lon="11.060059">
        <ele>136.9</ele>
        <time>2016-07-06T14:09:59Z</time>
        <sat>9</sat>
      </trkpt>
      <trkpt lat="43.595554" lon="11.060183">
        <ele>138.3</ele>
        <time>2016-07-06T14:10:00Z</time>
        <sat>9</sat>
      </trkpt>
      <trkpt lat="43.595554" lon="11.060391">
        <ele>141.4</ele>
        <time>2016-07-06T14:10:02Z</time>
        <sat>9</sat>
      </trkpt>
      <trkpt lat="43.595631" lon="11.060605">
        <ele>142.1</ele>
        <time>2016-07-06T14:10:04Z</time>
        <sat>9</sat>
      </trkpt>
      <trkpt lat="43.595696" lon="11.060719">
        <ele>142.4</ele>
        <time>2016-07-06T14:10:05Z</time>
        <sat>9</sat>
      </trkpt>
      <trkpt lat="43.595776" lon="11.060834">
        <ele>142.4</ele>
        <time>2016-07-06T14:10:06Z</time>
        <sat>9</sat>
      </trkpt>
      <trkpt lat="43.595860" lon="11.060945">
        <ele>142.5</ele>
        <time>2016-07-06T14:10:07Z</time>
        <sat>9</sat>
      </trkpt>
      <trkpt lat="43.595936" lon="11.061052">
        <ele>142.7</ele>
        <time>2016-07-06T14:10:08Z</time>
        <sat>9</sat>
      </trkpt>
      <trkpt lat="43.595998" lon="11.061150">
        <ele>142.9</ele>
        <time>2016-07-06T14:10:09Z</time>
        <sat>9</sat>
      </trkpt>
      <trkpt lat="43.596072" lon="11.061372">
        <ele>144.2</ele>
        <time>2016-07-06T14:10:11Z</time>
        <sat>9</sat>
      </trkpt>
      <trkpt lat="43.596074" lon="11.061609">
        <ele>145.2</ele>
        <time>2016-07-06T14:10:13Z</time>
        <sat>9</sat>
      </trkpt>
      <trkpt lat="43.595996" lon="11.061764">
        <ele>145.6</ele>
        <time>2016-07-06T14:10:15Z</time>
        <sat>9</sat>
      </trkpt>
      <trkpt lat="43.595855" lon="11.061782">
        <ele>147.5</ele>
        <time>2016-07-06T14:10:17Z</time>
        <sat>9</sat>
      </trkpt>
      <trkpt lat="43.595763" lon="11.061758">
        <ele>148.7</ele>
        <time>2016-07-06T14:10:18Z</time>
        <sat>9</sat>
      </trkpt>
      <trkpt lat="43.595560" lon="11.061676">
        <ele>151.2</ele>
        <time>2016-07-06T14:10:20Z</time>
        <sat>9</sat>
      </trkpt>
      <trkpt lat="43.595482" lon="11.061606">
        <ele>152.3</ele>
        <time>2016-07-06T14:10:21Z</time>
        <sat>8</sat>
      </trkpt>
      <trkpt lat="43.595419" lon="11.061513">
        <ele>153.3</ele>
        <time>2016-07-06T14:10:22Z</time>
        <sat>9</sat>
      </trkpt>
      <trkpt lat="43.595362" lon="11.061412">
        <ele>154.5</ele>
        <time>2016-07-06T14:10:23Z</time>
        <sat>9</sat>
      </trkpt>
      <trkpt lat="43.595301" lon="11.061316">
        <ele>155.3</ele>
        <time>2016-07-06T14:10:24Z</time>
        <sat>8</sat>
      </trkpt>
      <trkpt lat="43.595184" lon="11.061180">
        <ele>157.1</ele>
        <time>2016-07-06T14:10:26Z</time>
        <sat>9</sat>
      </trkpt>
      <trkpt lat="43.595093" lon="11.061111">
        <ele>158.4</ele>
        <time>2016-07-06T14:10:28Z</time>
        <sat>9</sat>
      </trkpt>
      <trkpt lat="43.595006" lon="11.061072">
        <ele>158.8</ele>
        <time>2016-07-06T14:10:30Z</time>
        <sat>9</sat>
      </trkpt>
      <trkpt lat="43.594881" lon="11.061049">
        <ele>159.0</ele>
        <time>2016-07-06T14:10:32Z</time>
        <sat>9</sat>
      </trkpt>
      <trkpt lat="43.594743" lon="11.061068">
        <ele>160.2</ele>
        <time>2016-07-06T14:10:34Z</time>
        <sat>8</sat>
      </trkpt>
      <trkpt lat="43.594615" lon="11.061137">
        <ele>161.4</ele>
        <time>2016-07-06T14:10:36Z</time>
        <sat>8</sat>
      </trkpt>
      <trkpt lat="43.594526" lon="11.061176">
        <ele>162.3</ele>
        <time>2016-07-06T14:10:37Z</time>
        <sat>8</sat>
      </trkpt>
      <trkpt lat="43.594433" lon="11.061215">
        <ele>163.0</ele>
        <time>2016-07-06T14:10:38Z</time>
        <sat>8</sat>
      </trkpt>
      <trkpt lat="43.594327" lon="11.061257">
        <ele>164.6</ele>
        <time>2016-07-06T14:10:39Z</time>
        <sat>8</sat>
      </trkpt>
      <trkpt lat="43.594220" lon="11.061298">
        <ele>165.5</ele>
        <time>2016-07-06T14:10:40Z</time>
        <sat>8</sat>
      </trkpt>
      <trkpt lat="43.594110" lon="11.061342">
        <ele>166.6</ele>
        <time>2016-07-06T14:10:41Z</time>
        <sat>9</sat>
      </trkpt>
      <trkpt lat="43.593998" lon="11.061379">
        <ele>167.4</ele>
        <time>2016-07-06T14:10:42Z</time>
        <sat>9</sat>
      </trkpt>
      <trkpt lat="43.593889" lon="11.061417">
        <ele>167.4</ele>
        <time>2016-07-06T14:10:43Z</time>
        <sat>8</sat>
      </trkpt>
      <trkpt lat="43.593797" lon="11.061446">
        <ele>167.7</ele>
        <time>2016-07-06T14:10:44Z</time>
        <sat>9</sat>
      </trkpt>
      <trkpt lat="43.593668" lon="11.061489">
        <ele>166.5</ele>
        <time>2016-07-06T14:10:46Z</time>
        <sat>8</sat>
      </trkpt>
      <trkpt lat="43.593550" lon="11.061527">
        <ele>164.2</ele>
        <time>2016-07-06T14:10:48Z</time>
        <sat>9</sat>
      </trkpt>
      <trkpt lat="43.593440" lon="11.061545">
        <ele>163.4</ele>
        <time>2016-07-06T14:10:51Z</time>
        <sat>9</sat>
      </trkpt>
      <trkpt lat="43.593380" lon="11.061698">
        <ele>162.7</ele>
        <time>2016-07-06T14:11:05Z</time>
        <sat>8</sat>
      </trkpt>
      <trkpt lat="43.593373" lon="11.061903">
        <ele>161.8</ele>
        <time>2016-07-06T14:11:07Z</time>
        <sat>9</sat>
      </trkpt>
      <trkpt lat="43.593363" lon="11.062145">
        <ele>160.6</ele>
        <time>2016-07-06T14:11:09Z</time>
        <sat>9</sat>
      </trkpt>
      <trkpt lat="43.593355" lon="11.062283">
        <ele>159.5</ele>
        <time>2016-07-06T14:11:10Z</time>
        <sat>9</sat>
      </trkpt>
      <trkpt lat="43.593345" lon="11.062424">
        <ele>158.3</ele>
        <time>2016-07-06T14:11:11Z</time>
        <sat>9</sat>
      </trkpt>
      <trkpt lat="43.593334" lon="11.062562">
        <ele>157.1</ele>
        <time>2016-07-06T14:11:12Z</time>
        <sat>9</sat>
      </trkpt>
      <trkpt lat="43.593325" lon="11.062692">
        <ele>155.9</ele>
        <time>2016-07-06T14:11:13Z</time>
        <sat>9</sat>
      </trkpt>
      <trkpt lat="43.593311" lon="11.062823">
        <ele>154.6</ele>
        <time>2016-07-06T14:11:14Z</time>
        <sat>9</sat>
      </trkpt>
      <trkpt lat="43.593286" lon="11.062962">
        <ele>153.2</ele>
        <time>2016-07-06T14:11:15Z</time>
        <sat>9</sat>
      </trkpt>
      <trkpt lat="43.593258" lon="11.063104">
        <ele>152.0</ele>
        <time>2016-07-06T14:11:16Z</time>
        <sat>9</sat>
      </trkpt>
      <trkpt lat="43.593227" lon="11.063241">
        <ele>150.8</ele>
        <time>2016-07-06T14:11:17Z</time>
        <sat>9</sat>
      </trkpt>
      <trkpt lat="43.593189" lon="11.063379">
        <ele>149.6</ele>
        <time>2016-07-06T14:11:18Z</time>
        <sat>9</sat>
      </trkpt>
      <trkpt lat="43.593139" lon="11.063521">
        <ele>148.2</ele>
        <time>2016-07-06T14:11:19Z</time>
        <sat>9</sat>
      </trkpt>
      <trkpt lat="43.593011" lon="11.063803">
        <ele>145.5</ele>
        <time>2016-07-06T14:11:21Z</time>
        <sat>9</sat>
      </trkpt>
      <trkpt lat="43.592936" lon="11.063921">
        <ele>144.5</ele>
        <time>2016-07-06T14:11:22Z</time>
        <sat>10</sat>
      </trkpt>
      <trkpt lat="43.592858" lon="11.064031">
        <ele>144.1</ele>
        <time>2016-07-06T14:11:23Z</time>
        <sat>10</sat>
      </trkpt>
      <trkpt lat="43.592781" lon="11.064117">
        <ele>142.4</ele>
        <time>2016-07-06T14:11:24Z</time>
        <sat>9</sat>
      </trkpt>
      <trkpt lat="43.592695" lon="11.064184">
        <ele>141.1</ele>
        <time>2016-07-06T14:11:25Z</time>
        <sat>10</sat>
      </trkpt>
      <trkpt lat="43.592596" lon="11.064227">
        <ele>140.1</ele>
        <time>2016-07-06T14:11:26Z</time>
        <sat>8</sat>
      </trkpt>
      <trkpt lat="43.592484" lon="11.064244">
        <ele>138.9</ele>
        <time>2016-07-06T14:11:27Z</time>
        <sat>9</sat>
      </trkpt>
      <trkpt lat="43.592361" lon="11.064247">
        <ele>137.6</ele>
        <time>2016-07-06T14:11:28Z</time>
        <sat>9</sat>
      </trkpt>
      <trkpt lat="43.592230" lon="11.064242">
        <ele>136.2</ele>
        <time>2016-07-06T14:11:29Z</time>
        <sat>9</sat>
      </trkpt>
      <trkpt lat="43.592099" lon="11.064235">
        <ele>135.0</ele>
        <time>2016-07-06T14:11:30Z</time>
        <sat>9</sat>
      </trkpt>
      <trkpt lat="43.591976" lon="11.064225">
        <ele>133.8</ele>
        <time>2016-07-06T14:11:31Z</time>
        <sat>9</sat>
      </trkpt>
      <trkpt lat="43.591863" lon="11.064214">
        <ele>132.8</ele>
        <time>2016-07-06T14:11:32Z</time>
        <sat>9</sat>
      </trkpt>
      <trkpt lat="43.591751" lon="11.064211">
        <ele>132.1</ele>
        <time>2016-07-06T14:11:33Z</time>
        <sat>9</sat>
      </trkpt>
      <trkpt lat="43.591647" lon="11.064234">
        <ele>130.4</ele>
        <time>2016-07-06T14:11:34Z</time>
        <sat>9</sat>
      </trkpt>
      <trkpt lat="43.591536" lon="11.064294">
        <ele>131.4</ele>
        <time>2016-07-06T14:11:35Z</time>
        <sat>10</sat>
      </trkpt>
      <trkpt lat="43.591438" lon="11.064384">
        <ele>131.5</ele>
        <time>2016-07-06T14:11:36Z</time>
        <sat>9</sat>
      </trkpt>
      <trkpt lat="43.591359" lon="11.064516">
        <ele>131.3</ele>
        <time>2016-07-06T14:11:37Z</time>
        <sat>9</sat>
      </trkpt>
      <trkpt lat="43.591291" lon="11.064678">
        <ele>131.1</ele>
        <time>2016-07-06T14:11:38Z</time>
        <sat>9</sat>
      </trkpt>
      <trkpt lat="43.591234" lon="11.064842">
        <ele>130.7</ele>
        <time>2016-07-06T14:11:39Z</time>
        <sat>9</sat>
      </trkpt>
      <trkpt lat="43.591192" lon="11.065007">
        <ele>130.2</ele>
        <time>2016-07-06T14:11:40Z</time>
        <sat>9</sat>
      </trkpt>
      <trkpt lat="43.591167" lon="11.065187">
        <ele>129.8</ele>
        <time>2016-07-06T14:11:41Z</time>
        <sat>9</sat>
      </trkpt>
      <trkpt lat="43.591167" lon="11.065376">
        <ele>129.1</ele>
        <time>2016-07-06T14:11:42Z</time>
        <sat>9</sat>
      </trkpt>
      <trkpt lat="43.591185" lon="11.065564">
        <ele>128.9</ele>
        <time>2016-07-06T14:11:43Z</time>
        <sat>9</sat>
      </trkpt>
      <trkpt lat="43.591209" lon="11.065751">
        <ele>129.1</ele>
        <time>2016-07-06T14:11:44Z</time>
        <sat>9</sat>
      </trkpt>
      <trkpt lat="43.591230" lon="11.065941">
        <ele>129.7</ele>
        <time>2016-07-06T14:11:45Z</time>
        <sat>9</sat>
      </trkpt>
      <trkpt lat="43.591253" lon="11.066136">
        <ele>129.7</ele>
        <time>2016-07-06T14:11:46Z</time>
        <sat>9</sat>
      </trkpt>
      <trkpt lat="43.591279" lon="11.066339">
        <ele>130.1</ele>
        <time>2016-07-06T14:11:47Z</time>
        <sat>9</sat>
      </trkpt>
      <trkpt lat="43.591302" lon="11.066544">
        <ele>130.8</ele>
        <time>2016-07-06T14:11:48Z</time>
        <sat>9</sat>
      </trkpt>
      <trkpt lat="43.591327" lon="11.066740">
        <ele>132.1</ele>
        <time>2016-07-06T14:11:49Z</time>
        <sat>9</sat>
      </trkpt>
      <trkpt lat="43.591352" lon="11.066929">
        <ele>133.4</ele>
        <time>2016-07-06T14:11:50Z</time>
        <sat>9</sat>
      </trkpt>
      <trkpt lat="43.591377" lon="11.067118">
        <ele>134.9</ele>
        <time>2016-07-06T14:11:51Z</time>
        <sat>9</sat>
      </trkpt>
      <trkpt lat="43.591401" lon="11.067310">
        <ele>136.4</ele>
        <time>2016-07-06T14:11:52Z</time>
        <sat>9</sat>
      </trkpt>
      <trkpt lat="43.591427" lon="11.067505">
        <ele>137.5</ele>
        <time>2016-07-06T14:11:53Z</time>
        <sat>8</sat>
      </trkpt>
      <trkpt lat="43.591451" lon="11.067693">
        <ele>138.4</ele>
        <time>2016-07-06T14:11:54Z</time>
        <sat>8</sat>
      </trkpt>
      <trkpt lat="43.591471" lon="11.067864">
        <ele>139.0</ele>
        <time>2016-07-06T14:11:55Z</time>
        <sat>8</sat>
      </trkpt>
      <trkpt lat="43.591484" lon="11.068028">
        <ele>139.5</ele>
        <time>2016-07-06T14:11:56Z</time>
        <sat>7</sat>
      </trkpt>
      <trkpt lat="43.591487" lon="11.068200">
        <ele>140.0</ele>
        <time>2016-07-06T14:11:57Z</time>
        <sat>8</sat>
      </trkpt>
      <trkpt lat="43.591482" lon="11.068379">
        <ele>140.5</ele>
        <time>2016-07-06T14:11:58Z</time>
        <sat>9</sat>
      </trkpt>
      <trkpt lat="43.591475" lon="11.068561">
        <ele>140.9</ele>
        <time>2016-07-06T14:11:59Z</time>
        <sat>9</sat>
      </trkpt>
      <trkpt lat="43.591467" lon="11.068735">
        <ele>141.6</ele>
        <time>2016-07-06T14:12:00Z</time>
        <sat>9</sat>
      </trkpt>
      <trkpt lat="43.591454" lon="11.068897">
        <ele>142.3</ele>
        <time>2016-07-06T14:12:01Z</time>
        <sat>9</sat>
      </trkpt>
      <trkpt lat="43.591434" lon="11.069049">
        <ele>143.0</ele>
        <time>2016-07-06T14:12:02Z</time>
        <sat>8</sat>
      </trkpt>
      <trkpt lat="43.591410" lon="11.069192">
        <ele>143.3</ele>
        <time>2016-07-06T14:12:03Z</time>
        <sat>9</sat>
      </trkpt>
      <trkpt lat="43.591385" lon="11.069333">
        <ele>143.7</ele>
        <time>2016-07-06T14:12:04Z</time>
        <sat>9</sat>
      </trkpt>
      <trkpt lat="43.591357" lon="11.069482">
        <ele>143.8</ele>
        <time>2016-07-06T14:12:05Z</time>
        <sat>8</sat>
      </trkpt>
      <trkpt lat="43.591323" lon="11.069635">
        <ele>143.5</ele>
        <time>2016-07-06T14:12:06Z</time>
        <sat>9</sat>
      </trkpt>
      <trkpt lat="43.591284" lon="11.069778">
        <ele>142.8</ele>
        <time>2016-07-06T14:12:07Z</time>
        <sat>7</sat>
      </trkpt>
      <trkpt lat="43.591249" lon="11.069933">
        <ele>142.0</ele>
        <time>2016-07-06T14:12:08Z</time>
        <sat>7</sat>
      </trkpt>
      <trkpt lat="43.591221" lon="11.070086">
        <ele>141.4</ele>
        <time>2016-07-06T14:12:09Z</time>
        <sat>6</sat>
      </trkpt>
      <trkpt lat="43.591193" lon="11.070227">
        <ele>140.8</ele>
        <time>2016-07-06T14:12:10Z</time>
        <sat>7</sat>
      </trkpt>
      <trkpt lat="43.591156" lon="11.070355">
        <ele>139.6</ele>
        <time>2016-07-06T14:12:11Z</time>
        <sat>9</sat>
      </trkpt>
      <trkpt lat="43.591058" lon="11.070588">
        <ele>136.1</ele>
        <time>2016-07-06T14:12:13Z</time>
        <sat>8</sat>
      </trkpt>
      <trkpt lat="43.590980" lon="11.070679">
        <ele>135.5</ele>
        <time>2016-07-06T14:12:14Z</time>
        <sat>9</sat>
      </trkpt>
      <trkpt lat="43.590879" lon="11.070761">
        <ele>135.0</ele>
        <time>2016-07-06T14:12:15Z</time>
        <sat>9</sat>
      </trkpt>
      <trkpt lat="43.590759" lon="11.070844">
        <ele>134.6</ele>
        <time>2016-07-06T14:12:16Z</time>
        <sat>7</sat>
      </trkpt>
      <trkpt lat="43.590627" lon="11.070929">
        <ele>134.7</ele>
        <time>2016-07-06T14:12:17Z</time>
        <sat>9</sat>
      </trkpt>
      <trkpt lat="43.590494" lon="11.071017">
        <ele>134.9</ele>
        <time>2016-07-06T14:12:18Z</time>
        <sat>9</sat>
      </trkpt>
      <trkpt lat="43.590365" lon="11.071100">
        <ele>135.7</ele>
        <time>2016-07-06T14:12:19Z</time>
        <sat>9</sat>
      </trkpt>
      <trkpt lat="43.590246" lon="11.071175">
        <ele>136.7</ele>
        <time>2016-07-06T14:12:20Z</time>
        <sat>8</sat>
      </trkpt>
      <trkpt lat="43.590015" lon="11.071306">
        <ele>139.3</ele>
        <time>2016-07-06T14:12:22Z</time>
        <sat>7</sat>
      </trkpt>
      <trkpt lat="43.589898" lon="11.071354">
        <ele>140.9</ele>
        <time>2016-07-06T14:12:23Z</time>
        <sat>9</sat>
      </trkpt>
      <trkpt lat="43.589779" lon="11.071376">
        <ele>142.4</ele>
        <time>2016-07-06T14:12:24Z</time>
        <sat>9</sat>
      </trkpt>
      <trkpt lat="43.589652" lon="11.071379">
        <ele>143.7</ele>
        <time>2016-07-06T14:12:25Z</time>
        <sat>9</sat>
      </trkpt>
      <trkpt lat="43.589522" lon="11.071374">
        <ele>144.9</ele>
        <time>2016-07-06T14:12:26Z</time>
        <sat>9</sat>
      </trkpt>
      <trkpt lat="43.589405" lon="11.071365">
        <ele>146.0</ele>
        <time>2016-07-06T14:12:27Z</time>
        <sat>9</sat>
      </trkpt>
      <trkpt lat="43.589299" lon="11.071363">
        <ele>147.5</ele>
        <time>2016-07-06T14:12:28Z</time>
        <sat>9</sat>
      </trkpt>
      <trkpt lat="43.589195" lon="11.071368">
        <ele>148.9</ele>
        <time>2016-07-06T14:12:29Z</time>
        <sat>9</sat>
      </trkpt>
      <trkpt lat="43.589094" lon="11.071398">
        <ele>150.5</ele>
        <time>2016-07-06T14:12:30Z</time>
        <sat>9</sat>
      </trkpt>
      <trkpt lat="43.588996" lon="11.071446">
        <ele>151.6</ele>
        <time>2016-07-06T14:12:31Z</time>
        <sat>9</sat>
      </trkpt>
      <trkpt lat="43.588907" lon="11.071512">
        <ele>152.9</ele>
        <time>2016-07-06T14:12:32Z</time>
        <sat>9</sat>
      </trkpt>
      <trkpt lat="43.588829" lon="11.071603">
        <ele>154.2</ele>
        <time>2016-07-06T14:12:33Z</time>
        <sat>9</sat>
      </trkpt>
      <trkpt lat="43.588767" lon="11.071724">
        <ele>155.6</ele>
        <time>2016-07-06T14:12:34Z</time>
        <sat>8</sat>
      </trkpt>
      <trkpt lat="43.588709" lon="11.071871">
        <ele>156.9</ele>
        <time>2016-07-06T14:12:35Z</time>
        <sat>9</sat>
      </trkpt>
      <trkpt lat="43.588660" lon="11.072016">
        <ele>157.1</ele>
        <time>2016-07-06T14:12:36Z</time>
        <sat>9</sat>
      </trkpt>
      <trkpt lat="43.588624" lon="11.072146">
        <ele>157.7</ele>
        <time>2016-07-06T14:12:37Z</time>
        <sat>9</sat>
      </trkpt>
      <trkpt lat="43.588596" lon="11.072269">
        <ele>157.9</ele>
        <time>2016-07-06T14:12:38Z</time>
        <sat>9</sat>
      </trkpt>
      <trkpt lat="43.588587" lon="11.072394">
        <ele>157.8</ele>
        <time>2016-07-06T14:12:39Z</time>
        <sat>9</sat>
      </trkpt>
      <trkpt lat="43.588628" lon="11.072647">
        <ele>157.9</ele>
        <time>2016-07-06T14:12:41Z</time>
        <sat>9</sat>
      </trkpt>
      <trkpt lat="43.588663" lon="11.072794">
        <ele>158.1</ele>
        <time>2016-07-06T14:12:42Z</time>
        <sat>9</sat>
      </trkpt>
      <trkpt lat="43.588686" lon="11.072931">
        <ele>157.9</ele>
        <time>2016-07-06T14:12:43Z</time>
        <sat>9</sat>
      </trkpt>
      <trkpt lat="43.588685" lon="11.073168">
        <ele>156.9</ele>
        <time>2016-07-06T14:12:45Z</time>
        <sat>9</sat>
      </trkpt>
      <trkpt lat="43.588649" lon="11.073295">
        <ele>156.1</ele>
        <time>2016-07-06T14:12:46Z</time>
        <sat>9</sat>
      </trkpt>
      <trkpt lat="43.588594" lon="11.073431">
        <ele>154.4</ele>
        <time>2016-07-06T14:12:47Z</time>
        <sat>9</sat>
      </trkpt>
      <trkpt lat="43.588524" lon="11.073554">
        <ele>153.3</ele>
        <time>2016-07-06T14:12:48Z</time>
        <sat>9</sat>
      </trkpt>
      <trkpt lat="43.588442" lon="11.073684">
        <ele>154.5</ele>
        <time>2016-07-06T14:12:49Z</time>
        <sat>9</sat>
      </trkpt>
      <trkpt lat="43.588372" lon="11.073816">
        <ele>154.7</ele>
        <time>2016-07-06T14:12:50Z</time>
        <sat>8</sat>
      </trkpt>
      <trkpt lat="43.588317" lon="11.073971">
        <ele>154.8</ele>
        <time>2016-07-06T14:12:51Z</time>
        <sat>9</sat>
      </trkpt>
      <trkpt lat="43.588271" lon="11.074138">
        <ele>155.1</ele>
        <time>2016-07-06T14:12:52Z</time>
        <sat>9</sat>
      </trkpt>
      <trkpt lat="43.588226" lon="11.074308">
        <ele>155.4</ele>
        <time>2016-07-06T14:12:53Z</time>
        <sat>9</sat>
      </trkpt>
      <trkpt lat="43.588187" lon="11.074480">
        <ele>155.8</ele>
        <time>2016-07-06T14:12:54Z</time>
        <sat>9</sat>
      </trkpt>
      <trkpt lat="43.588142" lon="11.074640">
        <ele>156.8</ele>
        <time>2016-07-06T14:12:55Z</time>
        <sat>9</sat>
      </trkpt>
      <trkpt lat="43.588096" lon="11.074775">
        <ele>158.2</ele>
        <time>2016-07-06T14:12:56Z</time>
        <sat>9</sat>
      </trkpt>
      <trkpt lat="43.588008" lon="11.074951">
        <ele>160.3</ele>
        <time>2016-07-06T14:12:58Z</time>
        <sat>8</sat>
      </trkpt>
      <trkpt lat="43.587893" lon="11.075097">
        <ele>161.6</ele>
        <time>2016-07-06T14:13:00Z</time>
        <sat>8</sat>
      </trkpt>
      <trkpt lat="43.587780" lon="11.075150">
        <ele>162.3</ele>
        <time>2016-07-06T14:13:01Z</time>
        <sat>9</sat>
      </trkpt>
      <trkpt lat="43.587656" lon="11.075196">
        <ele>163.2</ele>
        <time>2016-07-06T14:13:02Z</time>
        <sat>9</sat>
      </trkpt>
      <trkpt lat="43.587538" lon="11.075230">
        <ele>163.9</ele>
        <time>2016-07-06T14:13:03Z</time>
        <sat>8</sat>
      </trkpt>
      <trkpt lat="43.587429" lon="11.075257">
        <ele>164.5</ele>
        <time>2016-07-06T14:13:04Z</time>
        <sat>8</sat>
      </trkpt>
      <trkpt lat="43.587329" lon="11.075294">
        <ele>164.6</ele>
        <time>2016-07-06T14:13:05Z</time>
        <sat>7</sat>
      </trkpt>
      <trkpt lat="43.587230" lon="11.075308">
        <ele>164.9</ele>
        <time>2016-07-06T14:13:06Z</time>
        <sat>9</sat>
      </trkpt>
      <trkpt lat="43.587136" lon="11.075317">
        <ele>166.5</ele>
        <time>2016-07-06T14:13:07Z</time>
        <sat>9</sat>
      </trkpt>
      <trkpt lat="43.586983" lon="11.075388">
        <ele>169.2</ele>
        <time>2016-07-06T14:13:09Z</time>
        <sat>10</sat>
      </trkpt>
      <trkpt lat="43.586858" lon="11.075570">
        <ele>171.7</ele>
        <time>2016-07-06T14:13:11Z</time>
        <sat>10</sat>
      </trkpt>
      <trkpt lat="43.586811" lon="11.075701">
        <ele>166.9</ele>
        <time>2016-07-06T14:13:12Z</time>
        <sat>10</sat>
      </trkpt>
      <trkpt lat="43.586743" lon="11.075822">
        <ele>166.2</ele>
        <time>2016-07-06T14:13:13Z</time>
        <sat>9</sat>
      </trkpt>
      <trkpt lat="43.586680" lon="11.075952">
        <ele>165.2</ele>
        <time>2016-07-06T14:13:14Z</time>
        <sat>10</sat>
      </trkpt>
      <trkpt lat="43.586619" lon="11.076079">
        <ele>163.5</ele>
        <time>2016-07-06T14:13:15Z</time>
        <sat>9</sat>
      </trkpt>
      <trkpt lat="43.586555" lon="11.076191">
        <ele>161.8</ele>
        <time>2016-07-06T14:13:16Z</time>
        <sat>9</sat>
      </trkpt>
      <trkpt lat="43.586486" lon="11.076295">
        <ele>160.9</ele>
        <time>2016-07-06T14:13:17Z</time>
        <sat>9</sat>
      </trkpt>
      <trkpt lat="43.586403" lon="11.076377">
        <ele>160.8</ele>
        <time>2016-07-06T14:13:18Z</time>
        <sat>9</sat>
      </trkpt>
      <trkpt lat="43.586308" lon="11.076444">
        <ele>160.5</ele>
        <time>2016-07-06T14:13:19Z</time>
        <sat>9</sat>
      </trkpt>
      <trkpt lat="43.586208" lon="11.076511">
        <ele>160.2</ele>
        <time>2016-07-06T14:13:20Z</time>
        <sat>9</sat>
      </trkpt>
      <trkpt lat="43.586106" lon="11.076587">
        <ele>160.0</ele>
        <time>2016-07-06T14:13:21Z</time>
        <sat>9</sat>
      </trkpt>
      <trkpt lat="43.585904" lon="11.076798">
        <ele>160.0</ele>
        <time>2016-07-06T14:13:23Z</time>
        <sat>9</sat>
      </trkpt>
      <trkpt lat="43.585803" lon="11.076925">
        <ele>160.0</ele>
        <time>2016-07-06T14:13:24Z</time>
        <sat>9</sat>
      </trkpt>
      <trkpt lat="43.585703" lon="11.077047">
        <ele>160.4</ele>
        <time>2016-07-06T14:13:25Z</time>
        <sat>9</sat>
      </trkpt>
      <trkpt lat="43.585610" lon="11.077169">
        <ele>160.8</ele>
        <time>2016-07-06T14:13:26Z</time>
        <sat>9</sat>
      </trkpt>
      <trkpt lat="43.585532" lon="11.077296">
        <ele>161.2</ele>
        <time>2016-07-06T14:13:27Z</time>
        <sat>9</sat>
      </trkpt>
      <trkpt lat="43.585469" lon="11.077426">
        <ele>161.1</ele>
        <time>2016-07-06T14:13:28Z</time>
        <sat>9</sat>
      </trkpt>
      <trkpt lat="43.585416" lon="11.077577">
        <ele>161.2</ele>
        <time>2016-07-06T14:13:29Z</time>
        <sat>9</sat>
      </trkpt>
      <trkpt lat="43.585382" lon="11.077733">
        <ele>161.6</ele>
        <time>2016-07-06T14:13:30Z</time>
        <sat>9</sat>
      </trkpt>
      <trkpt lat="43.585367" lon="11.077871">
        <ele>162.3</ele>
        <time>2016-07-06T14:13:31Z</time>
        <sat>9</sat>
      </trkpt>
      <trkpt lat="43.585349" lon="11.078002">
        <ele>163.1</ele>
        <time>2016-07-06T14:13:32Z</time>
        <sat>9</sat>
      </trkpt>
      <trkpt lat="43.585343" lon="11.078136">
        <ele>160.7</ele>
        <time>2016-07-06T14:13:33Z</time>
        <sat>9</sat>
      </trkpt>
      <trkpt lat="43.585333" lon="11.078279">
        <ele>159.6</ele>
        <time>2016-07-06T14:13:34Z</time>
        <sat>8</sat>
      </trkpt>
      <trkpt lat="43.585324" lon="11.078415">
        <ele>158.6</ele>
        <time>2016-07-06T14:13:35Z</time>
        <sat>10</sat>
      </trkpt>
      <trkpt lat="43.585314" lon="11.078547">
        <ele>157.4</ele>
        <time>2016-07-06T14:13:36Z</time>
        <sat>10</sat>
      </trkpt>
      <trkpt lat="43.585295" lon="11.078676">
        <ele>156.2</ele>
        <time>2016-07-06T14:13:37Z</time>
        <sat>9</sat>
      </trkpt>
      <trkpt lat="43.585258" lon="11.078800">
        <ele>155.0</ele>
        <time>2016-07-06T14:13:38Z</time>
        <sat>9</sat>
      </trkpt>
      <trkpt lat="43.585204" lon="11.078917">
        <ele>154.0</ele>
        <time>2016-07-06T14:13:39Z</time>
        <sat>9</sat>
      </trkpt>
      <trkpt lat="43.585129" lon="11.079042">
        <ele>154.4</ele>
        <time>2016-07-06T14:13:40Z</time>
        <sat>9</sat>
      </trkpt>
      <trkpt lat="43.585044" lon="11.079161">
        <ele>153.8</ele>
        <time>2016-07-06T14:13:41Z</time>
        <sat>10</sat>
      </trkpt>
      <trkpt lat="43.584961" lon="11.079272">
        <ele>152.9</ele>
        <time>2016-07-06T14:13:42Z</time>
        <sat>9</sat>
      </trkpt>
      <trkpt lat="43.584889" lon="11.079364">
        <ele>152.5</ele>
        <time>2016-07-06T14:13:43Z</time>
        <sat>9</sat>
      </trkpt>
      <trkpt lat="43.584784" lon="11.079495">
        <ele>151.8</ele>
        <time>2016-07-06T14:13:45Z</time>
        <sat>9</sat>
      </trkpt>
      <trkpt lat="43.584698" lon="11.079588">
        <ele>150.8</ele>
        <time>2016-07-06T14:13:48Z</time>
        <sat>8</sat>
      </trkpt>
      <trkpt lat="43.584615" lon="11.079423">
        <ele>149.2</ele>
        <time>2016-07-06T14:13:53Z</time>
        <sat>9</sat>
      </trkpt>
      <trkpt lat="43.584568" lon="11.079306">
        <ele>148.5</ele>
        <time>2016-07-06T14:13:54Z</time>
        <sat>9</sat>
      </trkpt>
      <trkpt lat="43.584515" lon="11.079185">
        <ele>148.1</ele>
        <time>2016-07-06T14:13:55Z</time>
        <sat>9</sat>
      </trkpt>
      <trkpt lat="43.584456" lon="11.079052">
        <ele>147.7</ele>
        <time>2016-07-06T14:13:56Z</time>
        <sat>9</sat>
      </trkpt>
      <trkpt lat="43.584392" lon="11.078903">
        <ele>147.4</ele>
        <time>2016-07-06T14:13:57Z</time>
        <sat>9</sat>
      </trkpt>
      <trkpt lat="43.584333" lon="11.078767">
        <ele>147.1</ele>
        <time>2016-07-06T14:13:58Z</time>
        <sat>7</sat>
      </trkpt>
      <trkpt lat="43.584281" lon="11.078647">
        <ele>146.7</ele>
        <time>2016-07-06T14:13:59Z</time>
        <sat>9</sat>
      </trkpt>
      <trkpt lat="43.584239" lon="11.078536">
        <ele>146.2</ele>
        <time>2016-07-06T14:14:00Z</time>
        <sat>9</sat>
      </trkpt>
      <trkpt lat="43.584141" lon="11.078331">
        <ele>145.0</ele>
        <time>2016-07-06T14:14:02Z</time>
        <sat>9</sat>
      </trkpt>
      <trkpt lat="43.584070" lon="11.078224">
        <ele>144.4</ele>
        <time>2016-07-06T14:14:03Z</time>
        <sat>9</sat>
      </trkpt>
      <trkpt lat="43.583986" lon="11.078119">
        <ele>144.3</ele>
        <time>2016-07-06T14:14:04Z</time>
        <sat>9</sat>
      </trkpt>
      <trkpt lat="43.583887" lon="11.078007">
        <ele>144.2</ele>
        <time>2016-07-06T14:14:05Z</time>
        <sat>9</sat>
      </trkpt>
      <trkpt lat="43.583791" lon="11.077901">
        <ele>144.6</ele>
        <time>2016-07-06T14:14:06Z</time>
        <sat>9</sat>
      </trkpt>
      <trkpt lat="43.583705" lon="11.077801">
        <ele>144.4</ele>
        <time>2016-07-06T14:14:07Z</time>
        <sat>10</sat>
      </trkpt>
      <trkpt lat="43.583617" lon="11.077709">
        <ele>144.6</ele>
        <time>2016-07-06T14:14:08Z</time>
        <sat>10</sat>
      </trkpt>
      <trkpt lat="43.583531" lon="11.077618">
        <ele>145.0</ele>
        <time>2016-07-06T14:14:09Z</time>
        <sat>9</sat>
      </trkpt>
      <trkpt lat="43.583451" lon="11.077534">
        <ele>145.0</ele>
        <time>2016-07-06T14:14:10Z</time>
        <sat>8</sat>
      </trkpt>
      <trkpt lat="43.583378" lon="11.077460">
        <ele>145.0</ele>
        <time>2016-07-06T14:14:11Z</time>
        <sat>9</sat>
      </trkpt>
      <trkpt lat="43.583229" lon="11.077304">
        <ele>143.4</ele>
        <time>2016-07-06T14:14:13Z</time>
        <sat>9</sat>
      </trkpt>
      <trkpt lat="43.583143" lon="11.077217">
        <ele>142.7</ele>
        <time>2016-07-06T14:14:14Z</time>
        <sat>9</sat>
      </trkpt>
      <trkpt lat="43.583047" lon="11.077127">
        <ele>142.1</ele>
        <time>2016-07-06T14:14:15Z</time>
        <sat>10</sat>
      </trkpt>
      <trkpt lat="43.582943" lon="11.077044">
        <ele>141.7</ele>
        <time>2016-07-06T14:14:16Z</time>
        <sat>10</sat>
      </trkpt>
      <trkpt lat="43.582843" lon="11.076975">
        <ele>141.7</ele>
        <time>2016-07-06T14:14:17Z</time>
        <sat>9</sat>
      </trkpt>
      <trkpt lat="43.582752" lon="11.076919">
        <ele>141.8</ele>
        <time>2016-07-06T14:14:18Z</time>
        <sat>9</sat>
      </trkpt>
      <trkpt lat="43.582665" lon="11.076858">
        <ele>142.1</ele>
        <time>2016-07-06T14:14:19Z</time>
        <sat>9</sat>
      </trkpt>
      <trkpt lat="43.582581" lon="11.076790">
        <ele>142.7</ele>
        <time>2016-07-06T14:14:20Z</time>
        <sat>9</sat>
      </trkpt>
      <trkpt lat="43.582513" lon="11.076704">
        <ele>143.0</ele>
        <time>2016-07-06T14:14:21Z</time>
        <sat>9</sat>
      </trkpt>
      <trkpt lat="43.582450" lon="11.076496">
        <ele>143.7</ele>
        <time>2016-07-06T14:14:23Z</time>
        <sat>9</sat>
      </trkpt>
      <trkpt lat="43.582296" lon="11.076067">
        <ele>147.7</ele>
        <time>2016-07-06T14:14:27Z</time>
        <sat>9</sat>
      </trkpt>
      <trkpt lat="43.582176" lon="11.075923">
        <ele>147.4</ele>
        <time>2016-07-06T14:14:29Z</time>
        <sat>9</sat>
      </trkpt>
      <trkpt lat="43.582102" lon="11.075853">
        <ele>146.7</ele>
        <time>2016-07-06T14:14:30Z</time>
        <sat>9</sat>
      </trkpt>
      <trkpt lat="43.582017" lon="11.075788">
        <ele>146.0</ele>
        <time>2016-07-06T14:14:31Z</time>
        <sat>9</sat>
      </trkpt>
      <trkpt lat="43.581942" lon="11.075714">
        <ele>145.4</ele>
        <time>2016-07-06T14:14:32Z</time>
        <sat>9</sat>
      </trkpt>
      <trkpt lat="43.581871" lon="11.075627">
        <ele>144.7</ele>
        <time>2016-07-06T14:14:33Z</time>
        <sat>9</sat>
      </trkpt>
      <trkpt lat="43.581809" lon="11.075520">
        <ele>144.2</ele>
        <time>2016-07-06T14:14:34Z</time>
        <sat>9</sat>
      </trkpt>
      <trkpt lat="43.581744" lon="11.075403">
        <ele>143.9</ele>
        <time>2016-07-06T14:14:35Z</time>
        <sat>9</sat>
      </trkpt>
      <trkpt lat="43.581671" lon="11.075286">
        <ele>143.4</ele>
        <time>2016-07-06T14:14:36Z</time>
        <sat>9</sat>
      </trkpt>
      <trkpt lat="43.581590" lon="11.075168">
        <ele>142.9</ele>
        <time>2016-07-06T14:14:37Z</time>
        <sat>9</sat>
      </trkpt>
      <trkpt lat="43.581505" lon="11.075053">
        <ele>142.3</ele>
        <time>2016-07-06T14:14:38Z</time>
        <sat>9</sat>
      </trkpt>
      <trkpt lat="43.581423" lon="11.074942">
        <ele>141.7</ele>
        <time>2016-07-06T14:14:39Z</time>
        <sat>9</sat>
      </trkpt>
      <trkpt lat="43.581344" lon="11.074830">
        <ele>141.1</ele>
        <time>2016-07-06T14:14:40Z</time>
        <sat>9</sat>
      </trkpt>
      <trkpt lat="43.581260" lon="11.074718">
        <ele>140.7</ele>
        <time>2016-07-06T14:14:41Z</time>
        <sat>9</sat>
      </trkpt>
      <trkpt lat="43.581168" lon="11.074606">
        <ele>140.3</ele>
        <time>2016-07-06T14:14:42Z</time>
        <sat>9</sat>
      </trkpt>
      <trkpt lat="43.581073" lon="11.074500">
        <ele>139.9</ele>
        <time>2016-07-06T14:14:43Z</time>
        <sat>9</sat>
      </trkpt>
      <trkpt lat="43.580977" lon="11.074396">
        <ele>139.5</ele>
        <time>2016-07-06T14:14:44Z</time>
        <sat>9</sat>
      </trkpt>
      <trkpt lat="43.580885" lon="11.074299">
        <ele>139.3</ele>
        <time>2016-07-06T14:14:45Z</time>
        <sat>9</sat>
      </trkpt>
      <trkpt lat="43.580797" lon="11.074207">
        <ele>139.0</ele>
        <time>2016-07-06T14:14:46Z</time>
        <sat>9</sat>
      </trkpt>
      <trkpt lat="43.580715" lon="11.074111">
        <ele>138.5</ele>
        <time>2016-07-06T14:14:47Z</time>
        <sat>9</sat>
      </trkpt>
      <trkpt lat="43.580639" lon="11.073999">
        <ele>138.3</ele>
        <time>2016-07-06T14:14:48Z</time>
        <sat>9</sat>
      </trkpt>
      <trkpt lat="43.580564" lon="11.073865">
        <ele>138.2</ele>
        <time>2016-07-06T14:14:49Z</time>
        <sat>9</sat>
      </trkpt>
      <trkpt lat="43.580493" lon="11.073720">
        <ele>138.3</ele>
        <time>2016-07-06T14:14:50Z</time>
        <sat>9</sat>
      </trkpt>
      <trkpt lat="43.580424" lon="11.073578">
        <ele>138.4</ele>
        <time>2016-07-06T14:14:51Z</time>
        <sat>9</sat>
      </trkpt>
      <trkpt lat="43.580359" lon="11.073443">
        <ele>138.8</ele>
        <time>2016-07-06T14:14:52Z</time>
        <sat>9</sat>
      </trkpt>
      <trkpt lat="43.580296" lon="11.073310">
        <ele>139.2</ele>
        <time>2016-07-06T14:14:53Z</time>
        <sat>8</sat>
      </trkpt>
      <trkpt lat="43.580234" lon="11.073168">
        <ele>139.8</ele>
        <time>2016-07-06T14:14:54Z</time>
        <sat>9</sat>
      </trkpt>
      <trkpt lat="43.580177" lon="11.073018">
        <ele>140.4</ele>
        <time>2016-07-06T14:14:55Z</time>
        <sat>9</sat>
      </trkpt>
      <trkpt lat="43.580130" lon="11.072859">
        <ele>141.1</ele>
        <time>2016-07-06T14:14:56Z</time>
        <sat>9</sat>
      </trkpt>
      <trkpt lat="43.580076" lon="11.072714">
        <ele>141.7</ele>
        <time>2016-07-06T14:14:57Z</time>
        <sat>9</sat>
      </trkpt>
      <trkpt lat="43.580019" lon="11.072586">
        <ele>141.7</ele>
        <time>2016-07-06T14:14:58Z</time>
        <sat>9</sat>
      </trkpt>
      <trkpt lat="43.579968" lon="11.072472">
        <ele>141.9</ele>
        <time>2016-07-06T14:14:59Z</time>
        <sat>9</sat>
      </trkpt>
      <trkpt lat="43.579911" lon="11.072369">
        <ele>142.7</ele>
        <time>2016-07-06T14:15:00Z</time>
        <sat>9</sat>
      </trkpt>
      <trkpt lat="43.579799" lon="11.072191">
        <ele>141.8</ele>
        <time>2016-07-06T14:15:02Z</time>
        <sat>9</sat>
      </trkpt>
      <trkpt lat="43.579736" lon="11.072100">
        <ele>141.4</ele>
        <time>2016-07-06T14:15:03Z</time>
        <sat>9</sat>
      </trkpt>
      <trkpt lat="43.579677" lon="11.072001">
        <ele>141.2</ele>
        <time>2016-07-06T14:15:04Z</time>
        <sat>9</sat>
      </trkpt>
      <trkpt lat="43.579589" lon="11.071823">
        <ele>140.5</ele>
        <time>2016-07-06T14:15:06Z</time>
        <sat>9</sat>
      </trkpt>
      <trkpt lat="43.579515" lon="11.071658">
        <ele>140.1</ele>
        <time>2016-07-06T14:15:08Z</time>
        <sat>8</sat>
      </trkpt>
      <trkpt lat="43.579418" lon="11.071499">
        <ele>139.7</ele>
        <time>2016-07-06T14:15:10Z</time>
        <sat>9</sat>
      </trkpt>
      <trkpt lat="43.579334" lon="11.071344">
        <ele>138.5</ele>
        <time>2016-07-06T14:15:12Z</time>
        <sat>9</sat>
      </trkpt>
      <trkpt lat="43.579231" lon="11.071257">
        <ele>137.0</ele>
        <time>2016-07-06T14:15:14Z</time>
        <sat>9</sat>
      </trkpt>
      <trkpt lat="43.579089" lon="11.071219">
        <ele>134.5</ele>
        <time>2016-07-06T14:15:16Z</time>
        <sat>9</sat>
      </trkpt>
      <trkpt lat="43.578982" lon="11.071220">
        <ele>133.8</ele>
        <time>2016-07-06T14:15:17Z</time>
        <sat>8</sat>
      </trkpt>
      <trkpt lat="43.578864" lon="11.071214">
        <ele>134.7</ele>
        <time>2016-07-06T14:15:18Z</time>
        <sat>8</sat>
      </trkpt>
      <trkpt lat="43.578749" lon="11.071196">
        <ele>135.1</ele>
        <time>2016-07-06T14:15:19Z</time>
        <sat>9</sat>
      </trkpt>
      <trkpt lat="43.578646" lon="11.071169">
        <ele>135.4</ele>
        <time>2016-07-06T14:15:20Z</time>
        <sat>9</sat>
      </trkpt>
      <trkpt lat="43.578554" lon="11.071139">
        <ele>135.5</ele>
        <time>2016-07-06T14:15:21Z</time>
        <sat>9</sat>
      </trkpt>
      <trkpt lat="43.578394" lon="11.071087">
        <ele>135.8</ele>
        <time>2016-07-06T14:15:23Z</time>
        <sat>9</sat>
      </trkpt>
      <trkpt lat="43.578248" lon="11.071108">
        <ele>136.6</ele>
        <time>2016-07-06T14:15:25Z</time>
        <sat>8</sat>
      </trkpt>
      <trkpt lat="43.578029" lon="11.071049">
        <ele>140.3</ele>
        <time>2016-07-06T14:15:29Z</time>
        <sat>8</sat>
      </trkpt>
      <trkpt lat="43.577944" lon="11.071006">
        <ele>140.5</ele>
        <time>2016-07-06T14:15:33Z</time>
        <sat>9</sat>
      </trkpt>
      <trkpt lat="43.577869" lon="11.071093">
        <ele>141.1</ele>
        <time>2016-07-06T14:16:02Z</time>
        <sat>9</sat>
      </trkpt>
      <trkpt lat="43.577772" lon="11.071060">
        <ele>139.9</ele>
        <time>2016-07-06T14:16:07Z</time>
        <sat>9</sat>
      </trkpt>
      <trkpt lat="43.577704" lon="11.070975">
        <ele>139.0</ele>
        <time>2016-07-06T14:16:12Z</time>
        <sat>9</sat>
      </trkpt>
      <trkpt lat="43.577802" lon="11.070959">
        <ele>146.1</ele>
        <time>2016-07-06T14:29:23Z</time>
        <sat>8</sat>
      </trkpt>
      <trkpt lat="43.578051" lon="11.070972">
        <ele>141.3</ele>
        <time>2016-07-06T14:29:28Z</time>
        <sat>7</sat>
      </trkpt>
      <trkpt lat="43.578166" lon="11.071004">
        <ele>137.4</ele>
        <time>2016-07-06T14:29:30Z</time>
        <sat>9</sat>
      </trkpt>
      <trkpt lat="43.578286" lon="11.070990">
        <ele>134.2</ele>
        <time>2016-07-06T14:29:32Z</time>
        <sat>9</sat>
      </trkpt>
      <trkpt lat="43.578478" lon="11.071034">
        <ele>136.3</ele>
        <time>2016-07-06T14:29:34Z</time>
        <sat>9</sat>
      </trkpt>
      <trkpt lat="43.578601" lon="11.071074">
        <ele>134.9</ele>
        <time>2016-07-06T14:29:35Z</time>
        <sat>9</sat>
      </trkpt>
      <trkpt lat="43.578714" lon="11.071100">
        <ele>134.6</ele>
        <time>2016-07-06T14:29:36Z</time>
        <sat>9</sat>
      </trkpt>
      <trkpt lat="43.578837" lon="11.071128">
        <ele>134.5</ele>
        <time>2016-07-06T14:29:38Z</time>
        <sat>9</sat>
      </trkpt>
      <trkpt lat="43.578900" lon="11.071223">
        <ele>134.3</ele>
        <time>2016-07-06T14:29:44Z</time>
        <sat>9</sat>
      </trkpt>
      <trkpt lat="43.578767" lon="11.071276">
        <ele>132.5</ele>
        <time>2016-07-06T14:29:47Z</time>
        <sat>8</sat>
      </trkpt>
      <trkpt lat="43.578610" lon="11.071325">
        <ele>130.4</ele>
        <time>2016-07-06T14:29:49Z</time>
        <sat>9</sat>
      </trkpt>
      <trkpt lat="43.578451" lon="11.071434">
        <ele>128.8</ele>
        <time>2016-07-06T14:29:51Z</time>
        <sat>8</sat>
      </trkpt>
      <trkpt lat="43.578328" lon="11.071597">
        <ele>127.5</ele>
        <time>2016-07-06T14:29:53Z</time>
        <sat>8</sat>
      </trkpt>
      <trkpt lat="43.578216" lon="11.071765">
        <ele>127.4</ele>
        <time>2016-07-06T14:29:55Z</time>
        <sat>9</sat>
      </trkpt>
      <trkpt lat="43.578126" lon="11.071952">
        <ele>125.2</ele>
        <time>2016-07-06T14:29:57Z</time>
        <sat>8</sat>
      </trkpt>
      <trkpt lat="43.578085" lon="11.072111">
        <ele>122.1</ele>
        <time>2016-07-06T14:29:59Z</time>
        <sat>7</sat>
      </trkpt>
      <trkpt lat="43.578046" lon="11.072346">
        <ele>118.8</ele>
        <time>2016-07-06T14:30:01Z</time>
        <sat>8</sat>
      </trkpt>
      <trkpt lat="43.578011" lon="11.072560">
        <ele>116.9</ele>
        <time>2016-07-06T14:30:03Z</time>
        <sat>8</sat>
      </trkpt>
      <trkpt lat="43.577963" lon="11.072732">
        <ele>115.3</ele>
        <time>2016-07-06T14:30:05Z</time>
        <sat>8</sat>
      </trkpt>
      <trkpt lat="43.577882" lon="11.072853">
        <ele>112.6</ele>
        <time>2016-07-06T14:30:07Z</time>
        <sat>8</sat>
      </trkpt>
      <trkpt lat="43.577783" lon="11.072975">
        <ele>109.6</ele>
        <time>2016-07-06T14:30:09Z</time>
        <sat>8</sat>
      </trkpt>
      <trkpt lat="43.577679" lon="11.073113">
        <ele>106.5</ele>
        <time>2016-07-06T14:30:11Z</time>
        <sat>8</sat>
      </trkpt>
      <trkpt lat="43.577579" lon="11.073251">
        <ele>103.9</ele>
        <time>2016-07-06T14:30:13Z</time>
        <sat>6</sat>
      </trkpt>
      <trkpt lat="43.577472" lon="11.073321">
        <ele>102.0</ele>
        <time>2016-07-06T14:30:15Z</time>
        <sat>8</sat>
      </trkpt>
      <trkpt lat="43.577382" lon="11.073350">
        <ele>101.0</ele>
        <time>2016-07-06T14:30:17Z</time>
        <sat>9</sat>
      </trkpt>
      <trkpt lat="43.577269" lon="11.073348">
        <ele>98.7</ele>
        <time>2016-07-06T14:30:21Z</time>
        <sat>9</sat>
      </trkpt>
      <trkpt lat="43.577170" lon="11.073268">
        <ele>96.8</ele>
        <time>2016-07-06T14:30:24Z</time>
        <sat>9</sat>
      </trkpt>
      <trkpt lat="43.577066" lon="11.073139">
        <ele>95.7</ele>
        <time>2016-07-06T14:30:26Z</time>
        <sat>9</sat>
      </trkpt>
      <trkpt lat="43.576879" lon="11.072866">
        <ele>92.6</ele>
        <time>2016-07-06T14:30:30Z</time>
        <sat>9</sat>
      </trkpt>
      <trkpt lat="43.576817" lon="11.072744">
        <ele>91.9</ele>
        <time>2016-07-06T14:30:32Z</time>
        <sat>8</sat>
      </trkpt>
      <trkpt lat="43.576780" lon="11.072613">
        <ele>91.8</ele>
        <time>2016-07-06T14:30:34Z</time>
        <sat>8</sat>
      </trkpt>
      <trkpt lat="43.576749" lon="11.072480">
        <ele>90.9</ele>
        <time>2016-07-06T14:30:36Z</time>
        <sat>8</sat>
      </trkpt>
      <trkpt lat="43.576629" lon="11.072449">
        <ele>89.9</ele>
        <time>2016-07-06T14:30:39Z</time>
        <sat>8</sat>
      </trkpt>
      <trkpt lat="43.576524" lon="11.072489">
        <ele>88.7</ele>
        <time>2016-07-06T14:30:43Z</time>
        <sat>8</sat>
      </trkpt>
      <trkpt lat="43.576449" lon="11.072595">
        <ele>86.4</ele>
        <time>2016-07-06T14:30:47Z</time>
        <sat>6</sat>
      </trkpt>
      <trkpt lat="43.576398" lon="11.072702">
        <ele>86.1</ele>
        <time>2016-07-06T14:30:49Z</time>
        <sat>6</sat>
      </trkpt>
      <trkpt lat="43.576292" lon="11.072767">
        <ele>85.5</ele>
        <time>2016-07-06T14:30:51Z</time>
        <sat>6</sat>
      </trkpt>
      <trkpt lat="43.576203" lon="11.072807">
        <ele>85.7</ele>
        <time>2016-07-06T14:30:53Z</time>
        <sat>6</sat>
      </trkpt>
      <trkpt lat="43.576101" lon="11.072827">
        <ele>84.5</ele>
        <time>2016-07-06T14:30:56Z</time>
        <sat>6</sat>
      </trkpt>
      <trkpt lat="43.576029" lon="11.072931">
        <ele>82.7</ele>
        <time>2016-07-06T14:31:00Z</time>
        <sat>6</sat>
      </trkpt>
      <trkpt lat="43.576057" lon="11.073110">
        <ele>84.0</ele>
        <time>2016-07-06T14:31:02Z</time>
        <sat>7</sat>
      </trkpt>
      <trkpt lat="43.576041" lon="11.073319">
        <ele>84.8</ele>
        <time>2016-07-06T14:31:04Z</time>
        <sat>6</sat>
      </trkpt>
      <trkpt lat="43.576013" lon="11.073443">
        <ele>85.0</ele>
        <time>2016-07-06T14:31:05Z</time>
        <sat>7</sat>
      </trkpt>
      <trkpt lat="43.575967" lon="11.073675">
        <ele>86.4</ele>
        <time>2016-07-06T14:31:07Z</time>
        <sat>7</sat>
      </trkpt>
      <trkpt lat="43.575886" lon="11.073865">
        <ele>85.9</ele>
        <time>2016-07-06T14:31:09Z</time>
        <sat>7</sat>
      </trkpt>
      <trkpt lat="43.575840" lon="11.073972">
        <ele>86.6</ele>
        <time>2016-07-06T14:31:10Z</time>
        <sat>7</sat>
      </trkpt>
      <trkpt lat="43.575770" lon="11.074081">
        <ele>87.4</ele>
        <time>2016-07-06T14:31:11Z</time>
        <sat>7</sat>
      </trkpt>
      <trkpt lat="43.575707" lon="11.074178">
        <ele>88.3</ele>
        <time>2016-07-06T14:31:12Z</time>
        <sat>6</sat>
      </trkpt>
      <trkpt lat="43.575606" lon="11.074352">
        <ele>89.5</ele>
        <time>2016-07-06T14:31:14Z</time>
        <sat>6</sat>
      </trkpt>
      <trkpt lat="43.575513" lon="11.074536">
        <ele>89.6</ele>
        <time>2016-07-06T14:31:16Z</time>
        <sat>6</sat>
      </trkpt>
      <trkpt lat="43.575466" lon="11.074658">
        <ele>90.2</ele>
        <time>2016-07-06T14:31:17Z</time>
        <sat>7</sat>
      </trkpt>
      <trkpt lat="43.575331" lon="11.075001">
        <ele>91.0</ele>
        <time>2016-07-06T14:31:20Z</time>
        <sat>4</sat>
      </trkpt>
      <trkpt lat="43.575257" lon="11.075177">
        <ele>92.5</ele>
        <time>2016-07-06T14:31:23Z</time>
        <sat>8</sat>
      </trkpt>
      <trkpt lat="43.575135" lon="11.075285">
        <ele>92.7</ele>
        <time>2016-07-06T14:31:25Z</time>
        <sat>8</sat>
      </trkpt>
      <trkpt lat="43.575011" lon="11.075453">
        <ele>96.1</ele>
        <time>2016-07-06T14:31:27Z</time>
        <sat>9</sat>
      </trkpt>
      <trkpt lat="43.574798" lon="11.075702">
        <ele>100.3</ele>
        <time>2016-07-06T14:31:31Z</time>
        <sat>9</sat>
      </trkpt>
      <trkpt lat="43.574705" lon="11.075731">
        <ele>98.7</ele>
        <time>2016-07-06T14:31:35Z</time>
        <sat>9</sat>
      </trkpt>
      <trkpt lat="43.574604" lon="11.075736">
        <ele>97.8</ele>
        <time>2016-07-06T14:32:32Z</time>
        <sat>9</sat>
      </trkpt>
      <trkpt lat="43.574283" lon="11.075810">
        <ele>94.6</ele>
        <time>2016-07-06T14:32:36Z</time>
        <sat>9</sat>
      </trkpt>
      <trkpt lat="43.574142" lon="11.075834">
        <ele>92.0</ele>
        <time>2016-07-06T14:32:38Z</time>
        <sat>9</sat>
      </trkpt>
      <trkpt lat="43.574039" lon="11.075848">
        <ele>88.8</ele>
        <time>2016-07-06T14:32:40Z</time>
        <sat>9</sat>
      </trkpt>
      <trkpt lat="43.573902" lon="11.075866">
        <ele>85.0</ele>
        <time>2016-07-06T14:32:43Z</time>
        <sat>9</sat>
      </trkpt>
      <trkpt lat="43.573796" lon="11.075892">
        <ele>81.5</ele>
        <time>2016-07-06T14:32:45Z</time>
        <sat>9</sat>
      </trkpt>
      <trkpt lat="43.573698" lon="11.075920">
        <ele>78.9</ele>
        <time>2016-07-06T14:32:47Z</time>
        <sat>9</sat>
      </trkpt>
      <trkpt lat="43.573600" lon="11.075944">
        <ele>76.6</ele>
        <time>2016-07-06T14:32:49Z</time>
        <sat>9</sat>
      </trkpt>
      <trkpt lat="43.573467" lon="11.075967">
        <ele>73.3</ele>
        <time>2016-07-06T14:32:52Z</time>
        <sat>9</sat>
      </trkpt>
      <trkpt lat="43.573373" lon="11.075980">
        <ele>71.0</ele>
        <time>2016-07-06T14:32:54Z</time>
        <sat>9</sat>
      </trkpt>
      <trkpt lat="43.573278" lon="11.075971">
        <ele>69.3</ele>
        <time>2016-07-06T14:32:57Z</time>
        <sat>9</sat>
      </trkpt>
      <trkpt lat="43.573185" lon="11.075968">
        <ele>67.7</ele>
        <time>2016-07-06T14:33:05Z</time>
        <sat>9</sat>
      </trkpt>
      <trkpt lat="43.573066" lon="11.075978">
        <ele>64.7</ele>
        <time>2016-07-06T14:33:10Z</time>
        <sat>9</sat>
      </trkpt>
      <trkpt lat="43.572964" lon="11.075996">
        <ele>62.2</ele>
        <time>2016-07-06T14:33:13Z</time>
        <sat>9</sat>
      </trkpt>
      <trkpt lat="43.572872" lon="11.076025">
        <ele>60.9</ele>
        <time>2016-07-06T14:33:15Z</time>
        <sat>9</sat>
      </trkpt>
      <trkpt lat="43.572781" lon="11.076049">
        <ele>59.8</ele>
        <time>2016-07-06T14:33:17Z</time>
        <sat>9</sat>
      </trkpt>
      <trkpt lat="43.572656" lon="11.076083">
        <ele>57.6</ele>
        <time>2016-07-06T14:33:20Z</time>
        <sat>9</sat>
      </trkpt>
      <trkpt lat="43.572562" lon="11.076113">
        <ele>55.3</ele>
        <time>2016-07-06T14:33:23Z</time>
        <sat>7</sat>
      </trkpt>
      <trkpt lat="43.572453" lon="11.076137">
        <ele>53.8</ele>
        <time>2016-07-06T14:33:26Z</time>
        <sat>9</sat>
      </trkpt>
      <trkpt lat="43.572360" lon="11.076134">
        <ele>52.4</ele>
        <time>2016-07-06T14:33:41Z</time>
        <sat>9</sat>
      </trkpt>
      <trkpt lat="43.572472" lon="11.076351">
        <ele>54.5</ele>
        <time>2016-07-06T14:33:54Z</time>
        <sat>8</sat>
      </trkpt>
      <trkpt lat="43.572533" lon="11.076478">
        <ele>56.7</ele>
        <time>2016-07-06T14:33:57Z</time>
        <sat>8</sat>
      </trkpt>
      <trkpt lat="43.572554" lon="11.076635">
        <ele>56.9</ele>
        <time>2016-07-06T14:34:00Z</time>
        <sat>8</sat>
      </trkpt>
      <trkpt lat="43.572537" lon="11.076783">
        <ele>57.1</ele>
        <time>2016-07-06T14:34:03Z</time>
        <sat>7</sat>
      </trkpt>
      <trkpt lat="43.572587" lon="11.076907">
        <ele>58.2</ele>
        <time>2016-07-06T14:34:07Z</time>
        <sat>8</sat>
      </trkpt>
      <trkpt lat="43.572662" lon="11.076993">
        <ele>59.6</ele>
        <time>2016-07-06T14:34:13Z</time>
        <sat>9</sat>
      </trkpt>
      <trkpt lat="43.572751" lon="11.076973">
        <ele>58.2</ele>
        <time>2016-07-06T14:35:22Z</time>
        <sat>9</sat>
      </trkpt>
      <trkpt lat="43.572919" lon="11.077076">
        <ele>58.9</ele>
        <time>2016-07-06T14:35:33Z</time>
        <sat>9</sat>
      </trkpt>
      <trkpt lat="43.573016" lon="11.077119">
        <ele>58.4</ele>
        <time>2016-07-06T14:35:38Z</time>
        <sat>9</sat>
      </trkpt>
      <trkpt lat="43.573143" lon="11.077194">
        <ele>58.6</ele>
        <time>2016-07-06T14:35:43Z</time>
        <sat>9</sat>
      </trkpt>
      <trkpt lat="43.573211" lon="11.077306">
        <ele>59.1</ele>
        <time>2016-07-06T14:35:53Z</time>
        <sat>9</sat>
      </trkpt>
      <trkpt lat="43.573315" lon="11.077349">
        <ele>59.7</ele>
        <time>2016-07-06T14:35:57Z</time>
        <sat>9</sat>
      </trkpt>
      <trkpt lat="43.573428" lon="11.077362">
        <ele>59.6</ele>
        <time>2016-07-06T14:36:00Z</time>
        <sat>9</sat>
      </trkpt>
      <trkpt lat="43.573527" lon="11.077405">
        <ele>59.4</ele>
        <time>2016-07-06T14:36:03Z</time>
        <sat>9</sat>
      </trkpt>
      <trkpt lat="43.573612" lon="11.077466">
        <ele>59.4</ele>
        <time>2016-07-06T14:36:09Z</time>
        <sat>9</sat>
      </trkpt>
      <trkpt lat="43.573699" lon="11.077521">
        <ele>58.8</ele>
        <time>2016-07-06T14:36:13Z</time>
        <sat>8</sat>
      </trkpt>
      <trkpt lat="43.573801" lon="11.077582">
        <ele>58.8</ele>
        <time>2016-07-06T14:36:18Z</time>
        <sat>9</sat>
      </trkpt>
      <trkpt lat="43.573877" lon="11.077673">
        <ele>58.3</ele>
        <time>2016-07-06T14:36:22Z</time>
        <sat>9</sat>
      </trkpt>
      <trkpt lat="43.573945" lon="11.077756">
        <ele>58.0</ele>
        <time>2016-07-06T14:36:26Z</time>
        <sat>9</sat>
      </trkpt>
      <trkpt lat="43.574100" lon="11.077917">
        <ele>57.4</ele>
        <time>2016-07-06T14:36:35Z</time>
        <sat>8</sat>
      </trkpt>
      <trkpt lat="43.574188" lon="11.077976">
        <ele>56.7</ele>
        <time>2016-07-06T14:36:40Z</time>
        <sat>9</sat>
      </trkpt>
      <trkpt lat="43.574267" lon="11.078050">
        <ele>56.0</ele>
        <time>2016-07-06T14:36:44Z</time>
        <sat>9</sat>
      </trkpt>
      <trkpt lat="43.574326" lon="11.078166">
        <ele>55.8</ele>
        <time>2016-07-06T14:36:50Z</time>
        <sat>9</sat>
      </trkpt>
      <trkpt lat="43.574237" lon="11.078233">
        <ele>55.7</ele>
        <time>2016-07-06T14:36:54Z</time>
        <sat>9</sat>
      </trkpt>
      <trkpt lat="43.574119" lon="11.078157">
        <ele>56.1</ele>
        <time>2016-07-06T14:36:56Z</time>
        <sat>9</sat>
      </trkpt>
      <trkpt lat="43.573984" lon="11.078047">
        <ele>56.4</ele>
        <time>2016-07-06T14:36:58Z</time>
        <sat>9</sat>
      </trkpt>
      <trkpt lat="43.573857" lon="11.077921">
        <ele>56.8</ele>
        <time>2016-07-06T14:37:00Z</time>
        <sat>9</sat>
      </trkpt>
      <trkpt lat="43.573724" lon="11.077791">
        <ele>56.9</ele>
        <time>2016-07-06T14:37:02Z</time>
        <sat>8</sat>
      </trkpt>
      <trkpt lat="43.573564" lon="11.077683">
        <ele>57.4</ele>
        <time>2016-07-06T14:37:04Z</time>
        <sat>9</sat>
      </trkpt>
      <trkpt lat="43.573468" lon="11.077649">
        <ele>57.5</ele>
        <time>2016-07-06T14:37:05Z</time>
        <sat>9</sat>
      </trkpt>
      <trkpt lat="43.573364" lon="11.077629">
        <ele>57.6</ele>
        <time>2016-07-06T14:37:06Z</time>
        <sat>9</sat>
      </trkpt>
      <trkpt lat="43.573254" lon="11.077614">
        <ele>57.6</ele>
        <time>2016-07-06T14:37:07Z</time>
        <sat>9</sat>
      </trkpt>
      <trkpt lat="43.573143" lon="11.077599">
        <ele>57.6</ele>
        <time>2016-07-06T14:37:08Z</time>
        <sat>9</sat>
      </trkpt>
      <trkpt lat="43.573028" lon="11.077583">
        <ele>57.3</ele>
        <time>2016-07-06T14:37:09Z</time>
        <sat>9</sat>
      </trkpt>
      <trkpt lat="43.572904" lon="11.077569">
        <ele>56.9</ele>
        <time>2016-07-06T14:37:10Z</time>
        <sat>9</sat>
      </trkpt>
      <trkpt lat="43.572777" lon="11.077555">
        <ele>56.5</ele>
        <time>2016-07-06T14:37:11Z</time>
        <sat>9</sat>
      </trkpt>
      <trkpt lat="43.572657" lon="11.077538">
        <ele>56.1</ele>
        <time>2016-07-06T14:37:12Z</time>
        <sat>9</sat>
      </trkpt>
      <trkpt lat="43.572542" lon="11.077523">
        <ele>55.7</ele>
        <time>2016-07-06T14:37:13Z</time>
        <sat>9</sat>
      </trkpt>
      <trkpt lat="43.572434" lon="11.077511">
        <ele>55.4</ele>
        <time>2016-07-06T14:37:14Z</time>
        <sat>9</sat>
      </trkpt>
      <trkpt lat="43.572335" lon="11.077503">
        <ele>55.2</ele>
        <time>2016-07-06T14:37:15Z</time>
        <sat>8</sat>
      </trkpt>
      <trkpt lat="43.572245" lon="11.077498">
        <ele>54.9</ele>
        <time>2016-07-06T14:37:16Z</time>
        <sat>9</sat>
      </trkpt>
      <trkpt lat="43.572075" lon="11.077483">
        <ele>54.6</ele>
        <time>2016-07-06T14:37:18Z</time>
        <sat>9</sat>
      </trkpt>
      <trkpt lat="43.571983" lon="11.077474">
        <ele>54.3</ele>
        <time>2016-07-06T14:37:19Z</time>
        <sat>9</sat>
      </trkpt>
      <trkpt lat="43.571885" lon="11.077463">
        <ele>54.1</ele>
        <time>2016-07-06T14:37:20Z</time>
        <sat>9</sat>
      </trkpt>
      <trkpt lat="43.571783" lon="11.077448">
        <ele>53.9</ele>
        <time>2016-07-06T14:37:21Z</time>
        <sat>9</sat>
      </trkpt>
      <trkpt lat="43.571674" lon="11.077430">
        <ele>53.9</ele>
        <time>2016-07-06T14:37:22Z</time>
        <sat>9</sat>
      </trkpt>
      <trkpt lat="43.571562" lon="11.077406">
        <ele>54.1</ele>
        <time>2016-07-06T14:37:23Z</time>
        <sat>9</sat>
      </trkpt>
      <trkpt lat="43.571450" lon="11.077365">
        <ele>54.1</ele>
        <time>2016-07-06T14:37:24Z</time>
        <sat>9</sat>
      </trkpt>
      <trkpt lat="43.571345" lon="11.077307">
        <ele>54.0</ele>
        <time>2016-07-06T14:37:25Z</time>
        <sat>8</sat>
      </trkpt>
      <trkpt lat="43.571250" lon="11.077242">
        <ele>53.8</ele>
        <time>2016-07-06T14:37:26Z</time>
        <sat>9</sat>
      </trkpt>
      <trkpt lat="43.571164" lon="11.077186">
        <ele>53.6</ele>
        <time>2016-07-06T14:37:27Z</time>
        <sat>9</sat>
      </trkpt>
      <trkpt lat="43.570957" lon="11.077070">
        <ele>53.2</ele>
        <time>2016-07-06T14:37:44Z</time>
        <sat>9</sat>
      </trkpt>
      <trkpt lat="43.570818" lon="11.077059">
        <ele>52.6</ele>
        <time>2016-07-06T14:37:46Z</time>
        <sat>9</sat>
      </trkpt>
      <trkpt lat="43.570689" lon="11.077051">
        <ele>52.3</ele>
        <time>2016-07-06T14:37:48Z</time>
        <sat>9</sat>
      </trkpt>
      <trkpt lat="43.570581" lon="11.077045">
        <ele>52.1</ele>
        <time>2016-07-06T14:37:50Z</time>
        <sat>9</sat>
      </trkpt>
      <trkpt lat="43.570454" lon="11.077037">
        <ele>51.9</ele>
        <time>2016-07-06T14:37:52Z</time>
        <sat>9</sat>
      </trkpt>
      <trkpt lat="43.570322" lon="11.077014">
        <ele>51.7</ele>
        <time>2016-07-06T14:37:54Z</time>
        <sat>9</sat>
      </trkpt>
      <trkpt lat="43.570169" lon="11.076946">
        <ele>51.7</ele>
        <time>2016-07-06T14:37:56Z</time>
        <sat>9</sat>
      </trkpt>
      <trkpt lat="43.570032" lon="11.076826">
        <ele>52.2</ele>
        <time>2016-07-06T14:37:58Z</time>
        <sat>9</sat>
      </trkpt>
      <trkpt lat="43.569952" lon="11.076749">
        <ele>52.4</ele>
        <time>2016-07-06T14:37:59Z</time>
        <sat>8</sat>
      </trkpt>
      <trkpt lat="43.569868" lon="11.076661">
        <ele>53.1</ele>
        <time>2016-07-06T14:38:00Z</time>
        <sat>9</sat>
      </trkpt>
      <trkpt lat="43.569783" lon="11.076566">
        <ele>53.7</ele>
        <time>2016-07-06T14:38:01Z</time>
        <sat>9</sat>
      </trkpt>
      <trkpt lat="43.569707" lon="11.076472">
        <ele>54.3</ele>
        <time>2016-07-06T14:38:02Z</time>
        <sat>9</sat>
      </trkpt>
      <trkpt lat="43.569640" lon="11.076388">
        <ele>54.8</ele>
        <time>2016-07-06T14:38:03Z</time>
        <sat>9</sat>
      </trkpt>
      <trkpt lat="43.569572" lon="11.076301">
        <ele>55.4</ele>
        <time>2016-07-06T14:38:04Z</time>
        <sat>9</sat>
      </trkpt>
      <trkpt lat="43.569504" lon="11.076211">
        <ele>55.7</ele>
        <time>2016-07-06T14:38:05Z</time>
        <sat>9</sat>
      </trkpt>
      <trkpt lat="43.569436" lon="11.076115">
        <ele>56.2</ele>
        <time>2016-07-06T14:38:06Z</time>
        <sat>9</sat>
      </trkpt>
      <trkpt lat="43.569362" lon="11.076011">
        <ele>56.7</ele>
        <time>2016-07-06T14:38:07Z</time>
        <sat>9</sat>
      </trkpt>
      <trkpt lat="43.569279" lon="11.075900">
        <ele>57.2</ele>
        <time>2016-07-06T14:38:08Z</time>
        <sat>9</sat>
      </trkpt>
      <trkpt lat="43.569200" lon="11.075792">
        <ele>57.8</ele>
        <time>2016-07-06T14:38:09Z</time>
        <sat>9</sat>
      </trkpt>
      <trkpt lat="43.569130" lon="11.075691">
        <ele>58.6</ele>
        <time>2016-07-06T14:38:10Z</time>
        <sat>9</sat>
      </trkpt>
      <trkpt lat="43.569068" lon="11.075583">
        <ele>59.3</ele>
        <time>2016-07-06T14:38:11Z</time>
        <sat>9</sat>
      </trkpt>
      <trkpt lat="43.569016" lon="11.075459">
        <ele>59.9</ele>
        <time>2016-07-06T14:38:12Z</time>
        <sat>9</sat>
      </trkpt>
      <trkpt lat="43.568967" lon="11.075320">
        <ele>60.5</ele>
        <time>2016-07-06T14:38:13Z</time>
        <sat>9</sat>
      </trkpt>
      <trkpt lat="43.568919" lon="11.075181">
        <ele>60.1</ele>
        <time>2016-07-06T14:38:14Z</time>
        <sat>9</sat>
      </trkpt>
      <trkpt lat="43.568874" lon="11.075053">
        <ele>60.1</ele>
        <time>2016-07-06T14:38:15Z</time>
        <sat>9</sat>
      </trkpt>
      <trkpt lat="43.568829" lon="11.074933">
        <ele>60.0</ele>
        <time>2016-07-06T14:38:16Z</time>
        <sat>9</sat>
      </trkpt>
      <trkpt lat="43.568778" lon="11.074808">
        <ele>59.1</ele>
        <time>2016-07-06T14:38:17Z</time>
        <sat>9</sat>
      </trkpt>
      <trkpt lat="43.568718" lon="11.074687">
        <ele>58.6</ele>
        <time>2016-07-06T14:38:18Z</time>
        <sat>9</sat>
      </trkpt>
      <trkpt lat="43.568645" lon="11.074575">
        <ele>57.9</ele>
        <time>2016-07-06T14:38:19Z</time>
        <sat>9</sat>
      </trkpt>
      <trkpt lat="43.568563" lon="11.074472">
        <ele>57.3</ele>
        <time>2016-07-06T14:38:20Z</time>
        <sat>8</sat>
      </trkpt>
      <trkpt lat="43.568481" lon="11.074378">
        <ele>56.7</ele>
        <time>2016-07-06T14:38:21Z</time>
        <sat>9</sat>
      </trkpt>
      <trkpt lat="43.568401" lon="11.074287">
        <ele>56.0</ele>
        <time>2016-07-06T14:38:22Z</time>
        <sat>9</sat>
      </trkpt>
      <trkpt lat="43.568316" lon="11.074196">
        <ele>55.2</ele>
        <time>2016-07-06T14:38:23Z</time>
        <sat>9</sat>
      </trkpt>
      <trkpt lat="43.568225" lon="11.074103">
        <ele>54.4</ele>
        <time>2016-07-06T14:38:24Z</time>
        <sat>9</sat>
      </trkpt>
      <trkpt lat="43.568134" lon="11.074012">
        <ele>53.7</ele>
        <time>2016-07-06T14:38:25Z</time>
        <sat>9</sat>
      </trkpt>
      <trkpt lat="43.568049" lon="11.073927">
        <ele>53.0</ele>
        <time>2016-07-06T14:38:26Z</time>
        <sat>9</sat>
      </trkpt>
      <trkpt lat="43.567917" lon="11.073816">
        <ele>52.0</ele>
        <time>2016-07-06T14:38:28Z</time>
        <sat>9</sat>
      </trkpt>
      <trkpt lat="43.567726" lon="11.073785">
        <ele>52.1</ele>
        <time>2016-07-06T14:40:33Z</time>
        <sat>8</sat>
      </trkpt>
      <trkpt lat="43.567497" lon="11.073816">
        <ele>52.3</ele>
        <time>2016-07-06T14:40:36Z</time>
        <sat>8</sat>
      </trkpt>
      <trkpt lat="43.567389" lon="11.073824">
        <ele>52.4</ele>
        <time>2016-07-06T14:40:37Z</time>
        <sat>8</sat>
      </trkpt>
      <trkpt lat="43.567265" lon="11.073828">
        <ele>52.7</ele>
        <time>2016-07-06T14:40:38Z</time>
        <sat>8</sat>
      </trkpt>
      <trkpt lat="43.567120" lon="11.073827">
        <ele>52.9</ele>
        <time>2016-07-06T14:40:39Z</time>
        <sat>8</sat>
      </trkpt>
      <trkpt lat="43.566954" lon="11.073812">
        <ele>53.2</ele>
        <time>2016-07-06T14:40:40Z</time>
        <sat>8</sat>
      </trkpt>
      <trkpt lat="43.566789" lon="11.073777">
        <ele>53.5</ele>
        <time>2016-07-06T14:40:41Z</time>
        <sat>8</sat>
      </trkpt>
      <trkpt lat="43.566639" lon="11.073732">
        <ele>53.9</ele>
        <time>2016-07-06T14:40:42Z</time>
        <sat>8</sat>
      </trkpt>
      <trkpt lat="43.566498" lon="11.073688">
        <ele>54.4</ele>
        <time>2016-07-06T14:40:43Z</time>
        <sat>8</sat>
      </trkpt>
      <trkpt lat="43.566358" lon="11.073641">
        <ele>54.9</ele>
        <time>2016-07-06T14:40:44Z</time>
        <sat>8</sat>
      </trkpt>
      <trkpt lat="43.566217" lon="11.073594">
        <ele>55.3</ele>
        <time>2016-07-06T14:40:45Z</time>
        <sat>7</sat>
      </trkpt>
      <trkpt lat="43.566079" lon="11.073545">
        <ele>55.6</ele>
        <time>2016-07-06T14:40:46Z</time>
        <sat>8</sat>
      </trkpt>
      <trkpt lat="43.565948" lon="11.073494">
        <ele>55.8</ele>
        <time>2016-07-06T14:40:47Z</time>
        <sat>8</sat>
      </trkpt>
      <trkpt lat="43.565822" lon="11.073435">
        <ele>55.8</ele>
        <time>2016-07-06T14:40:48Z</time>
        <sat>8</sat>
      </trkpt>
      <trkpt lat="43.565696" lon="11.073360">
        <ele>55.5</ele>
        <time>2016-07-06T14:40:49Z</time>
        <sat>9</sat>
      </trkpt>
      <trkpt lat="43.565567" lon="11.073268">
        <ele>55.2</ele>
        <time>2016-07-06T14:40:50Z</time>
        <sat>9</sat>
      </trkpt>
      <trkpt lat="43.565434" lon="11.073166">
        <ele>54.4</ele>
        <time>2016-07-06T14:40:51Z</time>
        <sat>9</sat>
      </trkpt>
      <trkpt lat="43.565298" lon="11.073058">
        <ele>53.5</ele>
        <time>2016-07-06T14:40:52Z</time>
        <sat>9</sat>
      </trkpt>
      <trkpt lat="43.565161" lon="11.072949">
        <ele>52.6</ele>
        <time>2016-07-06T14:40:53Z</time>
        <sat>9</sat>
      </trkpt>
      <trkpt lat="43.565021" lon="11.072833">
        <ele>51.8</ele>
        <time>2016-07-06T14:40:54Z</time>
        <sat>9</sat>
      </trkpt>
      <trkpt lat="43.564878" lon="11.072712">
        <ele>51.1</ele>
        <time>2016-07-06T14:40:55Z</time>
        <sat>9</sat>
      </trkpt>
      <trkpt lat="43.564733" lon="11.072598">
        <ele>50.4</ele>
        <time>2016-07-06T14:40:56Z</time>
        <sat>7</sat>
      </trkpt>
      <trkpt lat="43.564591" lon="11.072482">
        <ele>49.9</ele>
        <time>2016-07-06T14:40:57Z</time>
        <sat>9</sat>
      </trkpt>
      <trkpt lat="43.564445" lon="11.072380">
        <ele>49.7</ele>
        <time>2016-07-06T14:40:58Z</time>
        <sat>9</sat>
      </trkpt>
      <trkpt lat="43.564285" lon="11.072307">
        <ele>49.7</ele>
        <time>2016-07-06T14:40:59Z</time>
        <sat>9</sat>
      </trkpt>
      <trkpt lat="43.564111" lon="11.072263">
        <ele>49.6</ele>
        <time>2016-07-06T14:41:00Z</time>
        <sat>9</sat>
      </trkpt>
      <trkpt lat="43.563937" lon="11.072230">
        <ele>49.4</ele>
        <time>2016-07-06T14:41:01Z</time>
        <sat>8</sat>
      </trkpt>
      <trkpt lat="43.563768" lon="11.072195">
        <ele>49.2</ele>
        <time>2016-07-06T14:41:02Z</time>
        <sat>8</sat>
      </trkpt>
      <trkpt lat="43.563604" lon="11.072156">
        <ele>49.2</ele>
        <time>2016-07-06T14:41:03Z</time>
        <sat>9</sat>
      </trkpt>
      <trkpt lat="43.563441" lon="11.072121">
        <ele>48.9</ele>
        <time>2016-07-06T14:41:04Z</time>
        <sat>9</sat>
      </trkpt>
      <trkpt lat="43.563277" lon="11.072088">
        <ele>48.7</ele>
        <time>2016-07-06T14:41:05Z</time>
        <sat>9</sat>
      </trkpt>
      <trkpt lat="43.563114" lon="11.072054">
        <ele>48.5</ele>
        <time>2016-07-06T14:41:06Z</time>
        <sat>9</sat>
      </trkpt>
      <trkpt lat="43.562962" lon="11.072017">
        <ele>48.4</ele>
        <time>2016-07-06T14:41:07Z</time>
        <sat>9</sat>
      </trkpt>
      <trkpt lat="43.562817" lon="11.071969">
        <ele>48.2</ele>
        <time>2016-07-06T14:41:08Z</time>
        <sat>9</sat>
      </trkpt>
      <trkpt lat="43.562675" lon="11.071891">
        <ele>48.3</ele>
        <time>2016-07-06T14:41:09Z</time>
        <sat>9</sat>
      </trkpt>
      <trkpt lat="43.562538" lon="11.071781">
        <ele>48.5</ele>
        <time>2016-07-06T14:41:10Z</time>
        <sat>9</sat>
      </trkpt>
      <trkpt lat="43.562401" lon="11.071658">
        <ele>48.8</ele>
        <time>2016-07-06T14:41:11Z</time>
        <sat>9</sat>
      </trkpt>
      <trkpt lat="43.562264" lon="11.071540">
        <ele>48.9</ele>
        <time>2016-07-06T14:41:12Z</time>
        <sat>9</sat>
      </trkpt>
      <trkpt lat="43.562123" lon="11.071436">
        <ele>48.8</ele>
        <time>2016-07-06T14:41:13Z</time>
        <sat>9</sat>
      </trkpt>
      <trkpt lat="43.561976" lon="11.071356">
        <ele>48.8</ele>
        <time>2016-07-06T14:41:14Z</time>
        <sat>9</sat>
      </trkpt>
      <trkpt lat="43.561826" lon="11.071301">
        <ele>49.1</ele>
        <time>2016-07-06T14:41:15Z</time>
        <sat>9</sat>
      </trkpt>
      <trkpt lat="43.561678" lon="11.071283">
        <ele>49.4</ele>
        <time>2016-07-06T14:41:16Z</time>
        <sat>9</sat>
      </trkpt>
      <trkpt lat="43.561533" lon="11.071291">
        <ele>49.7</ele>
        <time>2016-07-06T14:41:17Z</time>
        <sat>9</sat>
      </trkpt>
      <trkpt lat="43.561397" lon="11.071309">
        <ele>50.1</ele>
        <time>2016-07-06T14:41:18Z</time>
        <sat>9</sat>
      </trkpt>
      <trkpt lat="43.561262" lon="11.071327">
        <ele>50.1</ele>
        <time>2016-07-06T14:41:19Z</time>
        <sat>9</sat>
      </trkpt>
      <trkpt lat="43.561131" lon="11.071334">
        <ele>49.8</ele>
        <time>2016-07-06T14:41:20Z</time>
        <sat>9</sat>
      </trkpt>
      <trkpt lat="43.561004" lon="11.071318">
        <ele>49.5</ele>
        <time>2016-07-06T14:41:21Z</time>
        <sat>9</sat>
      </trkpt>
      <trkpt lat="43.560880" lon="11.071276">
        <ele>49.4</ele>
        <time>2016-07-06T14:41:22Z</time>
        <sat>9</sat>
      </trkpt>
      <trkpt lat="43.560752" lon="11.071214">
        <ele>49.3</ele>
        <time>2016-07-06T14:41:23Z</time>
        <sat>8</sat>
      </trkpt>
      <trkpt lat="43.560619" lon="11.071134">
        <ele>49.3</ele>
        <time>2016-07-06T14:41:24Z</time>
        <sat>9</sat>
      </trkpt>
      <trkpt lat="43.560483" lon="11.071044">
        <ele>49.3</ele>
        <time>2016-07-06T14:41:25Z</time>
        <sat>9</sat>
      </trkpt>
      <trkpt lat="43.560339" lon="11.070950">
        <ele>49.3</ele>
        <time>2016-07-06T14:41:26Z</time>
        <sat>9</sat>
      </trkpt>
      <trkpt lat="43.560190" lon="11.070855">
        <ele>49.1</ele>
        <time>2016-07-06T14:41:27Z</time>
        <sat>9</sat>
      </trkpt>
      <trkpt lat="43.560036" lon="11.070761">
        <ele>49.2</ele>
        <time>2016-07-06T14:41:28Z</time>
        <sat>9</sat>
      </trkpt>
      <trkpt lat="43.559877" lon="11.070663">
        <ele>49.1</ele>
        <time>2016-07-06T14:41:29Z</time>
        <sat>9</sat>
      </trkpt>
      <trkpt lat="43.559712" lon="11.070562">
        <ele>49.1</ele>
        <time>2016-07-06T14:41:30Z</time>
        <sat>8</sat>
      </trkpt>
      <trkpt lat="43.559547" lon="11.070458">
        <ele>49.2</ele>
        <time>2016-07-06T14:41:31Z</time>
        <sat>9</sat>
      </trkpt>
      <trkpt lat="43.559386" lon="11.070358">
        <ele>49.2</ele>
        <time>2016-07-06T14:41:32Z</time>
        <sat>9</sat>
      </trkpt>
      <trkpt lat="43.559227" lon="11.070264">
        <ele>49.4</ele>
        <time>2016-07-06T14:41:33Z</time>
        <sat>9</sat>
      </trkpt>
      <trkpt lat="43.559077" lon="11.070180">
        <ele>49.5</ele>
        <time>2016-07-06T14:41:34Z</time>
        <sat>9</sat>
      </trkpt>
      <trkpt lat="43.558784" lon="11.070004">
        <ele>48.8</ele>
        <time>2016-07-06T14:41:36Z</time>
        <sat>9</sat>
      </trkpt>
      <trkpt lat="43.558636" lon="11.069908">
        <ele>48.2</ele>
        <time>2016-07-06T14:41:37Z</time>
        <sat>9</sat>
      </trkpt>
      <trkpt lat="43.558492" lon="11.069806">
        <ele>47.1</ele>
        <time>2016-07-06T14:41:38Z</time>
        <sat>9</sat>
      </trkpt>
      <trkpt lat="43.558359" lon="11.069689">
        <ele>46.6</ele>
        <time>2016-07-06T14:41:39Z</time>
        <sat>9</sat>
      </trkpt>
      <trkpt lat="43.558249" lon="11.069553">
        <ele>46.0</ele>
        <time>2016-07-06T14:41:40Z</time>
        <sat>9</sat>
      </trkpt>
      <trkpt lat="43.558156" lon="11.069385">
        <ele>45.7</ele>
        <time>2016-07-06T14:41:41Z</time>
        <sat>9</sat>
      </trkpt>
      <trkpt lat="43.558073" lon="11.069195">
        <ele>45.5</ele>
        <time>2016-07-06T14:41:42Z</time>
        <sat>9</sat>
      </trkpt>
      <trkpt lat="43.558005" lon="11.068995">
        <ele>45.3</ele>
        <time>2016-07-06T14:41:43Z</time>
        <sat>9</sat>
      </trkpt>
      <trkpt lat="43.557954" lon="11.068793">
        <ele>44.7</ele>
        <time>2016-07-06T14:41:44Z</time>
        <sat>8</sat>
      </trkpt>
      <trkpt lat="43.557910" lon="11.068592">
        <ele>45.3</ele>
        <time>2016-07-06T14:41:45Z</time>
        <sat>9</sat>
      </trkpt>
      <trkpt lat="43.557867" lon="11.068389">
        <ele>45.8</ele>
        <time>2016-07-06T14:41:46Z</time>
        <sat>9</sat>
      </trkpt>
      <trkpt lat="43.557818" lon="11.068189">
        <ele>46.5</ele>
        <time>2016-07-06T14:41:47Z</time>
        <sat>9</sat>
      </trkpt>
      <trkpt lat="43.557750" lon="11.068010">
        <ele>47.0</ele>
        <time>2016-07-06T14:41:48Z</time>
        <sat>9</sat>
      </trkpt>
      <trkpt lat="43.557663" lon="11.067866">
        <ele>47.4</ele>
        <time>2016-07-06T14:41:49Z</time>
        <sat>9</sat>
      </trkpt>
      <trkpt lat="43.557564" lon="11.067754">
        <ele>47.6</ele>
        <time>2016-07-06T14:41:50Z</time>
        <sat>9</sat>
      </trkpt>
      <trkpt lat="43.557461" lon="11.067661">
        <ele>47.5</ele>
        <time>2016-07-06T14:41:51Z</time>
        <sat>9</sat>
      </trkpt>
      <trkpt lat="43.557370" lon="11.067594">
        <ele>47.1</ele>
        <time>2016-07-06T14:41:52Z</time>
        <sat>9</sat>
      </trkpt>
      <trkpt lat="43.557197" lon="11.067567">
        <ele>46.1</ele>
        <time>2016-07-06T14:41:54Z</time>
        <sat>9</sat>
      </trkpt>
      <trkpt lat="43.557106" lon="11.067585">
        <ele>45.5</ele>
        <time>2016-07-06T14:41:55Z</time>
        <sat>9</sat>
      </trkpt>
      <trkpt lat="43.556935" lon="11.067616">
        <ele>44.2</ele>
        <time>2016-07-06T14:41:57Z</time>
        <sat>8</sat>
      </trkpt>
      <trkpt lat="43.556845" lon="11.067627">
        <ele>43.6</ele>
        <time>2016-07-06T14:41:58Z</time>
        <sat>8</sat>
      </trkpt>
      <trkpt lat="43.556752" lon="11.067651">
        <ele>43.2</ele>
        <time>2016-07-06T14:41:59Z</time>
        <sat>8</sat>
      </trkpt>
      <trkpt lat="43.556650" lon="11.067670">
        <ele>42.6</ele>
        <time>2016-07-06T14:42:00Z</time>
        <sat>8</sat>
      </trkpt>
      <trkpt lat="43.556535" lon="11.067682">
        <ele>41.8</ele>
        <time>2016-07-06T14:42:01Z</time>
        <sat>8</sat>
      </trkpt>
      <trkpt lat="43.556417" lon="11.067694">
        <ele>41.3</ele>
        <time>2016-07-06T14:42:02Z</time>
        <sat>8</sat>
      </trkpt>
      <trkpt lat="43.556293" lon="11.067700">
        <ele>42.2</ele>
        <time>2016-07-06T14:42:03Z</time>
        <sat>8</sat>
      </trkpt>
      <trkpt lat="43.556170" lon="11.067705">
        <ele>42.0</ele>
        <time>2016-07-06T14:42:04Z</time>
        <sat>8</sat>
      </trkpt>
      <trkpt lat="43.556045" lon="11.067712">
        <ele>41.6</ele>
        <time>2016-07-06T14:42:05Z</time>
        <sat>8</sat>
      </trkpt>
      <trkpt lat="43.555925" lon="11.067724">
        <ele>41.3</ele>
        <time>2016-07-06T14:42:06Z</time>
        <sat>8</sat>
      </trkpt>
      <trkpt lat="43.555816" lon="11.067733">
        <ele>41.0</ele>
        <time>2016-07-06T14:42:07Z</time>
        <sat>8</sat>
      </trkpt>
      <trkpt lat="43.555718" lon="11.067728">
        <ele>40.7</ele>
        <time>2016-07-06T14:42:08Z</time>
        <sat>9</sat>
      </trkpt>
      <trkpt lat="43.555630" lon="11.067701">
        <ele>40.7</ele>
        <time>2016-07-06T14:42:09Z</time>
        <sat>9</sat>
      </trkpt>
      <trkpt lat="43.555546" lon="11.067657">
        <ele>40.4</ele>
        <time>2016-07-06T14:42:10Z</time>
        <sat>9</sat>
      </trkpt>
      <trkpt lat="43.555464" lon="11.067591">
        <ele>40.2</ele>
        <time>2016-07-06T14:42:11Z</time>
        <sat>9</sat>
      </trkpt>
      <trkpt lat="43.555391" lon="11.067515">
        <ele>40.1</ele>
        <time>2016-07-06T14:42:12Z</time>
        <sat>9</sat>
      </trkpt>
      <trkpt lat="43.555315" lon="11.067438">
        <ele>39.9</ele>
        <time>2016-07-06T14:42:13Z</time>
        <sat>9</sat>
      </trkpt>
      <trkpt lat="43.555242" lon="11.067359">
        <ele>38.1</ele>
        <time>2016-07-06T14:42:14Z</time>
        <sat>9</sat>
      </trkpt>
      <trkpt lat="43.555126" lon="11.067252">
        <ele>38.6</ele>
        <time>2016-07-06T14:42:16Z</time>
        <sat>9</sat>
      </trkpt>
      <trkpt lat="43.554986" lon="11.067214">
        <ele>38.0</ele>
        <time>2016-07-06T14:42:18Z</time>
        <sat>9</sat>
      </trkpt>
      <trkpt lat="43.554889" lon="11.067180">
        <ele>37.7</ele>
        <time>2016-07-06T14:42:20Z</time>
        <sat>8</sat>
      </trkpt>
      <trkpt lat="43.554800" lon="11.067142">
        <ele>36.8</ele>
        <time>2016-07-06T14:42:23Z</time>
        <sat>9</sat>
      </trkpt>
      <trkpt lat="43.554700" lon="11.067139">
        <ele>36.7</ele>
        <time>2016-07-06T14:44:21Z</time>
        <sat>9</sat>
      </trkpt>
      <trkpt lat="43.554760" lon="11.067466">
        <ele>36.7</ele>
        <time>2016-07-06T14:44:27Z</time>
        <sat>9</sat>
      </trkpt>
      <trkpt lat="43.554840" lon="11.067683">
        <ele>36.8</ele>
        <time>2016-07-06T14:44:29Z</time>
        <sat>9</sat>
      </trkpt>
      <trkpt lat="43.554882" lon="11.067795">
        <ele>36.9</ele>
        <time>2016-07-06T14:44:30Z</time>
        <sat>8</sat>
      </trkpt>
      <trkpt lat="43.554956" lon="11.067987">
        <ele>37.1</ele>
        <time>2016-07-06T14:44:32Z</time>
        <sat>9</sat>
      </trkpt>
      <trkpt lat="43.555024" lon="11.068165">
        <ele>37.6</ele>
        <time>2016-07-06T14:44:34Z</time>
        <sat>9</sat>
      </trkpt>
      <trkpt lat="43.555064" lon="11.068277">
        <ele>38.0</ele>
        <time>2016-07-06T14:44:35Z</time>
        <sat>9</sat>
      </trkpt>
      <trkpt lat="43.555110" lon="11.068401">
        <ele>38.5</ele>
        <time>2016-07-06T14:44:36Z</time>
        <sat>9</sat>
      </trkpt>
      <trkpt lat="43.555162" lon="11.068538">
        <ele>39.3</ele>
        <time>2016-07-06T14:44:37Z</time>
        <sat>9</sat>
      </trkpt>
      <trkpt lat="43.555219" lon="11.068685">
        <ele>40.1</ele>
        <time>2016-07-06T14:44:38Z</time>
        <sat>9</sat>
      </trkpt>
      <trkpt lat="43.555280" lon="11.068828">
        <ele>40.9</ele>
        <time>2016-07-06T14:44:39Z</time>
        <sat>9</sat>
      </trkpt>
      <trkpt lat="43.555351" lon="11.068964">
        <ele>41.8</ele>
        <time>2016-07-06T14:44:40Z</time>
        <sat>9</sat>
      </trkpt>
      <trkpt lat="43.555426" lon="11.069090">
        <ele>42.8</ele>
        <time>2016-07-06T14:44:41Z</time>
        <sat>9</sat>
      </trkpt>
      <trkpt lat="43.555499" lon="11.069210">
        <ele>43.9</ele>
        <time>2016-07-06T14:44:42Z</time>
        <sat>9</sat>
      </trkpt>
      <trkpt lat="43.555575" lon="11.069326">
        <ele>45.0</ele>
        <time>2016-07-06T14:44:43Z</time>
        <sat>9</sat>
      </trkpt>
      <trkpt lat="43.555648" lon="11.069435">
        <ele>46.1</ele>
        <time>2016-07-06T14:44:44Z</time>
        <sat>9</sat>
      </trkpt>
      <trkpt lat="43.555720" lon="11.069545">
        <ele>47.0</ele>
        <time>2016-07-06T14:44:45Z</time>
        <sat>9</sat>
      </trkpt>
      <trkpt lat="43.555799" lon="11.069667">
        <ele>48.1</ele>
        <time>2016-07-06T14:44:46Z</time>
        <sat>9</sat>
      </trkpt>
      <trkpt lat="43.555867" lon="11.069787">
        <ele>49.3</ele>
        <time>2016-07-06T14:44:47Z</time>
        <sat>9</sat>
      </trkpt>
      <trkpt lat="43.555920" lon="11.069907">
        <ele>50.5</ele>
        <time>2016-07-06T14:44:48Z</time>
        <sat>9</sat>
      </trkpt>
      <trkpt lat="43.555969" lon="11.070030">
        <ele>51.9</ele>
        <time>2016-07-06T14:44:49Z</time>
        <sat>9</sat>
      </trkpt>
      <trkpt lat="43.555999" lon="11.070168">
        <ele>53.0</ele>
        <time>2016-07-06T14:44:50Z</time>
        <sat>9</sat>
      </trkpt>
      <trkpt lat="43.556009" lon="11.070323">
        <ele>53.6</ele>
        <time>2016-07-06T14:44:51Z</time>
        <sat>9</sat>
      </trkpt>
      <trkpt lat="43.556004" lon="11.070489">
        <ele>53.9</ele>
        <time>2016-07-06T14:44:52Z</time>
        <sat>9</sat>
      </trkpt>
      <trkpt lat="43.555981" lon="11.070668">
        <ele>54.4</ele>
        <time>2016-07-06T14:44:53Z</time>
        <sat>9</sat>
      </trkpt>
      <trkpt lat="43.555946" lon="11.070849">
        <ele>54.6</ele>
        <time>2016-07-06T14:44:54Z</time>
        <sat>9</sat>
      </trkpt>
      <trkpt lat="43.555908" lon="11.071024">
        <ele>54.9</ele>
        <time>2016-07-06T14:44:55Z</time>
        <sat>9</sat>
      </trkpt>
      <trkpt lat="43.555864" lon="11.071193">
        <ele>55.0</ele>
        <time>2016-07-06T14:44:56Z</time>
        <sat>9</sat>
      </trkpt>
      <trkpt lat="43.555809" lon="11.071343">
        <ele>51.3</ele>
        <time>2016-07-06T14:44:57Z</time>
        <sat>9</sat>
      </trkpt>
      <trkpt lat="43.555747" lon="11.071492">
        <ele>50.3</ele>
        <time>2016-07-06T14:44:58Z</time>
        <sat>8</sat>
      </trkpt>
      <trkpt lat="43.555678" lon="11.071644">
        <ele>49.3</ele>
        <time>2016-07-06T14:44:59Z</time>
        <sat>8</sat>
      </trkpt>
      <trkpt lat="43.555618" lon="11.071809">
        <ele>48.5</ele>
        <time>2016-07-06T14:45:00Z</time>
        <sat>9</sat>
      </trkpt>
      <trkpt lat="43.555578" lon="11.071992">
        <ele>47.8</ele>
        <time>2016-07-06T14:45:01Z</time>
        <sat>9</sat>
      </trkpt>
      <trkpt lat="43.555555" lon="11.072194">
        <ele>48.5</ele>
        <time>2016-07-06T14:45:02Z</time>
        <sat>9</sat>
      </trkpt>
      <trkpt lat="43.555543" lon="11.072385">
        <ele>48.6</ele>
        <time>2016-07-06T14:45:03Z</time>
        <sat>9</sat>
      </trkpt>
      <trkpt lat="43.555536" lon="11.072573">
        <ele>48.7</ele>
        <time>2016-07-06T14:45:04Z</time>
        <sat>8</sat>
      </trkpt>
      <trkpt lat="43.555528" lon="11.072762">
        <ele>49.0</ele>
        <time>2016-07-06T14:45:05Z</time>
        <sat>8</sat>
      </trkpt>
      <trkpt lat="43.555522" lon="11.072955">
        <ele>49.3</ele>
        <time>2016-07-06T14:45:06Z</time>
        <sat>8</sat>
      </trkpt>
      <trkpt lat="43.555520" lon="11.073157">
        <ele>49.7</ele>
        <time>2016-07-06T14:45:07Z</time>
        <sat>9</sat>
      </trkpt>
      <trkpt lat="43.555521" lon="11.073356">
        <ele>50.1</ele>
        <time>2016-07-06T14:45:08Z</time>
        <sat>9</sat>
      </trkpt>
      <trkpt lat="43.555523" lon="11.073535">
        <ele>50.2</ele>
        <time>2016-07-06T14:45:09Z</time>
        <sat>8</sat>
      </trkpt>
      <trkpt lat="43.555526" lon="11.073694">
        <ele>50.4</ele>
        <time>2016-07-06T14:45:10Z</time>
        <sat>9</sat>
      </trkpt>
      <trkpt lat="43.555534" lon="11.073836">
        <ele>50.1</ele>
        <time>2016-07-06T14:45:11Z</time>
        <sat>9</sat>
      </trkpt>
      <trkpt lat="43.555551" lon="11.073963">
        <ele>50.2</ele>
        <time>2016-07-06T14:45:12Z</time>
        <sat>9</sat>
      </trkpt>
      <trkpt lat="43.555618" lon="11.074181">
        <ele>50.2</ele>
        <time>2016-07-06T14:45:14Z</time>
        <sat>7</sat>
      </trkpt>
      <trkpt lat="43.555664" lon="11.074289">
        <ele>50.0</ele>
        <time>2016-07-06T14:45:15Z</time>
        <sat>9</sat>
      </trkpt>
      <trkpt lat="43.555712" lon="11.074401">
        <ele>50.0</ele>
        <time>2016-07-06T14:45:16Z</time>
        <sat>9</sat>
      </trkpt>
      <trkpt lat="43.555755" lon="11.074523">
        <ele>50.2</ele>
        <time>2016-07-06T14:45:17Z</time>
        <sat>9</sat>
      </trkpt>
      <trkpt lat="43.555795" lon="11.074652">
        <ele>50.2</ele>
        <time>2016-07-06T14:45:18Z</time>
        <sat>9</sat>
      </trkpt>
      <trkpt lat="43.555830" lon="11.074777">
        <ele>50.1</ele>
        <time>2016-07-06T14:45:19Z</time>
        <sat>8</sat>
      </trkpt>
      <trkpt lat="43.555891" lon="11.074990">
        <ele>49.9</ele>
        <time>2016-07-06T14:45:21Z</time>
        <sat>9</sat>
      </trkpt>
      <trkpt lat="43.555928" lon="11.075137">
        <ele>49.8</ele>
        <time>2016-07-06T14:45:23Z</time>
        <sat>8</sat>
      </trkpt>
      <trkpt lat="43.556065" lon="11.075381">
        <ele>49.9</ele>
        <time>2016-07-06T14:45:31Z</time>
        <sat>9</sat>
      </trkpt>
      <trkpt lat="43.556150" lon="11.075466">
        <ele>49.6</ele>
        <time>2016-07-06T14:45:33Z</time>
        <sat>9</sat>
      </trkpt>
      <trkpt lat="43.556254" lon="11.075601">
        <ele>49.5</ele>
        <time>2016-07-06T14:45:35Z</time>
        <sat>9</sat>
      </trkpt>
      <trkpt lat="43.556360" lon="11.075727">
        <ele>49.2</ele>
        <time>2016-07-06T14:45:37Z</time>
        <sat>9</sat>
      </trkpt>
      <trkpt lat="43.556419" lon="11.075843">
        <ele>48.5</ele>
        <time>2016-07-06T14:45:40Z</time>
        <sat>9</sat>
      </trkpt>
      <trkpt lat="43.556338" lon="11.075931">
        <ele>47.0</ele>
        <time>2016-07-06T14:45:42Z</time>
        <sat>9</sat>
      </trkpt>
      <trkpt lat="43.556178" lon="11.075980">
        <ele>45.8</ele>
        <time>2016-07-06T14:45:44Z</time>
        <sat>9</sat>
      </trkpt>
      <trkpt lat="43.556010" lon="11.076047">
        <ele>44.9</ele>
        <time>2016-07-06T14:45:46Z</time>
        <sat>9</sat>
      </trkpt>
      <trkpt lat="43.555852" lon="11.076117">
        <ele>44.3</ele>
        <time>2016-07-06T14:45:48Z</time>
        <sat>9</sat>
      </trkpt>
      <trkpt lat="43.555697" lon="11.076188">
        <ele>44.2</ele>
        <time>2016-07-06T14:45:50Z</time>
        <sat>9</sat>
      </trkpt>
      <trkpt lat="43.555552" lon="11.076252">
        <ele>43.7</ele>
        <time>2016-07-06T14:45:52Z</time>
        <sat>9</sat>
      </trkpt>
      <trkpt lat="43.555399" lon="11.076273">
        <ele>42.8</ele>
        <time>2016-07-06T14:45:54Z</time>
        <sat>8</sat>
      </trkpt>
      <trkpt lat="43.555237" lon="11.076224">
        <ele>42.3</ele>
        <time>2016-07-06T14:45:56Z</time>
        <sat>8</sat>
      </trkpt>
      <trkpt lat="43.555062" lon="11.076196">
        <ele>42.0</ele>
        <time>2016-07-06T14:45:58Z</time>
        <sat>9</sat>
      </trkpt>
      <trkpt lat="43.554970" lon="11.076172">
        <ele>42.5</ele>
        <time>2016-07-06T14:45:59Z</time>
        <sat>9</sat>
      </trkpt>
      <trkpt lat="43.554882" lon="11.076140">
        <ele>42.8</ele>
        <time>2016-07-06T14:46:00Z</time>
        <sat>9</sat>
      </trkpt>
      <trkpt lat="43.554712" lon="11.076104">
        <ele>43.5</ele>
        <time>2016-07-06T14:46:02Z</time>
        <sat>8</sat>
      </trkpt>
      <trkpt lat="43.554542" lon="11.076103">
        <ele>44.3</ele>
        <time>2016-07-06T14:46:04Z</time>
        <sat>9</sat>
      </trkpt>
      <trkpt lat="43.554378" lon="11.076116">
        <ele>44.9</ele>
        <time>2016-07-06T14:46:06Z</time>
        <sat>8</sat>
      </trkpt>
      <trkpt lat="43.554203" lon="11.076157">
        <ele>45.9</ele>
        <time>2016-07-06T14:46:08Z</time>
        <sat>7</sat>
      </trkpt>
      <trkpt lat="43.554059" lon="11.076258">
        <ele>44.6</ele>
        <time>2016-07-06T14:46:10Z</time>
        <sat>9</sat>
      </trkpt>
      <trkpt lat="43.553961" lon="11.076331">
        <ele>44.9</ele>
        <time>2016-07-06T14:46:12Z</time>
        <sat>7</sat>
      </trkpt>
      <trkpt lat="43.553869" lon="11.076320">
        <ele>44.8</ele>
        <time>2016-07-06T14:46:14Z</time>
        <sat>8</sat>
      </trkpt>
      <trkpt lat="43.553734" lon="11.076246">
        <ele>45.9</ele>
        <time>2016-07-06T14:46:16Z</time>
        <sat>6</sat>
      </trkpt>
      <trkpt lat="43.553611" lon="11.076187">
        <ele>45.8</ele>
        <time>2016-07-06T14:46:18Z</time>
        <sat>9</sat>
      </trkpt>
      <trkpt lat="43.553511" lon="11.076123">
        <ele>45.7</ele>
        <time>2016-07-06T14:46:20Z</time>
        <sat>9</sat>
      </trkpt>
      <trkpt lat="43.553415" lon="11.076021">
        <ele>47.4</ele>
        <time>2016-07-06T14:46:22Z</time>
        <sat>8</sat>
      </trkpt>
      <trkpt lat="43.553337" lon="11.075950">
        <ele>47.0</ele>
        <time>2016-07-06T14:46:24Z</time>
        <sat>9</sat>
      </trkpt>
      <trkpt lat="43.553132" lon="11.075835">
        <ele>50.3</ele>
        <time>2016-07-06T14:46:28Z</time>
        <sat>9</sat>
      </trkpt>
      <trkpt lat="43.553023" lon="11.075868">
        <ele>48.5</ele>
        <time>2016-07-06T14:46:30Z</time>
        <sat>8</sat>
      </trkpt>
      <trkpt lat="43.552945" lon="11.075944">
        <ele>48.5</ele>
        <time>2016-07-06T14:46:32Z</time>
        <sat>9</sat>
      </trkpt>
      <trkpt lat="43.552858" lon="11.076045">
        <ele>50.3</ele>
        <time>2016-07-06T14:46:35Z</time>
        <sat>8</sat>
      </trkpt>
      <trkpt lat="43.552751" lon="11.076117">
        <ele>51.2</ele>
        <time>2016-07-06T14:46:38Z</time>
        <sat>8</sat>
      </trkpt>
      <trkpt lat="43.552608" lon="11.076125">
        <ele>52.7</ele>
        <time>2016-07-06T14:46:41Z</time>
        <sat>7</sat>
      </trkpt>
      <trkpt lat="43.552510" lon="11.076187">
        <ele>53.7</ele>
        <time>2016-07-06T14:46:43Z</time>
        <sat>8</sat>
      </trkpt>
      <trkpt lat="43.552433" lon="11.076257">
        <ele>55.3</ele>
        <time>2016-07-06T14:46:53Z</time>
        <sat>8</sat>
      </trkpt>
      <trkpt lat="43.552350" lon="11.076314">
        <ele>56.2</ele>
        <time>2016-07-06T14:47:15Z</time>
        <sat>8</sat>
      </trkpt>
      <trkpt lat="43.552430" lon="11.076217">
        <ele>56.9</ele>
        <time>2016-07-06T14:47:27Z</time>
        <sat>8</sat>
      </trkpt>
      <trkpt lat="43.552632" lon="11.076099">
        <ele>57.4</ele>
        <time>2016-07-06T14:47:33Z</time>
        <sat>8</sat>
      </trkpt>
      <trkpt lat="43.552728" lon="11.076090">
        <ele>54.7</ele>
        <time>2016-07-06T14:47:40Z</time>
        <sat>8</sat>
      </trkpt>
      <trkpt lat="43.552819" lon="11.076025">
        <ele>54.3</ele>
        <time>2016-07-06T14:49:37Z</time>
        <sat>8</sat>
      </trkpt>
      <trkpt lat="43.552636" lon="11.075910">
        <ele>58.1</ele>
        <time>2016-07-06T14:50:12Z</time>
        <sat>7</sat>
      </trkpt>
      <trkpt lat="43.552662" lon="11.076030">
        <ele>58.1</ele>
        <time>2016-07-06T14:52:56Z</time>
        <sat>8</sat>
      </trkpt>
      <trkpt lat="43.552604" lon="11.075895">
        <ele>63.8</ele>
        <time>2016-07-06T14:54:32Z</time>
        <sat>8</sat>
      </trkpt>
      <trkpt lat="43.552491" lon="11.075791">
        <ele>69.0</ele>
        <time>2016-07-06T14:54:34Z</time>
        <sat>9</sat>
      </trkpt>
      <trkpt lat="43.552360" lon="11.075668">
        <ele>73.6</ele>
        <time>2016-07-06T14:54:36Z</time>
        <sat>9</sat>
      </trkpt>
      <trkpt lat="43.552274" lon="11.075577">
        <ele>74.7</ele>
        <time>2016-07-06T14:54:38Z</time>
        <sat>9</sat>
      </trkpt>
      <trkpt lat="43.552167" lon="11.075520">
        <ele>77.2</ele>
        <time>2016-07-06T14:54:41Z</time>
        <sat>9</sat>
      </trkpt>
      <trkpt lat="43.552065" lon="11.075537">
        <ele>79.6</ele>
        <time>2016-07-06T14:54:43Z</time>
        <sat>8</sat>
      </trkpt>
      <trkpt lat="43.551965" lon="11.075540">
        <ele>82.1</ele>
        <time>2016-07-06T14:54:45Z</time>
        <sat>8</sat>
      </trkpt>
      <trkpt lat="43.551830" lon="11.075560">
        <ele>85.0</ele>
        <time>2016-07-06T14:54:47Z</time>
        <sat>8</sat>
      </trkpt>
      <trkpt lat="43.551696" lon="11.075584">
        <ele>87.9</ele>
        <time>2016-07-06T14:54:49Z</time>
        <sat>8</sat>
      </trkpt>
      <trkpt lat="43.551583" lon="11.075595">
        <ele>89.7</ele>
        <time>2016-07-06T14:54:52Z</time>
        <sat>9</sat>
      </trkpt>
      <trkpt lat="43.551508" lon="11.075664">
        <ele>89.8</ele>
        <time>2016-07-06T14:55:39Z</time>
        <sat>9</sat>
      </trkpt>
      <trkpt lat="43.551361" lon="11.075844">
        <ele>89.9</ele>
        <time>2016-07-06T14:56:04Z</time>
        <sat>8</sat>
      </trkpt>
      <trkpt lat="43.551283" lon="11.075939">
        <ele>88.7</ele>
        <time>2016-07-06T14:58:48Z</time>
        <sat>7</sat>
      </trkpt>
      <trkpt lat="43.550903" lon="11.076138">
        <ele>87.1</ele>
        <time>2016-07-06T15:06:56Z</time>
        <sat>9</sat>
      </trkpt>
      <trkpt lat="43.550811" lon="11.076191">
        <ele>87.3</ele>
        <time>2016-07-06T15:06:57Z</time>
        <sat>9</sat>
      </trkpt>
      <trkpt lat="43.550719" lon="11.076252">
        <ele>87.6</ele>
        <time>2016-07-06T15:06:58Z</time>
        <sat>10</sat>
      </trkpt>
      <trkpt lat="43.550638" lon="11.076319">
        <ele>88.0</ele>
        <time>2016-07-06T15:06:59Z</time>
        <sat>9</sat>
      </trkpt>
      <trkpt lat="43.550499" lon="11.076453">
        <ele>88.5</ele>
        <time>2016-07-06T15:07:01Z</time>
        <sat>9</sat>
      </trkpt>
      <trkpt lat="43.550342" lon="11.076581">
        <ele>89.0</ele>
        <time>2016-07-06T15:07:03Z</time>
        <sat>7</sat>
      </trkpt>
      <trkpt lat="43.550251" lon="11.076631">
        <ele>89.2</ele>
        <time>2016-07-06T15:07:04Z</time>
        <sat>8</sat>
      </trkpt>
      <trkpt lat="43.550155" lon="11.076666">
        <ele>89.4</ele>
        <time>2016-07-06T15:07:05Z</time>
        <sat>9</sat>
      </trkpt>
      <trkpt lat="43.550066" lon="11.076678">
        <ele>89.6</ele>
        <time>2016-07-06T15:07:06Z</time>
        <sat>9</sat>
      </trkpt>
      <trkpt lat="43.549909" lon="11.076673">
        <ele>90.0</ele>
        <time>2016-07-06T15:07:08Z</time>
        <sat>9</sat>
      </trkpt>
      <trkpt lat="43.549741" lon="11.076654">
        <ele>90.3</ele>
        <time>2016-07-06T15:07:10Z</time>
        <sat>9</sat>
      </trkpt>
      <trkpt lat="43.549638" lon="11.076647">
        <ele>90.4</ele>
        <time>2016-07-06T15:07:11Z</time>
        <sat>9</sat>
      </trkpt>
      <trkpt lat="43.549521" lon="11.076642">
        <ele>90.7</ele>
        <time>2016-07-06T15:07:12Z</time>
        <sat>9</sat>
      </trkpt>
      <trkpt lat="43.549394" lon="11.076639">
        <ele>90.8</ele>
        <time>2016-07-06T15:07:13Z</time>
        <sat>9</sat>
      </trkpt>
      <trkpt lat="43.549264" lon="11.076636">
        <ele>90.8</ele>
        <time>2016-07-06T15:07:14Z</time>
        <sat>9</sat>
      </trkpt>
      <trkpt lat="43.549141" lon="11.076627">
        <ele>91.0</ele>
        <time>2016-07-06T15:07:15Z</time>
        <sat>9</sat>
      </trkpt>
      <trkpt lat="43.549031" lon="11.076612">
        <ele>91.3</ele>
        <time>2016-07-06T15:07:16Z</time>
        <sat>9</sat>
      </trkpt>
      <trkpt lat="43.548929" lon="11.076598">
        <ele>91.7</ele>
        <time>2016-07-06T15:07:17Z</time>
        <sat>9</sat>
      </trkpt>
      <trkpt lat="43.548827" lon="11.076589">
        <ele>92.0</ele>
        <time>2016-07-06T15:07:18Z</time>
        <sat>9</sat>
      </trkpt>
      <trkpt lat="43.548723" lon="11.076582">
        <ele>92.7</ele>
        <time>2016-07-06T15:07:19Z</time>
        <sat>8</sat>
      </trkpt>
      <trkpt lat="43.548617" lon="11.076575">
        <ele>93.3</ele>
        <time>2016-07-06T15:07:20Z</time>
        <sat>8</sat>
      </trkpt>
      <trkpt lat="43.548509" lon="11.076572">
        <ele>93.8</ele>
        <time>2016-07-06T15:07:21Z</time>
        <sat>8</sat>
      </trkpt>
      <trkpt lat="43.548390" lon="11.076578">
        <ele>94.3</ele>
        <time>2016-07-06T15:07:22Z</time>
        <sat>8</sat>
      </trkpt>
      <trkpt lat="43.548269" lon="11.076600">
        <ele>94.7</ele>
        <time>2016-07-06T15:07:23Z</time>
        <sat>9</sat>
      </trkpt>
      <trkpt lat="43.548155" lon="11.076635">
        <ele>95.2</ele>
        <time>2016-07-06T15:07:24Z</time>
        <sat>8</sat>
      </trkpt>
      <trkpt lat="43.548049" lon="11.076668">
        <ele>95.6</ele>
        <time>2016-07-06T15:07:25Z</time>
        <sat>9</sat>
      </trkpt>
      <trkpt lat="43.547948" lon="11.076696">
        <ele>95.9</ele>
        <time>2016-07-06T15:07:26Z</time>
        <sat>8</sat>
      </trkpt>
      <trkpt lat="43.547792" lon="11.076737">
        <ele>96.7</ele>
        <time>2016-07-06T15:07:28Z</time>
        <sat>9</sat>
      </trkpt>
      <trkpt lat="43.547679" lon="11.076748">
        <ele>92.0</ele>
        <time>2016-07-06T15:07:31Z</time>
        <sat>8</sat>
      </trkpt>
      <trkpt lat="43.547625" lon="11.076876">
        <ele>92.3</ele>
        <time>2016-07-06T15:07:35Z</time>
        <sat>9</sat>
      </trkpt>
      <trkpt lat="43.547630" lon="11.077068">
        <ele>92.8</ele>
        <time>2016-07-06T15:07:37Z</time>
        <sat>9</sat>
      </trkpt>
      <trkpt lat="43.547613" lon="11.077322">
        <ele>93.0</ele>
        <time>2016-07-06T15:07:39Z</time>
        <sat>9</sat>
      </trkpt>
      <trkpt lat="43.547580" lon="11.077466">
        <ele>93.1</ele>
        <time>2016-07-06T15:07:40Z</time>
        <sat>9</sat>
      </trkpt>
      <trkpt lat="43.547548" lon="11.077614">
        <ele>93.2</ele>
        <time>2016-07-06T15:07:41Z</time>
        <sat>9</sat>
      </trkpt>
      <trkpt lat="43.547525" lon="11.077763">
        <ele>93.4</ele>
        <time>2016-07-06T15:07:42Z</time>
        <sat>9</sat>
      </trkpt>
      <trkpt lat="43.547512" lon="11.077913">
        <ele>93.8</ele>
        <time>2016-07-06T15:07:43Z</time>
        <sat>9</sat>
      </trkpt>
      <trkpt lat="43.547496" lon="11.078062">
        <ele>94.0</ele>
        <time>2016-07-06T15:07:44Z</time>
        <sat>9</sat>
      </trkpt>
      <trkpt lat="43.547473" lon="11.078210">
        <ele>94.5</ele>
        <time>2016-07-06T15:07:45Z</time>
        <sat>9</sat>
      </trkpt>
      <trkpt lat="43.547448" lon="11.078361">
        <ele>95.4</ele>
        <time>2016-07-06T15:07:46Z</time>
        <sat>9</sat>
      </trkpt>
      <trkpt lat="43.547418" lon="11.078521">
        <ele>96.0</ele>
        <time>2016-07-06T15:07:47Z</time>
        <sat>10</sat>
      </trkpt>
      <trkpt lat="43.547382" lon="11.078688">
        <ele>96.5</ele>
        <time>2016-07-06T15:07:48Z</time>
        <sat>10</sat>
      </trkpt>
      <trkpt lat="43.547338" lon="11.078865">
        <ele>96.6</ele>
        <time>2016-07-06T15:07:49Z</time>
        <sat>10</sat>
      </trkpt>
      <trkpt lat="43.547285" lon="11.079047">
        <ele>96.2</ele>
        <time>2016-07-06T15:07:50Z</time>
        <sat>10</sat>
      </trkpt>
      <trkpt lat="43.547231" lon="11.079232">
        <ele>96.0</ele>
        <time>2016-07-06T15:07:51Z</time>
        <sat>9</sat>
      </trkpt>
      <trkpt lat="43.547182" lon="11.079427">
        <ele>93.2</ele>
        <time>2016-07-06T15:07:52Z</time>
        <sat>10</sat>
      </trkpt>
      <trkpt lat="43.547175" lon="11.079630">
        <ele>92.1</ele>
        <time>2016-07-06T15:07:53Z</time>
        <sat>9</sat>
      </trkpt>
      <trkpt lat="43.547212" lon="11.079829">
        <ele>91.4</ele>
        <time>2016-07-06T15:07:54Z</time>
        <sat>9</sat>
      </trkpt>
      <trkpt lat="43.547331" lon="11.080229">
        <ele>91.2</ele>
        <time>2016-07-06T15:07:56Z</time>
        <sat>9</sat>
      </trkpt>
      <trkpt lat="43.547381" lon="11.080443">
        <ele>91.2</ele>
        <time>2016-07-06T15:07:57Z</time>
        <sat>9</sat>
      </trkpt>
      <trkpt lat="43.547413" lon="11.080671">
        <ele>91.5</ele>
        <time>2016-07-06T15:07:58Z</time>
        <sat>9</sat>
      </trkpt>
      <trkpt lat="43.547430" lon="11.080899">
        <ele>91.9</ele>
        <time>2016-07-06T15:07:59Z</time>
        <sat>9</sat>
      </trkpt>
      <trkpt lat="43.547444" lon="11.081124">
        <ele>92.4</ele>
        <time>2016-07-06T15:08:00Z</time>
        <sat>9</sat>
      </trkpt>
      <trkpt lat="43.547461" lon="11.081342">
        <ele>93.4</ele>
        <time>2016-07-06T15:08:01Z</time>
        <sat>9</sat>
      </trkpt>
      <trkpt lat="43.547471" lon="11.081547">
        <ele>94.6</ele>
        <time>2016-07-06T15:08:02Z</time>
        <sat>9</sat>
      </trkpt>
      <trkpt lat="43.547473" lon="11.081743">
        <ele>96.0</ele>
        <time>2016-07-06T15:08:03Z</time>
        <sat>9</sat>
      </trkpt>
      <trkpt lat="43.547464" lon="11.081937">
        <ele>97.3</ele>
        <time>2016-07-06T15:08:04Z</time>
        <sat>9</sat>
      </trkpt>
      <trkpt lat="43.547446" lon="11.082132">
        <ele>98.8</ele>
        <time>2016-07-06T15:08:05Z</time>
        <sat>8</sat>
      </trkpt>
      <trkpt lat="43.547422" lon="11.082322">
        <ele>100.2</ele>
        <time>2016-07-06T15:08:06Z</time>
        <sat>8</sat>
      </trkpt>
      <trkpt lat="43.547400" lon="11.082494">
        <ele>101.5</ele>
        <time>2016-07-06T15:08:07Z</time>
        <sat>8</sat>
      </trkpt>
      <trkpt lat="43.547386" lon="11.082643">
        <ele>102.5</ele>
        <time>2016-07-06T15:08:08Z</time>
        <sat>10</sat>
      </trkpt>
      <trkpt lat="43.547382" lon="11.082768">
        <ele>103.3</ele>
        <time>2016-07-06T15:08:09Z</time>
        <sat>10</sat>
      </trkpt>
      <trkpt lat="43.547370" lon="11.082957">
        <ele>104.0</ele>
        <time>2016-07-06T15:08:11Z</time>
        <sat>10</sat>
      </trkpt>
      <trkpt lat="43.547259" lon="11.083077">
        <ele>104.0</ele>
        <time>2016-07-06T15:08:13Z</time>
        <sat>9</sat>
      </trkpt>
      <trkpt lat="43.547171" lon="11.083111">
        <ele>103.9</ele>
        <time>2016-07-06T15:08:14Z</time>
        <sat>9</sat>
      </trkpt>
      <trkpt lat="43.547063" lon="11.083136">
        <ele>103.5</ele>
        <time>2016-07-06T15:08:15Z</time>
        <sat>9</sat>
      </trkpt>
      <trkpt lat="43.546955" lon="11.083166">
        <ele>103.0</ele>
        <time>2016-07-06T15:08:16Z</time>
        <sat>8</sat>
      </trkpt>
      <trkpt lat="43.546852" lon="11.083198">
        <ele>102.8</ele>
        <time>2016-07-06T15:08:17Z</time>
        <sat>9</sat>
      </trkpt>
      <trkpt lat="43.546748" lon="11.083228">
        <ele>102.9</ele>
        <time>2016-07-06T15:08:18Z</time>
        <sat>10</sat>
      </trkpt>
      <trkpt lat="43.546633" lon="11.083261">
        <ele>103.0</ele>
        <time>2016-07-06T15:08:19Z</time>
        <sat>10</sat>
      </trkpt>
      <trkpt lat="43.546510" lon="11.083293">
        <ele>103.0</ele>
        <time>2016-07-06T15:08:20Z</time>
        <sat>10</sat>
      </trkpt>
      <trkpt lat="43.546395" lon="11.083314">
        <ele>102.9</ele>
        <time>2016-07-06T15:08:21Z</time>
        <sat>9</sat>
      </trkpt>
      <trkpt lat="43.546297" lon="11.083310">
        <ele>103.1</ele>
        <time>2016-07-06T15:08:22Z</time>
        <sat>7</sat>
      </trkpt>
      <trkpt lat="43.546208" lon="11.083267">
        <ele>104.5</ele>
        <time>2016-07-06T15:08:23Z</time>
        <sat>10</sat>
      </trkpt>
      <trkpt lat="43.546131" lon="11.083198">
        <ele>105.0</ele>
        <time>2016-07-06T15:08:24Z</time>
        <sat>9</sat>
      </trkpt>
      <trkpt lat="43.546069" lon="11.083096">
        <ele>105.4</ele>
        <time>2016-07-06T15:08:25Z</time>
        <sat>9</sat>
      </trkpt>
      <trkpt lat="43.546011" lon="11.082968">
        <ele>105.4</ele>
        <time>2016-07-06T15:08:26Z</time>
        <sat>9</sat>
      </trkpt>
      <trkpt lat="43.545948" lon="11.082824">
        <ele>105.3</ele>
        <time>2016-07-06T15:08:27Z</time>
        <sat>9</sat>
      </trkpt>
      <trkpt lat="43.545882" lon="11.082675">
        <ele>105.1</ele>
        <time>2016-07-06T15:08:28Z</time>
        <sat>9</sat>
      </trkpt>
      <trkpt lat="43.545819" lon="11.082531">
        <ele>104.7</ele>
        <time>2016-07-06T15:08:29Z</time>
        <sat>9</sat>
      </trkpt>
      <trkpt lat="43.545758" lon="11.082393">
        <ele>104.7</ele>
        <time>2016-07-06T15:08:30Z</time>
        <sat>9</sat>
      </trkpt>
      <trkpt lat="43.545696" lon="11.082273">
        <ele>104.6</ele>
        <time>2016-07-06T15:08:31Z</time>
        <sat>8</sat>
      </trkpt>
      <trkpt lat="43.545619" lon="11.082174">
        <ele>104.3</ele>
        <time>2016-07-06T15:08:32Z</time>
        <sat>9</sat>
      </trkpt>
      <trkpt lat="43.545523" lon="11.082105">
        <ele>104.2</ele>
        <time>2016-07-06T15:08:33Z</time>
        <sat>8</sat>
      </trkpt>
      <trkpt lat="43.545399" lon="11.082043">
        <ele>103.8</ele>
        <time>2016-07-06T15:08:34Z</time>
        <sat>9</sat>
      </trkpt>
      <trkpt lat="43.545267" lon="11.081991">
        <ele>103.6</ele>
        <time>2016-07-06T15:08:35Z</time>
        <sat>8</sat>
      </trkpt>
      <trkpt lat="43.545133" lon="11.081936">
        <ele>103.3</ele>
        <time>2016-07-06T15:08:36Z</time>
        <sat>9</sat>
      </trkpt>
      <trkpt lat="43.544999" lon="11.081882">
        <ele>102.9</ele>
        <time>2016-07-06T15:08:37Z</time>
        <sat>9</sat>
      </trkpt>
      <trkpt lat="43.544863" lon="11.081836">
        <ele>102.3</ele>
        <time>2016-07-06T15:08:38Z</time>
        <sat>8</sat>
      </trkpt>
      <trkpt lat="43.544721" lon="11.081794">
        <ele>101.9</ele>
        <time>2016-07-06T15:08:39Z</time>
        <sat>10</sat>
      </trkpt>
      <trkpt lat="43.544579" lon="11.081779">
        <ele>101.2</ele>
        <time>2016-07-06T15:08:40Z</time>
        <sat>9</sat>
      </trkpt>
      <trkpt lat="43.544430" lon="11.081784">
        <ele>100.9</ele>
        <time>2016-07-06T15:08:41Z</time>
        <sat>9</sat>
      </trkpt>
      <trkpt lat="43.544275" lon="11.081797">
        <ele>100.9</ele>
        <time>2016-07-06T15:08:42Z</time>
        <sat>9</sat>
      </trkpt>
      <trkpt lat="43.544119" lon="11.081809">
        <ele>100.7</ele>
        <time>2016-07-06T15:08:43Z</time>
        <sat>9</sat>
      </trkpt>
      <trkpt lat="43.543969" lon="11.081828">
        <ele>100.8</ele>
        <time>2016-07-06T15:08:44Z</time>
        <sat>9</sat>
      </trkpt>
      <trkpt lat="43.543839" lon="11.081876">
        <ele>101.1</ele>
        <time>2016-07-06T15:08:45Z</time>
        <sat>9</sat>
      </trkpt>
      <trkpt lat="43.543730" lon="11.081968">
        <ele>101.3</ele>
        <time>2016-07-06T15:08:46Z</time>
        <sat>9</sat>
      </trkpt>
      <trkpt lat="43.543631" lon="11.082090">
        <ele>101.5</ele>
        <time>2016-07-06T15:08:47Z</time>
        <sat>8</sat>
      </trkpt>
      <trkpt lat="43.543539" lon="11.082221">
        <ele>101.7</ele>
        <time>2016-07-06T15:08:48Z</time>
        <sat>9</sat>
      </trkpt>
      <trkpt lat="43.543453" lon="11.082341">
        <ele>102.0</ele>
        <time>2016-07-06T15:08:49Z</time>
        <sat>9</sat>
      </trkpt>
      <trkpt lat="43.543368" lon="11.082436">
        <ele>103.4</ele>
        <time>2016-07-06T15:08:50Z</time>
        <sat>9</sat>
      </trkpt>
      <trkpt lat="43.543270" lon="11.082498">
        <ele>104.4</ele>
        <time>2016-07-06T15:08:51Z</time>
        <sat>9</sat>
      </trkpt>
      <trkpt lat="43.543161" lon="11.082540">
        <ele>105.0</ele>
        <time>2016-07-06T15:08:52Z</time>
        <sat>9</sat>
      </trkpt>
      <trkpt lat="43.543044" lon="11.082574">
        <ele>105.0</ele>
        <time>2016-07-06T15:08:53Z</time>
        <sat>9</sat>
      </trkpt>
      <trkpt lat="43.542925" lon="11.082603">
        <ele>104.8</ele>
        <time>2016-07-06T15:08:54Z</time>
        <sat>9</sat>
      </trkpt>
      <trkpt lat="43.542821" lon="11.082635">
        <ele>104.7</ele>
        <time>2016-07-06T15:08:55Z</time>
        <sat>9</sat>
      </trkpt>
      <trkpt lat="43.542733" lon="11.082669">
        <ele>104.6</ele>
        <time>2016-07-06T15:08:56Z</time>
        <sat>9</sat>
      </trkpt>
      <trkpt lat="43.542495" lon="11.082693">
        <ele>105.2</ele>
        <time>2016-07-06T15:09:01Z</time>
        <sat>9</sat>
      </trkpt>
      <trkpt lat="43.542471" lon="11.082541">
        <ele>106.0</ele>
        <time>2016-07-06T15:09:03Z</time>
        <sat>9</sat>
      </trkpt>
      <trkpt lat="43.542471" lon="11.082312">
        <ele>107.2</ele>
        <time>2016-07-06T15:09:05Z</time>
        <sat>9</sat>
      </trkpt>
      <trkpt lat="43.542466" lon="11.082185">
        <ele>107.4</ele>
        <time>2016-07-06T15:09:06Z</time>
        <sat>9</sat>
      </trkpt>
      <trkpt lat="43.542456" lon="11.082062">
        <ele>107.4</ele>
        <time>2016-07-06T15:09:07Z</time>
        <sat>9</sat>
      </trkpt>
      <trkpt lat="43.542444" lon="11.081926">
        <ele>107.6</ele>
        <time>2016-07-06T15:09:08Z</time>
        <sat>9</sat>
      </trkpt>
      <trkpt lat="43.542433" lon="11.081776">
        <ele>107.4</ele>
        <time>2016-07-06T15:09:09Z</time>
        <sat>9</sat>
      </trkpt>
      <trkpt lat="43.542426" lon="11.081617">
        <ele>107.3</ele>
        <time>2016-07-06T15:09:10Z</time>
        <sat>9</sat>
      </trkpt>
      <trkpt lat="43.542419" lon="11.081461">
        <ele>107.1</ele>
        <time>2016-07-06T15:09:11Z</time>
        <sat>9</sat>
      </trkpt>
      <trkpt lat="43.542412" lon="11.081304">
        <ele>106.8</ele>
        <time>2016-07-06T15:09:12Z</time>
        <sat>9</sat>
      </trkpt>
      <trkpt lat="43.542402" lon="11.081140">
        <ele>105.7</ele>
        <time>2016-07-06T15:09:13Z</time>
        <sat>9</sat>
      </trkpt>
      <trkpt lat="43.542394" lon="11.080976">
        <ele>105.2</ele>
        <time>2016-07-06T15:09:14Z</time>
        <sat>9</sat>
      </trkpt>
      <trkpt lat="43.542384" lon="11.080812">
        <ele>104.6</ele>
        <time>2016-07-06T15:09:15Z</time>
        <sat>9</sat>
      </trkpt>
      <trkpt lat="43.542374" lon="11.080641">
        <ele>104.2</ele>
        <time>2016-07-06T15:09:16Z</time>
        <sat>9</sat>
      </trkpt>
      <trkpt lat="43.542363" lon="11.080455">
        <ele>103.8</ele>
        <time>2016-07-06T15:09:17Z</time>
        <sat>9</sat>
      </trkpt>
      <trkpt lat="43.542360" lon="11.080274">
        <ele>103.0</ele>
        <time>2016-07-06T15:09:18Z</time>
        <sat>9</sat>
      </trkpt>
      <trkpt lat="43.542350" lon="11.080104">
        <ele>101.2</ele>
        <time>2016-07-06T15:09:19Z</time>
        <sat>9</sat>
      </trkpt>
      <trkpt lat="43.542338" lon="11.079948">
        <ele>99.8</ele>
        <time>2016-07-06T15:09:20Z</time>
        <sat>9</sat>
      </trkpt>
      <trkpt lat="43.542317" lon="11.079807">
        <ele>99.3</ele>
        <time>2016-07-06T15:09:21Z</time>
        <sat>9</sat>
      </trkpt>
      <trkpt lat="43.542286" lon="11.079683">
        <ele>98.7</ele>
        <time>2016-07-06T15:09:22Z</time>
        <sat>9</sat>
      </trkpt>
      <trkpt lat="43.542168" lon="11.079499">
        <ele>97.5</ele>
        <time>2016-07-06T15:09:24Z</time>
        <sat>10</sat>
      </trkpt>
      <trkpt lat="43.542073" lon="11.079432">
        <ele>97.7</ele>
        <time>2016-07-06T15:09:25Z</time>
        <sat>10</sat>
      </trkpt>
      <trkpt lat="43.541954" lon="11.079366">
        <ele>97.8</ele>
        <time>2016-07-06T15:09:26Z</time>
        <sat>10</sat>
      </trkpt>
      <trkpt lat="43.541818" lon="11.079292">
        <ele>97.9</ele>
        <time>2016-07-06T15:09:27Z</time>
        <sat>8</sat>
      </trkpt>
      <trkpt lat="43.541673" lon="11.079213">
        <ele>98.3</ele>
        <time>2016-07-06T15:09:28Z</time>
        <sat>9</sat>
      </trkpt>
      <trkpt lat="43.541524" lon="11.079134">
        <ele>98.6</ele>
        <time>2016-07-06T15:09:29Z</time>
        <sat>9</sat>
      </trkpt>
      <trkpt lat="43.541383" lon="11.079060">
        <ele>99.1</ele>
        <time>2016-07-06T15:09:30Z</time>
        <sat>9</sat>
      </trkpt>
      <trkpt lat="43.541258" lon="11.078997">
        <ele>99.8</ele>
        <time>2016-07-06T15:09:31Z</time>
        <sat>10</sat>
      </trkpt>
      <trkpt lat="43.541151" lon="11.078935">
        <ele>100.3</ele>
        <time>2016-07-06T15:09:32Z</time>
        <sat>10</sat>
      </trkpt>
      <trkpt lat="43.541069" lon="11.078876">
        <ele>100.9</ele>
        <time>2016-07-06T15:09:33Z</time>
        <sat>10</sat>
      </trkpt>
      <trkpt lat="43.540979" lon="11.078767">
        <ele>101.4</ele>
        <time>2016-07-06T15:09:35Z</time>
        <sat>10</sat>
      </trkpt>
      <trkpt lat="43.540973" lon="11.078632">
        <ele>101.9</ele>
        <time>2016-07-06T15:09:38Z</time>
        <sat>10</sat>
      </trkpt>
      <trkpt lat="43.540981" lon="11.078476">
        <ele>102.3</ele>
        <time>2016-07-06T15:09:40Z</time>
        <sat>10</sat>
      </trkpt>
      <trkpt lat="43.540968" lon="11.078271">
        <ele>103.8</ele>
        <time>2016-07-06T15:09:42Z</time>
        <sat>8</sat>
      </trkpt>
      <trkpt lat="43.540954" lon="11.078133">
        <ele>103.7</ele>
        <time>2016-07-06T15:09:43Z</time>
        <sat>8</sat>
      </trkpt>
      <trkpt lat="43.540947" lon="11.077984">
        <ele>103.6</ele>
        <time>2016-07-06T15:09:44Z</time>
        <sat>9</sat>
      </trkpt>
      <trkpt lat="43.540938" lon="11.077827">
        <ele>103.6</ele>
        <time>2016-07-06T15:09:45Z</time>
        <sat>8</sat>
      </trkpt>
      <trkpt lat="43.540923" lon="11.077658">
        <ele>103.6</ele>
        <time>2016-07-06T15:09:46Z</time>
        <sat>8</sat>
      </trkpt>
      <trkpt lat="43.540905" lon="11.077480">
        <ele>103.0</ele>
        <time>2016-07-06T15:09:47Z</time>
        <sat>8</sat>
      </trkpt>
      <trkpt lat="43.540895" lon="11.077298">
        <ele>102.3</ele>
        <time>2016-07-06T15:09:48Z</time>
        <sat>9</sat>
      </trkpt>
      <trkpt lat="43.540887" lon="11.077112">
        <ele>101.4</ele>
        <time>2016-07-06T15:09:49Z</time>
        <sat>9</sat>
      </trkpt>
      <trkpt lat="43.540877" lon="11.076917">
        <ele>100.9</ele>
        <time>2016-07-06T15:09:50Z</time>
        <sat>8</sat>
      </trkpt>
      <trkpt lat="43.540863" lon="11.076723">
        <ele>100.4</ele>
        <time>2016-07-06T15:09:51Z</time>
        <sat>8</sat>
      </trkpt>
      <trkpt lat="43.540851" lon="11.076536">
        <ele>100.4</ele>
        <time>2016-07-06T15:09:52Z</time>
        <sat>9</sat>
      </trkpt>
      <trkpt lat="43.540841" lon="11.076353">
        <ele>100.5</ele>
        <time>2016-07-06T15:09:53Z</time>
        <sat>9</sat>
      </trkpt>
      <trkpt lat="43.540834" lon="11.076178">
        <ele>100.7</ele>
        <time>2016-07-06T15:09:54Z</time>
        <sat>9</sat>
      </trkpt>
      <trkpt lat="43.540828" lon="11.076029">
        <ele>101.1</ele>
        <time>2016-07-06T15:09:55Z</time>
        <sat>9</sat>
      </trkpt>
      <trkpt lat="43.540822" lon="11.075905">
        <ele>101.6</ele>
        <time>2016-07-06T15:09:56Z</time>
        <sat>9</sat>
      </trkpt>
      <trkpt lat="43.540774" lon="11.075724">
        <ele>100.9</ele>
        <time>2016-07-06T15:09:58Z</time>
        <sat>8</sat>
      </trkpt>
      <trkpt lat="43.540604" lon="11.075574">
        <ele>101.2</ele>
        <time>2016-07-06T15:10:00Z</time>
        <sat>8</sat>
      </trkpt>
      <trkpt lat="43.540489" lon="11.075527">
        <ele>101.8</ele>
        <time>2016-07-06T15:10:01Z</time>
        <sat>9</sat>
      </trkpt>
      <trkpt lat="43.540366" lon="11.075462">
        <ele>101.1</ele>
        <time>2016-07-06T15:10:02Z</time>
        <sat>10</sat>
      </trkpt>
      <trkpt lat="43.540237" lon="11.075398">
        <ele>101.9</ele>
        <time>2016-07-06T15:10:03Z</time>
        <sat>10</sat>
      </trkpt>
      <trkpt lat="43.540101" lon="11.075328">
        <ele>102.5</ele>
        <time>2016-07-06T15:10:04Z</time>
        <sat>10</sat>
      </trkpt>
      <trkpt lat="43.539958" lon="11.075254">
        <ele>102.8</ele>
        <time>2016-07-06T15:10:05Z</time>
        <sat>10</sat>
      </trkpt>
      <trkpt lat="43.539812" lon="11.075186">
        <ele>103.2</ele>
        <time>2016-07-06T15:10:06Z</time>
        <sat>10</sat>
      </trkpt>
      <trkpt lat="43.539674" lon="11.075117">
        <ele>103.9</ele>
        <time>2016-07-06T15:10:07Z</time>
        <sat>10</sat>
      </trkpt>
      <trkpt lat="43.539545" lon="11.075037">
        <ele>105.5</ele>
        <time>2016-07-06T15:10:08Z</time>
        <sat>10</sat>
      </trkpt>
      <trkpt lat="43.539425" lon="11.074970">
        <ele>106.4</ele>
        <time>2016-07-06T15:10:09Z</time>
        <sat>8</sat>
      </trkpt>
      <trkpt lat="43.539315" lon="11.074920">
        <ele>107.5</ele>
        <time>2016-07-06T15:10:10Z</time>
        <sat>9</sat>
      </trkpt>
      <trkpt lat="43.539214" lon="11.074877">
        <ele>108.6</ele>
        <time>2016-07-06T15:10:11Z</time>
        <sat>9</sat>
      </trkpt>
      <trkpt lat="43.539117" lon="11.074828">
        <ele>110.1</ele>
        <time>2016-07-06T15:10:12Z</time>
        <sat>9</sat>
      </trkpt>
      <trkpt lat="43.539027" lon="11.074757">
        <ele>109.6</ele>
        <time>2016-07-06T15:10:13Z</time>
        <sat>9</sat>
      </trkpt>
      <trkpt lat="43.538937" lon="11.074666">
        <ele>110.4</ele>
        <time>2016-07-06T15:10:14Z</time>
        <sat>10</sat>
      </trkpt>
      <trkpt lat="43.538842" lon="11.074553">
        <ele>111.1</ele>
        <time>2016-07-06T15:10:15Z</time>
        <sat>10</sat>
      </trkpt>
      <trkpt lat="43.538735" lon="11.074424">
        <ele>111.7</ele>
        <time>2016-07-06T15:10:16Z</time>
        <sat>9</sat>
      </trkpt>
      <trkpt lat="43.538628" lon="11.074308">
        <ele>112.1</ele>
        <time>2016-07-06T15:10:17Z</time>
        <sat>10</sat>
      </trkpt>
      <trkpt lat="43.538528" lon="11.074206">
        <ele>112.4</ele>
        <time>2016-07-06T15:10:18Z</time>
        <sat>10</sat>
      </trkpt>
      <trkpt lat="43.538427" lon="11.074103">
        <ele>112.7</ele>
        <time>2016-07-06T15:10:19Z</time>
        <sat>10</sat>
      </trkpt>
      <trkpt lat="43.538325" lon="11.073995">
        <ele>112.5</ele>
        <time>2016-07-06T15:10:20Z</time>
        <sat>9</sat>
      </trkpt>
      <trkpt lat="43.538216" lon="11.073885">
        <ele>111.8</ele>
        <time>2016-07-06T15:10:21Z</time>
        <sat>10</sat>
      </trkpt>
      <trkpt lat="43.538105" lon="11.073770">
        <ele>110.7</ele>
        <time>2016-07-06T15:10:22Z</time>
        <sat>10</sat>
      </trkpt>
      <trkpt lat="43.537994" lon="11.073659">
        <ele>109.3</ele>
        <time>2016-07-06T15:10:23Z</time>
        <sat>10</sat>
      </trkpt>
      <trkpt lat="43.537885" lon="11.073554">
        <ele>108.7</ele>
        <time>2016-07-06T15:10:24Z</time>
        <sat>10</sat>
      </trkpt>
      <trkpt lat="43.537781" lon="11.073452">
        <ele>108.1</ele>
        <time>2016-07-06T15:10:25Z</time>
        <sat>10</sat>
      </trkpt>
      <trkpt lat="43.537688" lon="11.073348">
        <ele>107.9</ele>
        <time>2016-07-06T15:10:26Z</time>
        <sat>10</sat>
      </trkpt>
      <trkpt lat="43.537608" lon="11.073230">
        <ele>107.5</ele>
        <time>2016-07-06T15:10:27Z</time>
        <sat>10</sat>
      </trkpt>
      <trkpt lat="43.537544" lon="11.073089">
        <ele>107.2</ele>
        <time>2016-07-06T15:10:28Z</time>
        <sat>10</sat>
      </trkpt>
      <trkpt lat="43.537493" lon="11.072924">
        <ele>107.1</ele>
        <time>2016-07-06T15:10:29Z</time>
        <sat>10</sat>
      </trkpt>
      <trkpt lat="43.537448" lon="11.072747">
        <ele>106.9</ele>
        <time>2016-07-06T15:10:30Z</time>
        <sat>10</sat>
      </trkpt>
      <trkpt lat="43.537401" lon="11.072574">
        <ele>106.6</ele>
        <time>2016-07-06T15:10:31Z</time>
        <sat>10</sat>
      </trkpt>
      <trkpt lat="43.537357" lon="11.072419">
        <ele>107.0</ele>
        <time>2016-07-06T15:10:32Z</time>
        <sat>10</sat>
      </trkpt>
      <trkpt lat="43.537317" lon="11.072280">
        <ele>107.3</ele>
        <time>2016-07-06T15:10:33Z</time>
        <sat>10</sat>
      </trkpt>
      <trkpt lat="43.537284" lon="11.072159">
        <ele>107.4</ele>
        <time>2016-07-06T15:10:34Z</time>
        <sat>10</sat>
      </trkpt>
      <trkpt lat="43.537223" lon="11.071945">
        <ele>107.3</ele>
        <time>2016-07-06T15:10:36Z</time>
        <sat>10</sat>
      </trkpt>
      <trkpt lat="43.537119" lon="11.071772">
        <ele>106.9</ele>
        <time>2016-07-06T15:10:38Z</time>
        <sat>10</sat>
      </trkpt>
      <trkpt lat="43.537042" lon="11.071694">
        <ele>106.7</ele>
        <time>2016-07-06T15:10:39Z</time>
        <sat>10</sat>
      </trkpt>
      <trkpt lat="43.536942" lon="11.071619">
        <ele>106.0</ele>
        <time>2016-07-06T15:10:40Z</time>
        <sat>9</sat>
      </trkpt>
      <trkpt lat="43.536833" lon="11.071543">
        <ele>105.1</ele>
        <time>2016-07-06T15:10:41Z</time>
        <sat>10</sat>
      </trkpt>
      <trkpt lat="43.536724" lon="11.071460">
        <ele>104.2</ele>
        <time>2016-07-06T15:10:42Z</time>
        <sat>10</sat>
      </trkpt>
      <trkpt lat="43.536608" lon="11.071379">
        <ele>103.4</ele>
        <time>2016-07-06T15:10:43Z</time>
        <sat>9</sat>
      </trkpt>
      <trkpt lat="43.536488" lon="11.071304">
        <ele>103.4</ele>
        <time>2016-07-06T15:10:44Z</time>
        <sat>10</sat>
      </trkpt>
      <trkpt lat="43.536361" lon="11.071241">
        <ele>103.4</ele>
        <time>2016-07-06T15:10:45Z</time>
        <sat>10</sat>
      </trkpt>
      <trkpt lat="43.536234" lon="11.071185">
        <ele>103.4</ele>
        <time>2016-07-06T15:10:46Z</time>
        <sat>10</sat>
      </trkpt>
      <trkpt lat="43.536113" lon="11.071131">
        <ele>103.4</ele>
        <time>2016-07-06T15:10:47Z</time>
        <sat>10</sat>
      </trkpt>
      <trkpt lat="43.535991" lon="11.071078">
        <ele>103.8</ele>
        <time>2016-07-06T15:10:48Z</time>
        <sat>10</sat>
      </trkpt>
      <trkpt lat="43.535871" lon="11.071026">
        <ele>104.2</ele>
        <time>2016-07-06T15:10:49Z</time>
        <sat>10</sat>
      </trkpt>
      <trkpt lat="43.535760" lon="11.070976">
        <ele>104.4</ele>
        <time>2016-07-06T15:10:50Z</time>
        <sat>10</sat>
      </trkpt>
      <trkpt lat="43.535660" lon="11.070931">
        <ele>104.7</ele>
        <time>2016-07-06T15:10:51Z</time>
        <sat>10</sat>
      </trkpt>
      <trkpt lat="43.535559" lon="11.070885">
        <ele>105.2</ele>
        <time>2016-07-06T15:10:52Z</time>
        <sat>10</sat>
      </trkpt>
      <trkpt lat="43.535457" lon="11.070832">
        <ele>105.7</ele>
        <time>2016-07-06T15:10:53Z</time>
        <sat>10</sat>
      </trkpt>
      <trkpt lat="43.535363" lon="11.070778">
        <ele>106.4</ele>
        <time>2016-07-06T15:10:54Z</time>
        <sat>10</sat>
      </trkpt>
      <trkpt lat="43.535273" lon="11.070731">
        <ele>107.4</ele>
        <time>2016-07-06T15:10:55Z</time>
        <sat>10</sat>
      </trkpt>
      <trkpt lat="43.535186" lon="11.070694">
        <ele>108.5</ele>
        <time>2016-07-06T15:10:56Z</time>
        <sat>10</sat>
      </trkpt>
      <trkpt lat="43.535052" lon="11.070600">
        <ele>110.1</ele>
        <time>2016-07-06T15:10:58Z</time>
        <sat>9</sat>
      </trkpt>
      <trkpt lat="43.534958" lon="11.070406">
        <ele>110.4</ele>
        <time>2016-07-06T15:11:00Z</time>
        <sat>10</sat>
      </trkpt>
      <trkpt lat="43.534877" lon="11.070094">
        <ele>110.8</ele>
        <time>2016-07-06T15:11:02Z</time>
        <sat>10</sat>
      </trkpt>
      <trkpt lat="43.534837" lon="11.069919">
        <ele>111.1</ele>
        <time>2016-07-06T15:11:03Z</time>
        <sat>10</sat>
      </trkpt>
      <trkpt lat="43.534798" lon="11.069747">
        <ele>111.5</ele>
        <time>2016-07-06T15:11:04Z</time>
        <sat>10</sat>
      </trkpt>
      <trkpt lat="43.534760" lon="11.069581">
        <ele>112.1</ele>
        <time>2016-07-06T15:11:05Z</time>
        <sat>10</sat>
      </trkpt>
      <trkpt lat="43.534724" lon="11.069421">
        <ele>112.7</ele>
        <time>2016-07-06T15:11:06Z</time>
        <sat>10</sat>
      </trkpt>
      <trkpt lat="43.534688" lon="11.069265">
        <ele>113.5</ele>
        <time>2016-07-06T15:11:07Z</time>
        <sat>10</sat>
      </trkpt>
      <trkpt lat="43.534652" lon="11.069113">
        <ele>114.5</ele>
        <time>2016-07-06T15:11:08Z</time>
        <sat>10</sat>
      </trkpt>
      <trkpt lat="43.534611" lon="11.068964">
        <ele>115.4</ele>
        <time>2016-07-06T15:11:09Z</time>
        <sat>10</sat>
      </trkpt>
      <trkpt lat="43.534565" lon="11.068820">
        <ele>116.0</ele>
        <time>2016-07-06T15:11:10Z</time>
        <sat>10</sat>
      </trkpt>
      <trkpt lat="43.534516" lon="11.068681">
        <ele>116.6</ele>
        <time>2016-07-06T15:11:11Z</time>
        <sat>10</sat>
      </trkpt>
      <trkpt lat="43.534467" lon="11.068560">
        <ele>117.1</ele>
        <time>2016-07-06T15:11:12Z</time>
        <sat>10</sat>
      </trkpt>
      <trkpt lat="43.534386" lon="11.068411">
        <ele>118.0</ele>
        <time>2016-07-06T15:11:14Z</time>
        <sat>10</sat>
      </trkpt>
      <trkpt lat="43.534322" lon="11.068315">
        <ele>119.1</ele>
        <time>2016-07-06T15:11:16Z</time>
        <sat>9</sat>
      </trkpt>
      <trkpt lat="43.534242" lon="11.068189">
        <ele>116.9</ele>
        <time>2016-07-06T15:11:20Z</time>
        <sat>10</sat>
      </trkpt>
      <trkpt lat="43.534220" lon="11.068001">
        <ele>116.0</ele>
        <time>2016-07-06T15:11:22Z</time>
        <sat>9</sat>
      </trkpt>
      <trkpt lat="43.534158" lon="11.067798">
        <ele>110.9</ele>
        <time>2016-07-06T15:11:24Z</time>
        <sat>10</sat>
      </trkpt>
      <trkpt lat="43.534104" lon="11.067699">
        <ele>109.5</ele>
        <time>2016-07-06T15:11:25Z</time>
        <sat>7</sat>
      </trkpt>
      <trkpt lat="43.534037" lon="11.067604">
        <ele>108.3</ele>
        <time>2016-07-06T15:11:26Z</time>
        <sat>9</sat>
      </trkpt>
      <trkpt lat="43.533963" lon="11.067512">
        <ele>106.8</ele>
        <time>2016-07-06T15:11:27Z</time>
        <sat>9</sat>
      </trkpt>
      <trkpt lat="43.533893" lon="11.067424">
        <ele>105.3</ele>
        <time>2016-07-06T15:11:28Z</time>
        <sat>9</sat>
      </trkpt>
      <trkpt lat="43.533825" lon="11.067339">
        <ele>104.0</ele>
        <time>2016-07-06T15:11:29Z</time>
        <sat>9</sat>
      </trkpt>
      <trkpt lat="43.533752" lon="11.067258">
        <ele>102.9</ele>
        <time>2016-07-06T15:11:30Z</time>
        <sat>8</sat>
      </trkpt>
      <trkpt lat="43.533677" lon="11.067168">
        <ele>101.6</ele>
        <time>2016-07-06T15:11:31Z</time>
        <sat>9</sat>
      </trkpt>
      <trkpt lat="43.533611" lon="11.067074">
        <ele>100.3</ele>
        <time>2016-07-06T15:11:32Z</time>
        <sat>8</sat>
      </trkpt>
      <trkpt lat="43.533551" lon="11.066973">
        <ele>98.9</ele>
        <time>2016-07-06T15:11:33Z</time>
        <sat>9</sat>
      </trkpt>
      <trkpt lat="43.533486" lon="11.066864">
        <ele>97.0</ele>
        <time>2016-07-06T15:11:34Z</time>
        <sat>9</sat>
      </trkpt>
      <trkpt lat="43.533421" lon="11.066751">
        <ele>95.3</ele>
        <time>2016-07-06T15:11:35Z</time>
        <sat>9</sat>
      </trkpt>
      <trkpt lat="43.533354" lon="11.066643">
        <ele>93.7</ele>
        <time>2016-07-06T15:11:36Z</time>
        <sat>9</sat>
      </trkpt>
      <trkpt lat="43.533287" lon="11.066545">
        <ele>92.0</ele>
        <time>2016-07-06T15:11:37Z</time>
        <sat>9</sat>
      </trkpt>
      <trkpt lat="43.533219" lon="11.066456">
        <ele>90.4</ele>
        <time>2016-07-06T15:11:38Z</time>
        <sat>9</sat>
      </trkpt>
      <trkpt lat="43.533143" lon="11.066374">
        <ele>88.9</ele>
        <time>2016-07-06T15:11:39Z</time>
        <sat>9</sat>
      </trkpt>
      <trkpt lat="43.533057" lon="11.066289">
        <ele>87.1</ele>
        <time>2016-07-06T15:11:40Z</time>
        <sat>9</sat>
      </trkpt>
      <trkpt lat="43.532962" lon="11.066195">
        <ele>85.2</ele>
        <time>2016-07-06T15:11:41Z</time>
        <sat>9</sat>
      </trkpt>
      <trkpt lat="43.532863" lon="11.066093">
        <ele>83.2</ele>
        <time>2016-07-06T15:11:42Z</time>
        <sat>9</sat>
      </trkpt>
      <trkpt lat="43.532766" lon="11.065989">
        <ele>80.8</ele>
        <time>2016-07-06T15:11:43Z</time>
        <sat>9</sat>
      </trkpt>
      <trkpt lat="43.532668" lon="11.065884">
        <ele>78.5</ele>
        <time>2016-07-06T15:11:44Z</time>
        <sat>8</sat>
      </trkpt>
      <trkpt lat="43.532565" lon="11.065778">
        <ele>76.3</ele>
        <time>2016-07-06T15:11:45Z</time>
        <sat>7</sat>
      </trkpt>
      <trkpt lat="43.532461" lon="11.065669">
        <ele>73.9</ele>
        <time>2016-07-06T15:11:46Z</time>
        <sat>9</sat>
      </trkpt>
      <trkpt lat="43.532351" lon="11.065556">
        <ele>72.0</ele>
        <time>2016-07-06T15:11:47Z</time>
        <sat>7</sat>
      </trkpt>
      <trkpt lat="43.532242" lon="11.065443">
        <ele>70.4</ele>
        <time>2016-07-06T15:11:48Z</time>
        <sat>9</sat>
      </trkpt>
      <trkpt lat="43.532142" lon="11.065346">
        <ele>69.3</ele>
        <time>2016-07-06T15:11:49Z</time>
        <sat>9</sat>
      </trkpt>
      <trkpt lat="43.532045" lon="11.065248">
        <ele>67.9</ele>
        <time>2016-07-06T15:11:50Z</time>
        <sat>10</sat>
      </trkpt>
      <trkpt lat="43.531953" lon="11.065153">
        <ele>66.9</ele>
        <time>2016-07-06T15:11:51Z</time>
        <sat>10</sat>
      </trkpt>
      <trkpt lat="43.531866" lon="11.065066">
        <ele>65.9</ele>
        <time>2016-07-06T15:11:52Z</time>
        <sat>10</sat>
      </trkpt>
      <trkpt lat="43.531781" lon="11.064978">
        <ele>64.6</ele>
        <time>2016-07-06T15:11:53Z</time>
        <sat>10</sat>
      </trkpt>
      <trkpt lat="43.531701" lon="11.064897">
        <ele>63.3</ele>
        <time>2016-07-06T15:11:54Z</time>
        <sat>10</sat>
      </trkpt>
      <trkpt lat="43.531620" lon="11.064812">
        <ele>62.2</ele>
        <time>2016-07-06T15:11:55Z</time>
        <sat>10</sat>
      </trkpt>
      <trkpt lat="43.531542" lon="11.064731">
        <ele>61.1</ele>
        <time>2016-07-06T15:11:56Z</time>
        <sat>10</sat>
      </trkpt>
      <trkpt lat="43.531466" lon="11.064643">
        <ele>60.1</ele>
        <time>2016-07-06T15:11:57Z</time>
        <sat>10</sat>
      </trkpt>
      <trkpt lat="43.531405" lon="11.064545">
        <ele>59.3</ele>
        <time>2016-07-06T15:11:58Z</time>
        <sat>9</sat>
      </trkpt>
      <trkpt lat="43.531356" lon="11.064422">
        <ele>58.7</ele>
        <time>2016-07-06T15:11:59Z</time>
        <sat>9</sat>
      </trkpt>
      <trkpt lat="43.531319" lon="11.064277">
        <ele>58.0</ele>
        <time>2016-07-06T15:12:00Z</time>
        <sat>9</sat>
      </trkpt>
      <trkpt lat="43.531293" lon="11.064134">
        <ele>57.4</ele>
        <time>2016-07-06T15:12:01Z</time>
        <sat>8</sat>
      </trkpt>
      <trkpt lat="43.531259" lon="11.063872">
        <ele>56.0</ele>
        <time>2016-07-06T15:12:03Z</time>
        <sat>9</sat>
      </trkpt>
      <trkpt lat="43.531231" lon="11.063657">
        <ele>54.1</ele>
        <time>2016-07-06T15:12:05Z</time>
        <sat>8</sat>
      </trkpt>
      <trkpt lat="43.531204" lon="11.063500">
        <ele>52.4</ele>
        <time>2016-07-06T15:12:07Z</time>
        <sat>7</sat>
      </trkpt>
      <trkpt lat="43.531095" lon="11.063432">
        <ele>50.3</ele>
        <time>2016-07-06T15:12:10Z</time>
        <sat>7</sat>
      </trkpt>
      <trkpt lat="43.530987" lon="11.063534">
        <ele>48.9</ele>
        <time>2016-07-06T15:12:12Z</time>
        <sat>7</sat>
      </trkpt>
      <trkpt lat="43.530877" lon="11.063618">
        <ele>46.2</ele>
        <time>2016-07-06T15:12:14Z</time>
        <sat>8</sat>
      </trkpt>
      <trkpt lat="43.530739" lon="11.063582">
        <ele>43.5</ele>
        <time>2016-07-06T15:12:16Z</time>
        <sat>8</sat>
      </trkpt>
      <trkpt lat="43.530620" lon="11.063484">
        <ele>41.5</ele>
        <time>2016-07-06T15:12:18Z</time>
        <sat>8</sat>
      </trkpt>
      <trkpt lat="43.530497" lon="11.063372">
        <ele>40.2</ele>
        <time>2016-07-06T15:12:20Z</time>
        <sat>8</sat>
      </trkpt>
      <trkpt lat="43.530409" lon="11.063201">
        <ele>38.5</ele>
        <time>2016-07-06T15:12:22Z</time>
        <sat>6</sat>
      </trkpt>
      <trkpt lat="43.530361" lon="11.063031">
        <ele>37.2</ele>
        <time>2016-07-06T15:12:24Z</time>
        <sat>9</sat>
      </trkpt>
      <trkpt lat="43.530314" lon="11.062880">
        <ele>35.6</ele>
        <time>2016-07-06T15:12:26Z</time>
        <sat>9</sat>
      </trkpt>
      <trkpt lat="43.530277" lon="11.062754">
        <ele>34.0</ele>
        <time>2016-07-06T15:12:28Z</time>
        <sat>8</sat>
      </trkpt>
      <trkpt lat="43.530239" lon="11.062608">
        <ele>32.9</ele>
        <time>2016-07-06T15:12:31Z</time>
        <sat>9</sat>
      </trkpt>
      <trkpt lat="43.530203" lon="11.062492">
        <ele>33.2</ele>
        <time>2016-07-06T15:12:36Z</time>
        <sat>9</sat>
      </trkpt>
      <trkpt lat="43.530101" lon="11.062377">
        <ele>34.3</ele>
        <time>2016-07-06T15:12:38Z</time>
        <sat>9</sat>
      </trkpt>
      <trkpt lat="43.529955" lon="11.062271">
        <ele>34.9</ele>
        <time>2016-07-06T15:12:40Z</time>
        <sat>9</sat>
      </trkpt>
      <trkpt lat="43.529853" lon="11.062190">
        <ele>34.7</ele>
        <time>2016-07-06T15:12:42Z</time>
        <sat>9</sat>
      </trkpt>
      <trkpt lat="43.529765" lon="11.062164">
        <ele>34.2</ele>
        <time>2016-07-06T15:12:44Z</time>
        <sat>9</sat>
      </trkpt>
      <trkpt lat="43.529677" lon="11.062239">
        <ele>33.5</ele>
        <time>2016-07-06T15:12:46Z</time>
        <sat>10</sat>
      </trkpt>
      <trkpt lat="43.529608" lon="11.062447">
        <ele>32.1</ele>
        <time>2016-07-06T15:12:48Z</time>
        <sat>10</sat>
      </trkpt>
      <trkpt lat="43.529582" lon="11.062585">
        <ele>31.2</ele>
        <time>2016-07-06T15:12:49Z</time>
        <sat>10</sat>
      </trkpt>
      <trkpt lat="43.529557" lon="11.062743">
        <ele>30.1</ele>
        <time>2016-07-06T15:12:50Z</time>
        <sat>10</sat>
      </trkpt>
      <trkpt lat="43.529530" lon="11.062926">
        <ele>28.9</ele>
        <time>2016-07-06T15:12:51Z</time>
        <sat>8</sat>
      </trkpt>
      <trkpt lat="43.529494" lon="11.063129">
        <ele>28.2</ele>
        <time>2016-07-06T15:12:52Z</time>
        <sat>9</sat>
      </trkpt>
      <trkpt lat="43.529453" lon="11.063341">
        <ele>27.8</ele>
        <time>2016-07-06T15:12:53Z</time>
        <sat>9</sat>
      </trkpt>
      <trkpt lat="43.529413" lon="11.063549">
        <ele>27.5</ele>
        <time>2016-07-06T15:12:54Z</time>
        <sat>8</sat>
      </trkpt>
      <trkpt lat="43.529378" lon="11.063758">
        <ele>27.4</ele>
        <time>2016-07-06T15:12:55Z</time>
        <sat>10</sat>
      </trkpt>
      <trkpt lat="43.529350" lon="11.063978">
        <ele>27.3</ele>
        <time>2016-07-06T15:12:56Z</time>
        <sat>10</sat>
      </trkpt>
      <trkpt lat="43.529326" lon="11.064204">
        <ele>27.2</ele>
        <time>2016-07-06T15:12:57Z</time>
        <sat>10</sat>
      </trkpt>
      <trkpt lat="43.529301" lon="11.064426">
        <ele>27.1</ele>
        <time>2016-07-06T15:12:58Z</time>
        <sat>9</sat>
      </trkpt>
      <trkpt lat="43.529275" lon="11.064659">
        <ele>26.9</ele>
        <time>2016-07-06T15:12:59Z</time>
        <sat>9</sat>
      </trkpt>
      <trkpt lat="43.529251" lon="11.064905">
        <ele>26.6</ele>
        <time>2016-07-06T15:13:00Z</time>
        <sat>9</sat>
      </trkpt>
      <trkpt lat="43.529226" lon="11.065144">
        <ele>26.3</ele>
        <time>2016-07-06T15:13:01Z</time>
        <sat>10</sat>
      </trkpt>
      <trkpt lat="43.529203" lon="11.065377">
        <ele>26.1</ele>
        <time>2016-07-06T15:13:02Z</time>
        <sat>9</sat>
      </trkpt>
      <trkpt lat="43.529147" lon="11.065822">
        <ele>25.2</ele>
        <time>2016-07-06T15:13:04Z</time>
        <sat>9</sat>
      </trkpt>
      <trkpt lat="43.529124" lon="11.066027">
        <ele>23.3</ele>
        <time>2016-07-06T15:13:05Z</time>
        <sat>9</sat>
      </trkpt>
      <trkpt lat="43.529103" lon="11.066227">
        <ele>22.9</ele>
        <time>2016-07-06T15:13:06Z</time>
        <sat>9</sat>
      </trkpt>
      <trkpt lat="43.529083" lon="11.066429">
        <ele>23.4</ele>
        <time>2016-07-06T15:13:07Z</time>
        <sat>9</sat>
      </trkpt>
      <trkpt lat="43.529063" lon="11.066651">
        <ele>23.9</ele>
        <time>2016-07-06T15:13:08Z</time>
        <sat>9</sat>
      </trkpt>
      <trkpt lat="43.529044" lon="11.066881">
        <ele>23.6</ele>
        <time>2016-07-06T15:13:09Z</time>
        <sat>9</sat>
      </trkpt>
      <trkpt lat="43.529024" lon="11.067101">
        <ele>24.1</ele>
        <time>2016-07-06T15:13:10Z</time>
        <sat>9</sat>
      </trkpt>
      <trkpt lat="43.529002" lon="11.067314">
        <ele>23.1</ele>
        <time>2016-07-06T15:13:11Z</time>
        <sat>9</sat>
      </trkpt>
      <trkpt lat="43.528981" lon="11.067521">
        <ele>22.9</ele>
        <time>2016-07-06T15:13:12Z</time>
        <sat>10</sat>
      </trkpt>
      <trkpt lat="43.528959" lon="11.067726">
        <ele>22.6</ele>
        <time>2016-07-06T15:13:13Z</time>
        <sat>10</sat>
      </trkpt>
      <trkpt lat="43.528936" lon="11.067933">
        <ele>22.9</ele>
        <time>2016-07-06T15:13:14Z</time>
        <sat>9</sat>
      </trkpt>
      <trkpt lat="43.528913" lon="11.068134">
        <ele>23.2</ele>
        <time>2016-07-06T15:13:15Z</time>
        <sat>9</sat>
      </trkpt>
      <trkpt lat="43.528891" lon="11.068320">
        <ele>23.6</ele>
        <time>2016-07-06T15:13:16Z</time>
        <sat>10</sat>
      </trkpt>
      <trkpt lat="43.528870" lon="11.068484">
        <ele>23.7</ele>
        <time>2016-07-06T15:13:17Z</time>
        <sat>10</sat>
      </trkpt>
      <trkpt lat="43.528851" lon="11.068626">
        <ele>23.6</ele>
        <time>2016-07-06T15:13:18Z</time>
        <sat>10</sat>
      </trkpt>
      <trkpt lat="43.528822" lon="11.068838">
        <ele>23.6</ele>
        <time>2016-07-06T15:13:20Z</time>
        <sat>10</sat>
      </trkpt>
      <trkpt lat="43.528784" lon="11.068966">
        <ele>23.5</ele>
        <time>2016-07-06T15:13:22Z</time>
        <sat>10</sat>
      </trkpt>
      <trkpt lat="43.528668" lon="11.068988">
        <ele>23.5</ele>
        <time>2016-07-06T15:13:25Z</time>
        <sat>9</sat>
      </trkpt>
      <trkpt lat="43.528529" lon="11.068948">
        <ele>23.1</ele>
        <time>2016-07-06T15:13:27Z</time>
        <sat>7</sat>
      </trkpt>
      <trkpt lat="43.528362" lon="11.068905">
        <ele>23.3</ele>
        <time>2016-07-06T15:13:29Z</time>
        <sat>10</sat>
      </trkpt>
      <trkpt lat="43.528218" lon="11.069080">
        <ele>23.5</ele>
        <time>2016-07-06T15:13:31Z</time>
        <sat>10</sat>
      </trkpt>
      <trkpt lat="43.528150" lon="11.069245">
        <ele>24.8</ele>
        <time>2016-07-06T15:13:32Z</time>
        <sat>10</sat>
      </trkpt>
      <trkpt lat="43.528082" lon="11.069422">
        <ele>25.2</ele>
        <time>2016-07-06T15:13:33Z</time>
        <sat>10</sat>
      </trkpt>
      <trkpt lat="43.528016" lon="11.069583">
        <ele>24.5</ele>
        <time>2016-07-06T15:13:34Z</time>
        <sat>10</sat>
      </trkpt>
      <trkpt lat="43.527957" lon="11.069726">
        <ele>24.6</ele>
        <time>2016-07-06T15:13:35Z</time>
        <sat>10</sat>
      </trkpt>
      <trkpt lat="43.527901" lon="11.069866">
        <ele>24.6</ele>
        <time>2016-07-06T15:13:36Z</time>
        <sat>9</sat>
      </trkpt>
      <trkpt lat="43.527848" lon="11.070009">
        <ele>24.9</ele>
        <time>2016-07-06T15:13:37Z</time>
        <sat>9</sat>
      </trkpt>
      <trkpt lat="43.527801" lon="11.070141">
        <ele>25.3</ele>
        <time>2016-07-06T15:13:38Z</time>
        <sat>10</sat>
      </trkpt>
      <trkpt lat="43.527734" lon="11.070321">
        <ele>25.4</ele>
        <time>2016-07-06T15:13:40Z</time>
        <sat>10</sat>
      </trkpt>
      <trkpt lat="43.527684" lon="11.070439">
        <ele>25.6</ele>
        <time>2016-07-06T15:13:52Z</time>
        <sat>9</sat>
      </trkpt>
      <trkpt lat="43.527635" lon="11.070560">
        <ele>25.2</ele>
        <time>2016-07-06T15:13:54Z</time>
        <sat>10</sat>
      </trkpt>
      <trkpt lat="43.527587" lon="11.070709">
        <ele>25.5</ele>
        <time>2016-07-06T15:13:56Z</time>
        <sat>10</sat>
      </trkpt>
      <trkpt lat="43.527585" lon="11.070836">
        <ele>25.9</ele>
        <time>2016-07-06T15:13:58Z</time>
        <sat>8</sat>
      </trkpt>
      <trkpt lat="43.527664" lon="11.070938">
        <ele>26.8</ele>
        <time>2016-07-06T15:14:00Z</time>
        <sat>10</sat>
      </trkpt>
      <trkpt lat="43.527787" lon="11.071057">
        <ele>26.6</ele>
        <time>2016-07-06T15:14:02Z</time>
        <sat>10</sat>
      </trkpt>
      <trkpt lat="43.527886" lon="11.071207">
        <ele>26.9</ele>
        <time>2016-07-06T15:14:04Z</time>
        <sat>10</sat>
      </trkpt>
      <trkpt lat="43.527989" lon="11.071537">
        <ele>27.1</ele>
        <time>2016-07-06T15:14:08Z</time>
        <sat>10</sat>
      </trkpt>
      <trkpt lat="43.527945" lon="11.071742">
        <ele>27.2</ele>
        <time>2016-07-06T15:14:10Z</time>
        <sat>10</sat>
      </trkpt>
      <trkpt lat="43.527899" lon="11.071878">
        <ele>27.5</ele>
        <time>2016-07-06T15:14:11Z</time>
        <sat>10</sat>
      </trkpt>
      <trkpt lat="43.527846" lon="11.072029">
        <ele>27.5</ele>
        <time>2016-07-06T15:14:12Z</time>
        <sat>8</sat>
      </trkpt>
      <trkpt lat="43.527790" lon="11.072194">
        <ele>27.5</ele>
        <time>2016-07-06T15:14:13Z</time>
        <sat>9</sat>
      </trkpt>
      <trkpt lat="43.527728" lon="11.072367">
        <ele>27.4</ele>
        <time>2016-07-06T15:14:14Z</time>
        <sat>10</sat>
      </trkpt>
      <trkpt lat="43.527661" lon="11.072526">
        <ele>27.4</ele>
        <time>2016-07-06T15:14:15Z</time>
        <sat>10</sat>
      </trkpt>
      <trkpt lat="43.527599" lon="11.072652">
        <ele>27.4</ele>
        <time>2016-07-06T15:14:16Z</time>
        <sat>10</sat>
      </trkpt>
      <trkpt lat="43.527521" lon="11.072797">
        <ele>27.1</ele>
        <time>2016-07-06T15:14:18Z</time>
        <sat>10</sat>
      </trkpt>
      <trkpt lat="43.527433" lon="11.072856">
        <ele>27.5</ele>
        <time>2016-07-06T15:14:25Z</time>
        <sat>10</sat>
      </trkpt>
      <trkpt lat="43.527322" lon="11.072911">
        <ele>28.5</ele>
        <time>2016-07-06T15:14:33Z</time>
        <sat>10</sat>
      </trkpt>
      <trkpt lat="43.527206" lon="11.072975">
        <ele>26.4</ele>
        <time>2016-07-06T15:14:37Z</time>
        <sat>9</sat>
      </trkpt>
      <trkpt lat="43.527125" lon="11.073052">
        <ele>26.4</ele>
        <time>2016-07-06T15:14:39Z</time>
        <sat>9</sat>
      </trkpt>
      <trkpt lat="43.527027" lon="11.073142">
        <ele>27.5</ele>
        <time>2016-07-06T15:14:41Z</time>
        <sat>9</sat>
      </trkpt>
      <trkpt lat="43.526934" lon="11.073208">
        <ele>27.9</ele>
        <time>2016-07-06T15:14:43Z</time>
        <sat>9</sat>
      </trkpt>
      <trkpt lat="43.526845" lon="11.073297">
        <ele>28.0</ele>
        <time>2016-07-06T15:14:45Z</time>
        <sat>10</sat>
      </trkpt>
      <trkpt lat="43.526760" lon="11.073408">
        <ele>28.1</ele>
        <time>2016-07-06T15:14:47Z</time>
        <sat>10</sat>
      </trkpt>
      <trkpt lat="43.526673" lon="11.073532">
        <ele>28.1</ele>
        <time>2016-07-06T15:14:49Z</time>
        <sat>10</sat>
      </trkpt>
      <trkpt lat="43.526585" lon="11.073668">
        <ele>28.3</ele>
        <time>2016-07-06T15:14:51Z</time>
        <sat>10</sat>
      </trkpt>
      <trkpt lat="43.526516" lon="11.073788">
        <ele>28.2</ele>
        <time>2016-07-06T15:14:53Z</time>
        <sat>10</sat>
      </trkpt>
      <trkpt lat="43.526448" lon="11.073905">
        <ele>28.3</ele>
        <time>2016-07-06T15:14:55Z</time>
        <sat>10</sat>
      </trkpt>
      <trkpt lat="43.526352" lon="11.074034">
        <ele>28.1</ele>
        <time>2016-07-06T15:14:58Z</time>
        <sat>10</sat>
      </trkpt>
      <trkpt lat="43.526284" lon="11.074165">
        <ele>28.2</ele>
        <time>2016-07-06T15:15:00Z</time>
        <sat>10</sat>
      </trkpt>
      <trkpt lat="43.526198" lon="11.074282">
        <ele>28.0</ele>
        <time>2016-07-06T15:15:02Z</time>
        <sat>10</sat>
      </trkpt>
      <trkpt lat="43.526094" lon="11.074383">
        <ele>27.8</ele>
        <time>2016-07-06T15:15:04Z</time>
        <sat>10</sat>
      </trkpt>
      <trkpt lat="43.525989" lon="11.074489">
        <ele>27.8</ele>
        <time>2016-07-06T15:15:06Z</time>
        <sat>10</sat>
      </trkpt>
      <trkpt lat="43.525805" lon="11.074682">
        <ele>27.8</ele>
        <time>2016-07-06T15:15:11Z</time>
        <sat>10</sat>
      </trkpt>
      <trkpt lat="43.525741" lon="11.074769">
        <ele>27.8</ele>
        <time>2016-07-06T15:15:16Z</time>
        <sat>10</sat>
      </trkpt>
      <trkpt lat="43.525790" lon="11.074898">
        <ele>29.1</ele>
        <time>2016-07-06T15:16:21Z</time>
        <sat>10</sat>
      </trkpt>
      <trkpt lat="43.525856" lon="11.075156">
        <ele>29.1</ele>
        <time>2016-07-06T15:16:34Z</time>
        <sat>10</sat>
      </trkpt>
      <trkpt lat="43.525923" lon="11.075256">
        <ele>29.4</ele>
        <time>2016-07-06T15:16:43Z</time>
        <sat>10</sat>
      </trkpt>
      <trkpt lat="43.526010" lon="11.075181">
        <ele>30.1</ele>
        <time>2016-07-06T15:20:53Z</time>
        <sat>9</sat>
      </trkpt>
      <trkpt lat="43.526182" lon="11.075013">
        <ele>30.2</ele>
        <time>2016-07-06T15:21:01Z</time>
        <sat>9</sat>
      </trkpt>
      <trkpt lat="43.526255" lon="11.074910">
        <ele>30.5</ele>
        <time>2016-07-06T15:21:41Z</time>
        <sat>10</sat>
      </trkpt>
      <trkpt lat="43.526336" lon="11.074787">
        <ele>30.6</ele>
        <time>2016-07-06T15:21:45Z</time>
        <sat>9</sat>
      </trkpt>
      <trkpt lat="43.526411" lon="11.074698">
        <ele>30.4</ele>
        <time>2016-07-06T15:21:48Z</time>
        <sat>9</sat>
      </trkpt>
      <trkpt lat="43.526491" lon="11.074583">
        <ele>30.5</ele>
        <time>2016-07-06T15:21:51Z</time>
        <sat>9</sat>
      </trkpt>
      <trkpt lat="43.526582" lon="11.074457">
        <ele>30.5</ele>
        <time>2016-07-06T15:21:54Z</time>
        <sat>9</sat>
      </trkpt>
      <trkpt lat="43.526643" lon="11.074360">
        <ele>30.5</ele>
        <time>2016-07-06T15:21:56Z</time>
        <sat>10</sat>
      </trkpt>
      <trkpt lat="43.526803" lon="11.074140">
        <ele>30.1</ele>
        <time>2016-07-06T15:22:05Z</time>
        <sat>9</sat>
      </trkpt>
      <trkpt lat="43.526880" lon="11.073995">
        <ele>30.1</ele>
        <time>2016-07-06T15:22:08Z</time>
        <sat>10</sat>
      </trkpt>
      <trkpt lat="43.526947" lon="11.073898">
        <ele>30.0</ele>
        <time>2016-07-06T15:22:10Z</time>
        <sat>9</sat>
      </trkpt>
      <trkpt lat="43.527017" lon="11.073762">
        <ele>30.1</ele>
        <time>2016-07-06T15:22:13Z</time>
        <sat>10</sat>
      </trkpt>
      <trkpt lat="43.527092" lon="11.073643">
        <ele>30.0</ele>
        <time>2016-07-06T15:22:16Z</time>
        <sat>10</sat>
      </trkpt>
      <trkpt lat="43.527157" lon="11.073518">
        <ele>29.8</ele>
        <time>2016-07-06T15:22:19Z</time>
        <sat>10</sat>
      </trkpt>
      <trkpt lat="43.527212" lon="11.073412">
        <ele>29.5</ele>
        <time>2016-07-06T15:22:22Z</time>
        <sat>10</sat>
      </trkpt>
      <trkpt lat="43.527269" lon="11.073292">
        <ele>29.8</ele>
        <time>2016-07-06T15:23:17Z</time>
        <sat>9</sat>
      </trkpt>
      <trkpt lat="43.527153" lon="11.073103">
        <ele>29.5</ele>
        <time>2016-07-06T15:24:12Z</time>
        <sat>10</sat>
      </trkpt>
      <trkpt lat="43.527171" lon="11.072961">
        <ele>29.7</ele>
        <time>2016-07-06T15:25:17Z</time>
        <sat>9</sat>
      </trkpt>
      <trkpt lat="43.527387" lon="11.072849">
        <ele>30.4</ele>
        <time>2016-07-06T15:25:23Z</time>
        <sat>10</sat>
      </trkpt>
      <trkpt lat="43.527477" lon="11.072791">
        <ele>30.1</ele>
        <time>2016-07-06T15:25:25Z</time>
        <sat>8</sat>
      </trkpt>
      <trkpt lat="43.527565" lon="11.072643">
        <ele>30.2</ele>
        <time>2016-07-06T15:25:27Z</time>
        <sat>9</sat>
      </trkpt>
      <trkpt lat="43.527614" lon="11.072531">
        <ele>30.2</ele>
        <time>2016-07-06T15:25:28Z</time>
        <sat>10</sat>
      </trkpt>
      <trkpt lat="43.527671" lon="11.072392">
        <ele>30.2</ele>
        <time>2016-07-06T15:25:29Z</time>
        <sat>10</sat>
      </trkpt>
      <trkpt lat="43.527734" lon="11.072230">
        <ele>30.2</ele>
        <time>2016-07-06T15:25:30Z</time>
        <sat>10</sat>
      </trkpt>
      <trkpt lat="43.527792" lon="11.072058">
        <ele>30.2</ele>
        <time>2016-07-06T15:25:31Z</time>
        <sat>10</sat>
      </trkpt>
      <trkpt lat="43.527843" lon="11.071889">
        <ele>30.2</ele>
        <time>2016-07-06T15:25:32Z</time>
        <sat>10</sat>
      </trkpt>
      <trkpt lat="43.527886" lon="11.071752">
        <ele>30.1</ele>
        <time>2016-07-06T15:25:33Z</time>
        <sat>10</sat>
      </trkpt>
      <trkpt lat="43.527931" lon="11.071579">
        <ele>29.9</ele>
        <time>2016-07-06T15:25:35Z</time>
        <sat>10</sat>
      </trkpt>
      <trkpt lat="43.527910" lon="11.071434">
        <ele>29.6</ele>
        <time>2016-07-06T15:25:37Z</time>
        <sat>10</sat>
      </trkpt>
      <trkpt lat="43.527842" lon="11.071250">
        <ele>29.4</ele>
        <time>2016-07-06T15:25:39Z</time>
        <sat>10</sat>
      </trkpt>
      <trkpt lat="43.527762" lon="11.071089">
        <ele>29.9</ele>
        <time>2016-07-06T15:25:41Z</time>
        <sat>10</sat>
      </trkpt>
      <trkpt lat="43.527650" lon="11.070953">
        <ele>29.9</ele>
        <time>2016-07-06T15:25:43Z</time>
        <sat>9</sat>
      </trkpt>
      <trkpt lat="43.527539" lon="11.070840">
        <ele>30.3</ele>
        <time>2016-07-06T15:25:45Z</time>
        <sat>9</sat>
      </trkpt>
      <trkpt lat="43.527383" lon="11.070699">
        <ele>30.6</ele>
        <time>2016-07-06T15:25:47Z</time>
        <sat>9</sat>
      </trkpt>
      <trkpt lat="43.527285" lon="11.070606">
        <ele>30.6</ele>
        <time>2016-07-06T15:25:48Z</time>
        <sat>9</sat>
      </trkpt>
      <trkpt lat="43.527181" lon="11.070501">
        <ele>30.6</ele>
        <time>2016-07-06T15:25:49Z</time>
        <sat>10</sat>
      </trkpt>
      <trkpt lat="43.527076" lon="11.070394">
        <ele>30.5</ele>
        <time>2016-07-06T15:25:50Z</time>
        <sat>10</sat>
      </trkpt>
      <trkpt lat="43.526982" lon="11.070301">
        <ele>30.5</ele>
        <time>2016-07-06T15:25:51Z</time>
        <sat>10</sat>
      </trkpt>
      <trkpt lat="43.526896" lon="11.070215">
        <ele>30.5</ele>
        <time>2016-07-06T15:25:52Z</time>
        <sat>9</sat>
      </trkpt>
      <trkpt lat="43.526815" lon="11.070134">
        <ele>30.4</ele>
        <time>2016-07-06T15:25:53Z</time>
        <sat>10</sat>
      </trkpt>
      <trkpt lat="43.526737" lon="11.070060">
        <ele>30.4</ele>
        <time>2016-07-06T15:25:54Z</time>
        <sat>10</sat>
      </trkpt>
      <trkpt lat="43.526608" lon="11.069960">
        <ele>30.3</ele>
        <time>2016-07-06T15:25:56Z</time>
        <sat>10</sat>
      </trkpt>
      <trkpt lat="43.526485" lon="11.069933">
        <ele>29.7</ele>
        <time>2016-07-06T15:25:58Z</time>
        <sat>10</sat>
      </trkpt>
      <trkpt lat="43.526361" lon="11.069938">
        <ele>29.4</ele>
        <time>2016-07-06T15:26:00Z</time>
        <sat>10</sat>
      </trkpt>
      <trkpt lat="43.526244" lon="11.069934">
        <ele>29.6</ele>
        <time>2016-07-06T15:26:02Z</time>
        <sat>10</sat>
      </trkpt>
      <trkpt lat="43.526127" lon="11.069881">
        <ele>28.8</ele>
        <time>2016-07-06T15:26:04Z</time>
        <sat>10</sat>
      </trkpt>
      <trkpt lat="43.525998" lon="11.069773">
        <ele>28.6</ele>
        <time>2016-07-06T15:26:06Z</time>
        <sat>10</sat>
      </trkpt>
      <trkpt lat="43.525884" lon="11.069700">
        <ele>29.3</ele>
        <time>2016-07-06T15:26:08Z</time>
        <sat>10</sat>
      </trkpt>
      <trkpt lat="43.525794" lon="11.069696">
        <ele>30.4</ele>
        <time>2016-07-06T15:26:10Z</time>
        <sat>7</sat>
      </trkpt>
      <trkpt lat="43.525727" lon="11.069796">
        <ele>30.7</ele>
        <time>2016-07-06T15:26:12Z</time>
        <sat>9</sat>
      </trkpt>
      <trkpt lat="43.525690" lon="11.069909">
        <ele>30.7</ele>
        <time>2016-07-06T15:26:13Z</time>
        <sat>9</sat>
      </trkpt>
      <trkpt lat="43.525649" lon="11.070046">
        <ele>31.0</ele>
        <time>2016-07-06T15:26:14Z</time>
        <sat>9</sat>
      </trkpt>
      <trkpt lat="43.525603" lon="11.070190">
        <ele>31.3</ele>
        <time>2016-07-06T15:26:15Z</time>
        <sat>10</sat>
      </trkpt>
      <trkpt lat="43.525550" lon="11.070341">
        <ele>31.4</ele>
        <time>2016-07-06T15:26:16Z</time>
        <sat>10</sat>
      </trkpt>
      <trkpt lat="43.525496" lon="11.070496">
        <ele>31.1</ele>
        <time>2016-07-06T15:26:17Z</time>
        <sat>10</sat>
      </trkpt>
      <trkpt lat="43.525444" lon="11.070653">
        <ele>30.9</ele>
        <time>2016-07-06T15:26:18Z</time>
        <sat>10</sat>
      </trkpt>
      <trkpt lat="43.525389" lon="11.070811">
        <ele>30.8</ele>
        <time>2016-07-06T15:26:19Z</time>
        <sat>10</sat>
      </trkpt>
      <trkpt lat="43.525268" lon="11.071106">
        <ele>30.6</ele>
        <time>2016-07-06T15:26:21Z</time>
        <sat>10</sat>
      </trkpt>
      <trkpt lat="43.525215" lon="11.071225">
        <ele>30.4</ele>
        <time>2016-07-06T15:26:22Z</time>
        <sat>9</sat>
      </trkpt>
      <trkpt lat="43.525109" lon="11.071401">
        <ele>30.2</ele>
        <time>2016-07-06T15:26:24Z</time>
        <sat>10</sat>
      </trkpt>
      <trkpt lat="43.524971" lon="11.071475">
        <ele>31.2</ele>
        <time>2016-07-06T15:26:26Z</time>
        <sat>10</sat>
      </trkpt>
      <trkpt lat="43.524811" lon="11.071443">
        <ele>32.0</ele>
        <time>2016-07-06T15:26:28Z</time>
        <sat>10</sat>
      </trkpt>
      <trkpt lat="43.524679" lon="11.071439">
        <ele>32.6</ele>
        <time>2016-07-06T15:26:30Z</time>
        <sat>10</sat>
      </trkpt>
      <trkpt lat="43.524576" lon="11.071567">
        <ele>33.1</ele>
        <time>2016-07-06T15:26:32Z</time>
        <sat>10</sat>
      </trkpt>
      <trkpt lat="43.524514" lon="11.071711">
        <ele>33.6</ele>
        <time>2016-07-06T15:26:34Z</time>
        <sat>10</sat>
      </trkpt>
      <trkpt lat="43.524425" lon="11.071811">
        <ele>34.7</ele>
        <time>2016-07-06T15:26:37Z</time>
        <sat>10</sat>
      </trkpt>
      <trkpt lat="43.524319" lon="11.071804">
        <ele>36.3</ele>
        <time>2016-07-06T15:26:39Z</time>
        <sat>10</sat>
      </trkpt>
      <trkpt lat="43.524154" lon="11.071765">
        <ele>39.1</ele>
        <time>2016-07-06T15:26:41Z</time>
        <sat>10</sat>
      </trkpt>
      <trkpt lat="43.523973" lon="11.071718">
        <ele>42.7</ele>
        <time>2016-07-06T15:26:43Z</time>
        <sat>10</sat>
      </trkpt>
      <trkpt lat="43.523863" lon="11.071695">
        <ele>44.8</ele>
        <time>2016-07-06T15:26:44Z</time>
        <sat>10</sat>
      </trkpt>
      <trkpt lat="43.523746" lon="11.071678">
        <ele>47.3</ele>
        <time>2016-07-06T15:26:45Z</time>
        <sat>10</sat>
      </trkpt>
      <trkpt lat="43.523628" lon="11.071662">
        <ele>49.5</ele>
        <time>2016-07-06T15:26:46Z</time>
        <sat>10</sat>
      </trkpt>
      <trkpt lat="43.523514" lon="11.071648">
        <ele>51.0</ele>
        <time>2016-07-06T15:26:47Z</time>
        <sat>10</sat>
      </trkpt>
      <trkpt lat="43.523419" lon="11.071635">
        <ele>52.0</ele>
        <time>2016-07-06T15:26:48Z</time>
        <sat>10</sat>
      </trkpt>
      <trkpt lat="43.523293" lon="11.071614">
        <ele>53.9</ele>
        <time>2016-07-06T15:26:50Z</time>
        <sat>10</sat>
      </trkpt>
      <trkpt lat="43.523189" lon="11.071603">
        <ele>54.4</ele>
        <time>2016-07-06T15:26:53Z</time>
        <sat>9</sat>
      </trkpt>
      <trkpt lat="43.523073" lon="11.071577">
        <ele>54.0</ele>
        <time>2016-07-06T15:28:40Z</time>
        <sat>9</sat>
      </trkpt>
      <trkpt lat="43.522836" lon="11.071569">
        <ele>55.8</ele>
        <time>2016-07-06T15:28:43Z</time>
        <sat>10</sat>
      </trkpt>
      <trkpt lat="43.522729" lon="11.071568">
        <ele>56.5</ele>
        <time>2016-07-06T15:28:44Z</time>
        <sat>10</sat>
      </trkpt>
      <trkpt lat="43.522613" lon="11.071561">
        <ele>57.4</ele>
        <time>2016-07-06T15:28:45Z</time>
        <sat>10</sat>
      </trkpt>
      <trkpt lat="43.522499" lon="11.071549">
        <ele>58.4</ele>
        <time>2016-07-06T15:28:46Z</time>
        <sat>10</sat>
      </trkpt>
      <trkpt lat="43.522397" lon="11.071541">
        <ele>59.3</ele>
        <time>2016-07-06T15:28:47Z</time>
        <sat>10</sat>
      </trkpt>
      <trkpt lat="43.522240" lon="11.071569">
        <ele>60.3</ele>
        <time>2016-07-06T15:28:49Z</time>
        <sat>10</sat>
      </trkpt>
      <trkpt lat="43.522138" lon="11.071720">
        <ele>59.8</ele>
        <time>2016-07-06T15:28:51Z</time>
        <sat>10</sat>
      </trkpt>
      <trkpt lat="43.522097" lon="11.071862">
        <ele>58.7</ele>
        <time>2016-07-06T15:28:52Z</time>
        <sat>10</sat>
      </trkpt>
      <trkpt lat="43.522053" lon="11.072037">
        <ele>57.2</ele>
        <time>2016-07-06T15:28:53Z</time>
        <sat>10</sat>
      </trkpt>
      <trkpt lat="43.521999" lon="11.072227">
        <ele>55.5</ele>
        <time>2016-07-06T15:28:54Z</time>
        <sat>9</sat>
      </trkpt>
      <trkpt lat="43.521937" lon="11.072421">
        <ele>54.0</ele>
        <time>2016-07-06T15:28:55Z</time>
        <sat>10</sat>
      </trkpt>
      <trkpt lat="43.521879" lon="11.072608">
        <ele>53.0</ele>
        <time>2016-07-06T15:28:56Z</time>
        <sat>10</sat>
      </trkpt>
      <trkpt lat="43.521829" lon="11.072784">
        <ele>52.5</ele>
        <time>2016-07-06T15:28:57Z</time>
        <sat>10</sat>
      </trkpt>
      <trkpt lat="43.521787" lon="11.072949">
        <ele>52.3</ele>
        <time>2016-07-06T15:28:58Z</time>
        <sat>10</sat>
      </trkpt>
      <trkpt lat="43.521751" lon="11.073100">
        <ele>51.8</ele>
        <time>2016-07-06T15:28:59Z</time>
        <sat>9</sat>
      </trkpt>
      <trkpt lat="43.521714" lon="11.073247">
        <ele>51.2</ele>
        <time>2016-07-06T15:29:00Z</time>
        <sat>10</sat>
      </trkpt>
      <trkpt lat="43.521671" lon="11.073401">
        <ele>50.6</ele>
        <time>2016-07-06T15:29:01Z</time>
        <sat>10</sat>
      </trkpt>
      <trkpt lat="43.521624" lon="11.073563">
        <ele>49.9</ele>
        <time>2016-07-06T15:29:02Z</time>
        <sat>10</sat>
      </trkpt>
      <trkpt lat="43.521576" lon="11.073724">
        <ele>48.9</ele>
        <time>2016-07-06T15:29:03Z</time>
        <sat>10</sat>
      </trkpt>
      <trkpt lat="43.521532" lon="11.073879">
        <ele>47.5</ele>
        <time>2016-07-06T15:29:04Z</time>
        <sat>10</sat>
      </trkpt>
      <trkpt lat="43.521491" lon="11.074035">
        <ele>46.4</ele>
        <time>2016-07-06T15:29:05Z</time>
        <sat>10</sat>
      </trkpt>
      <trkpt lat="43.521446" lon="11.074194">
        <ele>45.0</ele>
        <time>2016-07-06T15:29:06Z</time>
        <sat>10</sat>
      </trkpt>
      <trkpt lat="43.521400" lon="11.074352">
        <ele>43.7</ele>
        <time>2016-07-06T15:29:07Z</time>
        <sat>10</sat>
      </trkpt>
      <trkpt lat="43.521357" lon="11.074503">
        <ele>42.7</ele>
        <time>2016-07-06T15:29:08Z</time>
        <sat>10</sat>
      </trkpt>
      <trkpt lat="43.521315" lon="11.074642">
        <ele>41.8</ele>
        <time>2016-07-06T15:29:09Z</time>
        <sat>10</sat>
      </trkpt>
      <trkpt lat="43.521273" lon="11.074772">
        <ele>40.8</ele>
        <time>2016-07-06T15:29:10Z</time>
        <sat>10</sat>
      </trkpt>
      <trkpt lat="43.521233" lon="11.074895">
        <ele>39.8</ele>
        <time>2016-07-06T15:29:11Z</time>
        <sat>10</sat>
      </trkpt>
      <trkpt lat="43.521192" lon="11.075015">
        <ele>38.8</ele>
        <time>2016-07-06T15:29:12Z</time>
        <sat>10</sat>
      </trkpt>
      <trkpt lat="43.521146" lon="11.075128">
        <ele>37.9</ele>
        <time>2016-07-06T15:29:13Z</time>
        <sat>10</sat>
      </trkpt>
      <trkpt lat="43.521091" lon="11.075231">
        <ele>37.2</ele>
        <time>2016-07-06T15:29:14Z</time>
        <sat>10</sat>
      </trkpt>
      <trkpt lat="43.521023" lon="11.075323">
        <ele>36.5</ele>
        <time>2016-07-06T15:29:15Z</time>
        <sat>10</sat>
      </trkpt>
      <trkpt lat="43.520938" lon="11.075403">
        <ele>35.9</ele>
        <time>2016-07-06T15:29:16Z</time>
        <sat>10</sat>
      </trkpt>
      <trkpt lat="43.520836" lon="11.075473">
        <ele>35.7</ele>
        <time>2016-07-06T15:29:17Z</time>
        <sat>10</sat>
      </trkpt>
      <trkpt lat="43.520725" lon="11.075533">
        <ele>35.3</ele>
        <time>2016-07-06T15:29:18Z</time>
        <sat>10</sat>
      </trkpt>
      <trkpt lat="43.520617" lon="11.075587">
        <ele>35.5</ele>
        <time>2016-07-06T15:29:19Z</time>
        <sat>10</sat>
      </trkpt>
      <trkpt lat="43.520516" lon="11.075651">
        <ele>35.2</ele>
        <time>2016-07-06T15:29:20Z</time>
        <sat>10</sat>
      </trkpt>
      <trkpt lat="43.520410" lon="11.075736">
        <ele>34.7</ele>
        <time>2016-07-06T15:29:21Z</time>
        <sat>10</sat>
      </trkpt>
      <trkpt lat="43.520302" lon="11.075840">
        <ele>34.6</ele>
        <time>2016-07-06T15:29:22Z</time>
        <sat>10</sat>
      </trkpt>
      <trkpt lat="43.520200" lon="11.075946">
        <ele>35.1</ele>
        <time>2016-07-06T15:29:23Z</time>
        <sat>10</sat>
      </trkpt>
      <trkpt lat="43.520101" lon="11.076044">
        <ele>35.8</ele>
        <time>2016-07-06T15:29:24Z</time>
        <sat>10</sat>
      </trkpt>
      <trkpt lat="43.519993" lon="11.076137">
        <ele>36.4</ele>
        <time>2016-07-06T15:29:25Z</time>
        <sat>10</sat>
      </trkpt>
      <trkpt lat="43.519874" lon="11.076227">
        <ele>36.7</ele>
        <time>2016-07-06T15:29:26Z</time>
        <sat>10</sat>
      </trkpt>
      <trkpt lat="43.519746" lon="11.076318">
        <ele>36.8</ele>
        <time>2016-07-06T15:29:27Z</time>
        <sat>10</sat>
      </trkpt>
      <trkpt lat="43.519615" lon="11.076416">
        <ele>36.5</ele>
        <time>2016-07-06T15:29:28Z</time>
        <sat>10</sat>
      </trkpt>
      <trkpt lat="43.519490" lon="11.076518">
        <ele>36.0</ele>
        <time>2016-07-06T15:29:29Z</time>
        <sat>10</sat>
      </trkpt>
      <trkpt lat="43.519374" lon="11.076616">
        <ele>35.5</ele>
        <time>2016-07-06T15:29:30Z</time>
        <sat>10</sat>
      </trkpt>
      <trkpt lat="43.519263" lon="11.076706">
        <ele>34.8</ele>
        <time>2016-07-06T15:29:31Z</time>
        <sat>10</sat>
      </trkpt>
      <trkpt lat="43.519158" lon="11.076784">
        <ele>34.3</ele>
        <time>2016-07-06T15:29:32Z</time>
        <sat>10</sat>
      </trkpt>
      <trkpt lat="43.519053" lon="11.076849">
        <ele>34.1</ele>
        <time>2016-07-06T15:29:33Z</time>
        <sat>10</sat>
      </trkpt>
      <trkpt lat="43.518939" lon="11.076900">
        <ele>34.2</ele>
        <time>2016-07-06T15:29:34Z</time>
        <sat>10</sat>
      </trkpt>
      <trkpt lat="43.518820" lon="11.076929">
        <ele>34.4</ele>
        <time>2016-07-06T15:29:35Z</time>
        <sat>9</sat>
      </trkpt>
      <trkpt lat="43.518692" lon="11.076939">
        <ele>34.9</ele>
        <time>2016-07-06T15:29:36Z</time>
        <sat>10</sat>
      </trkpt>
      <trkpt lat="43.518557" lon="11.076944">
        <ele>35.6</ele>
        <time>2016-07-06T15:29:37Z</time>
        <sat>10</sat>
      </trkpt>
      <trkpt lat="43.518421" lon="11.076948">
        <ele>36.2</ele>
        <time>2016-07-06T15:29:38Z</time>
        <sat>9</sat>
      </trkpt>
      <trkpt lat="43.518287" lon="11.076961">
        <ele>36.2</ele>
        <time>2016-07-06T15:29:39Z</time>
        <sat>10</sat>
      </trkpt>
      <trkpt lat="43.518153" lon="11.076969">
        <ele>37.0</ele>
        <time>2016-07-06T15:29:40Z</time>
        <sat>10</sat>
      </trkpt>
      <trkpt lat="43.518008" lon="11.076975">
        <ele>37.4</ele>
        <time>2016-07-06T15:29:41Z</time>
        <sat>10</sat>
      </trkpt>
      <trkpt lat="43.517854" lon="11.076976">
        <ele>37.5</ele>
        <time>2016-07-06T15:29:42Z</time>
        <sat>10</sat>
      </trkpt>
      <trkpt lat="43.517556" lon="11.076961">
        <ele>37.5</ele>
        <time>2016-07-06T15:29:44Z</time>
        <sat>9</sat>
      </trkpt>
      <trkpt lat="43.517414" lon="11.076952">
        <ele>36.5</ele>
        <time>2016-07-06T15:29:45Z</time>
        <sat>10</sat>
      </trkpt>
      <trkpt lat="43.517277" lon="11.076941">
        <ele>36.2</ele>
        <time>2016-07-06T15:29:46Z</time>
        <sat>10</sat>
      </trkpt>
      <trkpt lat="43.517144" lon="11.076938">
        <ele>36.9</ele>
        <time>2016-07-06T15:29:47Z</time>
        <sat>10</sat>
      </trkpt>
      <trkpt lat="43.517011" lon="11.076955">
        <ele>37.9</ele>
        <time>2016-07-06T15:29:48Z</time>
        <sat>10</sat>
      </trkpt>
      <trkpt lat="43.516875" lon="11.076998">
        <ele>38.6</ele>
        <time>2016-07-06T15:29:49Z</time>
        <sat>10</sat>
      </trkpt>
      <trkpt lat="43.516743" lon="11.077059">
        <ele>39.2</ele>
        <time>2016-07-06T15:29:50Z</time>
        <sat>10</sat>
      </trkpt>
      <trkpt lat="43.516617" lon="11.077123">
        <ele>39.9</ele>
        <time>2016-07-06T15:29:51Z</time>
        <sat>10</sat>
      </trkpt>
      <trkpt lat="43.516490" lon="11.077177">
        <ele>40.3</ele>
        <time>2016-07-06T15:29:52Z</time>
        <sat>9</sat>
      </trkpt>
      <trkpt lat="43.516354" lon="11.077215">
        <ele>40.4</ele>
        <time>2016-07-06T15:29:53Z</time>
        <sat>9</sat>
      </trkpt>
      <trkpt lat="43.516209" lon="11.077246">
        <ele>40.2</ele>
        <time>2016-07-06T15:29:54Z</time>
        <sat>8</sat>
      </trkpt>
      <trkpt lat="43.516064" lon="11.077278">
        <ele>40.3</ele>
        <time>2016-07-06T15:29:55Z</time>
        <sat>10</sat>
      </trkpt>
      <trkpt lat="43.515932" lon="11.077297">
        <ele>42.2</ele>
        <time>2016-07-06T15:29:56Z</time>
        <sat>9</sat>
      </trkpt>
      <trkpt lat="43.515819" lon="11.077312">
        <ele>41.9</ele>
        <time>2016-07-06T15:29:57Z</time>
        <sat>8</sat>
      </trkpt>
      <trkpt lat="43.515724" lon="11.077332">
        <ele>38.6</ele>
        <time>2016-07-06T15:29:58Z</time>
        <sat>8</sat>
      </trkpt>
      <trkpt lat="43.515601" lon="11.077437">
        <ele>37.4</ele>
        <time>2016-07-06T15:30:00Z</time>
        <sat>9</sat>
      </trkpt>
      <trkpt lat="43.515561" lon="11.077622">
        <ele>36.9</ele>
        <time>2016-07-06T15:30:02Z</time>
        <sat>9</sat>
      </trkpt>
      <trkpt lat="43.515617" lon="11.077859">
        <ele>35.6</ele>
        <time>2016-07-06T15:30:04Z</time>
        <sat>9</sat>
      </trkpt>
      <trkpt lat="43.515671" lon="11.077981">
        <ele>35.8</ele>
        <time>2016-07-06T15:30:05Z</time>
        <sat>9</sat>
      </trkpt>
      <trkpt lat="43.515757" lon="11.078175">
        <ele>36.3</ele>
        <time>2016-07-06T15:30:07Z</time>
        <sat>10</sat>
      </trkpt>
      <trkpt lat="43.515791" lon="11.078350">
        <ele>36.0</ele>
        <time>2016-07-06T15:30:09Z</time>
        <sat>9</sat>
      </trkpt>
      <trkpt lat="43.515736" lon="11.078506">
        <ele>35.9</ele>
        <time>2016-07-06T15:30:11Z</time>
        <sat>9</sat>
      </trkpt>
      <trkpt lat="43.515599" lon="11.078670">
        <ele>36.2</ele>
        <time>2016-07-06T15:30:13Z</time>
        <sat>10</sat>
      </trkpt>
      <trkpt lat="43.515507" lon="11.078773">
        <ele>36.2</ele>
        <time>2016-07-06T15:30:14Z</time>
        <sat>10</sat>
      </trkpt>
      <trkpt lat="43.515405" lon="11.078892">
        <ele>36.0</ele>
        <time>2016-07-06T15:30:15Z</time>
        <sat>10</sat>
      </trkpt>
      <trkpt lat="43.515295" lon="11.079018">
        <ele>35.9</ele>
        <time>2016-07-06T15:30:16Z</time>
        <sat>10</sat>
      </trkpt>
      <trkpt lat="43.515181" lon="11.079148">
        <ele>35.6</ele>
        <time>2016-07-06T15:30:17Z</time>
        <sat>10</sat>
      </trkpt>
      <trkpt lat="43.515067" lon="11.079284">
        <ele>35.4</ele>
        <time>2016-07-06T15:30:18Z</time>
        <sat>9</sat>
      </trkpt>
      <trkpt lat="43.514960" lon="11.079417">
        <ele>35.4</ele>
        <time>2016-07-06T15:30:19Z</time>
        <sat>10</sat>
      </trkpt>
      <trkpt lat="43.514854" lon="11.079548">
        <ele>35.3</ele>
        <time>2016-07-06T15:30:20Z</time>
        <sat>10</sat>
      </trkpt>
      <trkpt lat="43.514752" lon="11.079674">
        <ele>35.1</ele>
        <time>2016-07-06T15:30:21Z</time>
        <sat>10</sat>
      </trkpt>
      <trkpt lat="43.514658" lon="11.079786">
        <ele>35.3</ele>
        <time>2016-07-06T15:30:22Z</time>
        <sat>10</sat>
      </trkpt>
      <trkpt lat="43.514574" lon="11.079888">
        <ele>35.3</ele>
        <time>2016-07-06T15:30:23Z</time>
        <sat>10</sat>
      </trkpt>
      <trkpt lat="43.514500" lon="11.079981">
        <ele>35.2</ele>
        <time>2016-07-06T15:30:24Z</time>
        <sat>9</sat>
      </trkpt>
      <trkpt lat="43.514375" lon="11.080134">
        <ele>35.1</ele>
        <time>2016-07-06T15:30:26Z</time>
        <sat>10</sat>
      </trkpt>
      <trkpt lat="43.514225" lon="11.080260">
        <ele>35.2</ele>
        <time>2016-07-06T15:30:28Z</time>
        <sat>10</sat>
      </trkpt>
      <trkpt lat="43.514126" lon="11.080313">
        <ele>35.2</ele>
        <time>2016-07-06T15:30:29Z</time>
        <sat>10</sat>
      </trkpt>
      <trkpt lat="43.514013" lon="11.080356">
        <ele>35.3</ele>
        <time>2016-07-06T15:30:30Z</time>
        <sat>10</sat>
      </trkpt>
      <trkpt lat="43.513885" lon="11.080397">
        <ele>34.8</ele>
        <time>2016-07-06T15:30:31Z</time>
        <sat>9</sat>
      </trkpt>
      <trkpt lat="43.513744" lon="11.080442">
        <ele>34.7</ele>
        <time>2016-07-06T15:30:32Z</time>
        <sat>9</sat>
      </trkpt>
      <trkpt lat="43.513585" lon="11.080496">
        <ele>34.8</ele>
        <time>2016-07-06T15:30:33Z</time>
        <sat>10</sat>
      </trkpt>
      <trkpt lat="43.513417" lon="11.080558">
        <ele>34.8</ele>
        <time>2016-07-06T15:30:34Z</time>
        <sat>10</sat>
      </trkpt>
      <trkpt lat="43.513256" lon="11.080622">
        <ele>34.7</ele>
        <time>2016-07-06T15:30:35Z</time>
        <sat>10</sat>
      </trkpt>
      <trkpt lat="43.513108" lon="11.080685">
        <ele>34.6</ele>
        <time>2016-07-06T15:30:36Z</time>
        <sat>10</sat>
      </trkpt>
      <trkpt lat="43.512971" lon="11.080744">
        <ele>34.8</ele>
        <time>2016-07-06T15:30:37Z</time>
        <sat>10</sat>
      </trkpt>
      <trkpt lat="43.512839" lon="11.080801">
        <ele>34.7</ele>
        <time>2016-07-06T15:30:38Z</time>
        <sat>10</sat>
      </trkpt>
      <trkpt lat="43.512705" lon="11.080859">
        <ele>34.9</ele>
        <time>2016-07-06T15:30:39Z</time>
        <sat>10</sat>
      </trkpt>
      <trkpt lat="43.512566" lon="11.080916">
        <ele>34.4</ele>
        <time>2016-07-06T15:30:40Z</time>
        <sat>9</sat>
      </trkpt>
      <trkpt lat="43.512427" lon="11.080972">
        <ele>34.6</ele>
        <time>2016-07-06T15:30:41Z</time>
        <sat>10</sat>
      </trkpt>
      <trkpt lat="43.512286" lon="11.081022">
        <ele>34.6</ele>
        <time>2016-07-06T15:30:42Z</time>
        <sat>10</sat>
      </trkpt>
      <trkpt lat="43.512150" lon="11.081069">
        <ele>34.7</ele>
        <time>2016-07-06T15:30:43Z</time>
        <sat>10</sat>
      </trkpt>
      <trkpt lat="43.512017" lon="11.081106">
        <ele>35.1</ele>
        <time>2016-07-06T15:30:44Z</time>
        <sat>10</sat>
      </trkpt>
      <trkpt lat="43.511741" lon="11.081096">
        <ele>35.5</ele>
        <time>2016-07-06T15:30:46Z</time>
        <sat>10</sat>
      </trkpt>
      <trkpt lat="43.511601" lon="11.081038">
        <ele>35.8</ele>
        <time>2016-07-06T15:30:47Z</time>
        <sat>10</sat>
      </trkpt>
      <trkpt lat="43.511464" lon="11.080966">
        <ele>36.0</ele>
        <time>2016-07-06T15:30:48Z</time>
        <sat>10</sat>
      </trkpt>
      <trkpt lat="43.511332" lon="11.080895">
        <ele>36.0</ele>
        <time>2016-07-06T15:30:49Z</time>
        <sat>10</sat>
      </trkpt>
      <trkpt lat="43.511211" lon="11.080827">
        <ele>36.2</ele>
        <time>2016-07-06T15:30:50Z</time>
        <sat>10</sat>
      </trkpt>
      <trkpt lat="43.511104" lon="11.080772">
        <ele>36.0</ele>
        <time>2016-07-06T15:30:51Z</time>
        <sat>10</sat>
      </trkpt>
      <trkpt lat="43.511005" lon="11.080733">
        <ele>35.9</ele>
        <time>2016-07-06T15:30:52Z</time>
        <sat>10</sat>
      </trkpt>
      <trkpt lat="43.510846" lon="11.080662">
        <ele>36.0</ele>
        <time>2016-07-06T15:30:54Z</time>
        <sat>10</sat>
      </trkpt>
      <trkpt lat="43.510737" lon="11.080617">
        <ele>35.7</ele>
        <time>2016-07-06T15:30:56Z</time>
        <sat>10</sat>
      </trkpt>
      <trkpt lat="43.510637" lon="11.080569">
        <ele>35.6</ele>
        <time>2016-07-06T15:31:00Z</time>
        <sat>10</sat>
      </trkpt>
      <trkpt lat="43.510503" lon="11.080603">
        <ele>37.4</ele>
        <time>2016-07-06T15:31:45Z</time>
        <sat>10</sat>
      </trkpt>
      <trkpt lat="43.510386" lon="11.080690">
        <ele>37.2</ele>
        <time>2016-07-06T15:31:47Z</time>
        <sat>9</sat>
      </trkpt>
      <trkpt lat="43.510095" lon="11.080940">
        <ele>37.1</ele>
        <time>2016-07-06T15:31:51Z</time>
        <sat>10</sat>
      </trkpt>
      <trkpt lat="43.510010" lon="11.081022">
        <ele>37.1</ele>
        <time>2016-07-06T15:31:52Z</time>
        <sat>10</sat>
      </trkpt>
      <trkpt lat="43.509919" lon="11.081113">
        <ele>37.1</ele>
        <time>2016-07-06T15:31:53Z</time>
        <sat>10</sat>
      </trkpt>
      <trkpt lat="43.509819" lon="11.081213">
        <ele>37.1</ele>
        <time>2016-07-06T15:31:54Z</time>
        <sat>10</sat>
      </trkpt>
      <trkpt lat="43.509708" lon="11.081327">
        <ele>37.3</ele>
        <time>2016-07-06T15:31:55Z</time>
        <sat>10</sat>
      </trkpt>
      <trkpt lat="43.509591" lon="11.081442">
        <ele>37.6</ele>
        <time>2016-07-06T15:31:56Z</time>
        <sat>10</sat>
      </trkpt>
      <trkpt lat="43.509478" lon="11.081542">
        <ele>37.7</ele>
        <time>2016-07-06T15:31:57Z</time>
        <sat>10</sat>
      </trkpt>
      <trkpt lat="43.509374" lon="11.081618">
        <ele>37.9</ele>
        <time>2016-07-06T15:31:58Z</time>
        <sat>8</sat>
      </trkpt>
      <trkpt lat="43.509238" lon="11.081671">
        <ele>38.2</ele>
        <time>2016-07-06T15:32:00Z</time>
        <sat>10</sat>
      </trkpt>
      <trkpt lat="43.509154" lon="11.081567">
        <ele>37.9</ele>
        <time>2016-07-06T15:32:03Z</time>
        <sat>10</sat>
      </trkpt>
      <trkpt lat="43.509079" lon="11.081450">
        <ele>37.8</ele>
        <time>2016-07-06T15:32:05Z</time>
        <sat>10</sat>
      </trkpt>
      <trkpt lat="43.508946" lon="11.081273">
        <ele>37.2</ele>
        <time>2016-07-06T15:32:07Z</time>
        <sat>10</sat>
      </trkpt>
      <trkpt lat="43.508861" lon="11.081159">
        <ele>36.8</ele>
        <time>2016-07-06T15:32:08Z</time>
        <sat>10</sat>
      </trkpt>
      <trkpt lat="43.508769" lon="11.081034">
        <ele>36.8</ele>
        <time>2016-07-06T15:32:09Z</time>
        <sat>10</sat>
      </trkpt>
      <trkpt lat="43.508672" lon="11.080901">
        <ele>36.9</ele>
        <time>2016-07-06T15:32:10Z</time>
        <sat>8</sat>
      </trkpt>
      <trkpt lat="43.508569" lon="11.080765">
        <ele>37.0</ele>
        <time>2016-07-06T15:32:11Z</time>
        <sat>9</sat>
      </trkpt>
      <trkpt lat="43.508469" lon="11.080627">
        <ele>37.1</ele>
        <time>2016-07-06T15:32:12Z</time>
        <sat>10</sat>
      </trkpt>
      <trkpt lat="43.508370" lon="11.080487">
        <ele>37.3</ele>
        <time>2016-07-06T15:32:13Z</time>
        <sat>9</sat>
      </trkpt>
      <trkpt lat="43.508274" lon="11.080356">
        <ele>37.9</ele>
        <time>2016-07-06T15:32:14Z</time>
        <sat>9</sat>
      </trkpt>
      <trkpt lat="43.508175" lon="11.080229">
        <ele>38.4</ele>
        <time>2016-07-06T15:32:15Z</time>
        <sat>10</sat>
      </trkpt>
      <trkpt lat="43.508085" lon="11.080117">
        <ele>38.9</ele>
        <time>2016-07-06T15:32:16Z</time>
        <sat>10</sat>
      </trkpt>
      <trkpt lat="43.508004" lon="11.080015">
        <ele>39.2</ele>
        <time>2016-07-06T15:32:17Z</time>
        <sat>10</sat>
      </trkpt>
      <trkpt lat="43.507930" lon="11.079913">
        <ele>39.1</ele>
        <time>2016-07-06T15:32:18Z</time>
        <sat>10</sat>
      </trkpt>
      <trkpt lat="43.507855" lon="11.079812">
        <ele>39.0</ele>
        <time>2016-07-06T15:32:19Z</time>
        <sat>9</sat>
      </trkpt>
      <trkpt lat="43.507779" lon="11.079716">
        <ele>38.7</ele>
        <time>2016-07-06T15:32:20Z</time>
        <sat>10</sat>
      </trkpt>
      <trkpt lat="43.507701" lon="11.079621">
        <ele>38.5</ele>
        <time>2016-07-06T15:32:21Z</time>
        <sat>7</sat>
      </trkpt>
      <trkpt lat="43.507619" lon="11.079524">
        <ele>38.2</ele>
        <time>2016-07-06T15:32:22Z</time>
        <sat>9</sat>
      </trkpt>
      <trkpt lat="43.507540" lon="11.079433">
        <ele>38.0</ele>
        <time>2016-07-06T15:32:23Z</time>
        <sat>10</sat>
      </trkpt>
      <trkpt lat="43.507465" lon="11.079340">
        <ele>37.8</ele>
        <time>2016-07-06T15:32:24Z</time>
        <sat>10</sat>
      </trkpt>
      <trkpt lat="43.507394" lon="11.079236">
        <ele>38.0</ele>
        <time>2016-07-06T15:32:25Z</time>
        <sat>10</sat>
      </trkpt>
      <trkpt lat="43.507326" lon="11.079117">
        <ele>38.4</ele>
        <time>2016-07-06T15:32:26Z</time>
        <sat>10</sat>
      </trkpt>
      <trkpt lat="43.507269" lon="11.078975">
        <ele>38.8</ele>
        <time>2016-07-06T15:32:27Z</time>
        <sat>10</sat>
      </trkpt>
      <trkpt lat="43.507216" lon="11.078836">
        <ele>39.0</ele>
        <time>2016-07-06T15:32:28Z</time>
        <sat>10</sat>
      </trkpt>
      <trkpt lat="43.507158" lon="11.078719">
        <ele>39.1</ele>
        <time>2016-07-06T15:32:29Z</time>
        <sat>10</sat>
      </trkpt>
      <trkpt lat="43.507087" lon="11.078619">
        <ele>39.0</ele>
        <time>2016-07-06T15:32:30Z</time>
        <sat>10</sat>
      </trkpt>
      <trkpt lat="43.506999" lon="11.078540">
        <ele>38.9</ele>
        <time>2016-07-06T15:32:31Z</time>
        <sat>9</sat>
      </trkpt>
      <trkpt lat="43.506894" lon="11.078477">
        <ele>39.2</ele>
        <time>2016-07-06T15:32:32Z</time>
        <sat>9</sat>
      </trkpt>
      <trkpt lat="43.506772" lon="11.078429">
        <ele>39.2</ele>
        <time>2016-07-06T15:32:33Z</time>
        <sat>10</sat>
      </trkpt>
      <trkpt lat="43.506659" lon="11.078389">
        <ele>39.3</ele>
        <time>2016-07-06T15:32:34Z</time>
        <sat>10</sat>
      </trkpt>
      <trkpt lat="43.506567" lon="11.078358">
        <ele>39.4</ele>
        <time>2016-07-06T15:32:35Z</time>
        <sat>10</sat>
      </trkpt>
      <trkpt lat="43.506405" lon="11.078308">
        <ele>39.5</ele>
        <time>2016-07-06T15:32:37Z</time>
        <sat>10</sat>
      </trkpt>
      <trkpt lat="43.506314" lon="11.078279">
        <ele>39.6</ele>
        <time>2016-07-06T15:32:38Z</time>
        <sat>10</sat>
      </trkpt>
      <trkpt lat="43.506211" lon="11.078249">
        <ele>39.8</ele>
        <time>2016-07-06T15:32:39Z</time>
        <sat>10</sat>
      </trkpt>
      <trkpt lat="43.506099" lon="11.078222">
        <ele>40.1</ele>
        <time>2016-07-06T15:32:40Z</time>
        <sat>10</sat>
      </trkpt>
      <trkpt lat="43.505982" lon="11.078201">
        <ele>40.3</ele>
        <time>2016-07-06T15:32:41Z</time>
        <sat>10</sat>
      </trkpt>
      <trkpt lat="43.505864" lon="11.078181">
        <ele>40.4</ele>
        <time>2016-07-06T15:32:42Z</time>
        <sat>10</sat>
      </trkpt>
      <trkpt lat="43.505744" lon="11.078153">
        <ele>40.5</ele>
        <time>2016-07-06T15:32:43Z</time>
        <sat>10</sat>
      </trkpt>
      <trkpt lat="43.505619" lon="11.078113">
        <ele>40.8</ele>
        <time>2016-07-06T15:32:44Z</time>
        <sat>10</sat>
      </trkpt>
      <trkpt lat="43.505499" lon="11.078067">
        <ele>41.1</ele>
        <time>2016-07-06T15:32:45Z</time>
        <sat>10</sat>
      </trkpt>
      <trkpt lat="43.505388" lon="11.078018">
        <ele>41.2</ele>
        <time>2016-07-06T15:32:46Z</time>
        <sat>10</sat>
      </trkpt>
      <trkpt lat="43.505286" lon="11.077972">
        <ele>41.6</ele>
        <time>2016-07-06T15:32:47Z</time>
        <sat>10</sat>
      </trkpt>
      <trkpt lat="43.505188" lon="11.077928">
        <ele>41.7</ele>
        <time>2016-07-06T15:32:48Z</time>
        <sat>10</sat>
      </trkpt>
      <trkpt lat="43.504967" lon="11.077846">
        <ele>42.2</ele>
        <time>2016-07-06T15:32:50Z</time>
        <sat>10</sat>
      </trkpt>
      <trkpt lat="43.504846" lon="11.077811">
        <ele>42.4</ele>
        <time>2016-07-06T15:32:51Z</time>
        <sat>10</sat>
      </trkpt>
      <trkpt lat="43.504729" lon="11.077780">
        <ele>42.4</ele>
        <time>2016-07-06T15:32:52Z</time>
        <sat>10</sat>
      </trkpt>
      <trkpt lat="43.504624" lon="11.077753">
        <ele>42.6</ele>
        <time>2016-07-06T15:32:53Z</time>
        <sat>10</sat>
      </trkpt>
      <trkpt lat="43.504520" lon="11.077727">
        <ele>42.8</ele>
        <time>2016-07-06T15:32:54Z</time>
        <sat>10</sat>
      </trkpt>
      <trkpt lat="43.504417" lon="11.077701">
        <ele>42.8</ele>
        <time>2016-07-06T15:32:55Z</time>
        <sat>10</sat>
      </trkpt>
      <trkpt lat="43.504316" lon="11.077677">
        <ele>42.9</ele>
        <time>2016-07-06T15:32:56Z</time>
        <sat>10</sat>
      </trkpt>
      <trkpt lat="43.504214" lon="11.077650">
        <ele>43.0</ele>
        <time>2016-07-06T15:32:57Z</time>
        <sat>10</sat>
      </trkpt>
      <trkpt lat="43.504115" lon="11.077618">
        <ele>43.0</ele>
        <time>2016-07-06T15:32:58Z</time>
        <sat>10</sat>
      </trkpt>
      <trkpt lat="43.504015" lon="11.077580">
        <ele>43.2</ele>
        <time>2016-07-06T15:32:59Z</time>
        <sat>10</sat>
      </trkpt>
      <trkpt lat="43.503904" lon="11.077537">
        <ele>43.4</ele>
        <time>2016-07-06T15:33:00Z</time>
        <sat>10</sat>
      </trkpt>
      <trkpt lat="43.503788" lon="11.077491">
        <ele>43.6</ele>
        <time>2016-07-06T15:33:01Z</time>
        <sat>9</sat>
      </trkpt>
      <trkpt lat="43.503674" lon="11.077445">
        <ele>43.9</ele>
        <time>2016-07-06T15:33:02Z</time>
        <sat>9</sat>
      </trkpt>
      <trkpt lat="43.503557" lon="11.077401">
        <ele>44.2</ele>
        <time>2016-07-06T15:33:03Z</time>
        <sat>9</sat>
      </trkpt>
      <trkpt lat="43.503445" lon="11.077359">
        <ele>44.5</ele>
        <time>2016-07-06T15:33:04Z</time>
        <sat>9</sat>
      </trkpt>
      <trkpt lat="43.503335" lon="11.077318">
        <ele>44.6</ele>
        <time>2016-07-06T15:33:05Z</time>
        <sat>9</sat>
      </trkpt>
      <trkpt lat="43.503226" lon="11.077274">
        <ele>44.9</ele>
        <time>2016-07-06T15:33:06Z</time>
        <sat>9</sat>
      </trkpt>
      <trkpt lat="43.503115" lon="11.077226">
        <ele>45.1</ele>
        <time>2016-07-06T15:33:07Z</time>
        <sat>9</sat>
      </trkpt>
      <trkpt lat="43.502995" lon="11.077179">
        <ele>45.4</ele>
        <time>2016-07-06T15:33:08Z</time>
        <sat>9</sat>
      </trkpt>
      <trkpt lat="43.502869" lon="11.077135">
        <ele>45.5</ele>
        <time>2016-07-06T15:33:09Z</time>
        <sat>9</sat>
      </trkpt>
      <trkpt lat="43.502748" lon="11.077098">
        <ele>45.7</ele>
        <time>2016-07-06T15:33:10Z</time>
        <sat>9</sat>
      </trkpt>
      <trkpt lat="43.502630" lon="11.077064">
        <ele>45.9</ele>
        <time>2016-07-06T15:33:11Z</time>
        <sat>9</sat>
      </trkpt>
      <trkpt lat="43.502511" lon="11.077026">
        <ele>46.1</ele>
        <time>2016-07-06T15:33:12Z</time>
        <sat>9</sat>
      </trkpt>
      <trkpt lat="43.502390" lon="11.076985">
        <ele>46.3</ele>
        <time>2016-07-06T15:33:13Z</time>
        <sat>9</sat>
      </trkpt>
      <trkpt lat="43.502270" lon="11.076941">
        <ele>46.6</ele>
        <time>2016-07-06T15:33:14Z</time>
        <sat>9</sat>
      </trkpt>
      <trkpt lat="43.502150" lon="11.076890">
        <ele>47.0</ele>
        <time>2016-07-06T15:33:15Z</time>
        <sat>9</sat>
      </trkpt>
      <trkpt lat="43.502026" lon="11.076834">
        <ele>47.2</ele>
        <time>2016-07-06T15:33:16Z</time>
        <sat>9</sat>
      </trkpt>
      <trkpt lat="43.501900" lon="11.076774">
        <ele>47.4</ele>
        <time>2016-07-06T15:33:17Z</time>
        <sat>9</sat>
      </trkpt>
      <trkpt lat="43.501781" lon="11.076716">
        <ele>47.7</ele>
        <time>2016-07-06T15:33:18Z</time>
        <sat>9</sat>
      </trkpt>
      <trkpt lat="43.501669" lon="11.076661">
        <ele>48.0</ele>
        <time>2016-07-06T15:33:19Z</time>
        <sat>9</sat>
      </trkpt>
      <trkpt lat="43.501562" lon="11.076606">
        <ele>48.3</ele>
        <time>2016-07-06T15:33:20Z</time>
        <sat>9</sat>
      </trkpt>
      <trkpt lat="43.501461" lon="11.076553">
        <ele>48.5</ele>
        <time>2016-07-06T15:33:21Z</time>
        <sat>9</sat>
      </trkpt>
      <trkpt lat="43.501363" lon="11.076503">
        <ele>48.7</ele>
        <time>2016-07-06T15:33:22Z</time>
        <sat>9</sat>
      </trkpt>
      <trkpt lat="43.501262" lon="11.076453">
        <ele>49.0</ele>
        <time>2016-07-06T15:33:23Z</time>
        <sat>9</sat>
      </trkpt>
      <trkpt lat="43.501158" lon="11.076402">
        <ele>49.3</ele>
        <time>2016-07-06T15:33:24Z</time>
        <sat>9</sat>
      </trkpt>
      <trkpt lat="43.501056" lon="11.076349">
        <ele>49.5</ele>
        <time>2016-07-06T15:33:25Z</time>
        <sat>8</sat>
      </trkpt>
      <trkpt lat="43.500958" lon="11.076292">
        <ele>49.9</ele>
        <time>2016-07-06T15:33:26Z</time>
        <sat>9</sat>
      </trkpt>
      <trkpt lat="43.500861" lon="11.076226">
        <ele>50.4</ele>
        <time>2016-07-06T15:33:27Z</time>
        <sat>9</sat>
      </trkpt>
      <trkpt lat="43.500764" lon="11.076150">
        <ele>50.9</ele>
        <time>2016-07-06T15:33:28Z</time>
        <sat>9</sat>
      </trkpt>
      <trkpt lat="43.500663" lon="11.076059">
        <ele>51.4</ele>
        <time>2016-07-06T15:33:29Z</time>
        <sat>9</sat>
      </trkpt>
      <trkpt lat="43.500562" lon="11.075957">
        <ele>51.9</ele>
        <time>2016-07-06T15:33:30Z</time>
        <sat>9</sat>
      </trkpt>
      <trkpt lat="43.500461" lon="11.075846">
        <ele>52.0</ele>
        <time>2016-07-06T15:33:31Z</time>
        <sat>9</sat>
      </trkpt>
      <trkpt lat="43.500366" lon="11.075733">
        <ele>52.2</ele>
        <time>2016-07-06T15:33:32Z</time>
        <sat>9</sat>
      </trkpt>
      <trkpt lat="43.500282" lon="11.075631">
        <ele>52.2</ele>
        <time>2016-07-06T15:33:33Z</time>
        <sat>9</sat>
      </trkpt>
      <trkpt lat="43.500210" lon="11.075541">
        <ele>52.2</ele>
        <time>2016-07-06T15:33:34Z</time>
        <sat>9</sat>
      </trkpt>
      <trkpt lat="43.500140" lon="11.075455">
        <ele>51.6</ele>
        <time>2016-07-06T15:33:35Z</time>
        <sat>7</sat>
      </trkpt>
      <trkpt lat="43.500066" lon="11.075362">
        <ele>51.1</ele>
        <time>2016-07-06T15:33:36Z</time>
        <sat>8</sat>
      </trkpt>
      <trkpt lat="43.499980" lon="11.075253">
        <ele>50.5</ele>
        <time>2016-07-06T15:33:37Z</time>
        <sat>8</sat>
      </trkpt>
      <trkpt lat="43.499885" lon="11.075132">
        <ele>50.2</ele>
        <time>2016-07-06T15:33:38Z</time>
        <sat>9</sat>
      </trkpt>
      <trkpt lat="43.499779" lon="11.075004">
        <ele>50.0</ele>
        <time>2016-07-06T15:33:39Z</time>
        <sat>9</sat>
      </trkpt>
      <trkpt lat="43.499669" lon="11.074870">
        <ele>49.9</ele>
        <time>2016-07-06T15:33:40Z</time>
        <sat>9</sat>
      </trkpt>
      <trkpt lat="43.499561" lon="11.074737">
        <ele>49.7</ele>
        <time>2016-07-06T15:33:41Z</time>
        <sat>9</sat>
      </trkpt>
      <trkpt lat="43.499462" lon="11.074610">
        <ele>49.5</ele>
        <time>2016-07-06T15:33:42Z</time>
        <sat>9</sat>
      </trkpt>
      <trkpt lat="43.499376" lon="11.074494">
        <ele>49.4</ele>
        <time>2016-07-06T15:33:43Z</time>
        <sat>9</sat>
      </trkpt>
      <trkpt lat="43.499297" lon="11.074385">
        <ele>49.3</ele>
        <time>2016-07-06T15:33:44Z</time>
        <sat>9</sat>
      </trkpt>
      <trkpt lat="43.499221" lon="11.074286">
        <ele>49.4</ele>
        <time>2016-07-06T15:33:45Z</time>
        <sat>9</sat>
      </trkpt>
      <trkpt lat="43.499146" lon="11.074194">
        <ele>49.4</ele>
        <time>2016-07-06T15:33:46Z</time>
        <sat>9</sat>
      </trkpt>
      <trkpt lat="43.499069" lon="11.074098">
        <ele>49.4</ele>
        <time>2016-07-06T15:33:47Z</time>
        <sat>9</sat>
      </trkpt>
      <trkpt lat="43.498990" lon="11.073999">
        <ele>49.4</ele>
        <time>2016-07-06T15:33:48Z</time>
        <sat>9</sat>
      </trkpt>
      <trkpt lat="43.498908" lon="11.073891">
        <ele>49.6</ele>
        <time>2016-07-06T15:33:49Z</time>
        <sat>9</sat>
      </trkpt>
      <trkpt lat="43.498717" lon="11.073610">
        <ele>50.0</ele>
        <time>2016-07-06T15:33:51Z</time>
        <sat>9</sat>
      </trkpt>
      <trkpt lat="43.498608" lon="11.073434">
        <ele>50.4</ele>
        <time>2016-07-06T15:33:52Z</time>
        <sat>9</sat>
      </trkpt>
      <trkpt lat="43.498494" lon="11.073246">
        <ele>51.0</ele>
        <time>2016-07-06T15:33:53Z</time>
        <sat>9</sat>
      </trkpt>
      <trkpt lat="43.498384" lon="11.073059">
        <ele>51.9</ele>
        <time>2016-07-06T15:33:54Z</time>
        <sat>9</sat>
      </trkpt>
      <trkpt lat="43.498282" lon="11.072880">
        <ele>52.5</ele>
        <time>2016-07-06T15:33:55Z</time>
        <sat>9</sat>
      </trkpt>
      <trkpt lat="43.498182" lon="11.072703">
        <ele>52.4</ele>
        <time>2016-07-06T15:33:56Z</time>
        <sat>9</sat>
      </trkpt>
      <trkpt lat="43.498083" lon="11.072532">
        <ele>52.4</ele>
        <time>2016-07-06T15:33:57Z</time>
        <sat>9</sat>
      </trkpt>
      <trkpt lat="43.497994" lon="11.072376">
        <ele>52.6</ele>
        <time>2016-07-06T15:33:58Z</time>
        <sat>9</sat>
      </trkpt>
      <trkpt lat="43.497914" lon="11.072236">
        <ele>52.8</ele>
        <time>2016-07-06T15:33:59Z</time>
        <sat>9</sat>
      </trkpt>
      <trkpt lat="43.497845" lon="11.072105">
        <ele>53.0</ele>
        <time>2016-07-06T15:34:00Z</time>
        <sat>9</sat>
      </trkpt>
      <trkpt lat="43.497788" lon="11.071977">
        <ele>53.1</ele>
        <time>2016-07-06T15:34:01Z</time>
        <sat>9</sat>
      </trkpt>
      <trkpt lat="43.497740" lon="11.071846">
        <ele>53.1</ele>
        <time>2016-07-06T15:34:02Z</time>
        <sat>9</sat>
      </trkpt>
      <trkpt lat="43.497699" lon="11.071718">
        <ele>53.0</ele>
        <time>2016-07-06T15:34:03Z</time>
        <sat>9</sat>
      </trkpt>
      <trkpt lat="43.497664" lon="11.071601">
        <ele>53.1</ele>
        <time>2016-07-06T15:34:04Z</time>
        <sat>9</sat>
      </trkpt>
      <trkpt lat="43.497628" lon="11.071482">
        <ele>53.2</ele>
        <time>2016-07-06T15:34:05Z</time>
        <sat>9</sat>
      </trkpt>
      <trkpt lat="43.497587" lon="11.071347">
        <ele>53.3</ele>
        <time>2016-07-06T15:34:06Z</time>
        <sat>9</sat>
      </trkpt>
      <trkpt lat="43.497537" lon="11.071190">
        <ele>53.3</ele>
        <time>2016-07-06T15:34:07Z</time>
        <sat>9</sat>
      </trkpt>
      <trkpt lat="43.497481" lon="11.071013">
        <ele>53.5</ele>
        <time>2016-07-06T15:34:08Z</time>
        <sat>9</sat>
      </trkpt>
      <trkpt lat="43.497420" lon="11.070827">
        <ele>53.7</ele>
        <time>2016-07-06T15:34:09Z</time>
        <sat>9</sat>
      </trkpt>
      <trkpt lat="43.497365" lon="11.070658">
        <ele>53.8</ele>
        <time>2016-07-06T15:34:10Z</time>
        <sat>9</sat>
      </trkpt>
      <trkpt lat="43.497316" lon="11.070510">
        <ele>54.0</ele>
        <time>2016-07-06T15:34:11Z</time>
        <sat>8</sat>
      </trkpt>
      <trkpt lat="43.497272" lon="11.070378">
        <ele>54.2</ele>
        <time>2016-07-06T15:34:12Z</time>
        <sat>9</sat>
      </trkpt>
      <trkpt lat="43.497231" lon="11.070259">
        <ele>54.5</ele>
        <time>2016-07-06T15:34:13Z</time>
        <sat>9</sat>
      </trkpt>
      <trkpt lat="43.497186" lon="11.070133">
        <ele>54.8</ele>
        <time>2016-07-06T15:34:14Z</time>
        <sat>9</sat>
      </trkpt>
      <trkpt lat="43.497138" lon="11.069993">
        <ele>55.2</ele>
        <time>2016-07-06T15:34:15Z</time>
        <sat>9</sat>
      </trkpt>
      <trkpt lat="43.497095" lon="11.069854">
        <ele>55.5</ele>
        <time>2016-07-06T15:34:16Z</time>
        <sat>9</sat>
      </trkpt>
      <trkpt lat="43.497069" lon="11.069717">
        <ele>55.7</ele>
        <time>2016-07-06T15:34:17Z</time>
        <sat>9</sat>
      </trkpt>
      <trkpt lat="43.497047" lon="11.069581">
        <ele>55.5</ele>
        <time>2016-07-06T15:34:18Z</time>
        <sat>9</sat>
      </trkpt>
      <trkpt lat="43.497019" lon="11.069462">
        <ele>55.4</ele>
        <time>2016-07-06T15:34:19Z</time>
        <sat>9</sat>
      </trkpt>
      <trkpt lat="43.496909" lon="11.069292">
        <ele>55.5</ele>
        <time>2016-07-06T15:34:21Z</time>
        <sat>9</sat>
      </trkpt>
      <trkpt lat="43.496814" lon="11.069233">
        <ele>55.8</ele>
        <time>2016-07-06T15:34:22Z</time>
        <sat>9</sat>
      </trkpt>
      <trkpt lat="43.496700" lon="11.069181">
        <ele>56.2</ele>
        <time>2016-07-06T15:34:23Z</time>
        <sat>9</sat>
      </trkpt>
      <trkpt lat="43.496591" lon="11.069127">
        <ele>57.7</ele>
        <time>2016-07-06T15:34:24Z</time>
        <sat>9</sat>
      </trkpt>
      <trkpt lat="43.496495" lon="11.069075">
        <ele>58.8</ele>
        <time>2016-07-06T15:34:25Z</time>
        <sat>9</sat>
      </trkpt>
      <trkpt lat="43.496349" lon="11.068989">
        <ele>60.8</ele>
        <time>2016-07-06T15:34:27Z</time>
        <sat>9</sat>
      </trkpt>
      <trkpt lat="43.496254" lon="11.068932">
        <ele>62.4</ele>
        <time>2016-07-06T15:34:29Z</time>
        <sat>9</sat>
      </trkpt>
      <trkpt lat="43.496132" lon="11.068881">
        <ele>64.7</ele>
        <time>2016-07-06T15:34:32Z</time>
        <sat>9</sat>
      </trkpt>
      <trkpt lat="43.496001" lon="11.068841">
        <ele>67.7</ele>
        <time>2016-07-06T15:34:34Z</time>
        <sat>9</sat>
      </trkpt>
      <trkpt lat="43.495847" lon="11.068771">
        <ele>71.0</ele>
        <time>2016-07-06T15:34:36Z</time>
        <sat>8</sat>
      </trkpt>
      <trkpt lat="43.495693" lon="11.068700">
        <ele>74.8</ele>
        <time>2016-07-06T15:34:38Z</time>
        <sat>9</sat>
      </trkpt>
      <trkpt lat="43.495522" lon="11.068652">
        <ele>79.1</ele>
        <time>2016-07-06T15:34:40Z</time>
        <sat>8</sat>
      </trkpt>
      <trkpt lat="43.495437" lon="11.068605">
        <ele>81.2</ele>
        <time>2016-07-06T15:34:41Z</time>
        <sat>8</sat>
      </trkpt>
      <trkpt lat="43.495355" lon="11.068554">
        <ele>83.3</ele>
        <time>2016-07-06T15:34:42Z</time>
        <sat>8</sat>
      </trkpt>
      <trkpt lat="43.495193" lon="11.068451">
        <ele>86.5</ele>
        <time>2016-07-06T15:34:44Z</time>
        <sat>8</sat>
      </trkpt>
      <trkpt lat="43.495115" lon="11.068379">
        <ele>87.0</ele>
        <time>2016-07-06T15:34:45Z</time>
        <sat>8</sat>
      </trkpt>
      <trkpt lat="43.495048" lon="11.068289">
        <ele>88.1</ele>
        <time>2016-07-06T15:34:46Z</time>
        <sat>8</sat>
      </trkpt>
      <trkpt lat="43.494983" lon="11.068184">
        <ele>89.2</ele>
        <time>2016-07-06T15:34:47Z</time>
        <sat>8</sat>
      </trkpt>
      <trkpt lat="43.494910" lon="11.068075">
        <ele>90.1</ele>
        <time>2016-07-06T15:34:48Z</time>
        <sat>8</sat>
      </trkpt>
      <trkpt lat="43.494836" lon="11.067958">
        <ele>91.6</ele>
        <time>2016-07-06T15:34:49Z</time>
        <sat>8</sat>
      </trkpt>
      <trkpt lat="43.494771" lon="11.067836">
        <ele>93.2</ele>
        <time>2016-07-06T15:34:50Z</time>
        <sat>7</sat>
      </trkpt>
      <trkpt lat="43.494707" lon="11.067725">
        <ele>94.5</ele>
        <time>2016-07-06T15:34:51Z</time>
        <sat>8</sat>
      </trkpt>
      <trkpt lat="43.494503" lon="11.067366">
        <ele>101.0</ele>
        <time>2016-07-06T15:34:55Z</time>
        <sat>8</sat>
      </trkpt>
      <trkpt lat="43.494423" lon="11.067303">
        <ele>102.1</ele>
        <time>2016-07-06T15:34:56Z</time>
        <sat>9</sat>
      </trkpt>
      <trkpt lat="43.494323" lon="11.067260">
        <ele>103.2</ele>
        <time>2016-07-06T15:34:57Z</time>
        <sat>8</sat>
      </trkpt>
      <trkpt lat="43.494214" lon="11.067232">
        <ele>104.1</ele>
        <time>2016-07-06T15:34:58Z</time>
        <sat>8</sat>
      </trkpt>
      <trkpt lat="43.494113" lon="11.067208">
        <ele>105.0</ele>
        <time>2016-07-06T15:34:59Z</time>
        <sat>9</sat>
      </trkpt>
      <trkpt lat="43.493949" lon="11.067097">
        <ele>108.1</ele>
        <time>2016-07-06T15:35:01Z</time>
        <sat>9</sat>
      </trkpt>
      <trkpt lat="43.493875" lon="11.066977">
        <ele>107.7</ele>
        <time>2016-07-06T15:35:02Z</time>
        <sat>9</sat>
      </trkpt>
      <trkpt lat="43.493781" lon="11.066753">
        <ele>116.2</ele>
        <time>2016-07-06T15:35:04Z</time>
        <sat>9</sat>
      </trkpt>
      <trkpt lat="43.493755" lon="11.066625">
        <ele>118.5</ele>
        <time>2016-07-06T15:35:05Z</time>
        <sat>7</sat>
      </trkpt>
      <trkpt lat="43.493714" lon="11.066499">
        <ele>120.2</ele>
        <time>2016-07-06T15:35:06Z</time>
        <sat>9</sat>
      </trkpt>
      <trkpt lat="43.493665" lon="11.066372">
        <ele>121.8</ele>
        <time>2016-07-06T15:35:07Z</time>
        <sat>9</sat>
      </trkpt>
      <trkpt lat="43.493634" lon="11.066228">
        <ele>122.9</ele>
        <time>2016-07-06T15:35:08Z</time>
        <sat>9</sat>
      </trkpt>
      <trkpt lat="43.493609" lon="11.066079">
        <ele>124.4</ele>
        <time>2016-07-06T15:35:09Z</time>
        <sat>7</sat>
      </trkpt>
      <trkpt lat="43.493587" lon="11.065940">
        <ele>125.3</ele>
        <time>2016-07-06T15:35:10Z</time>
        <sat>8</sat>
      </trkpt>
      <trkpt lat="43.493566" lon="11.065811">
        <ele>124.2</ele>
        <time>2016-07-06T15:35:11Z</time>
        <sat>9</sat>
      </trkpt>
      <trkpt lat="43.493529" lon="11.065672">
        <ele>123.4</ele>
        <time>2016-07-06T15:35:12Z</time>
        <sat>8</sat>
      </trkpt>
      <trkpt lat="43.493479" lon="11.065516">
        <ele>123.6</ele>
        <time>2016-07-06T15:35:13Z</time>
        <sat>9</sat>
      </trkpt>
      <trkpt lat="43.493400" lon="11.065359">
        <ele>124.0</ele>
        <time>2016-07-06T15:35:14Z</time>
        <sat>9</sat>
      </trkpt>
      <trkpt lat="43.493322" lon="11.065202">
        <ele>123.3</ele>
        <time>2016-07-06T15:35:15Z</time>
        <sat>9</sat>
      </trkpt>
      <trkpt lat="43.493256" lon="11.065067">
        <ele>124.7</ele>
        <time>2016-07-06T15:35:16Z</time>
        <sat>9</sat>
      </trkpt>
      <trkpt lat="43.493194" lon="11.064946">
        <ele>125.5</ele>
        <time>2016-07-06T15:35:17Z</time>
        <sat>9</sat>
      </trkpt>
      <trkpt lat="43.493131" lon="11.064827">
        <ele>125.9</ele>
        <time>2016-07-06T15:35:18Z</time>
        <sat>10</sat>
      </trkpt>
      <trkpt lat="43.493060" lon="11.064717">
        <ele>126.4</ele>
        <time>2016-07-06T15:35:19Z</time>
        <sat>9</sat>
      </trkpt>
      <trkpt lat="43.492976" lon="11.064621">
        <ele>127.0</ele>
        <time>2016-07-06T15:35:20Z</time>
        <sat>10</sat>
      </trkpt>
      <trkpt lat="43.492880" lon="11.064537">
        <ele>127.6</ele>
        <time>2016-07-06T15:35:21Z</time>
        <sat>10</sat>
      </trkpt>
      <trkpt lat="43.492780" lon="11.064470">
        <ele>129.6</ele>
        <time>2016-07-06T15:35:22Z</time>
        <sat>10</sat>
      </trkpt>
      <trkpt lat="43.492674" lon="11.064429">
        <ele>130.8</ele>
        <time>2016-07-06T15:35:23Z</time>
        <sat>9</sat>
      </trkpt>
      <trkpt lat="43.492560" lon="11.064402">
        <ele>132.5</ele>
        <time>2016-07-06T15:35:24Z</time>
        <sat>9</sat>
      </trkpt>
      <trkpt lat="43.492439" lon="11.064365">
        <ele>134.6</ele>
        <time>2016-07-06T15:35:25Z</time>
        <sat>9</sat>
      </trkpt>
      <trkpt lat="43.492316" lon="11.064311">
        <ele>138.0</ele>
        <time>2016-07-06T15:35:26Z</time>
        <sat>9</sat>
      </trkpt>
      <trkpt lat="43.492207" lon="11.064254">
        <ele>141.0</ele>
        <time>2016-07-06T15:35:27Z</time>
        <sat>9</sat>
      </trkpt>
      <trkpt lat="43.492073" lon="11.064180">
        <ele>144.9</ele>
        <time>2016-07-06T15:35:29Z</time>
        <sat>9</sat>
      </trkpt>
      <trkpt lat="43.491966" lon="11.064123">
        <ele>147.8</ele>
        <time>2016-07-06T15:35:34Z</time>
        <sat>9</sat>
      </trkpt>
      <trkpt lat="43.491860" lon="11.064083">
        <ele>148.2</ele>
        <time>2016-07-06T15:35:38Z</time>
        <sat>10</sat>
      </trkpt>
      <trkpt lat="43.491743" lon="11.064080">
        <ele>148.1</ele>
        <time>2016-07-06T15:35:41Z</time>
        <sat>9</sat>
      </trkpt>
      <trkpt lat="43.491645" lon="11.064073">
        <ele>147.7</ele>
        <time>2016-07-06T15:35:43Z</time>
        <sat>10</sat>
      </trkpt>
      <trkpt lat="43.491524" lon="11.064063">
        <ele>147.2</ele>
        <time>2016-07-06T15:35:45Z</time>
        <sat>10</sat>
      </trkpt>
      <trkpt lat="43.491385" lon="11.064045">
        <ele>146.2</ele>
        <time>2016-07-06T15:35:47Z</time>
        <sat>10</sat>
      </trkpt>
      <trkpt lat="43.491233" lon="11.064015">
        <ele>145.5</ele>
        <time>2016-07-06T15:35:49Z</time>
        <sat>10</sat>
      </trkpt>
      <trkpt lat="43.491141" lon="11.063996">
        <ele>145.1</ele>
        <time>2016-07-06T15:35:50Z</time>
        <sat>9</sat>
      </trkpt>
      <trkpt lat="43.491042" lon="11.063971">
        <ele>144.9</ele>
        <time>2016-07-06T15:35:51Z</time>
        <sat>9</sat>
      </trkpt>
      <trkpt lat="43.490940" lon="11.063935">
        <ele>144.8</ele>
        <time>2016-07-06T15:35:52Z</time>
        <sat>10</sat>
      </trkpt>
      <trkpt lat="43.490835" lon="11.063887">
        <ele>144.8</ele>
        <time>2016-07-06T15:35:53Z</time>
        <sat>10</sat>
      </trkpt>
      <trkpt lat="43.490621" lon="11.063779">
        <ele>144.7</ele>
        <time>2016-07-06T15:35:55Z</time>
        <sat>9</sat>
      </trkpt>
      <trkpt lat="43.490513" lon="11.063729">
        <ele>144.8</ele>
        <time>2016-07-06T15:35:56Z</time>
        <sat>9</sat>
      </trkpt>
      <trkpt lat="43.490402" lon="11.063681">
        <ele>145.2</ele>
        <time>2016-07-06T15:35:57Z</time>
        <sat>8</sat>
      </trkpt>
      <trkpt lat="43.490296" lon="11.063632">
        <ele>145.8</ele>
        <time>2016-07-06T15:35:58Z</time>
        <sat>9</sat>
      </trkpt>
      <trkpt lat="43.490208" lon="11.063583">
        <ele>146.7</ele>
        <time>2016-07-06T15:35:59Z</time>
        <sat>7</sat>
      </trkpt>
      <trkpt lat="43.490068" lon="11.063451">
        <ele>147.8</ele>
        <time>2016-07-06T15:36:01Z</time>
        <sat>10</sat>
      </trkpt>
      <trkpt lat="43.490000" lon="11.063365">
        <ele>148.1</ele>
        <time>2016-07-06T15:36:02Z</time>
        <sat>10</sat>
      </trkpt>
      <trkpt lat="43.489934" lon="11.063275">
        <ele>148.3</ele>
        <time>2016-07-06T15:36:03Z</time>
        <sat>10</sat>
      </trkpt>
      <trkpt lat="43.489868" lon="11.063190">
        <ele>148.3</ele>
        <time>2016-07-06T15:36:04Z</time>
        <sat>10</sat>
      </trkpt>
      <trkpt lat="43.489743" lon="11.063030">
        <ele>148.2</ele>
        <time>2016-07-06T15:36:06Z</time>
        <sat>10</sat>
      </trkpt>
      <trkpt lat="43.489642" lon="11.062905">
        <ele>147.9</ele>
        <time>2016-07-06T15:36:08Z</time>
        <sat>10</sat>
      </trkpt>
      <trkpt lat="43.489548" lon="11.062798">
        <ele>147.4</ele>
        <time>2016-07-06T15:36:10Z</time>
        <sat>10</sat>
      </trkpt>
      <trkpt lat="43.489461" lon="11.062704">
        <ele>146.8</ele>
        <time>2016-07-06T15:36:12Z</time>
        <sat>10</sat>
      </trkpt>
      <trkpt lat="43.489384" lon="11.062566">
        <ele>147.7</ele>
        <time>2016-07-06T15:36:15Z</time>
        <sat>9</sat>
      </trkpt>
      <trkpt lat="43.489348" lon="11.062397">
        <ele>146.2</ele>
        <time>2016-07-06T15:36:17Z</time>
        <sat>10</sat>
      </trkpt>
      <trkpt lat="43.489310" lon="11.062157">
        <ele>144.9</ele>
        <time>2016-07-06T15:36:19Z</time>
        <sat>9</sat>
      </trkpt>
      <trkpt lat="43.489282" lon="11.062027">
        <ele>144.0</ele>
        <time>2016-07-06T15:36:20Z</time>
        <sat>10</sat>
      </trkpt>
      <trkpt lat="43.489260" lon="11.061899">
        <ele>143.4</ele>
        <time>2016-07-06T15:36:21Z</time>
        <sat>10</sat>
      </trkpt>
      <trkpt lat="43.489231" lon="11.061667">
        <ele>142.5</ele>
        <time>2016-07-06T15:36:23Z</time>
        <sat>10</sat>
      </trkpt>
      <trkpt lat="43.489195" lon="11.061425">
        <ele>141.3</ele>
        <time>2016-07-06T15:36:25Z</time>
        <sat>10</sat>
      </trkpt>
      <trkpt lat="43.489166" lon="11.061281">
        <ele>140.8</ele>
        <time>2016-07-06T15:36:26Z</time>
        <sat>10</sat>
      </trkpt>
      <trkpt lat="43.489136" lon="11.061123">
        <ele>140.1</ele>
        <time>2016-07-06T15:36:27Z</time>
        <sat>10</sat>
      </trkpt>
      <trkpt lat="43.489094" lon="11.060954">
        <ele>139.5</ele>
        <time>2016-07-06T15:36:28Z</time>
        <sat>10</sat>
      </trkpt>
      <trkpt lat="43.489042" lon="11.060779">
        <ele>138.8</ele>
        <time>2016-07-06T15:36:29Z</time>
        <sat>9</sat>
      </trkpt>
      <trkpt lat="43.488983" lon="11.060606">
        <ele>137.2</ele>
        <time>2016-07-06T15:36:30Z</time>
        <sat>7</sat>
      </trkpt>
      <trkpt lat="43.488931" lon="11.060444">
        <ele>136.0</ele>
        <time>2016-07-06T15:36:31Z</time>
        <sat>8</sat>
      </trkpt>
      <trkpt lat="43.488891" lon="11.060284">
        <ele>134.4</ele>
        <time>2016-07-06T15:36:32Z</time>
        <sat>9</sat>
      </trkpt>
      <trkpt lat="43.488853" lon="11.060121">
        <ele>133.3</ele>
        <time>2016-07-06T15:36:33Z</time>
        <sat>8</sat>
      </trkpt>
      <trkpt lat="43.488811" lon="11.059955">
        <ele>132.0</ele>
        <time>2016-07-06T15:36:34Z</time>
        <sat>6</sat>
      </trkpt>
      <trkpt lat="43.488776" lon="11.059790">
        <ele>130.6</ele>
        <time>2016-07-06T15:36:35Z</time>
        <sat>7</sat>
      </trkpt>
      <trkpt lat="43.488742" lon="11.059635">
        <ele>129.5</ele>
        <time>2016-07-06T15:36:36Z</time>
        <sat>7</sat>
      </trkpt>
      <trkpt lat="43.488708" lon="11.059489">
        <ele>128.5</ele>
        <time>2016-07-06T15:36:37Z</time>
        <sat>6</sat>
      </trkpt>
      <trkpt lat="43.488679" lon="11.059351">
        <ele>127.6</ele>
        <time>2016-07-06T15:36:38Z</time>
        <sat>7</sat>
      </trkpt>
      <trkpt lat="43.488651" lon="11.059218">
        <ele>126.6</ele>
        <time>2016-07-06T15:36:39Z</time>
        <sat>7</sat>
      </trkpt>
      <trkpt lat="43.488619" lon="11.059084">
        <ele>125.6</ele>
        <time>2016-07-06T15:36:40Z</time>
        <sat>7</sat>
      </trkpt>
      <trkpt lat="43.488581" lon="11.058946">
        <ele>124.6</ele>
        <time>2016-07-06T15:36:41Z</time>
        <sat>7</sat>
      </trkpt>
      <trkpt lat="43.488539" lon="11.058811">
        <ele>123.7</ele>
        <time>2016-07-06T15:36:42Z</time>
        <sat>7</sat>
      </trkpt>
      <trkpt lat="43.488493" lon="11.058691">
        <ele>123.2</ele>
        <time>2016-07-06T15:36:43Z</time>
        <sat>7</sat>
      </trkpt>
      <trkpt lat="43.488410" lon="11.058494">
        <ele>123.2</ele>
        <time>2016-07-06T15:36:45Z</time>
        <sat>7</sat>
      </trkpt>
      <trkpt lat="43.488316" lon="11.058360">
        <ele>122.2</ele>
        <time>2016-07-06T15:36:47Z</time>
        <sat>6</sat>
      </trkpt>
      <trkpt lat="43.488151" lon="11.058357">
        <ele>120.8</ele>
        <time>2016-07-06T15:36:49Z</time>
        <sat>6</sat>
      </trkpt>
      <trkpt lat="43.488044" lon="11.058398">
        <ele>120.2</ele>
        <time>2016-07-06T15:36:50Z</time>
        <sat>6</sat>
      </trkpt>
      <trkpt lat="43.487924" lon="11.058437">
        <ele>119.3</ele>
        <time>2016-07-06T15:36:51Z</time>
        <sat>7</sat>
      </trkpt>
      <trkpt lat="43.487788" lon="11.058488">
        <ele>118.6</ele>
        <time>2016-07-06T15:36:52Z</time>
        <sat>7</sat>
      </trkpt>
      <trkpt lat="43.487656" lon="11.058530">
        <ele>117.9</ele>
        <time>2016-07-06T15:36:53Z</time>
        <sat>8</sat>
      </trkpt>
      <trkpt lat="43.487526" lon="11.058559">
        <ele>117.3</ele>
        <time>2016-07-06T15:36:54Z</time>
        <sat>8</sat>
      </trkpt>
      <trkpt lat="43.487277" lon="11.058559">
        <ele>112.4</ele>
        <time>2016-07-06T15:36:56Z</time>
        <sat>8</sat>
      </trkpt>
      <trkpt lat="43.487164" lon="11.058531">
        <ele>111.3</ele>
        <time>2016-07-06T15:36:57Z</time>
        <sat>8</sat>
      </trkpt>
      <trkpt lat="43.487059" lon="11.058497">
        <ele>110.1</ele>
        <time>2016-07-06T15:36:58Z</time>
        <sat>8</sat>
      </trkpt>
      <trkpt lat="43.486960" lon="11.058473">
        <ele>109.2</ele>
        <time>2016-07-06T15:36:59Z</time>
        <sat>8</sat>
      </trkpt>
      <trkpt lat="43.486865" lon="11.058454">
        <ele>108.6</ele>
        <time>2016-07-06T15:37:00Z</time>
        <sat>9</sat>
      </trkpt>
      <trkpt lat="43.486774" lon="11.058430">
        <ele>107.8</ele>
        <time>2016-07-06T15:37:01Z</time>
        <sat>8</sat>
      </trkpt>
      <trkpt lat="43.486682" lon="11.058392">
        <ele>106.3</ele>
        <time>2016-07-06T15:37:02Z</time>
        <sat>9</sat>
      </trkpt>
      <trkpt lat="43.486592" lon="11.058325">
        <ele>105.5</ele>
        <time>2016-07-06T15:37:03Z</time>
        <sat>8</sat>
      </trkpt>
      <trkpt lat="43.486506" lon="11.058235">
        <ele>104.7</ele>
        <time>2016-07-06T15:37:04Z</time>
        <sat>8</sat>
      </trkpt>
      <trkpt lat="43.486424" lon="11.058128">
        <ele>104.1</ele>
        <time>2016-07-06T15:37:05Z</time>
        <sat>8</sat>
      </trkpt>
      <trkpt lat="43.486350" lon="11.057990">
        <ele>103.3</ele>
        <time>2016-07-06T15:37:06Z</time>
        <sat>8</sat>
      </trkpt>
      <trkpt lat="43.486267" lon="11.057847">
        <ele>102.8</ele>
        <time>2016-07-06T15:37:07Z</time>
        <sat>9</sat>
      </trkpt>
      <trkpt lat="43.486186" lon="11.057714">
        <ele>102.1</ele>
        <time>2016-07-06T15:37:08Z</time>
        <sat>9</sat>
      </trkpt>
      <trkpt lat="43.486113" lon="11.057588">
        <ele>102.3</ele>
        <time>2016-07-06T15:37:09Z</time>
        <sat>8</sat>
      </trkpt>
      <trkpt lat="43.486049" lon="11.057461">
        <ele>102.1</ele>
        <time>2016-07-06T15:37:10Z</time>
        <sat>7</sat>
      </trkpt>
      <trkpt lat="43.485977" lon="11.057329">
        <ele>101.7</ele>
        <time>2016-07-06T15:37:11Z</time>
        <sat>9</sat>
      </trkpt>
      <trkpt lat="43.485904" lon="11.057206">
        <ele>101.4</ele>
        <time>2016-07-06T15:37:12Z</time>
        <sat>8</sat>
      </trkpt>
      <trkpt lat="43.485819" lon="11.057097">
        <ele>101.2</ele>
        <time>2016-07-06T15:37:13Z</time>
        <sat>9</sat>
      </trkpt>
      <trkpt lat="43.485722" lon="11.056994">
        <ele>100.7</ele>
        <time>2016-07-06T15:37:14Z</time>
        <sat>8</sat>
      </trkpt>
      <trkpt lat="43.485626" lon="11.056872">
        <ele>99.9</ele>
        <time>2016-07-06T15:37:15Z</time>
        <sat>9</sat>
      </trkpt>
      <trkpt lat="43.485551" lon="11.056783">
        <ele>99.3</ele>
        <time>2016-07-06T15:37:16Z</time>
        <sat>9</sat>
      </trkpt>
      <trkpt lat="43.485412" lon="11.056641">
        <ele>97.1</ele>
        <time>2016-07-06T15:37:18Z</time>
        <sat>9</sat>
      </trkpt>
      <trkpt lat="43.485255" lon="11.056647">
        <ele>95.6</ele>
        <time>2016-07-06T15:37:20Z</time>
        <sat>9</sat>
      </trkpt>
      <trkpt lat="43.485121" lon="11.056688">
        <ele>93.4</ele>
        <time>2016-07-06T15:37:22Z</time>
        <sat>9</sat>
      </trkpt>
      <trkpt lat="43.485018" lon="11.056629">
        <ele>92.2</ele>
        <time>2016-07-06T15:37:24Z</time>
        <sat>9</sat>
      </trkpt>
      <trkpt lat="43.484954" lon="11.056523">
        <ele>91.9</ele>
        <time>2016-07-06T15:37:26Z</time>
        <sat>9</sat>
      </trkpt>
      <trkpt lat="43.484868" lon="11.056387">
        <ele>91.2</ele>
        <time>2016-07-06T15:37:28Z</time>
        <sat>9</sat>
      </trkpt>
      <trkpt lat="43.484763" lon="11.056219">
        <ele>90.6</ele>
        <time>2016-07-06T15:37:30Z</time>
        <sat>9</sat>
      </trkpt>
      <trkpt lat="43.484634" lon="11.056111">
        <ele>89.0</ele>
        <time>2016-07-06T15:37:32Z</time>
        <sat>9</sat>
      </trkpt>
      <trkpt lat="43.484478" lon="11.056104">
        <ele>86.7</ele>
        <time>2016-07-06T15:37:34Z</time>
        <sat>9</sat>
      </trkpt>
      <trkpt lat="43.484366" lon="11.056176">
        <ele>85.9</ele>
        <time>2016-07-06T15:37:36Z</time>
        <sat>9</sat>
      </trkpt>
      <trkpt lat="43.484259" lon="11.056277">
        <ele>84.6</ele>
        <time>2016-07-06T15:37:38Z</time>
        <sat>8</sat>
      </trkpt>
      <trkpt lat="43.484134" lon="11.056350">
        <ele>83.5</ele>
        <time>2016-07-06T15:37:40Z</time>
        <sat>8</sat>
      </trkpt>
      <trkpt lat="43.484016" lon="11.056325">
        <ele>83.3</ele>
        <time>2016-07-06T15:37:42Z</time>
        <sat>9</sat>
      </trkpt>
      <trkpt lat="43.483950" lon="11.056196">
        <ele>83.6</ele>
        <time>2016-07-06T15:37:44Z</time>
        <sat>8</sat>
      </trkpt>
      <trkpt lat="43.483995" lon="11.055989">
        <ele>85.1</ele>
        <time>2016-07-06T15:37:46Z</time>
        <sat>10</sat>
      </trkpt>
      <trkpt lat="43.484060" lon="11.055780">
        <ele>88.2</ele>
        <time>2016-07-06T15:37:48Z</time>
        <sat>10</sat>
      </trkpt>
      <trkpt lat="43.484067" lon="11.055596">
        <ele>89.4</ele>
        <time>2016-07-06T15:37:50Z</time>
        <sat>10</sat>
      </trkpt>
      <trkpt lat="43.483998" lon="11.055456">
        <ele>91.1</ele>
        <time>2016-07-06T15:37:52Z</time>
        <sat>10</sat>
      </trkpt>
      <trkpt lat="43.483865" lon="11.055343">
        <ele>94.4</ele>
        <time>2016-07-06T15:37:54Z</time>
        <sat>10</sat>
      </trkpt>
      <trkpt lat="43.483780" lon="11.055274">
        <ele>96.6</ele>
        <time>2016-07-06T15:37:55Z</time>
        <sat>9</sat>
      </trkpt>
      <trkpt lat="43.483583" lon="11.055098">
        <ele>100.7</ele>
        <time>2016-07-06T15:37:57Z</time>
        <sat>10</sat>
      </trkpt>
      <trkpt lat="43.483489" lon="11.055011">
        <ele>102.7</ele>
        <time>2016-07-06T15:37:58Z</time>
        <sat>10</sat>
      </trkpt>
      <trkpt lat="43.483397" lon="11.054920">
        <ele>105.1</ele>
        <time>2016-07-06T15:37:59Z</time>
        <sat>10</sat>
      </trkpt>
      <trkpt lat="43.483303" lon="11.054828">
        <ele>107.4</ele>
        <time>2016-07-06T15:38:00Z</time>
        <sat>10</sat>
      </trkpt>
      <trkpt lat="43.483208" lon="11.054734">
        <ele>109.6</ele>
        <time>2016-07-06T15:38:01Z</time>
        <sat>10</sat>
      </trkpt>
      <trkpt lat="43.483113" lon="11.054641">
        <ele>110.9</ele>
        <time>2016-07-06T15:38:02Z</time>
        <sat>10</sat>
      </trkpt>
      <trkpt lat="43.483026" lon="11.054552">
        <ele>112.8</ele>
        <time>2016-07-06T15:38:03Z</time>
        <sat>10</sat>
      </trkpt>
      <trkpt lat="43.482942" lon="11.054463">
        <ele>114.4</ele>
        <time>2016-07-06T15:38:04Z</time>
        <sat>10</sat>
      </trkpt>
      <trkpt lat="43.482862" lon="11.054367">
        <ele>116.0</ele>
        <time>2016-07-06T15:38:05Z</time>
        <sat>10</sat>
      </trkpt>
      <trkpt lat="43.482789" lon="11.054255">
        <ele>117.8</ele>
        <time>2016-07-06T15:38:06Z</time>
        <sat>9</sat>
      </trkpt>
      <trkpt lat="43.482727" lon="11.054126">
        <ele>119.7</ele>
        <time>2016-07-06T15:38:07Z</time>
        <sat>10</sat>
      </trkpt>
      <trkpt lat="43.482670" lon="11.053990">
        <ele>121.3</ele>
        <time>2016-07-06T15:38:08Z</time>
        <sat>10</sat>
      </trkpt>
      <trkpt lat="43.482619" lon="11.053856">
        <ele>122.7</ele>
        <time>2016-07-06T15:38:09Z</time>
        <sat>9</sat>
      </trkpt>
      <trkpt lat="43.482572" lon="11.053721">
        <ele>123.8</ele>
        <time>2016-07-06T15:38:10Z</time>
        <sat>10</sat>
      </trkpt>
      <trkpt lat="43.482530" lon="11.053582">
        <ele>125.2</ele>
        <time>2016-07-06T15:38:11Z</time>
        <sat>10</sat>
      </trkpt>
      <trkpt lat="43.482495" lon="11.053437">
        <ele>126.6</ele>
        <time>2016-07-06T15:38:12Z</time>
        <sat>10</sat>
      </trkpt>
      <trkpt lat="43.482461" lon="11.053288">
        <ele>128.1</ele>
        <time>2016-07-06T15:38:13Z</time>
        <sat>10</sat>
      </trkpt>
      <trkpt lat="43.482430" lon="11.053138">
        <ele>129.8</ele>
        <time>2016-07-06T15:38:14Z</time>
        <sat>10</sat>
      </trkpt>
      <trkpt lat="43.482403" lon="11.052987">
        <ele>131.3</ele>
        <time>2016-07-06T15:38:15Z</time>
        <sat>10</sat>
      </trkpt>
      <trkpt lat="43.482377" lon="11.052835">
        <ele>132.9</ele>
        <time>2016-07-06T15:38:16Z</time>
        <sat>10</sat>
      </trkpt>
      <trkpt lat="43.482351" lon="11.052682">
        <ele>134.4</ele>
        <time>2016-07-06T15:38:17Z</time>
        <sat>10</sat>
      </trkpt>
      <trkpt lat="43.482326" lon="11.052536">
        <ele>135.9</ele>
        <time>2016-07-06T15:38:18Z</time>
        <sat>10</sat>
      </trkpt>
      <trkpt lat="43.482301" lon="11.052397">
        <ele>137.3</ele>
        <time>2016-07-06T15:38:19Z</time>
        <sat>10</sat>
      </trkpt>
      <trkpt lat="43.482275" lon="11.052259">
        <ele>138.7</ele>
        <time>2016-07-06T15:38:20Z</time>
        <sat>10</sat>
      </trkpt>
      <trkpt lat="43.482248" lon="11.052119">
        <ele>140.0</ele>
        <time>2016-07-06T15:38:21Z</time>
        <sat>10</sat>
      </trkpt>
      <trkpt lat="43.482222" lon="11.051974">
        <ele>141.1</ele>
        <time>2016-07-06T15:38:22Z</time>
        <sat>10</sat>
      </trkpt>
      <trkpt lat="43.482192" lon="11.051824">
        <ele>142.1</ele>
        <time>2016-07-06T15:38:23Z</time>
        <sat>10</sat>
      </trkpt>
      <trkpt lat="43.482155" lon="11.051669">
        <ele>143.3</ele>
        <time>2016-07-06T15:38:24Z</time>
        <sat>10</sat>
      </trkpt>
      <trkpt lat="43.482112" lon="11.051520">
        <ele>144.5</ele>
        <time>2016-07-06T15:38:25Z</time>
        <sat>10</sat>
      </trkpt>
      <trkpt lat="43.482063" lon="11.051387">
        <ele>145.9</ele>
        <time>2016-07-06T15:38:26Z</time>
        <sat>8</sat>
      </trkpt>
      <trkpt lat="43.482010" lon="11.051258">
        <ele>147.3</ele>
        <time>2016-07-06T15:38:27Z</time>
        <sat>10</sat>
      </trkpt>
      <trkpt lat="43.481952" lon="11.051130">
        <ele>148.7</ele>
        <time>2016-07-06T15:38:28Z</time>
        <sat>10</sat>
      </trkpt>
      <trkpt lat="43.481891" lon="11.051001">
        <ele>149.9</ele>
        <time>2016-07-06T15:38:29Z</time>
        <sat>10</sat>
      </trkpt>
      <trkpt lat="43.481829" lon="11.050867">
        <ele>151.3</ele>
        <time>2016-07-06T15:38:30Z</time>
        <sat>10</sat>
      </trkpt>
      <trkpt lat="43.481769" lon="11.050737">
        <ele>152.5</ele>
        <time>2016-07-06T15:38:31Z</time>
        <sat>10</sat>
      </trkpt>
      <trkpt lat="43.481710" lon="11.050611">
        <ele>153.2</ele>
        <time>2016-07-06T15:38:32Z</time>
        <sat>10</sat>
      </trkpt>
      <trkpt lat="43.481660" lon="11.050487">
        <ele>154.3</ele>
        <time>2016-07-06T15:38:33Z</time>
        <sat>10</sat>
      </trkpt>
      <trkpt lat="43.481612" lon="11.050353">
        <ele>155.4</ele>
        <time>2016-07-06T15:38:34Z</time>
        <sat>10</sat>
      </trkpt>
      <trkpt lat="43.481565" lon="11.050207">
        <ele>156.5</ele>
        <time>2016-07-06T15:38:35Z</time>
        <sat>9</sat>
      </trkpt>
      <trkpt lat="43.481516" lon="11.050057">
        <ele>157.7</ele>
        <time>2016-07-06T15:38:36Z</time>
        <sat>9</sat>
      </trkpt>
      <trkpt lat="43.481457" lon="11.049912">
        <ele>158.7</ele>
        <time>2016-07-06T15:38:37Z</time>
        <sat>10</sat>
      </trkpt>
      <trkpt lat="43.481391" lon="11.049773">
        <ele>159.7</ele>
        <time>2016-07-06T15:38:38Z</time>
        <sat>8</sat>
      </trkpt>
      <trkpt lat="43.481319" lon="11.049648">
        <ele>160.7</ele>
        <time>2016-07-06T15:38:39Z</time>
        <sat>9</sat>
      </trkpt>
      <trkpt lat="43.481250" lon="11.049515">
        <ele>161.9</ele>
        <time>2016-07-06T15:38:40Z</time>
        <sat>10</sat>
      </trkpt>
      <trkpt lat="43.481185" lon="11.049393">
        <ele>163.3</ele>
        <time>2016-07-06T15:38:41Z</time>
        <sat>8</sat>
      </trkpt>
      <trkpt lat="43.481113" lon="11.049266">
        <ele>164.6</ele>
        <time>2016-07-06T15:38:42Z</time>
        <sat>9</sat>
      </trkpt>
      <trkpt lat="43.481045" lon="11.049147">
        <ele>166.1</ele>
        <time>2016-07-06T15:38:43Z</time>
        <sat>8</sat>
      </trkpt>
      <trkpt lat="43.480978" lon="11.049031">
        <ele>167.3</ele>
        <time>2016-07-06T15:38:44Z</time>
        <sat>10</sat>
      </trkpt>
      <trkpt lat="43.480911" lon="11.048916">
        <ele>168.8</ele>
        <time>2016-07-06T15:38:45Z</time>
        <sat>9</sat>
      </trkpt>
      <trkpt lat="43.480839" lon="11.048816">
        <ele>170.2</ele>
        <time>2016-07-06T15:38:46Z</time>
        <sat>9</sat>
      </trkpt>
      <trkpt lat="43.480764" lon="11.048740">
        <ele>171.7</ele>
        <time>2016-07-06T15:38:47Z</time>
        <sat>10</sat>
      </trkpt>
      <trkpt lat="43.480688" lon="11.048650">
        <ele>173.2</ele>
        <time>2016-07-06T15:38:48Z</time>
        <sat>9</sat>
      </trkpt>
      <trkpt lat="43.480614" lon="11.048545">
        <ele>175.2</ele>
        <time>2016-07-06T15:38:49Z</time>
        <sat>9</sat>
      </trkpt>
      <trkpt lat="43.480541" lon="11.048420">
        <ele>176.9</ele>
        <time>2016-07-06T15:38:50Z</time>
        <sat>9</sat>
      </trkpt>
      <trkpt lat="43.480477" lon="11.048279">
        <ele>178.6</ele>
        <time>2016-07-06T15:38:51Z</time>
        <sat>9</sat>
      </trkpt>
      <trkpt lat="43.480422" lon="11.048126">
        <ele>179.7</ele>
        <time>2016-07-06T15:38:52Z</time>
        <sat>10</sat>
      </trkpt>
      <trkpt lat="43.480365" lon="11.047965">
        <ele>179.8</ele>
        <time>2016-07-06T15:38:53Z</time>
        <sat>8</sat>
      </trkpt>
      <trkpt lat="43.480306" lon="11.047807">
        <ele>181.2</ele>
        <time>2016-07-06T15:38:54Z</time>
        <sat>10</sat>
      </trkpt>
      <trkpt lat="43.480244" lon="11.047657">
        <ele>182.2</ele>
        <time>2016-07-06T15:38:55Z</time>
        <sat>9</sat>
      </trkpt>
      <trkpt lat="43.480181" lon="11.047505">
        <ele>183.2</ele>
        <time>2016-07-06T15:38:56Z</time>
        <sat>10</sat>
      </trkpt>
      <trkpt lat="43.480124" lon="11.047365">
        <ele>184.4</ele>
        <time>2016-07-06T15:38:57Z</time>
        <sat>9</sat>
      </trkpt>
      <trkpt lat="43.480013" lon="11.047107">
        <ele>186.9</ele>
        <time>2016-07-06T15:38:59Z</time>
        <sat>9</sat>
      </trkpt>
      <trkpt lat="43.479951" lon="11.046975">
        <ele>187.7</ele>
        <time>2016-07-06T15:39:00Z</time>
        <sat>9</sat>
      </trkpt>
      <trkpt lat="43.479894" lon="11.046868">
        <ele>188.6</ele>
        <time>2016-07-06T15:39:01Z</time>
        <sat>9</sat>
      </trkpt>
      <trkpt lat="43.479823" lon="11.046777">
        <ele>190.4</ele>
        <time>2016-07-06T15:39:02Z</time>
        <sat>9</sat>
      </trkpt>
      <trkpt lat="43.479743" lon="11.046693">
        <ele>192.1</ele>
        <time>2016-07-06T15:39:03Z</time>
        <sat>9</sat>
      </trkpt>
      <trkpt lat="43.479659" lon="11.046606">
        <ele>194.3</ele>
        <time>2016-07-06T15:39:04Z</time>
        <sat>10</sat>
      </trkpt>
      <trkpt lat="43.479592" lon="11.046511">
        <ele>196.5</ele>
        <time>2016-07-06T15:39:05Z</time>
        <sat>10</sat>
      </trkpt>
      <trkpt lat="43.479532" lon="11.046418">
        <ele>198.5</ele>
        <time>2016-07-06T15:39:06Z</time>
        <sat>9</sat>
      </trkpt>
      <trkpt lat="43.479464" lon="11.046324">
        <ele>199.8</ele>
        <time>2016-07-06T15:39:07Z</time>
        <sat>10</sat>
      </trkpt>
      <trkpt lat="43.479382" lon="11.046220">
        <ele>199.6</ele>
        <time>2016-07-06T15:39:08Z</time>
        <sat>10</sat>
      </trkpt>
      <trkpt lat="43.479288" lon="11.046112">
        <ele>199.3</ele>
        <time>2016-07-06T15:39:09Z</time>
        <sat>10</sat>
      </trkpt>
      <trkpt lat="43.479191" lon="11.046008">
        <ele>200.3</ele>
        <time>2016-07-06T15:39:10Z</time>
        <sat>10</sat>
      </trkpt>
      <trkpt lat="43.479104" lon="11.045920">
        <ele>200.3</ele>
        <time>2016-07-06T15:39:11Z</time>
        <sat>10</sat>
      </trkpt>
      <trkpt lat="43.478977" lon="11.045790">
        <ele>200.0</ele>
        <time>2016-07-06T15:39:13Z</time>
        <sat>10</sat>
      </trkpt>
      <trkpt lat="43.478895" lon="11.045670">
        <ele>200.5</ele>
        <time>2016-07-06T15:39:15Z</time>
        <sat>10</sat>
      </trkpt>
      <trkpt lat="43.478840" lon="11.045535">
        <ele>200.2</ele>
        <time>2016-07-06T15:39:18Z</time>
        <sat>10</sat>
      </trkpt>
      <trkpt lat="43.478821" lon="11.045411">
        <ele>202.9</ele>
        <time>2016-07-06T15:39:37Z</time>
        <sat>10</sat>
      </trkpt>
      <trkpt lat="43.478743" lon="11.045296">
        <ele>202.8</ele>
        <time>2016-07-06T15:39:41Z</time>
        <sat>10</sat>
      </trkpt>
      <trkpt lat="43.478664" lon="11.045231">
        <ele>202.6</ele>
        <time>2016-07-06T15:39:42Z</time>
        <sat>10</sat>
      </trkpt>
      <trkpt lat="43.478549" lon="11.045147">
        <ele>202.1</ele>
        <time>2016-07-06T15:39:43Z</time>
        <sat>10</sat>
      </trkpt>
      <trkpt lat="43.478419" lon="11.045049">
        <ele>201.4</ele>
        <time>2016-07-06T15:39:44Z</time>
        <sat>10</sat>
      </trkpt>
      <trkpt lat="43.478297" lon="11.044946">
        <ele>200.7</ele>
        <time>2016-07-06T15:39:45Z</time>
        <sat>8</sat>
      </trkpt>
      <trkpt lat="43.478188" lon="11.044844">
        <ele>200.0</ele>
        <time>2016-07-06T15:39:46Z</time>
        <sat>10</sat>
      </trkpt>
      <trkpt lat="43.478088" lon="11.044744">
        <ele>199.4</ele>
        <time>2016-07-06T15:39:47Z</time>
        <sat>10</sat>
      </trkpt>
      <trkpt lat="43.477993" lon="11.044639">
        <ele>198.6</ele>
        <time>2016-07-06T15:39:48Z</time>
        <sat>10</sat>
      </trkpt>
      <trkpt lat="43.477899" lon="11.044524">
        <ele>197.7</ele>
        <time>2016-07-06T15:39:49Z</time>
        <sat>9</sat>
      </trkpt>
      <trkpt lat="43.477803" lon="11.044397">
        <ele>196.9</ele>
        <time>2016-07-06T15:39:50Z</time>
        <sat>10</sat>
      </trkpt>
      <trkpt lat="43.477704" lon="11.044261">
        <ele>196.6</ele>
        <time>2016-07-06T15:39:51Z</time>
        <sat>10</sat>
      </trkpt>
      <trkpt lat="43.477603" lon="11.044124">
        <ele>196.1</ele>
        <time>2016-07-06T15:39:52Z</time>
        <sat>10</sat>
      </trkpt>
      <trkpt lat="43.477505" lon="11.043986">
        <ele>195.7</ele>
        <time>2016-07-06T15:39:53Z</time>
        <sat>10</sat>
      </trkpt>
      <trkpt lat="43.477412" lon="11.043846">
        <ele>195.5</ele>
        <time>2016-07-06T15:39:54Z</time>
        <sat>10</sat>
      </trkpt>
      <trkpt lat="43.477325" lon="11.043704">
        <ele>195.6</ele>
        <time>2016-07-06T15:39:55Z</time>
        <sat>10</sat>
      </trkpt>
      <trkpt lat="43.477240" lon="11.043559">
        <ele>195.7</ele>
        <time>2016-07-06T15:39:56Z</time>
        <sat>10</sat>
      </trkpt>
      <trkpt lat="43.477151" lon="11.043415">
        <ele>195.9</ele>
        <time>2016-07-06T15:39:57Z</time>
        <sat>10</sat>
      </trkpt>
      <trkpt lat="43.477053" lon="11.043279">
        <ele>196.3</ele>
        <time>2016-07-06T15:39:58Z</time>
        <sat>10</sat>
      </trkpt>
      <trkpt lat="43.476948" lon="11.043160">
        <ele>196.7</ele>
        <time>2016-07-06T15:39:59Z</time>
        <sat>10</sat>
      </trkpt>
      <trkpt lat="43.476720" lon="11.042966">
        <ele>198.4</ele>
        <time>2016-07-06T15:40:01Z</time>
        <sat>10</sat>
      </trkpt>
      <trkpt lat="43.476604" lon="11.042875">
        <ele>199.4</ele>
        <time>2016-07-06T15:40:02Z</time>
        <sat>10</sat>
      </trkpt>
      <trkpt lat="43.476484" lon="11.042781">
        <ele>200.7</ele>
        <time>2016-07-06T15:40:03Z</time>
        <sat>10</sat>
      </trkpt>
      <trkpt lat="43.476362" lon="11.042681">
        <ele>202.2</ele>
        <time>2016-07-06T15:40:04Z</time>
        <sat>9</sat>
      </trkpt>
      <trkpt lat="43.476242" lon="11.042583">
        <ele>203.6</ele>
        <time>2016-07-06T15:40:05Z</time>
        <sat>8</sat>
      </trkpt>
      <trkpt lat="43.476120" lon="11.042492">
        <ele>205.0</ele>
        <time>2016-07-06T15:40:06Z</time>
        <sat>9</sat>
      </trkpt>
      <trkpt lat="43.475992" lon="11.042417">
        <ele>206.1</ele>
        <time>2016-07-06T15:40:07Z</time>
        <sat>8</sat>
      </trkpt>
      <trkpt lat="43.475865" lon="11.042339">
        <ele>206.8</ele>
        <time>2016-07-06T15:40:08Z</time>
        <sat>9</sat>
      </trkpt>
      <trkpt lat="43.475729" lon="11.042251">
        <ele>207.5</ele>
        <time>2016-07-06T15:40:09Z</time>
        <sat>9</sat>
      </trkpt>
      <trkpt lat="43.475589" lon="11.042158">
        <ele>207.3</ele>
        <time>2016-07-06T15:40:10Z</time>
        <sat>9</sat>
      </trkpt>
      <trkpt lat="43.475450" lon="11.042080">
        <ele>208.0</ele>
        <time>2016-07-06T15:40:11Z</time>
        <sat>9</sat>
      </trkpt>
      <trkpt lat="43.475311" lon="11.042009">
        <ele>208.5</ele>
        <time>2016-07-06T15:40:12Z</time>
        <sat>7</sat>
      </trkpt>
      <trkpt lat="43.475173" lon="11.041942">
        <ele>209.7</ele>
        <time>2016-07-06T15:40:13Z</time>
        <sat>9</sat>
      </trkpt>
      <trkpt lat="43.475032" lon="11.041880">
        <ele>210.9</ele>
        <time>2016-07-06T15:40:14Z</time>
        <sat>9</sat>
      </trkpt>
      <trkpt lat="43.474889" lon="11.041821">
        <ele>212.2</ele>
        <time>2016-07-06T15:40:15Z</time>
        <sat>10</sat>
      </trkpt>
      <trkpt lat="43.474744" lon="11.041763">
        <ele>213.4</ele>
        <time>2016-07-06T15:40:16Z</time>
        <sat>10</sat>
      </trkpt>
      <trkpt lat="43.474601" lon="11.041705">
        <ele>214.8</ele>
        <time>2016-07-06T15:40:17Z</time>
        <sat>10</sat>
      </trkpt>
      <trkpt lat="43.474461" lon="11.041646">
        <ele>216.3</ele>
        <time>2016-07-06T15:40:18Z</time>
        <sat>10</sat>
      </trkpt>
      <trkpt lat="43.474324" lon="11.041587">
        <ele>217.8</ele>
        <time>2016-07-06T15:40:19Z</time>
        <sat>10</sat>
      </trkpt>
      <trkpt lat="43.474191" lon="11.041527">
        <ele>219.1</ele>
        <time>2016-07-06T15:40:20Z</time>
        <sat>10</sat>
      </trkpt>
      <trkpt lat="43.474062" lon="11.041467">
        <ele>220.3</ele>
        <time>2016-07-06T15:40:21Z</time>
        <sat>10</sat>
      </trkpt>
      <trkpt lat="43.473936" lon="11.041408">
        <ele>221.8</ele>
        <time>2016-07-06T15:40:22Z</time>
        <sat>9</sat>
      </trkpt>
      <trkpt lat="43.473813" lon="11.041343">
        <ele>223.1</ele>
        <time>2016-07-06T15:40:23Z</time>
        <sat>9</sat>
      </trkpt>
      <trkpt lat="43.473695" lon="11.041267">
        <ele>224.3</ele>
        <time>2016-07-06T15:40:24Z</time>
        <sat>9</sat>
      </trkpt>
      <trkpt lat="43.473580" lon="11.041180">
        <ele>225.3</ele>
        <time>2016-07-06T15:40:25Z</time>
        <sat>9</sat>
      </trkpt>
      <trkpt lat="43.473466" lon="11.041087">
        <ele>226.4</ele>
        <time>2016-07-06T15:40:26Z</time>
        <sat>9</sat>
      </trkpt>
      <trkpt lat="43.473347" lon="11.040997">
        <ele>227.5</ele>
        <time>2016-07-06T15:40:27Z</time>
        <sat>10</sat>
      </trkpt>
      <trkpt lat="43.473226" lon="11.040906">
        <ele>228.2</ele>
        <time>2016-07-06T15:40:28Z</time>
        <sat>10</sat>
      </trkpt>
      <trkpt lat="43.473098" lon="11.040821">
        <ele>229.7</ele>
        <time>2016-07-06T15:40:29Z</time>
        <sat>10</sat>
      </trkpt>
      <trkpt lat="43.472965" lon="11.040743">
        <ele>231.2</ele>
        <time>2016-07-06T15:40:30Z</time>
        <sat>10</sat>
      </trkpt>
      <trkpt lat="43.472835" lon="11.040665">
        <ele>232.6</ele>
        <time>2016-07-06T15:40:31Z</time>
        <sat>10</sat>
      </trkpt>
      <trkpt lat="43.472709" lon="11.040585">
        <ele>234.0</ele>
        <time>2016-07-06T15:40:32Z</time>
        <sat>9</sat>
      </trkpt>
      <trkpt lat="43.472586" lon="11.040512">
        <ele>235.5</ele>
        <time>2016-07-06T15:40:33Z</time>
        <sat>10</sat>
      </trkpt>
      <trkpt lat="43.472462" lon="11.040449">
        <ele>237.2</ele>
        <time>2016-07-06T15:40:34Z</time>
        <sat>10</sat>
      </trkpt>
      <trkpt lat="43.472340" lon="11.040395">
        <ele>238.8</ele>
        <time>2016-07-06T15:40:35Z</time>
        <sat>10</sat>
      </trkpt>
      <trkpt lat="43.472220" lon="11.040349">
        <ele>240.6</ele>
        <time>2016-07-06T15:40:36Z</time>
        <sat>10</sat>
      </trkpt>
      <trkpt lat="43.472105" lon="11.040307">
        <ele>242.4</ele>
        <time>2016-07-06T15:40:37Z</time>
        <sat>10</sat>
      </trkpt>
      <trkpt lat="43.471998" lon="11.040269">
        <ele>244.2</ele>
        <time>2016-07-06T15:40:38Z</time>
        <sat>10</sat>
      </trkpt>
      <trkpt lat="43.471909" lon="11.040234">
        <ele>246.0</ele>
        <time>2016-07-06T15:40:39Z</time>
        <sat>9</sat>
      </trkpt>
      <trkpt lat="43.471815" lon="11.040170">
        <ele>247.7</ele>
        <time>2016-07-06T15:40:41Z</time>
        <sat>10</sat>
      </trkpt>
      <trkpt lat="43.471738" lon="11.040103">
        <ele>247.3</ele>
        <time>2016-07-06T15:41:00Z</time>
        <sat>10</sat>
      </trkpt>
      <trkpt lat="43.471855" lon="11.040672">
        <ele>245.5</ele>
        <time>2016-07-06T15:44:25Z</time>
        <sat>10</sat>
      </trkpt>
      <trkpt lat="43.471895" lon="11.040786">
        <ele>246.1</ele>
        <time>2016-07-06T15:44:26Z</time>
        <sat>10</sat>
      </trkpt>
      <trkpt lat="43.471960" lon="11.041005">
        <ele>246.9</ele>
        <time>2016-07-06T15:44:28Z</time>
        <sat>10</sat>
      </trkpt>
      <trkpt lat="43.471954" lon="11.041216">
        <ele>247.8</ele>
        <time>2016-07-06T15:44:30Z</time>
        <sat>10</sat>
      </trkpt>
      <trkpt lat="43.471864" lon="11.041378">
        <ele>249.4</ele>
        <time>2016-07-06T15:44:32Z</time>
        <sat>10</sat>
      </trkpt>
      <trkpt lat="43.471729" lon="11.041423">
        <ele>251.1</ele>
        <time>2016-07-06T15:44:34Z</time>
        <sat>10</sat>
      </trkpt>
      <trkpt lat="43.471599" lon="11.041328">
        <ele>260.4</ele>
        <time>2016-07-06T15:44:36Z</time>
        <sat>10</sat>
      </trkpt>
      <trkpt lat="43.471507" lon="11.041139">
        <ele>268.6</ele>
        <time>2016-07-06T15:44:38Z</time>
        <sat>10</sat>
      </trkpt>
      <trkpt lat="43.471372" lon="11.041002">
        <ele>276.5</ele>
        <time>2016-07-06T15:44:40Z</time>
        <sat>10</sat>
      </trkpt>
      <trkpt lat="43.471282" lon="11.040965">
        <ele>279.1</ele>
        <time>2016-07-06T15:44:41Z</time>
        <sat>10</sat>
      </trkpt>
      <trkpt lat="43.471188" lon="11.040959">
        <ele>282.1</ele>
        <time>2016-07-06T15:44:42Z</time>
        <sat>10</sat>
      </trkpt>
      <trkpt lat="43.471097" lon="11.040959">
        <ele>284.9</ele>
        <time>2016-07-06T15:44:43Z</time>
        <sat>10</sat>
      </trkpt>
      <trkpt lat="43.470946" lon="11.040940">
        <ele>289.5</ele>
        <time>2016-07-06T15:44:45Z</time>
        <sat>8</sat>
      </trkpt>
      <trkpt lat="43.470851" lon="11.040923">
        <ele>286.1</ele>
        <time>2016-07-06T15:44:47Z</time>
        <sat>6</sat>
      </trkpt>
      <trkpt lat="43.470752" lon="11.040917">
        <ele>285.7</ele>
        <time>2016-07-06T15:44:52Z</time>
        <sat>7</sat>
      </trkpt>
      <trkpt lat="43.470632" lon="11.040976">
        <ele>274.9</ele>
        <time>2016-07-06T15:52:22Z</time>
        <sat>7</sat>
      </trkpt>
      <trkpt lat="43.470322" lon="11.041044">
        <ele>275.6</ele>
        <time>2016-07-06T15:52:26Z</time>
        <sat>8</sat>
      </trkpt>
      <trkpt lat="43.470211" lon="11.041040">
        <ele>275.7</ele>
        <time>2016-07-06T15:52:28Z</time>
        <sat>8</sat>
      </trkpt>
      <trkpt lat="43.470116" lon="11.041008">
        <ele>275.7</ele>
        <time>2016-07-06T15:52:30Z</time>
        <sat>8</sat>
      </trkpt>
      <trkpt lat="43.470011" lon="11.040952">
        <ele>275.6</ele>
        <time>2016-07-06T15:52:32Z</time>
        <sat>7</sat>
      </trkpt>
      <trkpt lat="43.469907" lon="11.040883">
        <ele>275.6</ele>
        <time>2016-07-06T15:52:35Z</time>
        <sat>7</sat>
      </trkpt>
      <trkpt lat="43.469820" lon="11.040847">
        <ele>275.1</ele>
        <time>2016-07-06T15:52:49Z</time>
        <sat>8</sat>
      </trkpt>
      <trkpt lat="43.469729" lon="11.040824">
        <ele>275.5</ele>
        <time>2016-07-06T15:52:51Z</time>
        <sat>8</sat>
      </trkpt>
      <trkpt lat="43.469598" lon="11.040793">
        <ele>276.2</ele>
        <time>2016-07-06T15:52:53Z</time>
        <sat>8</sat>
      </trkpt>
      <trkpt lat="43.469439" lon="11.040750">
        <ele>277.4</ele>
        <time>2016-07-06T15:52:55Z</time>
        <sat>8</sat>
      </trkpt>
      <trkpt lat="43.469287" lon="11.040711">
        <ele>278.8</ele>
        <time>2016-07-06T15:52:57Z</time>
        <sat>8</sat>
      </trkpt>
      <trkpt lat="43.469168" lon="11.040680">
        <ele>278.9</ele>
        <time>2016-07-06T15:52:59Z</time>
        <sat>8</sat>
      </trkpt>
      <trkpt lat="43.469086" lon="11.040604">
        <ele>279.1</ele>
        <time>2016-07-06T15:53:03Z</time>
        <sat>8</sat>
      </trkpt>
      <trkpt lat="43.469032" lon="11.040444">
        <ele>279.9</ele>
        <time>2016-07-06T15:53:06Z</time>
        <sat>8</sat>
      </trkpt>
      <trkpt lat="43.469055" lon="11.040299">
        <ele>279.6</ele>
        <time>2016-07-06T15:53:09Z</time>
        <sat>9</sat>
      </trkpt>
      <trkpt lat="43.469048" lon="11.040131">
        <ele>279.0</ele>
        <time>2016-07-06T15:53:12Z</time>
        <sat>8</sat>
      </trkpt>
      <trkpt lat="43.469009" lon="11.039964">
        <ele>278.1</ele>
        <time>2016-07-06T15:53:15Z</time>
        <sat>7</sat>
      </trkpt>
      <trkpt lat="43.468979" lon="11.039830">
        <ele>278.2</ele>
        <time>2016-07-06T15:53:21Z</time>
        <sat>9</sat>
      </trkpt>
      <trkpt lat="43.469024" lon="11.039965">
        <ele>276.6</ele>
        <time>2016-07-06T15:53:32Z</time>
        <sat>10</sat>
      </trkpt>
      <trkpt lat="43.469054" lon="11.040228">
        <ele>275.0</ele>
        <time>2016-07-06T15:53:37Z</time>
        <sat>10</sat>
      </trkpt>
      <trkpt lat="43.469015" lon="11.040364">
        <ele>275.1</ele>
        <time>2016-07-06T15:53:39Z</time>
        <sat>8</sat>
      </trkpt>
      <trkpt lat="43.469009" lon="11.040506">
        <ele>276.1</ele>
        <time>2016-07-06T15:53:42Z</time>
        <sat>9</sat>
      </trkpt>
      <trkpt lat="43.468881" lon="11.040471">
        <ele>277.9</ele>
        <time>2016-07-06T15:53:46Z</time>
        <sat>9</sat>
      </trkpt>
      <trkpt lat="43.468759" lon="11.040375">
        <ele>278.7</ele>
        <time>2016-07-06T15:53:48Z</time>
        <sat>9</sat>
      </trkpt>
      <trkpt lat="43.468637" lon="11.040275">
        <ele>279.8</ele>
        <time>2016-07-06T15:53:50Z</time>
        <sat>8</sat>
      </trkpt>
      <trkpt lat="43.468539" lon="11.040201">
        <ele>280.8</ele>
        <time>2016-07-06T15:53:52Z</time>
        <sat>9</sat>
      </trkpt>
      <trkpt lat="43.468456" lon="11.040134">
        <ele>281.0</ele>
        <time>2016-07-06T15:53:57Z</time>
        <sat>10</sat>
      </trkpt>
      <trkpt lat="43.468525" lon="11.040241">
        <ele>277.9</ele>
        <time>2016-07-06T15:54:47Z</time>
        <sat>10</sat>
      </trkpt>
      <trkpt lat="43.468721" lon="11.040404">
        <ele>276.2</ele>
        <time>2016-07-06T15:54:53Z</time>
        <sat>10</sat>
      </trkpt>
      <trkpt lat="43.468835" lon="11.040502">
        <ele>275.0</ele>
        <time>2016-07-06T15:54:56Z</time>
        <sat>10</sat>
      </trkpt>
      <trkpt lat="43.468925" lon="11.040565">
        <ele>273.0</ele>
        <time>2016-07-06T15:54:58Z</time>
        <sat>9</sat>
      </trkpt>
      <trkpt lat="43.469027" lon="11.040627">
        <ele>271.9</ele>
        <time>2016-07-06T15:55:00Z</time>
        <sat>8</sat>
      </trkpt>
      <trkpt lat="43.469129" lon="11.040676">
        <ele>271.0</ele>
        <time>2016-07-06T15:55:02Z</time>
        <sat>8</sat>
      </trkpt>
      <trkpt lat="43.469224" lon="11.040707">
        <ele>270.2</ele>
        <time>2016-07-06T15:55:04Z</time>
        <sat>8</sat>
      </trkpt>
      <trkpt lat="43.469315" lon="11.040739">
        <ele>269.5</ele>
        <time>2016-07-06T15:55:06Z</time>
        <sat>8</sat>
      </trkpt>
      <trkpt lat="43.469429" lon="11.040766">
        <ele>268.3</ele>
        <time>2016-07-06T15:55:08Z</time>
        <sat>8</sat>
      </trkpt>
      <trkpt lat="43.469574" lon="11.040786">
        <ele>266.9</ele>
        <time>2016-07-06T15:55:10Z</time>
        <sat>7</sat>
      </trkpt>
      <trkpt lat="43.469707" lon="11.040805">
        <ele>266.1</ele>
        <time>2016-07-06T15:55:12Z</time>
        <sat>8</sat>
      </trkpt>
      <trkpt lat="43.469833" lon="11.040839">
        <ele>264.0</ele>
        <time>2016-07-06T15:55:15Z</time>
        <sat>8</sat>
      </trkpt>
      <trkpt lat="43.469929" lon="11.040885">
        <ele>264.2</ele>
        <time>2016-07-06T15:55:17Z</time>
        <sat>8</sat>
      </trkpt>
      <trkpt lat="43.470013" lon="11.040933">
        <ele>263.7</ele>
        <time>2016-07-06T15:55:19Z</time>
        <sat>8</sat>
      </trkpt>
      <trkpt lat="43.470125" lon="11.040987">
        <ele>263.2</ele>
        <time>2016-07-06T15:55:21Z</time>
        <sat>8</sat>
      </trkpt>
      <trkpt lat="43.470281" lon="11.040999">
        <ele>262.2</ele>
        <time>2016-07-06T15:55:23Z</time>
        <sat>8</sat>
      </trkpt>
      <trkpt lat="43.470429" lon="11.040965">
        <ele>261.2</ele>
        <time>2016-07-06T15:55:25Z</time>
        <sat>8</sat>
      </trkpt>
      <trkpt lat="43.470595" lon="11.040927">
        <ele>260.5</ele>
        <time>2016-07-06T15:55:27Z</time>
        <sat>8</sat>
      </trkpt>
      <trkpt lat="43.470774" lon="11.040872">
        <ele>260.6</ele>
        <time>2016-07-06T15:55:29Z</time>
        <sat>7</sat>
      </trkpt>
      <trkpt lat="43.470862" lon="11.040843">
        <ele>260.7</ele>
        <time>2016-07-06T15:55:30Z</time>
        <sat>8</sat>
      </trkpt>
      <trkpt lat="43.471006" lon="11.040795">
        <ele>260.1</ele>
        <time>2016-07-06T15:55:32Z</time>
        <sat>8</sat>
      </trkpt>
      <trkpt lat="43.471103" lon="11.040761">
        <ele>258.9</ele>
        <time>2016-07-06T15:55:34Z</time>
        <sat>7</sat>
      </trkpt>
      <trkpt lat="43.471184" lon="11.040707">
        <ele>256.9</ele>
        <time>2016-07-06T15:55:39Z</time>
        <sat>9</sat>
      </trkpt>
      <trkpt lat="43.471094" lon="11.040600">
        <ele>256.4</ele>
        <time>2016-07-06T15:55:42Z</time>
        <sat>8</sat>
      </trkpt>
      <trkpt lat="43.471004" lon="11.040541">
        <ele>256.9</ele>
        <time>2016-07-06T15:55:45Z</time>
        <sat>8</sat>
      </trkpt>
      <trkpt lat="43.470976" lon="11.040420">
        <ele>256.5</ele>
        <time>2016-07-06T15:55:48Z</time>
        <sat>7</sat>
      </trkpt>
      <trkpt lat="43.471004" lon="11.040260">
        <ele>255.3</ele>
        <time>2016-07-06T15:55:51Z</time>
        <sat>8</sat>
      </trkpt>
      <trkpt lat="43.471274" lon="11.040101">
        <ele>253.9</ele>
        <time>2016-07-06T15:55:55Z</time>
        <sat>9</sat>
      </trkpt>
      <trkpt lat="43.471418" lon="11.040107">
        <ele>252.6</ele>
        <time>2016-07-06T15:55:57Z</time>
        <sat>9</sat>
      </trkpt>
      <trkpt lat="43.471541" lon="11.040117">
        <ele>249.8</ele>
        <time>2016-07-06T15:55:59Z</time>
        <sat>10</sat>
      </trkpt>
      <trkpt lat="43.471648" lon="11.040161">
        <ele>246.8</ele>
        <time>2016-07-06T15:56:02Z</time>
        <sat>10</sat>
      </trkpt>
      <trkpt lat="43.471674" lon="11.040042">
        <ele>243.4</ele>
        <time>2016-07-06T15:56:15Z</time>
        <sat>10</sat>
      </trkpt>
      <trkpt lat="43.471611" lon="11.039887">
        <ele>243.5</ele>
        <time>2016-07-06T15:56:18Z</time>
        <sat>10</sat>
      </trkpt>
      <trkpt lat="43.471574" lon="11.039762">
        <ele>243.4</ele>
        <time>2016-07-06T15:56:20Z</time>
        <sat>9</sat>
      </trkpt>
      <trkpt lat="43.471522" lon="11.039607">
        <ele>243.2</ele>
        <time>2016-07-06T15:56:22Z</time>
        <sat>10</sat>
      </trkpt>
      <trkpt lat="43.471469" lon="11.039407">
        <ele>242.8</ele>
        <time>2016-07-06T15:56:24Z</time>
        <sat>10</sat>
      </trkpt>
      <trkpt lat="43.471436" lon="11.039282">
        <ele>242.4</ele>
        <time>2016-07-06T15:56:25Z</time>
        <sat>10</sat>
      </trkpt>
      <trkpt lat="43.471399" lon="11.039145">
        <ele>241.9</ele>
        <time>2016-07-06T15:56:26Z</time>
        <sat>10</sat>
      </trkpt>
      <trkpt lat="43.471361" lon="11.038999">
        <ele>241.3</ele>
        <time>2016-07-06T15:56:27Z</time>
        <sat>10</sat>
      </trkpt>
      <trkpt lat="43.471326" lon="11.038855">
        <ele>240.8</ele>
        <time>2016-07-06T15:56:28Z</time>
        <sat>10</sat>
      </trkpt>
      <trkpt lat="43.471294" lon="11.038712">
        <ele>240.2</ele>
        <time>2016-07-06T15:56:29Z</time>
        <sat>10</sat>
      </trkpt>
      <trkpt lat="43.471264" lon="11.038557">
        <ele>239.8</ele>
        <time>2016-07-06T15:56:30Z</time>
        <sat>10</sat>
      </trkpt>
      <trkpt lat="43.471236" lon="11.038386">
        <ele>239.4</ele>
        <time>2016-07-06T15:56:31Z</time>
        <sat>9</sat>
      </trkpt>
      <trkpt lat="43.471211" lon="11.038203">
        <ele>238.9</ele>
        <time>2016-07-06T15:56:32Z</time>
        <sat>9</sat>
      </trkpt>
      <trkpt lat="43.471194" lon="11.038020">
        <ele>238.4</ele>
        <time>2016-07-06T15:56:33Z</time>
        <sat>9</sat>
      </trkpt>
      <trkpt lat="43.471183" lon="11.037841">
        <ele>237.9</ele>
        <time>2016-07-06T15:56:34Z</time>
        <sat>10</sat>
      </trkpt>
      <trkpt lat="43.471175" lon="11.037663">
        <ele>237.2</ele>
        <time>2016-07-06T15:56:35Z</time>
        <sat>9</sat>
      </trkpt>
      <trkpt lat="43.471169" lon="11.037474">
        <ele>236.5</ele>
        <time>2016-07-06T15:56:36Z</time>
        <sat>9</sat>
      </trkpt>
      <trkpt lat="43.471171" lon="11.037283">
        <ele>235.9</ele>
        <time>2016-07-06T15:56:37Z</time>
        <sat>8</sat>
      </trkpt>
      <trkpt lat="43.471177" lon="11.037075">
        <ele>235.5</ele>
        <time>2016-07-06T15:56:38Z</time>
        <sat>8</sat>
      </trkpt>
      <trkpt lat="43.471185" lon="11.036880">
        <ele>234.9</ele>
        <time>2016-07-06T15:56:39Z</time>
        <sat>7</sat>
      </trkpt>
      <trkpt lat="43.471197" lon="11.036696">
        <ele>235.3</ele>
        <time>2016-07-06T15:56:40Z</time>
        <sat>8</sat>
      </trkpt>
      <trkpt lat="43.471203" lon="11.036512">
        <ele>234.2</ele>
        <time>2016-07-06T15:56:41Z</time>
        <sat>8</sat>
      </trkpt>
      <trkpt lat="43.471202" lon="11.036329">
        <ele>234.0</ele>
        <time>2016-07-06T15:56:42Z</time>
        <sat>8</sat>
      </trkpt>
      <trkpt lat="43.471199" lon="11.036145">
        <ele>231.7</ele>
        <time>2016-07-06T15:56:43Z</time>
        <sat>10</sat>
      </trkpt>
      <trkpt lat="43.471197" lon="11.035961">
        <ele>232.2</ele>
        <time>2016-07-06T15:56:44Z</time>
        <sat>8</sat>
      </trkpt>
      <trkpt lat="43.471194" lon="11.035786">
        <ele>232.3</ele>
        <time>2016-07-06T15:56:45Z</time>
        <sat>10</sat>
      </trkpt>
      <trkpt lat="43.471190" lon="11.035620">
        <ele>232.0</ele>
        <time>2016-07-06T15:56:46Z</time>
        <sat>9</sat>
      </trkpt>
      <trkpt lat="43.471183" lon="11.035452">
        <ele>232.2</ele>
        <time>2016-07-06T15:56:47Z</time>
        <sat>10</sat>
      </trkpt>
      <trkpt lat="43.471180" lon="11.035289">
        <ele>232.7</ele>
        <time>2016-07-06T15:56:48Z</time>
        <sat>10</sat>
      </trkpt>
      <trkpt lat="43.471179" lon="11.035125">
        <ele>232.5</ele>
        <time>2016-07-06T15:56:49Z</time>
        <sat>10</sat>
      </trkpt>
      <trkpt lat="43.471177" lon="11.034956">
        <ele>232.2</ele>
        <time>2016-07-06T15:56:50Z</time>
        <sat>10</sat>
      </trkpt>
      <trkpt lat="43.471181" lon="11.034783">
        <ele>232.2</ele>
        <time>2016-07-06T15:56:51Z</time>
        <sat>10</sat>
      </trkpt>
      <trkpt lat="43.471188" lon="11.034611">
        <ele>232.0</ele>
        <time>2016-07-06T15:56:52Z</time>
        <sat>10</sat>
      </trkpt>
      <trkpt lat="43.471198" lon="11.034446">
        <ele>231.6</ele>
        <time>2016-07-06T15:56:53Z</time>
        <sat>9</sat>
      </trkpt>
      <trkpt lat="43.471228" lon="11.034118">
        <ele>230.8</ele>
        <time>2016-07-06T15:56:55Z</time>
        <sat>10</sat>
      </trkpt>
      <trkpt lat="43.471253" lon="11.033940">
        <ele>229.6</ele>
        <time>2016-07-06T15:56:56Z</time>
        <sat>10</sat>
      </trkpt>
      <trkpt lat="43.471289" lon="11.033756">
        <ele>228.1</ele>
        <time>2016-07-06T15:56:57Z</time>
        <sat>10</sat>
      </trkpt>
      <trkpt lat="43.471333" lon="11.033567">
        <ele>226.5</ele>
        <time>2016-07-06T15:56:58Z</time>
        <sat>10</sat>
      </trkpt>
      <trkpt lat="43.471385" lon="11.033377">
        <ele>224.7</ele>
        <time>2016-07-06T15:56:59Z</time>
        <sat>10</sat>
      </trkpt>
      <trkpt lat="43.471453" lon="11.033198">
        <ele>222.9</ele>
        <time>2016-07-06T15:57:00Z</time>
        <sat>10</sat>
      </trkpt>
      <trkpt lat="43.471541" lon="11.033037">
        <ele>221.7</ele>
        <time>2016-07-06T15:57:01Z</time>
        <sat>10</sat>
      </trkpt>
      <trkpt lat="43.471643" lon="11.032892">
        <ele>220.5</ele>
        <time>2016-07-06T15:57:02Z</time>
        <sat>10</sat>
      </trkpt>
      <trkpt lat="43.471750" lon="11.032759">
        <ele>219.0</ele>
        <time>2016-07-06T15:57:03Z</time>
        <sat>10</sat>
      </trkpt>
      <trkpt lat="43.471858" lon="11.032645">
        <ele>217.4</ele>
        <time>2016-07-06T15:57:04Z</time>
        <sat>9</sat>
      </trkpt>
      <trkpt lat="43.471963" lon="11.032546">
        <ele>216.6</ele>
        <time>2016-07-06T15:57:05Z</time>
        <sat>9</sat>
      </trkpt>
      <trkpt lat="43.472059" lon="11.032460">
        <ele>215.9</ele>
        <time>2016-07-06T15:57:06Z</time>
        <sat>10</sat>
      </trkpt>
      <trkpt lat="43.472158" lon="11.032391">
        <ele>215.5</ele>
        <time>2016-07-06T15:57:07Z</time>
        <sat>10</sat>
      </trkpt>
      <trkpt lat="43.472258" lon="11.032337">
        <ele>215.2</ele>
        <time>2016-07-06T15:57:08Z</time>
        <sat>9</sat>
      </trkpt>
      <trkpt lat="43.472351" lon="11.032288">
        <ele>214.7</ele>
        <time>2016-07-06T15:57:09Z</time>
        <sat>10</sat>
      </trkpt>
      <trkpt lat="43.472435" lon="11.032241">
        <ele>214.1</ele>
        <time>2016-07-06T15:57:10Z</time>
        <sat>9</sat>
      </trkpt>
      <trkpt lat="43.472587" lon="11.032150">
        <ele>213.7</ele>
        <time>2016-07-06T15:57:12Z</time>
        <sat>10</sat>
      </trkpt>
      <trkpt lat="43.472730" lon="11.032069">
        <ele>213.7</ele>
        <time>2016-07-06T15:57:14Z</time>
        <sat>9</sat>
      </trkpt>
      <trkpt lat="43.472846" lon="11.032001">
        <ele>213.9</ele>
        <time>2016-07-06T15:57:16Z</time>
        <sat>10</sat>
      </trkpt>
      <trkpt lat="43.472876" lon="11.031874">
        <ele>213.9</ele>
        <time>2016-07-06T15:57:19Z</time>
        <sat>9</sat>
      </trkpt>
      <trkpt lat="43.472744" lon="11.031942">
        <ele>214.1</ele>
        <time>2016-07-06T15:57:22Z</time>
        <sat>9</sat>
      </trkpt>
      <trkpt lat="43.472656" lon="11.032004">
        <ele>214.6</ele>
        <time>2016-07-06T15:57:24Z</time>
        <sat>10</sat>
      </trkpt>
      <trkpt lat="43.472564" lon="11.032061">
        <ele>215.0</ele>
        <time>2016-07-06T15:57:27Z</time>
        <sat>10</sat>
      </trkpt>
      <trkpt lat="43.472488" lon="11.032152">
        <ele>215.1</ele>
        <time>2016-07-06T15:57:37Z</time>
        <sat>9</sat>
      </trkpt>
      <trkpt lat="43.472400" lon="11.032221">
        <ele>215.0</ele>
        <time>2016-07-06T15:57:39Z</time>
        <sat>10</sat>
      </trkpt>
      <trkpt lat="43.472317" lon="11.032285">
        <ele>215.3</ele>
        <time>2016-07-06T15:57:41Z</time>
        <sat>9</sat>
      </trkpt>
      <trkpt lat="43.472219" lon="11.032225">
        <ele>215.7</ele>
        <time>2016-07-06T15:57:44Z</time>
        <sat>10</sat>
      </trkpt>
      <trkpt lat="43.472195" lon="11.032044">
        <ele>214.8</ele>
        <time>2016-07-06T15:57:47Z</time>
        <sat>9</sat>
      </trkpt>
      <trkpt lat="43.472207" lon="11.031838">
        <ele>213.2</ele>
        <time>2016-07-06T15:57:49Z</time>
        <sat>9</sat>
      </trkpt>
      <trkpt lat="43.472226" lon="11.031585">
        <ele>211.1</ele>
        <time>2016-07-06T15:57:51Z</time>
        <sat>9</sat>
      </trkpt>
      <trkpt lat="43.472233" lon="11.031445">
        <ele>209.8</ele>
        <time>2016-07-06T15:57:52Z</time>
        <sat>9</sat>
      </trkpt>
      <trkpt lat="43.472236" lon="11.031308">
        <ele>207.4</ele>
        <time>2016-07-06T15:57:53Z</time>
        <sat>9</sat>
      </trkpt>
      <trkpt lat="43.472240" lon="11.031166">
        <ele>206.1</ele>
        <time>2016-07-06T15:57:54Z</time>
        <sat>8</sat>
      </trkpt>
      <trkpt lat="43.472238" lon="11.031006">
        <ele>204.8</ele>
        <time>2016-07-06T15:57:55Z</time>
        <sat>8</sat>
      </trkpt>
      <trkpt lat="43.472221" lon="11.030654">
        <ele>202.3</ele>
        <time>2016-07-06T15:57:57Z</time>
        <sat>8</sat>
      </trkpt>
      <trkpt lat="43.472214" lon="11.030469">
        <ele>201.4</ele>
        <time>2016-07-06T15:57:58Z</time>
        <sat>7</sat>
      </trkpt>
      <trkpt lat="43.472204" lon="11.030276">
        <ele>200.6</ele>
        <time>2016-07-06T15:57:59Z</time>
        <sat>7</sat>
      </trkpt>
      <trkpt lat="43.472191" lon="11.030069">
        <ele>200.1</ele>
        <time>2016-07-06T15:58:00Z</time>
        <sat>7</sat>
      </trkpt>
      <trkpt lat="43.472178" lon="11.029859">
        <ele>199.4</ele>
        <time>2016-07-06T15:58:01Z</time>
        <sat>7</sat>
      </trkpt>
      <trkpt lat="43.472162" lon="11.029656">
        <ele>198.4</ele>
        <time>2016-07-06T15:58:02Z</time>
        <sat>7</sat>
      </trkpt>
      <trkpt lat="43.472152" lon="11.029464">
        <ele>197.6</ele>
        <time>2016-07-06T15:58:03Z</time>
        <sat>7</sat>
      </trkpt>
      <trkpt lat="43.472148" lon="11.029278">
        <ele>196.8</ele>
        <time>2016-07-06T15:58:04Z</time>
        <sat>7</sat>
      </trkpt>
      <trkpt lat="43.472152" lon="11.029101">
        <ele>196.4</ele>
        <time>2016-07-06T15:58:05Z</time>
        <sat>7</sat>
      </trkpt>
      <trkpt lat="43.472154" lon="11.028924">
        <ele>195.8</ele>
        <time>2016-07-06T15:58:06Z</time>
        <sat>7</sat>
      </trkpt>
      <trkpt lat="43.472158" lon="11.028744">
        <ele>195.3</ele>
        <time>2016-07-06T15:58:07Z</time>
        <sat>7</sat>
      </trkpt>
      <trkpt lat="43.472163" lon="11.028574">
        <ele>195.0</ele>
        <time>2016-07-06T15:58:08Z</time>
        <sat>6</sat>
      </trkpt>
      <trkpt lat="43.472168" lon="11.028416">
        <ele>195.2</ele>
        <time>2016-07-06T15:58:09Z</time>
        <sat>7</sat>
      </trkpt>
      <trkpt lat="43.472169" lon="11.028263">
        <ele>195.1</ele>
        <time>2016-07-06T15:58:10Z</time>
        <sat>7</sat>
      </trkpt>
      <trkpt lat="43.472174" lon="11.028113">
        <ele>194.9</ele>
        <time>2016-07-06T15:58:11Z</time>
        <sat>7</sat>
      </trkpt>
      <trkpt lat="43.472184" lon="11.027953">
        <ele>194.7</ele>
        <time>2016-07-06T15:58:12Z</time>
        <sat>7</sat>
      </trkpt>
      <trkpt lat="43.472203" lon="11.027781">
        <ele>195.0</ele>
        <time>2016-07-06T15:58:13Z</time>
        <sat>8</sat>
      </trkpt>
      <trkpt lat="43.472230" lon="11.027605">
        <ele>194.9</ele>
        <time>2016-07-06T15:58:14Z</time>
        <sat>8</sat>
      </trkpt>
      <trkpt lat="43.472253" lon="11.027421">
        <ele>195.1</ele>
        <time>2016-07-06T15:58:15Z</time>
        <sat>8</sat>
      </trkpt>
      <trkpt lat="43.472278" lon="11.027231">
        <ele>195.3</ele>
        <time>2016-07-06T15:58:16Z</time>
        <sat>8</sat>
      </trkpt>
      <trkpt lat="43.472309" lon="11.027037">
        <ele>195.7</ele>
        <time>2016-07-06T15:58:17Z</time>
        <sat>8</sat>
      </trkpt>
      <trkpt lat="43.472341" lon="11.026842">
        <ele>196.2</ele>
        <time>2016-07-06T15:58:18Z</time>
        <sat>8</sat>
      </trkpt>
      <trkpt lat="43.472370" lon="11.026650">
        <ele>196.7</ele>
        <time>2016-07-06T15:58:19Z</time>
        <sat>8</sat>
      </trkpt>
      <trkpt lat="43.472399" lon="11.026458">
        <ele>197.0</ele>
        <time>2016-07-06T15:58:20Z</time>
        <sat>8</sat>
      </trkpt>
      <trkpt lat="43.472431" lon="11.026271">
        <ele>197.3</ele>
        <time>2016-07-06T15:58:21Z</time>
        <sat>7</sat>
      </trkpt>
      <trkpt lat="43.472477" lon="11.026088">
        <ele>197.7</ele>
        <time>2016-07-06T15:58:22Z</time>
        <sat>7</sat>
      </trkpt>
      <trkpt lat="43.472523" lon="11.025901">
        <ele>198.0</ele>
        <time>2016-07-06T15:58:23Z</time>
        <sat>6</sat>
      </trkpt>
      <trkpt lat="43.472550" lon="11.025714">
        <ele>198.2</ele>
        <time>2016-07-06T15:58:24Z</time>
        <sat>7</sat>
      </trkpt>
      <trkpt lat="43.472562" lon="11.025526">
        <ele>198.5</ele>
        <time>2016-07-06T15:58:25Z</time>
        <sat>8</sat>
      </trkpt>
      <trkpt lat="43.472564" lon="11.025336">
        <ele>198.5</ele>
        <time>2016-07-06T15:58:26Z</time>
        <sat>9</sat>
      </trkpt>
      <trkpt lat="43.472566" lon="11.025137">
        <ele>198.6</ele>
        <time>2016-07-06T15:58:27Z</time>
        <sat>9</sat>
      </trkpt>
      <trkpt lat="43.472566" lon="11.024932">
        <ele>198.8</ele>
        <time>2016-07-06T15:58:28Z</time>
        <sat>9</sat>
      </trkpt>
      <trkpt lat="43.472561" lon="11.024718">
        <ele>199.0</ele>
        <time>2016-07-06T15:58:29Z</time>
        <sat>8</sat>
      </trkpt>
      <trkpt lat="43.472554" lon="11.024500">
        <ele>199.1</ele>
        <time>2016-07-06T15:58:30Z</time>
        <sat>9</sat>
      </trkpt>
      <trkpt lat="43.472547" lon="11.024286">
        <ele>199.4</ele>
        <time>2016-07-06T15:58:31Z</time>
        <sat>8</sat>
      </trkpt>
      <trkpt lat="43.472533" lon="11.024069">
        <ele>199.6</ele>
        <time>2016-07-06T15:58:32Z</time>
        <sat>8</sat>
      </trkpt>
      <trkpt lat="43.472519" lon="11.023839">
        <ele>198.3</ele>
        <time>2016-07-06T15:58:33Z</time>
        <sat>7</sat>
      </trkpt>
      <trkpt lat="43.472521" lon="11.023617">
        <ele>197.7</ele>
        <time>2016-07-06T15:58:34Z</time>
        <sat>7</sat>
      </trkpt>
      <trkpt lat="43.472530" lon="11.023399">
        <ele>197.4</ele>
        <time>2016-07-06T15:58:35Z</time>
        <sat>7</sat>
      </trkpt>
      <trkpt lat="43.472532" lon="11.023167">
        <ele>197.0</ele>
        <time>2016-07-06T15:58:36Z</time>
        <sat>8</sat>
      </trkpt>
      <trkpt lat="43.472514" lon="11.022930">
        <ele>196.8</ele>
        <time>2016-07-06T15:58:37Z</time>
        <sat>8</sat>
      </trkpt>
      <trkpt lat="43.472502" lon="11.022700">
        <ele>198.6</ele>
        <time>2016-07-06T15:58:38Z</time>
        <sat>8</sat>
      </trkpt>
      <trkpt lat="43.472491" lon="11.022488">
        <ele>199.1</ele>
        <time>2016-07-06T15:58:39Z</time>
        <sat>8</sat>
      </trkpt>
      <trkpt lat="43.472489" lon="11.022309">
        <ele>199.6</ele>
        <time>2016-07-06T15:58:40Z</time>
        <sat>8</sat>
      </trkpt>
      <trkpt lat="43.472495" lon="11.022162">
        <ele>199.9</ele>
        <time>2016-07-06T15:58:41Z</time>
        <sat>8</sat>
      </trkpt>
      <trkpt lat="43.472521" lon="11.022031">
        <ele>200.1</ele>
        <time>2016-07-06T15:58:42Z</time>
        <sat>7</sat>
      </trkpt>
      <trkpt lat="43.472566" lon="11.021910">
        <ele>200.7</ele>
        <time>2016-07-06T15:58:43Z</time>
        <sat>7</sat>
      </trkpt>
      <trkpt lat="43.472629" lon="11.021794">
        <ele>201.4</ele>
        <time>2016-07-06T15:58:44Z</time>
        <sat>7</sat>
      </trkpt>
      <trkpt lat="43.472691" lon="11.021675">
        <ele>202.2</ele>
        <time>2016-07-06T15:58:45Z</time>
        <sat>7</sat>
      </trkpt>
      <trkpt lat="43.472740" lon="11.021556">
        <ele>203.1</ele>
        <time>2016-07-06T15:58:46Z</time>
        <sat>8</sat>
      </trkpt>
      <trkpt lat="43.472802" lon="11.021384">
        <ele>205.2</ele>
        <time>2016-07-06T15:58:48Z</time>
        <sat>7</sat>
      </trkpt>
      <trkpt lat="43.472754" lon="11.021248">
        <ele>207.4</ele>
        <time>2016-07-06T15:59:06Z</time>
        <sat>8</sat>
      </trkpt>
      <trkpt lat="43.472692" lon="11.020848">
        <ele>208.4</ele>
        <time>2016-07-06T15:59:09Z</time>
        <sat>8</sat>
      </trkpt>
      <trkpt lat="43.472650" lon="11.020663">
        <ele>211.2</ele>
        <time>2016-07-06T15:59:10Z</time>
        <sat>8</sat>
      </trkpt>
      <trkpt lat="43.472589" lon="11.020464">
        <ele>212.4</ele>
        <time>2016-07-06T15:59:11Z</time>
        <sat>8</sat>
      </trkpt>
      <trkpt lat="43.472512" lon="11.020260">
        <ele>213.6</ele>
        <time>2016-07-06T15:59:12Z</time>
        <sat>8</sat>
      </trkpt>
      <trkpt lat="43.472432" lon="11.020057">
        <ele>215.3</ele>
        <time>2016-07-06T15:59:13Z</time>
        <sat>8</sat>
      </trkpt>
      <trkpt lat="43.472357" lon="11.019858">
        <ele>217.4</ele>
        <time>2016-07-06T15:59:14Z</time>
        <sat>8</sat>
      </trkpt>
      <trkpt lat="43.472288" lon="11.019660">
        <ele>219.4</ele>
        <time>2016-07-06T15:59:15Z</time>
        <sat>8</sat>
      </trkpt>
      <trkpt lat="43.472232" lon="11.019485">
        <ele>221.3</ele>
        <time>2016-07-06T15:59:16Z</time>
        <sat>8</sat>
      </trkpt>
      <trkpt lat="43.472188" lon="11.019329">
        <ele>223.2</ele>
        <time>2016-07-06T15:59:17Z</time>
        <sat>8</sat>
      </trkpt>
      <trkpt lat="43.472142" lon="11.019182">
        <ele>224.9</ele>
        <time>2016-07-06T15:59:18Z</time>
        <sat>8</sat>
      </trkpt>
      <trkpt lat="43.472075" lon="11.019036">
        <ele>225.9</ele>
        <time>2016-07-06T15:59:19Z</time>
        <sat>8</sat>
      </trkpt>
      <trkpt lat="43.472011" lon="11.018882">
        <ele>226.5</ele>
        <time>2016-07-06T15:59:20Z</time>
        <sat>8</sat>
      </trkpt>
      <trkpt lat="43.471934" lon="11.018747">
        <ele>225.2</ele>
        <time>2016-07-06T15:59:21Z</time>
        <sat>8</sat>
      </trkpt>
      <trkpt lat="43.471873" lon="11.018592">
        <ele>225.3</ele>
        <time>2016-07-06T15:59:22Z</time>
        <sat>8</sat>
      </trkpt>
      <trkpt lat="43.471813" lon="11.018414">
        <ele>225.2</ele>
        <time>2016-07-06T15:59:23Z</time>
        <sat>6</sat>
      </trkpt>
      <trkpt lat="43.471764" lon="11.018230">
        <ele>225.0</ele>
        <time>2016-07-06T15:59:24Z</time>
        <sat>7</sat>
      </trkpt>
      <trkpt lat="43.471732" lon="11.018056">
        <ele>224.8</ele>
        <time>2016-07-06T15:59:25Z</time>
        <sat>7</sat>
      </trkpt>
      <trkpt lat="43.471706" lon="11.017893">
        <ele>224.1</ele>
        <time>2016-07-06T15:59:26Z</time>
        <sat>8</sat>
      </trkpt>
      <trkpt lat="43.471691" lon="11.017738">
        <ele>224.2</ele>
        <time>2016-07-06T15:59:27Z</time>
        <sat>7</sat>
      </trkpt>
      <trkpt lat="43.471692" lon="11.017591">
        <ele>224.2</ele>
        <time>2016-07-06T15:59:28Z</time>
        <sat>6</sat>
      </trkpt>
      <trkpt lat="43.471712" lon="11.017445">
        <ele>223.9</ele>
        <time>2016-07-06T15:59:29Z</time>
        <sat>8</sat>
      </trkpt>
      <trkpt lat="43.471740" lon="11.017303">
        <ele>223.9</ele>
        <time>2016-07-06T15:59:30Z</time>
        <sat>8</sat>
      </trkpt>
      <trkpt lat="43.471771" lon="11.017159">
        <ele>223.6</ele>
        <time>2016-07-06T15:59:31Z</time>
        <sat>9</sat>
      </trkpt>
      <trkpt lat="43.471808" lon="11.017018">
        <ele>223.6</ele>
        <time>2016-07-06T15:59:32Z</time>
        <sat>8</sat>
      </trkpt>
      <trkpt lat="43.471843" lon="11.016868">
        <ele>223.3</ele>
        <time>2016-07-06T15:59:33Z</time>
        <sat>8</sat>
      </trkpt>
      <trkpt lat="43.471890" lon="11.016721">
        <ele>223.0</ele>
        <time>2016-07-06T15:59:34Z</time>
        <sat>8</sat>
      </trkpt>
      <trkpt lat="43.471937" lon="11.016561">
        <ele>222.9</ele>
        <time>2016-07-06T15:59:35Z</time>
        <sat>8</sat>
      </trkpt>
      <trkpt lat="43.471979" lon="11.016416">
        <ele>222.4</ele>
        <time>2016-07-06T15:59:36Z</time>
        <sat>8</sat>
      </trkpt>
      <trkpt lat="43.472011" lon="11.016285">
        <ele>222.2</ele>
        <time>2016-07-06T15:59:37Z</time>
        <sat>9</sat>
      </trkpt>
      <trkpt lat="43.472031" lon="11.016071">
        <ele>221.6</ele>
        <time>2016-07-06T15:59:39Z</time>
        <sat>7</sat>
      </trkpt>
      <trkpt lat="43.472015" lon="11.015892">
        <ele>222.8</ele>
        <time>2016-07-06T15:59:41Z</time>
        <sat>7</sat>
      </trkpt>
      <trkpt lat="43.471980" lon="11.015757">
        <ele>224.9</ele>
        <time>2016-07-06T15:59:44Z</time>
        <sat>7</sat>
      </trkpt>
      <trkpt lat="43.471904" lon="11.015660">
        <ele>226.1</ele>
        <time>2016-07-06T15:59:52Z</time>
        <sat>7</sat>
      </trkpt>
      <trkpt lat="43.471833" lon="11.015512">
        <ele>227.2</ele>
        <time>2016-07-06T15:59:54Z</time>
        <sat>8</sat>
      </trkpt>
      <trkpt lat="43.471747" lon="11.015356">
        <ele>227.5</ele>
        <time>2016-07-06T15:59:56Z</time>
        <sat>8</sat>
      </trkpt>
      <trkpt lat="43.471652" lon="11.015225">
        <ele>228.7</ele>
        <time>2016-07-06T15:59:58Z</time>
        <sat>7</sat>
      </trkpt>
      <trkpt lat="43.471531" lon="11.015085">
        <ele>230.3</ele>
        <time>2016-07-06T16:00:00Z</time>
        <sat>8</sat>
      </trkpt>
      <trkpt lat="43.471451" lon="11.014975">
        <ele>229.9</ele>
        <time>2016-07-06T16:00:02Z</time>
        <sat>7</sat>
      </trkpt>
      <trkpt lat="43.471517" lon="11.014837">
        <ele>229.9</ele>
        <time>2016-07-06T16:00:05Z</time>
        <sat>7</sat>
      </trkpt>
      <trkpt lat="43.471593" lon="11.014706">
        <ele>229.9</ele>
        <time>2016-07-06T16:00:07Z</time>
        <sat>8</sat>
      </trkpt>
      <trkpt lat="43.471644" lon="11.014454">
        <ele>232.6</ele>
        <time>2016-07-06T16:00:09Z</time>
        <sat>6</sat>
      </trkpt>
      <trkpt lat="43.471692" lon="11.014108">
        <ele>237.9</ele>
        <time>2016-07-06T16:00:12Z</time>
        <sat>9</sat>
      </trkpt>
      <trkpt lat="43.471696" lon="11.013943">
        <ele>240.7</ele>
        <time>2016-07-06T16:00:14Z</time>
        <sat>8</sat>
      </trkpt>
      <trkpt lat="43.471611" lon="11.013836">
        <ele>243.8</ele>
        <time>2016-07-06T16:00:16Z</time>
        <sat>8</sat>
      </trkpt>
      <trkpt lat="43.471455" lon="11.013757">
        <ele>246.8</ele>
        <time>2016-07-06T16:00:18Z</time>
        <sat>8</sat>
      </trkpt>
      <trkpt lat="43.471376" lon="11.013687">
        <ele>248.1</ele>
        <time>2016-07-06T16:00:19Z</time>
        <sat>8</sat>
      </trkpt>
      <trkpt lat="43.471257" lon="11.013581">
        <ele>250.4</ele>
        <time>2016-07-06T16:00:21Z</time>
        <sat>8</sat>
      </trkpt>
      <trkpt lat="43.471190" lon="11.013446">
        <ele>253.0</ele>
        <time>2016-07-06T16:00:23Z</time>
        <sat>7</sat>
      </trkpt>
      <trkpt lat="43.471157" lon="11.013253">
        <ele>255.1</ele>
        <time>2016-07-06T16:00:25Z</time>
        <sat>8</sat>
      </trkpt>
      <trkpt lat="43.471167" lon="11.013018">
        <ele>257.9</ele>
        <time>2016-07-06T16:00:27Z</time>
        <sat>8</sat>
      </trkpt>
      <trkpt lat="43.471253" lon="11.012814">
        <ele>261.9</ele>
        <time>2016-07-06T16:00:29Z</time>
        <sat>8</sat>
      </trkpt>
      <trkpt lat="43.471337" lon="11.012664">
        <ele>264.9</ele>
        <time>2016-07-06T16:00:31Z</time>
        <sat>8</sat>
      </trkpt>
      <trkpt lat="43.471441" lon="11.012565">
        <ele>267.5</ele>
        <time>2016-07-06T16:00:33Z</time>
        <sat>7</sat>
      </trkpt>
      <trkpt lat="43.471564" lon="11.012487">
        <ele>269.7</ele>
        <time>2016-07-06T16:00:35Z</time>
        <sat>8</sat>
      </trkpt>
      <trkpt lat="43.471657" lon="11.012440">
        <ele>272.4</ele>
        <time>2016-07-06T16:00:38Z</time>
        <sat>9</sat>
      </trkpt>
      <trkpt lat="43.471741" lon="11.012390">
        <ele>273.2</ele>
        <time>2016-07-06T16:00:42Z</time>
        <sat>9</sat>
      </trkpt>
      <trkpt lat="43.471835" lon="11.012335">
        <ele>272.4</ele>
        <time>2016-07-06T16:00:45Z</time>
        <sat>8</sat>
      </trkpt>
      <trkpt lat="43.471857" lon="11.012172">
        <ele>272.5</ele>
        <time>2016-07-06T16:00:49Z</time>
        <sat>8</sat>
      </trkpt>
      <trkpt lat="43.471860" lon="11.012042">
        <ele>272.6</ele>
        <time>2016-07-06T16:00:51Z</time>
        <sat>8</sat>
      </trkpt>
      <trkpt lat="43.471884" lon="11.011869">
        <ele>270.6</ele>
        <time>2016-07-06T16:00:53Z</time>
        <sat>8</sat>
      </trkpt>
      <trkpt lat="43.471954" lon="11.011664">
        <ele>269.4</ele>
        <time>2016-07-06T16:00:55Z</time>
        <sat>8</sat>
      </trkpt>
      <trkpt lat="43.472001" lon="11.011547">
        <ele>269.6</ele>
        <time>2016-07-06T16:00:56Z</time>
        <sat>8</sat>
      </trkpt>
      <trkpt lat="43.472052" lon="11.011410">
        <ele>269.6</ele>
        <time>2016-07-06T16:00:57Z</time>
        <sat>7</sat>
      </trkpt>
      <trkpt lat="43.472104" lon="11.011262">
        <ele>270.3</ele>
        <time>2016-07-06T16:00:58Z</time>
        <sat>7</sat>
      </trkpt>
      <trkpt lat="43.472144" lon="11.011110">
        <ele>271.2</ele>
        <time>2016-07-06T16:00:59Z</time>
        <sat>8</sat>
      </trkpt>
      <trkpt lat="43.472172" lon="11.010965">
        <ele>272.6</ele>
        <time>2016-07-06T16:01:00Z</time>
        <sat>8</sat>
      </trkpt>
      <trkpt lat="43.472185" lon="11.010836">
        <ele>273.8</ele>
        <time>2016-07-06T16:01:01Z</time>
        <sat>8</sat>
      </trkpt>
      <trkpt lat="43.472153" lon="11.010591">
        <ele>275.0</ele>
        <time>2016-07-06T16:01:03Z</time>
        <sat>9</sat>
      </trkpt>
      <trkpt lat="43.472098" lon="11.010469">
        <ele>275.3</ele>
        <time>2016-07-06T16:01:04Z</time>
        <sat>9</sat>
      </trkpt>
      <trkpt lat="43.472021" lon="11.010346">
        <ele>275.5</ele>
        <time>2016-07-06T16:01:05Z</time>
        <sat>9</sat>
      </trkpt>
      <trkpt lat="43.471931" lon="11.010233">
        <ele>275.4</ele>
        <time>2016-07-06T16:01:06Z</time>
        <sat>9</sat>
      </trkpt>
      <trkpt lat="43.471843" lon="11.010137">
        <ele>275.5</ele>
        <time>2016-07-06T16:01:07Z</time>
        <sat>9</sat>
      </trkpt>
      <trkpt lat="43.471755" lon="11.010046">
        <ele>275.6</ele>
        <time>2016-07-06T16:01:08Z</time>
        <sat>8</sat>
      </trkpt>
      <trkpt lat="43.471659" lon="11.009952">
        <ele>275.3</ele>
        <time>2016-07-06T16:01:09Z</time>
        <sat>9</sat>
      </trkpt>
      <trkpt lat="43.471557" lon="11.009853">
        <ele>275.4</ele>
        <time>2016-07-06T16:01:10Z</time>
        <sat>9</sat>
      </trkpt>
      <trkpt lat="43.471460" lon="11.009747">
        <ele>276.1</ele>
        <time>2016-07-06T16:01:11Z</time>
        <sat>9</sat>
      </trkpt>
      <trkpt lat="43.471287" lon="11.009518">
        <ele>277.7</ele>
        <time>2016-07-06T16:01:13Z</time>
        <sat>9</sat>
      </trkpt>
      <trkpt lat="43.471203" lon="11.009394">
        <ele>278.2</ele>
        <time>2016-07-06T16:01:14Z</time>
        <sat>9</sat>
      </trkpt>
      <trkpt lat="43.471113" lon="11.009258">
        <ele>278.8</ele>
        <time>2016-07-06T16:01:15Z</time>
        <sat>9</sat>
      </trkpt>
      <trkpt lat="43.471015" lon="11.009109">
        <ele>279.6</ele>
        <time>2016-07-06T16:01:16Z</time>
        <sat>9</sat>
      </trkpt>
      <trkpt lat="43.470913" lon="11.008953">
        <ele>280.4</ele>
        <time>2016-07-06T16:01:17Z</time>
        <sat>9</sat>
      </trkpt>
      <trkpt lat="43.470823" lon="11.008802">
        <ele>281.4</ele>
        <time>2016-07-06T16:01:18Z</time>
        <sat>9</sat>
      </trkpt>
      <trkpt lat="43.470747" lon="11.008660">
        <ele>283.0</ele>
        <time>2016-07-06T16:01:19Z</time>
        <sat>9</sat>
      </trkpt>
      <trkpt lat="43.470681" lon="11.008528">
        <ele>284.2</ele>
        <time>2016-07-06T16:01:20Z</time>
        <sat>9</sat>
      </trkpt>
      <trkpt lat="43.470628" lon="11.008414">
        <ele>285.2</ele>
        <time>2016-07-06T16:01:21Z</time>
        <sat>8</sat>
      </trkpt>
      <trkpt lat="43.470548" lon="11.008228">
        <ele>287.2</ele>
        <time>2016-07-06T16:01:23Z</time>
        <sat>8</sat>
      </trkpt>
      <trkpt lat="43.470488" lon="11.008087">
        <ele>289.1</ele>
        <time>2016-07-06T16:01:25Z</time>
        <sat>8</sat>
      </trkpt>
      <trkpt lat="43.470434" lon="11.007958">
        <ele>291.1</ele>
        <time>2016-07-06T16:01:27Z</time>
        <sat>8</sat>
      </trkpt>
      <trkpt lat="43.470503" lon="11.008089">
        <ele>288.5</ele>
        <time>2016-07-06T16:01:55Z</time>
        <sat>9</sat>
      </trkpt>
      <trkpt lat="43.470578" lon="11.008265">
        <ele>285.5</ele>
        <time>2016-07-06T16:01:57Z</time>
        <sat>9</sat>
      </trkpt>
      <trkpt lat="43.470648" lon="11.008422">
        <ele>283.2</ele>
        <time>2016-07-06T16:01:59Z</time>
        <sat>9</sat>
      </trkpt>
      <trkpt lat="43.470729" lon="11.008605">
        <ele>281.1</ele>
        <time>2016-07-06T16:02:01Z</time>
        <sat>9</sat>
      </trkpt>
      <trkpt lat="43.470807" lon="11.008779">
        <ele>279.3</ele>
        <time>2016-07-06T16:02:03Z</time>
        <sat>9</sat>
      </trkpt>
      <trkpt lat="43.470874" lon="11.008904">
        <ele>278.4</ele>
        <time>2016-07-06T16:02:05Z</time>
        <sat>9</sat>
      </trkpt>
      <trkpt lat="43.470940" lon="11.009002">
        <ele>277.8</ele>
        <time>2016-07-06T16:02:08Z</time>
        <sat>10</sat>
      </trkpt>
      <trkpt lat="43.471016" lon="11.009072">
        <ele>276.5</ele>
        <time>2016-07-06T16:07:14Z</time>
        <sat>9</sat>
      </trkpt>
      <trkpt lat="43.471249" lon="11.009435">
        <ele>274.6</ele>
        <time>2016-07-06T16:07:19Z</time>
        <sat>9</sat>
      </trkpt>
      <trkpt lat="43.471317" lon="11.009537">
        <ele>274.1</ele>
        <time>2016-07-06T16:07:20Z</time>
        <sat>9</sat>
      </trkpt>
      <trkpt lat="43.471380" lon="11.009629">
        <ele>273.4</ele>
        <time>2016-07-06T16:07:21Z</time>
        <sat>9</sat>
      </trkpt>
      <trkpt lat="43.471501" lon="11.009786">
        <ele>272.6</ele>
        <time>2016-07-06T16:07:23Z</time>
        <sat>9</sat>
      </trkpt>
      <trkpt lat="43.471589" lon="11.009871">
        <ele>272.1</ele>
        <time>2016-07-06T16:07:25Z</time>
        <sat>9</sat>
      </trkpt>
      <trkpt lat="43.471629" lon="11.009733">
        <ele>270.9</ele>
        <time>2016-07-06T16:07:31Z</time>
        <sat>9</sat>
      </trkpt>
      <trkpt lat="43.471571" lon="11.009530">
        <ele>269.8</ele>
        <time>2016-07-06T16:07:34Z</time>
        <sat>9</sat>
      </trkpt>
      <trkpt lat="43.471538" lon="11.009399">
        <ele>269.4</ele>
        <time>2016-07-06T16:07:35Z</time>
        <sat>9</sat>
      </trkpt>
      <trkpt lat="43.471504" lon="11.009248">
        <ele>268.6</ele>
        <time>2016-07-06T16:07:36Z</time>
        <sat>9</sat>
      </trkpt>
      <trkpt lat="43.471473" lon="11.009096">
        <ele>267.9</ele>
        <time>2016-07-06T16:07:37Z</time>
        <sat>9</sat>
      </trkpt>
      <trkpt lat="43.471441" lon="11.008954">
        <ele>267.1</ele>
        <time>2016-07-06T16:07:38Z</time>
        <sat>9</sat>
      </trkpt>
      <trkpt lat="43.471413" lon="11.008826">
        <ele>266.5</ele>
        <time>2016-07-06T16:07:39Z</time>
        <sat>9</sat>
      </trkpt>
      <trkpt lat="43.471388" lon="11.008594">
        <ele>265.5</ele>
        <time>2016-07-06T16:07:41Z</time>
        <sat>9</sat>
      </trkpt>
      <trkpt lat="43.471413" lon="11.008408">
        <ele>265.3</ele>
        <time>2016-07-06T16:07:43Z</time>
        <sat>9</sat>
      </trkpt>
      <trkpt lat="43.471530" lon="11.008303">
        <ele>266.6</ele>
        <time>2016-07-06T16:07:45Z</time>
        <sat>9</sat>
      </trkpt>
      <trkpt lat="43.471731" lon="11.008247">
        <ele>266.2</ele>
        <time>2016-07-06T16:07:47Z</time>
        <sat>9</sat>
      </trkpt>
      <trkpt lat="43.471870" lon="11.008224">
        <ele>266.0</ele>
        <time>2016-07-06T16:07:48Z</time>
        <sat>9</sat>
      </trkpt>
      <trkpt lat="43.472018" lon="11.008211">
        <ele>266.0</ele>
        <time>2016-07-06T16:07:49Z</time>
        <sat>9</sat>
      </trkpt>
      <trkpt lat="43.472156" lon="11.008209">
        <ele>266.4</ele>
        <time>2016-07-06T16:07:50Z</time>
        <sat>9</sat>
      </trkpt>
      <trkpt lat="43.472277" lon="11.008201">
        <ele>267.3</ele>
        <time>2016-07-06T16:07:51Z</time>
        <sat>9</sat>
      </trkpt>
      <trkpt lat="43.472391" lon="11.008179">
        <ele>268.5</ele>
        <time>2016-07-06T16:07:52Z</time>
        <sat>9</sat>
      </trkpt>
      <trkpt lat="43.472511" lon="11.008151">
        <ele>269.6</ele>
        <time>2016-07-06T16:07:53Z</time>
        <sat>8</sat>
      </trkpt>
      <trkpt lat="43.472641" lon="11.008116">
        <ele>270.4</ele>
        <time>2016-07-06T16:07:54Z</time>
        <sat>8</sat>
      </trkpt>
      <trkpt lat="43.472770" lon="11.008073">
        <ele>271.1</ele>
        <time>2016-07-06T16:07:55Z</time>
        <sat>8</sat>
      </trkpt>
      <trkpt lat="43.472880" lon="11.008031">
        <ele>271.5</ele>
        <time>2016-07-06T16:07:56Z</time>
        <sat>8</sat>
      </trkpt>
      <trkpt lat="43.472977" lon="11.007994">
        <ele>271.8</ele>
        <time>2016-07-06T16:07:57Z</time>
        <sat>8</sat>
      </trkpt>
      <trkpt lat="43.473067" lon="11.007958">
        <ele>272.0</ele>
        <time>2016-07-06T16:07:58Z</time>
        <sat>9</sat>
      </trkpt>
      <trkpt lat="43.473151" lon="11.007907">
        <ele>272.2</ele>
        <time>2016-07-06T16:07:59Z</time>
        <sat>9</sat>
      </trkpt>
      <trkpt lat="43.473276" lon="11.007738">
        <ele>272.7</ele>
        <time>2016-07-06T16:08:01Z</time>
        <sat>9</sat>
      </trkpt>
      <trkpt lat="43.473325" lon="11.007609">
        <ele>272.7</ele>
        <time>2016-07-06T16:08:02Z</time>
        <sat>9</sat>
      </trkpt>
      <trkpt lat="43.473364" lon="11.007460">
        <ele>272.2</ele>
        <time>2016-07-06T16:08:03Z</time>
        <sat>9</sat>
      </trkpt>
      <trkpt lat="43.473396" lon="11.007314">
        <ele>271.7</ele>
        <time>2016-07-06T16:08:04Z</time>
        <sat>9</sat>
      </trkpt>
      <trkpt lat="43.473423" lon="11.007182">
        <ele>271.0</ele>
        <time>2016-07-06T16:08:05Z</time>
        <sat>9</sat>
      </trkpt>
      <trkpt lat="43.473454" lon="11.006965">
        <ele>269.7</ele>
        <time>2016-07-06T16:08:07Z</time>
        <sat>7</sat>
      </trkpt>
      <trkpt lat="43.473521" lon="11.006833">
        <ele>268.4</ele>
        <time>2016-07-06T16:08:09Z</time>
        <sat>9</sat>
      </trkpt>
      <trkpt lat="43.473666" lon="11.006805">
        <ele>267.7</ele>
        <time>2016-07-06T16:08:11Z</time>
        <sat>9</sat>
      </trkpt>
      <trkpt lat="43.473765" lon="11.006847">
        <ele>267.3</ele>
        <time>2016-07-06T16:08:12Z</time>
        <sat>8</sat>
      </trkpt>
      <trkpt lat="43.473887" lon="11.006903">
        <ele>266.6</ele>
        <time>2016-07-06T16:08:13Z</time>
        <sat>8</sat>
      </trkpt>
      <trkpt lat="43.474016" lon="11.006946">
        <ele>267.4</ele>
        <time>2016-07-06T16:08:14Z</time>
        <sat>8</sat>
      </trkpt>
      <trkpt lat="43.474162" lon="11.006973">
        <ele>268.8</ele>
        <time>2016-07-06T16:08:15Z</time>
        <sat>8</sat>
      </trkpt>
      <trkpt lat="43.474310" lon="11.006989">
        <ele>269.6</ele>
        <time>2016-07-06T16:08:16Z</time>
        <sat>8</sat>
      </trkpt>
      <trkpt lat="43.474542" lon="11.007003">
        <ele>271.3</ele>
        <time>2016-07-06T16:08:18Z</time>
        <sat>8</sat>
      </trkpt>
      <trkpt lat="43.474634" lon="11.007005">
        <ele>272.2</ele>
        <time>2016-07-06T16:08:19Z</time>
        <sat>8</sat>
      </trkpt>
      <trkpt lat="43.474778" lon="11.007006">
        <ele>273.3</ele>
        <time>2016-07-06T16:08:21Z</time>
        <sat>8</sat>
      </trkpt>
      <trkpt lat="43.474887" lon="11.006972">
        <ele>273.2</ele>
        <time>2016-07-06T16:08:24Z</time>
        <sat>9</sat>
      </trkpt>
      <trkpt lat="43.474929" lon="11.006856">
        <ele>273.7</ele>
        <time>2016-07-06T16:08:30Z</time>
        <sat>9</sat>
      </trkpt>
      <trkpt lat="43.474919" lon="11.006688">
        <ele>274.6</ele>
        <time>2016-07-06T16:08:35Z</time>
        <sat>9</sat>
      </trkpt>
      <trkpt lat="43.474917" lon="11.006530">
        <ele>275.2</ele>
        <time>2016-07-06T16:08:37Z</time>
        <sat>9</sat>
      </trkpt>
      <trkpt lat="43.474927" lon="11.006353">
        <ele>276.2</ele>
        <time>2016-07-06T16:08:39Z</time>
        <sat>9</sat>
      </trkpt>
      <trkpt lat="43.474925" lon="11.006169">
        <ele>277.2</ele>
        <time>2016-07-06T16:08:41Z</time>
        <sat>8</sat>
      </trkpt>
      <trkpt lat="43.474926" lon="11.006011">
        <ele>278.4</ele>
        <time>2016-07-06T16:08:43Z</time>
        <sat>9</sat>
      </trkpt>
      <trkpt lat="43.474949" lon="11.005868">
        <ele>279.6</ele>
        <time>2016-07-06T16:08:45Z</time>
        <sat>7</sat>
      </trkpt>
      <trkpt lat="43.474943" lon="11.005739">
        <ele>280.8</ele>
        <time>2016-07-06T16:08:47Z</time>
        <sat>9</sat>
      </trkpt>
      <trkpt lat="43.474899" lon="11.005577">
        <ele>282.6</ele>
        <time>2016-07-06T16:08:49Z</time>
        <sat>9</sat>
      </trkpt>
      <trkpt lat="43.474855" lon="11.005419">
        <ele>282.9</ele>
        <time>2016-07-06T16:08:51Z</time>
        <sat>9</sat>
      </trkpt>
      <trkpt lat="43.474811" lon="11.005280">
        <ele>283.3</ele>
        <time>2016-07-06T16:08:53Z</time>
        <sat>8</sat>
      </trkpt>
      <trkpt lat="43.474780" lon="11.005126">
        <ele>283.6</ele>
        <time>2016-07-06T16:08:55Z</time>
        <sat>6</sat>
      </trkpt>
      <trkpt lat="43.474764" lon="11.004985">
        <ele>283.9</ele>
        <time>2016-07-06T16:08:57Z</time>
        <sat>8</sat>
      </trkpt>
      <trkpt lat="43.474786" lon="11.004814">
        <ele>284.7</ele>
        <time>2016-07-06T16:09:00Z</time>
        <sat>8</sat>
      </trkpt>
      <trkpt lat="43.474784" lon="11.004665">
        <ele>285.4</ele>
        <time>2016-07-06T16:09:04Z</time>
        <sat>8</sat>
      </trkpt>
      <trkpt lat="43.474668" lon="11.004647">
        <ele>287.2</ele>
        <time>2016-07-06T16:09:09Z</time>
        <sat>8</sat>
      </trkpt>
      <trkpt lat="43.474523" lon="11.004698">
        <ele>287.3</ele>
        <time>2016-07-06T16:09:12Z</time>
        <sat>8</sat>
      </trkpt>
      <trkpt lat="43.474396" lon="11.004740">
        <ele>287.7</ele>
        <time>2016-07-06T16:09:14Z</time>
        <sat>9</sat>
      </trkpt>
      <trkpt lat="43.474265" lon="11.004733">
        <ele>290.3</ele>
        <time>2016-07-06T16:09:17Z</time>
        <sat>8</sat>
      </trkpt>
      <trkpt lat="43.474184" lon="11.004662">
        <ele>291.9</ele>
        <time>2016-07-06T16:09:19Z</time>
        <sat>8</sat>
      </trkpt>
      <trkpt lat="43.474083" lon="11.004444">
        <ele>295.3</ele>
        <time>2016-07-06T16:09:23Z</time>
        <sat>6</sat>
      </trkpt>
      <trkpt lat="43.474037" lon="11.004319">
        <ele>296.3</ele>
        <time>2016-07-06T16:09:25Z</time>
        <sat>8</sat>
      </trkpt>
      <trkpt lat="43.473985" lon="11.004193">
        <ele>297.3</ele>
        <time>2016-07-06T16:09:27Z</time>
        <sat>8</sat>
      </trkpt>
      <trkpt lat="43.473892" lon="11.004071">
        <ele>298.1</ele>
        <time>2016-07-06T16:09:29Z</time>
        <sat>8</sat>
      </trkpt>
      <trkpt lat="43.473752" lon="11.003971">
        <ele>298.8</ele>
        <time>2016-07-06T16:09:31Z</time>
        <sat>8</sat>
      </trkpt>
      <trkpt lat="43.473618" lon="11.003910">
        <ele>299.2</ele>
        <time>2016-07-06T16:09:33Z</time>
        <sat>7</sat>
      </trkpt>
      <trkpt lat="43.473498" lon="11.003805">
        <ele>299.4</ele>
        <time>2016-07-06T16:09:35Z</time>
        <sat>8</sat>
      </trkpt>
      <trkpt lat="43.473396" lon="11.003684">
        <ele>299.3</ele>
        <time>2016-07-06T16:09:37Z</time>
        <sat>7</sat>
      </trkpt>
      <trkpt lat="43.473354" lon="11.003558">
        <ele>300.2</ele>
        <time>2016-07-06T16:09:39Z</time>
        <sat>8</sat>
      </trkpt>
      <trkpt lat="43.473294" lon="11.003461">
        <ele>300.5</ele>
        <time>2016-07-06T16:09:41Z</time>
        <sat>8</sat>
      </trkpt>
      <trkpt lat="43.473227" lon="11.003325">
        <ele>301.0</ele>
        <time>2016-07-06T16:09:43Z</time>
        <sat>7</sat>
      </trkpt>
      <trkpt lat="43.473171" lon="11.003161">
        <ele>301.7</ele>
        <time>2016-07-06T16:09:45Z</time>
        <sat>7</sat>
      </trkpt>
      <trkpt lat="43.473101" lon="11.003011">
        <ele>303.2</ele>
        <time>2016-07-06T16:09:48Z</time>
        <sat>7</sat>
      </trkpt>
      <trkpt lat="43.473113" lon="11.002836">
        <ele>305.1</ele>
        <time>2016-07-06T16:09:51Z</time>
        <sat>7</sat>
      </trkpt>
      <trkpt lat="43.473210" lon="11.002707">
        <ele>308.0</ele>
        <time>2016-07-06T16:09:54Z</time>
        <sat>7</sat>
      </trkpt>
      <trkpt lat="43.473293" lon="11.002631">
        <ele>310.3</ele>
        <time>2016-07-06T16:09:56Z</time>
        <sat>7</sat>
      </trkpt>
      <trkpt lat="43.473366" lon="11.002534">
        <ele>311.6</ele>
        <time>2016-07-06T16:09:58Z</time>
        <sat>7</sat>
      </trkpt>
      <trkpt lat="43.473451" lon="11.002428">
        <ele>313.4</ele>
        <time>2016-07-06T16:10:00Z</time>
        <sat>6</sat>
      </trkpt>
      <trkpt lat="43.473532" lon="11.002341">
        <ele>316.2</ele>
        <time>2016-07-06T16:10:02Z</time>
        <sat>7</sat>
      </trkpt>
      <trkpt lat="43.473566" lon="11.002224">
        <ele>319.5</ele>
        <time>2016-07-06T16:10:05Z</time>
        <sat>8</sat>
      </trkpt>
      <trkpt lat="43.473628" lon="11.002062">
        <ele>321.4</ele>
        <time>2016-07-06T16:10:07Z</time>
        <sat>8</sat>
      </trkpt>
      <trkpt lat="43.473712" lon="11.001929">
        <ele>323.9</ele>
        <time>2016-07-06T16:10:09Z</time>
        <sat>8</sat>
      </trkpt>
      <trkpt lat="43.473798" lon="11.001814">
        <ele>326.1</ele>
        <time>2016-07-06T16:10:11Z</time>
        <sat>8</sat>
      </trkpt>
      <trkpt lat="43.473865" lon="11.001712">
        <ele>327.3</ele>
        <time>2016-07-06T16:10:13Z</time>
        <sat>7</sat>
      </trkpt>
      <trkpt lat="43.473916" lon="11.001545">
        <ele>328.9</ele>
        <time>2016-07-06T16:10:16Z</time>
        <sat>7</sat>
      </trkpt>
      <trkpt lat="43.473980" lon="11.001402">
        <ele>330.7</ele>
        <time>2016-07-06T16:10:18Z</time>
        <sat>6</sat>
      </trkpt>
      <trkpt lat="43.474068" lon="11.001274">
        <ele>331.3</ele>
        <time>2016-07-06T16:10:20Z</time>
        <sat>8</sat>
      </trkpt>
      <trkpt lat="43.474175" lon="11.001168">
        <ele>334.2</ele>
        <time>2016-07-06T16:10:22Z</time>
        <sat>8</sat>
      </trkpt>
      <trkpt lat="43.474378" lon="11.001133">
        <ele>342.1</ele>
        <time>2016-07-06T16:10:27Z</time>
        <sat>7</sat>
      </trkpt>
      <trkpt lat="43.474431" lon="11.000985">
        <ele>345.8</ele>
        <time>2016-07-06T16:10:30Z</time>
        <sat>8</sat>
      </trkpt>
      <trkpt lat="43.474416" lon="11.000818">
        <ele>350.0</ele>
        <time>2016-07-06T16:10:33Z</time>
        <sat>8</sat>
      </trkpt>
      <trkpt lat="43.474426" lon="11.000629">
        <ele>352.7</ele>
        <time>2016-07-06T16:10:35Z</time>
        <sat>7</sat>
      </trkpt>
      <trkpt lat="43.474430" lon="11.000494">
        <ele>355.8</ele>
        <time>2016-07-06T16:10:37Z</time>
        <sat>7</sat>
      </trkpt>
      <trkpt lat="43.474390" lon="11.000313">
        <ele>356.8</ele>
        <time>2016-07-06T16:12:52Z</time>
        <sat>8</sat>
      </trkpt>
      <trkpt lat="43.474368" lon="11.000376">
        <ele>357.2</ele>
        <time>2016-07-06T16:13:14Z</time>
        <sat>7</sat>
      </trkpt>
      <trkpt lat="43.474384" lon="11.000571">
        <ele>356.3</ele>
        <time>2016-07-06T16:13:17Z</time>
        <sat>6</sat>
      </trkpt>
      <trkpt lat="43.474397" lon="11.000751">
        <ele>354.3</ele>
        <time>2016-07-06T16:13:20Z</time>
        <sat>6</sat>
      </trkpt>
      <trkpt lat="43.474401" lon="11.000914">
        <ele>353.2</ele>
        <time>2016-07-06T16:13:22Z</time>
        <sat>8</sat>
      </trkpt>
      <trkpt lat="43.474421" lon="11.001082">
        <ele>351.8</ele>
        <time>2016-07-06T16:13:25Z</time>
        <sat>8</sat>
      </trkpt>
      <trkpt lat="43.474374" lon="11.001190">
        <ele>349.8</ele>
        <time>2016-07-06T16:13:28Z</time>
        <sat>8</sat>
      </trkpt>
      <trkpt lat="43.474257" lon="11.001176">
        <ele>346.7</ele>
        <time>2016-07-06T16:13:31Z</time>
        <sat>6</sat>
      </trkpt>
      <trkpt lat="43.474161" lon="11.001174">
        <ele>343.5</ele>
        <time>2016-07-06T16:13:34Z</time>
        <sat>8</sat>
      </trkpt>
      <trkpt lat="43.474081" lon="11.001305">
        <ele>341.2</ele>
        <time>2016-07-06T16:13:38Z</time>
        <sat>7</sat>
      </trkpt>
      <trkpt lat="43.474020" lon="11.001438">
        <ele>340.2</ele>
        <time>2016-07-06T16:13:40Z</time>
        <sat>8</sat>
      </trkpt>
      <trkpt lat="43.473934" lon="11.001620">
        <ele>333.8</ele>
        <time>2016-07-06T16:13:42Z</time>
        <sat>8</sat>
      </trkpt>
      <trkpt lat="43.473851" lon="11.001703">
        <ele>330.4</ele>
        <time>2016-07-06T16:13:45Z</time>
        <sat>7</sat>
      </trkpt>
      <trkpt lat="43.473769" lon="11.001789">
        <ele>328.6</ele>
        <time>2016-07-06T16:13:47Z</time>
        <sat>7</sat>
      </trkpt>
      <trkpt lat="43.473703" lon="11.001914">
        <ele>326.5</ele>
        <time>2016-07-06T16:13:49Z</time>
        <sat>7</sat>
      </trkpt>
      <trkpt lat="43.473663" lon="11.002038">
        <ele>324.7</ele>
        <time>2016-07-06T16:13:51Z</time>
        <sat>7</sat>
      </trkpt>
      <trkpt lat="43.473605" lon="11.002264">
        <ele>319.0</ele>
        <time>2016-07-06T16:13:55Z</time>
        <sat>5</sat>
      </trkpt>
      <trkpt lat="43.473456" lon="11.002471">
        <ele>312.9</ele>
        <time>2016-07-06T16:14:01Z</time>
        <sat>6</sat>
      </trkpt>
      <trkpt lat="43.473338" lon="11.002527">
        <ele>308.1</ele>
        <time>2016-07-06T16:14:04Z</time>
        <sat>7</sat>
      </trkpt>
      <trkpt lat="43.473255" lon="11.002633">
        <ele>305.4</ele>
        <time>2016-07-06T16:14:07Z</time>
        <sat>6</sat>
      </trkpt>
      <trkpt lat="43.473219" lon="11.002832">
        <ele>301.6</ele>
        <time>2016-07-06T16:14:10Z</time>
        <sat>7</sat>
      </trkpt>
      <trkpt lat="43.473230" lon="11.003045">
        <ele>298.8</ele>
        <time>2016-07-06T16:14:12Z</time>
        <sat>6</sat>
      </trkpt>
      <trkpt lat="43.473271" lon="11.003205">
        <ele>299.9</ele>
        <time>2016-07-06T16:14:14Z</time>
        <sat>8</sat>
      </trkpt>
      <trkpt lat="43.473299" lon="11.003356">
        <ele>298.8</ele>
        <time>2016-07-06T16:14:16Z</time>
        <sat>6</sat>
      </trkpt>
      <trkpt lat="43.473338" lon="11.003483">
        <ele>298.4</ele>
        <time>2016-07-06T16:14:18Z</time>
        <sat>8</sat>
      </trkpt>
      <trkpt lat="43.473369" lon="11.003608">
        <ele>298.8</ele>
        <time>2016-07-06T16:14:20Z</time>
        <sat>8</sat>
      </trkpt>
      <trkpt lat="43.473418" lon="11.003734">
        <ele>299.3</ele>
        <time>2016-07-06T16:14:22Z</time>
        <sat>6</sat>
      </trkpt>
      <trkpt lat="43.473480" lon="11.003884">
        <ele>299.6</ele>
        <time>2016-07-06T16:14:24Z</time>
        <sat>8</sat>
      </trkpt>
      <trkpt lat="43.473554" lon="11.004009">
        <ele>300.1</ele>
        <time>2016-07-06T16:14:26Z</time>
        <sat>8</sat>
      </trkpt>
      <trkpt lat="43.473641" lon="11.004084">
        <ele>300.0</ele>
        <time>2016-07-06T16:14:28Z</time>
        <sat>8</sat>
      </trkpt>
      <trkpt lat="43.473749" lon="11.004077">
        <ele>298.3</ele>
        <time>2016-07-06T16:14:30Z</time>
        <sat>8</sat>
      </trkpt>
      <trkpt lat="43.473856" lon="11.004156">
        <ele>297.2</ele>
        <time>2016-07-06T16:14:33Z</time>
        <sat>8</sat>
      </trkpt>
      <trkpt lat="43.473954" lon="11.004221">
        <ele>296.6</ele>
        <time>2016-07-06T16:14:36Z</time>
        <sat>8</sat>
      </trkpt>
      <trkpt lat="43.474037" lon="11.004283">
        <ele>296.8</ele>
        <time>2016-07-06T16:15:26Z</time>
        <sat>8</sat>
      </trkpt>
      <trkpt lat="43.474247" lon="11.004433">
        <ele>297.8</ele>
        <time>2016-07-06T16:15:31Z</time>
        <sat>7</sat>
      </trkpt>
      <trkpt lat="43.474385" lon="11.004477">
        <ele>296.1</ele>
        <time>2016-07-06T16:15:33Z</time>
        <sat>6</sat>
      </trkpt>
      <trkpt lat="43.474516" lon="11.004422">
        <ele>296.3</ele>
        <time>2016-07-06T16:15:35Z</time>
        <sat>6</sat>
      </trkpt>
      <trkpt lat="43.474644" lon="11.004357">
        <ele>296.1</ele>
        <time>2016-07-06T16:15:37Z</time>
        <sat>8</sat>
      </trkpt>
      <trkpt lat="43.474750" lon="11.004274">
        <ele>295.9</ele>
        <time>2016-07-06T16:15:39Z</time>
        <sat>8</sat>
      </trkpt>
      <trkpt lat="43.474810" lon="11.004108">
        <ele>294.7</ele>
        <time>2016-07-06T16:15:41Z</time>
        <sat>6</sat>
      </trkpt>
      <trkpt lat="43.474866" lon="11.003904">
        <ele>294.2</ele>
        <time>2016-07-06T16:15:43Z</time>
        <sat>7</sat>
      </trkpt>
      <trkpt lat="43.474921" lon="11.003698">
        <ele>293.3</ele>
        <time>2016-07-06T16:15:45Z</time>
        <sat>8</sat>
      </trkpt>
      <trkpt lat="43.474968" lon="11.003497">
        <ele>293.0</ele>
        <time>2016-07-06T16:15:47Z</time>
        <sat>8</sat>
      </trkpt>
      <trkpt lat="43.475018" lon="11.003318">
        <ele>292.6</ele>
        <time>2016-07-06T16:15:49Z</time>
        <sat>8</sat>
      </trkpt>
      <trkpt lat="43.475095" lon="11.003093">
        <ele>291.9</ele>
        <time>2016-07-06T16:15:51Z</time>
        <sat>8</sat>
      </trkpt>
      <trkpt lat="43.475197" lon="11.002904">
        <ele>292.1</ele>
        <time>2016-07-06T16:15:53Z</time>
        <sat>8</sat>
      </trkpt>
      <trkpt lat="43.475273" lon="11.002752">
        <ele>291.7</ele>
        <time>2016-07-06T16:15:55Z</time>
        <sat>7</sat>
      </trkpt>
      <trkpt lat="43.475316" lon="11.002640">
        <ele>291.8</ele>
        <time>2016-07-06T16:15:57Z</time>
        <sat>7</sat>
      </trkpt>
      <trkpt lat="43.475416" lon="11.002515">
        <ele>290.4</ele>
        <time>2016-07-06T16:16:00Z</time>
        <sat>7</sat>
      </trkpt>
      <trkpt lat="43.475464" lon="11.002408">
        <ele>290.0</ele>
        <time>2016-07-06T16:16:03Z</time>
        <sat>7</sat>
      </trkpt>
      <trkpt lat="43.475553" lon="11.002269">
        <ele>289.9</ele>
        <time>2016-07-06T16:16:06Z</time>
        <sat>8</sat>
      </trkpt>
      <trkpt lat="43.475663" lon="11.002088">
        <ele>290.7</ele>
        <time>2016-07-06T16:16:08Z</time>
        <sat>8</sat>
      </trkpt>
      <trkpt lat="43.475715" lon="11.001957">
        <ele>290.4</ele>
        <time>2016-07-06T16:16:09Z</time>
        <sat>8</sat>
      </trkpt>
      <trkpt lat="43.475761" lon="11.001830">
        <ele>289.5</ele>
        <time>2016-07-06T16:16:10Z</time>
        <sat>7</sat>
      </trkpt>
      <trkpt lat="43.475799" lon="11.001715">
        <ele>287.8</ele>
        <time>2016-07-06T16:16:11Z</time>
        <sat>8</sat>
      </trkpt>
      <trkpt lat="43.475827" lon="11.001594">
        <ele>287.1</ele>
        <time>2016-07-06T16:16:14Z</time>
        <sat>8</sat>
      </trkpt>
      <trkpt lat="43.475875" lon="11.001452">
        <ele>285.8</ele>
        <time>2016-07-06T16:16:17Z</time>
        <sat>7</sat>
      </trkpt>
      <trkpt lat="43.475922" lon="11.001258">
        <ele>284.8</ele>
        <time>2016-07-06T16:16:20Z</time>
        <sat>8</sat>
      </trkpt>
      <trkpt lat="43.475969" lon="11.001088">
        <ele>287.2</ele>
        <time>2016-07-06T16:16:23Z</time>
        <sat>7</sat>
      </trkpt>
      <trkpt lat="43.476037" lon="11.000965">
        <ele>285.8</ele>
        <time>2016-07-06T16:16:25Z</time>
        <sat>8</sat>
      </trkpt>
      <trkpt lat="43.476106" lon="11.000808">
        <ele>285.4</ele>
        <time>2016-07-06T16:16:27Z</time>
        <sat>8</sat>
      </trkpt>
      <trkpt lat="43.476159" lon="11.000632">
        <ele>282.7</ele>
        <time>2016-07-06T16:16:29Z</time>
        <sat>8</sat>
      </trkpt>
      <trkpt lat="43.476291" lon="11.000307">
        <ele>280.2</ele>
        <time>2016-07-06T16:16:33Z</time>
        <sat>8</sat>
      </trkpt>
      <trkpt lat="43.476380" lon="11.000138">
        <ele>279.7</ele>
        <time>2016-07-06T16:16:35Z</time>
        <sat>7</sat>
      </trkpt>
      <trkpt lat="43.476444" lon="10.999977">
        <ele>279.3</ele>
        <time>2016-07-06T16:16:37Z</time>
        <sat>8</sat>
      </trkpt>
      <trkpt lat="43.476532" lon="10.999809">
        <ele>278.9</ele>
        <time>2016-07-06T16:16:39Z</time>
        <sat>8</sat>
      </trkpt>
      <trkpt lat="43.476601" lon="10.999656">
        <ele>276.6</ele>
        <time>2016-07-06T16:16:41Z</time>
        <sat>8</sat>
      </trkpt>
      <trkpt lat="43.476654" lon="10.999533">
        <ele>276.6</ele>
        <time>2016-07-06T16:16:43Z</time>
        <sat>7</sat>
      </trkpt>
      <trkpt lat="43.476690" lon="10.999416">
        <ele>276.3</ele>
        <time>2016-07-06T16:16:45Z</time>
        <sat>7</sat>
      </trkpt>
      <trkpt lat="43.476711" lon="10.999274">
        <ele>276.1</ele>
        <time>2016-07-06T16:16:47Z</time>
        <sat>8</sat>
      </trkpt>
      <trkpt lat="43.476732" lon="10.999124">
        <ele>274.6</ele>
        <time>2016-07-06T16:16:49Z</time>
        <sat>8</sat>
      </trkpt>
      <trkpt lat="43.476735" lon="10.998981">
        <ele>272.6</ele>
        <time>2016-07-06T16:16:51Z</time>
        <sat>8</sat>
      </trkpt>
      <trkpt lat="43.476771" lon="10.998815">
        <ele>271.4</ele>
        <time>2016-07-06T16:16:53Z</time>
        <sat>7</sat>
      </trkpt>
      <trkpt lat="43.476801" lon="10.998645">
        <ele>269.0</ele>
        <time>2016-07-06T16:16:55Z</time>
        <sat>8</sat>
      </trkpt>
      <trkpt lat="43.476773" lon="10.998484">
        <ele>267.3</ele>
        <time>2016-07-06T16:16:58Z</time>
        <sat>8</sat>
      </trkpt>
      <trkpt lat="43.476684" lon="10.998401">
        <ele>266.5</ele>
        <time>2016-07-06T16:17:00Z</time>
        <sat>8</sat>
      </trkpt>
      <trkpt lat="43.476664" lon="10.998257">
        <ele>263.3</ele>
        <time>2016-07-06T16:17:03Z</time>
        <sat>8</sat>
      </trkpt>
      <trkpt lat="43.476606" lon="10.998148">
        <ele>261.4</ele>
        <time>2016-07-06T16:17:06Z</time>
        <sat>8</sat>
      </trkpt>
      <trkpt lat="43.476530" lon="10.998072">
        <ele>261.0</ele>
        <time>2016-07-06T16:17:10Z</time>
        <sat>8</sat>
      </trkpt>
      <trkpt lat="43.476501" lon="10.997949">
        <ele>263.2</ele>
        <time>2016-07-06T16:17:12Z</time>
        <sat>8</sat>
      </trkpt>
      <trkpt lat="43.476477" lon="10.997758">
        <ele>267.2</ele>
        <time>2016-07-06T16:17:15Z</time>
        <sat>8</sat>
      </trkpt>
      <trkpt lat="43.476432" lon="10.997646">
        <ele>272.7</ele>
        <time>2016-07-06T16:17:18Z</time>
        <sat>8</sat>
      </trkpt>
      <trkpt lat="43.476332" lon="10.997639">
        <ele>280.4</ele>
        <time>2016-07-06T16:17:36Z</time>
        <sat>7</sat>
      </trkpt>
      <trkpt lat="43.476146" lon="10.997425">
        <ele>285.5</ele>
        <time>2016-07-06T16:17:41Z</time>
        <sat>8</sat>
      </trkpt>
      <trkpt lat="43.476070" lon="10.997325">
        <ele>287.0</ele>
        <time>2016-07-06T16:17:44Z</time>
        <sat>8</sat>
      </trkpt>
      <trkpt lat="43.475908" lon="10.997180">
        <ele>293.0</ele>
        <time>2016-07-06T16:18:52Z</time>
        <sat>7</sat>
      </trkpt>
      <trkpt lat="43.476061" lon="10.997356">
        <ele>299.0</ele>
        <time>2016-07-06T16:19:45Z</time>
        <sat>8</sat>
      </trkpt>
      <trkpt lat="43.476151" lon="10.997357">
        <ele>298.7</ele>
        <time>2016-07-06T16:19:47Z</time>
        <sat>8</sat>
      </trkpt>
      <trkpt lat="43.476228" lon="10.997434">
        <ele>300.4</ele>
        <time>2016-07-06T16:19:49Z</time>
        <sat>7</sat>
      </trkpt>
      <trkpt lat="43.476243" lon="10.997563">
        <ele>297.6</ele>
        <time>2016-07-06T16:19:52Z</time>
        <sat>7</sat>
      </trkpt>
      <trkpt lat="43.476273" lon="10.997718">
        <ele>297.8</ele>
        <time>2016-07-06T16:19:55Z</time>
        <sat>7</sat>
      </trkpt>
      <trkpt lat="43.476350" lon="10.997842">
        <ele>297.4</ele>
        <time>2016-07-06T16:19:58Z</time>
        <sat>8</sat>
      </trkpt>
      <trkpt lat="43.476446" lon="10.998083">
        <ele>297.4</ele>
        <time>2016-07-06T16:20:05Z</time>
        <sat>6</sat>
      </trkpt>
      <trkpt lat="43.476526" lon="10.998195">
        <ele>298.4</ele>
        <time>2016-07-06T16:20:09Z</time>
        <sat>7</sat>
      </trkpt>
      <trkpt lat="43.476618" lon="10.998333">
        <ele>297.6</ele>
        <time>2016-07-06T16:20:12Z</time>
        <sat>8</sat>
      </trkpt>
      <trkpt lat="43.476689" lon="10.998433">
        <ele>297.0</ele>
        <time>2016-07-06T16:20:14Z</time>
        <sat>8</sat>
      </trkpt>
      <trkpt lat="43.476751" lon="10.998541">
        <ele>298.0</ele>
        <time>2016-07-06T16:20:24Z</time>
        <sat>6</sat>
      </trkpt>
      <trkpt lat="43.476830" lon="10.998401">
        <ele>298.0</ele>
        <time>2016-07-06T16:20:37Z</time>
        <sat>8</sat>
      </trkpt>
      <trkpt lat="43.476906" lon="10.998286">
        <ele>299.0</ele>
        <time>2016-07-06T16:20:40Z</time>
        <sat>7</sat>
      </trkpt>
      <trkpt lat="43.476911" lon="10.998150">
        <ele>298.8</ele>
        <time>2016-07-06T16:20:43Z</time>
        <sat>7</sat>
      </trkpt>
      <trkpt lat="43.476973" lon="10.997998">
        <ele>298.8</ele>
        <time>2016-07-06T16:20:46Z</time>
        <sat>8</sat>
      </trkpt>
      <trkpt lat="43.477028" lon="10.997853">
        <ele>299.3</ele>
        <time>2016-07-06T16:20:49Z</time>
        <sat>8</sat>
      </trkpt>
      <trkpt lat="43.477035" lon="10.997715">
        <ele>300.9</ele>
        <time>2016-07-06T16:20:52Z</time>
        <sat>6</sat>
      </trkpt>
      <trkpt lat="43.477072" lon="10.997599">
        <ele>301.0</ele>
        <time>2016-07-06T16:20:54Z</time>
        <sat>8</sat>
      </trkpt>
      <trkpt lat="43.477123" lon="10.997465">
        <ele>300.4</ele>
        <time>2016-07-06T16:20:56Z</time>
        <sat>7</sat>
      </trkpt>
      <trkpt lat="43.477153" lon="10.997334">
        <ele>299.5</ele>
        <time>2016-07-06T16:20:58Z</time>
        <sat>8</sat>
      </trkpt>
      <trkpt lat="43.477133" lon="10.997148">
        <ele>298.8</ele>
        <time>2016-07-06T16:21:01Z</time>
        <sat>7</sat>
      </trkpt>
      <trkpt lat="43.477088" lon="10.996816">
        <ele>297.7</ele>
        <time>2016-07-06T16:21:05Z</time>
        <sat>8</sat>
      </trkpt>
      <trkpt lat="43.476995" lon="10.996648">
        <ele>300.3</ele>
        <time>2016-07-06T16:21:07Z</time>
        <sat>8</sat>
      </trkpt>
      <trkpt lat="43.476934" lon="10.996532">
        <ele>300.5</ele>
        <time>2016-07-06T16:21:09Z</time>
        <sat>8</sat>
      </trkpt>
      <trkpt lat="43.476864" lon="10.996447">
        <ele>300.5</ele>
        <time>2016-07-06T16:21:12Z</time>
        <sat>7</sat>
      </trkpt>
      <trkpt lat="43.476852" lon="10.996311">
        <ele>298.1</ele>
        <time>2016-07-06T16:21:14Z</time>
        <sat>6</sat>
      </trkpt>
      <trkpt lat="43.476770" lon="10.996201">
        <ele>292.1</ele>
        <time>2016-07-06T16:21:17Z</time>
        <sat>7</sat>
      </trkpt>
      <trkpt lat="43.476728" lon="10.996082">
        <ele>290.3</ele>
        <time>2016-07-06T16:21:21Z</time>
        <sat>8</sat>
      </trkpt>
      <trkpt lat="43.476626" lon="10.996036">
        <ele>296.0</ele>
        <time>2016-07-06T16:21:30Z</time>
        <sat>6</sat>
      </trkpt>
      <trkpt lat="43.476542" lon="10.995947">
        <ele>298.8</ele>
        <time>2016-07-06T16:21:33Z</time>
        <sat>8</sat>
      </trkpt>
      <trkpt lat="43.476490" lon="10.995817">
        <ele>301.5</ele>
        <time>2016-07-06T16:21:35Z</time>
        <sat>7</sat>
      </trkpt>
      <trkpt lat="43.476429" lon="10.995697">
        <ele>304.2</ele>
        <time>2016-07-06T16:21:38Z</time>
        <sat>8</sat>
      </trkpt>
      <trkpt lat="43.476330" lon="10.995657">
        <ele>310.1</ele>
        <time>2016-07-06T16:21:52Z</time>
        <sat>8</sat>
      </trkpt>
      <trkpt lat="43.476232" lon="10.995580">
        <ele>312.0</ele>
        <time>2016-07-06T16:21:56Z</time>
        <sat>8</sat>
      </trkpt>
      <trkpt lat="43.476187" lon="10.995467">
        <ele>317.7</ele>
        <time>2016-07-06T16:23:35Z</time>
        <sat>8</sat>
      </trkpt>
      <trkpt lat="43.476246" lon="10.995195">
        <ele>318.6</ele>
        <time>2016-07-06T16:23:46Z</time>
        <sat>7</sat>
      </trkpt>
      <trkpt lat="43.476170" lon="10.995116">
        <ele>319.2</ele>
        <time>2016-07-06T16:23:49Z</time>
        <sat>7</sat>
      </trkpt>
      <trkpt lat="43.476109" lon="10.994980">
        <ele>319.5</ele>
        <time>2016-07-06T16:23:52Z</time>
        <sat>8</sat>
      </trkpt>
      <trkpt lat="43.476120" lon="10.994823">
        <ele>319.5</ele>
        <time>2016-07-06T16:23:55Z</time>
        <sat>8</sat>
      </trkpt>
      <trkpt lat="43.476048" lon="10.994733">
        <ele>322.8</ele>
        <time>2016-07-06T16:23:59Z</time>
        <sat>8</sat>
      </trkpt>
      <trkpt lat="43.475890" lon="10.994538">
        <ele>333.0</ele>
        <time>2016-07-06T16:27:21Z</time>
        <sat>8</sat>
      </trkpt>
      <trkpt lat="43.475752" lon="10.994233">
        <ele>334.1</ele>
        <time>2016-07-06T16:27:29Z</time>
        <sat>7</sat>
      </trkpt>
      <trkpt lat="43.475747" lon="10.994098">
        <ele>336.9</ele>
        <time>2016-07-06T16:27:32Z</time>
        <sat>6</sat>
      </trkpt>
      <trkpt lat="43.475678" lon="10.994000">
        <ele>337.9</ele>
        <time>2016-07-06T16:27:35Z</time>
        <sat>8</sat>
      </trkpt>
      <trkpt lat="43.475579" lon="10.993975">
        <ele>336.3</ele>
        <time>2016-07-06T16:27:38Z</time>
        <sat>8</sat>
      </trkpt>
      <trkpt lat="43.475476" lon="10.993945">
        <ele>334.8</ele>
        <time>2016-07-06T16:27:41Z</time>
        <sat>7</sat>
      </trkpt>
      <trkpt lat="43.475371" lon="10.993949">
        <ele>336.6</ele>
        <time>2016-07-06T16:27:44Z</time>
        <sat>8</sat>
      </trkpt>
      <trkpt lat="43.475273" lon="10.993996">
        <ele>337.6</ele>
        <time>2016-07-06T16:27:46Z</time>
        <sat>8</sat>
      </trkpt>
      <trkpt lat="43.475182" lon="10.993967">
        <ele>343.9</ele>
        <time>2016-07-06T16:27:50Z</time>
        <sat>7</sat>
      </trkpt>
      <trkpt lat="43.475152" lon="10.993842">
        <ele>346.3</ele>
        <time>2016-07-06T16:27:54Z</time>
        <sat>7</sat>
      </trkpt>
      <trkpt lat="43.475201" lon="10.993634">
        <ele>352.2</ele>
        <time>2016-07-06T16:33:47Z</time>
        <sat>7</sat>
      </trkpt>
      <trkpt lat="43.475333" lon="10.993430">
        <ele>355.7</ele>
        <time>2016-07-06T16:33:55Z</time>
        <sat>8</sat>
      </trkpt>
      <trkpt lat="43.475417" lon="10.993335">
        <ele>358.5</ele>
        <time>2016-07-06T16:33:59Z</time>
        <sat>8</sat>
      </trkpt>
      <trkpt lat="43.475490" lon="10.993251">
        <ele>367.6</ele>
        <time>2016-07-06T16:35:39Z</time>
        <sat>8</sat>
      </trkpt>
      <trkpt lat="43.475554" lon="10.993005">
        <ele>373.1</ele>
        <time>2016-07-06T16:35:49Z</time>
        <sat>8</sat>
      </trkpt>
      <trkpt lat="43.475502" lon="10.992885">
        <ele>374.8</ele>
        <time>2016-07-06T16:35:54Z</time>
        <sat>8</sat>
      </trkpt>
      <trkpt lat="43.475397" lon="10.992799">
        <ele>390.6</ele>
        <time>2016-07-06T16:43:11Z</time>
        <sat>7</sat>
      </trkpt>
      <trkpt lat="43.475285" lon="10.992492">
        <ele>392.7</ele>
        <time>2016-07-06T16:43:17Z</time>
        <sat>9</sat>
      </trkpt>
      <trkpt lat="43.475245" lon="10.992310">
        <ele>392.8</ele>
        <time>2016-07-06T16:43:20Z</time>
        <sat>9</sat>
      </trkpt>
      <trkpt lat="43.475212" lon="10.992170">
        <ele>393.4</ele>
        <time>2016-07-06T16:43:22Z</time>
        <sat>9</sat>
      </trkpt>
      <trkpt lat="43.475158" lon="10.992016">
        <ele>392.7</ele>
        <time>2016-07-06T16:43:24Z</time>
        <sat>7</sat>
      </trkpt>
      <trkpt lat="43.475112" lon="10.991867">
        <ele>392.0</ele>
        <time>2016-07-06T16:43:26Z</time>
        <sat>8</sat>
      </trkpt>
      <trkpt lat="43.475077" lon="10.991729">
        <ele>392.3</ele>
        <time>2016-07-06T16:43:28Z</time>
        <sat>8</sat>
      </trkpt>
      <trkpt lat="43.475033" lon="10.991574">
        <ele>393.2</ele>
        <time>2016-07-06T16:43:30Z</time>
        <sat>8</sat>
      </trkpt>
      <trkpt lat="43.474982" lon="10.991420">
        <ele>393.3</ele>
        <time>2016-07-06T16:43:32Z</time>
        <sat>8</sat>
      </trkpt>
      <trkpt lat="43.474941" lon="10.991303">
        <ele>394.5</ele>
        <time>2016-07-06T16:43:34Z</time>
        <sat>9</sat>
      </trkpt>
      <trkpt lat="43.474895" lon="10.991161">
        <ele>395.2</ele>
        <time>2016-07-06T16:43:36Z</time>
        <sat>9</sat>
      </trkpt>
      <trkpt lat="43.474823" lon="10.991063">
        <ele>396.8</ele>
        <time>2016-07-06T16:43:38Z</time>
        <sat>8</sat>
      </trkpt>
      <trkpt lat="43.474725" lon="10.990966">
        <ele>395.3</ele>
        <time>2016-07-06T16:43:40Z</time>
        <sat>8</sat>
      </trkpt>
      <trkpt lat="43.474600" lon="10.990845">
        <ele>392.0</ele>
        <time>2016-07-06T16:43:42Z</time>
        <sat>7</sat>
      </trkpt>
      <trkpt lat="43.474464" lon="10.990724">
        <ele>390.2</ele>
        <time>2016-07-06T16:43:44Z</time>
        <sat>7</sat>
      </trkpt>
      <trkpt lat="43.474321" lon="10.990627">
        <ele>389.7</ele>
        <time>2016-07-06T16:43:46Z</time>
        <sat>7</sat>
      </trkpt>
      <trkpt lat="43.474191" lon="10.990514">
        <ele>388.9</ele>
        <time>2016-07-06T16:43:48Z</time>
        <sat>6</sat>
      </trkpt>
      <trkpt lat="43.474080" lon="10.990386">
        <ele>388.6</ele>
        <time>2016-07-06T16:43:50Z</time>
        <sat>6</sat>
      </trkpt>
      <trkpt lat="43.473963" lon="10.990295">
        <ele>388.6</ele>
        <time>2016-07-06T16:43:52Z</time>
        <sat>7</sat>
      </trkpt>
      <trkpt lat="43.473825" lon="10.990202">
        <ele>388.7</ele>
        <time>2016-07-06T16:43:54Z</time>
        <sat>8</sat>
      </trkpt>
      <trkpt lat="43.473676" lon="10.990096">
        <ele>388.7</ele>
        <time>2016-07-06T16:43:56Z</time>
        <sat>6</sat>
      </trkpt>
      <trkpt lat="43.473568" lon="10.989986">
        <ele>388.6</ele>
        <time>2016-07-06T16:43:58Z</time>
        <sat>7</sat>
      </trkpt>
      <trkpt lat="43.473474" lon="10.989886">
        <ele>388.0</ele>
        <time>2016-07-06T16:44:00Z</time>
        <sat>7</sat>
      </trkpt>
      <trkpt lat="43.473376" lon="10.989799">
        <ele>387.3</ele>
        <time>2016-07-06T16:44:02Z</time>
        <sat>6</sat>
      </trkpt>
      <trkpt lat="43.473259" lon="10.989751">
        <ele>387.8</ele>
        <time>2016-07-06T16:44:05Z</time>
        <sat>7</sat>
      </trkpt>
      <trkpt lat="43.473186" lon="10.989653">
        <ele>390.2</ele>
        <time>2016-07-06T16:44:07Z</time>
        <sat>7</sat>
      </trkpt>
      <trkpt lat="43.473087" lon="10.989556">
        <ele>390.7</ele>
        <time>2016-07-06T16:44:09Z</time>
        <sat>8</sat>
      </trkpt>
      <trkpt lat="43.473001" lon="10.989456">
        <ele>391.8</ele>
        <time>2016-07-06T16:44:11Z</time>
        <sat>8</sat>
      </trkpt>
      <trkpt lat="43.472962" lon="10.989344">
        <ele>391.6</ele>
        <time>2016-07-06T16:44:13Z</time>
        <sat>7</sat>
      </trkpt>
      <trkpt lat="43.472764" lon="10.989151">
        <ele>391.4</ele>
        <time>2016-07-06T16:44:17Z</time>
        <sat>7</sat>
      </trkpt>
      <trkpt lat="43.472652" lon="10.989093">
        <ele>391.9</ele>
        <time>2016-07-06T16:44:20Z</time>
        <sat>7</sat>
      </trkpt>
      <trkpt lat="43.472548" lon="10.989061">
        <ele>390.8</ele>
        <time>2016-07-06T16:44:24Z</time>
        <sat>8</sat>
      </trkpt>
      <trkpt lat="43.472460" lon="10.988979">
        <ele>391.3</ele>
        <time>2016-07-06T16:44:26Z</time>
        <sat>9</sat>
      </trkpt>
      <trkpt lat="43.472365" lon="10.988867">
        <ele>390.8</ele>
        <time>2016-07-06T16:44:28Z</time>
        <sat>9</sat>
      </trkpt>
      <trkpt lat="43.472249" lon="10.988765">
        <ele>391.9</ele>
        <time>2016-07-06T16:44:30Z</time>
        <sat>8</sat>
      </trkpt>
      <trkpt lat="43.472143" lon="10.988689">
        <ele>394.1</ele>
        <time>2016-07-06T16:44:32Z</time>
        <sat>8</sat>
      </trkpt>
      <trkpt lat="43.471977" lon="10.988610">
        <ele>395.2</ele>
        <time>2016-07-06T16:44:34Z</time>
        <sat>7</sat>
      </trkpt>
      <trkpt lat="43.471891" lon="10.988558">
        <ele>395.7</ele>
        <time>2016-07-06T16:44:35Z</time>
        <sat>8</sat>
      </trkpt>
      <trkpt lat="43.471756" lon="10.988458">
        <ele>396.0</ele>
        <time>2016-07-06T16:44:37Z</time>
        <sat>8</sat>
      </trkpt>
      <trkpt lat="43.471654" lon="10.988334">
        <ele>393.4</ele>
        <time>2016-07-06T16:44:39Z</time>
        <sat>8</sat>
      </trkpt>
      <trkpt lat="43.471591" lon="10.988175">
        <ele>390.0</ele>
        <time>2016-07-06T16:44:41Z</time>
        <sat>8</sat>
      </trkpt>
      <trkpt lat="43.471510" lon="10.988044">
        <ele>387.9</ele>
        <time>2016-07-06T16:44:43Z</time>
        <sat>8</sat>
      </trkpt>
      <trkpt lat="43.471434" lon="10.987902">
        <ele>387.1</ele>
        <time>2016-07-06T16:44:45Z</time>
        <sat>8</sat>
      </trkpt>
      <trkpt lat="43.471388" lon="10.987731">
        <ele>385.6</ele>
        <time>2016-07-06T16:44:47Z</time>
        <sat>7</sat>
      </trkpt>
      <trkpt lat="43.471349" lon="10.987598">
        <ele>384.4</ele>
        <time>2016-07-06T16:44:48Z</time>
        <sat>8</sat>
      </trkpt>
      <trkpt lat="43.471286" lon="10.987458">
        <ele>383.0</ele>
        <time>2016-07-06T16:44:49Z</time>
        <sat>8</sat>
      </trkpt>
      <trkpt lat="43.471213" lon="10.987305">
        <ele>382.5</ele>
        <time>2016-07-06T16:44:50Z</time>
        <sat>8</sat>
      </trkpt>
      <trkpt lat="43.471152" lon="10.987180">
        <ele>384.4</ele>
        <time>2016-07-06T16:44:51Z</time>
        <sat>8</sat>
      </trkpt>
      <trkpt lat="43.471055" lon="10.987029">
        <ele>391.1</ele>
        <time>2016-07-06T16:44:53Z</time>
        <sat>7</sat>
      </trkpt>
      <trkpt lat="43.470945" lon="10.986931">
        <ele>394.8</ele>
        <time>2016-07-06T16:44:55Z</time>
        <sat>7</sat>
      </trkpt>
      <trkpt lat="43.470833" lon="10.986848">
        <ele>396.3</ele>
        <time>2016-07-06T16:44:57Z</time>
        <sat>8</sat>
      </trkpt>
      <trkpt lat="43.470736" lon="10.986755">
        <ele>394.3</ele>
        <time>2016-07-06T16:44:59Z</time>
        <sat>8</sat>
      </trkpt>
      <trkpt lat="43.470636" lon="10.986655">
        <ele>391.5</ele>
        <time>2016-07-06T16:45:01Z</time>
        <sat>8</sat>
      </trkpt>
      <trkpt lat="43.470556" lon="10.986583">
        <ele>389.0</ele>
        <time>2016-07-06T16:45:03Z</time>
        <sat>7</sat>
      </trkpt>
      <trkpt lat="43.470500" lon="10.986472">
        <ele>386.6</ele>
        <time>2016-07-06T16:45:06Z</time>
        <sat>6</sat>
      </trkpt>
      <trkpt lat="43.470563" lon="10.986275">
        <ele>384.9</ele>
        <time>2016-07-06T16:45:09Z</time>
        <sat>8</sat>
      </trkpt>
      <trkpt lat="43.470637" lon="10.986076">
        <ele>383.2</ele>
        <time>2016-07-06T16:45:11Z</time>
        <sat>8</sat>
      </trkpt>
      <trkpt lat="43.470677" lon="10.985947">
        <ele>381.7</ele>
        <time>2016-07-06T16:45:12Z</time>
        <sat>8</sat>
      </trkpt>
      <trkpt lat="43.470724" lon="10.985818">
        <ele>380.1</ele>
        <time>2016-07-06T16:45:13Z</time>
        <sat>7</sat>
      </trkpt>
      <trkpt lat="43.470756" lon="10.985699">
        <ele>378.6</ele>
        <time>2016-07-06T16:45:14Z</time>
        <sat>7</sat>
      </trkpt>
      <trkpt lat="43.470824" lon="10.985516">
        <ele>373.1</ele>
        <time>2016-07-06T16:45:16Z</time>
        <sat>8</sat>
      </trkpt>
      <trkpt lat="43.470972" lon="10.985218">
        <ele>368.0</ele>
        <time>2016-07-06T16:45:20Z</time>
        <sat>8</sat>
      </trkpt>
      <trkpt lat="43.471057" lon="10.985113">
        <ele>364.5</ele>
        <time>2016-07-06T16:45:22Z</time>
        <sat>8</sat>
      </trkpt>
      <trkpt lat="43.471127" lon="10.984996">
        <ele>361.6</ele>
        <time>2016-07-06T16:45:24Z</time>
        <sat>7</sat>
      </trkpt>
      <trkpt lat="43.471230" lon="10.984907">
        <ele>357.0</ele>
        <time>2016-07-06T16:45:27Z</time>
        <sat>7</sat>
      </trkpt>
      <trkpt lat="43.471314" lon="10.984836">
        <ele>351.3</ele>
        <time>2016-07-06T16:45:29Z</time>
        <sat>7</sat>
      </trkpt>
      <trkpt lat="43.471330" lon="10.984697">
        <ele>348.5</ele>
        <time>2016-07-06T16:45:32Z</time>
        <sat>7</sat>
      </trkpt>
      <trkpt lat="43.471233" lon="10.984597">
        <ele>346.9</ele>
        <time>2016-07-06T16:45:35Z</time>
        <sat>8</sat>
      </trkpt>
      <trkpt lat="43.471116" lon="10.984512">
        <ele>346.6</ele>
        <time>2016-07-06T16:45:37Z</time>
        <sat>7</sat>
      </trkpt>
      <trkpt lat="43.471033" lon="10.984458">
        <ele>347.0</ele>
        <time>2016-07-06T16:45:38Z</time>
        <sat>8</sat>
      </trkpt>
      <trkpt lat="43.470914" lon="10.984376">
        <ele>345.7</ele>
        <time>2016-07-06T16:45:40Z</time>
        <sat>8</sat>
      </trkpt>
      <trkpt lat="43.470807" lon="10.984288">
        <ele>347.1</ele>
        <time>2016-07-06T16:45:41Z</time>
        <sat>8</sat>
      </trkpt>
      <trkpt lat="43.470708" lon="10.984222">
        <ele>346.7</ele>
        <time>2016-07-06T16:45:42Z</time>
        <sat>8</sat>
      </trkpt>
      <trkpt lat="43.470622" lon="10.984145">
        <ele>346.3</ele>
        <time>2016-07-06T16:45:43Z</time>
        <sat>7</sat>
      </trkpt>
      <trkpt lat="43.470513" lon="10.983992">
        <ele>344.9</ele>
        <time>2016-07-06T16:45:45Z</time>
        <sat>7</sat>
      </trkpt>
      <trkpt lat="43.470435" lon="10.983791">
        <ele>343.8</ele>
        <time>2016-07-06T16:45:47Z</time>
        <sat>8</sat>
      </trkpt>
      <trkpt lat="43.470399" lon="10.983652">
        <ele>343.1</ele>
        <time>2016-07-06T16:45:48Z</time>
        <sat>6</sat>
      </trkpt>
      <trkpt lat="43.470341" lon="10.983518">
        <ele>342.6</ele>
        <time>2016-07-06T16:45:49Z</time>
        <sat>8</sat>
      </trkpt>
      <trkpt lat="43.470294" lon="10.983404">
        <ele>341.9</ele>
        <time>2016-07-06T16:45:50Z</time>
        <sat>7</sat>
      </trkpt>
      <trkpt lat="43.470207" lon="10.983173">
        <ele>342.4</ele>
        <time>2016-07-06T16:45:52Z</time>
        <sat>7</sat>
      </trkpt>
      <trkpt lat="43.470127" lon="10.982995">
        <ele>341.8</ele>
        <time>2016-07-06T16:45:54Z</time>
        <sat>8</sat>
      </trkpt>
      <trkpt lat="43.469983" lon="10.982863">
        <ele>340.9</ele>
        <time>2016-07-06T16:45:56Z</time>
        <sat>7</sat>
      </trkpt>
      <trkpt lat="43.469953" lon="10.982669">
        <ele>339.2</ele>
        <time>2016-07-06T16:45:58Z</time>
        <sat>8</sat>
      </trkpt>
      <trkpt lat="43.469896" lon="10.982484">
        <ele>338.8</ele>
        <time>2016-07-06T16:46:00Z</time>
        <sat>7</sat>
      </trkpt>
      <trkpt lat="43.469850" lon="10.982273">
        <ele>337.3</ele>
        <time>2016-07-06T16:46:02Z</time>
        <sat>8</sat>
      </trkpt>
      <trkpt lat="43.469790" lon="10.982049">
        <ele>334.7</ele>
        <time>2016-07-06T16:46:04Z</time>
        <sat>8</sat>
      </trkpt>
      <trkpt lat="43.469700" lon="10.981913">
        <ele>335.2</ele>
        <time>2016-07-06T16:46:05Z</time>
        <sat>8</sat>
      </trkpt>
      <trkpt lat="43.469623" lon="10.981809">
        <ele>334.1</ele>
        <time>2016-07-06T16:46:06Z</time>
        <sat>8</sat>
      </trkpt>
      <trkpt lat="43.469486" lon="10.981644">
        <ele>333.1</ele>
        <time>2016-07-06T16:46:08Z</time>
        <sat>8</sat>
      </trkpt>
      <trkpt lat="43.469394" lon="10.981592">
        <ele>332.1</ele>
        <time>2016-07-06T16:46:09Z</time>
        <sat>8</sat>
      </trkpt>
      <trkpt lat="43.469342" lon="10.981432">
        <ele>330.6</ele>
        <time>2016-07-06T16:46:11Z</time>
        <sat>8</sat>
      </trkpt>
      <trkpt lat="43.469267" lon="10.981240">
        <ele>328.4</ele>
        <time>2016-07-06T16:46:13Z</time>
        <sat>8</sat>
      </trkpt>
      <trkpt lat="43.469258" lon="10.981087">
        <ele>325.6</ele>
        <time>2016-07-06T16:46:15Z</time>
        <sat>8</sat>
      </trkpt>
      <trkpt lat="43.469228" lon="10.980897">
        <ele>321.7</ele>
        <time>2016-07-06T16:46:17Z</time>
        <sat>8</sat>
      </trkpt>
      <trkpt lat="43.469193" lon="10.980783">
        <ele>320.1</ele>
        <time>2016-07-06T16:46:18Z</time>
        <sat>8</sat>
      </trkpt>
      <trkpt lat="43.469025" lon="10.980570">
        <ele>318.8</ele>
        <time>2016-07-06T16:46:20Z</time>
        <sat>8</sat>
      </trkpt>
      <trkpt lat="43.468932" lon="10.980487">
        <ele>318.5</ele>
        <time>2016-07-06T16:46:21Z</time>
        <sat>7</sat>
      </trkpt>
      <trkpt lat="43.468832" lon="10.980389">
        <ele>318.5</ele>
        <time>2016-07-06T16:46:22Z</time>
        <sat>8</sat>
      </trkpt>
      <trkpt lat="43.468753" lon="10.980292">
        <ele>318.7</ele>
        <time>2016-07-06T16:46:23Z</time>
        <sat>7</sat>
      </trkpt>
      <trkpt lat="43.468480" lon="10.980000">
        <ele>318.0</ele>
        <time>2016-07-06T16:46:25Z</time>
        <sat>6</sat>
      </trkpt>
      <trkpt lat="43.468148" lon="10.979702">
        <ele>319.4</ele>
        <time>2016-07-06T16:46:28Z</time>
        <sat>8</sat>
      </trkpt>
      <trkpt lat="43.467986" lon="10.979582">
        <ele>318.8</ele>
        <time>2016-07-06T16:46:29Z</time>
        <sat>7</sat>
      </trkpt>
      <trkpt lat="43.467836" lon="10.979454">
        <ele>318.6</ele>
        <time>2016-07-06T16:46:30Z</time>
        <sat>7</sat>
      </trkpt>
      <trkpt lat="43.467676" lon="10.979320">
        <ele>318.3</ele>
        <time>2016-07-06T16:46:31Z</time>
        <sat>6</sat>
      </trkpt>
      <trkpt lat="43.467504" lon="10.979175">
        <ele>319.2</ele>
        <time>2016-07-06T16:46:32Z</time>
        <sat>7</sat>
      </trkpt>
      <trkpt lat="43.467329" lon="10.979057">
        <ele>320.1</ele>
        <time>2016-07-06T16:46:33Z</time>
        <sat>7</sat>
      </trkpt>
      <trkpt lat="43.467169" lon="10.978957">
        <ele>321.1</ele>
        <time>2016-07-06T16:46:34Z</time>
        <sat>7</sat>
      </trkpt>
      <trkpt lat="43.467017" lon="10.978846">
        <ele>322.2</ele>
        <time>2016-07-06T16:46:35Z</time>
        <sat>7</sat>
      </trkpt>
      <trkpt lat="43.466881" lon="10.978733">
        <ele>323.1</ele>
        <time>2016-07-06T16:46:36Z</time>
        <sat>7</sat>
      </trkpt>
      <trkpt lat="43.466763" lon="10.978652">
        <ele>324.2</ele>
        <time>2016-07-06T16:46:37Z</time>
        <sat>6</sat>
      </trkpt>
      <trkpt lat="43.466656" lon="10.978560">
        <ele>325.7</ele>
        <time>2016-07-06T16:46:38Z</time>
        <sat>7</sat>
      </trkpt>
      <trkpt lat="43.466549" lon="10.978468">
        <ele>327.1</ele>
        <time>2016-07-06T16:46:39Z</time>
        <sat>7</sat>
      </trkpt>
      <trkpt lat="43.466437" lon="10.978381">
        <ele>328.9</ele>
        <time>2016-07-06T16:46:40Z</time>
        <sat>6</sat>
      </trkpt>
      <trkpt lat="43.466123" lon="10.978179">
        <ele>334.0</ele>
        <time>2016-07-06T16:46:42Z</time>
        <sat>4</sat>
      </trkpt>
      <trkpt lat="43.465778" lon="10.977987">
        <ele>344.3</ele>
        <time>2016-07-06T16:46:45Z</time>
        <sat>7</sat>
      </trkpt>
      <trkpt lat="43.465651" lon="10.977945">
        <ele>345.7</ele>
        <time>2016-07-06T16:46:46Z</time>
        <sat>7</sat>
      </trkpt>
      <trkpt lat="43.465539" lon="10.977904">
        <ele>347.0</ele>
        <time>2016-07-06T16:46:47Z</time>
        <sat>7</sat>
      </trkpt>
      <trkpt lat="43.465425" lon="10.977864">
        <ele>348.2</ele>
        <time>2016-07-06T16:46:48Z</time>
        <sat>6</sat>
      </trkpt>
      <trkpt lat="43.465300" lon="10.977806">
        <ele>349.4</ele>
        <time>2016-07-06T16:46:49Z</time>
        <sat>7</sat>
      </trkpt>
      <trkpt lat="43.465177" lon="10.977743">
        <ele>351.3</ele>
        <time>2016-07-06T16:46:50Z</time>
        <sat>6</sat>
      </trkpt>
      <trkpt lat="43.465067" lon="10.977692">
        <ele>353.0</ele>
        <time>2016-07-06T16:46:51Z</time>
        <sat>7</sat>
      </trkpt>
      <trkpt lat="43.464947" lon="10.977641">
        <ele>354.2</ele>
        <time>2016-07-06T16:46:52Z</time>
        <sat>7</sat>
      </trkpt>
      <trkpt lat="43.464818" lon="10.977599">
        <ele>355.0</ele>
        <time>2016-07-06T16:46:53Z</time>
        <sat>8</sat>
      </trkpt>
      <trkpt lat="43.464699" lon="10.977563">
        <ele>355.4</ele>
        <time>2016-07-06T16:46:54Z</time>
        <sat>8</sat>
      </trkpt>
      <trkpt lat="43.464576" lon="10.977534">
        <ele>356.1</ele>
        <time>2016-07-06T16:46:55Z</time>
        <sat>8</sat>
      </trkpt>
      <trkpt lat="43.464466" lon="10.977474">
        <ele>357.2</ele>
        <time>2016-07-06T16:46:56Z</time>
        <sat>8</sat>
      </trkpt>
      <trkpt lat="43.464362" lon="10.977391">
        <ele>357.0</ele>
        <time>2016-07-06T16:46:57Z</time>
        <sat>8</sat>
      </trkpt>
      <trkpt lat="43.464257" lon="10.977281">
        <ele>355.2</ele>
        <time>2016-07-06T16:46:58Z</time>
        <sat>8</sat>
      </trkpt>
      <trkpt lat="43.464146" lon="10.977156">
        <ele>354.0</ele>
        <time>2016-07-06T16:46:59Z</time>
        <sat>7</sat>
      </trkpt>
      <trkpt lat="43.464050" lon="10.977037">
        <ele>353.6</ele>
        <time>2016-07-06T16:47:00Z</time>
        <sat>7</sat>
      </trkpt>
      <trkpt lat="43.463965" lon="10.976932">
        <ele>353.3</ele>
        <time>2016-07-06T16:47:01Z</time>
        <sat>8</sat>
      </trkpt>
      <trkpt lat="43.463887" lon="10.976848">
        <ele>352.2</ele>
        <time>2016-07-06T16:47:02Z</time>
        <sat>9</sat>
      </trkpt>
      <trkpt lat="43.463802" lon="10.976766">
        <ele>351.4</ele>
        <time>2016-07-06T16:47:03Z</time>
        <sat>8</sat>
      </trkpt>
      <trkpt lat="43.463719" lon="10.976700">
        <ele>350.2</ele>
        <time>2016-07-06T16:47:04Z</time>
        <sat>8</sat>
      </trkpt>
      <trkpt lat="43.463615" lon="10.976629">
        <ele>349.2</ele>
        <time>2016-07-06T16:47:05Z</time>
        <sat>8</sat>
      </trkpt>
      <trkpt lat="43.463500" lon="10.976561">
        <ele>347.6</ele>
        <time>2016-07-06T16:47:06Z</time>
        <sat>8</sat>
      </trkpt>
      <trkpt lat="43.463378" lon="10.976494">
        <ele>347.5</ele>
        <time>2016-07-06T16:47:07Z</time>
        <sat>8</sat>
      </trkpt>
      <trkpt lat="43.463259" lon="10.976430">
        <ele>347.2</ele>
        <time>2016-07-06T16:47:08Z</time>
        <sat>8</sat>
      </trkpt>
      <trkpt lat="43.463150" lon="10.976366">
        <ele>347.1</ele>
        <time>2016-07-06T16:47:09Z</time>
        <sat>8</sat>
      </trkpt>
      <trkpt lat="43.463038" lon="10.976298">
        <ele>347.2</ele>
        <time>2016-07-06T16:47:10Z</time>
        <sat>8</sat>
      </trkpt>
      <trkpt lat="43.462927" lon="10.976237">
        <ele>347.5</ele>
        <time>2016-07-06T16:47:11Z</time>
        <sat>7</sat>
      </trkpt>
      <trkpt lat="43.462816" lon="10.976179">
        <ele>347.8</ele>
        <time>2016-07-06T16:47:12Z</time>
        <sat>8</sat>
      </trkpt>
      <trkpt lat="43.462710" lon="10.976129">
        <ele>348.2</ele>
        <time>2016-07-06T16:47:13Z</time>
        <sat>7</sat>
      </trkpt>
      <trkpt lat="43.462613" lon="10.976081">
        <ele>348.7</ele>
        <time>2016-07-06T16:47:14Z</time>
        <sat>7</sat>
      </trkpt>
      <trkpt lat="43.462516" lon="10.976022">
        <ele>349.2</ele>
        <time>2016-07-06T16:47:15Z</time>
        <sat>7</sat>
      </trkpt>
      <trkpt lat="43.462420" lon="10.975961">
        <ele>349.6</ele>
        <time>2016-07-06T16:47:16Z</time>
        <sat>6</sat>
      </trkpt>
      <trkpt lat="43.462329" lon="10.975917">
        <ele>350.1</ele>
        <time>2016-07-06T16:47:17Z</time>
        <sat>9</sat>
      </trkpt>
      <trkpt lat="43.462227" lon="10.975878">
        <ele>349.7</ele>
        <time>2016-07-06T16:47:20Z</time>
        <sat>9</sat>
      </trkpt>
      <trkpt lat="43.462084" lon="10.975698">
        <ele>351.1</ele>
        <time>2016-07-06T16:47:56Z</time>
        <sat>7</sat>
      </trkpt>
      <trkpt lat="43.461985" lon="10.975706">
        <ele>352.2</ele>
        <time>2016-07-06T16:48:00Z</time>
        <sat>8</sat>
      </trkpt>
      <trkpt lat="43.462078" lon="10.975714">
        <ele>355.6</ele>
        <time>2016-07-06T16:48:16Z</time>
        <sat>8</sat>
      </trkpt>
      <trkpt lat="43.462156" lon="10.975829">
        <ele>354.2</ele>
        <time>2016-07-06T16:48:21Z</time>
        <sat>9</sat>
      </trkpt>
      <trkpt lat="43.462278" lon="10.975829">
        <ele>353.6</ele>
        <time>2016-07-06T16:48:25Z</time>
        <sat>8</sat>
      </trkpt>
      <trkpt lat="43.462509" lon="10.975678">
        <ele>350.7</ele>
        <time>2016-07-06T16:48:32Z</time>
        <sat>9</sat>
      </trkpt>
      <trkpt lat="43.462549" lon="10.975559">
        <ele>347.7</ele>
        <time>2016-07-06T16:48:34Z</time>
        <sat>9</sat>
      </trkpt>
      <trkpt lat="43.462545" lon="10.975417">
        <ele>343.0</ele>
        <time>2016-07-06T16:48:36Z</time>
        <sat>9</sat>
      </trkpt>
      <trkpt lat="43.462593" lon="10.975229">
        <ele>339.2</ele>
        <time>2016-07-06T16:48:38Z</time>
        <sat>9</sat>
      </trkpt>
      <trkpt lat="43.462641" lon="10.975045">
        <ele>339.8</ele>
        <time>2016-07-06T16:48:40Z</time>
        <sat>7</sat>
      </trkpt>
      <trkpt lat="43.462684" lon="10.974862">
        <ele>339.1</ele>
        <time>2016-07-06T16:48:42Z</time>
        <sat>8</sat>
      </trkpt>
      <trkpt lat="43.462724" lon="10.974659">
        <ele>338.9</ele>
        <time>2016-07-06T16:48:44Z</time>
        <sat>8</sat>
      </trkpt>
      <trkpt lat="43.462754" lon="10.974478">
        <ele>338.6</ele>
        <time>2016-07-06T16:48:46Z</time>
        <sat>7</sat>
      </trkpt>
      <trkpt lat="43.462774" lon="10.974289">
        <ele>338.6</ele>
        <time>2016-07-06T16:48:48Z</time>
        <sat>7</sat>
      </trkpt>
      <trkpt lat="43.462794" lon="10.974115">
        <ele>338.3</ele>
        <time>2016-07-06T16:48:50Z</time>
        <sat>7</sat>
      </trkpt>
      <trkpt lat="43.462815" lon="10.973945">
        <ele>337.9</ele>
        <time>2016-07-06T16:48:52Z</time>
        <sat>6</sat>
      </trkpt>
      <trkpt lat="43.462839" lon="10.973770">
        <ele>338.3</ele>
        <time>2016-07-06T16:48:54Z</time>
        <sat>7</sat>
      </trkpt>
      <trkpt lat="43.462864" lon="10.973583">
        <ele>338.3</ele>
        <time>2016-07-06T16:48:56Z</time>
        <sat>8</sat>
      </trkpt>
      <trkpt lat="43.462879" lon="10.973351">
        <ele>338.2</ele>
        <time>2016-07-06T16:48:58Z</time>
        <sat>6</sat>
      </trkpt>
      <trkpt lat="43.462874" lon="10.973108">
        <ele>337.9</ele>
        <time>2016-07-06T16:49:00Z</time>
        <sat>7</sat>
      </trkpt>
      <trkpt lat="43.462875" lon="10.972894">
        <ele>338.5</ele>
        <time>2016-07-06T16:49:02Z</time>
        <sat>7</sat>
      </trkpt>
      <trkpt lat="43.462883" lon="10.972731">
        <ele>338.1</ele>
        <time>2016-07-06T16:49:04Z</time>
        <sat>7</sat>
      </trkpt>
      <trkpt lat="43.462839" lon="10.972596">
        <ele>338.0</ele>
        <time>2016-07-06T16:49:06Z</time>
        <sat>7</sat>
      </trkpt>
      <trkpt lat="43.462732" lon="10.972460">
        <ele>338.7</ele>
        <time>2016-07-06T16:49:08Z</time>
        <sat>8</sat>
      </trkpt>
      <trkpt lat="43.462658" lon="10.972325">
        <ele>338.6</ele>
        <time>2016-07-06T16:49:10Z</time>
        <sat>7</sat>
      </trkpt>
      <trkpt lat="43.462624" lon="10.972169">
        <ele>337.9</ele>
        <time>2016-07-06T16:49:13Z</time>
        <sat>7</sat>
      </trkpt>
      <trkpt lat="43.462650" lon="10.971994">
        <ele>337.5</ele>
        <time>2016-07-06T16:49:16Z</time>
        <sat>6</sat>
      </trkpt>
      <trkpt lat="43.462684" lon="10.971851">
        <ele>337.0</ele>
        <time>2016-07-06T16:49:18Z</time>
        <sat>7</sat>
      </trkpt>
      <trkpt lat="43.462748" lon="10.971753">
        <ele>339.8</ele>
        <time>2016-07-06T16:49:20Z</time>
        <sat>6</sat>
      </trkpt>
      <trkpt lat="43.462722" lon="10.971915">
        <ele>340.9</ele>
        <time>2016-07-06T16:50:44Z</time>
        <sat>8</sat>
      </trkpt>
      <trkpt lat="43.462689" lon="10.972191">
        <ele>340.3</ele>
        <time>2016-07-06T16:50:48Z</time>
        <sat>8</sat>
      </trkpt>
      <trkpt lat="43.462759" lon="10.972397">
        <ele>340.9</ele>
        <time>2016-07-06T16:50:50Z</time>
        <sat>7</sat>
      </trkpt>
      <trkpt lat="43.462859" lon="10.972560">
        <ele>340.2</ele>
        <time>2016-07-06T16:50:52Z</time>
        <sat>8</sat>
      </trkpt>
      <trkpt lat="43.462908" lon="10.972708">
        <ele>339.6</ele>
        <time>2016-07-06T16:50:54Z</time>
        <sat>8</sat>
      </trkpt>
      <trkpt lat="43.462910" lon="10.972890">
        <ele>340.3</ele>
        <time>2016-07-06T16:50:56Z</time>
        <sat>7</sat>
      </trkpt>
      <trkpt lat="43.462901" lon="10.973141">
        <ele>340.3</ele>
        <time>2016-07-06T16:50:58Z</time>
        <sat>7</sat>
      </trkpt>
      <trkpt lat="43.462908" lon="10.973283">
        <ele>340.0</ele>
        <time>2016-07-06T16:50:59Z</time>
        <sat>7</sat>
      </trkpt>
      <trkpt lat="43.462909" lon="10.973427">
        <ele>339.3</ele>
        <time>2016-07-06T16:51:00Z</time>
        <sat>7</sat>
      </trkpt>
      <trkpt lat="43.462901" lon="10.973570">
        <ele>338.8</ele>
        <time>2016-07-06T16:51:01Z</time>
        <sat>7</sat>
      </trkpt>
      <trkpt lat="43.462886" lon="10.973712">
        <ele>338.4</ele>
        <time>2016-07-06T16:51:02Z</time>
        <sat>7</sat>
      </trkpt>
      <trkpt lat="43.462871" lon="10.973848">
        <ele>338.3</ele>
        <time>2016-07-06T16:51:03Z</time>
        <sat>7</sat>
      </trkpt>
      <trkpt lat="43.462853" lon="10.973984">
        <ele>338.3</ele>
        <time>2016-07-06T16:51:04Z</time>
        <sat>7</sat>
      </trkpt>
      <trkpt lat="43.462833" lon="10.974115">
        <ele>338.3</ele>
        <time>2016-07-06T16:51:05Z</time>
        <sat>7</sat>
      </trkpt>
      <trkpt lat="43.462821" lon="10.974248">
        <ele>339.0</ele>
        <time>2016-07-06T16:51:06Z</time>
        <sat>7</sat>
      </trkpt>
      <trkpt lat="43.462805" lon="10.974384">
        <ele>339.3</ele>
        <time>2016-07-06T16:51:07Z</time>
        <sat>7</sat>
      </trkpt>
      <trkpt lat="43.462791" lon="10.974513">
        <ele>339.5</ele>
        <time>2016-07-06T16:51:08Z</time>
        <sat>7</sat>
      </trkpt>
      <trkpt lat="43.462757" lon="10.974751">
        <ele>340.1</ele>
        <time>2016-07-06T16:51:10Z</time>
        <sat>6</sat>
      </trkpt>
      <trkpt lat="43.462738" lon="10.974874">
        <ele>340.5</ele>
        <time>2016-07-06T16:51:11Z</time>
        <sat>6</sat>
      </trkpt>
      <trkpt lat="43.462716" lon="10.975006">
        <ele>341.0</ele>
        <time>2016-07-06T16:51:12Z</time>
        <sat>7</sat>
      </trkpt>
      <trkpt lat="43.462678" lon="10.975237">
        <ele>342.0</ele>
        <time>2016-07-06T16:51:14Z</time>
        <sat>6</sat>
      </trkpt>
      <trkpt lat="43.462650" lon="10.975462">
        <ele>343.4</ele>
        <time>2016-07-06T16:51:16Z</time>
        <sat>6</sat>
      </trkpt>
      <trkpt lat="43.462633" lon="10.975617">
        <ele>344.6</ele>
        <time>2016-07-06T16:51:18Z</time>
        <sat>6</sat>
      </trkpt>
      <trkpt lat="43.462592" lon="10.975750">
        <ele>345.5</ele>
        <time>2016-07-06T16:51:21Z</time>
        <sat>9</sat>
      </trkpt>
      <trkpt lat="43.462479" lon="10.975815">
        <ele>346.9</ele>
        <time>2016-07-06T16:51:24Z</time>
        <sat>9</sat>
      </trkpt>
      <trkpt lat="43.462359" lon="10.975871">
        <ele>348.0</ele>
        <time>2016-07-06T16:51:26Z</time>
        <sat>9</sat>
      </trkpt>
      <trkpt lat="43.462243" lon="10.975906">
        <ele>348.2</ele>
        <time>2016-07-06T16:51:29Z</time>
        <sat>9</sat>
      </trkpt>
      <trkpt lat="43.461887" lon="10.976071">
        <ele>351.0</ele>
        <time>2016-07-06T16:52:53Z</time>
        <sat>8</sat>
      </trkpt>
      <trkpt lat="43.461186" lon="10.976201">
        <ele>352.7</ele>
        <time>2016-07-06T16:52:59Z</time>
        <sat>9</sat>
      </trkpt>
      <trkpt lat="43.461044" lon="10.976194">
        <ele>353.4</ele>
        <time>2016-07-06T16:53:00Z</time>
        <sat>9</sat>
      </trkpt>
      <trkpt lat="43.460921" lon="10.976188">
        <ele>353.4</ele>
        <time>2016-07-06T16:53:01Z</time>
        <sat>9</sat>
      </trkpt>
      <trkpt lat="43.460802" lon="10.976180">
        <ele>353.6</ele>
        <time>2016-07-06T16:53:02Z</time>
        <sat>9</sat>
      </trkpt>
      <trkpt lat="43.460685" lon="10.976183">
        <ele>354.2</ele>
        <time>2016-07-06T16:53:03Z</time>
        <sat>9</sat>
      </trkpt>
      <trkpt lat="43.460575" lon="10.976172">
        <ele>355.0</ele>
        <time>2016-07-06T16:53:04Z</time>
        <sat>8</sat>
      </trkpt>
      <trkpt lat="43.460470" lon="10.976135">
        <ele>355.8</ele>
        <time>2016-07-06T16:53:05Z</time>
        <sat>9</sat>
      </trkpt>
      <trkpt lat="43.460353" lon="10.976078">
        <ele>356.9</ele>
        <time>2016-07-06T16:53:06Z</time>
        <sat>8</sat>
      </trkpt>
      <trkpt lat="43.460237" lon="10.976000">
        <ele>357.5</ele>
        <time>2016-07-06T16:53:07Z</time>
        <sat>8</sat>
      </trkpt>
      <trkpt lat="43.460128" lon="10.975912">
        <ele>358.3</ele>
        <time>2016-07-06T16:53:08Z</time>
        <sat>9</sat>
      </trkpt>
      <trkpt lat="43.460034" lon="10.975820">
        <ele>358.5</ele>
        <time>2016-07-06T16:53:09Z</time>
        <sat>8</sat>
      </trkpt>
      <trkpt lat="43.459964" lon="10.975708">
        <ele>356.5</ele>
        <time>2016-07-06T16:53:10Z</time>
        <sat>9</sat>
      </trkpt>
      <trkpt lat="43.459891" lon="10.975583">
        <ele>355.5</ele>
        <time>2016-07-06T16:53:11Z</time>
        <sat>7</sat>
      </trkpt>
      <trkpt lat="43.459817" lon="10.975474">
        <ele>355.9</ele>
        <time>2016-07-06T16:53:12Z</time>
        <sat>7</sat>
      </trkpt>
      <trkpt lat="43.459732" lon="10.975372">
        <ele>356.9</ele>
        <time>2016-07-06T16:53:13Z</time>
        <sat>8</sat>
      </trkpt>
      <trkpt lat="43.459653" lon="10.975265">
        <ele>357.2</ele>
        <time>2016-07-06T16:53:14Z</time>
        <sat>8</sat>
      </trkpt>
      <trkpt lat="43.459571" lon="10.975153">
        <ele>357.4</ele>
        <time>2016-07-06T16:53:15Z</time>
        <sat>8</sat>
      </trkpt>
      <trkpt lat="43.459482" lon="10.975052">
        <ele>358.0</ele>
        <time>2016-07-06T16:53:16Z</time>
        <sat>9</sat>
      </trkpt>
      <trkpt lat="43.459387" lon="10.974971">
        <ele>359.8</ele>
        <time>2016-07-06T16:53:17Z</time>
        <sat>8</sat>
      </trkpt>
      <trkpt lat="43.459285" lon="10.974891">
        <ele>360.2</ele>
        <time>2016-07-06T16:53:18Z</time>
        <sat>8</sat>
      </trkpt>
      <trkpt lat="43.459175" lon="10.974796">
        <ele>360.2</ele>
        <time>2016-07-06T16:53:19Z</time>
        <sat>8</sat>
      </trkpt>
      <trkpt lat="43.459053" lon="10.974683">
        <ele>360.4</ele>
        <time>2016-07-06T16:53:20Z</time>
        <sat>8</sat>
      </trkpt>
      <trkpt lat="43.458930" lon="10.974566">
        <ele>361.8</ele>
        <time>2016-07-06T16:53:21Z</time>
        <sat>8</sat>
      </trkpt>
      <trkpt lat="43.458813" lon="10.974455">
        <ele>363.9</ele>
        <time>2016-07-06T16:53:22Z</time>
        <sat>9</sat>
      </trkpt>
      <trkpt lat="43.458712" lon="10.974362">
        <ele>365.2</ele>
        <time>2016-07-06T16:53:23Z</time>
        <sat>9</sat>
      </trkpt>
      <trkpt lat="43.458610" lon="10.974266">
        <ele>365.8</ele>
        <time>2016-07-06T16:53:24Z</time>
        <sat>8</sat>
      </trkpt>
      <trkpt lat="43.458505" lon="10.974165">
        <ele>366.0</ele>
        <time>2016-07-06T16:53:25Z</time>
        <sat>9</sat>
      </trkpt>
      <trkpt lat="43.458396" lon="10.974063">
        <ele>366.9</ele>
        <time>2016-07-06T16:53:26Z</time>
        <sat>9</sat>
      </trkpt>
      <trkpt lat="43.458299" lon="10.973973">
        <ele>367.2</ele>
        <time>2016-07-06T16:53:27Z</time>
        <sat>9</sat>
      </trkpt>
      <trkpt lat="43.458218" lon="10.973895">
        <ele>367.8</ele>
        <time>2016-07-06T16:53:28Z</time>
        <sat>9</sat>
      </trkpt>
      <trkpt lat="43.458096" lon="10.973793">
        <ele>368.6</ele>
        <time>2016-07-06T16:53:30Z</time>
        <sat>9</sat>
      </trkpt>
      <trkpt lat="43.458004" lon="10.973750">
        <ele>368.6</ele>
        <time>2016-07-06T16:53:32Z</time>
        <sat>9</sat>
      </trkpt>
      <trkpt lat="43.457883" lon="10.973755">
        <ele>368.5</ele>
        <time>2016-07-06T16:53:34Z</time>
        <sat>9</sat>
      </trkpt>
      <trkpt lat="43.457723" lon="10.973772">
        <ele>367.1</ele>
        <time>2016-07-06T16:53:36Z</time>
        <sat>9</sat>
      </trkpt>
      <trkpt lat="43.457552" lon="10.973782">
        <ele>365.2</ele>
        <time>2016-07-06T16:53:38Z</time>
        <sat>9</sat>
      </trkpt>
      <trkpt lat="43.457460" lon="10.973790">
        <ele>364.4</ele>
        <time>2016-07-06T16:53:39Z</time>
        <sat>9</sat>
      </trkpt>
      <trkpt lat="43.457367" lon="10.973798">
        <ele>363.7</ele>
        <time>2016-07-06T16:53:40Z</time>
        <sat>9</sat>
      </trkpt>
      <trkpt lat="43.457201" lon="10.973809">
        <ele>362.2</ele>
        <time>2016-07-06T16:53:42Z</time>
        <sat>9</sat>
      </trkpt>
      <trkpt lat="43.457088" lon="10.973821">
        <ele>361.4</ele>
        <time>2016-07-06T16:53:44Z</time>
        <sat>9</sat>
      </trkpt>
      <trkpt lat="43.457000" lon="10.973842">
        <ele>361.0</ele>
        <time>2016-07-06T16:53:46Z</time>
        <sat>9</sat>
      </trkpt>
      <trkpt lat="43.456902" lon="10.973869">
        <ele>360.6</ele>
        <time>2016-07-06T16:53:50Z</time>
        <sat>9</sat>
      </trkpt>
      <trkpt lat="43.457025" lon="10.973835">
        <ele>361.5</ele>
        <time>2016-07-06T16:54:01Z</time>
        <sat>9</sat>
      </trkpt>
      <trkpt lat="43.457212" lon="10.973809">
        <ele>362.9</ele>
        <time>2016-07-06T16:54:06Z</time>
        <sat>9</sat>
      </trkpt>
      <trkpt lat="43.457324" lon="10.973812">
        <ele>364.0</ele>
        <time>2016-07-06T16:54:08Z</time>
        <sat>9</sat>
      </trkpt>
      <trkpt lat="43.457463" lon="10.973799">
        <ele>365.1</ele>
        <time>2016-07-06T16:54:10Z</time>
        <sat>9</sat>
      </trkpt>
      <trkpt lat="43.457621" lon="10.973779">
        <ele>366.4</ele>
        <time>2016-07-06T16:54:12Z</time>
        <sat>8</sat>
      </trkpt>
      <trkpt lat="43.457761" lon="10.973772">
        <ele>367.9</ele>
        <time>2016-07-06T16:54:14Z</time>
        <sat>7</sat>
      </trkpt>
      <trkpt lat="43.457874" lon="10.973764">
        <ele>369.0</ele>
        <time>2016-07-06T16:54:16Z</time>
        <sat>9</sat>
      </trkpt>
      <trkpt lat="43.457970" lon="10.973719">
        <ele>369.4</ele>
        <time>2016-07-06T16:54:19Z</time>
        <sat>9</sat>
      </trkpt>
      <trkpt lat="43.457908" lon="10.973568">
        <ele>369.0</ele>
        <time>2016-07-06T16:54:24Z</time>
        <sat>9</sat>
      </trkpt>
      <trkpt lat="43.457845" lon="10.973469">
        <ele>369.1</ele>
        <time>2016-07-06T16:54:26Z</time>
        <sat>9</sat>
      </trkpt>
      <trkpt lat="43.457779" lon="10.973367">
        <ele>369.9</ele>
        <time>2016-07-06T16:54:28Z</time>
        <sat>9</sat>
      </trkpt>
      <trkpt lat="43.457718" lon="10.973246">
        <ele>370.7</ele>
        <time>2016-07-06T16:54:30Z</time>
        <sat>9</sat>
      </trkpt>
      <trkpt lat="43.457656" lon="10.973139">
        <ele>371.9</ele>
        <time>2016-07-06T16:54:32Z</time>
        <sat>9</sat>
      </trkpt>
      <trkpt lat="43.457566" lon="10.973010">
        <ele>373.2</ele>
        <time>2016-07-06T16:54:35Z</time>
        <sat>9</sat>
      </trkpt>
      <trkpt lat="43.457475" lon="10.972890">
        <ele>373.0</ele>
        <time>2016-07-06T16:54:37Z</time>
        <sat>9</sat>
      </trkpt>
      <trkpt lat="43.457350" lon="10.972767">
        <ele>373.3</ele>
        <time>2016-07-06T16:54:39Z</time>
        <sat>9</sat>
      </trkpt>
      <trkpt lat="43.457205" lon="10.972624">
        <ele>374.1</ele>
        <time>2016-07-06T16:54:41Z</time>
        <sat>9</sat>
      </trkpt>
      <trkpt lat="43.457127" lon="10.972554">
        <ele>373.4</ele>
        <time>2016-07-06T16:54:42Z</time>
        <sat>9</sat>
      </trkpt>
      <trkpt lat="43.456996" lon="10.972419">
        <ele>371.7</ele>
        <time>2016-07-06T16:54:44Z</time>
        <sat>8</sat>
      </trkpt>
      <trkpt lat="43.456914" lon="10.972236">
        <ele>370.4</ele>
        <time>2016-07-06T16:54:46Z</time>
        <sat>8</sat>
      </trkpt>
      <trkpt lat="43.456831" lon="10.972031">
        <ele>370.2</ele>
        <time>2016-07-06T16:54:48Z</time>
        <sat>9</sat>
      </trkpt>
      <trkpt lat="43.456756" lon="10.971932">
        <ele>373.3</ele>
        <time>2016-07-06T16:54:49Z</time>
        <sat>9</sat>
      </trkpt>
      <trkpt lat="43.456679" lon="10.971835">
        <ele>374.1</ele>
        <time>2016-07-06T16:54:50Z</time>
        <sat>8</sat>
      </trkpt>
      <trkpt lat="43.456601" lon="10.971744">
        <ele>375.0</ele>
        <time>2016-07-06T16:54:51Z</time>
        <sat>9</sat>
      </trkpt>
      <trkpt lat="43.456532" lon="10.971655">
        <ele>376.0</ele>
        <time>2016-07-06T16:54:52Z</time>
        <sat>9</sat>
      </trkpt>
      <trkpt lat="43.456469" lon="10.971565">
        <ele>376.3</ele>
        <time>2016-07-06T16:54:53Z</time>
        <sat>9</sat>
      </trkpt>
      <trkpt lat="43.456408" lon="10.971473">
        <ele>376.9</ele>
        <time>2016-07-06T16:54:54Z</time>
        <sat>9</sat>
      </trkpt>
      <trkpt lat="43.456322" lon="10.971289">
        <ele>378.1</ele>
        <time>2016-07-06T16:54:56Z</time>
        <sat>9</sat>
      </trkpt>
      <trkpt lat="43.456223" lon="10.971102">
        <ele>378.6</ele>
        <time>2016-07-06T16:54:58Z</time>
        <sat>9</sat>
      </trkpt>
      <trkpt lat="43.456162" lon="10.971007">
        <ele>378.8</ele>
        <time>2016-07-06T16:54:59Z</time>
        <sat>8</sat>
      </trkpt>
      <trkpt lat="43.456103" lon="10.970912">
        <ele>379.1</ele>
        <time>2016-07-06T16:55:00Z</time>
        <sat>9</sat>
      </trkpt>
      <trkpt lat="43.456036" lon="10.970698">
        <ele>378.8</ele>
        <time>2016-07-06T16:55:02Z</time>
        <sat>9</sat>
      </trkpt>
      <trkpt lat="43.455997" lon="10.970504">
        <ele>377.1</ele>
        <time>2016-07-06T16:55:04Z</time>
        <sat>9</sat>
      </trkpt>
      <trkpt lat="43.455808" lon="10.970205">
        <ele>376.7</ele>
        <time>2016-07-06T16:55:07Z</time>
        <sat>9</sat>
      </trkpt>
      <trkpt lat="43.455750" lon="10.970105">
        <ele>376.6</ele>
        <time>2016-07-06T16:55:08Z</time>
        <sat>8</sat>
      </trkpt>
      <trkpt lat="43.455665" lon="10.969898">
        <ele>378.2</ele>
        <time>2016-07-06T16:55:10Z</time>
        <sat>8</sat>
      </trkpt>
      <trkpt lat="43.455617" lon="10.969770">
        <ele>378.5</ele>
        <time>2016-07-06T16:55:11Z</time>
        <sat>9</sat>
      </trkpt>
      <trkpt lat="43.455562" lon="10.969640">
        <ele>378.7</ele>
        <time>2016-07-06T16:55:12Z</time>
        <sat>9</sat>
      </trkpt>
      <trkpt lat="43.455519" lon="10.969513">
        <ele>378.8</ele>
        <time>2016-07-06T16:55:13Z</time>
        <sat>9</sat>
      </trkpt>
      <trkpt lat="43.455476" lon="10.969293">
        <ele>378.8</ele>
        <time>2016-07-06T16:55:15Z</time>
        <sat>6</sat>
      </trkpt>
      <trkpt lat="43.455457" lon="10.969086">
        <ele>379.2</ele>
        <time>2016-07-06T16:55:17Z</time>
        <sat>9</sat>
      </trkpt>
      <trkpt lat="43.455405" lon="10.968884">
        <ele>380.5</ele>
        <time>2016-07-06T16:55:19Z</time>
        <sat>8</sat>
      </trkpt>
      <trkpt lat="43.455372" lon="10.968715">
        <ele>380.9</ele>
        <time>2016-07-06T16:55:21Z</time>
        <sat>7</sat>
      </trkpt>
      <trkpt lat="43.455385" lon="10.968579">
        <ele>381.4</ele>
        <time>2016-07-06T16:55:23Z</time>
        <sat>9</sat>
      </trkpt>
      <trkpt lat="43.455401" lon="10.968447">
        <ele>380.1</ele>
        <time>2016-07-06T16:55:27Z</time>
        <sat>9</sat>
      </trkpt>
      <trkpt lat="43.455357" lon="10.968313">
        <ele>382.9</ele>
        <time>2016-07-06T16:55:41Z</time>
        <sat>9</sat>
      </trkpt>
      <trkpt lat="43.455309" lon="10.968196">
        <ele>383.5</ele>
        <time>2016-07-06T16:55:44Z</time>
        <sat>9</sat>
      </trkpt>
      <trkpt lat="43.455259" lon="10.968059">
        <ele>384.7</ele>
        <time>2016-07-06T16:55:46Z</time>
        <sat>9</sat>
      </trkpt>
      <trkpt lat="43.455200" lon="10.967885">
        <ele>385.8</ele>
        <time>2016-07-06T16:55:48Z</time>
        <sat>9</sat>
      </trkpt>
      <trkpt lat="43.455141" lon="10.967739">
        <ele>386.6</ele>
        <time>2016-07-06T16:55:50Z</time>
        <sat>9</sat>
      </trkpt>
      <trkpt lat="43.455055" lon="10.967603">
        <ele>387.6</ele>
        <time>2016-07-06T16:55:52Z</time>
        <sat>8</sat>
      </trkpt>
      <trkpt lat="43.455056" lon="10.967467">
        <ele>387.9</ele>
        <time>2016-07-06T16:55:56Z</time>
        <sat>9</sat>
      </trkpt>
      <trkpt lat="43.455149" lon="10.967410">
        <ele>388.7</ele>
        <time>2016-07-06T16:55:59Z</time>
        <sat>9</sat>
      </trkpt>
      <trkpt lat="43.455226" lon="10.967337">
        <ele>387.2</ele>
        <time>2016-07-06T16:56:01Z</time>
        <sat>9</sat>
      </trkpt>
      <trkpt lat="43.455307" lon="10.967239">
        <ele>384.1</ele>
        <time>2016-07-06T16:56:03Z</time>
        <sat>8</sat>
      </trkpt>
      <trkpt lat="43.455396" lon="10.967161">
        <ele>383.1</ele>
        <time>2016-07-06T16:56:05Z</time>
        <sat>9</sat>
      </trkpt>
      <trkpt lat="43.455498" lon="10.967098">
        <ele>383.6</ele>
        <time>2016-07-06T16:56:07Z</time>
        <sat>9</sat>
      </trkpt>
      <trkpt lat="43.455782" lon="10.966970">
        <ele>381.8</ele>
        <time>2016-07-06T16:56:11Z</time>
        <sat>8</sat>
      </trkpt>
      <trkpt lat="43.455879" lon="10.966932">
        <ele>380.3</ele>
        <time>2016-07-06T16:56:12Z</time>
        <sat>8</sat>
      </trkpt>
      <trkpt lat="43.455982" lon="10.966923">
        <ele>379.4</ele>
        <time>2016-07-06T16:56:13Z</time>
        <sat>8</sat>
      </trkpt>
      <trkpt lat="43.456168" lon="10.966962">
        <ele>380.0</ele>
        <time>2016-07-06T16:56:15Z</time>
        <sat>9</sat>
      </trkpt>
      <trkpt lat="43.456346" lon="10.966981">
        <ele>378.0</ele>
        <time>2016-07-06T16:56:17Z</time>
        <sat>9</sat>
      </trkpt>
      <trkpt lat="43.456439" lon="10.966942">
        <ele>375.4</ele>
        <time>2016-07-06T16:56:18Z</time>
        <sat>9</sat>
      </trkpt>
      <trkpt lat="43.456549" lon="10.966870">
        <ele>370.4</ele>
        <time>2016-07-06T16:56:19Z</time>
        <sat>9</sat>
      </trkpt>
      <trkpt lat="43.456655" lon="10.966805">
        <ele>372.0</ele>
        <time>2016-07-06T16:56:20Z</time>
        <sat>9</sat>
      </trkpt>
      <trkpt lat="43.456757" lon="10.966735">
        <ele>371.5</ele>
        <time>2016-07-06T16:56:21Z</time>
        <sat>9</sat>
      </trkpt>
      <trkpt lat="43.456849" lon="10.966673">
        <ele>370.5</ele>
        <time>2016-07-06T16:56:22Z</time>
        <sat>8</sat>
      </trkpt>
      <trkpt lat="43.456984" lon="10.966584">
        <ele>369.2</ele>
        <time>2016-07-06T16:56:24Z</time>
        <sat>8</sat>
      </trkpt>
      <trkpt lat="43.457086" lon="10.966505">
        <ele>368.3</ele>
        <time>2016-07-06T16:56:26Z</time>
        <sat>8</sat>
      </trkpt>
      <trkpt lat="43.457156" lon="10.966420">
        <ele>366.7</ele>
        <time>2016-07-06T16:56:28Z</time>
        <sat>9</sat>
      </trkpt>
      <trkpt lat="43.457211" lon="10.966300">
        <ele>365.7</ele>
        <time>2016-07-06T16:56:43Z</time>
        <sat>8</sat>
      </trkpt>
      <trkpt lat="43.457290" lon="10.966139">
        <ele>365.1</ele>
        <time>2016-07-06T16:56:46Z</time>
        <sat>9</sat>
      </trkpt>
      <trkpt lat="43.457363" lon="10.965967">
        <ele>365.0</ele>
        <time>2016-07-06T16:56:48Z</time>
        <sat>9</sat>
      </trkpt>
      <trkpt lat="43.457453" lon="10.965788">
        <ele>365.0</ele>
        <time>2016-07-06T16:56:50Z</time>
        <sat>9</sat>
      </trkpt>
      <trkpt lat="43.457573" lon="10.965629">
        <ele>366.0</ele>
        <time>2016-07-06T16:56:52Z</time>
        <sat>9</sat>
      </trkpt>
      <trkpt lat="43.457722" lon="10.965490">
        <ele>367.8</ele>
        <time>2016-07-06T16:56:54Z</time>
        <sat>9</sat>
      </trkpt>
      <trkpt lat="43.457884" lon="10.965371">
        <ele>370.8</ele>
        <time>2016-07-06T16:56:56Z</time>
        <sat>9</sat>
      </trkpt>
      <trkpt lat="43.457966" lon="10.965310">
        <ele>372.9</ele>
        <time>2016-07-06T16:56:57Z</time>
        <sat>9</sat>
      </trkpt>
      <trkpt lat="43.458127" lon="10.965213">
        <ele>378.5</ele>
        <time>2016-07-06T16:56:59Z</time>
        <sat>8</sat>
      </trkpt>
      <trkpt lat="43.458262" lon="10.965129">
        <ele>382.0</ele>
        <time>2016-07-06T16:57:01Z</time>
        <sat>9</sat>
      </trkpt>
      <trkpt lat="43.458328" lon="10.964976">
        <ele>384.8</ele>
        <time>2016-07-06T16:57:03Z</time>
        <sat>9</sat>
      </trkpt>
      <trkpt lat="43.458344" lon="10.964719">
        <ele>386.5</ele>
        <time>2016-07-06T16:57:05Z</time>
        <sat>7</sat>
      </trkpt>
      <trkpt lat="43.458358" lon="10.964569">
        <ele>386.7</ele>
        <time>2016-07-06T16:57:06Z</time>
        <sat>8</sat>
      </trkpt>
      <trkpt lat="43.458375" lon="10.964406">
        <ele>387.0</ele>
        <time>2016-07-06T16:57:07Z</time>
        <sat>8</sat>
      </trkpt>
      <trkpt lat="43.458401" lon="10.964233">
        <ele>387.3</ele>
        <time>2016-07-06T16:57:08Z</time>
        <sat>8</sat>
      </trkpt>
      <trkpt lat="43.458428" lon="10.964059">
        <ele>387.4</ele>
        <time>2016-07-06T16:57:09Z</time>
        <sat>7</sat>
      </trkpt>
      <trkpt lat="43.458465" lon="10.963754">
        <ele>388.8</ele>
        <time>2016-07-06T16:57:11Z</time>
        <sat>8</sat>
      </trkpt>
      <trkpt lat="43.458461" lon="10.963613">
        <ele>390.1</ele>
        <time>2016-07-06T16:57:12Z</time>
        <sat>8</sat>
      </trkpt>
      <trkpt lat="43.458444" lon="10.963472">
        <ele>391.7</ele>
        <time>2016-07-06T16:57:13Z</time>
        <sat>8</sat>
      </trkpt>
      <trkpt lat="43.458422" lon="10.963325">
        <ele>393.3</ele>
        <time>2016-07-06T16:57:14Z</time>
        <sat>8</sat>
      </trkpt>
      <trkpt lat="43.458397" lon="10.963185">
        <ele>394.8</ele>
        <time>2016-07-06T16:57:15Z</time>
        <sat>8</sat>
      </trkpt>
      <trkpt lat="43.458374" lon="10.963047">
        <ele>396.2</ele>
        <time>2016-07-06T16:57:16Z</time>
        <sat>8</sat>
      </trkpt>
      <trkpt lat="43.458351" lon="10.962910">
        <ele>399.0</ele>
        <time>2016-07-06T16:57:17Z</time>
        <sat>8</sat>
      </trkpt>
      <trkpt lat="43.458325" lon="10.962772">
        <ele>400.7</ele>
        <time>2016-07-06T16:57:18Z</time>
        <sat>8</sat>
      </trkpt>
      <trkpt lat="43.458303" lon="10.962648">
        <ele>402.0</ele>
        <time>2016-07-06T16:57:19Z</time>
        <sat>8</sat>
      </trkpt>
      <trkpt lat="43.458305" lon="10.962472">
        <ele>403.6</ele>
        <time>2016-07-06T16:57:21Z</time>
        <sat>10</sat>
      </trkpt>
      <trkpt lat="43.458390" lon="10.962317">
        <ele>404.6</ele>
        <time>2016-07-06T16:57:23Z</time>
        <sat>9</sat>
      </trkpt>
      <trkpt lat="43.458525" lon="10.962156">
        <ele>405.6</ele>
        <time>2016-07-06T16:57:25Z</time>
        <sat>10</sat>
      </trkpt>
      <trkpt lat="43.458638" lon="10.961960">
        <ele>406.5</ele>
        <time>2016-07-06T16:57:27Z</time>
        <sat>10</sat>
      </trkpt>
      <trkpt lat="43.458679" lon="10.961833">
        <ele>406.7</ele>
        <time>2016-07-06T16:57:28Z</time>
        <sat>10</sat>
      </trkpt>
      <trkpt lat="43.458718" lon="10.961689">
        <ele>406.6</ele>
        <time>2016-07-06T16:57:29Z</time>
        <sat>10</sat>
      </trkpt>
      <trkpt lat="43.458753" lon="10.961537">
        <ele>406.7</ele>
        <time>2016-07-06T16:57:30Z</time>
        <sat>10</sat>
      </trkpt>
      <trkpt lat="43.458783" lon="10.961393">
        <ele>407.1</ele>
        <time>2016-07-06T16:57:31Z</time>
        <sat>10</sat>
      </trkpt>
      <trkpt lat="43.458806" lon="10.961272">
        <ele>407.6</ele>
        <time>2016-07-06T16:57:32Z</time>
        <sat>10</sat>
      </trkpt>
      <trkpt lat="43.458840" lon="10.961076">
        <ele>408.7</ele>
        <time>2016-07-06T16:57:34Z</time>
        <sat>10</sat>
      </trkpt>
      <trkpt lat="43.458873" lon="10.960916">
        <ele>411.2</ele>
        <time>2016-07-06T16:57:36Z</time>
        <sat>9</sat>
      </trkpt>
      <trkpt lat="43.458925" lon="10.960733">
        <ele>413.6</ele>
        <time>2016-07-06T16:57:38Z</time>
        <sat>10</sat>
      </trkpt>
      <trkpt lat="43.458962" lon="10.960511">
        <ele>415.4</ele>
        <time>2016-07-06T16:57:40Z</time>
        <sat>10</sat>
      </trkpt>
      <trkpt lat="43.459000" lon="10.960281">
        <ele>416.8</ele>
        <time>2016-07-06T16:57:42Z</time>
        <sat>9</sat>
      </trkpt>
      <trkpt lat="43.459075" lon="10.960101">
        <ele>417.8</ele>
        <time>2016-07-06T16:57:44Z</time>
        <sat>10</sat>
      </trkpt>
      <trkpt lat="43.459204" lon="10.959966">
        <ele>417.4</ele>
        <time>2016-07-06T16:57:46Z</time>
        <sat>9</sat>
      </trkpt>
      <trkpt lat="43.459323" lon="10.959818">
        <ele>418.5</ele>
        <time>2016-07-06T16:57:48Z</time>
        <sat>9</sat>
      </trkpt>
      <trkpt lat="43.459386" lon="10.959630">
        <ele>419.1</ele>
        <time>2016-07-06T16:57:50Z</time>
        <sat>9</sat>
      </trkpt>
      <trkpt lat="43.459436" lon="10.959471">
        <ele>419.1</ele>
        <time>2016-07-06T16:57:52Z</time>
        <sat>9</sat>
      </trkpt>
      <trkpt lat="43.459514" lon="10.959313">
        <ele>417.9</ele>
        <time>2016-07-06T16:57:54Z</time>
        <sat>8</sat>
      </trkpt>
      <trkpt lat="43.459570" lon="10.959198">
        <ele>416.8</ele>
        <time>2016-07-06T16:57:56Z</time>
        <sat>8</sat>
      </trkpt>
      <trkpt lat="43.459642" lon="10.959111">
        <ele>417.6</ele>
        <time>2016-07-06T16:58:00Z</time>
        <sat>8</sat>
      </trkpt>
      <trkpt lat="43.459725" lon="10.959033">
        <ele>419.5</ele>
        <time>2016-07-06T16:58:03Z</time>
        <sat>9</sat>
      </trkpt>
      <trkpt lat="43.459795" lon="10.958955">
        <ele>419.1</ele>
        <time>2016-07-06T16:58:05Z</time>
        <sat>9</sat>
      </trkpt>
      <trkpt lat="43.459830" lon="10.958801">
        <ele>420.6</ele>
        <time>2016-07-06T16:58:08Z</time>
        <sat>10</sat>
      </trkpt>
      <trkpt lat="43.459816" lon="10.958651">
        <ele>424.4</ele>
        <time>2016-07-06T16:58:12Z</time>
        <sat>10</sat>
      </trkpt>
      <trkpt lat="43.459601" lon="10.958461">
        <ele>429.9</ele>
        <time>2016-07-06T16:58:16Z</time>
        <sat>9</sat>
      </trkpt>
      <trkpt lat="43.459585" lon="10.958298">
        <ele>433.4</ele>
        <time>2016-07-06T16:58:19Z</time>
        <sat>10</sat>
      </trkpt>
      <trkpt lat="43.459678" lon="10.958216">
        <ele>433.8</ele>
        <time>2016-07-06T16:58:22Z</time>
        <sat>10</sat>
      </trkpt>
      <trkpt lat="43.459782" lon="10.958137">
        <ele>433.1</ele>
        <time>2016-07-06T16:58:25Z</time>
        <sat>10</sat>
      </trkpt>
      <trkpt lat="43.459855" lon="10.958041">
        <ele>431.5</ele>
        <time>2016-07-06T16:58:27Z</time>
        <sat>10</sat>
      </trkpt>
      <trkpt lat="43.459881" lon="10.957873">
        <ele>429.2</ele>
        <time>2016-07-06T16:58:30Z</time>
        <sat>10</sat>
      </trkpt>
      <trkpt lat="43.459786" lon="10.957747">
        <ele>429.5</ele>
        <time>2016-07-06T16:58:33Z</time>
        <sat>9</sat>
      </trkpt>
      <trkpt lat="43.459691" lon="10.957679">
        <ele>431.2</ele>
        <time>2016-07-06T16:58:35Z</time>
        <sat>9</sat>
      </trkpt>
      <trkpt lat="43.459573" lon="10.957585">
        <ele>431.5</ele>
        <time>2016-07-06T16:58:37Z</time>
        <sat>8</sat>
      </trkpt>
      <trkpt lat="43.459459" lon="10.957463">
        <ele>431.9</ele>
        <time>2016-07-06T16:58:39Z</time>
        <sat>10</sat>
      </trkpt>
      <trkpt lat="43.459335" lon="10.957313">
        <ele>432.4</ele>
        <time>2016-07-06T16:58:41Z</time>
        <sat>10</sat>
      </trkpt>
      <trkpt lat="43.459201" lon="10.957145">
        <ele>431.7</ele>
        <time>2016-07-06T16:58:43Z</time>
        <sat>10</sat>
      </trkpt>
      <trkpt lat="43.459126" lon="10.957057">
        <ele>431.7</ele>
        <time>2016-07-06T16:58:44Z</time>
        <sat>9</sat>
      </trkpt>
      <trkpt lat="43.459051" lon="10.956971">
        <ele>431.4</ele>
        <time>2016-07-06T16:58:45Z</time>
        <sat>10</sat>
      </trkpt>
      <trkpt lat="43.458981" lon="10.956887">
        <ele>431.2</ele>
        <time>2016-07-06T16:58:46Z</time>
        <sat>10</sat>
      </trkpt>
      <trkpt lat="43.458849" lon="10.956727">
        <ele>429.8</ele>
        <time>2016-07-06T16:58:48Z</time>
        <sat>10</sat>
      </trkpt>
      <trkpt lat="43.458779" lon="10.956647">
        <ele>429.8</ele>
        <time>2016-07-06T16:58:49Z</time>
        <sat>10</sat>
      </trkpt>
      <trkpt lat="43.458698" lon="10.956579">
        <ele>430.0</ele>
        <time>2016-07-06T16:58:50Z</time>
        <sat>10</sat>
      </trkpt>
      <trkpt lat="43.458604" lon="10.956537">
        <ele>430.8</ele>
        <time>2016-07-06T16:58:51Z</time>
        <sat>10</sat>
      </trkpt>
      <trkpt lat="43.458515" lon="10.956513">
        <ele>431.6</ele>
        <time>2016-07-06T16:58:52Z</time>
        <sat>9</sat>
      </trkpt>
      <trkpt lat="43.458376" lon="10.956495">
        <ele>433.7</ele>
        <time>2016-07-06T16:58:54Z</time>
        <sat>8</sat>
      </trkpt>
      <trkpt lat="43.458231" lon="10.956509">
        <ele>436.6</ele>
        <time>2016-07-06T16:58:56Z</time>
        <sat>9</sat>
      </trkpt>
      <trkpt lat="43.458083" lon="10.956539">
        <ele>440.3</ele>
        <time>2016-07-06T16:58:58Z</time>
        <sat>8</sat>
      </trkpt>
      <trkpt lat="43.457947" lon="10.956527">
        <ele>445.3</ele>
        <time>2016-07-06T16:59:00Z</time>
        <sat>10</sat>
      </trkpt>
      <trkpt lat="43.457821" lon="10.956444">
        <ele>447.2</ele>
        <time>2016-07-06T16:59:02Z</time>
        <sat>9</sat>
      </trkpt>
      <trkpt lat="43.457685" lon="10.956395">
        <ele>449.2</ele>
        <time>2016-07-06T16:59:04Z</time>
        <sat>9</sat>
      </trkpt>
      <trkpt lat="43.457543" lon="10.956321">
        <ele>450.7</ele>
        <time>2016-07-06T16:59:06Z</time>
        <sat>8</sat>
      </trkpt>
      <trkpt lat="43.457383" lon="10.956204">
        <ele>451.6</ele>
        <time>2016-07-06T16:59:08Z</time>
        <sat>9</sat>
      </trkpt>
      <trkpt lat="43.457235" lon="10.956123">
        <ele>452.4</ele>
        <time>2016-07-06T16:59:10Z</time>
        <sat>7</sat>
      </trkpt>
      <trkpt lat="43.457144" lon="10.956054">
        <ele>453.1</ele>
        <time>2016-07-06T16:59:12Z</time>
        <sat>7</sat>
      </trkpt>
      <trkpt lat="43.457060" lon="10.955890">
        <ele>454.7</ele>
        <time>2016-07-06T16:59:15Z</time>
        <sat>8</sat>
      </trkpt>
      <trkpt lat="43.456923" lon="10.955644">
        <ele>456.3</ele>
        <time>2016-07-06T16:59:20Z</time>
        <sat>8</sat>
      </trkpt>
      <trkpt lat="43.456894" lon="10.955498">
        <ele>456.1</ele>
        <time>2016-07-06T16:59:22Z</time>
        <sat>9</sat>
      </trkpt>
      <trkpt lat="43.456833" lon="10.955312">
        <ele>456.1</ele>
        <time>2016-07-06T16:59:24Z</time>
        <sat>9</sat>
      </trkpt>
      <trkpt lat="43.456752" lon="10.955100">
        <ele>455.9</ele>
        <time>2016-07-06T16:59:26Z</time>
        <sat>9</sat>
      </trkpt>
      <trkpt lat="43.456678" lon="10.954997">
        <ele>455.5</ele>
        <time>2016-07-06T16:59:27Z</time>
        <sat>9</sat>
      </trkpt>
      <trkpt lat="43.456571" lon="10.954847">
        <ele>455.2</ele>
        <time>2016-07-06T16:59:29Z</time>
        <sat>9</sat>
      </trkpt>
      <trkpt lat="43.456440" lon="10.954712">
        <ele>454.7</ele>
        <time>2016-07-06T16:59:31Z</time>
        <sat>9</sat>
      </trkpt>
      <trkpt lat="43.456341" lon="10.954619">
        <ele>454.0</ele>
        <time>2016-07-06T16:59:33Z</time>
        <sat>9</sat>
      </trkpt>
      <trkpt lat="43.456265" lon="10.954506">
        <ele>453.4</ele>
        <time>2016-07-06T16:59:35Z</time>
        <sat>9</sat>
      </trkpt>
      <trkpt lat="43.456164" lon="10.954358">
        <ele>452.6</ele>
        <time>2016-07-06T16:59:37Z</time>
        <sat>9</sat>
      </trkpt>
      <trkpt lat="43.456220" lon="10.954190">
        <ele>451.4</ele>
        <time>2016-07-06T16:59:40Z</time>
        <sat>9</sat>
      </trkpt>
      <trkpt lat="43.456327" lon="10.954003">
        <ele>447.9</ele>
        <time>2016-07-06T16:59:43Z</time>
        <sat>9</sat>
      </trkpt>
      <trkpt lat="43.456461" lon="10.953749">
        <ele>448.9</ele>
        <time>2016-07-06T16:59:45Z</time>
        <sat>8</sat>
      </trkpt>
      <trkpt lat="43.456506" lon="10.953604">
        <ele>448.7</ele>
        <time>2016-07-06T16:59:46Z</time>
        <sat>9</sat>
      </trkpt>
      <trkpt lat="43.456504" lon="10.953472">
        <ele>448.2</ele>
        <time>2016-07-06T16:59:47Z</time>
        <sat>9</sat>
      </trkpt>
      <trkpt lat="43.456417" lon="10.953266">
        <ele>448.2</ele>
        <time>2016-07-06T16:59:49Z</time>
        <sat>8</sat>
      </trkpt>
      <trkpt lat="43.456326" lon="10.953028">
        <ele>446.0</ele>
        <time>2016-07-06T16:59:51Z</time>
        <sat>9</sat>
      </trkpt>
      <trkpt lat="43.456297" lon="10.952903">
        <ele>445.6</ele>
        <time>2016-07-06T16:59:52Z</time>
        <sat>9</sat>
      </trkpt>
      <trkpt lat="43.456257" lon="10.952775">
        <ele>446.0</ele>
        <time>2016-07-06T16:59:53Z</time>
        <sat>9</sat>
      </trkpt>
      <trkpt lat="43.456199" lon="10.952609">
        <ele>447.4</ele>
        <time>2016-07-06T16:59:54Z</time>
        <sat>9</sat>
      </trkpt>
      <trkpt lat="43.456131" lon="10.952439">
        <ele>446.8</ele>
        <time>2016-07-06T16:59:55Z</time>
        <sat>8</sat>
      </trkpt>
      <trkpt lat="43.456077" lon="10.952301">
        <ele>447.1</ele>
        <time>2016-07-06T16:59:56Z</time>
        <sat>9</sat>
      </trkpt>
      <trkpt lat="43.456046" lon="10.952167">
        <ele>446.9</ele>
        <time>2016-07-06T16:59:57Z</time>
        <sat>9</sat>
      </trkpt>
      <trkpt lat="43.456072" lon="10.952037">
        <ele>448.5</ele>
        <time>2016-07-06T16:59:58Z</time>
        <sat>9</sat>
      </trkpt>
      <trkpt lat="43.456066" lon="10.951818">
        <ele>450.2</ele>
        <time>2016-07-06T17:00:00Z</time>
        <sat>9</sat>
      </trkpt>
      <trkpt lat="43.455978" lon="10.951644">
        <ele>453.8</ele>
        <time>2016-07-06T17:00:02Z</time>
        <sat>9</sat>
      </trkpt>
      <trkpt lat="43.455910" lon="10.951551">
        <ele>455.3</ele>
        <time>2016-07-06T17:00:03Z</time>
        <sat>9</sat>
      </trkpt>
      <trkpt lat="43.455828" lon="10.951359">
        <ele>456.6</ele>
        <time>2016-07-06T17:00:05Z</time>
        <sat>9</sat>
      </trkpt>
      <trkpt lat="43.455765" lon="10.951210">
        <ele>459.9</ele>
        <time>2016-07-06T17:00:07Z</time>
        <sat>9</sat>
      </trkpt>
      <trkpt lat="43.455694" lon="10.951037">
        <ele>461.6</ele>
        <time>2016-07-06T17:00:09Z</time>
        <sat>9</sat>
      </trkpt>
      <trkpt lat="43.455699" lon="10.950891">
        <ele>462.2</ele>
        <time>2016-07-06T17:00:11Z</time>
        <sat>8</sat>
      </trkpt>
      <trkpt lat="43.455775" lon="10.950739">
        <ele>466.0</ele>
        <time>2016-07-06T17:00:13Z</time>
        <sat>9</sat>
      </trkpt>
      <trkpt lat="43.455919" lon="10.950594">
        <ele>472.4</ele>
        <time>2016-07-06T17:00:15Z</time>
        <sat>9</sat>
      </trkpt>
      <trkpt lat="43.456038" lon="10.950499">
        <ele>479.3</ele>
        <time>2016-07-06T17:00:17Z</time>
        <sat>9</sat>
      </trkpt>
      <trkpt lat="43.456198" lon="10.950280">
        <ele>485.2</ele>
        <time>2016-07-06T17:00:40Z</time>
        <sat>9</sat>
      </trkpt>
      <trkpt lat="43.456232" lon="10.950141">
        <ele>484.9</ele>
        <time>2016-07-06T17:00:44Z</time>
        <sat>9</sat>
      </trkpt>
      <trkpt lat="43.456289" lon="10.950006">
        <ele>484.4</ele>
        <time>2016-07-06T17:00:48Z</time>
        <sat>9</sat>
      </trkpt>
      <trkpt lat="43.456358" lon="10.949906">
        <ele>484.0</ele>
        <time>2016-07-06T17:00:52Z</time>
        <sat>9</sat>
      </trkpt>
      <trkpt lat="43.456387" lon="10.949763">
        <ele>483.0</ele>
        <time>2016-07-06T17:00:55Z</time>
        <sat>9</sat>
      </trkpt>
      <trkpt lat="43.456389" lon="10.949628">
        <ele>482.8</ele>
        <time>2016-07-06T17:01:05Z</time>
        <sat>10</sat>
      </trkpt>
      <trkpt lat="43.456383" lon="10.949781">
        <ele>484.8</ele>
        <time>2016-07-06T17:01:15Z</time>
        <sat>9</sat>
      </trkpt>
      <trkpt lat="43.456361" lon="10.949914">
        <ele>486.3</ele>
        <time>2016-07-06T17:01:17Z</time>
        <sat>9</sat>
      </trkpt>
      <trkpt lat="43.456280" lon="10.950039">
        <ele>488.0</ele>
        <time>2016-07-06T17:01:19Z</time>
        <sat>10</sat>
      </trkpt>
      <trkpt lat="43.456128" lon="10.950243">
        <ele>489.4</ele>
        <time>2016-07-06T17:01:23Z</time>
        <sat>9</sat>
      </trkpt>
      <trkpt lat="43.456013" lon="10.950300">
        <ele>489.5</ele>
        <time>2016-07-06T17:01:25Z</time>
        <sat>8</sat>
      </trkpt>
      <trkpt lat="43.455924" lon="10.950328">
        <ele>489.7</ele>
        <time>2016-07-06T17:01:27Z</time>
        <sat>9</sat>
      </trkpt>
      <trkpt lat="43.455810" lon="10.950353">
        <ele>489.5</ele>
        <time>2016-07-06T17:01:30Z</time>
        <sat>9</sat>
      </trkpt>
      <trkpt lat="43.455687" lon="10.950330">
        <ele>489.3</ele>
        <time>2016-07-06T17:01:32Z</time>
        <sat>9</sat>
      </trkpt>
      <trkpt lat="43.455596" lon="10.950289">
        <ele>489.7</ele>
        <time>2016-07-06T17:01:33Z</time>
        <sat>9</sat>
      </trkpt>
      <trkpt lat="43.455478" lon="10.950138">
        <ele>489.3</ele>
        <time>2016-07-06T17:01:35Z</time>
        <sat>9</sat>
      </trkpt>
      <trkpt lat="43.455362" lon="10.949970">
        <ele>489.4</ele>
        <time>2016-07-06T17:01:37Z</time>
        <sat>9</sat>
      </trkpt>
      <trkpt lat="43.455321" lon="10.949840">
        <ele>489.4</ele>
        <time>2016-07-06T17:01:38Z</time>
        <sat>9</sat>
      </trkpt>
      <trkpt lat="43.455281" lon="10.949707">
        <ele>489.5</ele>
        <time>2016-07-06T17:01:39Z</time>
        <sat>9</sat>
      </trkpt>
      <trkpt lat="43.455233" lon="10.949594">
        <ele>489.5</ele>
        <time>2016-07-06T17:01:40Z</time>
        <sat>8</sat>
      </trkpt>
      <trkpt lat="43.455164" lon="10.949372">
        <ele>489.0</ele>
        <time>2016-07-06T17:01:42Z</time>
        <sat>9</sat>
      </trkpt>
      <trkpt lat="43.455129" lon="10.949150">
        <ele>488.1</ele>
        <time>2016-07-06T17:01:44Z</time>
        <sat>9</sat>
      </trkpt>
      <trkpt lat="43.455097" lon="10.948936">
        <ele>484.5</ele>
        <time>2016-07-06T17:01:46Z</time>
        <sat>9</sat>
      </trkpt>
      <trkpt lat="43.455058" lon="10.948818">
        <ele>482.2</ele>
        <time>2016-07-06T17:01:47Z</time>
        <sat>9</sat>
      </trkpt>
      <trkpt lat="43.455024" lon="10.948693">
        <ele>480.5</ele>
        <time>2016-07-06T17:01:48Z</time>
        <sat>9</sat>
      </trkpt>
      <trkpt lat="43.454985" lon="10.948564">
        <ele>478.7</ele>
        <time>2016-07-06T17:01:49Z</time>
        <sat>9</sat>
      </trkpt>
      <trkpt lat="43.454940" lon="10.948422">
        <ele>478.7</ele>
        <time>2016-07-06T17:01:50Z</time>
        <sat>9</sat>
      </trkpt>
      <trkpt lat="43.454892" lon="10.948295">
        <ele>479.6</ele>
        <time>2016-07-06T17:01:51Z</time>
        <sat>7</sat>
      </trkpt>
      <trkpt lat="43.454845" lon="10.948182">
        <ele>479.7</ele>
        <time>2016-07-06T17:01:52Z</time>
        <sat>9</sat>
      </trkpt>
      <trkpt lat="43.454735" lon="10.947988">
        <ele>479.2</ele>
        <time>2016-07-06T17:01:54Z</time>
        <sat>9</sat>
      </trkpt>
      <trkpt lat="43.454628" lon="10.947818">
        <ele>478.8</ele>
        <time>2016-07-06T17:01:56Z</time>
        <sat>8</sat>
      </trkpt>
      <trkpt lat="43.454518" lon="10.947686">
        <ele>477.2</ele>
        <time>2016-07-06T17:01:58Z</time>
        <sat>9</sat>
      </trkpt>
      <trkpt lat="43.454428" lon="10.947554">
        <ele>475.8</ele>
        <time>2016-07-06T17:02:00Z</time>
        <sat>9</sat>
      </trkpt>
      <trkpt lat="43.454381" lon="10.947351">
        <ele>473.5</ele>
        <time>2016-07-06T17:02:02Z</time>
        <sat>9</sat>
      </trkpt>
      <trkpt lat="43.454351" lon="10.947161">
        <ele>470.9</ele>
        <time>2016-07-06T17:02:04Z</time>
        <sat>9</sat>
      </trkpt>
      <trkpt lat="43.454284" lon="10.947018">
        <ele>468.4</ele>
        <time>2016-07-06T17:02:06Z</time>
        <sat>9</sat>
      </trkpt>
      <trkpt lat="43.454183" lon="10.946906">
        <ele>465.1</ele>
        <time>2016-07-06T17:02:08Z</time>
        <sat>8</sat>
      </trkpt>
      <trkpt lat="43.454093" lon="10.946764">
        <ele>465.6</ele>
        <time>2016-07-06T17:02:10Z</time>
        <sat>8</sat>
      </trkpt>
      <trkpt lat="43.454053" lon="10.946567">
        <ele>463.9</ele>
        <time>2016-07-06T17:02:12Z</time>
        <sat>9</sat>
      </trkpt>
      <trkpt lat="43.454024" lon="10.946360">
        <ele>461.6</ele>
        <time>2016-07-06T17:02:14Z</time>
        <sat>9</sat>
      </trkpt>
      <trkpt lat="43.453980" lon="10.946248">
        <ele>459.6</ele>
        <time>2016-07-06T17:02:15Z</time>
        <sat>9</sat>
      </trkpt>
      <trkpt lat="43.453910" lon="10.946071">
        <ele>458.7</ele>
        <time>2016-07-06T17:02:17Z</time>
        <sat>9</sat>
      </trkpt>
      <trkpt lat="43.453875" lon="10.945884">
        <ele>457.9</ele>
        <time>2016-07-06T17:02:19Z</time>
        <sat>8</sat>
      </trkpt>
      <trkpt lat="43.453868" lon="10.945646">
        <ele>455.8</ele>
        <time>2016-07-06T17:02:21Z</time>
        <sat>6</sat>
      </trkpt>
      <trkpt lat="43.453801" lon="10.945262">
        <ele>452.0</ele>
        <time>2016-07-06T17:02:25Z</time>
        <sat>10</sat>
      </trkpt>
      <trkpt lat="43.453632" lon="10.945178">
        <ele>450.3</ele>
        <time>2016-07-06T17:02:27Z</time>
        <sat>10</sat>
      </trkpt>
      <trkpt lat="43.453539" lon="10.945152">
        <ele>450.0</ele>
        <time>2016-07-06T17:02:28Z</time>
        <sat>10</sat>
      </trkpt>
      <trkpt lat="43.453448" lon="10.945126">
        <ele>450.1</ele>
        <time>2016-07-06T17:02:29Z</time>
        <sat>10</sat>
      </trkpt>
      <trkpt lat="43.453288" lon="10.945051">
        <ele>451.2</ele>
        <time>2016-07-06T17:02:31Z</time>
        <sat>10</sat>
      </trkpt>
      <trkpt lat="43.453133" lon="10.944940">
        <ele>451.3</ele>
        <time>2016-07-06T17:02:33Z</time>
        <sat>10</sat>
      </trkpt>
      <trkpt lat="43.452993" lon="10.944850">
        <ele>451.6</ele>
        <time>2016-07-06T17:02:35Z</time>
        <sat>10</sat>
      </trkpt>
      <trkpt lat="43.452870" lon="10.944725">
        <ele>451.8</ele>
        <time>2016-07-06T17:02:37Z</time>
        <sat>9</sat>
      </trkpt>
      <trkpt lat="43.452732" lon="10.944599">
        <ele>452.0</ele>
        <time>2016-07-06T17:02:39Z</time>
        <sat>10</sat>
      </trkpt>
      <trkpt lat="43.452605" lon="10.944527">
        <ele>452.0</ele>
        <time>2016-07-06T17:02:41Z</time>
        <sat>9</sat>
      </trkpt>
      <trkpt lat="43.452471" lon="10.944476">
        <ele>452.1</ele>
        <time>2016-07-06T17:02:43Z</time>
        <sat>7</sat>
      </trkpt>
      <trkpt lat="43.452352" lon="10.944431">
        <ele>451.6</ele>
        <time>2016-07-06T17:02:45Z</time>
        <sat>7</sat>
      </trkpt>
      <trkpt lat="43.452279" lon="10.944325">
        <ele>451.1</ele>
        <time>2016-07-06T17:02:47Z</time>
        <sat>8</sat>
      </trkpt>
      <trkpt lat="43.452205" lon="10.944126">
        <ele>449.5</ele>
        <time>2016-07-06T17:02:49Z</time>
        <sat>7</sat>
      </trkpt>
      <trkpt lat="43.452080" lon="10.944013">
        <ele>448.5</ele>
        <time>2016-07-06T17:02:51Z</time>
        <sat>7</sat>
      </trkpt>
      <trkpt lat="43.451980" lon="10.943969">
        <ele>448.1</ele>
        <time>2016-07-06T17:02:52Z</time>
        <sat>8</sat>
      </trkpt>
      <trkpt lat="43.451864" lon="10.943927">
        <ele>448.3</ele>
        <time>2016-07-06T17:02:53Z</time>
        <sat>7</sat>
      </trkpt>
      <trkpt lat="43.451775" lon="10.943872">
        <ele>449.1</ele>
        <time>2016-07-06T17:02:54Z</time>
        <sat>7</sat>
      </trkpt>
      <trkpt lat="43.451627" lon="10.943745">
        <ele>448.2</ele>
        <time>2016-07-06T17:02:56Z</time>
        <sat>6</sat>
      </trkpt>
      <trkpt lat="43.451455" lon="10.943696">
        <ele>448.0</ele>
        <time>2016-07-06T17:02:58Z</time>
        <sat>6</sat>
      </trkpt>
      <trkpt lat="43.451332" lon="10.943612">
        <ele>448.3</ele>
        <time>2016-07-06T17:03:00Z</time>
        <sat>8</sat>
      </trkpt>
      <trkpt lat="43.451216" lon="10.943438">
        <ele>450.9</ele>
        <time>2016-07-06T17:03:02Z</time>
        <sat>8</sat>
      </trkpt>
      <trkpt lat="43.451127" lon="10.943269">
        <ele>449.2</ele>
        <time>2016-07-06T17:03:04Z</time>
        <sat>8</sat>
      </trkpt>
      <trkpt lat="43.451045" lon="10.943165">
        <ele>449.4</ele>
        <time>2016-07-06T17:03:05Z</time>
        <sat>8</sat>
      </trkpt>
      <trkpt lat="43.450961" lon="10.943059">
        <ele>449.3</ele>
        <time>2016-07-06T17:03:06Z</time>
        <sat>8</sat>
      </trkpt>
      <trkpt lat="43.450898" lon="10.942954">
        <ele>449.3</ele>
        <time>2016-07-06T17:03:07Z</time>
        <sat>8</sat>
      </trkpt>
      <trkpt lat="43.450838" lon="10.942853">
        <ele>448.4</ele>
        <time>2016-07-06T17:03:08Z</time>
        <sat>7</sat>
      </trkpt>
      <trkpt lat="43.450735" lon="10.942630">
        <ele>446.5</ele>
        <time>2016-07-06T17:03:10Z</time>
        <sat>7</sat>
      </trkpt>
      <trkpt lat="43.450687" lon="10.942511">
        <ele>445.2</ele>
        <time>2016-07-06T17:03:11Z</time>
        <sat>8</sat>
      </trkpt>
      <trkpt lat="43.450643" lon="10.942353">
        <ele>441.6</ele>
        <time>2016-07-06T17:03:13Z</time>
        <sat>8</sat>
      </trkpt>
      <trkpt lat="43.450712" lon="10.942196">
        <ele>438.9</ele>
        <time>2016-07-06T17:03:16Z</time>
        <sat>6</sat>
      </trkpt>
      <trkpt lat="43.450893" lon="10.942129">
        <ele>437.4</ele>
        <time>2016-07-06T17:03:18Z</time>
        <sat>7</sat>
      </trkpt>
      <trkpt lat="43.451012" lon="10.942113">
        <ele>436.4</ele>
        <time>2016-07-06T17:03:19Z</time>
        <sat>7</sat>
      </trkpt>
      <trkpt lat="43.451119" lon="10.942105">
        <ele>435.8</ele>
        <time>2016-07-06T17:03:20Z</time>
        <sat>7</sat>
      </trkpt>
      <trkpt lat="43.451217" lon="10.942111">
        <ele>434.4</ele>
        <time>2016-07-06T17:03:21Z</time>
        <sat>7</sat>
      </trkpt>
      <trkpt lat="43.451313" lon="10.942121">
        <ele>433.1</ele>
        <time>2016-07-06T17:03:22Z</time>
        <sat>7</sat>
      </trkpt>
      <trkpt lat="43.451546" lon="10.942211">
        <ele>429.0</ele>
        <time>2016-07-06T17:03:25Z</time>
        <sat>7</sat>
      </trkpt>
      <trkpt lat="43.451655" lon="10.942251">
        <ele>426.2</ele>
        <time>2016-07-06T17:03:27Z</time>
        <sat>7</sat>
      </trkpt>
      <trkpt lat="43.451737" lon="10.942075">
        <ele>423.5</ele>
        <time>2016-07-06T17:03:30Z</time>
        <sat>6</sat>
      </trkpt>
      <trkpt lat="43.451791" lon="10.941843">
        <ele>419.4</ele>
        <time>2016-07-06T17:03:32Z</time>
        <sat>8</sat>
      </trkpt>
      <trkpt lat="43.451844" lon="10.941633">
        <ele>416.2</ele>
        <time>2016-07-06T17:03:34Z</time>
        <sat>8</sat>
      </trkpt>
      <trkpt lat="43.451828" lon="10.941466">
        <ele>413.6</ele>
        <time>2016-07-06T17:03:36Z</time>
        <sat>8</sat>
      </trkpt>
      <trkpt lat="43.451750" lon="10.941303">
        <ele>410.1</ele>
        <time>2016-07-06T17:03:38Z</time>
        <sat>7</sat>
      </trkpt>
      <trkpt lat="43.451626" lon="10.941130">
        <ele>409.6</ele>
        <time>2016-07-06T17:03:40Z</time>
        <sat>8</sat>
      </trkpt>
      <trkpt lat="43.451521" lon="10.940969">
        <ele>407.3</ele>
        <time>2016-07-06T17:03:42Z</time>
        <sat>8</sat>
      </trkpt>
      <trkpt lat="43.451461" lon="10.940765">
        <ele>405.1</ele>
        <time>2016-07-06T17:03:44Z</time>
        <sat>6</sat>
      </trkpt>
      <trkpt lat="43.451423" lon="10.940519">
        <ele>404.3</ele>
        <time>2016-07-06T17:03:46Z</time>
        <sat>6</sat>
      </trkpt>
      <trkpt lat="43.451397" lon="10.940369">
        <ele>404.1</ele>
        <time>2016-07-06T17:03:47Z</time>
        <sat>7</sat>
      </trkpt>
      <trkpt lat="43.451372" lon="10.940221">
        <ele>404.6</ele>
        <time>2016-07-06T17:03:48Z</time>
        <sat>8</sat>
      </trkpt>
      <trkpt lat="43.451357" lon="10.940093">
        <ele>403.5</ele>
        <time>2016-07-06T17:03:49Z</time>
        <sat>7</sat>
      </trkpt>
      <trkpt lat="43.451316" lon="10.939864">
        <ele>402.0</ele>
        <time>2016-07-06T17:03:51Z</time>
        <sat>8</sat>
      </trkpt>
      <trkpt lat="43.451269" lon="10.939652">
        <ele>401.6</ele>
        <time>2016-07-06T17:03:53Z</time>
        <sat>8</sat>
      </trkpt>
      <trkpt lat="43.451240" lon="10.939527">
        <ele>403.2</ele>
        <time>2016-07-06T17:03:54Z</time>
        <sat>8</sat>
      </trkpt>
      <trkpt lat="43.451196" lon="10.939333">
        <ele>403.4</ele>
        <time>2016-07-06T17:03:56Z</time>
        <sat>8</sat>
      </trkpt>
      <trkpt lat="43.451223" lon="10.939167">
        <ele>407.0</ele>
        <time>2016-07-06T17:03:58Z</time>
        <sat>7</sat>
      </trkpt>
      <trkpt lat="43.451343" lon="10.939110">
        <ele>406.5</ele>
        <time>2016-07-06T17:04:00Z</time>
        <sat>9</sat>
      </trkpt>
      <trkpt lat="43.451508" lon="10.939139">
        <ele>405.0</ele>
        <time>2016-07-06T17:04:02Z</time>
        <sat>9</sat>
      </trkpt>
      <trkpt lat="43.451634" lon="10.939219">
        <ele>403.4</ele>
        <time>2016-07-06T17:04:04Z</time>
        <sat>9</sat>
      </trkpt>
      <trkpt lat="43.451735" lon="10.939318">
        <ele>402.6</ele>
        <time>2016-07-06T17:04:06Z</time>
        <sat>9</sat>
      </trkpt>
      <trkpt lat="43.451840" lon="10.939409">
        <ele>402.2</ele>
        <time>2016-07-06T17:04:08Z</time>
        <sat>9</sat>
      </trkpt>
      <trkpt lat="43.451970" lon="10.939467">
        <ele>401.3</ele>
        <time>2016-07-06T17:04:10Z</time>
        <sat>8</sat>
      </trkpt>
      <trkpt lat="43.452102" lon="10.939473">
        <ele>400.3</ele>
        <time>2016-07-06T17:04:12Z</time>
        <sat>9</sat>
      </trkpt>
      <trkpt lat="43.452217" lon="10.939488">
        <ele>399.2</ele>
        <time>2016-07-06T17:04:14Z</time>
        <sat>9</sat>
      </trkpt>
      <trkpt lat="43.452318" lon="10.939486">
        <ele>397.9</ele>
        <time>2016-07-06T17:04:16Z</time>
        <sat>9</sat>
      </trkpt>
      <trkpt lat="43.452400" lon="10.939380">
        <ele>395.3</ele>
        <time>2016-07-06T17:04:19Z</time>
        <sat>9</sat>
      </trkpt>
      <trkpt lat="43.452450" lon="10.939199">
        <ele>393.5</ele>
        <time>2016-07-06T17:04:21Z</time>
        <sat>7</sat>
      </trkpt>
      <trkpt lat="43.452482" lon="10.939082">
        <ele>392.7</ele>
        <time>2016-07-06T17:04:22Z</time>
        <sat>7</sat>
      </trkpt>
      <trkpt lat="43.452513" lon="10.938897">
        <ele>390.5</ele>
        <time>2016-07-06T17:04:24Z</time>
        <sat>8</sat>
      </trkpt>
      <trkpt lat="43.452384" lon="10.938545">
        <ele>380.8</ele>
        <time>2016-07-06T17:04:28Z</time>
        <sat>8</sat>
      </trkpt>
      <trkpt lat="43.452327" lon="10.938442">
        <ele>378.8</ele>
        <time>2016-07-06T17:04:29Z</time>
        <sat>7</sat>
      </trkpt>
      <trkpt lat="43.452234" lon="10.938270">
        <ele>374.1</ele>
        <time>2016-07-06T17:04:31Z</time>
        <sat>6</sat>
      </trkpt>
      <trkpt lat="43.452124" lon="10.938077">
        <ele>373.5</ele>
        <time>2016-07-06T17:04:33Z</time>
        <sat>9</sat>
      </trkpt>
      <trkpt lat="43.452022" lon="10.937887">
        <ele>370.8</ele>
        <time>2016-07-06T17:04:35Z</time>
        <sat>8</sat>
      </trkpt>
      <trkpt lat="43.451959" lon="10.937680">
        <ele>369.6</ele>
        <time>2016-07-06T17:04:37Z</time>
        <sat>8</sat>
      </trkpt>
      <trkpt lat="43.451945" lon="10.937509">
        <ele>368.1</ele>
        <time>2016-07-06T17:04:39Z</time>
        <sat>6</sat>
      </trkpt>
      <trkpt lat="43.451920" lon="10.937340">
        <ele>366.8</ele>
        <time>2016-07-06T17:04:41Z</time>
        <sat>8</sat>
      </trkpt>
      <trkpt lat="43.451882" lon="10.937114">
        <ele>365.5</ele>
        <time>2016-07-06T17:04:43Z</time>
        <sat>7</sat>
      </trkpt>
      <trkpt lat="43.451883" lon="10.936928">
        <ele>364.6</ele>
        <time>2016-07-06T17:04:45Z</time>
        <sat>8</sat>
      </trkpt>
      <trkpt lat="43.451895" lon="10.936752">
        <ele>363.5</ele>
        <time>2016-07-06T17:04:47Z</time>
        <sat>8</sat>
      </trkpt>
      <trkpt lat="43.451954" lon="10.936605">
        <ele>361.1</ele>
        <time>2016-07-06T17:04:49Z</time>
        <sat>8</sat>
      </trkpt>
      <trkpt lat="43.452009" lon="10.936483">
        <ele>362.8</ele>
        <time>2016-07-06T17:04:51Z</time>
        <sat>8</sat>
      </trkpt>
      <trkpt lat="43.452060" lon="10.936381">
        <ele>360.5</ele>
        <time>2016-07-06T17:04:53Z</time>
        <sat>8</sat>
      </trkpt>
      <trkpt lat="43.452109" lon="10.936232">
        <ele>358.4</ele>
        <time>2016-07-06T17:04:56Z</time>
        <sat>8</sat>
      </trkpt>
      <trkpt lat="43.452156" lon="10.936103">
        <ele>357.4</ele>
        <time>2016-07-06T17:04:59Z</time>
        <sat>9</sat>
      </trkpt>
      <trkpt lat="43.452161" lon="10.935978">
        <ele>357.9</ele>
        <time>2016-07-06T17:05:04Z</time>
        <sat>9</sat>
      </trkpt>
      <trkpt lat="43.452133" lon="10.936129">
        <ele>357.8</ele>
        <time>2016-07-06T17:05:09Z</time>
        <sat>8</sat>
      </trkpt>
      <trkpt lat="43.452102" lon="10.936315">
        <ele>359.5</ele>
        <time>2016-07-06T17:05:12Z</time>
        <sat>9</sat>
      </trkpt>
      <trkpt lat="43.452044" lon="10.936438">
        <ele>360.6</ele>
        <time>2016-07-06T17:05:15Z</time>
        <sat>9</sat>
      </trkpt>
      <trkpt lat="43.451962" lon="10.936542">
        <ele>360.5</ele>
        <time>2016-07-06T17:05:18Z</time>
        <sat>9</sat>
      </trkpt>
      <trkpt lat="43.451893" lon="10.936669">
        <ele>360.8</ele>
        <time>2016-07-06T17:05:20Z</time>
        <sat>8</sat>
      </trkpt>
      <trkpt lat="43.451871" lon="10.936817">
        <ele>362.1</ele>
        <time>2016-07-06T17:05:22Z</time>
        <sat>9</sat>
      </trkpt>
      <trkpt lat="43.451869" lon="10.936959">
        <ele>362.8</ele>
        <time>2016-07-06T17:05:24Z</time>
        <sat>8</sat>
      </trkpt>
      <trkpt lat="43.451902" lon="10.937112">
        <ele>364.6</ele>
        <time>2016-07-06T17:05:26Z</time>
        <sat>7</sat>
      </trkpt>
      <trkpt lat="43.451976" lon="10.937448">
        <ele>368.7</ele>
        <time>2016-07-06T17:05:30Z</time>
        <sat>7</sat>
      </trkpt>
      <trkpt lat="43.451988" lon="10.937624">
        <ele>368.6</ele>
        <time>2016-07-06T17:05:32Z</time>
        <sat>8</sat>
      </trkpt>
      <trkpt lat="43.452009" lon="10.937786">
        <ele>370.1</ele>
        <time>2016-07-06T17:05:34Z</time>
        <sat>8</sat>
      </trkpt>
      <trkpt lat="43.452043" lon="10.937902">
        <ele>371.8</ele>
        <time>2016-07-06T17:05:37Z</time>
        <sat>8</sat>
      </trkpt>
      <trkpt lat="43.452119" lon="10.937802">
        <ele>373.1</ele>
        <time>2016-07-06T17:05:43Z</time>
        <sat>8</sat>
      </trkpt>
      <trkpt lat="43.452186" lon="10.937637">
        <ele>371.8</ele>
        <time>2016-07-06T17:05:45Z</time>
        <sat>8</sat>
      </trkpt>
      <trkpt lat="43.452257" lon="10.937555">
        <ele>368.8</ele>
        <time>2016-07-06T17:05:46Z</time>
        <sat>8</sat>
      </trkpt>
      <trkpt lat="43.452370" lon="10.937393">
        <ele>366.1</ele>
        <time>2016-07-06T17:05:48Z</time>
        <sat>8</sat>
      </trkpt>
      <trkpt lat="43.452480" lon="10.937236">
        <ele>363.5</ele>
        <time>2016-07-06T17:05:50Z</time>
        <sat>9</sat>
      </trkpt>
      <trkpt lat="43.452556" lon="10.937039">
        <ele>363.1</ele>
        <time>2016-07-06T17:05:52Z</time>
        <sat>9</sat>
      </trkpt>
      <trkpt lat="43.452605" lon="10.936824">
        <ele>362.4</ele>
        <time>2016-07-06T17:05:54Z</time>
        <sat>8</sat>
      </trkpt>
      <trkpt lat="43.452619" lon="10.936643">
        <ele>362.2</ele>
        <time>2016-07-06T17:05:56Z</time>
        <sat>9</sat>
      </trkpt>
      <trkpt lat="43.452639" lon="10.936472">
        <ele>361.0</ele>
        <time>2016-07-06T17:05:58Z</time>
        <sat>9</sat>
      </trkpt>
      <trkpt lat="43.452644" lon="10.936296">
        <ele>359.1</ele>
        <time>2016-07-06T17:06:00Z</time>
        <sat>9</sat>
      </trkpt>
      <trkpt lat="43.452653" lon="10.936128">
        <ele>356.3</ele>
        <time>2016-07-06T17:06:02Z</time>
        <sat>9</sat>
      </trkpt>
      <trkpt lat="43.452657" lon="10.935967">
        <ele>353.2</ele>
        <time>2016-07-06T17:06:04Z</time>
        <sat>8</sat>
      </trkpt>
      <trkpt lat="43.452659" lon="10.935810">
        <ele>353.3</ele>
        <time>2016-07-06T17:06:06Z</time>
        <sat>8</sat>
      </trkpt>
      <trkpt lat="43.452666" lon="10.935676">
        <ele>352.0</ele>
        <time>2016-07-06T17:06:08Z</time>
        <sat>8</sat>
      </trkpt>
      <trkpt lat="43.452640" lon="10.935520">
        <ele>351.3</ele>
        <time>2016-07-06T17:06:11Z</time>
        <sat>9</sat>
      </trkpt>
      <trkpt lat="43.452564" lon="10.935427">
        <ele>351.9</ele>
        <time>2016-07-06T17:06:14Z</time>
        <sat>8</sat>
      </trkpt>
      <trkpt lat="43.452487" lon="10.935342">
        <ele>352.2</ele>
        <time>2016-07-06T17:06:16Z</time>
        <sat>8</sat>
      </trkpt>
      <trkpt lat="43.452424" lon="10.935243">
        <ele>352.4</ele>
        <time>2016-07-06T17:06:20Z</time>
        <sat>8</sat>
      </trkpt>
      <trkpt lat="43.452318" lon="10.935230">
        <ele>351.6</ele>
        <time>2016-07-06T17:06:28Z</time>
        <sat>8</sat>
      </trkpt>
      <trkpt lat="43.452122" lon="10.935271">
        <ele>349.4</ele>
        <time>2016-07-06T17:06:33Z</time>
        <sat>8</sat>
      </trkpt>
      <trkpt lat="43.452047" lon="10.935139">
        <ele>345.8</ele>
        <time>2016-07-06T17:06:36Z</time>
        <sat>9</sat>
      </trkpt>
      <trkpt lat="43.452007" lon="10.934982">
        <ele>343.6</ele>
        <time>2016-07-06T17:06:39Z</time>
        <sat>9</sat>
      </trkpt>
      <trkpt lat="43.451970" lon="10.934803">
        <ele>339.9</ele>
        <time>2016-07-06T17:06:42Z</time>
        <sat>8</sat>
      </trkpt>
      <trkpt lat="43.451958" lon="10.934635">
        <ele>335.5</ele>
        <time>2016-07-06T17:06:44Z</time>
        <sat>8</sat>
      </trkpt>
      <trkpt lat="43.451922" lon="10.934510">
        <ele>332.6</ele>
        <time>2016-07-06T17:06:46Z</time>
        <sat>9</sat>
      </trkpt>
      <trkpt lat="43.451886" lon="10.934368">
        <ele>329.6</ele>
        <time>2016-07-06T17:06:48Z</time>
        <sat>9</sat>
      </trkpt>
      <trkpt lat="43.451850" lon="10.934211">
        <ele>329.8</ele>
        <time>2016-07-06T17:06:50Z</time>
        <sat>9</sat>
      </trkpt>
      <trkpt lat="43.451777" lon="10.934070">
        <ele>326.8</ele>
        <time>2016-07-06T17:06:52Z</time>
        <sat>9</sat>
      </trkpt>
      <trkpt lat="43.451675" lon="10.933956">
        <ele>323.8</ele>
        <time>2016-07-06T17:06:54Z</time>
        <sat>9</sat>
      </trkpt>
      <trkpt lat="43.451610" lon="10.933792">
        <ele>320.4</ele>
        <time>2016-07-06T17:06:57Z</time>
        <sat>8</sat>
      </trkpt>
      <trkpt lat="43.451607" lon="10.933653">
        <ele>319.8</ele>
        <time>2016-07-06T17:06:59Z</time>
        <sat>9</sat>
      </trkpt>
      <trkpt lat="43.451648" lon="10.933448">
        <ele>320.5</ele>
        <time>2016-07-06T17:07:01Z</time>
        <sat>8</sat>
      </trkpt>
      <trkpt lat="43.451668" lon="10.933321">
        <ele>322.0</ele>
        <time>2016-07-06T17:07:02Z</time>
        <sat>9</sat>
      </trkpt>
      <trkpt lat="43.451679" lon="10.933194">
        <ele>323.1</ele>
        <time>2016-07-06T17:07:03Z</time>
        <sat>9</sat>
      </trkpt>
      <trkpt lat="43.451681" lon="10.932969">
        <ele>323.0</ele>
        <time>2016-07-06T17:07:05Z</time>
        <sat>9</sat>
      </trkpt>
      <trkpt lat="43.451691" lon="10.932737">
        <ele>327.9</ele>
        <time>2016-07-06T17:07:07Z</time>
        <sat>9</sat>
      </trkpt>
      <trkpt lat="43.451656" lon="10.932514">
        <ele>331.5</ele>
        <time>2016-07-06T17:07:09Z</time>
        <sat>8</sat>
      </trkpt>
      <trkpt lat="43.451624" lon="10.932388">
        <ele>331.9</ele>
        <time>2016-07-06T17:07:10Z</time>
        <sat>8</sat>
      </trkpt>
      <trkpt lat="43.451602" lon="10.932264">
        <ele>331.7</ele>
        <time>2016-07-06T17:07:11Z</time>
        <sat>9</sat>
      </trkpt>
      <trkpt lat="43.451553" lon="10.932032">
        <ele>330.8</ele>
        <time>2016-07-06T17:07:13Z</time>
        <sat>9</sat>
      </trkpt>
      <trkpt lat="43.451499" lon="10.931814">
        <ele>330.0</ele>
        <time>2016-07-06T17:07:15Z</time>
        <sat>9</sat>
      </trkpt>
      <trkpt lat="43.451422" lon="10.931621">
        <ele>328.7</ele>
        <time>2016-07-06T17:07:17Z</time>
        <sat>9</sat>
      </trkpt>
      <trkpt lat="43.451321" lon="10.931441">
        <ele>327.9</ele>
        <time>2016-07-06T17:07:19Z</time>
        <sat>9</sat>
      </trkpt>
      <trkpt lat="43.451269" lon="10.931254">
        <ele>328.0</ele>
        <time>2016-07-06T17:07:21Z</time>
        <sat>9</sat>
      </trkpt>
      <trkpt lat="43.451246" lon="10.931053">
        <ele>329.5</ele>
        <time>2016-07-06T17:07:23Z</time>
        <sat>9</sat>
      </trkpt>
      <trkpt lat="43.451200" lon="10.930860">
        <ele>328.5</ele>
        <time>2016-07-06T17:07:25Z</time>
        <sat>8</sat>
      </trkpt>
      <trkpt lat="43.451195" lon="10.930655">
        <ele>329.2</ele>
        <time>2016-07-06T17:07:27Z</time>
        <sat>9</sat>
      </trkpt>
      <trkpt lat="43.451196" lon="10.930438">
        <ele>329.1</ele>
        <time>2016-07-06T17:07:29Z</time>
        <sat>9</sat>
      </trkpt>
      <trkpt lat="43.451213" lon="10.930238">
        <ele>329.6</ele>
        <time>2016-07-06T17:07:31Z</time>
        <sat>9</sat>
      </trkpt>
      <trkpt lat="43.451264" lon="10.929855">
        <ele>328.8</ele>
        <time>2016-07-06T17:07:35Z</time>
        <sat>9</sat>
      </trkpt>
      <trkpt lat="43.451228" lon="10.929680">
        <ele>330.6</ele>
        <time>2016-07-06T17:07:37Z</time>
        <sat>7</sat>
      </trkpt>
      <trkpt lat="43.451147" lon="10.929481">
        <ele>330.9</ele>
        <time>2016-07-06T17:07:39Z</time>
        <sat>8</sat>
      </trkpt>
      <trkpt lat="43.451070" lon="10.929314">
        <ele>330.5</ele>
        <time>2016-07-06T17:07:41Z</time>
        <sat>9</sat>
      </trkpt>
      <trkpt lat="43.450935" lon="10.929139">
        <ele>329.9</ele>
        <time>2016-07-06T17:07:43Z</time>
        <sat>8</sat>
      </trkpt>
      <trkpt lat="43.450860" lon="10.929061">
        <ele>329.4</ele>
        <time>2016-07-06T17:07:44Z</time>
        <sat>9</sat>
      </trkpt>
      <trkpt lat="43.450706" lon="10.928962">
        <ele>329.0</ele>
        <time>2016-07-06T17:07:46Z</time>
        <sat>8</sat>
      </trkpt>
      <trkpt lat="43.450568" lon="10.928888">
        <ele>329.9</ele>
        <time>2016-07-06T17:07:48Z</time>
        <sat>7</sat>
      </trkpt>
      <trkpt lat="43.450424" lon="10.928880">
        <ele>332.3</ele>
        <time>2016-07-06T17:07:50Z</time>
        <sat>8</sat>
      </trkpt>
      <trkpt lat="43.450303" lon="10.928902">
        <ele>333.5</ele>
        <time>2016-07-06T17:07:52Z</time>
        <sat>8</sat>
      </trkpt>
      <trkpt lat="43.450201" lon="10.928921">
        <ele>333.6</ele>
        <time>2016-07-06T17:07:54Z</time>
        <sat>9</sat>
      </trkpt>
      <trkpt lat="43.450106" lon="10.928937">
        <ele>333.2</ele>
        <time>2016-07-06T17:07:56Z</time>
        <sat>9</sat>
      </trkpt>
      <trkpt lat="43.450002" lon="10.928927">
        <ele>332.8</ele>
        <time>2016-07-06T17:07:58Z</time>
        <sat>9</sat>
      </trkpt>
      <trkpt lat="43.449916" lon="10.928835">
        <ele>333.0</ele>
        <time>2016-07-06T17:08:00Z</time>
        <sat>9</sat>
      </trkpt>
      <trkpt lat="43.449841" lon="10.928701">
        <ele>332.9</ele>
        <time>2016-07-06T17:08:02Z</time>
        <sat>8</sat>
      </trkpt>
      <trkpt lat="43.449744" lon="10.928576">
        <ele>333.1</ele>
        <time>2016-07-06T17:08:04Z</time>
        <sat>8</sat>
      </trkpt>
      <trkpt lat="43.449623" lon="10.928453">
        <ele>332.7</ele>
        <time>2016-07-06T17:08:06Z</time>
        <sat>8</sat>
      </trkpt>
      <trkpt lat="43.449549" lon="10.928379">
        <ele>332.5</ele>
        <time>2016-07-06T17:08:07Z</time>
        <sat>8</sat>
      </trkpt>
      <trkpt lat="43.449424" lon="10.928219">
        <ele>331.7</ele>
        <time>2016-07-06T17:08:09Z</time>
        <sat>8</sat>
      </trkpt>
      <trkpt lat="43.449321" lon="10.928079">
        <ele>331.5</ele>
        <time>2016-07-06T17:08:11Z</time>
        <sat>8</sat>
      </trkpt>
      <trkpt lat="43.449226" lon="10.927977">
        <ele>330.9</ele>
        <time>2016-07-06T17:08:13Z</time>
        <sat>7</sat>
      </trkpt>
      <trkpt lat="43.449131" lon="10.927891">
        <ele>330.3</ele>
        <time>2016-07-06T17:08:15Z</time>
        <sat>8</sat>
      </trkpt>
      <trkpt lat="43.449029" lon="10.927827">
        <ele>334.8</ele>
        <time>2016-07-06T17:08:17Z</time>
        <sat>8</sat>
      </trkpt>
      <trkpt lat="43.448940" lon="10.927800">
        <ele>335.7</ele>
        <time>2016-07-06T17:08:20Z</time>
        <sat>8</sat>
      </trkpt>
      <trkpt lat="43.448841" lon="10.927798">
        <ele>336.7</ele>
        <time>2016-07-06T17:08:22Z</time>
        <sat>7</sat>
      </trkpt>
      <trkpt lat="43.448714" lon="10.927774">
        <ele>337.5</ele>
        <time>2016-07-06T17:08:24Z</time>
        <sat>7</sat>
      </trkpt>
      <trkpt lat="43.448576" lon="10.927732">
        <ele>337.9</ele>
        <time>2016-07-06T17:08:26Z</time>
        <sat>8</sat>
      </trkpt>
      <trkpt lat="43.448448" lon="10.927702">
        <ele>338.9</ele>
        <time>2016-07-06T17:08:28Z</time>
        <sat>7</sat>
      </trkpt>
      <trkpt lat="43.448343" lon="10.927661">
        <ele>339.7</ele>
        <time>2016-07-06T17:08:30Z</time>
        <sat>7</sat>
      </trkpt>
      <trkpt lat="43.448251" lon="10.927572">
        <ele>339.5</ele>
        <time>2016-07-06T17:08:32Z</time>
        <sat>8</sat>
      </trkpt>
      <trkpt lat="43.448189" lon="10.927461">
        <ele>339.1</ele>
        <time>2016-07-06T17:08:34Z</time>
        <sat>8</sat>
      </trkpt>
      <trkpt lat="43.448071" lon="10.927260">
        <ele>337.0</ele>
        <time>2016-07-06T17:08:38Z</time>
        <sat>8</sat>
      </trkpt>
      <trkpt lat="43.448000" lon="10.927115">
        <ele>335.6</ele>
        <time>2016-07-06T17:08:41Z</time>
        <sat>8</sat>
      </trkpt>
      <trkpt lat="43.447972" lon="10.926974">
        <ele>333.8</ele>
        <time>2016-07-06T17:08:43Z</time>
        <sat>8</sat>
      </trkpt>
      <trkpt lat="43.447936" lon="10.926802">
        <ele>330.5</ele>
        <time>2016-07-06T17:08:46Z</time>
        <sat>8</sat>
      </trkpt>
      <trkpt lat="43.447838" lon="10.926673">
        <ele>328.9</ele>
        <time>2016-07-06T17:08:49Z</time>
        <sat>8</sat>
      </trkpt>
      <trkpt lat="43.447738" lon="10.926649">
        <ele>331.6</ele>
        <time>2016-07-06T17:08:51Z</time>
        <sat>8</sat>
      </trkpt>
      <trkpt lat="43.447620" lon="10.926695">
        <ele>331.6</ele>
        <time>2016-07-06T17:08:53Z</time>
        <sat>8</sat>
      </trkpt>
      <trkpt lat="43.447528" lon="10.926741">
        <ele>331.4</ele>
        <time>2016-07-06T17:08:55Z</time>
        <sat>8</sat>
      </trkpt>
      <trkpt lat="43.447462" lon="10.926606">
        <ele>330.2</ele>
        <time>2016-07-06T17:08:59Z</time>
        <sat>8</sat>
      </trkpt>
      <trkpt lat="43.447529" lon="10.926417">
        <ele>327.5</ele>
        <time>2016-07-06T17:09:01Z</time>
        <sat>8</sat>
      </trkpt>
      <trkpt lat="43.447578" lon="10.926305">
        <ele>326.1</ele>
        <time>2016-07-06T17:09:02Z</time>
        <sat>8</sat>
      </trkpt>
      <trkpt lat="43.447628" lon="10.926189">
        <ele>324.9</ele>
        <time>2016-07-06T17:09:03Z</time>
        <sat>8</sat>
      </trkpt>
      <trkpt lat="43.447673" lon="10.926074">
        <ele>323.6</ele>
        <time>2016-07-06T17:09:04Z</time>
        <sat>8</sat>
      </trkpt>
      <trkpt lat="43.447718" lon="10.925958">
        <ele>322.3</ele>
        <time>2016-07-06T17:09:05Z</time>
        <sat>8</sat>
      </trkpt>
      <trkpt lat="43.447762" lon="10.925840">
        <ele>321.1</ele>
        <time>2016-07-06T17:09:06Z</time>
        <sat>8</sat>
      </trkpt>
      <trkpt lat="43.447807" lon="10.925725">
        <ele>319.9</ele>
        <time>2016-07-06T17:09:07Z</time>
        <sat>8</sat>
      </trkpt>
      <trkpt lat="43.447853" lon="10.925617">
        <ele>318.7</ele>
        <time>2016-07-06T17:09:08Z</time>
        <sat>8</sat>
      </trkpt>
      <trkpt lat="43.447939" lon="10.925416">
        <ele>316.8</ele>
        <time>2016-07-06T17:09:10Z</time>
        <sat>8</sat>
      </trkpt>
      <trkpt lat="43.448032" lon="10.925209">
        <ele>313.8</ele>
        <time>2016-07-06T17:09:12Z</time>
        <sat>8</sat>
      </trkpt>
      <trkpt lat="43.448081" lon="10.925082">
        <ele>312.1</ele>
        <time>2016-07-06T17:09:13Z</time>
        <sat>8</sat>
      </trkpt>
      <trkpt lat="43.448135" lon="10.924948">
        <ele>310.7</ele>
        <time>2016-07-06T17:09:14Z</time>
        <sat>8</sat>
      </trkpt>
      <trkpt lat="43.448188" lon="10.924819">
        <ele>309.3</ele>
        <time>2016-07-06T17:09:15Z</time>
        <sat>8</sat>
      </trkpt>
      <trkpt lat="43.448239" lon="10.924701">
        <ele>307.8</ele>
        <time>2016-07-06T17:09:16Z</time>
        <sat>9</sat>
      </trkpt>
      <trkpt lat="43.448286" lon="10.924587">
        <ele>306.5</ele>
        <time>2016-07-06T17:09:17Z</time>
        <sat>9</sat>
      </trkpt>
      <trkpt lat="43.448333" lon="10.924473">
        <ele>305.2</ele>
        <time>2016-07-06T17:09:18Z</time>
        <sat>9</sat>
      </trkpt>
      <trkpt lat="43.448381" lon="10.924366">
        <ele>304.0</ele>
        <time>2016-07-06T17:09:19Z</time>
        <sat>9</sat>
      </trkpt>
      <trkpt lat="43.448477" lon="10.924155">
        <ele>302.0</ele>
        <time>2016-07-06T17:09:21Z</time>
        <sat>9</sat>
      </trkpt>
      <trkpt lat="43.448523" lon="10.924030">
        <ele>300.8</ele>
        <time>2016-07-06T17:09:22Z</time>
        <sat>9</sat>
      </trkpt>
      <trkpt lat="43.448569" lon="10.923896">
        <ele>299.5</ele>
        <time>2016-07-06T17:09:23Z</time>
        <sat>9</sat>
      </trkpt>
      <trkpt lat="43.448622" lon="10.923753">
        <ele>298.2</ele>
        <time>2016-07-06T17:09:24Z</time>
        <sat>9</sat>
      </trkpt>
      <trkpt lat="43.448681" lon="10.923601">
        <ele>297.0</ele>
        <time>2016-07-06T17:09:25Z</time>
        <sat>9</sat>
      </trkpt>
      <trkpt lat="43.448735" lon="10.923454">
        <ele>295.8</ele>
        <time>2016-07-06T17:09:26Z</time>
        <sat>9</sat>
      </trkpt>
      <trkpt lat="43.448783" lon="10.923313">
        <ele>295.4</ele>
        <time>2016-07-06T17:09:27Z</time>
        <sat>9</sat>
      </trkpt>
      <trkpt lat="43.448830" lon="10.923184">
        <ele>294.5</ele>
        <time>2016-07-06T17:09:28Z</time>
        <sat>9</sat>
      </trkpt>
      <trkpt lat="43.448879" lon="10.923066">
        <ele>293.6</ele>
        <time>2016-07-06T17:09:29Z</time>
        <sat>9</sat>
      </trkpt>
      <trkpt lat="43.448928" lon="10.922950">
        <ele>292.8</ele>
        <time>2016-07-06T17:09:30Z</time>
        <sat>9</sat>
      </trkpt>
      <trkpt lat="43.448979" lon="10.922838">
        <ele>292.1</ele>
        <time>2016-07-06T17:09:31Z</time>
        <sat>9</sat>
      </trkpt>
      <trkpt lat="43.449027" lon="10.922720">
        <ele>291.6</ele>
        <time>2016-07-06T17:09:32Z</time>
        <sat>9</sat>
      </trkpt>
      <trkpt lat="43.449079" lon="10.922595">
        <ele>290.8</ele>
        <time>2016-07-06T17:09:33Z</time>
        <sat>9</sat>
      </trkpt>
      <trkpt lat="43.449135" lon="10.922463">
        <ele>290.0</ele>
        <time>2016-07-06T17:09:34Z</time>
        <sat>9</sat>
      </trkpt>
      <trkpt lat="43.449196" lon="10.922325">
        <ele>289.1</ele>
        <time>2016-07-06T17:09:35Z</time>
        <sat>9</sat>
      </trkpt>
      <trkpt lat="43.449309" lon="10.922065">
        <ele>287.4</ele>
        <time>2016-07-06T17:09:37Z</time>
        <sat>9</sat>
      </trkpt>
      <trkpt lat="43.449353" lon="10.921956">
        <ele>286.5</ele>
        <time>2016-07-06T17:09:38Z</time>
        <sat>9</sat>
      </trkpt>
      <trkpt lat="43.449416" lon="10.921786">
        <ele>284.8</ele>
        <time>2016-07-06T17:09:40Z</time>
        <sat>9</sat>
      </trkpt>
      <trkpt lat="43.449468" lon="10.921643">
        <ele>283.4</ele>
        <time>2016-07-06T17:09:42Z</time>
        <sat>9</sat>
      </trkpt>
      <trkpt lat="43.449513" lon="10.921508">
        <ele>281.8</ele>
        <time>2016-07-06T17:09:44Z</time>
        <sat>9</sat>
      </trkpt>
      <trkpt lat="43.449550" lon="10.921378">
        <ele>280.6</ele>
        <time>2016-07-06T17:09:46Z</time>
        <sat>9</sat>
      </trkpt>
      <trkpt lat="43.449516" lon="10.921213">
        <ele>280.1</ele>
        <time>2016-07-06T17:09:49Z</time>
        <sat>9</sat>
      </trkpt>
      <trkpt lat="43.449444" lon="10.921070">
        <ele>280.3</ele>
        <time>2016-07-06T17:09:52Z</time>
        <sat>8</sat>
      </trkpt>
      <trkpt lat="43.449460" lon="10.920931">
        <ele>278.8</ele>
        <time>2016-07-06T17:09:54Z</time>
        <sat>9</sat>
      </trkpt>
      <trkpt lat="43.449521" lon="10.920784">
        <ele>277.4</ele>
        <time>2016-07-06T17:09:56Z</time>
        <sat>9</sat>
      </trkpt>
      <trkpt lat="43.449599" lon="10.920655">
        <ele>276.2</ele>
        <time>2016-07-06T17:09:58Z</time>
        <sat>9</sat>
      </trkpt>
      <trkpt lat="43.449696" lon="10.920534">
        <ele>275.0</ele>
        <time>2016-07-06T17:10:00Z</time>
        <sat>9</sat>
      </trkpt>
      <trkpt lat="43.449813" lon="10.920449">
        <ele>274.0</ele>
        <time>2016-07-06T17:10:02Z</time>
        <sat>8</sat>
      </trkpt>
      <trkpt lat="43.449954" lon="10.920459">
        <ele>272.9</ele>
        <time>2016-07-06T17:10:04Z</time>
        <sat>9</sat>
      </trkpt>
      <trkpt lat="43.450101" lon="10.920575">
        <ele>271.4</ele>
        <time>2016-07-06T17:10:06Z</time>
        <sat>6</sat>
      </trkpt>
      <trkpt lat="43.450223" lon="10.920709">
        <ele>269.5</ele>
        <time>2016-07-06T17:10:08Z</time>
        <sat>8</sat>
      </trkpt>
      <trkpt lat="43.450334" lon="10.920815">
        <ele>267.7</ele>
        <time>2016-07-06T17:10:10Z</time>
        <sat>8</sat>
      </trkpt>
      <trkpt lat="43.450448" lon="10.920855">
        <ele>266.1</ele>
        <time>2016-07-06T17:10:12Z</time>
        <sat>9</sat>
      </trkpt>
      <trkpt lat="43.450561" lon="10.920781">
        <ele>264.3</ele>
        <time>2016-07-06T17:10:14Z</time>
        <sat>9</sat>
      </trkpt>
      <trkpt lat="43.450645" lon="10.920609">
        <ele>262.4</ele>
        <time>2016-07-06T17:10:16Z</time>
        <sat>9</sat>
      </trkpt>
      <trkpt lat="43.450697" lon="10.920384">
        <ele>260.7</ele>
        <time>2016-07-06T17:10:18Z</time>
        <sat>9</sat>
      </trkpt>
      <trkpt lat="43.450802" lon="10.920191">
        <ele>259.0</ele>
        <time>2016-07-06T17:10:20Z</time>
        <sat>9</sat>
      </trkpt>
      <trkpt lat="43.450894" lon="10.920120">
        <ele>258.3</ele>
        <time>2016-07-06T17:10:21Z</time>
        <sat>9</sat>
      </trkpt>
      <trkpt lat="43.451002" lon="10.920064">
        <ele>257.6</ele>
        <time>2016-07-06T17:10:22Z</time>
        <sat>9</sat>
      </trkpt>
      <trkpt lat="43.451124" lon="10.920004">
        <ele>256.9</ele>
        <time>2016-07-06T17:10:23Z</time>
        <sat>9</sat>
      </trkpt>
      <trkpt lat="43.451264" lon="10.919929">
        <ele>256.4</ele>
        <time>2016-07-06T17:10:24Z</time>
        <sat>9</sat>
      </trkpt>
      <trkpt lat="43.451405" lon="10.919847">
        <ele>256.0</ele>
        <time>2016-07-06T17:10:25Z</time>
        <sat>9</sat>
      </trkpt>
      <trkpt lat="43.451532" lon="10.919766">
        <ele>255.6</ele>
        <time>2016-07-06T17:10:26Z</time>
        <sat>9</sat>
      </trkpt>
      <trkpt lat="43.451647" lon="10.919688">
        <ele>254.8</ele>
        <time>2016-07-06T17:10:27Z</time>
        <sat>9</sat>
      </trkpt>
      <trkpt lat="43.451752" lon="10.919616">
        <ele>254.2</ele>
        <time>2016-07-06T17:10:28Z</time>
        <sat>9</sat>
      </trkpt>
      <trkpt lat="43.451849" lon="10.919546">
        <ele>253.7</ele>
        <time>2016-07-06T17:10:29Z</time>
        <sat>9</sat>
      </trkpt>
      <trkpt lat="43.451942" lon="10.919464">
        <ele>253.1</ele>
        <time>2016-07-06T17:10:30Z</time>
        <sat>9</sat>
      </trkpt>
      <trkpt lat="43.452031" lon="10.919370">
        <ele>252.2</ele>
        <time>2016-07-06T17:10:31Z</time>
        <sat>9</sat>
      </trkpt>
      <trkpt lat="43.452118" lon="10.919262">
        <ele>251.4</ele>
        <time>2016-07-06T17:10:32Z</time>
        <sat>9</sat>
      </trkpt>
      <trkpt lat="43.452203" lon="10.919135">
        <ele>250.4</ele>
        <time>2016-07-06T17:10:33Z</time>
        <sat>9</sat>
      </trkpt>
      <trkpt lat="43.452279" lon="10.918993">
        <ele>249.7</ele>
        <time>2016-07-06T17:10:34Z</time>
        <sat>9</sat>
      </trkpt>
      <trkpt lat="43.452343" lon="10.918843">
        <ele>248.9</ele>
        <time>2016-07-06T17:10:35Z</time>
        <sat>9</sat>
      </trkpt>
      <trkpt lat="43.452400" lon="10.918682">
        <ele>248.0</ele>
        <time>2016-07-06T17:10:36Z</time>
        <sat>9</sat>
      </trkpt>
      <trkpt lat="43.452505" lon="10.918374">
        <ele>246.5</ele>
        <time>2016-07-06T17:10:38Z</time>
        <sat>9</sat>
      </trkpt>
      <trkpt lat="43.452557" lon="10.918233">
        <ele>246.0</ele>
        <time>2016-07-06T17:10:39Z</time>
        <sat>9</sat>
      </trkpt>
      <trkpt lat="43.452621" lon="10.918099">
        <ele>245.7</ele>
        <time>2016-07-06T17:10:40Z</time>
        <sat>9</sat>
      </trkpt>
      <trkpt lat="43.452700" lon="10.917976">
        <ele>245.6</ele>
        <time>2016-07-06T17:10:41Z</time>
        <sat>9</sat>
      </trkpt>
      <trkpt lat="43.452787" lon="10.917856">
        <ele>245.4</ele>
        <time>2016-07-06T17:10:42Z</time>
        <sat>9</sat>
      </trkpt>
      <trkpt lat="43.452872" lon="10.917735">
        <ele>245.1</ele>
        <time>2016-07-06T17:10:43Z</time>
        <sat>9</sat>
      </trkpt>
      <trkpt lat="43.452943" lon="10.917603">
        <ele>244.6</ele>
        <time>2016-07-06T17:10:44Z</time>
        <sat>8</sat>
      </trkpt>
      <trkpt lat="43.452996" lon="10.917449">
        <ele>243.9</ele>
        <time>2016-07-06T17:10:45Z</time>
        <sat>9</sat>
      </trkpt>
      <trkpt lat="43.453031" lon="10.917273">
        <ele>243.0</ele>
        <time>2016-07-06T17:10:46Z</time>
        <sat>9</sat>
      </trkpt>
      <trkpt lat="43.453057" lon="10.917076">
        <ele>242.1</ele>
        <time>2016-07-06T17:10:47Z</time>
        <sat>9</sat>
      </trkpt>
      <trkpt lat="43.453081" lon="10.916865">
        <ele>241.6</ele>
        <time>2016-07-06T17:10:48Z</time>
        <sat>9</sat>
      </trkpt>
      <trkpt lat="43.453108" lon="10.916628">
        <ele>241.2</ele>
        <time>2016-07-06T17:10:49Z</time>
        <sat>9</sat>
      </trkpt>
      <trkpt lat="43.453138" lon="10.916379">
        <ele>241.1</ele>
        <time>2016-07-06T17:10:50Z</time>
        <sat>9</sat>
      </trkpt>
      <trkpt lat="43.453166" lon="10.916149">
        <ele>240.9</ele>
        <time>2016-07-06T17:10:51Z</time>
        <sat>9</sat>
      </trkpt>
      <trkpt lat="43.453194" lon="10.915945">
        <ele>241.5</ele>
        <time>2016-07-06T17:10:52Z</time>
        <sat>9</sat>
      </trkpt>
      <trkpt lat="43.453216" lon="10.915766">
        <ele>242.4</ele>
        <time>2016-07-06T17:10:53Z</time>
        <sat>9</sat>
      </trkpt>
      <trkpt lat="43.453226" lon="10.915598">
        <ele>243.0</ele>
        <time>2016-07-06T17:10:54Z</time>
        <sat>9</sat>
      </trkpt>
      <trkpt lat="43.453224" lon="10.915430">
        <ele>243.4</ele>
        <time>2016-07-06T17:10:55Z</time>
        <sat>9</sat>
      </trkpt>
      <trkpt lat="43.453219" lon="10.915256">
        <ele>243.3</ele>
        <time>2016-07-06T17:10:56Z</time>
        <sat>9</sat>
      </trkpt>
      <trkpt lat="43.453218" lon="10.915077">
        <ele>242.8</ele>
        <time>2016-07-06T17:10:57Z</time>
        <sat>9</sat>
      </trkpt>
      <trkpt lat="43.453222" lon="10.914900">
        <ele>242.8</ele>
        <time>2016-07-06T17:10:58Z</time>
        <sat>9</sat>
      </trkpt>
      <trkpt lat="43.453233" lon="10.914734">
        <ele>242.8</ele>
        <time>2016-07-06T17:10:59Z</time>
        <sat>9</sat>
      </trkpt>
      <trkpt lat="43.453251" lon="10.914579">
        <ele>242.8</ele>
        <time>2016-07-06T17:11:00Z</time>
        <sat>9</sat>
      </trkpt>
      <trkpt lat="43.453287" lon="10.914433">
        <ele>243.1</ele>
        <time>2016-07-06T17:11:01Z</time>
        <sat>9</sat>
      </trkpt>
      <trkpt lat="43.453344" lon="10.914294">
        <ele>243.2</ele>
        <time>2016-07-06T17:11:02Z</time>
        <sat>9</sat>
      </trkpt>
      <trkpt lat="43.453414" lon="10.914158">
        <ele>243.7</ele>
        <time>2016-07-06T17:11:03Z</time>
        <sat>9</sat>
      </trkpt>
      <trkpt lat="43.453489" lon="10.914024">
        <ele>244.4</ele>
        <time>2016-07-06T17:11:04Z</time>
        <sat>9</sat>
      </trkpt>
      <trkpt lat="43.453561" lon="10.913879">
        <ele>244.9</ele>
        <time>2016-07-06T17:11:05Z</time>
        <sat>9</sat>
      </trkpt>
      <trkpt lat="43.453627" lon="10.913733">
        <ele>245.2</ele>
        <time>2016-07-06T17:11:06Z</time>
        <sat>9</sat>
      </trkpt>
      <trkpt lat="43.453687" lon="10.913597">
        <ele>245.4</ele>
        <time>2016-07-06T17:11:07Z</time>
        <sat>9</sat>
      </trkpt>
      <trkpt lat="43.453745" lon="10.913461">
        <ele>245.5</ele>
        <time>2016-07-06T17:11:08Z</time>
        <sat>9</sat>
      </trkpt>
      <trkpt lat="43.453802" lon="10.913328">
        <ele>244.8</ele>
        <time>2016-07-06T17:11:09Z</time>
        <sat>8</sat>
      </trkpt>
      <trkpt lat="43.453850" lon="10.913198">
        <ele>244.8</ele>
        <time>2016-07-06T17:11:10Z</time>
        <sat>9</sat>
      </trkpt>
      <trkpt lat="43.453888" lon="10.913065">
        <ele>244.7</ele>
        <time>2016-07-06T17:11:11Z</time>
        <sat>9</sat>
      </trkpt>
      <trkpt lat="43.453915" lon="10.912931">
        <ele>244.4</ele>
        <time>2016-07-06T17:11:12Z</time>
        <sat>9</sat>
      </trkpt>
      <trkpt lat="43.453932" lon="10.912799">
        <ele>244.0</ele>
        <time>2016-07-06T17:11:13Z</time>
        <sat>9</sat>
      </trkpt>
      <trkpt lat="43.453938" lon="10.912673">
        <ele>243.7</ele>
        <time>2016-07-06T17:11:14Z</time>
        <sat>9</sat>
      </trkpt>
      <trkpt lat="43.453926" lon="10.912456">
        <ele>243.1</ele>
        <time>2016-07-06T17:11:16Z</time>
        <sat>9</sat>
      </trkpt>
      <trkpt lat="43.453912" lon="10.912295">
        <ele>242.8</ele>
        <time>2016-07-06T17:11:18Z</time>
        <sat>9</sat>
      </trkpt>
      <trkpt lat="43.453859" lon="10.912152">
        <ele>243.4</ele>
        <time>2016-07-06T17:11:35Z</time>
        <sat>9</sat>
      </trkpt>
      <trkpt lat="43.453773" lon="10.912097">
        <ele>243.4</ele>
        <time>2016-07-06T17:11:37Z</time>
        <sat>9</sat>
      </trkpt>
      <trkpt lat="43.453632" lon="10.912090">
        <ele>243.5</ele>
        <time>2016-07-06T17:11:39Z</time>
        <sat>9</sat>
      </trkpt>
      <trkpt lat="43.453345" lon="10.912160">
        <ele>243.0</ele>
        <time>2016-07-06T17:11:42Z</time>
        <sat>9</sat>
      </trkpt>
      <trkpt lat="43.453234" lon="10.912190">
        <ele>242.8</ele>
        <time>2016-07-06T17:11:43Z</time>
        <sat>9</sat>
      </trkpt>
      <trkpt lat="43.453123" lon="10.912224">
        <ele>242.4</ele>
        <time>2016-07-06T17:11:44Z</time>
        <sat>9</sat>
      </trkpt>
      <trkpt lat="43.453021" lon="10.912253">
        <ele>241.8</ele>
        <time>2016-07-06T17:11:45Z</time>
        <sat>9</sat>
      </trkpt>
      <trkpt lat="43.452926" lon="10.912275">
        <ele>241.5</ele>
        <time>2016-07-06T17:11:46Z</time>
        <sat>9</sat>
      </trkpt>
      <trkpt lat="43.452829" lon="10.912288">
        <ele>241.2</ele>
        <time>2016-07-06T17:11:47Z</time>
        <sat>9</sat>
      </trkpt>
      <trkpt lat="43.452723" lon="10.912280">
        <ele>241.1</ele>
        <time>2016-07-06T17:11:48Z</time>
        <sat>8</sat>
      </trkpt>
      <trkpt lat="43.452615" lon="10.912248">
        <ele>241.3</ele>
        <time>2016-07-06T17:11:49Z</time>
        <sat>8</sat>
      </trkpt>
      <trkpt lat="43.452510" lon="10.912200">
        <ele>241.1</ele>
        <time>2016-07-06T17:11:50Z</time>
        <sat>8</sat>
      </trkpt>
      <trkpt lat="43.452404" lon="10.912156">
        <ele>240.7</ele>
        <time>2016-07-06T17:11:51Z</time>
        <sat>8</sat>
      </trkpt>
      <trkpt lat="43.452291" lon="10.912124">
        <ele>240.3</ele>
        <time>2016-07-06T17:11:52Z</time>
        <sat>8</sat>
      </trkpt>
      <trkpt lat="43.452175" lon="10.912099">
        <ele>239.9</ele>
        <time>2016-07-06T17:11:53Z</time>
        <sat>8</sat>
      </trkpt>
      <trkpt lat="43.452054" lon="10.912080">
        <ele>239.5</ele>
        <time>2016-07-06T17:11:54Z</time>
        <sat>8</sat>
      </trkpt>
      <trkpt lat="43.451935" lon="10.912071">
        <ele>239.4</ele>
        <time>2016-07-06T17:11:55Z</time>
        <sat>6</sat>
      </trkpt>
      <trkpt lat="43.451821" lon="10.912068">
        <ele>239.3</ele>
        <time>2016-07-06T17:11:56Z</time>
        <sat>7</sat>
      </trkpt>
      <trkpt lat="43.451713" lon="10.912068">
        <ele>238.5</ele>
        <time>2016-07-06T17:11:57Z</time>
        <sat>8</sat>
      </trkpt>
      <trkpt lat="43.451599" lon="10.912060">
        <ele>238.5</ele>
        <time>2016-07-06T17:11:58Z</time>
        <sat>8</sat>
      </trkpt>
      <trkpt lat="43.451487" lon="10.912038">
        <ele>238.5</ele>
        <time>2016-07-06T17:11:59Z</time>
        <sat>8</sat>
      </trkpt>
      <trkpt lat="43.451385" lon="10.912006">
        <ele>238.4</ele>
        <time>2016-07-06T17:12:00Z</time>
        <sat>8</sat>
      </trkpt>
      <trkpt lat="43.451286" lon="10.911976">
        <ele>238.4</ele>
        <time>2016-07-06T17:12:01Z</time>
        <sat>8</sat>
      </trkpt>
      <trkpt lat="43.451189" lon="10.911952">
        <ele>238.3</ele>
        <time>2016-07-06T17:12:02Z</time>
        <sat>8</sat>
      </trkpt>
      <trkpt lat="43.451098" lon="10.911936">
        <ele>238.0</ele>
        <time>2016-07-06T17:12:03Z</time>
        <sat>8</sat>
      </trkpt>
      <trkpt lat="43.450935" lon="10.911942">
        <ele>237.1</ele>
        <time>2016-07-06T17:12:05Z</time>
        <sat>8</sat>
      </trkpt>
      <trkpt lat="43.450781" lon="10.911913">
        <ele>235.4</ele>
        <time>2016-07-06T17:12:07Z</time>
        <sat>8</sat>
      </trkpt>
      <trkpt lat="43.450640" lon="10.911770">
        <ele>234.4</ele>
        <time>2016-07-06T17:12:09Z</time>
        <sat>8</sat>
      </trkpt>
      <trkpt lat="43.450559" lon="10.911676">
        <ele>233.8</ele>
        <time>2016-07-06T17:12:10Z</time>
        <sat>8</sat>
      </trkpt>
      <trkpt lat="43.450463" lon="10.911582">
        <ele>233.0</ele>
        <time>2016-07-06T17:12:11Z</time>
        <sat>8</sat>
      </trkpt>
      <trkpt lat="43.450354" lon="10.911496">
        <ele>232.0</ele>
        <time>2016-07-06T17:12:12Z</time>
        <sat>8</sat>
      </trkpt>
      <trkpt lat="43.450238" lon="10.911416">
        <ele>231.3</ele>
        <time>2016-07-06T17:12:13Z</time>
        <sat>8</sat>
      </trkpt>
      <trkpt lat="43.450119" lon="10.911341">
        <ele>230.8</ele>
        <time>2016-07-06T17:12:14Z</time>
        <sat>8</sat>
      </trkpt>
      <trkpt lat="43.449995" lon="10.911273">
        <ele>230.2</ele>
        <time>2016-07-06T17:12:15Z</time>
        <sat>8</sat>
      </trkpt>
      <trkpt lat="43.449867" lon="10.911204">
        <ele>229.6</ele>
        <time>2016-07-06T17:12:16Z</time>
        <sat>8</sat>
      </trkpt>
      <trkpt lat="43.449746" lon="10.911137">
        <ele>228.8</ele>
        <time>2016-07-06T17:12:17Z</time>
        <sat>8</sat>
      </trkpt>
      <trkpt lat="43.449631" lon="10.911072">
        <ele>228.5</ele>
        <time>2016-07-06T17:12:18Z</time>
        <sat>8</sat>
      </trkpt>
      <trkpt lat="43.449512" lon="10.911011">
        <ele>227.8</ele>
        <time>2016-07-06T17:12:19Z</time>
        <sat>8</sat>
      </trkpt>
      <trkpt lat="43.449385" lon="10.910951">
        <ele>227.3</ele>
        <time>2016-07-06T17:12:20Z</time>
        <sat>9</sat>
      </trkpt>
      <trkpt lat="43.449250" lon="10.910893">
        <ele>226.8</ele>
        <time>2016-07-06T17:12:21Z</time>
        <sat>9</sat>
      </trkpt>
      <trkpt lat="43.449113" lon="10.910843">
        <ele>226.3</ele>
        <time>2016-07-06T17:12:22Z</time>
        <sat>9</sat>
      </trkpt>
      <trkpt lat="43.448980" lon="10.910799">
        <ele>225.9</ele>
        <time>2016-07-06T17:12:23Z</time>
        <sat>9</sat>
      </trkpt>
      <trkpt lat="43.448855" lon="10.910751">
        <ele>225.3</ele>
        <time>2016-07-06T17:12:24Z</time>
        <sat>9</sat>
      </trkpt>
      <trkpt lat="43.448734" lon="10.910680">
        <ele>224.9</ele>
        <time>2016-07-06T17:12:25Z</time>
        <sat>9</sat>
      </trkpt>
      <trkpt lat="43.448615" lon="10.910595">
        <ele>224.9</ele>
        <time>2016-07-06T17:12:26Z</time>
        <sat>10</sat>
      </trkpt>
      <trkpt lat="43.448504" lon="10.910509">
        <ele>224.8</ele>
        <time>2016-07-06T17:12:27Z</time>
        <sat>10</sat>
      </trkpt>
      <trkpt lat="43.448402" lon="10.910426">
        <ele>224.7</ele>
        <time>2016-07-06T17:12:28Z</time>
        <sat>10</sat>
      </trkpt>
      <trkpt lat="43.448299" lon="10.910344">
        <ele>224.7</ele>
        <time>2016-07-06T17:12:29Z</time>
        <sat>10</sat>
      </trkpt>
      <trkpt lat="43.448189" lon="10.910260">
        <ele>224.1</ele>
        <time>2016-07-06T17:12:30Z</time>
        <sat>10</sat>
      </trkpt>
      <trkpt lat="43.448071" lon="10.910176">
        <ele>223.4</ele>
        <time>2016-07-06T17:12:31Z</time>
        <sat>10</sat>
      </trkpt>
      <trkpt lat="43.447947" lon="10.910094">
        <ele>222.4</ele>
        <time>2016-07-06T17:12:32Z</time>
        <sat>10</sat>
      </trkpt>
      <trkpt lat="43.447819" lon="10.910017">
        <ele>221.6</ele>
        <time>2016-07-06T17:12:33Z</time>
        <sat>10</sat>
      </trkpt>
      <trkpt lat="43.447688" lon="10.909943">
        <ele>220.7</ele>
        <time>2016-07-06T17:12:34Z</time>
        <sat>10</sat>
      </trkpt>
      <trkpt lat="43.447560" lon="10.909869">
        <ele>219.9</ele>
        <time>2016-07-06T17:12:35Z</time>
        <sat>10</sat>
      </trkpt>
      <trkpt lat="43.447440" lon="10.909797">
        <ele>219.2</ele>
        <time>2016-07-06T17:12:36Z</time>
        <sat>10</sat>
      </trkpt>
      <trkpt lat="43.447325" lon="10.909726">
        <ele>218.7</ele>
        <time>2016-07-06T17:12:37Z</time>
        <sat>10</sat>
      </trkpt>
      <trkpt lat="43.447209" lon="10.909660">
        <ele>218.0</ele>
        <time>2016-07-06T17:12:38Z</time>
        <sat>10</sat>
      </trkpt>
      <trkpt lat="43.447088" lon="10.909603">
        <ele>217.3</ele>
        <time>2016-07-06T17:12:39Z</time>
        <sat>10</sat>
      </trkpt>
      <trkpt lat="43.446971" lon="10.909554">
        <ele>216.9</ele>
        <time>2016-07-06T17:12:40Z</time>
        <sat>10</sat>
      </trkpt>
      <trkpt lat="43.446860" lon="10.909512">
        <ele>216.6</ele>
        <time>2016-07-06T17:12:41Z</time>
        <sat>10</sat>
      </trkpt>
      <trkpt lat="43.446663" lon="10.909426">
        <ele>215.9</ele>
        <time>2016-07-06T17:12:43Z</time>
        <sat>10</sat>
      </trkpt>
      <trkpt lat="43.446568" lon="10.909358">
        <ele>215.4</ele>
        <time>2016-07-06T17:12:44Z</time>
        <sat>10</sat>
      </trkpt>
      <trkpt lat="43.446476" lon="10.909261">
        <ele>215.1</ele>
        <time>2016-07-06T17:12:45Z</time>
        <sat>10</sat>
      </trkpt>
      <trkpt lat="43.446392" lon="10.909131">
        <ele>215.3</ele>
        <time>2016-07-06T17:12:46Z</time>
        <sat>10</sat>
      </trkpt>
      <trkpt lat="43.446313" lon="10.908976">
        <ele>215.5</ele>
        <time>2016-07-06T17:12:47Z</time>
        <sat>10</sat>
      </trkpt>
      <trkpt lat="43.446240" lon="10.908803">
        <ele>215.2</ele>
        <time>2016-07-06T17:12:48Z</time>
        <sat>10</sat>
      </trkpt>
      <trkpt lat="43.446178" lon="10.908619">
        <ele>214.6</ele>
        <time>2016-07-06T17:12:49Z</time>
        <sat>10</sat>
      </trkpt>
      <trkpt lat="43.446125" lon="10.908444">
        <ele>214.2</ele>
        <time>2016-07-06T17:12:50Z</time>
        <sat>10</sat>
      </trkpt>
      <trkpt lat="43.446077" lon="10.908281">
        <ele>214.2</ele>
        <time>2016-07-06T17:12:51Z</time>
        <sat>10</sat>
      </trkpt>
      <trkpt lat="43.446030" lon="10.908127">
        <ele>213.9</ele>
        <time>2016-07-06T17:12:52Z</time>
        <sat>10</sat>
      </trkpt>
      <trkpt lat="43.445981" lon="10.907981">
        <ele>213.3</ele>
        <time>2016-07-06T17:12:53Z</time>
        <sat>10</sat>
      </trkpt>
      <trkpt lat="43.445927" lon="10.907840">
        <ele>212.6</ele>
        <time>2016-07-06T17:12:54Z</time>
        <sat>10</sat>
      </trkpt>
      <trkpt lat="43.445866" lon="10.907694">
        <ele>212.3</ele>
        <time>2016-07-06T17:12:55Z</time>
        <sat>10</sat>
      </trkpt>
      <trkpt lat="43.445792" lon="10.907546">
        <ele>211.7</ele>
        <time>2016-07-06T17:12:56Z</time>
        <sat>10</sat>
      </trkpt>
      <trkpt lat="43.445706" lon="10.907399">
        <ele>211.8</ele>
        <time>2016-07-06T17:12:57Z</time>
        <sat>10</sat>
      </trkpt>
      <trkpt lat="43.445619" lon="10.907258">
        <ele>211.9</ele>
        <time>2016-07-06T17:12:58Z</time>
        <sat>10</sat>
      </trkpt>
      <trkpt lat="43.445532" lon="10.907115">
        <ele>211.7</ele>
        <time>2016-07-06T17:12:59Z</time>
        <sat>10</sat>
      </trkpt>
      <trkpt lat="43.445446" lon="10.906967">
        <ele>211.4</ele>
        <time>2016-07-06T17:13:00Z</time>
        <sat>10</sat>
      </trkpt>
      <trkpt lat="43.445361" lon="10.906818">
        <ele>211.0</ele>
        <time>2016-07-06T17:13:01Z</time>
        <sat>10</sat>
      </trkpt>
      <trkpt lat="43.445271" lon="10.906666">
        <ele>210.6</ele>
        <time>2016-07-06T17:13:02Z</time>
        <sat>10</sat>
      </trkpt>
      <trkpt lat="43.445170" lon="10.906509">
        <ele>210.0</ele>
        <time>2016-07-06T17:13:03Z</time>
        <sat>10</sat>
      </trkpt>
      <trkpt lat="43.445061" lon="10.906352">
        <ele>209.3</ele>
        <time>2016-07-06T17:13:04Z</time>
        <sat>10</sat>
      </trkpt>
      <trkpt lat="43.444953" lon="10.906200">
        <ele>208.6</ele>
        <time>2016-07-06T17:13:05Z</time>
        <sat>10</sat>
      </trkpt>
      <trkpt lat="43.444852" lon="10.906063">
        <ele>208.0</ele>
        <time>2016-07-06T17:13:06Z</time>
        <sat>10</sat>
      </trkpt>
      <trkpt lat="43.444759" lon="10.905939">
        <ele>207.6</ele>
        <time>2016-07-06T17:13:07Z</time>
        <sat>10</sat>
      </trkpt>
      <trkpt lat="43.444671" lon="10.905813">
        <ele>207.3</ele>
        <time>2016-07-06T17:13:08Z</time>
        <sat>10</sat>
      </trkpt>
      <trkpt lat="43.444590" lon="10.905675">
        <ele>207.5</ele>
        <time>2016-07-06T17:13:09Z</time>
        <sat>10</sat>
      </trkpt>
      <trkpt lat="43.444515" lon="10.905528">
        <ele>207.8</ele>
        <time>2016-07-06T17:13:10Z</time>
        <sat>10</sat>
      </trkpt>
      <trkpt lat="43.444448" lon="10.905386">
        <ele>207.9</ele>
        <time>2016-07-06T17:13:11Z</time>
        <sat>10</sat>
      </trkpt>
      <trkpt lat="43.444383" lon="10.905253">
        <ele>208.3</ele>
        <time>2016-07-06T17:13:12Z</time>
        <sat>10</sat>
      </trkpt>
      <trkpt lat="43.444316" lon="10.905124">
        <ele>208.6</ele>
        <time>2016-07-06T17:13:13Z</time>
        <sat>10</sat>
      </trkpt>
      <trkpt lat="43.444242" lon="10.905001">
        <ele>208.8</ele>
        <time>2016-07-06T17:13:14Z</time>
        <sat>10</sat>
      </trkpt>
      <trkpt lat="43.444154" lon="10.904881">
        <ele>208.6</ele>
        <time>2016-07-06T17:13:15Z</time>
        <sat>10</sat>
      </trkpt>
      <trkpt lat="43.444049" lon="10.904762">
        <ele>207.9</ele>
        <time>2016-07-06T17:13:16Z</time>
        <sat>10</sat>
      </trkpt>
      <trkpt lat="43.443934" lon="10.904648">
        <ele>207.2</ele>
        <time>2016-07-06T17:13:17Z</time>
        <sat>10</sat>
      </trkpt>
      <trkpt lat="43.443823" lon="10.904544">
        <ele>206.5</ele>
        <time>2016-07-06T17:13:18Z</time>
        <sat>10</sat>
      </trkpt>
      <trkpt lat="43.443720" lon="10.904451">
        <ele>205.7</ele>
        <time>2016-07-06T17:13:19Z</time>
        <sat>10</sat>
      </trkpt>
      <trkpt lat="43.443622" lon="10.904367">
        <ele>205.2</ele>
        <time>2016-07-06T17:13:20Z</time>
        <sat>10</sat>
      </trkpt>
      <trkpt lat="43.443535" lon="10.904290">
        <ele>205.1</ele>
        <time>2016-07-06T17:13:21Z</time>
        <sat>10</sat>
      </trkpt>
      <trkpt lat="43.443458" lon="10.904222">
        <ele>204.9</ele>
        <time>2016-07-06T17:13:22Z</time>
        <sat>10</sat>
      </trkpt>
      <trkpt lat="43.443320" lon="10.904095">
        <ele>204.3</ele>
        <time>2016-07-06T17:13:24Z</time>
        <sat>10</sat>
      </trkpt>
      <trkpt lat="43.443206" lon="10.903989">
        <ele>203.7</ele>
        <time>2016-07-06T17:13:26Z</time>
        <sat>10</sat>
      </trkpt>
      <trkpt lat="43.443118" lon="10.903920">
        <ele>203.4</ele>
        <time>2016-07-06T17:13:29Z</time>
        <sat>10</sat>
      </trkpt>
      <trkpt lat="43.443213" lon="10.904025">
        <ele>205.4</ele>
        <time>2016-07-06T17:16:09Z</time>
        <sat>10</sat>
      </trkpt>
      <trkpt lat="43.443400" lon="10.904197">
        <ele>205.9</ele>
        <time>2016-07-06T17:16:11Z</time>
        <sat>10</sat>
      </trkpt>
      <trkpt lat="43.443515" lon="10.904309">
        <ele>206.2</ele>
        <time>2016-07-06T17:16:12Z</time>
        <sat>10</sat>
      </trkpt>
      <trkpt lat="43.443639" lon="10.904427">
        <ele>206.6</ele>
        <time>2016-07-06T17:16:13Z</time>
        <sat>10</sat>
      </trkpt>
      <trkpt lat="43.443771" lon="10.904547">
        <ele>207.3</ele>
        <time>2016-07-06T17:16:14Z</time>
        <sat>10</sat>
      </trkpt>
      <trkpt lat="43.443896" lon="10.904659">
        <ele>208.1</ele>
        <time>2016-07-06T17:16:15Z</time>
        <sat>10</sat>
      </trkpt>
      <trkpt lat="43.444006" lon="10.904769">
        <ele>209.0</ele>
        <time>2016-07-06T17:16:16Z</time>
        <sat>10</sat>
      </trkpt>
      <trkpt lat="43.444107" lon="10.904879">
        <ele>209.8</ele>
        <time>2016-07-06T17:16:17Z</time>
        <sat>10</sat>
      </trkpt>
      <trkpt lat="43.444195" lon="10.904999">
        <ele>210.0</ele>
        <time>2016-07-06T17:16:18Z</time>
        <sat>9</sat>
      </trkpt>
      <trkpt lat="43.444286" lon="10.905143">
        <ele>209.2</ele>
        <time>2016-07-06T17:16:19Z</time>
        <sat>10</sat>
      </trkpt>
      <trkpt lat="43.444374" lon="10.905308">
        <ele>209.2</ele>
        <time>2016-07-06T17:16:20Z</time>
        <sat>10</sat>
      </trkpt>
      <trkpt lat="43.444471" lon="10.905489">
        <ele>208.3</ele>
        <time>2016-07-06T17:16:21Z</time>
        <sat>10</sat>
      </trkpt>
      <trkpt lat="43.444580" lon="10.905679">
        <ele>208.2</ele>
        <time>2016-07-06T17:16:22Z</time>
        <sat>10</sat>
      </trkpt>
      <trkpt lat="43.444707" lon="10.905863">
        <ele>208.6</ele>
        <time>2016-07-06T17:16:23Z</time>
        <sat>10</sat>
      </trkpt>
      <trkpt lat="43.444838" lon="10.906039">
        <ele>209.0</ele>
        <time>2016-07-06T17:16:24Z</time>
        <sat>10</sat>
      </trkpt>
      <trkpt lat="43.444956" lon="10.906204">
        <ele>209.1</ele>
        <time>2016-07-06T17:16:25Z</time>
        <sat>10</sat>
      </trkpt>
      <trkpt lat="43.445066" lon="10.906361">
        <ele>209.2</ele>
        <time>2016-07-06T17:16:26Z</time>
        <sat>10</sat>
      </trkpt>
      <trkpt lat="43.445176" lon="10.906520">
        <ele>209.5</ele>
        <time>2016-07-06T17:16:27Z</time>
        <sat>10</sat>
      </trkpt>
      <trkpt lat="43.445287" lon="10.906688">
        <ele>209.5</ele>
        <time>2016-07-06T17:16:28Z</time>
        <sat>9</sat>
      </trkpt>
      <trkpt lat="43.445401" lon="10.906877">
        <ele>209.6</ele>
        <time>2016-07-06T17:16:29Z</time>
        <sat>10</sat>
      </trkpt>
      <trkpt lat="43.445513" lon="10.907070">
        <ele>210.3</ele>
        <time>2016-07-06T17:16:30Z</time>
        <sat>10</sat>
      </trkpt>
      <trkpt lat="43.445612" lon="10.907243">
        <ele>210.2</ele>
        <time>2016-07-06T17:16:31Z</time>
        <sat>10</sat>
      </trkpt>
      <trkpt lat="43.445704" lon="10.907403">
        <ele>209.7</ele>
        <time>2016-07-06T17:16:32Z</time>
        <sat>10</sat>
      </trkpt>
      <trkpt lat="43.445788" lon="10.907548">
        <ele>209.2</ele>
        <time>2016-07-06T17:16:33Z</time>
        <sat>10</sat>
      </trkpt>
      <trkpt lat="43.445870" lon="10.907694">
        <ele>209.5</ele>
        <time>2016-07-06T17:16:34Z</time>
        <sat>10</sat>
      </trkpt>
      <trkpt lat="43.445950" lon="10.907857">
        <ele>210.3</ele>
        <time>2016-07-06T17:16:35Z</time>
        <sat>10</sat>
      </trkpt>
      <trkpt lat="43.446023" lon="10.908038">
        <ele>210.6</ele>
        <time>2016-07-06T17:16:36Z</time>
        <sat>10</sat>
      </trkpt>
      <trkpt lat="43.446087" lon="10.908234">
        <ele>210.6</ele>
        <time>2016-07-06T17:16:37Z</time>
        <sat>10</sat>
      </trkpt>
      <trkpt lat="43.446142" lon="10.908434">
        <ele>210.9</ele>
        <time>2016-07-06T17:16:38Z</time>
        <sat>10</sat>
      </trkpt>
      <trkpt lat="43.446197" lon="10.908629">
        <ele>211.0</ele>
        <time>2016-07-06T17:16:39Z</time>
        <sat>10</sat>
      </trkpt>
      <trkpt lat="43.446254" lon="10.908806">
        <ele>211.7</ele>
        <time>2016-07-06T17:16:40Z</time>
        <sat>10</sat>
      </trkpt>
      <trkpt lat="43.446318" lon="10.908974">
        <ele>212.5</ele>
        <time>2016-07-06T17:16:41Z</time>
        <sat>10</sat>
      </trkpt>
      <trkpt lat="43.446390" lon="10.909133">
        <ele>212.7</ele>
        <time>2016-07-06T17:16:42Z</time>
        <sat>10</sat>
      </trkpt>
      <trkpt lat="43.446473" lon="10.909272">
        <ele>213.1</ele>
        <time>2016-07-06T17:16:43Z</time>
        <sat>10</sat>
      </trkpt>
      <trkpt lat="43.446571" lon="10.909390">
        <ele>213.4</ele>
        <time>2016-07-06T17:16:44Z</time>
        <sat>10</sat>
      </trkpt>
      <trkpt lat="43.446689" lon="10.909482">
        <ele>213.6</ele>
        <time>2016-07-06T17:16:45Z</time>
        <sat>10</sat>
      </trkpt>
      <trkpt lat="43.446832" lon="10.909551">
        <ele>214.4</ele>
        <time>2016-07-06T17:16:46Z</time>
        <sat>9</sat>
      </trkpt>
      <trkpt lat="43.446998" lon="10.909616">
        <ele>215.1</ele>
        <time>2016-07-06T17:16:47Z</time>
        <sat>10</sat>
      </trkpt>
      <trkpt lat="43.447176" lon="10.909693">
        <ele>216.2</ele>
        <time>2016-07-06T17:16:48Z</time>
        <sat>10</sat>
      </trkpt>
      <trkpt lat="43.447360" lon="10.909792">
        <ele>217.2</ele>
        <time>2016-07-06T17:16:49Z</time>
        <sat>10</sat>
      </trkpt>
      <trkpt lat="43.447543" lon="10.909900">
        <ele>218.3</ele>
        <time>2016-07-06T17:16:50Z</time>
        <sat>10</sat>
      </trkpt>
      <trkpt lat="43.447719" lon="10.910001">
        <ele>219.7</ele>
        <time>2016-07-06T17:16:51Z</time>
        <sat>10</sat>
      </trkpt>
      <trkpt lat="43.447880" lon="10.910091">
        <ele>220.9</ele>
        <time>2016-07-06T17:16:52Z</time>
        <sat>10</sat>
      </trkpt>
      <trkpt lat="43.448020" lon="10.910171">
        <ele>222.3</ele>
        <time>2016-07-06T17:16:53Z</time>
        <sat>10</sat>
      </trkpt>
      <trkpt lat="43.448152" lon="10.910252">
        <ele>223.4</ele>
        <time>2016-07-06T17:16:54Z</time>
        <sat>10</sat>
      </trkpt>
      <trkpt lat="43.448289" lon="10.910348">
        <ele>224.3</ele>
        <time>2016-07-06T17:16:55Z</time>
        <sat>10</sat>
      </trkpt>
      <trkpt lat="43.448434" lon="10.910464">
        <ele>224.8</ele>
        <time>2016-07-06T17:16:56Z</time>
        <sat>10</sat>
      </trkpt>
      <trkpt lat="43.448583" lon="10.910586">
        <ele>224.8</ele>
        <time>2016-07-06T17:16:57Z</time>
        <sat>10</sat>
      </trkpt>
      <trkpt lat="43.448734" lon="10.910691">
        <ele>224.7</ele>
        <time>2016-07-06T17:16:58Z</time>
        <sat>10</sat>
      </trkpt>
      <trkpt lat="43.448889" lon="10.910778">
        <ele>225.0</ele>
        <time>2016-07-06T17:16:59Z</time>
        <sat>10</sat>
      </trkpt>
      <trkpt lat="43.449053" lon="10.910848">
        <ele>225.3</ele>
        <time>2016-07-06T17:17:00Z</time>
        <sat>10</sat>
      </trkpt>
      <trkpt lat="43.449237" lon="10.910921">
        <ele>225.8</ele>
        <time>2016-07-06T17:17:01Z</time>
        <sat>10</sat>
      </trkpt>
      <trkpt lat="43.449426" lon="10.911004">
        <ele>226.3</ele>
        <time>2016-07-06T17:17:02Z</time>
        <sat>10</sat>
      </trkpt>
      <trkpt lat="43.449597" lon="10.911087">
        <ele>226.8</ele>
        <time>2016-07-06T17:17:03Z</time>
        <sat>10</sat>
      </trkpt>
      <trkpt lat="43.449746" lon="10.911164">
        <ele>227.3</ele>
        <time>2016-07-06T17:17:04Z</time>
        <sat>10</sat>
      </trkpt>
      <trkpt lat="43.449873" lon="10.911232">
        <ele>228.1</ele>
        <time>2016-07-06T17:17:05Z</time>
        <sat>10</sat>
      </trkpt>
      <trkpt lat="43.449983" lon="10.911295">
        <ele>228.6</ele>
        <time>2016-07-06T17:17:06Z</time>
        <sat>10</sat>
      </trkpt>
      <trkpt lat="43.450086" lon="10.911352">
        <ele>229.2</ele>
        <time>2016-07-06T17:17:07Z</time>
        <sat>10</sat>
      </trkpt>
      <trkpt lat="43.450188" lon="10.911411">
        <ele>229.7</ele>
        <time>2016-07-06T17:17:08Z</time>
        <sat>10</sat>
      </trkpt>
      <trkpt lat="43.450284" lon="10.911469">
        <ele>230.3</ele>
        <time>2016-07-06T17:17:09Z</time>
        <sat>10</sat>
      </trkpt>
      <trkpt lat="43.450367" lon="10.911520">
        <ele>230.8</ele>
        <time>2016-07-06T17:17:10Z</time>
        <sat>10</sat>
      </trkpt>
      <trkpt lat="43.450512" lon="10.911626">
        <ele>232.1</ele>
        <time>2016-07-06T17:17:12Z</time>
        <sat>10</sat>
      </trkpt>
      <trkpt lat="43.450734" lon="10.911864">
        <ele>234.9</ele>
        <time>2016-07-06T17:17:16Z</time>
        <sat>10</sat>
      </trkpt>
      <trkpt lat="43.450876" lon="10.911959">
        <ele>236.0</ele>
        <time>2016-07-06T17:17:18Z</time>
        <sat>10</sat>
      </trkpt>
      <trkpt lat="43.451055" lon="10.911968">
        <ele>237.6</ele>
        <time>2016-07-06T17:17:20Z</time>
        <sat>10</sat>
      </trkpt>
      <trkpt lat="43.451160" lon="10.911967">
        <ele>238.3</ele>
        <time>2016-07-06T17:17:21Z</time>
        <sat>10</sat>
      </trkpt>
      <trkpt lat="43.451266" lon="10.911980">
        <ele>239.1</ele>
        <time>2016-07-06T17:17:22Z</time>
        <sat>10</sat>
      </trkpt>
      <trkpt lat="43.451367" lon="10.912012">
        <ele>239.5</ele>
        <time>2016-07-06T17:17:23Z</time>
        <sat>10</sat>
      </trkpt>
      <trkpt lat="43.451472" lon="10.912048">
        <ele>239.9</ele>
        <time>2016-07-06T17:17:24Z</time>
        <sat>10</sat>
      </trkpt>
      <trkpt lat="43.451588" lon="10.912080">
        <ele>240.1</ele>
        <time>2016-07-06T17:17:25Z</time>
        <sat>10</sat>
      </trkpt>
      <trkpt lat="43.451708" lon="10.912101">
        <ele>240.2</ele>
        <time>2016-07-06T17:17:26Z</time>
        <sat>10</sat>
      </trkpt>
      <trkpt lat="43.451834" lon="10.912111">
        <ele>240.4</ele>
        <time>2016-07-06T17:17:27Z</time>
        <sat>10</sat>
      </trkpt>
      <trkpt lat="43.451965" lon="10.912113">
        <ele>240.6</ele>
        <time>2016-07-06T17:17:28Z</time>
        <sat>10</sat>
      </trkpt>
      <trkpt lat="43.452093" lon="10.912118">
        <ele>240.8</ele>
        <time>2016-07-06T17:17:29Z</time>
        <sat>10</sat>
      </trkpt>
      <trkpt lat="43.452222" lon="10.912137">
        <ele>241.0</ele>
        <time>2016-07-06T17:17:30Z</time>
        <sat>10</sat>
      </trkpt>
      <trkpt lat="43.452352" lon="10.912173">
        <ele>241.3</ele>
        <time>2016-07-06T17:17:31Z</time>
        <sat>10</sat>
      </trkpt>
      <trkpt lat="43.452476" lon="10.912226">
        <ele>241.7</ele>
        <time>2016-07-06T17:17:32Z</time>
        <sat>10</sat>
      </trkpt>
      <trkpt lat="43.452599" lon="10.912283">
        <ele>241.8</ele>
        <time>2016-07-06T17:17:33Z</time>
        <sat>10</sat>
      </trkpt>
      <trkpt lat="43.452729" lon="10.912316">
        <ele>242.0</ele>
        <time>2016-07-06T17:17:34Z</time>
        <sat>9</sat>
      </trkpt>
      <trkpt lat="43.452867" lon="10.912318">
        <ele>242.3</ele>
        <time>2016-07-06T17:17:35Z</time>
        <sat>10</sat>
      </trkpt>
      <trkpt lat="43.453002" lon="10.912302">
        <ele>242.8</ele>
        <time>2016-07-06T17:17:36Z</time>
        <sat>10</sat>
      </trkpt>
      <trkpt lat="43.453125" lon="10.912278">
        <ele>243.2</ele>
        <time>2016-07-06T17:17:37Z</time>
        <sat>10</sat>
      </trkpt>
      <trkpt lat="43.453240" lon="10.912250">
        <ele>243.6</ele>
        <time>2016-07-06T17:17:38Z</time>
        <sat>10</sat>
      </trkpt>
      <trkpt lat="43.453356" lon="10.912215">
        <ele>243.9</ele>
        <time>2016-07-06T17:17:39Z</time>
        <sat>10</sat>
      </trkpt>
      <trkpt lat="43.453467" lon="10.912181">
        <ele>244.3</ele>
        <time>2016-07-06T17:17:40Z</time>
        <sat>10</sat>
      </trkpt>
      <trkpt lat="43.453565" lon="10.912156">
        <ele>244.8</ele>
        <time>2016-07-06T17:17:41Z</time>
        <sat>10</sat>
      </trkpt>
      <trkpt lat="43.453726" lon="10.912143">
        <ele>245.1</ele>
        <time>2016-07-06T17:17:43Z</time>
        <sat>10</sat>
      </trkpt>
      <trkpt lat="43.453891" lon="10.912179">
        <ele>244.8</ele>
        <time>2016-07-06T17:17:45Z</time>
        <sat>10</sat>
      </trkpt>
      <trkpt lat="43.453986" lon="10.912216">
        <ele>244.4</ele>
        <time>2016-07-06T17:17:46Z</time>
        <sat>10</sat>
      </trkpt>
      <trkpt lat="43.454090" lon="10.912253">
        <ele>243.6</ele>
        <time>2016-07-06T17:17:47Z</time>
        <sat>10</sat>
      </trkpt>
      <trkpt lat="43.454193" lon="10.912279">
        <ele>242.8</ele>
        <time>2016-07-06T17:17:48Z</time>
        <sat>10</sat>
      </trkpt>
      <trkpt lat="43.454298" lon="10.912291">
        <ele>242.0</ele>
        <time>2016-07-06T17:17:49Z</time>
        <sat>10</sat>
      </trkpt>
      <trkpt lat="43.454406" lon="10.912290">
        <ele>241.2</ele>
        <time>2016-07-06T17:17:50Z</time>
        <sat>10</sat>
      </trkpt>
      <trkpt lat="43.454510" lon="10.912275">
        <ele>240.3</ele>
        <time>2016-07-06T17:17:51Z</time>
        <sat>10</sat>
      </trkpt>
      <trkpt lat="43.454612" lon="10.912246">
        <ele>239.1</ele>
        <time>2016-07-06T17:17:52Z</time>
        <sat>10</sat>
      </trkpt>
      <trkpt lat="43.454716" lon="10.912202">
        <ele>237.7</ele>
        <time>2016-07-06T17:17:53Z</time>
        <sat>10</sat>
      </trkpt>
      <trkpt lat="43.454817" lon="10.912148">
        <ele>236.6</ele>
        <time>2016-07-06T17:17:54Z</time>
        <sat>10</sat>
      </trkpt>
      <trkpt lat="43.454909" lon="10.912092">
        <ele>235.8</ele>
        <time>2016-07-06T17:17:55Z</time>
        <sat>7</sat>
      </trkpt>
      <trkpt lat="43.455005" lon="10.912039">
        <ele>235.1</ele>
        <time>2016-07-06T17:17:56Z</time>
        <sat>10</sat>
      </trkpt>
      <trkpt lat="43.455110" lon="10.912001">
        <ele>234.1</ele>
        <time>2016-07-06T17:17:57Z</time>
        <sat>10</sat>
      </trkpt>
      <trkpt lat="43.455221" lon="10.911974">
        <ele>232.9</ele>
        <time>2016-07-06T17:17:58Z</time>
        <sat>10</sat>
      </trkpt>
      <trkpt lat="43.455331" lon="10.911951">
        <ele>231.6</ele>
        <time>2016-07-06T17:17:59Z</time>
        <sat>10</sat>
      </trkpt>
      <trkpt lat="43.455437" lon="10.911927">
        <ele>230.4</ele>
        <time>2016-07-06T17:18:00Z</time>
        <sat>10</sat>
      </trkpt>
      <trkpt lat="43.455540" lon="10.911903">
        <ele>229.3</ele>
        <time>2016-07-06T17:18:01Z</time>
        <sat>10</sat>
      </trkpt>
      <trkpt lat="43.455647" lon="10.911872">
        <ele>228.3</ele>
        <time>2016-07-06T17:18:02Z</time>
        <sat>10</sat>
      </trkpt>
      <trkpt lat="43.455758" lon="10.911832">
        <ele>227.0</ele>
        <time>2016-07-06T17:18:03Z</time>
        <sat>10</sat>
      </trkpt>
      <trkpt lat="43.455867" lon="10.911791">
        <ele>225.7</ele>
        <time>2016-07-06T17:18:04Z</time>
        <sat>10</sat>
      </trkpt>
      <trkpt lat="43.455965" lon="10.911754">
        <ele>224.4</ele>
        <time>2016-07-06T17:18:05Z</time>
        <sat>10</sat>
      </trkpt>
      <trkpt lat="43.456053" lon="10.911722">
        <ele>223.0</ele>
        <time>2016-07-06T17:18:06Z</time>
        <sat>10</sat>
      </trkpt>
      <trkpt lat="43.456200" lon="10.911660">
        <ele>220.9</ele>
        <time>2016-07-06T17:18:08Z</time>
        <sat>10</sat>
      </trkpt>
      <trkpt lat="43.456317" lon="10.911594">
        <ele>219.8</ele>
        <time>2016-07-06T17:18:10Z</time>
        <sat>10</sat>
      </trkpt>
      <trkpt lat="43.456423" lon="10.911530">
        <ele>219.3</ele>
        <time>2016-07-06T17:18:12Z</time>
        <sat>10</sat>
      </trkpt>
      <trkpt lat="43.456550" lon="10.911534">
        <ele>218.5</ele>
        <time>2016-07-06T17:18:14Z</time>
        <sat>10</sat>
      </trkpt>
      <trkpt lat="43.456839" lon="10.911729">
        <ele>216.6</ele>
        <time>2016-07-06T17:18:17Z</time>
        <sat>10</sat>
      </trkpt>
      <trkpt lat="43.456956" lon="10.911814">
        <ele>215.9</ele>
        <time>2016-07-06T17:18:18Z</time>
        <sat>10</sat>
      </trkpt>
      <trkpt lat="43.457080" lon="10.911901">
        <ele>215.1</ele>
        <time>2016-07-06T17:18:19Z</time>
        <sat>10</sat>
      </trkpt>
      <trkpt lat="43.457205" lon="10.911989">
        <ele>214.5</ele>
        <time>2016-07-06T17:18:20Z</time>
        <sat>10</sat>
      </trkpt>
      <trkpt lat="43.457324" lon="10.912074">
        <ele>213.8</ele>
        <time>2016-07-06T17:18:21Z</time>
        <sat>10</sat>
      </trkpt>
      <trkpt lat="43.457443" lon="10.912160">
        <ele>212.9</ele>
        <time>2016-07-06T17:18:22Z</time>
        <sat>10</sat>
      </trkpt>
      <trkpt lat="43.457566" lon="10.912250">
        <ele>212.1</ele>
        <time>2016-07-06T17:18:23Z</time>
        <sat>10</sat>
      </trkpt>
      <trkpt lat="43.457692" lon="10.912340">
        <ele>211.3</ele>
        <time>2016-07-06T17:18:24Z</time>
        <sat>10</sat>
      </trkpt>
      <trkpt lat="43.457814" lon="10.912426">
        <ele>210.5</ele>
        <time>2016-07-06T17:18:25Z</time>
        <sat>10</sat>
      </trkpt>
      <trkpt lat="43.457935" lon="10.912512">
        <ele>209.7</ele>
        <time>2016-07-06T17:18:26Z</time>
        <sat>10</sat>
      </trkpt>
      <trkpt lat="43.458051" lon="10.912595">
        <ele>208.9</ele>
        <time>2016-07-06T17:18:27Z</time>
        <sat>9</sat>
      </trkpt>
      <trkpt lat="43.458153" lon="10.912669">
        <ele>208.1</ele>
        <time>2016-07-06T17:18:28Z</time>
        <sat>9</sat>
      </trkpt>
      <trkpt lat="43.458239" lon="10.912730">
        <ele>207.3</ele>
        <time>2016-07-06T17:18:29Z</time>
        <sat>9</sat>
      </trkpt>
      <trkpt lat="43.458389" lon="10.912858">
        <ele>205.8</ele>
        <time>2016-07-06T17:18:31Z</time>
        <sat>10</sat>
      </trkpt>
      <trkpt lat="43.458500" lon="10.913036">
        <ele>204.7</ele>
        <time>2016-07-06T17:18:33Z</time>
        <sat>10</sat>
      </trkpt>
      <trkpt lat="43.458537" lon="10.913151">
        <ele>204.2</ele>
        <time>2016-07-06T17:18:34Z</time>
        <sat>10</sat>
      </trkpt>
      <trkpt lat="43.458560" lon="10.913287">
        <ele>203.4</ele>
        <time>2016-07-06T17:18:35Z</time>
        <sat>10</sat>
      </trkpt>
      <trkpt lat="43.458569" lon="10.913438">
        <ele>202.7</ele>
        <time>2016-07-06T17:18:36Z</time>
        <sat>10</sat>
      </trkpt>
      <trkpt lat="43.458567" lon="10.913598">
        <ele>201.7</ele>
        <time>2016-07-06T17:18:37Z</time>
        <sat>10</sat>
      </trkpt>
      <trkpt lat="43.458562" lon="10.913763">
        <ele>200.4</ele>
        <time>2016-07-06T17:18:38Z</time>
        <sat>10</sat>
      </trkpt>
      <trkpt lat="43.458558" lon="10.913925">
        <ele>199.5</ele>
        <time>2016-07-06T17:18:39Z</time>
        <sat>10</sat>
      </trkpt>
      <trkpt lat="43.458557" lon="10.914076">
        <ele>198.5</ele>
        <time>2016-07-06T17:18:40Z</time>
        <sat>10</sat>
      </trkpt>
      <trkpt lat="43.458558" lon="10.914219">
        <ele>197.7</ele>
        <time>2016-07-06T17:18:41Z</time>
        <sat>10</sat>
      </trkpt>
      <trkpt lat="43.458561" lon="10.914356">
        <ele>196.9</ele>
        <time>2016-07-06T17:18:42Z</time>
        <sat>10</sat>
      </trkpt>
      <trkpt lat="43.458563" lon="10.914486">
        <ele>196.1</ele>
        <time>2016-07-06T17:18:43Z</time>
        <sat>10</sat>
      </trkpt>
      <trkpt lat="43.458570" lon="10.914733">
        <ele>194.7</ele>
        <time>2016-07-06T17:18:45Z</time>
        <sat>10</sat>
      </trkpt>
      <trkpt lat="43.458605" lon="10.914967">
        <ele>193.3</ele>
        <time>2016-07-06T17:18:47Z</time>
        <sat>10</sat>
      </trkpt>
      <trkpt lat="43.458692" lon="10.915166">
        <ele>191.7</ele>
        <time>2016-07-06T17:18:49Z</time>
        <sat>10</sat>
      </trkpt>
      <trkpt lat="43.458825" lon="10.915313">
        <ele>190.3</ele>
        <time>2016-07-06T17:18:51Z</time>
        <sat>10</sat>
      </trkpt>
      <trkpt lat="43.458978" lon="10.915371">
        <ele>188.8</ele>
        <time>2016-07-06T17:18:53Z</time>
        <sat>10</sat>
      </trkpt>
      <trkpt lat="43.459141" lon="10.915312">
        <ele>187.0</ele>
        <time>2016-07-06T17:18:55Z</time>
        <sat>9</sat>
      </trkpt>
      <trkpt lat="43.459298" lon="10.915264">
        <ele>185.1</ele>
        <time>2016-07-06T17:18:57Z</time>
        <sat>10</sat>
      </trkpt>
      <trkpt lat="43.459445" lon="10.915292">
        <ele>184.1</ele>
        <time>2016-07-06T17:18:59Z</time>
        <sat>10</sat>
      </trkpt>
      <trkpt lat="43.459583" lon="10.915417">
        <ele>182.4</ele>
        <time>2016-07-06T17:19:01Z</time>
        <sat>10</sat>
      </trkpt>
      <trkpt lat="43.459645" lon="10.915518">
        <ele>181.6</ele>
        <time>2016-07-06T17:19:02Z</time>
        <sat>10</sat>
      </trkpt>
      <trkpt lat="43.459705" lon="10.915619">
        <ele>180.8</ele>
        <time>2016-07-06T17:19:03Z</time>
        <sat>10</sat>
      </trkpt>
      <trkpt lat="43.459769" lon="10.915717">
        <ele>180.1</ele>
        <time>2016-07-06T17:19:04Z</time>
        <sat>10</sat>
      </trkpt>
      <trkpt lat="43.459838" lon="10.915804">
        <ele>179.4</ele>
        <time>2016-07-06T17:19:05Z</time>
        <sat>10</sat>
      </trkpt>
      <trkpt lat="43.459978" lon="10.915923">
        <ele>177.4</ele>
        <time>2016-07-06T17:19:07Z</time>
        <sat>10</sat>
      </trkpt>
      <trkpt lat="43.460067" lon="10.915954">
        <ele>176.4</ele>
        <time>2016-07-06T17:19:08Z</time>
        <sat>10</sat>
      </trkpt>
      <trkpt lat="43.460161" lon="10.915962">
        <ele>175.3</ele>
        <time>2016-07-06T17:19:09Z</time>
        <sat>10</sat>
      </trkpt>
      <trkpt lat="43.460256" lon="10.915941">
        <ele>174.1</ele>
        <time>2016-07-06T17:19:10Z</time>
        <sat>10</sat>
      </trkpt>
      <trkpt lat="43.460349" lon="10.915888">
        <ele>172.9</ele>
        <time>2016-07-06T17:19:11Z</time>
        <sat>10</sat>
      </trkpt>
      <trkpt lat="43.460432" lon="10.915816">
        <ele>171.7</ele>
        <time>2016-07-06T17:19:12Z</time>
        <sat>7</sat>
      </trkpt>
      <trkpt lat="43.460565" lon="10.915699">
        <ele>169.6</ele>
        <time>2016-07-06T17:19:14Z</time>
        <sat>10</sat>
      </trkpt>
      <trkpt lat="43.460711" lon="10.915722">
        <ele>167.6</ele>
        <time>2016-07-06T17:19:16Z</time>
        <sat>10</sat>
      </trkpt>
      <trkpt lat="43.460898" lon="10.915823">
        <ele>164.0</ele>
        <time>2016-07-06T17:19:18Z</time>
        <sat>9</sat>
      </trkpt>
      <trkpt lat="43.461098" lon="10.915877">
        <ele>160.3</ele>
        <time>2016-07-06T17:19:20Z</time>
        <sat>10</sat>
      </trkpt>
      <trkpt lat="43.461225" lon="10.915865">
        <ele>159.3</ele>
        <time>2016-07-06T17:19:21Z</time>
        <sat>8</sat>
      </trkpt>
      <trkpt lat="43.461351" lon="10.915835">
        <ele>158.0</ele>
        <time>2016-07-06T17:19:22Z</time>
        <sat>9</sat>
      </trkpt>
      <trkpt lat="43.461476" lon="10.915799">
        <ele>155.5</ele>
        <time>2016-07-06T17:19:23Z</time>
        <sat>9</sat>
      </trkpt>
      <trkpt lat="43.461596" lon="10.915759">
        <ele>153.2</ele>
        <time>2016-07-06T17:19:24Z</time>
        <sat>9</sat>
      </trkpt>
      <trkpt lat="43.461717" lon="10.915721">
        <ele>151.5</ele>
        <time>2016-07-06T17:19:25Z</time>
        <sat>9</sat>
      </trkpt>
      <trkpt lat="43.461846" lon="10.915688">
        <ele>151.1</ele>
        <time>2016-07-06T17:19:26Z</time>
        <sat>9</sat>
      </trkpt>
      <trkpt lat="43.461993" lon="10.915660">
        <ele>151.1</ele>
        <time>2016-07-06T17:19:27Z</time>
        <sat>9</sat>
      </trkpt>
      <trkpt lat="43.462124" lon="10.915645">
        <ele>150.0</ele>
        <time>2016-07-06T17:19:28Z</time>
        <sat>8</sat>
      </trkpt>
      <trkpt lat="43.462253" lon="10.915622">
        <ele>149.0</ele>
        <time>2016-07-06T17:19:29Z</time>
        <sat>9</sat>
      </trkpt>
      <trkpt lat="43.462372" lon="10.915591">
        <ele>148.9</ele>
        <time>2016-07-06T17:19:30Z</time>
        <sat>9</sat>
      </trkpt>
      <trkpt lat="43.462487" lon="10.915547">
        <ele>148.3</ele>
        <time>2016-07-06T17:19:31Z</time>
        <sat>9</sat>
      </trkpt>
      <trkpt lat="43.462608" lon="10.915485">
        <ele>146.7</ele>
        <time>2016-07-06T17:19:32Z</time>
        <sat>9</sat>
      </trkpt>
      <trkpt lat="43.462721" lon="10.915418">
        <ele>145.9</ele>
        <time>2016-07-06T17:19:33Z</time>
        <sat>9</sat>
      </trkpt>
      <trkpt lat="43.462822" lon="10.915343">
        <ele>145.4</ele>
        <time>2016-07-06T17:19:34Z</time>
        <sat>9</sat>
      </trkpt>
      <trkpt lat="43.462918" lon="10.915259">
        <ele>144.1</ele>
        <time>2016-07-06T17:19:35Z</time>
        <sat>9</sat>
      </trkpt>
      <trkpt lat="43.463006" lon="10.915165">
        <ele>143.5</ele>
        <time>2016-07-06T17:19:36Z</time>
        <sat>9</sat>
      </trkpt>
      <trkpt lat="43.463092" lon="10.915053">
        <ele>142.8</ele>
        <time>2016-07-06T17:19:37Z</time>
        <sat>8</sat>
      </trkpt>
      <trkpt lat="43.463172" lon="10.914927">
        <ele>142.1</ele>
        <time>2016-07-06T17:19:38Z</time>
        <sat>8</sat>
      </trkpt>
      <trkpt lat="43.463251" lon="10.914782">
        <ele>141.1</ele>
        <time>2016-07-06T17:19:39Z</time>
        <sat>9</sat>
      </trkpt>
      <trkpt lat="43.463332" lon="10.914630">
        <ele>140.0</ele>
        <time>2016-07-06T17:19:40Z</time>
        <sat>8</sat>
      </trkpt>
      <trkpt lat="43.463411" lon="10.914486">
        <ele>138.9</ele>
        <time>2016-07-06T17:19:41Z</time>
        <sat>9</sat>
      </trkpt>
      <trkpt lat="43.463485" lon="10.914342">
        <ele>137.5</ele>
        <time>2016-07-06T17:19:42Z</time>
        <sat>9</sat>
      </trkpt>
      <trkpt lat="43.463554" lon="10.914198">
        <ele>136.7</ele>
        <time>2016-07-06T17:19:43Z</time>
        <sat>9</sat>
      </trkpt>
      <trkpt lat="43.463625" lon="10.914067">
        <ele>134.7</ele>
        <time>2016-07-06T17:19:44Z</time>
        <sat>8</sat>
      </trkpt>
      <trkpt lat="43.463695" lon="10.913957">
        <ele>133.5</ele>
        <time>2016-07-06T17:19:45Z</time>
        <sat>9</sat>
      </trkpt>
      <trkpt lat="43.463763" lon="10.913873">
        <ele>132.5</ele>
        <time>2016-07-06T17:19:46Z</time>
        <sat>9</sat>
      </trkpt>
      <trkpt lat="43.463911" lon="10.913806">
        <ele>130.6</ele>
        <time>2016-07-06T17:19:48Z</time>
        <sat>9</sat>
      </trkpt>
      <trkpt lat="43.464011" lon="10.913827">
        <ele>130.0</ele>
        <time>2016-07-06T17:19:49Z</time>
        <sat>9</sat>
      </trkpt>
      <trkpt lat="43.464111" lon="10.913872">
        <ele>129.4</ele>
        <time>2016-07-06T17:19:50Z</time>
        <sat>9</sat>
      </trkpt>
      <trkpt lat="43.464216" lon="10.913922">
        <ele>129.8</ele>
        <time>2016-07-06T17:19:51Z</time>
        <sat>9</sat>
      </trkpt>
      <trkpt lat="43.464332" lon="10.913964">
        <ele>132.9</ele>
        <time>2016-07-06T17:19:52Z</time>
        <sat>9</sat>
      </trkpt>
      <trkpt lat="43.464448" lon="10.913946">
        <ele>133.8</ele>
        <time>2016-07-06T17:19:53Z</time>
        <sat>9</sat>
      </trkpt>
      <trkpt lat="43.464561" lon="10.913891">
        <ele>134.2</ele>
        <time>2016-07-06T17:19:54Z</time>
        <sat>9</sat>
      </trkpt>
      <trkpt lat="43.464675" lon="10.913801">
        <ele>134.7</ele>
        <time>2016-07-06T17:19:55Z</time>
        <sat>9</sat>
      </trkpt>
      <trkpt lat="43.464788" lon="10.913690">
        <ele>134.1</ele>
        <time>2016-07-06T17:19:56Z</time>
        <sat>9</sat>
      </trkpt>
      <trkpt lat="43.464899" lon="10.913571">
        <ele>132.8</ele>
        <time>2016-07-06T17:19:57Z</time>
        <sat>10</sat>
      </trkpt>
      <trkpt lat="43.465010" lon="10.913448">
        <ele>131.8</ele>
        <time>2016-07-06T17:19:58Z</time>
        <sat>10</sat>
      </trkpt>
      <trkpt lat="43.465120" lon="10.913329">
        <ele>130.8</ele>
        <time>2016-07-06T17:19:59Z</time>
        <sat>10</sat>
      </trkpt>
      <trkpt lat="43.465225" lon="10.913222">
        <ele>129.8</ele>
        <time>2016-07-06T17:20:00Z</time>
        <sat>10</sat>
      </trkpt>
      <trkpt lat="43.465332" lon="10.913127">
        <ele>129.3</ele>
        <time>2016-07-06T17:20:01Z</time>
        <sat>10</sat>
      </trkpt>
      <trkpt lat="43.465447" lon="10.913057">
        <ele>128.8</ele>
        <time>2016-07-06T17:20:02Z</time>
        <sat>10</sat>
      </trkpt>
      <trkpt lat="43.465574" lon="10.913018">
        <ele>128.0</ele>
        <time>2016-07-06T17:20:03Z</time>
        <sat>10</sat>
      </trkpt>
      <trkpt lat="43.465711" lon="10.913010">
        <ele>127.6</ele>
        <time>2016-07-06T17:20:04Z</time>
        <sat>10</sat>
      </trkpt>
      <trkpt lat="43.465858" lon="10.913026">
        <ele>127.9</ele>
        <time>2016-07-06T17:20:05Z</time>
        <sat>10</sat>
      </trkpt>
      <trkpt lat="43.466017" lon="10.913051">
        <ele>127.6</ele>
        <time>2016-07-06T17:20:06Z</time>
        <sat>10</sat>
      </trkpt>
      <trkpt lat="43.466180" lon="10.913081">
        <ele>127.6</ele>
        <time>2016-07-06T17:20:07Z</time>
        <sat>10</sat>
      </trkpt>
      <trkpt lat="43.466341" lon="10.913108">
        <ele>127.1</ele>
        <time>2016-07-06T17:20:08Z</time>
        <sat>10</sat>
      </trkpt>
      <trkpt lat="43.466494" lon="10.913134">
        <ele>126.6</ele>
        <time>2016-07-06T17:20:09Z</time>
        <sat>10</sat>
      </trkpt>
      <trkpt lat="43.466642" lon="10.913154">
        <ele>126.5</ele>
        <time>2016-07-06T17:20:10Z</time>
        <sat>10</sat>
      </trkpt>
      <trkpt lat="43.466789" lon="10.913165">
        <ele>126.9</ele>
        <time>2016-07-06T17:20:11Z</time>
        <sat>9</sat>
      </trkpt>
      <trkpt lat="43.466930" lon="10.913152">
        <ele>126.8</ele>
        <time>2016-07-06T17:20:12Z</time>
        <sat>10</sat>
      </trkpt>
      <trkpt lat="43.467060" lon="10.913121">
        <ele>126.9</ele>
        <time>2016-07-06T17:20:13Z</time>
        <sat>9</sat>
      </trkpt>
      <trkpt lat="43.467179" lon="10.913088">
        <ele>126.9</ele>
        <time>2016-07-06T17:20:14Z</time>
        <sat>10</sat>
      </trkpt>
      <trkpt lat="43.467287" lon="10.913055">
        <ele>126.8</ele>
        <time>2016-07-06T17:20:15Z</time>
        <sat>10</sat>
      </trkpt>
      <trkpt lat="43.467382" lon="10.913031">
        <ele>126.9</ele>
        <time>2016-07-06T17:20:16Z</time>
        <sat>10</sat>
      </trkpt>
      <trkpt lat="43.467547" lon="10.913058">
        <ele>126.6</ele>
        <time>2016-07-06T17:20:18Z</time>
        <sat>10</sat>
      </trkpt>
      <trkpt lat="43.467719" lon="10.913324">
        <ele>128.4</ele>
        <time>2016-07-06T17:20:21Z</time>
        <sat>10</sat>
      </trkpt>
      <trkpt lat="43.467753" lon="10.913480">
        <ele>129.1</ele>
        <time>2016-07-06T17:20:22Z</time>
        <sat>10</sat>
      </trkpt>
      <trkpt lat="43.467777" lon="10.913672">
        <ele>129.7</ele>
        <time>2016-07-06T17:20:23Z</time>
        <sat>10</sat>
      </trkpt>
      <trkpt lat="43.467795" lon="10.913888">
        <ele>130.1</ele>
        <time>2016-07-06T17:20:24Z</time>
        <sat>10</sat>
      </trkpt>
      <trkpt lat="43.467816" lon="10.914106">
        <ele>130.2</ele>
        <time>2016-07-06T17:20:25Z</time>
        <sat>10</sat>
      </trkpt>
      <trkpt lat="43.467838" lon="10.914321">
        <ele>130.4</ele>
        <time>2016-07-06T17:20:26Z</time>
        <sat>10</sat>
      </trkpt>
      <trkpt lat="43.467859" lon="10.914538">
        <ele>131.0</ele>
        <time>2016-07-06T17:20:27Z</time>
        <sat>10</sat>
      </trkpt>
      <trkpt lat="43.467879" lon="10.914760">
        <ele>132.0</ele>
        <time>2016-07-06T17:20:28Z</time>
        <sat>10</sat>
      </trkpt>
      <trkpt lat="43.467893" lon="10.914984">
        <ele>133.1</ele>
        <time>2016-07-06T17:20:29Z</time>
        <sat>9</sat>
      </trkpt>
      <trkpt lat="43.467889" lon="10.915203">
        <ele>134.5</ele>
        <time>2016-07-06T17:20:30Z</time>
        <sat>10</sat>
      </trkpt>
      <trkpt lat="43.467868" lon="10.915423">
        <ele>135.3</ele>
        <time>2016-07-06T17:20:31Z</time>
        <sat>10</sat>
      </trkpt>
      <trkpt lat="43.467831" lon="10.915646">
        <ele>137.2</ele>
        <time>2016-07-06T17:20:32Z</time>
        <sat>10</sat>
      </trkpt>
      <trkpt lat="43.467793" lon="10.915850">
        <ele>138.4</ele>
        <time>2016-07-06T17:20:33Z</time>
        <sat>9</sat>
      </trkpt>
      <trkpt lat="43.467758" lon="10.916029">
        <ele>139.6</ele>
        <time>2016-07-06T17:20:34Z</time>
        <sat>10</sat>
      </trkpt>
      <trkpt lat="43.467729" lon="10.916203">
        <ele>140.7</ele>
        <time>2016-07-06T17:20:35Z</time>
        <sat>10</sat>
      </trkpt>
      <trkpt lat="43.467719" lon="10.916367">
        <ele>142.0</ele>
        <time>2016-07-06T17:20:36Z</time>
        <sat>10</sat>
      </trkpt>
      <trkpt lat="43.467740" lon="10.916516">
        <ele>143.4</ele>
        <time>2016-07-06T17:20:37Z</time>
        <sat>10</sat>
      </trkpt>
      <trkpt lat="43.467789" lon="10.916656">
        <ele>143.9</ele>
        <time>2016-07-06T17:20:38Z</time>
        <sat>10</sat>
      </trkpt>
      <trkpt lat="43.467864" lon="10.916783">
        <ele>144.5</ele>
        <time>2016-07-06T17:20:39Z</time>
        <sat>10</sat>
      </trkpt>
      <trkpt lat="43.467965" lon="10.916898">
        <ele>145.6</ele>
        <time>2016-07-06T17:20:40Z</time>
        <sat>10</sat>
      </trkpt>
      <trkpt lat="43.468081" lon="10.917002">
        <ele>147.0</ele>
        <time>2016-07-06T17:20:41Z</time>
        <sat>10</sat>
      </trkpt>
      <trkpt lat="43.468208" lon="10.917091">
        <ele>148.1</ele>
        <time>2016-07-06T17:20:42Z</time>
        <sat>10</sat>
      </trkpt>
      <trkpt lat="43.468342" lon="10.917155">
        <ele>149.2</ele>
        <time>2016-07-06T17:20:43Z</time>
        <sat>10</sat>
      </trkpt>
      <trkpt lat="43.468481" lon="10.917198">
        <ele>150.2</ele>
        <time>2016-07-06T17:20:44Z</time>
        <sat>10</sat>
      </trkpt>
      <trkpt lat="43.468624" lon="10.917221">
        <ele>151.2</ele>
        <time>2016-07-06T17:20:45Z</time>
        <sat>10</sat>
      </trkpt>
      <trkpt lat="43.468759" lon="10.917228">
        <ele>152.3</ele>
        <time>2016-07-06T17:20:46Z</time>
        <sat>10</sat>
      </trkpt>
      <trkpt lat="43.468893" lon="10.917228">
        <ele>153.5</ele>
        <time>2016-07-06T17:20:47Z</time>
        <sat>10</sat>
      </trkpt>
      <trkpt lat="43.469032" lon="10.917228">
        <ele>154.5</ele>
        <time>2016-07-06T17:20:48Z</time>
        <sat>10</sat>
      </trkpt>
      <trkpt lat="43.469175" lon="10.917227">
        <ele>155.6</ele>
        <time>2016-07-06T17:20:49Z</time>
        <sat>9</sat>
      </trkpt>
      <trkpt lat="43.469319" lon="10.917226">
        <ele>156.8</ele>
        <time>2016-07-06T17:20:50Z</time>
        <sat>10</sat>
      </trkpt>
      <trkpt lat="43.469459" lon="10.917227">
        <ele>158.1</ele>
        <time>2016-07-06T17:20:51Z</time>
        <sat>10</sat>
      </trkpt>
      <trkpt lat="43.469590" lon="10.917228">
        <ele>159.4</ele>
        <time>2016-07-06T17:20:52Z</time>
        <sat>10</sat>
      </trkpt>
      <trkpt lat="43.469707" lon="10.917230">
        <ele>160.6</ele>
        <time>2016-07-06T17:20:53Z</time>
        <sat>10</sat>
      </trkpt>
      <trkpt lat="43.469812" lon="10.917242">
        <ele>161.6</ele>
        <time>2016-07-06T17:20:54Z</time>
        <sat>10</sat>
      </trkpt>
      <trkpt lat="43.469900" lon="10.917278">
        <ele>162.5</ele>
        <time>2016-07-06T17:20:55Z</time>
        <sat>10</sat>
      </trkpt>
      <trkpt lat="43.470011" lon="10.917429">
        <ele>164.4</ele>
        <time>2016-07-06T17:20:57Z</time>
        <sat>10</sat>
      </trkpt>
      <trkpt lat="43.470035" lon="10.917665">
        <ele>166.5</ele>
        <time>2016-07-06T17:20:59Z</time>
        <sat>10</sat>
      </trkpt>
      <trkpt lat="43.470021" lon="10.917815">
        <ele>167.4</ele>
        <time>2016-07-06T17:21:00Z</time>
        <sat>10</sat>
      </trkpt>
      <trkpt lat="43.469999" lon="10.917970">
        <ele>168.3</ele>
        <time>2016-07-06T17:21:01Z</time>
        <sat>10</sat>
      </trkpt>
      <trkpt lat="43.469983" lon="10.918120">
        <ele>169.1</ele>
        <time>2016-07-06T17:21:02Z</time>
        <sat>10</sat>
      </trkpt>
      <trkpt lat="43.469992" lon="10.918250">
        <ele>170.1</ele>
        <time>2016-07-06T17:21:03Z</time>
        <sat>10</sat>
      </trkpt>
      <trkpt lat="43.470089" lon="10.918436">
        <ele>171.9</ele>
        <time>2016-07-06T17:21:05Z</time>
        <sat>10</sat>
      </trkpt>
      <trkpt lat="43.470255" lon="10.918488">
        <ele>172.2</ele>
        <time>2016-07-06T17:21:07Z</time>
        <sat>10</sat>
      </trkpt>
      <trkpt lat="43.470348" lon="10.918451">
        <ele>171.9</ele>
        <time>2016-07-06T17:21:08Z</time>
        <sat>9</sat>
      </trkpt>
      <trkpt lat="43.470443" lon="10.918378">
        <ele>172.5</ele>
        <time>2016-07-06T17:21:09Z</time>
        <sat>10</sat>
      </trkpt>
      <trkpt lat="43.470540" lon="10.918282">
        <ele>173.0</ele>
        <time>2016-07-06T17:21:10Z</time>
        <sat>10</sat>
      </trkpt>
      <trkpt lat="43.470640" lon="10.918174">
        <ele>173.7</ele>
        <time>2016-07-06T17:21:11Z</time>
        <sat>10</sat>
      </trkpt>
      <trkpt lat="43.470744" lon="10.918059">
        <ele>174.4</ele>
        <time>2016-07-06T17:21:12Z</time>
        <sat>10</sat>
      </trkpt>
      <trkpt lat="43.470857" lon="10.917937">
        <ele>175.2</ele>
        <time>2016-07-06T17:21:13Z</time>
        <sat>10</sat>
      </trkpt>
      <trkpt lat="43.470976" lon="10.917811">
        <ele>176.1</ele>
        <time>2016-07-06T17:21:14Z</time>
        <sat>10</sat>
      </trkpt>
      <trkpt lat="43.471097" lon="10.917682">
        <ele>177.2</ele>
        <time>2016-07-06T17:21:15Z</time>
        <sat>10</sat>
      </trkpt>
      <trkpt lat="43.471218" lon="10.917549">
        <ele>178.8</ele>
        <time>2016-07-06T17:21:16Z</time>
        <sat>10</sat>
      </trkpt>
      <trkpt lat="43.471335" lon="10.917431">
        <ele>180.1</ele>
        <time>2016-07-06T17:21:17Z</time>
        <sat>10</sat>
      </trkpt>
      <trkpt lat="43.471439" lon="10.917333">
        <ele>181.4</ele>
        <time>2016-07-06T17:21:18Z</time>
        <sat>9</sat>
      </trkpt>
      <trkpt lat="43.471542" lon="10.917258">
        <ele>182.7</ele>
        <time>2016-07-06T17:21:19Z</time>
        <sat>10</sat>
      </trkpt>
      <trkpt lat="43.471649" lon="10.917209">
        <ele>184.3</ele>
        <time>2016-07-06T17:21:20Z</time>
        <sat>9</sat>
      </trkpt>
      <trkpt lat="43.471892" lon="10.917186">
        <ele>186.7</ele>
        <time>2016-07-06T17:21:22Z</time>
        <sat>10</sat>
      </trkpt>
      <trkpt lat="43.472015" lon="10.917225">
        <ele>187.9</ele>
        <time>2016-07-06T17:21:23Z</time>
        <sat>10</sat>
      </trkpt>
      <trkpt lat="43.472131" lon="10.917293">
        <ele>189.2</ele>
        <time>2016-07-06T17:21:24Z</time>
        <sat>9</sat>
      </trkpt>
      <trkpt lat="43.472237" lon="10.917390">
        <ele>190.2</ele>
        <time>2016-07-06T17:21:25Z</time>
        <sat>10</sat>
      </trkpt>
      <trkpt lat="43.472335" lon="10.917517">
        <ele>191.4</ele>
        <time>2016-07-06T17:21:26Z</time>
        <sat>9</sat>
      </trkpt>
      <trkpt lat="43.472428" lon="10.917674">
        <ele>192.5</ele>
        <time>2016-07-06T17:21:27Z</time>
        <sat>10</sat>
      </trkpt>
      <trkpt lat="43.472520" lon="10.917854">
        <ele>193.7</ele>
        <time>2016-07-06T17:21:28Z</time>
        <sat>9</sat>
      </trkpt>
      <trkpt lat="43.472618" lon="10.918053">
        <ele>195.5</ele>
        <time>2016-07-06T17:21:29Z</time>
        <sat>10</sat>
      </trkpt>
      <trkpt lat="43.472714" lon="10.918249">
        <ele>197.2</ele>
        <time>2016-07-06T17:21:30Z</time>
        <sat>10</sat>
      </trkpt>
      <trkpt lat="43.472798" lon="10.918428">
        <ele>198.6</ele>
        <time>2016-07-06T17:21:31Z</time>
        <sat>9</sat>
      </trkpt>
      <trkpt lat="43.472863" lon="10.918611">
        <ele>199.8</ele>
        <time>2016-07-06T17:21:32Z</time>
        <sat>9</sat>
      </trkpt>
      <trkpt lat="43.472905" lon="10.918807">
        <ele>201.2</ele>
        <time>2016-07-06T17:21:33Z</time>
        <sat>10</sat>
      </trkpt>
      <trkpt lat="43.472929" lon="10.919001">
        <ele>202.5</ele>
        <time>2016-07-06T17:21:34Z</time>
        <sat>10</sat>
      </trkpt>
      <trkpt lat="43.472950" lon="10.919182">
        <ele>203.6</ele>
        <time>2016-07-06T17:21:35Z</time>
        <sat>9</sat>
      </trkpt>
      <trkpt lat="43.472981" lon="10.919351">
        <ele>204.9</ele>
        <time>2016-07-06T17:21:36Z</time>
        <sat>10</sat>
      </trkpt>
      <trkpt lat="43.473029" lon="10.919511">
        <ele>206.2</ele>
        <time>2016-07-06T17:21:37Z</time>
        <sat>10</sat>
      </trkpt>
      <trkpt lat="43.473099" lon="10.919652">
        <ele>207.6</ele>
        <time>2016-07-06T17:21:38Z</time>
        <sat>10</sat>
      </trkpt>
      <trkpt lat="43.473191" lon="10.919779">
        <ele>209.1</ele>
        <time>2016-07-06T17:21:39Z</time>
        <sat>10</sat>
      </trkpt>
      <trkpt lat="43.473285" lon="10.919898">
        <ele>210.2</ele>
        <time>2016-07-06T17:21:40Z</time>
        <sat>9</sat>
      </trkpt>
      <trkpt lat="43.473365" lon="10.920024">
        <ele>211.2</ele>
        <time>2016-07-06T17:21:41Z</time>
        <sat>9</sat>
      </trkpt>
      <trkpt lat="43.473419" lon="10.920160">
        <ele>212.3</ele>
        <time>2016-07-06T17:21:42Z</time>
        <sat>9</sat>
      </trkpt>
      <trkpt lat="43.473444" lon="10.920315">
        <ele>213.3</ele>
        <time>2016-07-06T17:21:43Z</time>
        <sat>10</sat>
      </trkpt>
      <trkpt lat="43.473447" lon="10.920486">
        <ele>214.2</ele>
        <time>2016-07-06T17:21:44Z</time>
        <sat>9</sat>
      </trkpt>
      <trkpt lat="43.473435" lon="10.920670">
        <ele>215.4</ele>
        <time>2016-07-06T17:21:45Z</time>
        <sat>10</sat>
      </trkpt>
      <trkpt lat="43.473414" lon="10.920862">
        <ele>216.4</ele>
        <time>2016-07-06T17:21:46Z</time>
        <sat>10</sat>
      </trkpt>
      <trkpt lat="43.473381" lon="10.921060">
        <ele>217.1</ele>
        <time>2016-07-06T17:21:47Z</time>
        <sat>10</sat>
      </trkpt>
      <trkpt lat="43.473330" lon="10.921264">
        <ele>218.5</ele>
        <time>2016-07-06T17:21:48Z</time>
        <sat>10</sat>
      </trkpt>
      <trkpt lat="43.473257" lon="10.921469">
        <ele>219.9</ele>
        <time>2016-07-06T17:21:49Z</time>
        <sat>10</sat>
      </trkpt>
      <trkpt lat="43.473158" lon="10.921666">
        <ele>221.3</ele>
        <time>2016-07-06T17:21:50Z</time>
        <sat>10</sat>
      </trkpt>
      <trkpt lat="43.473048" lon="10.921852">
        <ele>222.7</ele>
        <time>2016-07-06T17:21:51Z</time>
        <sat>10</sat>
      </trkpt>
      <trkpt lat="43.472933" lon="10.922032">
        <ele>224.1</ele>
        <time>2016-07-06T17:21:52Z</time>
        <sat>10</sat>
      </trkpt>
      <trkpt lat="43.472812" lon="10.922206">
        <ele>225.2</ele>
        <time>2016-07-06T17:21:53Z</time>
        <sat>9</sat>
      </trkpt>
      <trkpt lat="43.472685" lon="10.922364">
        <ele>226.4</ele>
        <time>2016-07-06T17:21:54Z</time>
        <sat>9</sat>
      </trkpt>
      <trkpt lat="43.472558" lon="10.922508">
        <ele>227.6</ele>
        <time>2016-07-06T17:21:55Z</time>
        <sat>10</sat>
      </trkpt>
      <trkpt lat="43.472438" lon="10.922643">
        <ele>228.8</ele>
        <time>2016-07-06T17:21:56Z</time>
        <sat>10</sat>
      </trkpt>
      <trkpt lat="43.472335" lon="10.922771">
        <ele>230.0</ele>
        <time>2016-07-06T17:21:57Z</time>
        <sat>10</sat>
      </trkpt>
      <trkpt lat="43.472252" lon="10.922896">
        <ele>231.3</ele>
        <time>2016-07-06T17:21:58Z</time>
        <sat>9</sat>
      </trkpt>
      <trkpt lat="43.472190" lon="10.923019">
        <ele>232.3</ele>
        <time>2016-07-06T17:21:59Z</time>
        <sat>9</sat>
      </trkpt>
      <trkpt lat="43.472153" lon="10.923145">
        <ele>233.1</ele>
        <time>2016-07-06T17:22:00Z</time>
        <sat>10</sat>
      </trkpt>
      <trkpt lat="43.472144" lon="10.923278">
        <ele>234.0</ele>
        <time>2016-07-06T17:22:01Z</time>
        <sat>10</sat>
      </trkpt>
      <trkpt lat="43.472164" lon="10.923415">
        <ele>235.0</ele>
        <time>2016-07-06T17:22:02Z</time>
        <sat>10</sat>
      </trkpt>
      <trkpt lat="43.472206" lon="10.923537">
        <ele>235.9</ele>
        <time>2016-07-06T17:22:03Z</time>
        <sat>9</sat>
      </trkpt>
      <trkpt lat="43.472269" lon="10.923642">
        <ele>236.6</ele>
        <time>2016-07-06T17:22:04Z</time>
        <sat>10</sat>
      </trkpt>
      <trkpt lat="43.472354" lon="10.923734">
        <ele>237.4</ele>
        <time>2016-07-06T17:22:05Z</time>
        <sat>10</sat>
      </trkpt>
      <trkpt lat="43.472453" lon="10.923819">
        <ele>238.3</ele>
        <time>2016-07-06T17:22:06Z</time>
        <sat>8</sat>
      </trkpt>
      <trkpt lat="43.472566" lon="10.923906">
        <ele>239.2</ele>
        <time>2016-07-06T17:22:07Z</time>
        <sat>10</sat>
      </trkpt>
      <trkpt lat="43.472689" lon="10.924001">
        <ele>240.4</ele>
        <time>2016-07-06T17:22:08Z</time>
        <sat>10</sat>
      </trkpt>
      <trkpt lat="43.472819" lon="10.924101">
        <ele>241.6</ele>
        <time>2016-07-06T17:22:09Z</time>
        <sat>10</sat>
      </trkpt>
      <trkpt lat="43.472951" lon="10.924202">
        <ele>242.9</ele>
        <time>2016-07-06T17:22:10Z</time>
        <sat>10</sat>
      </trkpt>
      <trkpt lat="43.473078" lon="10.924305">
        <ele>244.1</ele>
        <time>2016-07-06T17:22:11Z</time>
        <sat>10</sat>
      </trkpt>
      <trkpt lat="43.473198" lon="10.924420">
        <ele>245.5</ele>
        <time>2016-07-06T17:22:12Z</time>
        <sat>10</sat>
      </trkpt>
      <trkpt lat="43.473312" lon="10.924554">
        <ele>246.8</ele>
        <time>2016-07-06T17:22:13Z</time>
        <sat>10</sat>
      </trkpt>
      <trkpt lat="43.473414" lon="10.924708">
        <ele>247.9</ele>
        <time>2016-07-06T17:22:14Z</time>
        <sat>10</sat>
      </trkpt>
      <trkpt lat="43.473507" lon="10.924887">
        <ele>248.7</ele>
        <time>2016-07-06T17:22:15Z</time>
        <sat>10</sat>
      </trkpt>
      <trkpt lat="43.473606" lon="10.925086">
        <ele>250.2</ele>
        <time>2016-07-06T17:22:16Z</time>
        <sat>10</sat>
      </trkpt>
      <trkpt lat="43.473721" lon="10.925286">
        <ele>251.5</ele>
        <time>2016-07-06T17:22:17Z</time>
        <sat>10</sat>
      </trkpt>
      <trkpt lat="43.473841" lon="10.925469">
        <ele>252.7</ele>
        <time>2016-07-06T17:22:18Z</time>
        <sat>10</sat>
      </trkpt>
      <trkpt lat="43.473948" lon="10.925620">
        <ele>254.0</ele>
        <time>2016-07-06T17:22:19Z</time>
        <sat>10</sat>
      </trkpt>
      <trkpt lat="43.474045" lon="10.925741">
        <ele>255.4</ele>
        <time>2016-07-06T17:22:20Z</time>
        <sat>10</sat>
      </trkpt>
      <trkpt lat="43.474141" lon="10.925842">
        <ele>256.6</ele>
        <time>2016-07-06T17:22:21Z</time>
        <sat>10</sat>
      </trkpt>
      <trkpt lat="43.474240" lon="10.925926">
        <ele>257.8</ele>
        <time>2016-07-06T17:22:22Z</time>
        <sat>10</sat>
      </trkpt>
      <trkpt lat="43.474450" lon="10.926033">
        <ele>259.8</ele>
        <time>2016-07-06T17:22:24Z</time>
        <sat>10</sat>
      </trkpt>
      <trkpt lat="43.474556" lon="10.926051">
        <ele>260.5</ele>
        <time>2016-07-06T17:22:25Z</time>
        <sat>10</sat>
      </trkpt>
      <trkpt lat="43.474666" lon="10.926053">
        <ele>261.5</ele>
        <time>2016-07-06T17:22:26Z</time>
        <sat>10</sat>
      </trkpt>
      <trkpt lat="43.474784" lon="10.926043">
        <ele>262.1</ele>
        <time>2016-07-06T17:22:27Z</time>
        <sat>10</sat>
      </trkpt>
      <trkpt lat="43.474904" lon="10.926024">
        <ele>263.1</ele>
        <time>2016-07-06T17:22:28Z</time>
        <sat>9</sat>
      </trkpt>
      <trkpt lat="43.475030" lon="10.925996">
        <ele>264.2</ele>
        <time>2016-07-06T17:22:29Z</time>
        <sat>9</sat>
      </trkpt>
      <trkpt lat="43.475163" lon="10.925959">
        <ele>265.3</ele>
        <time>2016-07-06T17:22:30Z</time>
        <sat>9</sat>
      </trkpt>
      <trkpt lat="43.475302" lon="10.925917">
        <ele>266.6</ele>
        <time>2016-07-06T17:22:31Z</time>
        <sat>8</sat>
      </trkpt>
      <trkpt lat="43.475452" lon="10.925873">
        <ele>267.8</ele>
        <time>2016-07-06T17:22:32Z</time>
        <sat>9</sat>
      </trkpt>
      <trkpt lat="43.475608" lon="10.925829">
        <ele>268.9</ele>
        <time>2016-07-06T17:22:33Z</time>
        <sat>8</sat>
      </trkpt>
      <trkpt lat="43.475763" lon="10.925789">
        <ele>269.7</ele>
        <time>2016-07-06T17:22:34Z</time>
        <sat>9</sat>
      </trkpt>
      <trkpt lat="43.475910" lon="10.925772">
        <ele>270.7</ele>
        <time>2016-07-06T17:22:35Z</time>
        <sat>9</sat>
      </trkpt>
      <trkpt lat="43.476052" lon="10.925774">
        <ele>271.6</ele>
        <time>2016-07-06T17:22:36Z</time>
        <sat>10</sat>
      </trkpt>
      <trkpt lat="43.476195" lon="10.925804">
        <ele>272.5</ele>
        <time>2016-07-06T17:22:37Z</time>
        <sat>10</sat>
      </trkpt>
      <trkpt lat="43.476345" lon="10.925864">
        <ele>273.8</ele>
        <time>2016-07-06T17:22:38Z</time>
        <sat>10</sat>
      </trkpt>
      <trkpt lat="43.476501" lon="10.925951">
        <ele>275.0</ele>
        <time>2016-07-06T17:22:39Z</time>
        <sat>10</sat>
      </trkpt>
      <trkpt lat="43.476665" lon="10.926060">
        <ele>276.4</ele>
        <time>2016-07-06T17:22:40Z</time>
        <sat>10</sat>
      </trkpt>
      <trkpt lat="43.476835" lon="10.926177">
        <ele>277.5</ele>
        <time>2016-07-06T17:22:41Z</time>
        <sat>10</sat>
      </trkpt>
      <trkpt lat="43.476998" lon="10.926289">
        <ele>278.5</ele>
        <time>2016-07-06T17:22:42Z</time>
        <sat>10</sat>
      </trkpt>
      <trkpt lat="43.477152" lon="10.926393">
        <ele>279.6</ele>
        <time>2016-07-06T17:22:43Z</time>
        <sat>10</sat>
      </trkpt>
      <trkpt lat="43.477304" lon="10.926495">
        <ele>280.8</ele>
        <time>2016-07-06T17:22:44Z</time>
        <sat>10</sat>
      </trkpt>
      <trkpt lat="43.477466" lon="10.926594">
        <ele>281.9</ele>
        <time>2016-07-06T17:22:45Z</time>
        <sat>10</sat>
      </trkpt>
      <trkpt lat="43.477644" lon="10.926686">
        <ele>283.3</ele>
        <time>2016-07-06T17:22:46Z</time>
        <sat>10</sat>
      </trkpt>
      <trkpt lat="43.477841" lon="10.926775">
        <ele>284.7</ele>
        <time>2016-07-06T17:22:47Z</time>
        <sat>10</sat>
      </trkpt>
      <trkpt lat="43.478047" lon="10.926864">
        <ele>286.2</ele>
        <time>2016-07-06T17:22:48Z</time>
        <sat>10</sat>
      </trkpt>
      <trkpt lat="43.478234" lon="10.926948">
        <ele>287.5</ele>
        <time>2016-07-06T17:22:49Z</time>
        <sat>9</sat>
      </trkpt>
      <trkpt lat="43.478398" lon="10.927022">
        <ele>288.5</ele>
        <time>2016-07-06T17:22:50Z</time>
        <sat>9</sat>
      </trkpt>
      <trkpt lat="43.478554" lon="10.927092">
        <ele>289.4</ele>
        <time>2016-07-06T17:22:51Z</time>
        <sat>9</sat>
      </trkpt>
      <trkpt lat="43.478709" lon="10.927151">
        <ele>290.3</ele>
        <time>2016-07-06T17:22:52Z</time>
        <sat>10</sat>
      </trkpt>
      <trkpt lat="43.478864" lon="10.927192">
        <ele>291.3</ele>
        <time>2016-07-06T17:22:53Z</time>
        <sat>10</sat>
      </trkpt>
      <trkpt lat="43.479020" lon="10.927215">
        <ele>292.4</ele>
        <time>2016-07-06T17:22:54Z</time>
        <sat>10</sat>
      </trkpt>
      <trkpt lat="43.479184" lon="10.927222">
        <ele>293.1</ele>
        <time>2016-07-06T17:22:55Z</time>
        <sat>9</sat>
      </trkpt>
      <trkpt lat="43.479352" lon="10.927219">
        <ele>293.7</ele>
        <time>2016-07-06T17:22:56Z</time>
        <sat>8</sat>
      </trkpt>
      <trkpt lat="43.479521" lon="10.927212">
        <ele>294.3</ele>
        <time>2016-07-06T17:22:57Z</time>
        <sat>10</sat>
      </trkpt>
      <trkpt lat="43.479685" lon="10.927207">
        <ele>294.9</ele>
        <time>2016-07-06T17:22:58Z</time>
        <sat>10</sat>
      </trkpt>
      <trkpt lat="43.479846" lon="10.927203">
        <ele>296.0</ele>
        <time>2016-07-06T17:22:59Z</time>
        <sat>10</sat>
      </trkpt>
      <trkpt lat="43.480008" lon="10.927202">
        <ele>296.7</ele>
        <time>2016-07-06T17:23:00Z</time>
        <sat>10</sat>
      </trkpt>
      <trkpt lat="43.480166" lon="10.927205">
        <ele>297.3</ele>
        <time>2016-07-06T17:23:01Z</time>
        <sat>10</sat>
      </trkpt>
      <trkpt lat="43.480327" lon="10.927214">
        <ele>297.6</ele>
        <time>2016-07-06T17:23:02Z</time>
        <sat>10</sat>
      </trkpt>
      <trkpt lat="43.480496" lon="10.927231">
        <ele>297.5</ele>
        <time>2016-07-06T17:23:03Z</time>
        <sat>10</sat>
      </trkpt>
      <trkpt lat="43.480666" lon="10.927250">
        <ele>297.1</ele>
        <time>2016-07-06T17:23:04Z</time>
        <sat>8</sat>
      </trkpt>
      <trkpt lat="43.480836" lon="10.927274">
        <ele>296.6</ele>
        <time>2016-07-06T17:23:05Z</time>
        <sat>10</sat>
      </trkpt>
      <trkpt lat="43.481006" lon="10.927301">
        <ele>296.1</ele>
        <time>2016-07-06T17:23:06Z</time>
        <sat>10</sat>
      </trkpt>
      <trkpt lat="43.481169" lon="10.927330">
        <ele>296.2</ele>
        <time>2016-07-06T17:23:07Z</time>
        <sat>9</sat>
      </trkpt>
      <trkpt lat="43.481318" lon="10.927352">
        <ele>297.5</ele>
        <time>2016-07-06T17:23:08Z</time>
        <sat>10</sat>
      </trkpt>
      <trkpt lat="43.481467" lon="10.927386">
        <ele>296.3</ele>
        <time>2016-07-06T17:23:09Z</time>
        <sat>10</sat>
      </trkpt>
      <trkpt lat="43.481600" lon="10.927399">
        <ele>296.4</ele>
        <time>2016-07-06T17:23:10Z</time>
        <sat>9</sat>
      </trkpt>
      <trkpt lat="43.481727" lon="10.927385">
        <ele>296.5</ele>
        <time>2016-07-06T17:23:11Z</time>
        <sat>10</sat>
      </trkpt>
      <trkpt lat="43.481848" lon="10.927341">
        <ele>296.5</ele>
        <time>2016-07-06T17:23:12Z</time>
        <sat>10</sat>
      </trkpt>
      <trkpt lat="43.481961" lon="10.927259">
        <ele>296.9</ele>
        <time>2016-07-06T17:23:13Z</time>
        <sat>9</sat>
      </trkpt>
      <trkpt lat="43.482069" lon="10.927139">
        <ele>297.4</ele>
        <time>2016-07-06T17:23:14Z</time>
        <sat>10</sat>
      </trkpt>
      <trkpt lat="43.482173" lon="10.927006">
        <ele>297.9</ele>
        <time>2016-07-06T17:23:15Z</time>
        <sat>10</sat>
      </trkpt>
      <trkpt lat="43.482278" lon="10.926879">
        <ele>298.7</ele>
        <time>2016-07-06T17:23:16Z</time>
        <sat>10</sat>
      </trkpt>
      <trkpt lat="43.482396" lon="10.926767">
        <ele>299.5</ele>
        <time>2016-07-06T17:23:17Z</time>
        <sat>10</sat>
      </trkpt>
      <trkpt lat="43.482530" lon="10.926675">
        <ele>300.4</ele>
        <time>2016-07-06T17:23:18Z</time>
        <sat>10</sat>
      </trkpt>
      <trkpt lat="43.482679" lon="10.926604">
        <ele>301.2</ele>
        <time>2016-07-06T17:23:19Z</time>
        <sat>10</sat>
      </trkpt>
      <trkpt lat="43.482833" lon="10.926541">
        <ele>302.1</ele>
        <time>2016-07-06T17:23:20Z</time>
        <sat>10</sat>
      </trkpt>
      <trkpt lat="43.482988" lon="10.926473">
        <ele>302.1</ele>
        <time>2016-07-06T17:23:21Z</time>
        <sat>10</sat>
      </trkpt>
      <trkpt lat="43.483138" lon="10.926401">
        <ele>302.3</ele>
        <time>2016-07-06T17:23:22Z</time>
        <sat>10</sat>
      </trkpt>
      <trkpt lat="43.483285" lon="10.926320">
        <ele>302.8</ele>
        <time>2016-07-06T17:23:23Z</time>
        <sat>10</sat>
      </trkpt>
      <trkpt lat="43.483424" lon="10.926223">
        <ele>303.4</ele>
        <time>2016-07-06T17:23:24Z</time>
        <sat>10</sat>
      </trkpt>
      <trkpt lat="43.483661" lon="10.925986">
        <ele>305.4</ele>
        <time>2016-07-06T17:23:26Z</time>
        <sat>10</sat>
      </trkpt>
      <trkpt lat="43.483762" lon="10.925864">
        <ele>306.4</ele>
        <time>2016-07-06T17:23:27Z</time>
        <sat>9</sat>
      </trkpt>
      <trkpt lat="43.483868" lon="10.925750">
        <ele>307.4</ele>
        <time>2016-07-06T17:23:28Z</time>
        <sat>9</sat>
      </trkpt>
      <trkpt lat="43.483981" lon="10.925644">
        <ele>308.6</ele>
        <time>2016-07-06T17:23:29Z</time>
        <sat>9</sat>
      </trkpt>
      <trkpt lat="43.484109" lon="10.925563">
        <ele>310.2</ele>
        <time>2016-07-06T17:23:30Z</time>
        <sat>9</sat>
      </trkpt>
      <trkpt lat="43.484245" lon="10.925523">
        <ele>311.8</ele>
        <time>2016-07-06T17:23:31Z</time>
        <sat>9</sat>
      </trkpt>
      <trkpt lat="43.484369" lon="10.925520">
        <ele>313.5</ele>
        <time>2016-07-06T17:23:32Z</time>
        <sat>9</sat>
      </trkpt>
      <trkpt lat="43.484483" lon="10.925549">
        <ele>315.1</ele>
        <time>2016-07-06T17:23:33Z</time>
        <sat>10</sat>
      </trkpt>
      <trkpt lat="43.484595" lon="10.925612">
        <ele>318.0</ele>
        <time>2016-07-06T17:23:34Z</time>
        <sat>9</sat>
      </trkpt>
      <trkpt lat="43.484709" lon="10.925715">
        <ele>317.4</ele>
        <time>2016-07-06T17:23:35Z</time>
        <sat>10</sat>
      </trkpt>
      <trkpt lat="43.484816" lon="10.925847">
        <ele>318.7</ele>
        <time>2016-07-06T17:23:36Z</time>
        <sat>10</sat>
      </trkpt>
      <trkpt lat="43.484922" lon="10.925978">
        <ele>319.9</ele>
        <time>2016-07-06T17:23:37Z</time>
        <sat>10</sat>
      </trkpt>
      <trkpt lat="43.485033" lon="10.926090">
        <ele>321.0</ele>
        <time>2016-07-06T17:23:38Z</time>
        <sat>10</sat>
      </trkpt>
      <trkpt lat="43.485145" lon="10.926176">
        <ele>322.0</ele>
        <time>2016-07-06T17:23:39Z</time>
        <sat>10</sat>
      </trkpt>
      <trkpt lat="43.485266" lon="10.926237">
        <ele>323.2</ele>
        <time>2016-07-06T17:23:40Z</time>
        <sat>10</sat>
      </trkpt>
      <trkpt lat="43.485407" lon="10.926273">
        <ele>324.5</ele>
        <time>2016-07-06T17:23:41Z</time>
        <sat>10</sat>
      </trkpt>
      <trkpt lat="43.485562" lon="10.926280">
        <ele>325.8</ele>
        <time>2016-07-06T17:23:42Z</time>
        <sat>10</sat>
      </trkpt>
      <trkpt lat="43.485725" lon="10.926271">
        <ele>327.3</ele>
        <time>2016-07-06T17:23:43Z</time>
        <sat>10</sat>
      </trkpt>
      <trkpt lat="43.485892" lon="10.926258">
        <ele>328.7</ele>
        <time>2016-07-06T17:23:44Z</time>
        <sat>10</sat>
      </trkpt>
      <trkpt lat="43.486059" lon="10.926246">
        <ele>330.0</ele>
        <time>2016-07-06T17:23:45Z</time>
        <sat>10</sat>
      </trkpt>
      <trkpt lat="43.486234" lon="10.926242">
        <ele>331.0</ele>
        <time>2016-07-06T17:23:46Z</time>
        <sat>10</sat>
      </trkpt>
      <trkpt lat="43.486417" lon="10.926249">
        <ele>331.6</ele>
        <time>2016-07-06T17:23:47Z</time>
        <sat>10</sat>
      </trkpt>
      <trkpt lat="43.486605" lon="10.926269">
        <ele>332.5</ele>
        <time>2016-07-06T17:23:48Z</time>
        <sat>10</sat>
      </trkpt>
      <trkpt lat="43.486788" lon="10.926295">
        <ele>333.9</ele>
        <time>2016-07-06T17:23:49Z</time>
        <sat>10</sat>
      </trkpt>
      <trkpt lat="43.486961" lon="10.926322">
        <ele>336.0</ele>
        <time>2016-07-06T17:23:50Z</time>
        <sat>10</sat>
      </trkpt>
      <trkpt lat="43.487114" lon="10.926348">
        <ele>338.1</ele>
        <time>2016-07-06T17:23:51Z</time>
        <sat>10</sat>
      </trkpt>
      <trkpt lat="43.487240" lon="10.926372">
        <ele>340.0</ele>
        <time>2016-07-06T17:23:52Z</time>
        <sat>10</sat>
      </trkpt>
      <trkpt lat="43.487346" lon="10.926400">
        <ele>341.7</ele>
        <time>2016-07-06T17:23:53Z</time>
        <sat>10</sat>
      </trkpt>
      <trkpt lat="43.487440" lon="10.926438">
        <ele>341.7</ele>
        <time>2016-07-06T17:23:54Z</time>
        <sat>10</sat>
      </trkpt>
      <trkpt lat="43.487564" lon="10.926586">
        <ele>342.5</ele>
        <time>2016-07-06T17:23:56Z</time>
        <sat>10</sat>
      </trkpt>
      <trkpt lat="43.487587" lon="10.926830">
        <ele>344.5</ele>
        <time>2016-07-06T17:23:58Z</time>
        <sat>10</sat>
      </trkpt>
      <trkpt lat="43.487596" lon="10.926962">
        <ele>345.3</ele>
        <time>2016-07-06T17:23:59Z</time>
        <sat>10</sat>
      </trkpt>
      <trkpt lat="43.487684" lon="10.927152">
        <ele>346.7</ele>
        <time>2016-07-06T17:24:01Z</time>
        <sat>10</sat>
      </trkpt>
      <trkpt lat="43.487830" lon="10.927170">
        <ele>348.0</ele>
        <time>2016-07-06T17:24:03Z</time>
        <sat>10</sat>
      </trkpt>
      <trkpt lat="43.487965" lon="10.927028">
        <ele>349.8</ele>
        <time>2016-07-06T17:24:05Z</time>
        <sat>10</sat>
      </trkpt>
      <trkpt lat="43.488014" lon="10.926896">
        <ele>350.4</ele>
        <time>2016-07-06T17:24:06Z</time>
        <sat>10</sat>
      </trkpt>
      <trkpt lat="43.488079" lon="10.926769">
        <ele>351.3</ele>
        <time>2016-07-06T17:24:07Z</time>
        <sat>10</sat>
      </trkpt>
      <trkpt lat="43.488177" lon="10.926668">
        <ele>352.2</ele>
        <time>2016-07-06T17:24:08Z</time>
        <sat>10</sat>
      </trkpt>
      <trkpt lat="43.488305" lon="10.926589">
        <ele>353.3</ele>
        <time>2016-07-06T17:24:09Z</time>
        <sat>10</sat>
      </trkpt>
      <trkpt lat="43.488455" lon="10.926524">
        <ele>354.7</ele>
        <time>2016-07-06T17:24:10Z</time>
        <sat>10</sat>
      </trkpt>
      <trkpt lat="43.488605" lon="10.926471">
        <ele>355.9</ele>
        <time>2016-07-06T17:24:11Z</time>
        <sat>10</sat>
      </trkpt>
      <trkpt lat="43.488732" lon="10.926421">
        <ele>357.2</ele>
        <time>2016-07-06T17:24:12Z</time>
        <sat>10</sat>
      </trkpt>
      <trkpt lat="43.488851" lon="10.926366">
        <ele>357.8</ele>
        <time>2016-07-06T17:24:13Z</time>
        <sat>10</sat>
      </trkpt>
      <trkpt lat="43.488954" lon="10.926286">
        <ele>358.5</ele>
        <time>2016-07-06T17:24:14Z</time>
        <sat>9</sat>
      </trkpt>
      <trkpt lat="43.489035" lon="10.926173">
        <ele>360.7</ele>
        <time>2016-07-06T17:24:15Z</time>
        <sat>8</sat>
      </trkpt>
      <trkpt lat="43.489102" lon="10.926046">
        <ele>362.3</ele>
        <time>2016-07-06T17:24:16Z</time>
        <sat>8</sat>
      </trkpt>
      <trkpt lat="43.489154" lon="10.925903">
        <ele>362.1</ele>
        <time>2016-07-06T17:24:17Z</time>
        <sat>9</sat>
      </trkpt>
      <trkpt lat="43.489178" lon="10.925735">
        <ele>363.1</ele>
        <time>2016-07-06T17:24:18Z</time>
        <sat>9</sat>
      </trkpt>
      <trkpt lat="43.489187" lon="10.925553">
        <ele>363.8</ele>
        <time>2016-07-06T17:24:19Z</time>
        <sat>9</sat>
      </trkpt>
      <trkpt lat="43.489194" lon="10.925386">
        <ele>365.0</ele>
        <time>2016-07-06T17:24:20Z</time>
        <sat>9</sat>
      </trkpt>
      <trkpt lat="43.489212" lon="10.925242">
        <ele>366.1</ele>
        <time>2016-07-06T17:24:21Z</time>
        <sat>10</sat>
      </trkpt>
      <trkpt lat="43.489245" lon="10.925124">
        <ele>367.0</ele>
        <time>2016-07-06T17:24:22Z</time>
        <sat>10</sat>
      </trkpt>
      <trkpt lat="43.489373" lon="10.924949">
        <ele>368.8</ele>
        <time>2016-07-06T17:24:24Z</time>
        <sat>10</sat>
      </trkpt>
      <trkpt lat="43.489528" lon="10.924882">
        <ele>369.9</ele>
        <time>2016-07-06T17:24:26Z</time>
        <sat>10</sat>
      </trkpt>
      <trkpt lat="43.489636" lon="10.925051">
        <ele>371.5</ele>
        <time>2016-07-06T17:24:30Z</time>
        <sat>10</sat>
      </trkpt>
      <trkpt lat="43.489611" lon="10.925278">
        <ele>372.2</ele>
        <time>2016-07-06T17:24:32Z</time>
        <sat>10</sat>
      </trkpt>
      <trkpt lat="43.489593" lon="10.925453">
        <ele>372.9</ele>
        <time>2016-07-06T17:24:33Z</time>
        <sat>10</sat>
      </trkpt>
      <trkpt lat="43.489567" lon="10.925662">
        <ele>373.2</ele>
        <time>2016-07-06T17:24:34Z</time>
        <sat>10</sat>
      </trkpt>
      <trkpt lat="43.489540" lon="10.925870">
        <ele>373.9</ele>
        <time>2016-07-06T17:24:35Z</time>
        <sat>9</sat>
      </trkpt>
      <trkpt lat="43.489510" lon="10.926072">
        <ele>374.7</ele>
        <time>2016-07-06T17:24:36Z</time>
        <sat>10</sat>
      </trkpt>
      <trkpt lat="43.489479" lon="10.926269">
        <ele>375.3</ele>
        <time>2016-07-06T17:24:37Z</time>
        <sat>10</sat>
      </trkpt>
      <trkpt lat="43.489448" lon="10.926464">
        <ele>376.2</ele>
        <time>2016-07-06T17:24:38Z</time>
        <sat>10</sat>
      </trkpt>
      <trkpt lat="43.489419" lon="10.926654">
        <ele>377.2</ele>
        <time>2016-07-06T17:24:39Z</time>
        <sat>10</sat>
      </trkpt>
      <trkpt lat="43.489392" lon="10.926848">
        <ele>378.0</ele>
        <time>2016-07-06T17:24:40Z</time>
        <sat>10</sat>
      </trkpt>
      <trkpt lat="43.489369" lon="10.927046">
        <ele>378.7</ele>
        <time>2016-07-06T17:24:41Z</time>
        <sat>10</sat>
      </trkpt>
      <trkpt lat="43.489350" lon="10.927250">
        <ele>379.7</ele>
        <time>2016-07-06T17:24:42Z</time>
        <sat>9</sat>
      </trkpt>
      <trkpt lat="43.489333" lon="10.927459">
        <ele>380.5</ele>
        <time>2016-07-06T17:24:43Z</time>
        <sat>10</sat>
      </trkpt>
      <trkpt lat="43.489319" lon="10.927674">
        <ele>381.5</ele>
        <time>2016-07-06T17:24:44Z</time>
        <sat>10</sat>
      </trkpt>
      <trkpt lat="43.489304" lon="10.927892">
        <ele>382.1</ele>
        <time>2016-07-06T17:24:45Z</time>
        <sat>10</sat>
      </trkpt>
      <trkpt lat="43.489287" lon="10.928100">
        <ele>382.9</ele>
        <time>2016-07-06T17:24:46Z</time>
        <sat>10</sat>
      </trkpt>
      <trkpt lat="43.489271" lon="10.928303">
        <ele>383.2</ele>
        <time>2016-07-06T17:24:47Z</time>
        <sat>10</sat>
      </trkpt>
      <trkpt lat="43.489256" lon="10.928507">
        <ele>384.1</ele>
        <time>2016-07-06T17:24:48Z</time>
        <sat>10</sat>
      </trkpt>
      <trkpt lat="43.489247" lon="10.928712">
        <ele>385.2</ele>
        <time>2016-07-06T17:24:49Z</time>
        <sat>10</sat>
      </trkpt>
      <trkpt lat="43.489251" lon="10.928922">
        <ele>386.3</ele>
        <time>2016-07-06T17:24:50Z</time>
        <sat>10</sat>
      </trkpt>
      <trkpt lat="43.489275" lon="10.929130">
        <ele>387.4</ele>
        <time>2016-07-06T17:24:51Z</time>
        <sat>10</sat>
      </trkpt>
      <trkpt lat="43.489318" lon="10.929330">
        <ele>388.8</ele>
        <time>2016-07-06T17:24:52Z</time>
        <sat>10</sat>
      </trkpt>
      <trkpt lat="43.489370" lon="10.929517">
        <ele>389.9</ele>
        <time>2016-07-06T17:24:53Z</time>
        <sat>10</sat>
      </trkpt>
      <trkpt lat="43.489426" lon="10.929709">
        <ele>391.0</ele>
        <time>2016-07-06T17:24:54Z</time>
        <sat>10</sat>
      </trkpt>
      <trkpt lat="43.489484" lon="10.929907">
        <ele>392.0</ele>
        <time>2016-07-06T17:24:55Z</time>
        <sat>10</sat>
      </trkpt>
      <trkpt lat="43.489538" lon="10.930104">
        <ele>393.2</ele>
        <time>2016-07-06T17:24:56Z</time>
        <sat>9</sat>
      </trkpt>
      <trkpt lat="43.489584" lon="10.930304">
        <ele>394.2</ele>
        <time>2016-07-06T17:24:57Z</time>
        <sat>9</sat>
      </trkpt>
      <trkpt lat="43.489622" lon="10.930522">
        <ele>395.1</ele>
        <time>2016-07-06T17:24:58Z</time>
        <sat>10</sat>
      </trkpt>
      <trkpt lat="43.489656" lon="10.930767">
        <ele>396.1</ele>
        <time>2016-07-06T17:24:59Z</time>
        <sat>10</sat>
      </trkpt>
      <trkpt lat="43.489683" lon="10.931046">
        <ele>397.4</ele>
        <time>2016-07-06T17:25:00Z</time>
        <sat>10</sat>
      </trkpt>
      <trkpt lat="43.489701" lon="10.931346">
        <ele>398.9</ele>
        <time>2016-07-06T17:25:01Z</time>
        <sat>9</sat>
      </trkpt>
      <trkpt lat="43.489720" lon="10.931622">
        <ele>400.0</ele>
        <time>2016-07-06T17:25:02Z</time>
        <sat>9</sat>
      </trkpt>
      <trkpt lat="43.489737" lon="10.931872">
        <ele>402.1</ele>
        <time>2016-07-06T17:25:03Z</time>
        <sat>10</sat>
      </trkpt>
      <trkpt lat="43.489755" lon="10.932098">
        <ele>401.7</ele>
        <time>2016-07-06T17:25:04Z</time>
        <sat>10</sat>
      </trkpt>
      <trkpt lat="43.489789" lon="10.932283">
        <ele>403.0</ele>
        <time>2016-07-06T17:25:05Z</time>
        <sat>10</sat>
      </trkpt>
      <trkpt lat="43.489859" lon="10.932421">
        <ele>404.0</ele>
        <time>2016-07-06T17:25:06Z</time>
        <sat>10</sat>
      </trkpt>
      <trkpt lat="43.489951" lon="10.932536">
        <ele>405.6</ele>
        <time>2016-07-06T17:25:07Z</time>
        <sat>10</sat>
      </trkpt>
      <trkpt lat="43.490038" lon="10.932655">
        <ele>406.5</ele>
        <time>2016-07-06T17:25:08Z</time>
        <sat>10</sat>
      </trkpt>
      <trkpt lat="43.490102" lon="10.932806">
        <ele>406.7</ele>
        <time>2016-07-06T17:25:09Z</time>
        <sat>10</sat>
      </trkpt>
      <trkpt lat="43.490130" lon="10.933003">
        <ele>406.9</ele>
        <time>2016-07-06T17:25:10Z</time>
        <sat>10</sat>
      </trkpt>
      <trkpt lat="43.490128" lon="10.933241">
        <ele>406.6</ele>
        <time>2016-07-06T17:25:11Z</time>
        <sat>10</sat>
      </trkpt>
      <trkpt lat="43.490107" lon="10.933515">
        <ele>406.5</ele>
        <time>2016-07-06T17:25:12Z</time>
        <sat>10</sat>
      </trkpt>
      <trkpt lat="43.490080" lon="10.933797">
        <ele>406.7</ele>
        <time>2016-07-06T17:25:13Z</time>
        <sat>10</sat>
      </trkpt>
      <trkpt lat="43.490049" lon="10.934063">
        <ele>406.8</ele>
        <time>2016-07-06T17:25:14Z</time>
        <sat>10</sat>
      </trkpt>
      <trkpt lat="43.490018" lon="10.934314">
        <ele>406.7</ele>
        <time>2016-07-06T17:25:15Z</time>
        <sat>10</sat>
      </trkpt>
      <trkpt lat="43.489990" lon="10.934558">
        <ele>406.5</ele>
        <time>2016-07-06T17:25:16Z</time>
        <sat>10</sat>
      </trkpt>
      <trkpt lat="43.489964" lon="10.934798">
        <ele>406.5</ele>
        <time>2016-07-06T17:25:17Z</time>
        <sat>10</sat>
      </trkpt>
      <trkpt lat="43.489940" lon="10.935039">
        <ele>406.1</ele>
        <time>2016-07-06T17:25:18Z</time>
        <sat>10</sat>
      </trkpt>
      <trkpt lat="43.489915" lon="10.935280">
        <ele>405.8</ele>
        <time>2016-07-06T17:25:19Z</time>
        <sat>10</sat>
      </trkpt>
      <trkpt lat="43.489890" lon="10.935521">
        <ele>405.2</ele>
        <time>2016-07-06T17:25:20Z</time>
        <sat>10</sat>
      </trkpt>
      <trkpt lat="43.489870" lon="10.935761">
        <ele>402.4</ele>
        <time>2016-07-06T17:25:21Z</time>
        <sat>10</sat>
      </trkpt>
      <trkpt lat="43.489841" lon="10.936001">
        <ele>401.6</ele>
        <time>2016-07-06T17:25:22Z</time>
        <sat>9</sat>
      </trkpt>
      <trkpt lat="43.489813" lon="10.936244">
        <ele>400.8</ele>
        <time>2016-07-06T17:25:23Z</time>
        <sat>9</sat>
      </trkpt>
      <trkpt lat="43.489788" lon="10.936494">
        <ele>400.3</ele>
        <time>2016-07-06T17:25:24Z</time>
        <sat>10</sat>
      </trkpt>
      <trkpt lat="43.489763" lon="10.936749">
        <ele>400.1</ele>
        <time>2016-07-06T17:25:25Z</time>
        <sat>10</sat>
      </trkpt>
      <trkpt lat="43.489737" lon="10.937008">
        <ele>400.1</ele>
        <time>2016-07-06T17:25:26Z</time>
        <sat>10</sat>
      </trkpt>
      <trkpt lat="43.489709" lon="10.937274">
        <ele>400.1</ele>
        <time>2016-07-06T17:25:27Z</time>
        <sat>10</sat>
      </trkpt>
      <trkpt lat="43.489679" lon="10.937549">
        <ele>400.0</ele>
        <time>2016-07-06T17:25:28Z</time>
        <sat>10</sat>
      </trkpt>
      <trkpt lat="43.489619" lon="10.938111">
        <ele>399.1</ele>
        <time>2016-07-06T17:25:30Z</time>
        <sat>10</sat>
      </trkpt>
      <trkpt lat="43.489596" lon="10.938375">
        <ele>398.9</ele>
        <time>2016-07-06T17:25:31Z</time>
        <sat>10</sat>
      </trkpt>
      <trkpt lat="43.489583" lon="10.938617">
        <ele>398.7</ele>
        <time>2016-07-06T17:25:32Z</time>
        <sat>10</sat>
      </trkpt>
      <trkpt lat="43.489565" lon="10.938844">
        <ele>399.0</ele>
        <time>2016-07-06T17:25:33Z</time>
        <sat>10</sat>
      </trkpt>
      <trkpt lat="43.489541" lon="10.939064">
        <ele>399.3</ele>
        <time>2016-07-06T17:25:34Z</time>
        <sat>10</sat>
      </trkpt>
      <trkpt lat="43.489520" lon="10.939272">
        <ele>399.5</ele>
        <time>2016-07-06T17:25:35Z</time>
        <sat>9</sat>
      </trkpt>
      <trkpt lat="43.489505" lon="10.939472">
        <ele>399.6</ele>
        <time>2016-07-06T17:25:36Z</time>
        <sat>9</sat>
      </trkpt>
      <trkpt lat="43.489493" lon="10.939658">
        <ele>399.5</ele>
        <time>2016-07-06T17:25:37Z</time>
        <sat>8</sat>
      </trkpt>
      <trkpt lat="43.489479" lon="10.939815">
        <ele>399.3</ele>
        <time>2016-07-06T17:25:38Z</time>
        <sat>9</sat>
      </trkpt>
      <trkpt lat="43.489472" lon="10.939952">
        <ele>397.8</ele>
        <time>2016-07-06T17:25:39Z</time>
        <sat>8</sat>
      </trkpt>
      <trkpt lat="43.489457" lon="10.940192">
        <ele>397.6</ele>
        <time>2016-07-06T17:25:41Z</time>
        <sat>9</sat>
      </trkpt>
      <trkpt lat="43.489461" lon="10.940322">
        <ele>397.7</ele>
        <time>2016-07-06T17:25:42Z</time>
        <sat>9</sat>
      </trkpt>
      <trkpt lat="43.489466" lon="10.940492">
        <ele>397.4</ele>
        <time>2016-07-06T17:25:43Z</time>
        <sat>9</sat>
      </trkpt>
      <trkpt lat="43.489475" lon="10.940692">
        <ele>397.0</ele>
        <time>2016-07-06T17:25:44Z</time>
        <sat>9</sat>
      </trkpt>
      <trkpt lat="43.489495" lon="10.940891">
        <ele>396.4</ele>
        <time>2016-07-06T17:25:45Z</time>
        <sat>9</sat>
      </trkpt>
      <trkpt lat="43.489519" lon="10.941078">
        <ele>396.6</ele>
        <time>2016-07-06T17:25:46Z</time>
        <sat>9</sat>
      </trkpt>
      <trkpt lat="43.489543" lon="10.941243">
        <ele>396.7</ele>
        <time>2016-07-06T17:25:47Z</time>
        <sat>10</sat>
      </trkpt>
      <trkpt lat="43.489571" lon="10.941392">
        <ele>396.8</ele>
        <time>2016-07-06T17:25:48Z</time>
        <sat>10</sat>
      </trkpt>
      <trkpt lat="43.489607" lon="10.941533">
        <ele>396.3</ele>
        <time>2016-07-06T17:25:49Z</time>
        <sat>10</sat>
      </trkpt>
      <trkpt lat="43.489651" lon="10.941667">
        <ele>396.5</ele>
        <time>2016-07-06T17:25:50Z</time>
        <sat>10</sat>
      </trkpt>
      <trkpt lat="43.489711" lon="10.941797">
        <ele>396.3</ele>
        <time>2016-07-06T17:25:51Z</time>
        <sat>9</sat>
      </trkpt>
      <trkpt lat="43.489793" lon="10.941940">
        <ele>395.5</ele>
        <time>2016-07-06T17:25:52Z</time>
        <sat>10</sat>
      </trkpt>
      <trkpt lat="43.489888" lon="10.942086">
        <ele>395.5</ele>
        <time>2016-07-06T17:25:53Z</time>
        <sat>10</sat>
      </trkpt>
      <trkpt lat="43.489978" lon="10.942220">
        <ele>395.7</ele>
        <time>2016-07-06T17:25:54Z</time>
        <sat>10</sat>
      </trkpt>
      <trkpt lat="43.490065" lon="10.942350">
        <ele>396.0</ele>
        <time>2016-07-06T17:25:55Z</time>
        <sat>10</sat>
      </trkpt>
      <trkpt lat="43.490158" lon="10.942481">
        <ele>396.6</ele>
        <time>2016-07-06T17:25:56Z</time>
        <sat>10</sat>
      </trkpt>
      <trkpt lat="43.490265" lon="10.942603">
        <ele>397.1</ele>
        <time>2016-07-06T17:25:57Z</time>
        <sat>10</sat>
      </trkpt>
      <trkpt lat="43.490399" lon="10.942713">
        <ele>396.4</ele>
        <time>2016-07-06T17:25:58Z</time>
        <sat>10</sat>
      </trkpt>
      <trkpt lat="43.490538" lon="10.942818">
        <ele>396.4</ele>
        <time>2016-07-06T17:25:59Z</time>
        <sat>8</sat>
      </trkpt>
      <trkpt lat="43.490672" lon="10.942920">
        <ele>396.4</ele>
        <time>2016-07-06T17:26:00Z</time>
        <sat>10</sat>
      </trkpt>
      <trkpt lat="43.490810" lon="10.943018">
        <ele>395.7</ele>
        <time>2016-07-06T17:26:01Z</time>
        <sat>10</sat>
      </trkpt>
      <trkpt lat="43.490955" lon="10.943103">
        <ele>395.5</ele>
        <time>2016-07-06T17:26:02Z</time>
        <sat>10</sat>
      </trkpt>
      <trkpt lat="43.491088" lon="10.943195">
        <ele>395.7</ele>
        <time>2016-07-06T17:26:03Z</time>
        <sat>10</sat>
      </trkpt>
      <trkpt lat="43.491218" lon="10.943287">
        <ele>395.8</ele>
        <time>2016-07-06T17:26:04Z</time>
        <sat>9</sat>
      </trkpt>
      <trkpt lat="43.491353" lon="10.943380">
        <ele>396.8</ele>
        <time>2016-07-06T17:26:05Z</time>
        <sat>10</sat>
      </trkpt>
      <trkpt lat="43.491523" lon="10.943477">
        <ele>398.1</ele>
        <time>2016-07-06T17:26:06Z</time>
        <sat>10</sat>
      </trkpt>
      <trkpt lat="43.491667" lon="10.943579">
        <ele>398.2</ele>
        <time>2016-07-06T17:26:07Z</time>
        <sat>9</sat>
      </trkpt>
      <trkpt lat="43.491800" lon="10.943664">
        <ele>398.1</ele>
        <time>2016-07-06T17:26:08Z</time>
        <sat>9</sat>
      </trkpt>
      <trkpt lat="43.491928" lon="10.943730">
        <ele>398.0</ele>
        <time>2016-07-06T17:26:09Z</time>
        <sat>9</sat>
      </trkpt>
      <trkpt lat="43.492055" lon="10.943795">
        <ele>397.2</ele>
        <time>2016-07-06T17:26:10Z</time>
        <sat>9</sat>
      </trkpt>
      <trkpt lat="43.492187" lon="10.943862">
        <ele>395.4</ele>
        <time>2016-07-06T17:26:11Z</time>
        <sat>9</sat>
      </trkpt>
      <trkpt lat="43.492324" lon="10.943928">
        <ele>395.0</ele>
        <time>2016-07-06T17:26:12Z</time>
        <sat>10</sat>
      </trkpt>
      <trkpt lat="43.492468" lon="10.943991">
        <ele>394.6</ele>
        <time>2016-07-06T17:26:13Z</time>
        <sat>10</sat>
      </trkpt>
      <trkpt lat="43.492616" lon="10.944052">
        <ele>394.0</ele>
        <time>2016-07-06T17:26:14Z</time>
        <sat>9</sat>
      </trkpt>
      <trkpt lat="43.492760" lon="10.944118">
        <ele>393.5</ele>
        <time>2016-07-06T17:26:15Z</time>
        <sat>10</sat>
      </trkpt>
      <trkpt lat="43.492900" lon="10.944178">
        <ele>392.7</ele>
        <time>2016-07-06T17:26:16Z</time>
        <sat>10</sat>
      </trkpt>
      <trkpt lat="43.493037" lon="10.944236">
        <ele>392.0</ele>
        <time>2016-07-06T17:26:17Z</time>
        <sat>10</sat>
      </trkpt>
      <trkpt lat="43.493173" lon="10.944296">
        <ele>391.0</ele>
        <time>2016-07-06T17:26:18Z</time>
        <sat>10</sat>
      </trkpt>
      <trkpt lat="43.493317" lon="10.944351">
        <ele>389.5</ele>
        <time>2016-07-06T17:26:19Z</time>
        <sat>10</sat>
      </trkpt>
      <trkpt lat="43.493466" lon="10.944402">
        <ele>388.3</ele>
        <time>2016-07-06T17:26:20Z</time>
        <sat>10</sat>
      </trkpt>
      <trkpt lat="43.493615" lon="10.944458">
        <ele>387.3</ele>
        <time>2016-07-06T17:26:21Z</time>
        <sat>10</sat>
      </trkpt>
      <trkpt lat="43.493759" lon="10.944519">
        <ele>386.0</ele>
        <time>2016-07-06T17:26:22Z</time>
        <sat>10</sat>
      </trkpt>
      <trkpt lat="43.493893" lon="10.944580">
        <ele>384.7</ele>
        <time>2016-07-06T17:26:23Z</time>
        <sat>10</sat>
      </trkpt>
      <trkpt lat="43.494016" lon="10.944633">
        <ele>383.8</ele>
        <time>2016-07-06T17:26:24Z</time>
        <sat>10</sat>
      </trkpt>
      <trkpt lat="43.494132" lon="10.944688">
        <ele>382.3</ele>
        <time>2016-07-06T17:26:25Z</time>
        <sat>10</sat>
      </trkpt>
      <trkpt lat="43.494242" lon="10.944742">
        <ele>381.1</ele>
        <time>2016-07-06T17:26:26Z</time>
        <sat>10</sat>
      </trkpt>
      <trkpt lat="43.494342" lon="10.944808">
        <ele>381.3</ele>
        <time>2016-07-06T17:26:27Z</time>
        <sat>10</sat>
      </trkpt>
      <trkpt lat="43.494437" lon="10.944886">
        <ele>381.1</ele>
        <time>2016-07-06T17:26:28Z</time>
        <sat>10</sat>
      </trkpt>
      <trkpt lat="43.494521" lon="10.944977">
        <ele>382.1</ele>
        <time>2016-07-06T17:26:29Z</time>
        <sat>10</sat>
      </trkpt>
      <trkpt lat="43.494606" lon="10.945089">
        <ele>380.4</ele>
        <time>2016-07-06T17:26:30Z</time>
        <sat>10</sat>
      </trkpt>
      <trkpt lat="43.494786" lon="10.945342">
        <ele>378.6</ele>
        <time>2016-07-06T17:26:32Z</time>
        <sat>9</sat>
      </trkpt>
      <trkpt lat="43.494910" lon="10.945461">
        <ele>377.4</ele>
        <time>2016-07-06T17:26:33Z</time>
        <sat>10</sat>
      </trkpt>
      <trkpt lat="43.495028" lon="10.945592">
        <ele>376.2</ele>
        <time>2016-07-06T17:26:34Z</time>
        <sat>9</sat>
      </trkpt>
      <trkpt lat="43.495142" lon="10.945726">
        <ele>374.4</ele>
        <time>2016-07-06T17:26:35Z</time>
        <sat>8</sat>
      </trkpt>
      <trkpt lat="43.495251" lon="10.945852">
        <ele>372.5</ele>
        <time>2016-07-06T17:26:36Z</time>
        <sat>10</sat>
      </trkpt>
      <trkpt lat="43.495343" lon="10.945965">
        <ele>371.6</ele>
        <time>2016-07-06T17:26:37Z</time>
        <sat>9</sat>
      </trkpt>
      <trkpt lat="43.495441" lon="10.946070">
        <ele>370.1</ele>
        <time>2016-07-06T17:26:38Z</time>
        <sat>8</sat>
      </trkpt>
      <trkpt lat="43.495537" lon="10.946169">
        <ele>369.2</ele>
        <time>2016-07-06T17:26:39Z</time>
        <sat>9</sat>
      </trkpt>
      <trkpt lat="43.495628" lon="10.946266">
        <ele>368.1</ele>
        <time>2016-07-06T17:26:40Z</time>
        <sat>10</sat>
      </trkpt>
      <trkpt lat="43.495729" lon="10.946363">
        <ele>366.5</ele>
        <time>2016-07-06T17:26:41Z</time>
        <sat>9</sat>
      </trkpt>
      <trkpt lat="43.495836" lon="10.946465">
        <ele>365.0</ele>
        <time>2016-07-06T17:26:42Z</time>
        <sat>10</sat>
      </trkpt>
      <trkpt lat="43.495943" lon="10.946574">
        <ele>365.8</ele>
        <time>2016-07-06T17:26:43Z</time>
        <sat>9</sat>
      </trkpt>
      <trkpt lat="43.496040" lon="10.946683">
        <ele>365.0</ele>
        <time>2016-07-06T17:26:44Z</time>
        <sat>9</sat>
      </trkpt>
      <trkpt lat="43.496121" lon="10.946794">
        <ele>364.3</ele>
        <time>2016-07-06T17:26:45Z</time>
        <sat>7</sat>
      </trkpt>
      <trkpt lat="43.496191" lon="10.946906">
        <ele>363.7</ele>
        <time>2016-07-06T17:26:46Z</time>
        <sat>8</sat>
      </trkpt>
      <trkpt lat="43.496267" lon="10.946998">
        <ele>363.2</ele>
        <time>2016-07-06T17:26:47Z</time>
        <sat>9</sat>
      </trkpt>
      <trkpt lat="43.496359" lon="10.947072">
        <ele>361.9</ele>
        <time>2016-07-06T17:26:48Z</time>
        <sat>8</sat>
      </trkpt>
      <trkpt lat="43.496457" lon="10.947118">
        <ele>360.0</ele>
        <time>2016-07-06T17:26:49Z</time>
        <sat>9</sat>
      </trkpt>
      <trkpt lat="43.496549" lon="10.947160">
        <ele>357.8</ele>
        <time>2016-07-06T17:26:50Z</time>
        <sat>9</sat>
      </trkpt>
      <trkpt lat="43.496666" lon="10.947180">
        <ele>354.3</ele>
        <time>2016-07-06T17:26:51Z</time>
        <sat>10</sat>
      </trkpt>
      <trkpt lat="43.496781" lon="10.947167">
        <ele>351.7</ele>
        <time>2016-07-06T17:26:52Z</time>
        <sat>10</sat>
      </trkpt>
      <trkpt lat="43.496902" lon="10.947143">
        <ele>349.4</ele>
        <time>2016-07-06T17:26:53Z</time>
        <sat>8</sat>
      </trkpt>
      <trkpt lat="43.497031" lon="10.947134">
        <ele>346.8</ele>
        <time>2016-07-06T17:26:54Z</time>
        <sat>10</sat>
      </trkpt>
      <trkpt lat="43.497169" lon="10.947130">
        <ele>344.5</ele>
        <time>2016-07-06T17:26:55Z</time>
        <sat>10</sat>
      </trkpt>
      <trkpt lat="43.497314" lon="10.947124">
        <ele>343.4</ele>
        <time>2016-07-06T17:26:56Z</time>
        <sat>9</sat>
      </trkpt>
      <trkpt lat="43.497453" lon="10.947108">
        <ele>342.4</ele>
        <time>2016-07-06T17:26:57Z</time>
        <sat>10</sat>
      </trkpt>
      <trkpt lat="43.497586" lon="10.947079">
        <ele>341.7</ele>
        <time>2016-07-06T17:26:58Z</time>
        <sat>9</sat>
      </trkpt>
      <trkpt lat="43.497721" lon="10.947044">
        <ele>340.5</ele>
        <time>2016-07-06T17:26:59Z</time>
        <sat>9</sat>
      </trkpt>
      <trkpt lat="43.497840" lon="10.947021">
        <ele>340.7</ele>
        <time>2016-07-06T17:27:00Z</time>
        <sat>9</sat>
      </trkpt>
      <trkpt lat="43.497955" lon="10.947016">
        <ele>340.3</ele>
        <time>2016-07-06T17:27:01Z</time>
        <sat>10</sat>
      </trkpt>
      <trkpt lat="43.498074" lon="10.947033">
        <ele>339.9</ele>
        <time>2016-07-06T17:27:02Z</time>
        <sat>9</sat>
      </trkpt>
      <trkpt lat="43.498209" lon="10.947079">
        <ele>337.2</ele>
        <time>2016-07-06T17:27:03Z</time>
        <sat>9</sat>
      </trkpt>
      <trkpt lat="43.498317" lon="10.947146">
        <ele>337.2</ele>
        <time>2016-07-06T17:27:04Z</time>
        <sat>10</sat>
      </trkpt>
      <trkpt lat="43.498408" lon="10.947214">
        <ele>337.1</ele>
        <time>2016-07-06T17:27:05Z</time>
        <sat>10</sat>
      </trkpt>
      <trkpt lat="43.498491" lon="10.947298">
        <ele>336.5</ele>
        <time>2016-07-06T17:27:06Z</time>
        <sat>10</sat>
      </trkpt>
      <trkpt lat="43.498584" lon="10.947399">
        <ele>337.1</ele>
        <time>2016-07-06T17:27:07Z</time>
        <sat>9</sat>
      </trkpt>
      <trkpt lat="43.498688" lon="10.947497">
        <ele>335.9</ele>
        <time>2016-07-06T17:27:08Z</time>
        <sat>8</sat>
      </trkpt>
      <trkpt lat="43.498806" lon="10.947590">
        <ele>335.5</ele>
        <time>2016-07-06T17:27:09Z</time>
        <sat>10</sat>
      </trkpt>
      <trkpt lat="43.498937" lon="10.947680">
        <ele>335.1</ele>
        <time>2016-07-06T17:27:10Z</time>
        <sat>9</sat>
      </trkpt>
      <trkpt lat="43.499069" lon="10.947758">
        <ele>335.6</ele>
        <time>2016-07-06T17:27:11Z</time>
        <sat>9</sat>
      </trkpt>
      <trkpt lat="43.499199" lon="10.947816">
        <ele>337.9</ele>
        <time>2016-07-06T17:27:12Z</time>
        <sat>9</sat>
      </trkpt>
      <trkpt lat="43.499306" lon="10.947858">
        <ele>338.2</ele>
        <time>2016-07-06T17:27:13Z</time>
        <sat>9</sat>
      </trkpt>
      <trkpt lat="43.499399" lon="10.947912">
        <ele>340.0</ele>
        <time>2016-07-06T17:27:14Z</time>
        <sat>10</sat>
      </trkpt>
      <trkpt lat="43.499513" lon="10.947954">
        <ele>341.3</ele>
        <time>2016-07-06T17:27:15Z</time>
        <sat>10</sat>
      </trkpt>
      <trkpt lat="43.499622" lon="10.947992">
        <ele>340.9</ele>
        <time>2016-07-06T17:27:16Z</time>
        <sat>8</sat>
      </trkpt>
      <trkpt lat="43.499755" lon="10.948040">
        <ele>339.8</ele>
        <time>2016-07-06T17:27:17Z</time>
        <sat>9</sat>
      </trkpt>
      <trkpt lat="43.499897" lon="10.948083">
        <ele>339.5</ele>
        <time>2016-07-06T17:27:18Z</time>
        <sat>10</sat>
      </trkpt>
      <trkpt lat="43.500046" lon="10.948116">
        <ele>339.0</ele>
        <time>2016-07-06T17:27:19Z</time>
        <sat>8</sat>
      </trkpt>
      <trkpt lat="43.500200" lon="10.948149">
        <ele>338.8</ele>
        <time>2016-07-06T17:27:20Z</time>
        <sat>8</sat>
      </trkpt>
      <trkpt lat="43.500346" lon="10.948176">
        <ele>337.5</ele>
        <time>2016-07-06T17:27:21Z</time>
        <sat>9</sat>
      </trkpt>
      <trkpt lat="43.500471" lon="10.948215">
        <ele>336.7</ele>
        <time>2016-07-06T17:27:22Z</time>
        <sat>10</sat>
      </trkpt>
      <trkpt lat="43.500584" lon="10.948242">
        <ele>336.2</ele>
        <time>2016-07-06T17:27:23Z</time>
        <sat>10</sat>
      </trkpt>
      <trkpt lat="43.500700" lon="10.948262">
        <ele>335.9</ele>
        <time>2016-07-06T17:27:24Z</time>
        <sat>10</sat>
      </trkpt>
      <trkpt lat="43.500833" lon="10.948266">
        <ele>334.9</ele>
        <time>2016-07-06T17:27:25Z</time>
        <sat>9</sat>
      </trkpt>
      <trkpt lat="43.500974" lon="10.948262">
        <ele>333.0</ele>
        <time>2016-07-06T17:27:26Z</time>
        <sat>10</sat>
      </trkpt>
      <trkpt lat="43.501103" lon="10.948274">
        <ele>333.0</ele>
        <time>2016-07-06T17:27:27Z</time>
        <sat>10</sat>
      </trkpt>
      <trkpt lat="43.501225" lon="10.948300">
        <ele>332.7</ele>
        <time>2016-07-06T17:27:28Z</time>
        <sat>10</sat>
      </trkpt>
      <trkpt lat="43.501331" lon="10.948312">
        <ele>332.4</ele>
        <time>2016-07-06T17:27:29Z</time>
        <sat>10</sat>
      </trkpt>
      <trkpt lat="43.501431" lon="10.948320">
        <ele>331.7</ele>
        <time>2016-07-06T17:27:30Z</time>
        <sat>9</sat>
      </trkpt>
      <trkpt lat="43.501527" lon="10.948328">
        <ele>330.6</ele>
        <time>2016-07-06T17:27:31Z</time>
        <sat>9</sat>
      </trkpt>
      <trkpt lat="43.501704" lon="10.948368">
        <ele>329.7</ele>
        <time>2016-07-06T17:27:33Z</time>
        <sat>9</sat>
      </trkpt>
      <trkpt lat="43.501933" lon="10.948415">
        <ele>329.0</ele>
        <time>2016-07-06T17:27:35Z</time>
        <sat>10</sat>
      </trkpt>
      <trkpt lat="43.502052" lon="10.948422">
        <ele>328.7</ele>
        <time>2016-07-06T17:27:36Z</time>
        <sat>10</sat>
      </trkpt>
      <trkpt lat="43.502174" lon="10.948437">
        <ele>328.1</ele>
        <time>2016-07-06T17:27:37Z</time>
        <sat>10</sat>
      </trkpt>
      <trkpt lat="43.502289" lon="10.948447">
        <ele>325.6</ele>
        <time>2016-07-06T17:27:38Z</time>
        <sat>10</sat>
      </trkpt>
      <trkpt lat="43.502390" lon="10.948452">
        <ele>324.5</ele>
        <time>2016-07-06T17:27:39Z</time>
        <sat>10</sat>
      </trkpt>
      <trkpt lat="43.502492" lon="10.948459">
        <ele>323.5</ele>
        <time>2016-07-06T17:27:40Z</time>
        <sat>10</sat>
      </trkpt>
      <trkpt lat="43.502591" lon="10.948455">
        <ele>322.4</ele>
        <time>2016-07-06T17:27:41Z</time>
        <sat>10</sat>
      </trkpt>
      <trkpt lat="43.502700" lon="10.948437">
        <ele>321.6</ele>
        <time>2016-07-06T17:27:42Z</time>
        <sat>9</sat>
      </trkpt>
      <trkpt lat="43.502813" lon="10.948408">
        <ele>321.0</ele>
        <time>2016-07-06T17:27:43Z</time>
        <sat>10</sat>
      </trkpt>
      <trkpt lat="43.502927" lon="10.948377">
        <ele>320.0</ele>
        <time>2016-07-06T17:27:44Z</time>
        <sat>9</sat>
      </trkpt>
      <trkpt lat="43.503039" lon="10.948377">
        <ele>320.4</ele>
        <time>2016-07-06T17:27:45Z</time>
        <sat>9</sat>
      </trkpt>
      <trkpt lat="43.503169" lon="10.948371">
        <ele>319.7</ele>
        <time>2016-07-06T17:27:46Z</time>
        <sat>9</sat>
      </trkpt>
      <trkpt lat="43.503289" lon="10.948356">
        <ele>318.8</ele>
        <time>2016-07-06T17:27:47Z</time>
        <sat>10</sat>
      </trkpt>
      <trkpt lat="43.503411" lon="10.948343">
        <ele>318.2</ele>
        <time>2016-07-06T17:27:48Z</time>
        <sat>10</sat>
      </trkpt>
      <trkpt lat="43.503557" lon="10.948355">
        <ele>316.8</ele>
        <time>2016-07-06T17:27:49Z</time>
        <sat>10</sat>
      </trkpt>
      <trkpt lat="43.503708" lon="10.948372">
        <ele>316.5</ele>
        <time>2016-07-06T17:27:50Z</time>
        <sat>10</sat>
      </trkpt>
      <trkpt lat="43.503863" lon="10.948371">
        <ele>315.4</ele>
        <time>2016-07-06T17:27:51Z</time>
        <sat>10</sat>
      </trkpt>
      <trkpt lat="43.504004" lon="10.948370">
        <ele>315.1</ele>
        <time>2016-07-06T17:27:52Z</time>
        <sat>10</sat>
      </trkpt>
      <trkpt lat="43.504142" lon="10.948359">
        <ele>315.4</ele>
        <time>2016-07-06T17:27:53Z</time>
        <sat>10</sat>
      </trkpt>
      <trkpt lat="43.504274" lon="10.948334">
        <ele>313.1</ele>
        <time>2016-07-06T17:27:54Z</time>
        <sat>10</sat>
      </trkpt>
      <trkpt lat="43.504390" lon="10.948317">
        <ele>312.2</ele>
        <time>2016-07-06T17:27:55Z</time>
        <sat>10</sat>
      </trkpt>
      <trkpt lat="43.504496" lon="10.948305">
        <ele>311.9</ele>
        <time>2016-07-06T17:27:56Z</time>
        <sat>10</sat>
      </trkpt>
      <trkpt lat="43.504597" lon="10.948293">
        <ele>312.1</ele>
        <time>2016-07-06T17:27:57Z</time>
        <sat>10</sat>
      </trkpt>
      <trkpt lat="43.504690" lon="10.948281">
        <ele>311.4</ele>
        <time>2016-07-06T17:27:58Z</time>
        <sat>10</sat>
      </trkpt>
      <trkpt lat="43.504837" lon="10.948277">
        <ele>311.6</ele>
        <time>2016-07-06T17:28:00Z</time>
        <sat>9</sat>
      </trkpt>
      <trkpt lat="43.504993" lon="10.948300">
        <ele>314.2</ele>
        <time>2016-07-06T17:28:02Z</time>
        <sat>10</sat>
      </trkpt>
      <trkpt lat="43.505133" lon="10.948353">
        <ele>316.0</ele>
        <time>2016-07-06T17:28:05Z</time>
        <sat>9</sat>
      </trkpt>
      <trkpt lat="43.505299" lon="10.948284">
        <ele>318.6</ele>
        <time>2016-07-06T17:28:08Z</time>
        <sat>10</sat>
      </trkpt>
      <trkpt lat="43.505400" lon="10.948262">
        <ele>319.6</ele>
        <time>2016-07-06T17:28:09Z</time>
        <sat>10</sat>
      </trkpt>
      <trkpt lat="43.505505" lon="10.948262">
        <ele>320.8</ele>
        <time>2016-07-06T17:28:10Z</time>
        <sat>10</sat>
      </trkpt>
      <trkpt lat="43.505620" lon="10.948281">
        <ele>322.5</ele>
        <time>2016-07-06T17:28:11Z</time>
        <sat>10</sat>
      </trkpt>
      <trkpt lat="43.505726" lon="10.948308">
        <ele>323.0</ele>
        <time>2016-07-06T17:28:12Z</time>
        <sat>10</sat>
      </trkpt>
      <trkpt lat="43.505822" lon="10.948345">
        <ele>323.3</ele>
        <time>2016-07-06T17:28:13Z</time>
        <sat>9</sat>
      </trkpt>
      <trkpt lat="43.505914" lon="10.948393">
        <ele>323.5</ele>
        <time>2016-07-06T17:28:14Z</time>
        <sat>10</sat>
      </trkpt>
      <trkpt lat="43.506062" lon="10.948479">
        <ele>323.3</ele>
        <time>2016-07-06T17:28:16Z</time>
        <sat>9</sat>
      </trkpt>
      <trkpt lat="43.506203" lon="10.948588">
        <ele>321.0</ele>
        <time>2016-07-06T17:28:18Z</time>
        <sat>10</sat>
      </trkpt>
      <trkpt lat="43.506279" lon="10.948659">
        <ele>320.4</ele>
        <time>2016-07-06T17:28:19Z</time>
        <sat>10</sat>
      </trkpt>
      <trkpt lat="43.506372" lon="10.948718">
        <ele>319.8</ele>
        <time>2016-07-06T17:28:20Z</time>
        <sat>9</sat>
      </trkpt>
      <trkpt lat="43.506469" lon="10.948774">
        <ele>319.6</ele>
        <time>2016-07-06T17:28:21Z</time>
        <sat>10</sat>
      </trkpt>
      <trkpt lat="43.506576" lon="10.948815">
        <ele>318.3</ele>
        <time>2016-07-06T17:28:22Z</time>
        <sat>10</sat>
      </trkpt>
      <trkpt lat="43.506670" lon="10.948851">
        <ele>319.1</ele>
        <time>2016-07-06T17:28:23Z</time>
        <sat>10</sat>
      </trkpt>
      <trkpt lat="43.506770" lon="10.948865">
        <ele>318.0</ele>
        <time>2016-07-06T17:28:24Z</time>
        <sat>10</sat>
      </trkpt>
      <trkpt lat="43.506869" lon="10.948888">
        <ele>317.9</ele>
        <time>2016-07-06T17:28:25Z</time>
        <sat>9</sat>
      </trkpt>
      <trkpt lat="43.506992" lon="10.948907">
        <ele>317.4</ele>
        <time>2016-07-06T17:28:26Z</time>
        <sat>10</sat>
      </trkpt>
      <trkpt lat="43.507131" lon="10.948938">
        <ele>316.8</ele>
        <time>2016-07-06T17:28:27Z</time>
        <sat>9</sat>
      </trkpt>
      <trkpt lat="43.507255" lon="10.948970">
        <ele>316.5</ele>
        <time>2016-07-06T17:28:28Z</time>
        <sat>10</sat>
      </trkpt>
      <trkpt lat="43.507364" lon="10.949006">
        <ele>315.9</ele>
        <time>2016-07-06T17:28:29Z</time>
        <sat>10</sat>
      </trkpt>
      <trkpt lat="43.507455" lon="10.949044">
        <ele>315.8</ele>
        <time>2016-07-06T17:28:30Z</time>
        <sat>7</sat>
      </trkpt>
      <trkpt lat="43.507564" lon="10.949069">
        <ele>315.7</ele>
        <time>2016-07-06T17:28:31Z</time>
        <sat>10</sat>
      </trkpt>
      <trkpt lat="43.507678" lon="10.949081">
        <ele>315.7</ele>
        <time>2016-07-06T17:28:32Z</time>
        <sat>10</sat>
      </trkpt>
      <trkpt lat="43.507796" lon="10.949085">
        <ele>314.4</ele>
        <time>2016-07-06T17:28:33Z</time>
        <sat>10</sat>
      </trkpt>
      <trkpt lat="43.507940" lon="10.949091">
        <ele>314.1</ele>
        <time>2016-07-06T17:28:34Z</time>
        <sat>9</sat>
      </trkpt>
      <trkpt lat="43.508095" lon="10.949113">
        <ele>314.7</ele>
        <time>2016-07-06T17:28:35Z</time>
        <sat>10</sat>
      </trkpt>
      <trkpt lat="43.508364" lon="10.949098">
        <ele>314.4</ele>
        <time>2016-07-06T17:28:37Z</time>
        <sat>7</sat>
      </trkpt>
      <trkpt lat="43.508471" lon="10.949092">
        <ele>314.5</ele>
        <time>2016-07-06T17:28:38Z</time>
        <sat>10</sat>
      </trkpt>
      <trkpt lat="43.508567" lon="10.949075">
        <ele>314.4</ele>
        <time>2016-07-06T17:28:39Z</time>
        <sat>8</sat>
      </trkpt>
      <trkpt lat="43.508664" lon="10.949079">
        <ele>315.2</ele>
        <time>2016-07-06T17:28:40Z</time>
        <sat>10</sat>
      </trkpt>
      <trkpt lat="43.508845" lon="10.949074">
        <ele>316.2</ele>
        <time>2016-07-06T17:28:42Z</time>
        <sat>8</sat>
      </trkpt>
      <trkpt lat="43.509017" lon="10.949120">
        <ele>315.8</ele>
        <time>2016-07-06T17:28:44Z</time>
        <sat>9</sat>
      </trkpt>
      <trkpt lat="43.509112" lon="10.949175">
        <ele>315.6</ele>
        <time>2016-07-06T17:28:45Z</time>
        <sat>9</sat>
      </trkpt>
      <trkpt lat="43.509205" lon="10.949247">
        <ele>315.4</ele>
        <time>2016-07-06T17:28:46Z</time>
        <sat>9</sat>
      </trkpt>
      <trkpt lat="43.509293" lon="10.949333">
        <ele>315.3</ele>
        <time>2016-07-06T17:28:47Z</time>
        <sat>10</sat>
      </trkpt>
      <trkpt lat="43.509357" lon="10.949424">
        <ele>315.4</ele>
        <time>2016-07-06T17:28:48Z</time>
        <sat>9</sat>
      </trkpt>
      <trkpt lat="43.509422" lon="10.949539">
        <ele>315.5</ele>
        <time>2016-07-06T17:28:49Z</time>
        <sat>10</sat>
      </trkpt>
      <trkpt lat="43.509483" lon="10.949655">
        <ele>315.8</ele>
        <time>2016-07-06T17:28:50Z</time>
        <sat>10</sat>
      </trkpt>
      <trkpt lat="43.509551" lon="10.949777">
        <ele>315.5</ele>
        <time>2016-07-06T17:28:51Z</time>
        <sat>10</sat>
      </trkpt>
      <trkpt lat="43.509616" lon="10.949905">
        <ele>316.0</ele>
        <time>2016-07-06T17:28:52Z</time>
        <sat>9</sat>
      </trkpt>
      <trkpt lat="43.509695" lon="10.950013">
        <ele>316.6</ele>
        <time>2016-07-06T17:28:53Z</time>
        <sat>10</sat>
      </trkpt>
      <trkpt lat="43.509786" lon="10.950114">
        <ele>318.4</ele>
        <time>2016-07-06T17:28:54Z</time>
        <sat>10</sat>
      </trkpt>
      <trkpt lat="43.509875" lon="10.950211">
        <ele>319.7</ele>
        <time>2016-07-06T17:28:55Z</time>
        <sat>9</sat>
      </trkpt>
      <trkpt lat="43.509966" lon="10.950302">
        <ele>321.6</ele>
        <time>2016-07-06T17:28:56Z</time>
        <sat>9</sat>
      </trkpt>
      <trkpt lat="43.510063" lon="10.950365">
        <ele>322.8</ele>
        <time>2016-07-06T17:28:57Z</time>
        <sat>10</sat>
      </trkpt>
      <trkpt lat="43.510158" lon="10.950408">
        <ele>324.0</ele>
        <time>2016-07-06T17:28:58Z</time>
        <sat>10</sat>
      </trkpt>
      <trkpt lat="43.510299" lon="10.950474">
        <ele>325.1</ele>
        <time>2016-07-06T17:29:00Z</time>
        <sat>10</sat>
      </trkpt>
      <trkpt lat="43.510429" lon="10.950530">
        <ele>325.1</ele>
        <time>2016-07-06T17:29:02Z</time>
        <sat>10</sat>
      </trkpt>
      <trkpt lat="43.510570" lon="10.950568">
        <ele>322.0</ele>
        <time>2016-07-06T17:29:04Z</time>
        <sat>10</sat>
      </trkpt>
      <trkpt lat="43.510653" lon="10.950685">
        <ele>322.7</ele>
        <time>2016-07-06T17:29:06Z</time>
        <sat>8</sat>
      </trkpt>
      <trkpt lat="43.510738" lon="10.950813">
        <ele>322.9</ele>
        <time>2016-07-06T17:29:09Z</time>
        <sat>10</sat>
      </trkpt>
      <trkpt lat="43.510910" lon="10.950912">
        <ele>321.3</ele>
        <time>2016-07-06T17:29:11Z</time>
        <sat>9</sat>
      </trkpt>
      <trkpt lat="43.511052" lon="10.951008">
        <ele>322.2</ele>
        <time>2016-07-06T17:29:13Z</time>
        <sat>10</sat>
      </trkpt>
      <trkpt lat="43.511228" lon="10.951063">
        <ele>322.0</ele>
        <time>2016-07-06T17:29:15Z</time>
        <sat>9</sat>
      </trkpt>
      <trkpt lat="43.511400" lon="10.951127">
        <ele>319.1</ele>
        <time>2016-07-06T17:29:17Z</time>
        <sat>10</sat>
      </trkpt>
      <trkpt lat="43.511548" lon="10.951206">
        <ele>318.7</ele>
        <time>2016-07-06T17:29:19Z</time>
        <sat>10</sat>
      </trkpt>
      <trkpt lat="43.511681" lon="10.951308">
        <ele>317.6</ele>
        <time>2016-07-06T17:29:21Z</time>
        <sat>10</sat>
      </trkpt>
      <trkpt lat="43.511784" lon="10.951433">
        <ele>316.7</ele>
        <time>2016-07-06T17:29:23Z</time>
        <sat>10</sat>
      </trkpt>
      <trkpt lat="43.511829" lon="10.951542">
        <ele>316.0</ele>
        <time>2016-07-06T17:29:25Z</time>
        <sat>10</sat>
      </trkpt>
      <trkpt lat="43.511821" lon="10.951741">
        <ele>313.9</ele>
        <time>2016-07-06T17:29:28Z</time>
        <sat>10</sat>
      </trkpt>
      <trkpt lat="43.511821" lon="10.951908">
        <ele>311.4</ele>
        <time>2016-07-06T17:29:30Z</time>
        <sat>10</sat>
      </trkpt>
      <trkpt lat="43.511811" lon="10.952099">
        <ele>310.3</ele>
        <time>2016-07-06T17:29:32Z</time>
        <sat>9</sat>
      </trkpt>
      <trkpt lat="43.511782" lon="10.952257">
        <ele>307.8</ele>
        <time>2016-07-06T17:29:34Z</time>
        <sat>9</sat>
      </trkpt>
      <trkpt lat="43.511740" lon="10.952452">
        <ele>304.6</ele>
        <time>2016-07-06T17:29:36Z</time>
        <sat>9</sat>
      </trkpt>
      <trkpt lat="43.511674" lon="10.952640">
        <ele>300.9</ele>
        <time>2016-07-06T17:29:38Z</time>
        <sat>10</sat>
      </trkpt>
      <trkpt lat="43.511514" lon="10.952951">
        <ele>293.0</ele>
        <time>2016-07-06T17:29:42Z</time>
        <sat>9</sat>
      </trkpt>
      <trkpt lat="43.511408" lon="10.953051">
        <ele>286.9</ele>
        <time>2016-07-06T17:29:44Z</time>
        <sat>9</sat>
      </trkpt>
      <trkpt lat="43.511318" lon="10.953134">
        <ele>284.8</ele>
        <time>2016-07-06T17:29:46Z</time>
        <sat>9</sat>
      </trkpt>
      <trkpt lat="43.511284" lon="10.953282">
        <ele>289.8</ele>
        <time>2016-07-06T17:29:48Z</time>
        <sat>9</sat>
      </trkpt>
      <trkpt lat="43.511365" lon="10.953380">
        <ele>289.4</ele>
        <time>2016-07-06T17:29:51Z</time>
        <sat>9</sat>
      </trkpt>
      <trkpt lat="43.511482" lon="10.953392">
        <ele>289.5</ele>
        <time>2016-07-06T17:29:53Z</time>
        <sat>8</sat>
      </trkpt>
      <trkpt lat="43.511614" lon="10.953384">
        <ele>287.7</ele>
        <time>2016-07-06T17:29:55Z</time>
        <sat>9</sat>
      </trkpt>
      <trkpt lat="43.511720" lon="10.953378">
        <ele>286.7</ele>
        <time>2016-07-06T17:29:57Z</time>
        <sat>9</sat>
      </trkpt>
      <trkpt lat="43.511838" lon="10.953387">
        <ele>283.9</ele>
        <time>2016-07-06T17:29:59Z</time>
        <sat>10</sat>
      </trkpt>
      <trkpt lat="43.511961" lon="10.953434">
        <ele>280.5</ele>
        <time>2016-07-06T17:30:01Z</time>
        <sat>10</sat>
      </trkpt>
      <trkpt lat="43.512069" lon="10.953590">
        <ele>278.3</ele>
        <time>2016-07-06T17:30:03Z</time>
        <sat>10</sat>
      </trkpt>
      <trkpt lat="43.512189" lon="10.953833">
        <ele>277.9</ele>
        <time>2016-07-06T17:30:05Z</time>
        <sat>9</sat>
      </trkpt>
      <trkpt lat="43.512262" lon="10.953971">
        <ele>277.2</ele>
        <time>2016-07-06T17:30:06Z</time>
        <sat>9</sat>
      </trkpt>
      <trkpt lat="43.512316" lon="10.954114">
        <ele>277.5</ele>
        <time>2016-07-06T17:30:07Z</time>
        <sat>9</sat>
      </trkpt>
      <trkpt lat="43.512372" lon="10.954257">
        <ele>277.2</ele>
        <time>2016-07-06T17:30:08Z</time>
        <sat>9</sat>
      </trkpt>
      <trkpt lat="43.512426" lon="10.954391">
        <ele>276.9</ele>
        <time>2016-07-06T17:30:09Z</time>
        <sat>9</sat>
      </trkpt>
      <trkpt lat="43.512475" lon="10.954510">
        <ele>276.6</ele>
        <time>2016-07-06T17:30:10Z</time>
        <sat>9</sat>
      </trkpt>
      <trkpt lat="43.512555" lon="10.954706">
        <ele>278.6</ele>
        <time>2016-07-06T17:30:12Z</time>
        <sat>9</sat>
      </trkpt>
      <trkpt lat="43.512620" lon="10.954848">
        <ele>281.1</ele>
        <time>2016-07-06T17:30:14Z</time>
        <sat>9</sat>
      </trkpt>
      <trkpt lat="43.512681" lon="10.954960">
        <ele>281.5</ele>
        <time>2016-07-06T17:30:17Z</time>
        <sat>8</sat>
      </trkpt>
      <trkpt lat="43.512734" lon="10.955088">
        <ele>280.9</ele>
        <time>2016-07-06T17:30:20Z</time>
        <sat>10</sat>
      </trkpt>
      <trkpt lat="43.512807" lon="10.955271">
        <ele>281.7</ele>
        <time>2016-07-06T17:30:22Z</time>
        <sat>10</sat>
      </trkpt>
      <trkpt lat="43.512845" lon="10.955393">
        <ele>281.7</ele>
        <time>2016-07-06T17:30:23Z</time>
        <sat>10</sat>
      </trkpt>
      <trkpt lat="43.512875" lon="10.955520">
        <ele>282.1</ele>
        <time>2016-07-06T17:30:24Z</time>
        <sat>10</sat>
      </trkpt>
      <trkpt lat="43.512912" lon="10.955639">
        <ele>282.9</ele>
        <time>2016-07-06T17:30:25Z</time>
        <sat>10</sat>
      </trkpt>
      <trkpt lat="43.512966" lon="10.955751">
        <ele>283.8</ele>
        <time>2016-07-06T17:30:26Z</time>
        <sat>10</sat>
      </trkpt>
      <trkpt lat="43.513036" lon="10.955851">
        <ele>284.7</ele>
        <time>2016-07-06T17:30:27Z</time>
        <sat>10</sat>
      </trkpt>
      <trkpt lat="43.513124" lon="10.955941">
        <ele>285.5</ele>
        <time>2016-07-06T17:30:28Z</time>
        <sat>8</sat>
      </trkpt>
      <trkpt lat="43.513209" lon="10.956039">
        <ele>286.1</ele>
        <time>2016-07-06T17:30:29Z</time>
        <sat>10</sat>
      </trkpt>
      <trkpt lat="43.513282" lon="10.956140">
        <ele>286.3</ele>
        <time>2016-07-06T17:30:30Z</time>
        <sat>9</sat>
      </trkpt>
      <trkpt lat="43.513342" lon="10.956247">
        <ele>286.6</ele>
        <time>2016-07-06T17:30:31Z</time>
        <sat>9</sat>
      </trkpt>
      <trkpt lat="43.513390" lon="10.956357">
        <ele>286.8</ele>
        <time>2016-07-06T17:30:32Z</time>
        <sat>10</sat>
      </trkpt>
      <trkpt lat="43.513438" lon="10.956472">
        <ele>286.9</ele>
        <time>2016-07-06T17:30:33Z</time>
        <sat>9</sat>
      </trkpt>
      <trkpt lat="43.513491" lon="10.956592">
        <ele>287.0</ele>
        <time>2016-07-06T17:30:34Z</time>
        <sat>9</sat>
      </trkpt>
      <trkpt lat="43.513543" lon="10.956714">
        <ele>286.9</ele>
        <time>2016-07-06T17:30:35Z</time>
        <sat>10</sat>
      </trkpt>
      <trkpt lat="43.513600" lon="10.956835">
        <ele>286.8</ele>
        <time>2016-07-06T17:30:36Z</time>
        <sat>10</sat>
      </trkpt>
      <trkpt lat="43.513671" lon="10.956953">
        <ele>286.5</ele>
        <time>2016-07-06T17:30:37Z</time>
        <sat>10</sat>
      </trkpt>
      <trkpt lat="43.513748" lon="10.957061">
        <ele>286.4</ele>
        <time>2016-07-06T17:30:38Z</time>
        <sat>10</sat>
      </trkpt>
      <trkpt lat="43.513825" lon="10.957169">
        <ele>286.1</ele>
        <time>2016-07-06T17:30:39Z</time>
        <sat>10</sat>
      </trkpt>
      <trkpt lat="43.513896" lon="10.957270">
        <ele>285.6</ele>
        <time>2016-07-06T17:30:40Z</time>
        <sat>10</sat>
      </trkpt>
      <trkpt lat="43.514073" lon="10.957557">
        <ele>284.3</ele>
        <time>2016-07-06T17:30:43Z</time>
        <sat>10</sat>
      </trkpt>
      <trkpt lat="43.514160" lon="10.957734">
        <ele>283.1</ele>
        <time>2016-07-06T17:30:45Z</time>
        <sat>10</sat>
      </trkpt>
      <trkpt lat="43.514259" lon="10.957873">
        <ele>281.7</ele>
        <time>2016-07-06T17:30:47Z</time>
        <sat>10</sat>
      </trkpt>
      <trkpt lat="43.514388" lon="10.958026">
        <ele>279.4</ele>
        <time>2016-07-06T17:30:49Z</time>
        <sat>9</sat>
      </trkpt>
      <trkpt lat="43.514516" lon="10.958168">
        <ele>277.1</ele>
        <time>2016-07-06T17:30:51Z</time>
        <sat>9</sat>
      </trkpt>
      <trkpt lat="43.514652" lon="10.958294">
        <ele>276.2</ele>
        <time>2016-07-06T17:30:53Z</time>
        <sat>10</sat>
      </trkpt>
      <trkpt lat="43.514726" lon="10.958367">
        <ele>275.6</ele>
        <time>2016-07-06T17:30:54Z</time>
        <sat>8</sat>
      </trkpt>
      <trkpt lat="43.514800" lon="10.958452">
        <ele>274.7</ele>
        <time>2016-07-06T17:30:55Z</time>
        <sat>9</sat>
      </trkpt>
      <trkpt lat="43.514871" lon="10.958534">
        <ele>273.9</ele>
        <time>2016-07-06T17:30:56Z</time>
        <sat>9</sat>
      </trkpt>
      <trkpt lat="43.515005" lon="10.958670">
        <ele>272.8</ele>
        <time>2016-07-06T17:30:58Z</time>
        <sat>8</sat>
      </trkpt>
      <trkpt lat="43.515143" lon="10.958785">
        <ele>271.4</ele>
        <time>2016-07-06T17:31:00Z</time>
        <sat>9</sat>
      </trkpt>
      <trkpt lat="43.515293" lon="10.958863">
        <ele>270.2</ele>
        <time>2016-07-06T17:31:02Z</time>
        <sat>9</sat>
      </trkpt>
      <trkpt lat="43.515442" lon="10.958952">
        <ele>268.4</ele>
        <time>2016-07-06T17:31:04Z</time>
        <sat>10</sat>
      </trkpt>
      <trkpt lat="43.515570" lon="10.959057">
        <ele>267.2</ele>
        <time>2016-07-06T17:31:06Z</time>
        <sat>10</sat>
      </trkpt>
      <trkpt lat="43.515683" lon="10.959196">
        <ele>266.4</ele>
        <time>2016-07-06T17:31:08Z</time>
        <sat>10</sat>
      </trkpt>
      <trkpt lat="43.515791" lon="10.959364">
        <ele>265.1</ele>
        <time>2016-07-06T17:31:10Z</time>
        <sat>10</sat>
      </trkpt>
      <trkpt lat="43.515867" lon="10.959542">
        <ele>264.2</ele>
        <time>2016-07-06T17:31:12Z</time>
        <sat>9</sat>
      </trkpt>
      <trkpt lat="43.515922" lon="10.959643">
        <ele>264.1</ele>
        <time>2016-07-06T17:31:13Z</time>
        <sat>9</sat>
      </trkpt>
      <trkpt lat="43.515980" lon="10.959762">
        <ele>263.9</ele>
        <time>2016-07-06T17:31:14Z</time>
        <sat>10</sat>
      </trkpt>
      <trkpt lat="43.516037" lon="10.959893">
        <ele>263.6</ele>
        <time>2016-07-06T17:31:15Z</time>
        <sat>10</sat>
      </trkpt>
      <trkpt lat="43.516092" lon="10.960024">
        <ele>263.3</ele>
        <time>2016-07-06T17:31:16Z</time>
        <sat>9</sat>
      </trkpt>
      <trkpt lat="43.516146" lon="10.960155">
        <ele>262.7</ele>
        <time>2016-07-06T17:31:17Z</time>
        <sat>10</sat>
      </trkpt>
      <trkpt lat="43.516203" lon="10.960297">
        <ele>262.4</ele>
        <time>2016-07-06T17:31:18Z</time>
        <sat>10</sat>
      </trkpt>
      <trkpt lat="43.516275" lon="10.960429">
        <ele>263.4</ele>
        <time>2016-07-06T17:31:19Z</time>
        <sat>10</sat>
      </trkpt>
      <trkpt lat="43.516352" lon="10.960557">
        <ele>263.5</ele>
        <time>2016-07-06T17:31:20Z</time>
        <sat>9</sat>
      </trkpt>
      <trkpt lat="43.516435" lon="10.960683">
        <ele>263.8</ele>
        <time>2016-07-06T17:31:21Z</time>
        <sat>8</sat>
      </trkpt>
      <trkpt lat="43.516530" lon="10.960823">
        <ele>264.0</ele>
        <time>2016-07-06T17:31:22Z</time>
        <sat>9</sat>
      </trkpt>
      <trkpt lat="43.516630" lon="10.960965">
        <ele>264.1</ele>
        <time>2016-07-06T17:31:23Z</time>
        <sat>10</sat>
      </trkpt>
      <trkpt lat="43.516719" lon="10.961097">
        <ele>264.4</ele>
        <time>2016-07-06T17:31:24Z</time>
        <sat>10</sat>
      </trkpt>
      <trkpt lat="43.516792" lon="10.961222">
        <ele>264.4</ele>
        <time>2016-07-06T17:31:25Z</time>
        <sat>9</sat>
      </trkpt>
      <trkpt lat="43.516865" lon="10.961346">
        <ele>265.2</ele>
        <time>2016-07-06T17:31:26Z</time>
        <sat>10</sat>
      </trkpt>
      <trkpt lat="43.516929" lon="10.961470">
        <ele>265.7</ele>
        <time>2016-07-06T17:31:27Z</time>
        <sat>10</sat>
      </trkpt>
      <trkpt lat="43.517016" lon="10.961592">
        <ele>266.0</ele>
        <time>2016-07-06T17:31:28Z</time>
        <sat>10</sat>
      </trkpt>
      <trkpt lat="43.517112" lon="10.961709">
        <ele>266.2</ele>
        <time>2016-07-06T17:31:29Z</time>
        <sat>9</sat>
      </trkpt>
      <trkpt lat="43.517201" lon="10.961817">
        <ele>266.1</ele>
        <time>2016-07-06T17:31:30Z</time>
        <sat>9</sat>
      </trkpt>
      <trkpt lat="43.517301" lon="10.961928">
        <ele>264.7</ele>
        <time>2016-07-06T17:31:31Z</time>
        <sat>9</sat>
      </trkpt>
      <trkpt lat="43.517404" lon="10.962035">
        <ele>264.8</ele>
        <time>2016-07-06T17:31:32Z</time>
        <sat>9</sat>
      </trkpt>
      <trkpt lat="43.517498" lon="10.962134">
        <ele>264.7</ele>
        <time>2016-07-06T17:31:33Z</time>
        <sat>10</sat>
      </trkpt>
      <trkpt lat="43.517582" lon="10.962232">
        <ele>264.9</ele>
        <time>2016-07-06T17:31:34Z</time>
        <sat>10</sat>
      </trkpt>
      <trkpt lat="43.517666" lon="10.962331">
        <ele>265.0</ele>
        <time>2016-07-06T17:31:35Z</time>
        <sat>10</sat>
      </trkpt>
      <trkpt lat="43.517744" lon="10.962435">
        <ele>264.8</ele>
        <time>2016-07-06T17:31:36Z</time>
        <sat>10</sat>
      </trkpt>
      <trkpt lat="43.517813" lon="10.962553">
        <ele>264.9</ele>
        <time>2016-07-06T17:31:37Z</time>
        <sat>10</sat>
      </trkpt>
      <trkpt lat="43.517880" lon="10.962668">
        <ele>264.8</ele>
        <time>2016-07-06T17:31:38Z</time>
        <sat>10</sat>
      </trkpt>
      <trkpt lat="43.517936" lon="10.962794">
        <ele>264.6</ele>
        <time>2016-07-06T17:31:39Z</time>
        <sat>9</sat>
      </trkpt>
      <trkpt lat="43.517994" lon="10.962922">
        <ele>264.1</ele>
        <time>2016-07-06T17:31:40Z</time>
        <sat>10</sat>
      </trkpt>
      <trkpt lat="43.518056" lon="10.963053">
        <ele>263.6</ele>
        <time>2016-07-06T17:31:41Z</time>
        <sat>10</sat>
      </trkpt>
      <trkpt lat="43.518125" lon="10.963202">
        <ele>263.9</ele>
        <time>2016-07-06T17:31:42Z</time>
        <sat>10</sat>
      </trkpt>
      <trkpt lat="43.518241" lon="10.963541">
        <ele>264.2</ele>
        <time>2016-07-06T17:31:44Z</time>
        <sat>10</sat>
      </trkpt>
      <trkpt lat="43.518288" lon="10.963708">
        <ele>264.1</ele>
        <time>2016-07-06T17:31:45Z</time>
        <sat>9</sat>
      </trkpt>
      <trkpt lat="43.518332" lon="10.963859">
        <ele>264.2</ele>
        <time>2016-07-06T17:31:46Z</time>
        <sat>9</sat>
      </trkpt>
      <trkpt lat="43.518384" lon="10.964002">
        <ele>264.3</ele>
        <time>2016-07-06T17:31:47Z</time>
        <sat>10</sat>
      </trkpt>
      <trkpt lat="43.518443" lon="10.964146">
        <ele>264.6</ele>
        <time>2016-07-06T17:31:48Z</time>
        <sat>10</sat>
      </trkpt>
      <trkpt lat="43.518498" lon="10.964277">
        <ele>265.6</ele>
        <time>2016-07-06T17:31:49Z</time>
        <sat>10</sat>
      </trkpt>
      <trkpt lat="43.518549" lon="10.964405">
        <ele>265.8</ele>
        <time>2016-07-06T17:31:50Z</time>
        <sat>10</sat>
      </trkpt>
      <trkpt lat="43.518590" lon="10.964540">
        <ele>266.3</ele>
        <time>2016-07-06T17:31:51Z</time>
        <sat>10</sat>
      </trkpt>
      <trkpt lat="43.518668" lon="10.964663">
        <ele>267.6</ele>
        <time>2016-07-06T17:31:52Z</time>
        <sat>10</sat>
      </trkpt>
      <trkpt lat="43.518725" lon="10.964797">
        <ele>268.1</ele>
        <time>2016-07-06T17:31:53Z</time>
        <sat>9</sat>
      </trkpt>
      <trkpt lat="43.518790" lon="10.964926">
        <ele>268.4</ele>
        <time>2016-07-06T17:31:54Z</time>
        <sat>10</sat>
      </trkpt>
      <trkpt lat="43.518852" lon="10.965064">
        <ele>268.7</ele>
        <time>2016-07-06T17:31:55Z</time>
        <sat>10</sat>
      </trkpt>
      <trkpt lat="43.518936" lon="10.965224">
        <ele>267.6</ele>
        <time>2016-07-06T17:31:56Z</time>
        <sat>9</sat>
      </trkpt>
      <trkpt lat="43.519048" lon="10.965391">
        <ele>265.3</ele>
        <time>2016-07-06T17:31:57Z</time>
        <sat>10</sat>
      </trkpt>
      <trkpt lat="43.519165" lon="10.965550">
        <ele>262.7</ele>
        <time>2016-07-06T17:31:58Z</time>
        <sat>10</sat>
      </trkpt>
      <trkpt lat="43.519276" lon="10.965695">
        <ele>261.9</ele>
        <time>2016-07-06T17:31:59Z</time>
        <sat>9</sat>
      </trkpt>
      <trkpt lat="43.519367" lon="10.965849">
        <ele>261.4</ele>
        <time>2016-07-06T17:32:00Z</time>
        <sat>10</sat>
      </trkpt>
      <trkpt lat="43.519454" lon="10.965994">
        <ele>260.9</ele>
        <time>2016-07-06T17:32:01Z</time>
        <sat>9</sat>
      </trkpt>
      <trkpt lat="43.519546" lon="10.966124">
        <ele>260.7</ele>
        <time>2016-07-06T17:32:02Z</time>
        <sat>10</sat>
      </trkpt>
      <trkpt lat="43.519628" lon="10.966250">
        <ele>260.5</ele>
        <time>2016-07-06T17:32:03Z</time>
        <sat>10</sat>
      </trkpt>
      <trkpt lat="43.519705" lon="10.966368">
        <ele>259.8</ele>
        <time>2016-07-06T17:32:04Z</time>
        <sat>10</sat>
      </trkpt>
      <trkpt lat="43.519780" lon="10.966482">
        <ele>259.3</ele>
        <time>2016-07-06T17:32:05Z</time>
        <sat>10</sat>
      </trkpt>
      <trkpt lat="43.519840" lon="10.966594">
        <ele>258.7</ele>
        <time>2016-07-06T17:32:06Z</time>
        <sat>10</sat>
      </trkpt>
      <trkpt lat="43.519947" lon="10.966787">
        <ele>256.8</ele>
        <time>2016-07-06T17:32:08Z</time>
        <sat>10</sat>
      </trkpt>
      <trkpt lat="43.520068" lon="10.966947">
        <ele>254.1</ele>
        <time>2016-07-06T17:32:10Z</time>
        <sat>10</sat>
      </trkpt>
      <trkpt lat="43.520139" lon="10.967040">
        <ele>253.0</ele>
        <time>2016-07-06T17:32:11Z</time>
        <sat>10</sat>
      </trkpt>
      <trkpt lat="43.520284" lon="10.967184">
        <ele>248.8</ele>
        <time>2016-07-06T17:32:13Z</time>
        <sat>10</sat>
      </trkpt>
      <trkpt lat="43.520361" lon="10.967263">
        <ele>248.9</ele>
        <time>2016-07-06T17:32:14Z</time>
        <sat>9</sat>
      </trkpt>
      <trkpt lat="43.520456" lon="10.967434">
        <ele>246.6</ele>
        <time>2016-07-06T17:32:16Z</time>
        <sat>10</sat>
      </trkpt>
      <trkpt lat="43.520514" lon="10.967638">
        <ele>244.9</ele>
        <time>2016-07-06T17:32:18Z</time>
        <sat>10</sat>
      </trkpt>
      <trkpt lat="43.520553" lon="10.967830">
        <ele>242.9</ele>
        <time>2016-07-06T17:32:20Z</time>
        <sat>9</sat>
      </trkpt>
      <trkpt lat="43.520590" lon="10.968024">
        <ele>241.0</ele>
        <time>2016-07-06T17:32:22Z</time>
        <sat>6</sat>
      </trkpt>
      <trkpt lat="43.520658" lon="10.968205">
        <ele>239.3</ele>
        <time>2016-07-06T17:32:24Z</time>
        <sat>7</sat>
      </trkpt>
      <trkpt lat="43.520746" lon="10.968405">
        <ele>238.5</ele>
        <time>2016-07-06T17:32:26Z</time>
        <sat>7</sat>
      </trkpt>
      <trkpt lat="43.520815" lon="10.968604">
        <ele>236.7</ele>
        <time>2016-07-06T17:32:28Z</time>
        <sat>9</sat>
      </trkpt>
      <trkpt lat="43.520901" lon="10.968780">
        <ele>235.3</ele>
        <time>2016-07-06T17:32:30Z</time>
        <sat>8</sat>
      </trkpt>
      <trkpt lat="43.521002" lon="10.968957">
        <ele>233.6</ele>
        <time>2016-07-06T17:32:32Z</time>
        <sat>6</sat>
      </trkpt>
      <trkpt lat="43.521107" lon="10.969134">
        <ele>232.4</ele>
        <time>2016-07-06T17:32:34Z</time>
        <sat>8</sat>
      </trkpt>
      <trkpt lat="43.521214" lon="10.969324">
        <ele>231.3</ele>
        <time>2016-07-06T17:32:36Z</time>
        <sat>8</sat>
      </trkpt>
      <trkpt lat="43.521308" lon="10.969488">
        <ele>230.2</ele>
        <time>2016-07-06T17:32:38Z</time>
        <sat>6</sat>
      </trkpt>
      <trkpt lat="43.521395" lon="10.969595">
        <ele>228.8</ele>
        <time>2016-07-06T17:32:40Z</time>
        <sat>8</sat>
      </trkpt>
      <trkpt lat="43.521507" lon="10.969657">
        <ele>227.5</ele>
        <time>2016-07-06T17:32:42Z</time>
        <sat>8</sat>
      </trkpt>
      <trkpt lat="43.521679" lon="10.969711">
        <ele>225.4</ele>
        <time>2016-07-06T17:32:44Z</time>
        <sat>10</sat>
      </trkpt>
      <trkpt lat="43.521917" lon="10.969851">
        <ele>222.3</ele>
        <time>2016-07-06T17:32:48Z</time>
        <sat>8</sat>
      </trkpt>
      <trkpt lat="43.521972" lon="10.970030">
        <ele>220.5</ele>
        <time>2016-07-06T17:32:50Z</time>
        <sat>9</sat>
      </trkpt>
      <trkpt lat="43.522010" lon="10.970255">
        <ele>218.6</ele>
        <time>2016-07-06T17:32:52Z</time>
        <sat>9</sat>
      </trkpt>
      <trkpt lat="43.522085" lon="10.970478">
        <ele>214.8</ele>
        <time>2016-07-06T17:32:54Z</time>
        <sat>9</sat>
      </trkpt>
      <trkpt lat="43.522105" lon="10.970601">
        <ele>213.4</ele>
        <time>2016-07-06T17:32:55Z</time>
        <sat>8</sat>
      </trkpt>
      <trkpt lat="43.522136" lon="10.970717">
        <ele>212.2</ele>
        <time>2016-07-06T17:32:56Z</time>
        <sat>10</sat>
      </trkpt>
      <trkpt lat="43.522232" lon="10.970878">
        <ele>210.3</ele>
        <time>2016-07-06T17:32:58Z</time>
        <sat>9</sat>
      </trkpt>
      <trkpt lat="43.522354" lon="10.971008">
        <ele>206.7</ele>
        <time>2016-07-06T17:33:00Z</time>
        <sat>8</sat>
      </trkpt>
      <trkpt lat="43.522458" lon="10.971185">
        <ele>203.3</ele>
        <time>2016-07-06T17:33:02Z</time>
        <sat>8</sat>
      </trkpt>
      <trkpt lat="43.522522" lon="10.971289">
        <ele>201.8</ele>
        <time>2016-07-06T17:33:03Z</time>
        <sat>9</sat>
      </trkpt>
      <trkpt lat="43.522579" lon="10.971410">
        <ele>200.6</ele>
        <time>2016-07-06T17:33:04Z</time>
        <sat>9</sat>
      </trkpt>
      <trkpt lat="43.522635" lon="10.971542">
        <ele>201.8</ele>
        <time>2016-07-06T17:33:05Z</time>
        <sat>9</sat>
      </trkpt>
      <trkpt lat="43.522692" lon="10.971669">
        <ele>201.7</ele>
        <time>2016-07-06T17:33:06Z</time>
        <sat>9</sat>
      </trkpt>
      <trkpt lat="43.522755" lon="10.971787">
        <ele>200.4</ele>
        <time>2016-07-06T17:33:07Z</time>
        <sat>9</sat>
      </trkpt>
      <trkpt lat="43.522814" lon="10.971911">
        <ele>199.6</ele>
        <time>2016-07-06T17:33:08Z</time>
        <sat>9</sat>
      </trkpt>
      <trkpt lat="43.522867" lon="10.972042">
        <ele>199.2</ele>
        <time>2016-07-06T17:33:09Z</time>
        <sat>9</sat>
      </trkpt>
      <trkpt lat="43.522916" lon="10.972168">
        <ele>198.9</ele>
        <time>2016-07-06T17:33:10Z</time>
        <sat>9</sat>
      </trkpt>
      <trkpt lat="43.522968" lon="10.972275">
        <ele>198.2</ele>
        <time>2016-07-06T17:33:11Z</time>
        <sat>8</sat>
      </trkpt>
      <trkpt lat="43.523054" lon="10.972464">
        <ele>196.8</ele>
        <time>2016-07-06T17:33:13Z</time>
        <sat>8</sat>
      </trkpt>
      <trkpt lat="43.523130" lon="10.972644">
        <ele>197.3</ele>
        <time>2016-07-06T17:33:15Z</time>
        <sat>8</sat>
      </trkpt>
      <trkpt lat="43.523170" lon="10.972827">
        <ele>197.2</ele>
        <time>2016-07-06T17:33:17Z</time>
        <sat>8</sat>
      </trkpt>
      <trkpt lat="43.523195" lon="10.972973">
        <ele>196.4</ele>
        <time>2016-07-06T17:33:20Z</time>
        <sat>9</sat>
      </trkpt>
      <trkpt lat="43.523235" lon="10.973160">
        <ele>195.6</ele>
        <time>2016-07-06T17:33:36Z</time>
        <sat>10</sat>
      </trkpt>
      <trkpt lat="43.523249" lon="10.973334">
        <ele>194.7</ele>
        <time>2016-07-06T17:33:38Z</time>
        <sat>10</sat>
      </trkpt>
      <trkpt lat="43.523285" lon="10.973508">
        <ele>193.0</ele>
        <time>2016-07-06T17:33:40Z</time>
        <sat>10</sat>
      </trkpt>
      <trkpt lat="43.523312" lon="10.973659">
        <ele>191.7</ele>
        <time>2016-07-06T17:33:42Z</time>
        <sat>10</sat>
      </trkpt>
      <trkpt lat="43.523297" lon="10.973796">
        <ele>190.2</ele>
        <time>2016-07-06T17:33:44Z</time>
        <sat>8</sat>
      </trkpt>
      <trkpt lat="43.523300" lon="10.973943">
        <ele>188.5</ele>
        <time>2016-07-06T17:33:46Z</time>
        <sat>10</sat>
      </trkpt>
      <trkpt lat="43.523292" lon="10.974258">
        <ele>183.5</ele>
        <time>2016-07-06T17:33:50Z</time>
        <sat>10</sat>
      </trkpt>
      <trkpt lat="43.523218" lon="10.974401">
        <ele>179.9</ele>
        <time>2016-07-06T17:33:53Z</time>
        <sat>10</sat>
      </trkpt>
      <trkpt lat="43.523231" lon="10.974557">
        <ele>177.2</ele>
        <time>2016-07-06T17:33:56Z</time>
        <sat>10</sat>
      </trkpt>
      <trkpt lat="43.523275" lon="10.974710">
        <ele>174.8</ele>
        <time>2016-07-06T17:34:05Z</time>
        <sat>10</sat>
      </trkpt>
      <trkpt lat="43.523309" lon="10.974868">
        <ele>172.5</ele>
        <time>2016-07-06T17:34:07Z</time>
        <sat>10</sat>
      </trkpt>
      <trkpt lat="43.523350" lon="10.975059">
        <ele>169.7</ele>
        <time>2016-07-06T17:34:09Z</time>
        <sat>10</sat>
      </trkpt>
      <trkpt lat="43.523386" lon="10.975250">
        <ele>166.1</ele>
        <time>2016-07-06T17:34:11Z</time>
        <sat>10</sat>
      </trkpt>
      <trkpt lat="43.523423" lon="10.975434">
        <ele>162.8</ele>
        <time>2016-07-06T17:34:13Z</time>
        <sat>10</sat>
      </trkpt>
      <trkpt lat="43.523459" lon="10.975625">
        <ele>159.4</ele>
        <time>2016-07-06T17:34:15Z</time>
        <sat>10</sat>
      </trkpt>
      <trkpt lat="43.523490" lon="10.975789">
        <ele>156.8</ele>
        <time>2016-07-06T17:34:17Z</time>
        <sat>10</sat>
      </trkpt>
      <trkpt lat="43.523514" lon="10.975933">
        <ele>154.1</ele>
        <time>2016-07-06T17:34:19Z</time>
        <sat>10</sat>
      </trkpt>
      <trkpt lat="43.523536" lon="10.976062">
        <ele>152.3</ele>
        <time>2016-07-06T17:34:21Z</time>
        <sat>10</sat>
      </trkpt>
      <trkpt lat="43.523571" lon="10.976187">
        <ele>150.5</ele>
        <time>2016-07-06T17:34:23Z</time>
        <sat>10</sat>
      </trkpt>
      <trkpt lat="43.523610" lon="10.976332">
        <ele>148.4</ele>
        <time>2016-07-06T17:34:25Z</time>
        <sat>10</sat>
      </trkpt>
      <trkpt lat="43.523642" lon="10.976482">
        <ele>145.6</ele>
        <time>2016-07-06T17:34:27Z</time>
        <sat>10</sat>
      </trkpt>
      <trkpt lat="43.523679" lon="10.976637">
        <ele>143.5</ele>
        <time>2016-07-06T17:34:29Z</time>
        <sat>10</sat>
      </trkpt>
      <trkpt lat="43.523709" lon="10.976791">
        <ele>141.2</ele>
        <time>2016-07-06T17:34:31Z</time>
        <sat>10</sat>
      </trkpt>
      <trkpt lat="43.523733" lon="10.976938">
        <ele>139.6</ele>
        <time>2016-07-06T17:34:33Z</time>
        <sat>10</sat>
      </trkpt>
      <trkpt lat="43.523745" lon="10.977080">
        <ele>136.8</ele>
        <time>2016-07-06T17:34:35Z</time>
        <sat>10</sat>
      </trkpt>
      <trkpt lat="43.523746" lon="10.977209">
        <ele>136.3</ele>
        <time>2016-07-06T17:34:38Z</time>
        <sat>10</sat>
      </trkpt>
      <trkpt lat="43.523796" lon="10.977312">
        <ele>136.1</ele>
        <time>2016-07-06T17:34:47Z</time>
        <sat>10</sat>
      </trkpt>
      <trkpt lat="43.523932" lon="10.977580">
        <ele>137.0</ele>
        <time>2016-07-06T17:34:54Z</time>
        <sat>10</sat>
      </trkpt>
      <trkpt lat="43.523982" lon="10.977793">
        <ele>137.2</ele>
        <time>2016-07-06T17:34:56Z</time>
        <sat>10</sat>
      </trkpt>
      <trkpt lat="43.524036" lon="10.977984">
        <ele>137.2</ele>
        <time>2016-07-06T17:34:58Z</time>
        <sat>10</sat>
      </trkpt>
      <trkpt lat="43.524085" lon="10.978159">
        <ele>137.1</ele>
        <time>2016-07-06T17:35:00Z</time>
        <sat>10</sat>
      </trkpt>
      <trkpt lat="43.524129" lon="10.978311">
        <ele>136.2</ele>
        <time>2016-07-06T17:35:02Z</time>
        <sat>10</sat>
      </trkpt>
      <trkpt lat="43.524179" lon="10.978469">
        <ele>135.0</ele>
        <time>2016-07-06T17:35:05Z</time>
        <sat>10</sat>
      </trkpt>
      <trkpt lat="43.524231" lon="10.978592">
        <ele>133.8</ele>
        <time>2016-07-06T17:35:08Z</time>
        <sat>10</sat>
      </trkpt>
      <trkpt lat="43.524334" lon="10.978728">
        <ele>132.7</ele>
        <time>2016-07-06T17:35:11Z</time>
        <sat>10</sat>
      </trkpt>
      <trkpt lat="43.524422" lon="10.978823">
        <ele>131.7</ele>
        <time>2016-07-06T17:35:13Z</time>
        <sat>10</sat>
      </trkpt>
      <trkpt lat="43.524504" lon="10.978916">
        <ele>131.5</ele>
        <time>2016-07-06T17:35:15Z</time>
        <sat>10</sat>
      </trkpt>
      <trkpt lat="43.524574" lon="10.978995">
        <ele>131.2</ele>
        <time>2016-07-06T17:35:17Z</time>
        <sat>10</sat>
      </trkpt>
      <trkpt lat="43.524642" lon="10.979086">
        <ele>130.7</ele>
        <time>2016-07-06T17:35:19Z</time>
        <sat>10</sat>
      </trkpt>
      <trkpt lat="43.524704" lon="10.979197">
        <ele>130.1</ele>
        <time>2016-07-06T17:35:21Z</time>
        <sat>10</sat>
      </trkpt>
      <trkpt lat="43.524764" lon="10.979359">
        <ele>129.3</ele>
        <time>2016-07-06T17:35:23Z</time>
        <sat>10</sat>
      </trkpt>
      <trkpt lat="43.524793" lon="10.979567">
        <ele>127.8</ele>
        <time>2016-07-06T17:35:25Z</time>
        <sat>10</sat>
      </trkpt>
      <trkpt lat="43.524826" lon="10.979785">
        <ele>126.8</ele>
        <time>2016-07-06T17:35:27Z</time>
        <sat>10</sat>
      </trkpt>
      <trkpt lat="43.524862" lon="10.979968">
        <ele>125.6</ele>
        <time>2016-07-06T17:35:29Z</time>
        <sat>10</sat>
      </trkpt>
      <trkpt lat="43.524901" lon="10.980127">
        <ele>125.2</ele>
        <time>2016-07-06T17:35:31Z</time>
        <sat>10</sat>
      </trkpt>
      <trkpt lat="43.524935" lon="10.980245">
        <ele>125.0</ele>
        <time>2016-07-06T17:35:33Z</time>
        <sat>10</sat>
      </trkpt>
      <trkpt lat="43.524987" lon="10.980353">
        <ele>124.5</ele>
        <time>2016-07-06T17:35:36Z</time>
        <sat>10</sat>
      </trkpt>
      <trkpt lat="43.525087" lon="10.980339">
        <ele>125.4</ele>
        <time>2016-07-06T17:35:40Z</time>
        <sat>10</sat>
      </trkpt>
      <trkpt lat="43.525208" lon="10.980271">
        <ele>126.6</ele>
        <time>2016-07-06T17:35:43Z</time>
        <sat>10</sat>
      </trkpt>
      <trkpt lat="43.525338" lon="10.980221">
        <ele>127.1</ele>
        <time>2016-07-06T17:35:45Z</time>
        <sat>10</sat>
      </trkpt>
      <trkpt lat="43.525441" lon="10.980182">
        <ele>127.6</ele>
        <time>2016-07-06T17:35:47Z</time>
        <sat>10</sat>
      </trkpt>
      <trkpt lat="43.525546" lon="10.980166">
        <ele>126.8</ele>
        <time>2016-07-06T17:35:50Z</time>
        <sat>10</sat>
      </trkpt>
      <trkpt lat="43.525610" lon="10.980545">
        <ele>122.9</ele>
        <time>2016-07-06T17:35:56Z</time>
        <sat>10</sat>
      </trkpt>
      <trkpt lat="43.525598" lon="10.980680">
        <ele>122.2</ele>
        <time>2016-07-06T17:35:57Z</time>
        <sat>9</sat>
      </trkpt>
      <trkpt lat="43.525586" lon="10.980821">
        <ele>121.2</ele>
        <time>2016-07-06T17:35:58Z</time>
        <sat>10</sat>
      </trkpt>
      <trkpt lat="43.525573" lon="10.980958">
        <ele>120.3</ele>
        <time>2016-07-06T17:35:59Z</time>
        <sat>10</sat>
      </trkpt>
      <trkpt lat="43.525556" lon="10.981092">
        <ele>119.4</ele>
        <time>2016-07-06T17:36:00Z</time>
        <sat>10</sat>
      </trkpt>
      <trkpt lat="43.525534" lon="10.981232">
        <ele>118.6</ele>
        <time>2016-07-06T17:36:01Z</time>
        <sat>9</sat>
      </trkpt>
      <trkpt lat="43.525509" lon="10.981376">
        <ele>117.7</ele>
        <time>2016-07-06T17:36:02Z</time>
        <sat>10</sat>
      </trkpt>
      <trkpt lat="43.525483" lon="10.981517">
        <ele>116.7</ele>
        <time>2016-07-06T17:36:03Z</time>
        <sat>9</sat>
      </trkpt>
      <trkpt lat="43.525457" lon="10.981652">
        <ele>115.8</ele>
        <time>2016-07-06T17:36:04Z</time>
        <sat>10</sat>
      </trkpt>
      <trkpt lat="43.525431" lon="10.981788">
        <ele>114.8</ele>
        <time>2016-07-06T17:36:05Z</time>
        <sat>10</sat>
      </trkpt>
      <trkpt lat="43.525404" lon="10.981934">
        <ele>113.6</ele>
        <time>2016-07-06T17:36:06Z</time>
        <sat>9</sat>
      </trkpt>
      <trkpt lat="43.525376" lon="10.982097">
        <ele>112.1</ele>
        <time>2016-07-06T17:36:07Z</time>
        <sat>10</sat>
      </trkpt>
      <trkpt lat="43.525348" lon="10.982269">
        <ele>110.5</ele>
        <time>2016-07-06T17:36:08Z</time>
        <sat>10</sat>
      </trkpt>
      <trkpt lat="43.525323" lon="10.982434">
        <ele>109.1</ele>
        <time>2016-07-06T17:36:09Z</time>
        <sat>10</sat>
      </trkpt>
      <trkpt lat="43.525298" lon="10.982585">
        <ele>107.6</ele>
        <time>2016-07-06T17:36:10Z</time>
        <sat>10</sat>
      </trkpt>
      <trkpt lat="43.525273" lon="10.982724">
        <ele>106.2</ele>
        <time>2016-07-06T17:36:11Z</time>
        <sat>10</sat>
      </trkpt>
      <trkpt lat="43.525249" lon="10.982853">
        <ele>105.9</ele>
        <time>2016-07-06T17:36:12Z</time>
        <sat>10</sat>
      </trkpt>
      <trkpt lat="43.525226" lon="10.982975">
        <ele>105.1</ele>
        <time>2016-07-06T17:36:13Z</time>
        <sat>10</sat>
      </trkpt>
      <trkpt lat="43.525185" lon="10.983189">
        <ele>103.9</ele>
        <time>2016-07-06T17:36:15Z</time>
        <sat>10</sat>
      </trkpt>
      <trkpt lat="43.525153" lon="10.983380">
        <ele>103.0</ele>
        <time>2016-07-06T17:36:17Z</time>
        <sat>10</sat>
      </trkpt>
      <trkpt lat="43.525143" lon="10.983514">
        <ele>102.5</ele>
        <time>2016-07-06T17:36:19Z</time>
        <sat>10</sat>
      </trkpt>
      <trkpt lat="43.525235" lon="10.983577">
        <ele>102.4</ele>
        <time>2016-07-06T17:36:23Z</time>
        <sat>10</sat>
      </trkpt>
      <trkpt lat="43.525325" lon="10.983460">
        <ele>102.4</ele>
        <time>2016-07-06T17:36:25Z</time>
        <sat>10</sat>
      </trkpt>
      <trkpt lat="43.525454" lon="10.983289">
        <ele>101.1</ele>
        <time>2016-07-06T17:36:27Z</time>
        <sat>10</sat>
      </trkpt>
      <trkpt lat="43.525532" lon="10.983217">
        <ele>99.5</ele>
        <time>2016-07-06T17:36:28Z</time>
        <sat>10</sat>
      </trkpt>
      <trkpt lat="43.525613" lon="10.983161">
        <ele>97.8</ele>
        <time>2016-07-06T17:36:29Z</time>
        <sat>10</sat>
      </trkpt>
      <trkpt lat="43.525772" lon="10.983115">
        <ele>94.9</ele>
        <time>2016-07-06T17:36:31Z</time>
        <sat>9</sat>
      </trkpt>
      <trkpt lat="43.525931" lon="10.983139">
        <ele>93.6</ele>
        <time>2016-07-06T17:36:33Z</time>
        <sat>10</sat>
      </trkpt>
      <trkpt lat="43.526015" lon="10.983193">
        <ele>92.3</ele>
        <time>2016-07-06T17:36:34Z</time>
        <sat>10</sat>
      </trkpt>
      <trkpt lat="43.526102" lon="10.983274">
        <ele>91.1</ele>
        <time>2016-07-06T17:36:35Z</time>
        <sat>9</sat>
      </trkpt>
      <trkpt lat="43.526180" lon="10.983358">
        <ele>90.2</ele>
        <time>2016-07-06T17:36:36Z</time>
        <sat>10</sat>
      </trkpt>
      <trkpt lat="43.526308" lon="10.983487">
        <ele>88.4</ele>
        <time>2016-07-06T17:36:38Z</time>
        <sat>10</sat>
      </trkpt>
      <trkpt lat="43.526437" lon="10.983577">
        <ele>88.7</ele>
        <time>2016-07-06T17:36:40Z</time>
        <sat>10</sat>
      </trkpt>
      <trkpt lat="43.526576" lon="10.983566">
        <ele>88.8</ele>
        <time>2016-07-06T17:36:42Z</time>
        <sat>10</sat>
      </trkpt>
      <trkpt lat="43.526699" lon="10.983431">
        <ele>89.2</ele>
        <time>2016-07-06T17:36:44Z</time>
        <sat>10</sat>
      </trkpt>
      <trkpt lat="43.526758" lon="10.983317">
        <ele>89.2</ele>
        <time>2016-07-06T17:36:45Z</time>
        <sat>10</sat>
      </trkpt>
      <trkpt lat="43.526824" lon="10.983183">
        <ele>89.0</ele>
        <time>2016-07-06T17:36:46Z</time>
        <sat>10</sat>
      </trkpt>
      <trkpt lat="43.526896" lon="10.983039">
        <ele>88.7</ele>
        <time>2016-07-06T17:36:47Z</time>
        <sat>10</sat>
      </trkpt>
      <trkpt lat="43.526970" lon="10.982905">
        <ele>88.6</ele>
        <time>2016-07-06T17:36:48Z</time>
        <sat>10</sat>
      </trkpt>
      <trkpt lat="43.527045" lon="10.982780">
        <ele>88.1</ele>
        <time>2016-07-06T17:36:49Z</time>
        <sat>10</sat>
      </trkpt>
      <trkpt lat="43.527123" lon="10.982647">
        <ele>87.6</ele>
        <time>2016-07-06T17:36:50Z</time>
        <sat>9</sat>
      </trkpt>
      <trkpt lat="43.527211" lon="10.982520">
        <ele>87.0</ele>
        <time>2016-07-06T17:36:51Z</time>
        <sat>10</sat>
      </trkpt>
      <trkpt lat="43.527308" lon="10.982406">
        <ele>86.1</ele>
        <time>2016-07-06T17:36:52Z</time>
        <sat>10</sat>
      </trkpt>
      <trkpt lat="43.527520" lon="10.982190">
        <ele>84.7</ele>
        <time>2016-07-06T17:36:54Z</time>
        <sat>10</sat>
      </trkpt>
      <trkpt lat="43.527626" lon="10.982070">
        <ele>84.6</ele>
        <time>2016-07-06T17:36:55Z</time>
        <sat>10</sat>
      </trkpt>
      <trkpt lat="43.527717" lon="10.981978">
        <ele>85.4</ele>
        <time>2016-07-06T17:36:56Z</time>
        <sat>10</sat>
      </trkpt>
      <trkpt lat="43.527804" lon="10.981898">
        <ele>85.5</ele>
        <time>2016-07-06T17:36:57Z</time>
        <sat>10</sat>
      </trkpt>
      <trkpt lat="43.527880" lon="10.981820">
        <ele>84.7</ele>
        <time>2016-07-06T17:36:58Z</time>
        <sat>9</sat>
      </trkpt>
      <trkpt lat="43.527957" lon="10.981747">
        <ele>84.5</ele>
        <time>2016-07-06T17:36:59Z</time>
        <sat>10</sat>
      </trkpt>
      <trkpt lat="43.528033" lon="10.981675">
        <ele>83.7</ele>
        <time>2016-07-06T17:37:00Z</time>
        <sat>10</sat>
      </trkpt>
      <trkpt lat="43.528117" lon="10.981596">
        <ele>82.8</ele>
        <time>2016-07-06T17:37:01Z</time>
        <sat>10</sat>
      </trkpt>
      <trkpt lat="43.528203" lon="10.981503">
        <ele>81.9</ele>
        <time>2016-07-06T17:37:02Z</time>
        <sat>10</sat>
      </trkpt>
      <trkpt lat="43.528297" lon="10.981395">
        <ele>80.6</ele>
        <time>2016-07-06T17:37:03Z</time>
        <sat>10</sat>
      </trkpt>
      <trkpt lat="43.528397" lon="10.981283">
        <ele>79.2</ele>
        <time>2016-07-06T17:37:04Z</time>
        <sat>10</sat>
      </trkpt>
      <trkpt lat="43.528506" lon="10.981157">
        <ele>77.3</ele>
        <time>2016-07-06T17:37:05Z</time>
        <sat>9</sat>
      </trkpt>
      <trkpt lat="43.528619" lon="10.981027">
        <ele>74.3</ele>
        <time>2016-07-06T17:37:06Z</time>
        <sat>10</sat>
      </trkpt>
      <trkpt lat="43.528726" lon="10.980905">
        <ele>72.4</ele>
        <time>2016-07-06T17:37:07Z</time>
        <sat>9</sat>
      </trkpt>
      <trkpt lat="43.528828" lon="10.980788">
        <ele>71.2</ele>
        <time>2016-07-06T17:37:08Z</time>
        <sat>10</sat>
      </trkpt>
      <trkpt lat="43.528929" lon="10.980675">
        <ele>69.3</ele>
        <time>2016-07-06T17:37:09Z</time>
        <sat>10</sat>
      </trkpt>
      <trkpt lat="43.529032" lon="10.980550">
        <ele>67.4</ele>
        <time>2016-07-06T17:37:10Z</time>
        <sat>10</sat>
      </trkpt>
      <trkpt lat="43.529129" lon="10.980418">
        <ele>67.1</ele>
        <time>2016-07-06T17:37:11Z</time>
        <sat>10</sat>
      </trkpt>
      <trkpt lat="43.529219" lon="10.980290">
        <ele>68.3</ele>
        <time>2016-07-06T17:37:12Z</time>
        <sat>10</sat>
      </trkpt>
      <trkpt lat="43.529306" lon="10.980166">
        <ele>67.6</ele>
        <time>2016-07-06T17:37:13Z</time>
        <sat>10</sat>
      </trkpt>
      <trkpt lat="43.529391" lon="10.980047">
        <ele>67.3</ele>
        <time>2016-07-06T17:37:14Z</time>
        <sat>10</sat>
      </trkpt>
      <trkpt lat="43.529489" lon="10.979924">
        <ele>67.2</ele>
        <time>2016-07-06T17:37:15Z</time>
        <sat>10</sat>
      </trkpt>
      <trkpt lat="43.529597" lon="10.979801">
        <ele>66.9</ele>
        <time>2016-07-06T17:37:16Z</time>
        <sat>9</sat>
      </trkpt>
      <trkpt lat="43.529717" lon="10.979679">
        <ele>66.8</ele>
        <time>2016-07-06T17:37:17Z</time>
        <sat>10</sat>
      </trkpt>
      <trkpt lat="43.529854" lon="10.979545">
        <ele>66.7</ele>
        <time>2016-07-06T17:37:18Z</time>
        <sat>10</sat>
      </trkpt>
      <trkpt lat="43.530005" lon="10.979404">
        <ele>66.5</ele>
        <time>2016-07-06T17:37:19Z</time>
        <sat>10</sat>
      </trkpt>
      <trkpt lat="43.530162" lon="10.979265">
        <ele>66.4</ele>
        <time>2016-07-06T17:37:20Z</time>
        <sat>10</sat>
      </trkpt>
      <trkpt lat="43.530319" lon="10.979125">
        <ele>66.6</ele>
        <time>2016-07-06T17:37:21Z</time>
        <sat>10</sat>
      </trkpt>
      <trkpt lat="43.530476" lon="10.978980">
        <ele>67.1</ele>
        <time>2016-07-06T17:37:22Z</time>
        <sat>10</sat>
      </trkpt>
      <trkpt lat="43.530628" lon="10.978837">
        <ele>67.8</ele>
        <time>2016-07-06T17:37:23Z</time>
        <sat>10</sat>
      </trkpt>
      <trkpt lat="43.530768" lon="10.978707">
        <ele>69.3</ele>
        <time>2016-07-06T17:37:24Z</time>
        <sat>10</sat>
      </trkpt>
      <trkpt lat="43.530897" lon="10.978584">
        <ele>72.2</ele>
        <time>2016-07-06T17:37:25Z</time>
        <sat>10</sat>
      </trkpt>
      <trkpt lat="43.531019" lon="10.978470">
        <ele>75.2</ele>
        <time>2016-07-06T17:37:26Z</time>
        <sat>10</sat>
      </trkpt>
      <trkpt lat="43.531127" lon="10.978377">
        <ele>77.8</ele>
        <time>2016-07-06T17:37:27Z</time>
        <sat>10</sat>
      </trkpt>
      <trkpt lat="43.531220" lon="10.978297">
        <ele>80.2</ele>
        <time>2016-07-06T17:37:28Z</time>
        <sat>10</sat>
      </trkpt>
      <trkpt lat="43.531292" lon="10.978222">
        <ele>81.9</ele>
        <time>2016-07-06T17:37:29Z</time>
        <sat>10</sat>
      </trkpt>
      <trkpt lat="43.531377" lon="10.978049">
        <ele>83.6</ele>
        <time>2016-07-06T17:37:31Z</time>
        <sat>10</sat>
      </trkpt>
      <trkpt lat="43.531360" lon="10.977846">
        <ele>87.7</ele>
        <time>2016-07-06T17:37:33Z</time>
        <sat>10</sat>
      </trkpt>
      <trkpt lat="43.531295" lon="10.977611">
        <ele>92.6</ele>
        <time>2016-07-06T17:37:35Z</time>
        <sat>10</sat>
      </trkpt>
      <trkpt lat="43.531270" lon="10.977474">
        <ele>94.7</ele>
        <time>2016-07-06T17:37:36Z</time>
        <sat>8</sat>
      </trkpt>
      <trkpt lat="43.531250" lon="10.977338">
        <ele>96.3</ele>
        <time>2016-07-06T17:37:37Z</time>
        <sat>10</sat>
      </trkpt>
      <trkpt lat="43.531228" lon="10.977208">
        <ele>97.6</ele>
        <time>2016-07-06T17:37:38Z</time>
        <sat>10</sat>
      </trkpt>
      <trkpt lat="43.531230" lon="10.976975">
        <ele>98.4</ele>
        <time>2016-07-06T17:37:40Z</time>
        <sat>10</sat>
      </trkpt>
      <trkpt lat="43.531251" lon="10.976848">
        <ele>100.1</ele>
        <time>2016-07-06T17:37:41Z</time>
        <sat>10</sat>
      </trkpt>
      <trkpt lat="43.531293" lon="10.976726">
        <ele>101.2</ele>
        <time>2016-07-06T17:37:42Z</time>
        <sat>10</sat>
      </trkpt>
      <trkpt lat="43.531355" lon="10.976606">
        <ele>102.4</ele>
        <time>2016-07-06T17:37:43Z</time>
        <sat>10</sat>
      </trkpt>
      <trkpt lat="43.531434" lon="10.976491">
        <ele>103.8</ele>
        <time>2016-07-06T17:37:44Z</time>
        <sat>10</sat>
      </trkpt>
      <trkpt lat="43.531528" lon="10.976380">
        <ele>105.0</ele>
        <time>2016-07-06T17:37:45Z</time>
        <sat>10</sat>
      </trkpt>
      <trkpt lat="43.531631" lon="10.976274">
        <ele>106.1</ele>
        <time>2016-07-06T17:37:46Z</time>
        <sat>10</sat>
      </trkpt>
      <trkpt lat="43.531731" lon="10.976178">
        <ele>106.9</ele>
        <time>2016-07-06T17:37:47Z</time>
        <sat>10</sat>
      </trkpt>
      <trkpt lat="43.531824" lon="10.976096">
        <ele>107.4</ele>
        <time>2016-07-06T17:37:48Z</time>
        <sat>10</sat>
      </trkpt>
      <trkpt lat="43.531905" lon="10.976024">
        <ele>107.9</ele>
        <time>2016-07-06T17:37:49Z</time>
        <sat>10</sat>
      </trkpt>
      <trkpt lat="43.531982" lon="10.975956">
        <ele>108.1</ele>
        <time>2016-07-06T17:37:50Z</time>
        <sat>10</sat>
      </trkpt>
      <trkpt lat="43.532060" lon="10.975887">
        <ele>108.6</ele>
        <time>2016-07-06T17:37:51Z</time>
        <sat>10</sat>
      </trkpt>
      <trkpt lat="43.532143" lon="10.975820">
        <ele>108.7</ele>
        <time>2016-07-06T17:37:52Z</time>
        <sat>10</sat>
      </trkpt>
      <trkpt lat="43.532240" lon="10.975757">
        <ele>107.7</ele>
        <time>2016-07-06T17:37:53Z</time>
        <sat>10</sat>
      </trkpt>
      <trkpt lat="43.532346" lon="10.975706">
        <ele>107.9</ele>
        <time>2016-07-06T17:37:54Z</time>
        <sat>10</sat>
      </trkpt>
      <trkpt lat="43.532588" lon="10.975591">
        <ele>108.3</ele>
        <time>2016-07-06T17:37:56Z</time>
        <sat>9</sat>
      </trkpt>
      <trkpt lat="43.532714" lon="10.975522">
        <ele>108.5</ele>
        <time>2016-07-06T17:37:57Z</time>
        <sat>10</sat>
      </trkpt>
      <trkpt lat="43.532845" lon="10.975443">
        <ele>108.7</ele>
        <time>2016-07-06T17:37:58Z</time>
        <sat>10</sat>
      </trkpt>
      <trkpt lat="43.532976" lon="10.975357">
        <ele>110.2</ele>
        <time>2016-07-06T17:37:59Z</time>
        <sat>10</sat>
      </trkpt>
      <trkpt lat="43.533105" lon="10.975270">
        <ele>110.8</ele>
        <time>2016-07-06T17:38:00Z</time>
        <sat>10</sat>
      </trkpt>
      <trkpt lat="43.533231" lon="10.975189">
        <ele>111.6</ele>
        <time>2016-07-06T17:38:01Z</time>
        <sat>8</sat>
      </trkpt>
      <trkpt lat="43.533342" lon="10.975104">
        <ele>112.4</ele>
        <time>2016-07-06T17:38:02Z</time>
        <sat>10</sat>
      </trkpt>
      <trkpt lat="43.533436" lon="10.975012">
        <ele>113.5</ele>
        <time>2016-07-06T17:38:03Z</time>
        <sat>10</sat>
      </trkpt>
      <trkpt lat="43.533513" lon="10.974905">
        <ele>115.1</ele>
        <time>2016-07-06T17:38:04Z</time>
        <sat>10</sat>
      </trkpt>
      <trkpt lat="43.533580" lon="10.974784">
        <ele>117.0</ele>
        <time>2016-07-06T17:38:05Z</time>
        <sat>10</sat>
      </trkpt>
      <trkpt lat="43.533647" lon="10.974651">
        <ele>118.2</ele>
        <time>2016-07-06T17:38:06Z</time>
        <sat>10</sat>
      </trkpt>
      <trkpt lat="43.533719" lon="10.974512">
        <ele>118.9</ele>
        <time>2016-07-06T17:38:07Z</time>
        <sat>10</sat>
      </trkpt>
      <trkpt lat="43.533793" lon="10.974373">
        <ele>119.4</ele>
        <time>2016-07-06T17:38:08Z</time>
        <sat>10</sat>
      </trkpt>
      <trkpt lat="43.533865" lon="10.974230">
        <ele>120.2</ele>
        <time>2016-07-06T17:38:09Z</time>
        <sat>10</sat>
      </trkpt>
      <trkpt lat="43.533935" lon="10.974073">
        <ele>120.6</ele>
        <time>2016-07-06T17:38:10Z</time>
        <sat>10</sat>
      </trkpt>
      <trkpt lat="43.534004" lon="10.973895">
        <ele>120.1</ele>
        <time>2016-07-06T17:38:11Z</time>
        <sat>10</sat>
      </trkpt>
      <trkpt lat="43.534075" lon="10.973698">
        <ele>119.5</ele>
        <time>2016-07-06T17:38:12Z</time>
        <sat>10</sat>
      </trkpt>
      <trkpt lat="43.534147" lon="10.973492">
        <ele>119.3</ele>
        <time>2016-07-06T17:38:13Z</time>
        <sat>10</sat>
      </trkpt>
      <trkpt lat="43.534217" lon="10.973286">
        <ele>119.4</ele>
        <time>2016-07-06T17:38:14Z</time>
        <sat>10</sat>
      </trkpt>
      <trkpt lat="43.534287" lon="10.973088">
        <ele>119.9</ele>
        <time>2016-07-06T17:38:15Z</time>
        <sat>10</sat>
      </trkpt>
      <trkpt lat="43.534359" lon="10.972904">
        <ele>121.1</ele>
        <time>2016-07-06T17:38:16Z</time>
        <sat>10</sat>
      </trkpt>
      <trkpt lat="43.534437" lon="10.972733">
        <ele>122.7</ele>
        <time>2016-07-06T17:38:17Z</time>
        <sat>10</sat>
      </trkpt>
      <trkpt lat="43.534522" lon="10.972569">
        <ele>124.9</ele>
        <time>2016-07-06T17:38:18Z</time>
        <sat>10</sat>
      </trkpt>
      <trkpt lat="43.534612" lon="10.972407">
        <ele>128.0</ele>
        <time>2016-07-06T17:38:19Z</time>
        <sat>10</sat>
      </trkpt>
      <trkpt lat="43.534705" lon="10.972250">
        <ele>130.3</ele>
        <time>2016-07-06T17:38:20Z</time>
        <sat>10</sat>
      </trkpt>
      <trkpt lat="43.534800" lon="10.972094">
        <ele>132.6</ele>
        <time>2016-07-06T17:38:21Z</time>
        <sat>10</sat>
      </trkpt>
      <trkpt lat="43.534898" lon="10.971939">
        <ele>134.7</ele>
        <time>2016-07-06T17:38:22Z</time>
        <sat>10</sat>
      </trkpt>
      <trkpt lat="43.534992" lon="10.971784">
        <ele>136.4</ele>
        <time>2016-07-06T17:38:23Z</time>
        <sat>10</sat>
      </trkpt>
      <trkpt lat="43.535080" lon="10.971636">
        <ele>137.8</ele>
        <time>2016-07-06T17:38:24Z</time>
        <sat>10</sat>
      </trkpt>
      <trkpt lat="43.535159" lon="10.971494">
        <ele>139.4</ele>
        <time>2016-07-06T17:38:25Z</time>
        <sat>10</sat>
      </trkpt>
      <trkpt lat="43.535224" lon="10.971347">
        <ele>141.1</ele>
        <time>2016-07-06T17:38:26Z</time>
        <sat>10</sat>
      </trkpt>
      <trkpt lat="43.535276" lon="10.971186">
        <ele>142.4</ele>
        <time>2016-07-06T17:38:27Z</time>
        <sat>10</sat>
      </trkpt>
      <trkpt lat="43.535328" lon="10.971010">
        <ele>143.8</ele>
        <time>2016-07-06T17:38:28Z</time>
        <sat>10</sat>
      </trkpt>
      <trkpt lat="43.535382" lon="10.970819">
        <ele>145.1</ele>
        <time>2016-07-06T17:38:29Z</time>
        <sat>10</sat>
      </trkpt>
      <trkpt lat="43.535437" lon="10.970621">
        <ele>145.9</ele>
        <time>2016-07-06T17:38:30Z</time>
        <sat>10</sat>
      </trkpt>
      <trkpt lat="43.535490" lon="10.970421">
        <ele>147.0</ele>
        <time>2016-07-06T17:38:31Z</time>
        <sat>10</sat>
      </trkpt>
      <trkpt lat="43.535541" lon="10.970215">
        <ele>148.4</ele>
        <time>2016-07-06T17:38:32Z</time>
        <sat>9</sat>
      </trkpt>
      <trkpt lat="43.535592" lon="10.970003">
        <ele>149.8</ele>
        <time>2016-07-06T17:38:33Z</time>
        <sat>10</sat>
      </trkpt>
      <trkpt lat="43.535644" lon="10.969794">
        <ele>151.1</ele>
        <time>2016-07-06T17:38:34Z</time>
        <sat>10</sat>
      </trkpt>
      <trkpt lat="43.535691" lon="10.969598">
        <ele>151.6</ele>
        <time>2016-07-06T17:38:35Z</time>
        <sat>10</sat>
      </trkpt>
      <trkpt lat="43.535744" lon="10.969415">
        <ele>152.6</ele>
        <time>2016-07-06T17:38:36Z</time>
        <sat>9</sat>
      </trkpt>
      <trkpt lat="43.535791" lon="10.969240">
        <ele>153.9</ele>
        <time>2016-07-06T17:38:37Z</time>
        <sat>10</sat>
      </trkpt>
      <trkpt lat="43.535837" lon="10.969074">
        <ele>155.4</ele>
        <time>2016-07-06T17:38:38Z</time>
        <sat>10</sat>
      </trkpt>
      <trkpt lat="43.535879" lon="10.968923">
        <ele>157.0</ele>
        <time>2016-07-06T17:38:39Z</time>
        <sat>10</sat>
      </trkpt>
      <trkpt lat="43.535913" lon="10.968794">
        <ele>158.3</ele>
        <time>2016-07-06T17:38:40Z</time>
        <sat>9</sat>
      </trkpt>
      <trkpt lat="43.535944" lon="10.968676">
        <ele>159.7</ele>
        <time>2016-07-06T17:38:41Z</time>
        <sat>10</sat>
      </trkpt>
      <trkpt lat="43.536019" lon="10.968470">
        <ele>162.5</ele>
        <time>2016-07-06T17:38:43Z</time>
        <sat>10</sat>
      </trkpt>
      <trkpt lat="43.536123" lon="10.968297">
        <ele>165.2</ele>
        <time>2016-07-06T17:38:45Z</time>
        <sat>10</sat>
      </trkpt>
      <trkpt lat="43.536205" lon="10.968215">
        <ele>166.5</ele>
        <time>2016-07-06T17:38:46Z</time>
        <sat>10</sat>
      </trkpt>
      <trkpt lat="43.536309" lon="10.968119">
        <ele>167.5</ele>
        <time>2016-07-06T17:38:47Z</time>
        <sat>10</sat>
      </trkpt>
      <trkpt lat="43.536428" lon="10.968006">
        <ele>168.7</ele>
        <time>2016-07-06T17:38:48Z</time>
        <sat>10</sat>
      </trkpt>
      <trkpt lat="43.536556" lon="10.967880">
        <ele>169.6</ele>
        <time>2016-07-06T17:38:49Z</time>
        <sat>10</sat>
      </trkpt>
      <trkpt lat="43.536697" lon="10.967741">
        <ele>170.3</ele>
        <time>2016-07-06T17:38:50Z</time>
        <sat>10</sat>
      </trkpt>
      <trkpt lat="43.536838" lon="10.967602">
        <ele>171.2</ele>
        <time>2016-07-06T17:38:51Z</time>
        <sat>10</sat>
      </trkpt>
      <trkpt lat="43.536970" lon="10.967471">
        <ele>172.2</ele>
        <time>2016-07-06T17:38:52Z</time>
        <sat>10</sat>
      </trkpt>
      <trkpt lat="43.537093" lon="10.967346">
        <ele>173.3</ele>
        <time>2016-07-06T17:38:53Z</time>
        <sat>10</sat>
      </trkpt>
      <trkpt lat="43.537211" lon="10.967223">
        <ele>174.3</ele>
        <time>2016-07-06T17:38:54Z</time>
        <sat>10</sat>
      </trkpt>
      <trkpt lat="43.537330" lon="10.967098">
        <ele>175.3</ele>
        <time>2016-07-06T17:38:55Z</time>
        <sat>10</sat>
      </trkpt>
      <trkpt lat="43.537581" lon="10.966837">
        <ele>177.3</ele>
        <time>2016-07-06T17:38:57Z</time>
        <sat>10</sat>
      </trkpt>
      <trkpt lat="43.537718" lon="10.966702">
        <ele>178.3</ele>
        <time>2016-07-06T17:38:58Z</time>
        <sat>10</sat>
      </trkpt>
      <trkpt lat="43.537855" lon="10.966566">
        <ele>179.2</ele>
        <time>2016-07-06T17:38:59Z</time>
        <sat>10</sat>
      </trkpt>
      <trkpt lat="43.537986" lon="10.966429">
        <ele>180.5</ele>
        <time>2016-07-06T17:39:00Z</time>
        <sat>10</sat>
      </trkpt>
      <trkpt lat="43.538113" lon="10.966299">
        <ele>181.8</ele>
        <time>2016-07-06T17:39:01Z</time>
        <sat>10</sat>
      </trkpt>
      <trkpt lat="43.538236" lon="10.966174">
        <ele>183.5</ele>
        <time>2016-07-06T17:39:02Z</time>
        <sat>10</sat>
      </trkpt>
      <trkpt lat="43.538353" lon="10.966058">
        <ele>185.3</ele>
        <time>2016-07-06T17:39:03Z</time>
        <sat>10</sat>
      </trkpt>
      <trkpt lat="43.538462" lon="10.965947">
        <ele>187.5</ele>
        <time>2016-07-06T17:39:04Z</time>
        <sat>10</sat>
      </trkpt>
      <trkpt lat="43.538569" lon="10.965838">
        <ele>189.5</ele>
        <time>2016-07-06T17:39:05Z</time>
        <sat>10</sat>
      </trkpt>
      <trkpt lat="43.538676" lon="10.965730">
        <ele>191.7</ele>
        <time>2016-07-06T17:39:06Z</time>
        <sat>10</sat>
      </trkpt>
      <trkpt lat="43.538784" lon="10.965620">
        <ele>193.9</ele>
        <time>2016-07-06T17:39:07Z</time>
        <sat>10</sat>
      </trkpt>
      <trkpt lat="43.538891" lon="10.965514">
        <ele>195.9</ele>
        <time>2016-07-06T17:39:08Z</time>
        <sat>9</sat>
      </trkpt>
      <trkpt lat="43.538991" lon="10.965416">
        <ele>197.6</ele>
        <time>2016-07-06T17:39:09Z</time>
        <sat>10</sat>
      </trkpt>
      <trkpt lat="43.539079" lon="10.965326">
        <ele>199.0</ele>
        <time>2016-07-06T17:39:10Z</time>
        <sat>10</sat>
      </trkpt>
      <trkpt lat="43.539150" lon="10.965248">
        <ele>200.3</ele>
        <time>2016-07-06T17:39:11Z</time>
        <sat>10</sat>
      </trkpt>
      <trkpt lat="43.539264" lon="10.965079">
        <ele>202.6</ele>
        <time>2016-07-06T17:39:13Z</time>
        <sat>10</sat>
      </trkpt>
      <trkpt lat="43.539312" lon="10.964965">
        <ele>203.2</ele>
        <time>2016-07-06T17:39:14Z</time>
        <sat>10</sat>
      </trkpt>
      <trkpt lat="43.539348" lon="10.964823">
        <ele>204.4</ele>
        <time>2016-07-06T17:39:15Z</time>
        <sat>10</sat>
      </trkpt>
      <trkpt lat="43.539378" lon="10.964666">
        <ele>206.1</ele>
        <time>2016-07-06T17:39:16Z</time>
        <sat>10</sat>
      </trkpt>
      <trkpt lat="43.539401" lon="10.964489">
        <ele>207.9</ele>
        <time>2016-07-06T17:39:17Z</time>
        <sat>8</sat>
      </trkpt>
      <trkpt lat="43.539433" lon="10.964309">
        <ele>209.3</ele>
        <time>2016-07-06T17:39:18Z</time>
        <sat>10</sat>
      </trkpt>
      <trkpt lat="43.539464" lon="10.964137">
        <ele>210.6</ele>
        <time>2016-07-06T17:39:19Z</time>
        <sat>10</sat>
      </trkpt>
      <trkpt lat="43.539491" lon="10.963975">
        <ele>211.9</ele>
        <time>2016-07-06T17:39:20Z</time>
        <sat>10</sat>
      </trkpt>
      <trkpt lat="43.539516" lon="10.963817">
        <ele>213.3</ele>
        <time>2016-07-06T17:39:21Z</time>
        <sat>10</sat>
      </trkpt>
      <trkpt lat="43.539532" lon="10.963666">
        <ele>214.9</ele>
        <time>2016-07-06T17:39:22Z</time>
        <sat>8</sat>
      </trkpt>
      <trkpt lat="43.539539" lon="10.963516">
        <ele>216.0</ele>
        <time>2016-07-06T17:39:23Z</time>
        <sat>10</sat>
      </trkpt>
      <trkpt lat="43.539548" lon="10.963370">
        <ele>217.4</ele>
        <time>2016-07-06T17:39:24Z</time>
        <sat>10</sat>
      </trkpt>
      <trkpt lat="43.539547" lon="10.963224">
        <ele>218.7</ele>
        <time>2016-07-06T17:39:25Z</time>
        <sat>7</sat>
      </trkpt>
      <trkpt lat="43.539547" lon="10.963082">
        <ele>220.2</ele>
        <time>2016-07-06T17:39:26Z</time>
        <sat>9</sat>
      </trkpt>
      <trkpt lat="43.539551" lon="10.962953">
        <ele>221.3</ele>
        <time>2016-07-06T17:39:27Z</time>
        <sat>10</sat>
      </trkpt>
      <trkpt lat="43.539574" lon="10.962782">
        <ele>223.0</ele>
        <time>2016-07-06T17:39:29Z</time>
        <sat>10</sat>
      </trkpt>
      <trkpt lat="43.539660" lon="10.962665">
        <ele>220.9</ele>
        <time>2016-07-06T17:39:31Z</time>
        <sat>9</sat>
      </trkpt>
      <trkpt lat="43.539827" lon="10.962518">
        <ele>219.2</ele>
        <time>2016-07-06T17:39:33Z</time>
        <sat>9</sat>
      </trkpt>
      <trkpt lat="43.539933" lon="10.962415">
        <ele>218.0</ele>
        <time>2016-07-06T17:39:34Z</time>
        <sat>9</sat>
      </trkpt>
      <trkpt lat="43.540052" lon="10.962304">
        <ele>217.1</ele>
        <time>2016-07-06T17:39:35Z</time>
        <sat>9</sat>
      </trkpt>
      <trkpt lat="43.540182" lon="10.962202">
        <ele>216.0</ele>
        <time>2016-07-06T17:39:36Z</time>
        <sat>9</sat>
      </trkpt>
      <trkpt lat="43.540320" lon="10.962115">
        <ele>214.9</ele>
        <time>2016-07-06T17:39:37Z</time>
        <sat>9</sat>
      </trkpt>
      <trkpt lat="43.540458" lon="10.962042">
        <ele>213.7</ele>
        <time>2016-07-06T17:39:38Z</time>
        <sat>9</sat>
      </trkpt>
      <trkpt lat="43.540592" lon="10.961978">
        <ele>212.7</ele>
        <time>2016-07-06T17:39:39Z</time>
        <sat>9</sat>
      </trkpt>
      <trkpt lat="43.540737" lon="10.961930">
        <ele>212.2</ele>
        <time>2016-07-06T17:39:40Z</time>
        <sat>9</sat>
      </trkpt>
      <trkpt lat="43.540892" lon="10.961904">
        <ele>211.6</ele>
        <time>2016-07-06T17:39:41Z</time>
        <sat>8</sat>
      </trkpt>
      <trkpt lat="43.541056" lon="10.961901">
        <ele>211.1</ele>
        <time>2016-07-06T17:39:42Z</time>
        <sat>10</sat>
      </trkpt>
      <trkpt lat="43.541223" lon="10.961920">
        <ele>210.6</ele>
        <time>2016-07-06T17:39:43Z</time>
        <sat>10</sat>
      </trkpt>
      <trkpt lat="43.541386" lon="10.961958">
        <ele>210.1</ele>
        <time>2016-07-06T17:39:44Z</time>
        <sat>10</sat>
      </trkpt>
      <trkpt lat="43.541540" lon="10.961997">
        <ele>209.3</ele>
        <time>2016-07-06T17:39:45Z</time>
        <sat>10</sat>
      </trkpt>
      <trkpt lat="43.541685" lon="10.962027">
        <ele>208.3</ele>
        <time>2016-07-06T17:39:46Z</time>
        <sat>10</sat>
      </trkpt>
      <trkpt lat="43.541828" lon="10.962053">
        <ele>207.8</ele>
        <time>2016-07-06T17:39:47Z</time>
        <sat>10</sat>
      </trkpt>
      <trkpt lat="43.541962" lon="10.962081">
        <ele>207.3</ele>
        <time>2016-07-06T17:39:48Z</time>
        <sat>10</sat>
      </trkpt>
      <trkpt lat="43.542092" lon="10.962122">
        <ele>206.4</ele>
        <time>2016-07-06T17:39:49Z</time>
        <sat>10</sat>
      </trkpt>
      <trkpt lat="43.542224" lon="10.962193">
        <ele>205.0</ele>
        <time>2016-07-06T17:39:50Z</time>
        <sat>10</sat>
      </trkpt>
      <trkpt lat="43.542353" lon="10.962302">
        <ele>203.4</ele>
        <time>2016-07-06T17:39:51Z</time>
        <sat>10</sat>
      </trkpt>
      <trkpt lat="43.542473" lon="10.962453">
        <ele>202.0</ele>
        <time>2016-07-06T17:39:52Z</time>
        <sat>10</sat>
      </trkpt>
      <trkpt lat="43.542582" lon="10.962630">
        <ele>201.0</ele>
        <time>2016-07-06T17:39:53Z</time>
        <sat>10</sat>
      </trkpt>
      <trkpt lat="43.542691" lon="10.962818">
        <ele>200.2</ele>
        <time>2016-07-06T17:39:54Z</time>
        <sat>10</sat>
      </trkpt>
      <trkpt lat="43.542801" lon="10.963010">
        <ele>199.4</ele>
        <time>2016-07-06T17:39:55Z</time>
        <sat>10</sat>
      </trkpt>
      <trkpt lat="43.542908" lon="10.963205">
        <ele>198.7</ele>
        <time>2016-07-06T17:39:56Z</time>
        <sat>10</sat>
      </trkpt>
      <trkpt lat="43.543118" lon="10.963598">
        <ele>198.2</ele>
        <time>2016-07-06T17:39:58Z</time>
        <sat>10</sat>
      </trkpt>
      <trkpt lat="43.543219" lon="10.963788">
        <ele>197.9</ele>
        <time>2016-07-06T17:39:59Z</time>
        <sat>10</sat>
      </trkpt>
      <trkpt lat="43.543319" lon="10.963971">
        <ele>197.6</ele>
        <time>2016-07-06T17:40:00Z</time>
        <sat>10</sat>
      </trkpt>
      <trkpt lat="43.543418" lon="10.964152">
        <ele>197.2</ele>
        <time>2016-07-06T17:40:01Z</time>
        <sat>10</sat>
      </trkpt>
      <trkpt lat="43.543517" lon="10.964329">
        <ele>196.7</ele>
        <time>2016-07-06T17:40:02Z</time>
        <sat>10</sat>
      </trkpt>
      <trkpt lat="43.543618" lon="10.964505">
        <ele>195.7</ele>
        <time>2016-07-06T17:40:03Z</time>
        <sat>9</sat>
      </trkpt>
      <trkpt lat="43.543717" lon="10.964685">
        <ele>194.7</ele>
        <time>2016-07-06T17:40:04Z</time>
        <sat>9</sat>
      </trkpt>
      <trkpt lat="43.543815" lon="10.964870">
        <ele>193.8</ele>
        <time>2016-07-06T17:40:05Z</time>
        <sat>10</sat>
      </trkpt>
      <trkpt lat="43.543912" lon="10.965054">
        <ele>193.1</ele>
        <time>2016-07-06T17:40:06Z</time>
        <sat>10</sat>
      </trkpt>
      <trkpt lat="43.544002" lon="10.965243">
        <ele>192.1</ele>
        <time>2016-07-06T17:40:07Z</time>
        <sat>10</sat>
      </trkpt>
      <trkpt lat="43.544084" lon="10.965442">
        <ele>191.0</ele>
        <time>2016-07-06T17:40:08Z</time>
        <sat>10</sat>
      </trkpt>
      <trkpt lat="43.544148" lon="10.965659">
        <ele>189.9</ele>
        <time>2016-07-06T17:40:09Z</time>
        <sat>10</sat>
      </trkpt>
      <trkpt lat="43.544193" lon="10.965889">
        <ele>188.6</ele>
        <time>2016-07-06T17:40:10Z</time>
        <sat>10</sat>
      </trkpt>
      <trkpt lat="43.544227" lon="10.966124">
        <ele>187.4</ele>
        <time>2016-07-06T17:40:11Z</time>
        <sat>10</sat>
      </trkpt>
      <trkpt lat="43.544253" lon="10.966359">
        <ele>186.3</ele>
        <time>2016-07-06T17:40:12Z</time>
        <sat>10</sat>
      </trkpt>
      <trkpt lat="43.544273" lon="10.966594">
        <ele>185.4</ele>
        <time>2016-07-06T17:40:13Z</time>
        <sat>10</sat>
      </trkpt>
      <trkpt lat="43.544290" lon="10.966827">
        <ele>184.8</ele>
        <time>2016-07-06T17:40:14Z</time>
        <sat>10</sat>
      </trkpt>
      <trkpt lat="43.544304" lon="10.967068">
        <ele>184.2</ele>
        <time>2016-07-06T17:40:15Z</time>
        <sat>10</sat>
      </trkpt>
      <trkpt lat="43.544316" lon="10.967326">
        <ele>183.3</ele>
        <time>2016-07-06T17:40:16Z</time>
        <sat>10</sat>
      </trkpt>
      <trkpt lat="43.544328" lon="10.967592">
        <ele>182.2</ele>
        <time>2016-07-06T17:40:17Z</time>
        <sat>10</sat>
      </trkpt>
      <trkpt lat="43.544341" lon="10.967853">
        <ele>181.1</ele>
        <time>2016-07-06T17:40:18Z</time>
        <sat>10</sat>
      </trkpt>
      <trkpt lat="43.544355" lon="10.968109">
        <ele>180.4</ele>
        <time>2016-07-06T17:40:19Z</time>
        <sat>10</sat>
      </trkpt>
      <trkpt lat="43.544372" lon="10.968359">
        <ele>180.0</ele>
        <time>2016-07-06T17:40:20Z</time>
        <sat>9</sat>
      </trkpt>
      <trkpt lat="43.544395" lon="10.968600">
        <ele>179.8</ele>
        <time>2016-07-06T17:40:21Z</time>
        <sat>10</sat>
      </trkpt>
      <trkpt lat="43.544422" lon="10.968836">
        <ele>179.6</ele>
        <time>2016-07-06T17:40:22Z</time>
        <sat>10</sat>
      </trkpt>
      <trkpt lat="43.544458" lon="10.969068">
        <ele>179.3</ele>
        <time>2016-07-06T17:40:23Z</time>
        <sat>9</sat>
      </trkpt>
      <trkpt lat="43.544505" lon="10.969296">
        <ele>179.0</ele>
        <time>2016-07-06T17:40:24Z</time>
        <sat>10</sat>
      </trkpt>
      <trkpt lat="43.544560" lon="10.969520">
        <ele>178.6</ele>
        <time>2016-07-06T17:40:25Z</time>
        <sat>10</sat>
      </trkpt>
      <trkpt lat="43.544619" lon="10.969729">
        <ele>178.0</ele>
        <time>2016-07-06T17:40:26Z</time>
        <sat>10</sat>
      </trkpt>
      <trkpt lat="43.544684" lon="10.969921">
        <ele>177.6</ele>
        <time>2016-07-06T17:40:27Z</time>
        <sat>10</sat>
      </trkpt>
      <trkpt lat="43.544753" lon="10.970102">
        <ele>177.5</ele>
        <time>2016-07-06T17:40:28Z</time>
        <sat>10</sat>
      </trkpt>
      <trkpt lat="43.544826" lon="10.970277">
        <ele>177.4</ele>
        <time>2016-07-06T17:40:29Z</time>
        <sat>10</sat>
      </trkpt>
      <trkpt lat="43.544902" lon="10.970451">
        <ele>177.2</ele>
        <time>2016-07-06T17:40:30Z</time>
        <sat>10</sat>
      </trkpt>
      <trkpt lat="43.544977" lon="10.970630">
        <ele>177.0</ele>
        <time>2016-07-06T17:40:31Z</time>
        <sat>10</sat>
      </trkpt>
      <trkpt lat="43.545048" lon="10.970825">
        <ele>176.8</ele>
        <time>2016-07-06T17:40:32Z</time>
        <sat>10</sat>
      </trkpt>
      <trkpt lat="43.545104" lon="10.971036">
        <ele>176.5</ele>
        <time>2016-07-06T17:40:33Z</time>
        <sat>10</sat>
      </trkpt>
      <trkpt lat="43.545143" lon="10.971258">
        <ele>176.3</ele>
        <time>2016-07-06T17:40:34Z</time>
        <sat>10</sat>
      </trkpt>
      <trkpt lat="43.545169" lon="10.971493">
        <ele>176.1</ele>
        <time>2016-07-06T17:40:35Z</time>
        <sat>10</sat>
      </trkpt>
      <trkpt lat="43.545188" lon="10.971747">
        <ele>176.2</ele>
        <time>2016-07-06T17:40:36Z</time>
        <sat>10</sat>
      </trkpt>
      <trkpt lat="43.545201" lon="10.972013">
        <ele>177.2</ele>
        <time>2016-07-06T17:40:37Z</time>
        <sat>10</sat>
      </trkpt>
      <trkpt lat="43.545210" lon="10.972269">
        <ele>177.3</ele>
        <time>2016-07-06T17:40:38Z</time>
        <sat>10</sat>
      </trkpt>
      <trkpt lat="43.545216" lon="10.972505">
        <ele>177.5</ele>
        <time>2016-07-06T17:40:39Z</time>
        <sat>10</sat>
      </trkpt>
      <trkpt lat="43.545222" lon="10.972724">
        <ele>178.0</ele>
        <time>2016-07-06T17:40:40Z</time>
        <sat>10</sat>
      </trkpt>
      <trkpt lat="43.545227" lon="10.972920">
        <ele>178.8</ele>
        <time>2016-07-06T17:40:41Z</time>
        <sat>10</sat>
      </trkpt>
      <trkpt lat="43.545230" lon="10.973094">
        <ele>179.6</ele>
        <time>2016-07-06T17:40:42Z</time>
        <sat>10</sat>
      </trkpt>
      <trkpt lat="43.545227" lon="10.973260">
        <ele>180.2</ele>
        <time>2016-07-06T17:40:43Z</time>
        <sat>10</sat>
      </trkpt>
      <trkpt lat="43.545218" lon="10.973428">
        <ele>180.5</ele>
        <time>2016-07-06T17:40:44Z</time>
        <sat>9</sat>
      </trkpt>
      <trkpt lat="43.545195" lon="10.973594">
        <ele>180.6</ele>
        <time>2016-07-06T17:40:45Z</time>
        <sat>9</sat>
      </trkpt>
      <trkpt lat="43.545154" lon="10.973772">
        <ele>180.8</ele>
        <time>2016-07-06T17:40:46Z</time>
        <sat>9</sat>
      </trkpt>
      <trkpt lat="43.545090" lon="10.973959">
        <ele>181.0</ele>
        <time>2016-07-06T17:40:47Z</time>
        <sat>9</sat>
      </trkpt>
      <trkpt lat="43.545003" lon="10.974138">
        <ele>181.0</ele>
        <time>2016-07-06T17:40:48Z</time>
        <sat>10</sat>
      </trkpt>
      <trkpt lat="43.544909" lon="10.974307">
        <ele>180.9</ele>
        <time>2016-07-06T17:40:49Z</time>
        <sat>9</sat>
      </trkpt>
      <trkpt lat="43.544826" lon="10.974476">
        <ele>180.9</ele>
        <time>2016-07-06T17:40:50Z</time>
        <sat>10</sat>
      </trkpt>
      <trkpt lat="43.544763" lon="10.974648">
        <ele>180.8</ele>
        <time>2016-07-06T17:40:51Z</time>
        <sat>10</sat>
      </trkpt>
      <trkpt lat="43.544716" lon="10.974823">
        <ele>180.6</ele>
        <time>2016-07-06T17:40:52Z</time>
        <sat>10</sat>
      </trkpt>
      <trkpt lat="43.544687" lon="10.975012">
        <ele>180.2</ele>
        <time>2016-07-06T17:40:53Z</time>
        <sat>9</sat>
      </trkpt>
      <trkpt lat="43.544672" lon="10.975231">
        <ele>179.9</ele>
        <time>2016-07-06T17:40:54Z</time>
        <sat>9</sat>
      </trkpt>
      <trkpt lat="43.544665" lon="10.975491">
        <ele>179.8</ele>
        <time>2016-07-06T17:40:55Z</time>
        <sat>10</sat>
      </trkpt>
      <trkpt lat="43.544670" lon="10.975786">
        <ele>179.7</ele>
        <time>2016-07-06T17:40:56Z</time>
        <sat>10</sat>
      </trkpt>
      <trkpt lat="43.544706" lon="10.976102">
        <ele>179.9</ele>
        <time>2016-07-06T17:40:57Z</time>
        <sat>10</sat>
      </trkpt>
      <trkpt lat="43.544859" lon="10.976741">
        <ele>180.0</ele>
        <time>2016-07-06T17:40:59Z</time>
        <sat>10</sat>
      </trkpt>
      <trkpt lat="43.544943" lon="10.977018">
        <ele>180.0</ele>
        <time>2016-07-06T17:41:00Z</time>
        <sat>10</sat>
      </trkpt>
      <trkpt lat="43.545023" lon="10.977281">
        <ele>179.9</ele>
        <time>2016-07-06T17:41:01Z</time>
        <sat>10</sat>
      </trkpt>
      <trkpt lat="43.545103" lon="10.977535">
        <ele>179.8</ele>
        <time>2016-07-06T17:41:02Z</time>
        <sat>10</sat>
      </trkpt>
      <trkpt lat="43.545180" lon="10.977778">
        <ele>179.6</ele>
        <time>2016-07-06T17:41:03Z</time>
        <sat>10</sat>
      </trkpt>
      <trkpt lat="43.545259" lon="10.978014">
        <ele>179.0</ele>
        <time>2016-07-06T17:41:04Z</time>
        <sat>10</sat>
      </trkpt>
      <trkpt lat="43.545342" lon="10.978245">
        <ele>178.0</ele>
        <time>2016-07-06T17:41:05Z</time>
        <sat>10</sat>
      </trkpt>
      <trkpt lat="43.545428" lon="10.978466">
        <ele>176.8</ele>
        <time>2016-07-06T17:41:06Z</time>
        <sat>10</sat>
      </trkpt>
      <trkpt lat="43.545514" lon="10.978667">
        <ele>175.5</ele>
        <time>2016-07-06T17:41:07Z</time>
        <sat>10</sat>
      </trkpt>
      <trkpt lat="43.545599" lon="10.978859">
        <ele>174.5</ele>
        <time>2016-07-06T17:41:08Z</time>
        <sat>10</sat>
      </trkpt>
      <trkpt lat="43.545678" lon="10.979048">
        <ele>173.3</ele>
        <time>2016-07-06T17:41:09Z</time>
        <sat>10</sat>
      </trkpt>
      <trkpt lat="43.545747" lon="10.979233">
        <ele>171.4</ele>
        <time>2016-07-06T17:41:10Z</time>
        <sat>10</sat>
      </trkpt>
      <trkpt lat="43.545800" lon="10.979416">
        <ele>170.2</ele>
        <time>2016-07-06T17:41:11Z</time>
        <sat>10</sat>
      </trkpt>
      <trkpt lat="43.545840" lon="10.979596">
        <ele>168.8</ele>
        <time>2016-07-06T17:41:12Z</time>
        <sat>10</sat>
      </trkpt>
      <trkpt lat="43.545869" lon="10.979771">
        <ele>167.9</ele>
        <time>2016-07-06T17:41:13Z</time>
        <sat>8</sat>
      </trkpt>
      <trkpt lat="43.545886" lon="10.979942">
        <ele>166.8</ele>
        <time>2016-07-06T17:41:14Z</time>
        <sat>10</sat>
      </trkpt>
      <trkpt lat="43.545893" lon="10.980111">
        <ele>165.1</ele>
        <time>2016-07-06T17:41:15Z</time>
        <sat>10</sat>
      </trkpt>
      <trkpt lat="43.545883" lon="10.980281">
        <ele>163.9</ele>
        <time>2016-07-06T17:41:16Z</time>
        <sat>10</sat>
      </trkpt>
      <trkpt lat="43.545840" lon="10.980439">
        <ele>163.2</ele>
        <time>2016-07-06T17:41:17Z</time>
        <sat>10</sat>
      </trkpt>
      <trkpt lat="43.545766" lon="10.980574">
        <ele>162.3</ele>
        <time>2016-07-06T17:41:18Z</time>
        <sat>10</sat>
      </trkpt>
      <trkpt lat="43.545667" lon="10.980686">
        <ele>161.4</ele>
        <time>2016-07-06T17:41:19Z</time>
        <sat>9</sat>
      </trkpt>
      <trkpt lat="43.545547" lon="10.980767">
        <ele>160.8</ele>
        <time>2016-07-06T17:41:20Z</time>
        <sat>9</sat>
      </trkpt>
      <trkpt lat="43.545425" lon="10.980832">
        <ele>160.0</ele>
        <time>2016-07-06T17:41:21Z</time>
        <sat>8</sat>
      </trkpt>
      <trkpt lat="43.545302" lon="10.980892">
        <ele>159.0</ele>
        <time>2016-07-06T17:41:22Z</time>
        <sat>10</sat>
      </trkpt>
      <trkpt lat="43.545175" lon="10.980945">
        <ele>158.7</ele>
        <time>2016-07-06T17:41:23Z</time>
        <sat>10</sat>
      </trkpt>
      <trkpt lat="43.545069" lon="10.981007">
        <ele>157.8</ele>
        <time>2016-07-06T17:41:24Z</time>
        <sat>9</sat>
      </trkpt>
      <trkpt lat="43.544975" lon="10.981075">
        <ele>157.2</ele>
        <time>2016-07-06T17:41:25Z</time>
        <sat>9</sat>
      </trkpt>
      <trkpt lat="43.544882" lon="10.981152">
        <ele>154.6</ele>
        <time>2016-07-06T17:41:26Z</time>
        <sat>10</sat>
      </trkpt>
      <trkpt lat="43.544787" lon="10.981243">
        <ele>153.2</ele>
        <time>2016-07-06T17:41:27Z</time>
        <sat>10</sat>
      </trkpt>
      <trkpt lat="43.544697" lon="10.981332">
        <ele>152.0</ele>
        <time>2016-07-06T17:41:28Z</time>
        <sat>10</sat>
      </trkpt>
      <trkpt lat="43.544622" lon="10.981417">
        <ele>151.1</ele>
        <time>2016-07-06T17:41:29Z</time>
        <sat>10</sat>
      </trkpt>
      <trkpt lat="43.544505" lon="10.981567">
        <ele>149.4</ele>
        <time>2016-07-06T17:41:31Z</time>
        <sat>10</sat>
      </trkpt>
      <trkpt lat="43.544416" lon="10.981693">
        <ele>148.3</ele>
        <time>2016-07-06T17:41:33Z</time>
        <sat>10</sat>
      </trkpt>
      <trkpt lat="43.544345" lon="10.981795">
        <ele>146.9</ele>
        <time>2016-07-06T17:41:35Z</time>
        <sat>10</sat>
      </trkpt>
      <trkpt lat="43.544318" lon="10.981923">
        <ele>146.2</ele>
        <time>2016-07-06T17:41:39Z</time>
        <sat>10</sat>
      </trkpt>
      <trkpt lat="43.544364" lon="10.981808">
        <ele>146.9</ele>
        <time>2016-07-06T17:41:48Z</time>
        <sat>10</sat>
      </trkpt>
      <trkpt lat="43.544477" lon="10.981613">
        <ele>147.8</ele>
        <time>2016-07-06T17:41:50Z</time>
        <sat>10</sat>
      </trkpt>
      <trkpt lat="43.544566" lon="10.981487">
        <ele>148.3</ele>
        <time>2016-07-06T17:41:51Z</time>
        <sat>10</sat>
      </trkpt>
      <trkpt lat="43.544669" lon="10.981343">
        <ele>149.5</ele>
        <time>2016-07-06T17:41:52Z</time>
        <sat>10</sat>
      </trkpt>
      <trkpt lat="43.544803" lon="10.981185">
        <ele>150.5</ele>
        <time>2016-07-06T17:41:53Z</time>
        <sat>10</sat>
      </trkpt>
      <trkpt lat="43.544947" lon="10.981052">
        <ele>153.1</ele>
        <time>2016-07-06T17:41:54Z</time>
        <sat>10</sat>
      </trkpt>
      <trkpt lat="43.545084" lon="10.980960">
        <ele>154.9</ele>
        <time>2016-07-06T17:41:55Z</time>
        <sat>10</sat>
      </trkpt>
      <trkpt lat="43.545225" lon="10.980885">
        <ele>156.6</ele>
        <time>2016-07-06T17:41:56Z</time>
        <sat>10</sat>
      </trkpt>
      <trkpt lat="43.545372" lon="10.980816">
        <ele>157.8</ele>
        <time>2016-07-06T17:41:57Z</time>
        <sat>10</sat>
      </trkpt>
      <trkpt lat="43.545511" lon="10.980752">
        <ele>159.1</ele>
        <time>2016-07-06T17:41:58Z</time>
        <sat>10</sat>
      </trkpt>
      <trkpt lat="43.545747" lon="10.980610">
        <ele>161.2</ele>
        <time>2016-07-06T17:42:00Z</time>
        <sat>10</sat>
      </trkpt>
      <trkpt lat="43.545840" lon="10.980526">
        <ele>161.8</ele>
        <time>2016-07-06T17:42:01Z</time>
        <sat>10</sat>
      </trkpt>
      <trkpt lat="43.545963" lon="10.980368">
        <ele>161.5</ele>
        <time>2016-07-06T17:42:03Z</time>
        <sat>10</sat>
      </trkpt>
      <trkpt lat="43.546087" lon="10.980201">
        <ele>163.0</ele>
        <time>2016-07-06T17:42:05Z</time>
        <sat>10</sat>
      </trkpt>
      <trkpt lat="43.546176" lon="10.980126">
        <ele>162.7</ele>
        <time>2016-07-06T17:42:06Z</time>
        <sat>10</sat>
      </trkpt>
      <trkpt lat="43.546294" lon="10.980072">
        <ele>162.5</ele>
        <time>2016-07-06T17:42:07Z</time>
        <sat>10</sat>
      </trkpt>
      <trkpt lat="43.546433" lon="10.980029">
        <ele>162.0</ele>
        <time>2016-07-06T17:42:08Z</time>
        <sat>10</sat>
      </trkpt>
      <trkpt lat="43.546584" lon="10.979996">
        <ele>161.1</ele>
        <time>2016-07-06T17:42:09Z</time>
        <sat>10</sat>
      </trkpt>
      <trkpt lat="43.546746" lon="10.979977">
        <ele>159.8</ele>
        <time>2016-07-06T17:42:10Z</time>
        <sat>10</sat>
      </trkpt>
      <trkpt lat="43.546920" lon="10.979974">
        <ele>158.7</ele>
        <time>2016-07-06T17:42:11Z</time>
        <sat>10</sat>
      </trkpt>
      <trkpt lat="43.547096" lon="10.979992">
        <ele>158.0</ele>
        <time>2016-07-06T17:42:12Z</time>
        <sat>10</sat>
      </trkpt>
      <trkpt lat="43.547262" lon="10.980022">
        <ele>157.4</ele>
        <time>2016-07-06T17:42:13Z</time>
        <sat>10</sat>
      </trkpt>
      <trkpt lat="43.547417" lon="10.980053">
        <ele>156.8</ele>
        <time>2016-07-06T17:42:14Z</time>
        <sat>10</sat>
      </trkpt>
      <trkpt lat="43.547560" lon="10.980065">
        <ele>157.9</ele>
        <time>2016-07-06T17:42:15Z</time>
        <sat>10</sat>
      </trkpt>
      <trkpt lat="43.547708" lon="10.980081">
        <ele>157.9</ele>
        <time>2016-07-06T17:42:16Z</time>
        <sat>9</sat>
      </trkpt>
      <trkpt lat="43.547859" lon="10.980085">
        <ele>157.8</ele>
        <time>2016-07-06T17:42:17Z</time>
        <sat>10</sat>
      </trkpt>
      <trkpt lat="43.548016" lon="10.980067">
        <ele>157.7</ele>
        <time>2016-07-06T17:42:18Z</time>
        <sat>10</sat>
      </trkpt>
      <trkpt lat="43.548172" lon="10.980011">
        <ele>157.9</ele>
        <time>2016-07-06T17:42:19Z</time>
        <sat>10</sat>
      </trkpt>
      <trkpt lat="43.548326" lon="10.979927">
        <ele>158.0</ele>
        <time>2016-07-06T17:42:20Z</time>
        <sat>9</sat>
      </trkpt>
      <trkpt lat="43.548467" lon="10.979815">
        <ele>157.9</ele>
        <time>2016-07-06T17:42:21Z</time>
        <sat>10</sat>
      </trkpt>
      <trkpt lat="43.548596" lon="10.979696">
        <ele>157.9</ele>
        <time>2016-07-06T17:42:22Z</time>
        <sat>10</sat>
      </trkpt>
      <trkpt lat="43.548700" lon="10.979583">
        <ele>157.7</ele>
        <time>2016-07-06T17:42:23Z</time>
        <sat>10</sat>
      </trkpt>
      <trkpt lat="43.548795" lon="10.979470">
        <ele>157.3</ele>
        <time>2016-07-06T17:42:24Z</time>
        <sat>10</sat>
      </trkpt>
      <trkpt lat="43.548919" lon="10.979378">
        <ele>157.2</ele>
        <time>2016-07-06T17:42:25Z</time>
        <sat>9</sat>
      </trkpt>
      <trkpt lat="43.549073" lon="10.979329">
        <ele>154.8</ele>
        <time>2016-07-06T17:42:26Z</time>
        <sat>10</sat>
      </trkpt>
      <trkpt lat="43.549234" lon="10.979281">
        <ele>154.3</ele>
        <time>2016-07-06T17:42:27Z</time>
        <sat>10</sat>
      </trkpt>
      <trkpt lat="43.549402" lon="10.979238">
        <ele>153.7</ele>
        <time>2016-07-06T17:42:28Z</time>
        <sat>10</sat>
      </trkpt>
      <trkpt lat="43.549578" lon="10.979193">
        <ele>153.4</ele>
        <time>2016-07-06T17:42:29Z</time>
        <sat>10</sat>
      </trkpt>
      <trkpt lat="43.549760" lon="10.979153">
        <ele>153.3</ele>
        <time>2016-07-06T17:42:30Z</time>
        <sat>10</sat>
      </trkpt>
      <trkpt lat="43.549944" lon="10.979112">
        <ele>153.5</ele>
        <time>2016-07-06T17:42:31Z</time>
        <sat>9</sat>
      </trkpt>
      <trkpt lat="43.550123" lon="10.979072">
        <ele>153.9</ele>
        <time>2016-07-06T17:42:32Z</time>
        <sat>10</sat>
      </trkpt>
      <trkpt lat="43.550297" lon="10.979029">
        <ele>154.7</ele>
        <time>2016-07-06T17:42:33Z</time>
        <sat>10</sat>
      </trkpt>
      <trkpt lat="43.550476" lon="10.978995">
        <ele>154.8</ele>
        <time>2016-07-06T17:42:34Z</time>
        <sat>10</sat>
      </trkpt>
      <trkpt lat="43.550643" lon="10.978981">
        <ele>154.6</ele>
        <time>2016-07-06T17:42:35Z</time>
        <sat>10</sat>
      </trkpt>
      <trkpt lat="43.550800" lon="10.978988">
        <ele>154.6</ele>
        <time>2016-07-06T17:42:36Z</time>
        <sat>10</sat>
      </trkpt>
      <trkpt lat="43.550958" lon="10.979003">
        <ele>154.5</ele>
        <time>2016-07-06T17:42:37Z</time>
        <sat>10</sat>
      </trkpt>
      <trkpt lat="43.551119" lon="10.979025">
        <ele>154.5</ele>
        <time>2016-07-06T17:42:38Z</time>
        <sat>10</sat>
      </trkpt>
      <trkpt lat="43.551278" lon="10.979056">
        <ele>155.0</ele>
        <time>2016-07-06T17:42:39Z</time>
        <sat>10</sat>
      </trkpt>
      <trkpt lat="43.551435" lon="10.979102">
        <ele>157.9</ele>
        <time>2016-07-06T17:42:40Z</time>
        <sat>9</sat>
      </trkpt>
      <trkpt lat="43.551571" lon="10.979145">
        <ele>159.3</ele>
        <time>2016-07-06T17:42:41Z</time>
        <sat>10</sat>
      </trkpt>
      <trkpt lat="43.551674" lon="10.979184">
        <ele>160.2</ele>
        <time>2016-07-06T17:42:42Z</time>
        <sat>10</sat>
      </trkpt>
      <trkpt lat="43.551839" lon="10.979260">
        <ele>161.5</ele>
        <time>2016-07-06T17:42:44Z</time>
        <sat>8</sat>
      </trkpt>
      <trkpt lat="43.552010" lon="10.979323">
        <ele>162.6</ele>
        <time>2016-07-06T17:42:46Z</time>
        <sat>10</sat>
      </trkpt>
      <trkpt lat="43.552103" lon="10.979363">
        <ele>163.3</ele>
        <time>2016-07-06T17:42:47Z</time>
        <sat>10</sat>
      </trkpt>
      <trkpt lat="43.552208" lon="10.979408">
        <ele>163.9</ele>
        <time>2016-07-06T17:42:48Z</time>
        <sat>10</sat>
      </trkpt>
      <trkpt lat="43.552324" lon="10.979463">
        <ele>164.7</ele>
        <time>2016-07-06T17:42:49Z</time>
        <sat>10</sat>
      </trkpt>
      <trkpt lat="43.552450" lon="10.979520">
        <ele>165.2</ele>
        <time>2016-07-06T17:42:50Z</time>
        <sat>10</sat>
      </trkpt>
      <trkpt lat="43.552582" lon="10.979579">
        <ele>165.4</ele>
        <time>2016-07-06T17:42:51Z</time>
        <sat>10</sat>
      </trkpt>
      <trkpt lat="43.552716" lon="10.979635">
        <ele>165.3</ele>
        <time>2016-07-06T17:42:52Z</time>
        <sat>8</sat>
      </trkpt>
      <trkpt lat="43.552853" lon="10.979689">
        <ele>165.1</ele>
        <time>2016-07-06T17:42:53Z</time>
        <sat>10</sat>
      </trkpt>
      <trkpt lat="43.553000" lon="10.979742">
        <ele>165.0</ele>
        <time>2016-07-06T17:42:54Z</time>
        <sat>10</sat>
      </trkpt>
      <trkpt lat="43.553161" lon="10.979776">
        <ele>163.6</ele>
        <time>2016-07-06T17:42:55Z</time>
        <sat>10</sat>
      </trkpt>
      <trkpt lat="43.553331" lon="10.979781">
        <ele>162.3</ele>
        <time>2016-07-06T17:42:56Z</time>
        <sat>9</sat>
      </trkpt>
      <trkpt lat="43.553504" lon="10.979753">
        <ele>161.1</ele>
        <time>2016-07-06T17:42:57Z</time>
        <sat>10</sat>
      </trkpt>
      <trkpt lat="43.553671" lon="10.979694">
        <ele>159.8</ele>
        <time>2016-07-06T17:42:58Z</time>
        <sat>10</sat>
      </trkpt>
      <trkpt lat="43.553831" lon="10.979603">
        <ele>158.7</ele>
        <time>2016-07-06T17:42:59Z</time>
        <sat>10</sat>
      </trkpt>
      <trkpt lat="43.554134" lon="10.979365">
        <ele>156.0</ele>
        <time>2016-07-06T17:43:01Z</time>
        <sat>10</sat>
      </trkpt>
      <trkpt lat="43.554298" lon="10.979253">
        <ele>154.7</ele>
        <time>2016-07-06T17:43:02Z</time>
        <sat>10</sat>
      </trkpt>
      <trkpt lat="43.554472" lon="10.979154">
        <ele>153.2</ele>
        <time>2016-07-06T17:43:03Z</time>
        <sat>10</sat>
      </trkpt>
      <trkpt lat="43.554645" lon="10.979063">
        <ele>151.8</ele>
        <time>2016-07-06T17:43:04Z</time>
        <sat>10</sat>
      </trkpt>
      <trkpt lat="43.554817" lon="10.978979">
        <ele>150.3</ele>
        <time>2016-07-06T17:43:05Z</time>
        <sat>10</sat>
      </trkpt>
      <trkpt lat="43.554982" lon="10.978897">
        <ele>148.8</ele>
        <time>2016-07-06T17:43:06Z</time>
        <sat>10</sat>
      </trkpt>
      <trkpt lat="43.555142" lon="10.978820">
        <ele>147.9</ele>
        <time>2016-07-06T17:43:07Z</time>
        <sat>10</sat>
      </trkpt>
      <trkpt lat="43.555304" lon="10.978753">
        <ele>147.6</ele>
        <time>2016-07-06T17:43:08Z</time>
        <sat>10</sat>
      </trkpt>
      <trkpt lat="43.555477" lon="10.978708">
        <ele>147.1</ele>
        <time>2016-07-06T17:43:09Z</time>
        <sat>10</sat>
      </trkpt>
      <trkpt lat="43.555655" lon="10.978685">
        <ele>146.8</ele>
        <time>2016-07-06T17:43:10Z</time>
        <sat>10</sat>
      </trkpt>
      <trkpt lat="43.555840" lon="10.978677">
        <ele>146.3</ele>
        <time>2016-07-06T17:43:11Z</time>
        <sat>10</sat>
      </trkpt>
      <trkpt lat="43.556030" lon="10.978690">
        <ele>145.7</ele>
        <time>2016-07-06T17:43:12Z</time>
        <sat>10</sat>
      </trkpt>
      <trkpt lat="43.556221" lon="10.978719">
        <ele>145.2</ele>
        <time>2016-07-06T17:43:13Z</time>
        <sat>10</sat>
      </trkpt>
      <trkpt lat="43.556413" lon="10.978760">
        <ele>144.7</ele>
        <time>2016-07-06T17:43:14Z</time>
        <sat>10</sat>
      </trkpt>
      <trkpt lat="43.556608" lon="10.978805">
        <ele>143.9</ele>
        <time>2016-07-06T17:43:15Z</time>
        <sat>10</sat>
      </trkpt>
      <trkpt lat="43.556800" lon="10.978848">
        <ele>143.4</ele>
        <time>2016-07-06T17:43:16Z</time>
        <sat>10</sat>
      </trkpt>
      <trkpt lat="43.556991" lon="10.978894">
        <ele>142.7</ele>
        <time>2016-07-06T17:43:17Z</time>
        <sat>10</sat>
      </trkpt>
      <trkpt lat="43.557176" lon="10.978936">
        <ele>142.0</ele>
        <time>2016-07-06T17:43:18Z</time>
        <sat>10</sat>
      </trkpt>
      <trkpt lat="43.557359" lon="10.978975">
        <ele>141.4</ele>
        <time>2016-07-06T17:43:19Z</time>
        <sat>10</sat>
      </trkpt>
      <trkpt lat="43.557537" lon="10.979012">
        <ele>141.2</ele>
        <time>2016-07-06T17:43:20Z</time>
        <sat>9</sat>
      </trkpt>
      <trkpt lat="43.557712" lon="10.979046">
        <ele>141.2</ele>
        <time>2016-07-06T17:43:21Z</time>
        <sat>9</sat>
      </trkpt>
      <trkpt lat="43.557885" lon="10.979081">
        <ele>141.4</ele>
        <time>2016-07-06T17:43:22Z</time>
        <sat>10</sat>
      </trkpt>
      <trkpt lat="43.558052" lon="10.979115">
        <ele>141.7</ele>
        <time>2016-07-06T17:43:23Z</time>
        <sat>10</sat>
      </trkpt>
      <trkpt lat="43.558211" lon="10.979150">
        <ele>142.2</ele>
        <time>2016-07-06T17:43:24Z</time>
        <sat>10</sat>
      </trkpt>
      <trkpt lat="43.558368" lon="10.979185">
        <ele>142.6</ele>
        <time>2016-07-06T17:43:25Z</time>
        <sat>10</sat>
      </trkpt>
      <trkpt lat="43.558525" lon="10.979221">
        <ele>142.9</ele>
        <time>2016-07-06T17:43:26Z</time>
        <sat>10</sat>
      </trkpt>
      <trkpt lat="43.558682" lon="10.979259">
        <ele>143.4</ele>
        <time>2016-07-06T17:43:27Z</time>
        <sat>10</sat>
      </trkpt>
      <trkpt lat="43.558840" lon="10.979309">
        <ele>143.8</ele>
        <time>2016-07-06T17:43:28Z</time>
        <sat>10</sat>
      </trkpt>
      <trkpt lat="43.558993" lon="10.979379">
        <ele>144.3</ele>
        <time>2016-07-06T17:43:29Z</time>
        <sat>10</sat>
      </trkpt>
      <trkpt lat="43.559139" lon="10.979473">
        <ele>144.8</ele>
        <time>2016-07-06T17:43:30Z</time>
        <sat>9</sat>
      </trkpt>
      <trkpt lat="43.559275" lon="10.979591">
        <ele>145.2</ele>
        <time>2016-07-06T17:43:31Z</time>
        <sat>9</sat>
      </trkpt>
      <trkpt lat="43.559404" lon="10.979740">
        <ele>145.8</ele>
        <time>2016-07-06T17:43:32Z</time>
        <sat>7</sat>
      </trkpt>
      <trkpt lat="43.559524" lon="10.979913">
        <ele>145.9</ele>
        <time>2016-07-06T17:43:33Z</time>
        <sat>8</sat>
      </trkpt>
      <trkpt lat="43.559644" lon="10.980079">
        <ele>145.6</ele>
        <time>2016-07-06T17:43:34Z</time>
        <sat>9</sat>
      </trkpt>
      <trkpt lat="43.559767" lon="10.980237">
        <ele>144.4</ele>
        <time>2016-07-06T17:43:35Z</time>
        <sat>9</sat>
      </trkpt>
      <trkpt lat="43.559911" lon="10.980374">
        <ele>142.6</ele>
        <time>2016-07-06T17:43:36Z</time>
        <sat>9</sat>
      </trkpt>
      <trkpt lat="43.560068" lon="10.980496">
        <ele>141.5</ele>
        <time>2016-07-06T17:43:37Z</time>
        <sat>10</sat>
      </trkpt>
      <trkpt lat="43.560260" lon="10.980597">
        <ele>138.1</ele>
        <time>2016-07-06T17:43:38Z</time>
        <sat>8</sat>
      </trkpt>
      <trkpt lat="43.560444" lon="10.980680">
        <ele>136.3</ele>
        <time>2016-07-06T17:43:39Z</time>
        <sat>8</sat>
      </trkpt>
      <trkpt lat="43.560622" lon="10.980746">
        <ele>133.5</ele>
        <time>2016-07-06T17:43:40Z</time>
        <sat>8</sat>
      </trkpt>
      <trkpt lat="43.560799" lon="10.980812">
        <ele>130.9</ele>
        <time>2016-07-06T17:43:41Z</time>
        <sat>8</sat>
      </trkpt>
      <trkpt lat="43.560971" lon="10.980878">
        <ele>128.6</ele>
        <time>2016-07-06T17:43:42Z</time>
        <sat>8</sat>
      </trkpt>
      <trkpt lat="43.561150" lon="10.980934">
        <ele>126.6</ele>
        <time>2016-07-06T17:43:43Z</time>
        <sat>10</sat>
      </trkpt>
      <trkpt lat="43.561334" lon="10.980977">
        <ele>123.8</ele>
        <time>2016-07-06T17:43:44Z</time>
        <sat>10</sat>
      </trkpt>
      <trkpt lat="43.561519" lon="10.981009">
        <ele>123.0</ele>
        <time>2016-07-06T17:43:45Z</time>
        <sat>10</sat>
      </trkpt>
      <trkpt lat="43.561718" lon="10.981013">
        <ele>120.4</ele>
        <time>2016-07-06T17:43:46Z</time>
        <sat>10</sat>
      </trkpt>
      <trkpt lat="43.561929" lon="10.980987">
        <ele>118.2</ele>
        <time>2016-07-06T17:43:47Z</time>
        <sat>10</sat>
      </trkpt>
      <trkpt lat="43.562143" lon="10.980951">
        <ele>117.2</ele>
        <time>2016-07-06T17:43:48Z</time>
        <sat>7</sat>
      </trkpt>
      <trkpt lat="43.562328" lon="10.980871">
        <ele>117.5</ele>
        <time>2016-07-06T17:43:49Z</time>
        <sat>10</sat>
      </trkpt>
      <trkpt lat="43.562503" lon="10.980783">
        <ele>117.1</ele>
        <time>2016-07-06T17:43:50Z</time>
        <sat>10</sat>
      </trkpt>
      <trkpt lat="43.562669" lon="10.980694">
        <ele>117.1</ele>
        <time>2016-07-06T17:43:51Z</time>
        <sat>10</sat>
      </trkpt>
      <trkpt lat="43.562828" lon="10.980616">
        <ele>118.7</ele>
        <time>2016-07-06T17:43:52Z</time>
        <sat>10</sat>
      </trkpt>
      <trkpt lat="43.562982" lon="10.980528">
        <ele>119.8</ele>
        <time>2016-07-06T17:43:53Z</time>
        <sat>10</sat>
      </trkpt>
      <trkpt lat="43.563142" lon="10.980432">
        <ele>121.3</ele>
        <time>2016-07-06T17:43:54Z</time>
        <sat>8</sat>
      </trkpt>
      <trkpt lat="43.563296" lon="10.980317">
        <ele>122.2</ele>
        <time>2016-07-06T17:43:55Z</time>
        <sat>10</sat>
      </trkpt>
      <trkpt lat="43.563445" lon="10.980178">
        <ele>122.9</ele>
        <time>2016-07-06T17:43:56Z</time>
        <sat>10</sat>
      </trkpt>
      <trkpt lat="43.563595" lon="10.980026">
        <ele>125.1</ele>
        <time>2016-07-06T17:43:57Z</time>
        <sat>10</sat>
      </trkpt>
      <trkpt lat="43.563756" lon="10.979862">
        <ele>123.1</ele>
        <time>2016-07-06T17:43:58Z</time>
        <sat>10</sat>
      </trkpt>
      <trkpt lat="43.563906" lon="10.979713">
        <ele>123.0</ele>
        <time>2016-07-06T17:43:59Z</time>
        <sat>9</sat>
      </trkpt>
      <trkpt lat="43.564048" lon="10.979566">
        <ele>122.9</ele>
        <time>2016-07-06T17:44:00Z</time>
        <sat>10</sat>
      </trkpt>
      <trkpt lat="43.564188" lon="10.979421">
        <ele>122.7</ele>
        <time>2016-07-06T17:44:01Z</time>
        <sat>9</sat>
      </trkpt>
      <trkpt lat="43.564466" lon="10.979127">
        <ele>122.2</ele>
        <time>2016-07-06T17:44:03Z</time>
        <sat>9</sat>
      </trkpt>
      <trkpt lat="43.564609" lon="10.978986">
        <ele>121.7</ele>
        <time>2016-07-06T17:44:04Z</time>
        <sat>10</sat>
      </trkpt>
      <trkpt lat="43.564757" lon="10.978856">
        <ele>121.4</ele>
        <time>2016-07-06T17:44:05Z</time>
        <sat>10</sat>
      </trkpt>
      <trkpt lat="43.564907" lon="10.978731">
        <ele>121.5</ele>
        <time>2016-07-06T17:44:06Z</time>
        <sat>10</sat>
      </trkpt>
      <trkpt lat="43.565059" lon="10.978609">
        <ele>122.6</ele>
        <time>2016-07-06T17:44:07Z</time>
        <sat>9</sat>
      </trkpt>
      <trkpt lat="43.565199" lon="10.978487">
        <ele>122.9</ele>
        <time>2016-07-06T17:44:08Z</time>
        <sat>9</sat>
      </trkpt>
      <trkpt lat="43.565336" lon="10.978366">
        <ele>123.4</ele>
        <time>2016-07-06T17:44:09Z</time>
        <sat>10</sat>
      </trkpt>
      <trkpt lat="43.565471" lon="10.978239">
        <ele>124.1</ele>
        <time>2016-07-06T17:44:10Z</time>
        <sat>10</sat>
      </trkpt>
      <trkpt lat="43.565605" lon="10.978101">
        <ele>124.2</ele>
        <time>2016-07-06T17:44:11Z</time>
        <sat>10</sat>
      </trkpt>
      <trkpt lat="43.565731" lon="10.977948">
        <ele>124.1</ele>
        <time>2016-07-06T17:44:12Z</time>
        <sat>10</sat>
      </trkpt>
      <trkpt lat="43.565856" lon="10.977797">
        <ele>123.7</ele>
        <time>2016-07-06T17:44:13Z</time>
        <sat>10</sat>
      </trkpt>
      <trkpt lat="43.565983" lon="10.977655">
        <ele>123.4</ele>
        <time>2016-07-06T17:44:14Z</time>
        <sat>10</sat>
      </trkpt>
      <trkpt lat="43.566109" lon="10.977525">
        <ele>123.2</ele>
        <time>2016-07-06T17:44:15Z</time>
        <sat>10</sat>
      </trkpt>
      <trkpt lat="43.566242" lon="10.977403">
        <ele>122.4</ele>
        <time>2016-07-06T17:44:16Z</time>
        <sat>10</sat>
      </trkpt>
      <trkpt lat="43.566365" lon="10.977277">
        <ele>122.1</ele>
        <time>2016-07-06T17:44:17Z</time>
        <sat>9</sat>
      </trkpt>
      <trkpt lat="43.566486" lon="10.977140">
        <ele>121.4</ele>
        <time>2016-07-06T17:44:18Z</time>
        <sat>9</sat>
      </trkpt>
      <trkpt lat="43.566616" lon="10.977005">
        <ele>120.2</ele>
        <time>2016-07-06T17:44:19Z</time>
        <sat>10</sat>
      </trkpt>
      <trkpt lat="43.566738" lon="10.976876">
        <ele>119.6</ele>
        <time>2016-07-06T17:44:20Z</time>
        <sat>10</sat>
      </trkpt>
      <trkpt lat="43.566840" lon="10.976742">
        <ele>118.2</ele>
        <time>2016-07-06T17:44:21Z</time>
        <sat>10</sat>
      </trkpt>
      <trkpt lat="43.566943" lon="10.976616">
        <ele>116.3</ele>
        <time>2016-07-06T17:44:22Z</time>
        <sat>10</sat>
      </trkpt>
      <trkpt lat="43.567057" lon="10.976499">
        <ele>115.3</ele>
        <time>2016-07-06T17:44:23Z</time>
        <sat>10</sat>
      </trkpt>
      <trkpt lat="43.567184" lon="10.976393">
        <ele>114.2</ele>
        <time>2016-07-06T17:44:24Z</time>
        <sat>10</sat>
      </trkpt>
      <trkpt lat="43.567285" lon="10.976322">
        <ele>113.1</ele>
        <time>2016-07-06T17:44:25Z</time>
        <sat>10</sat>
      </trkpt>
      <trkpt lat="43.567398" lon="10.976252">
        <ele>112.2</ele>
        <time>2016-07-06T17:44:26Z</time>
        <sat>10</sat>
      </trkpt>
      <trkpt lat="43.567520" lon="10.976179">
        <ele>111.7</ele>
        <time>2016-07-06T17:44:27Z</time>
        <sat>10</sat>
      </trkpt>
      <trkpt lat="43.567645" lon="10.976105">
        <ele>110.5</ele>
        <time>2016-07-06T17:44:28Z</time>
        <sat>9</sat>
      </trkpt>
      <trkpt lat="43.567788" lon="10.976047">
        <ele>110.8</ele>
        <time>2016-07-06T17:44:29Z</time>
        <sat>10</sat>
      </trkpt>
      <trkpt lat="43.567925" lon="10.976004">
        <ele>111.7</ele>
        <time>2016-07-06T17:44:30Z</time>
        <sat>9</sat>
      </trkpt>
      <trkpt lat="43.568079" lon="10.975973">
        <ele>112.0</ele>
        <time>2016-07-06T17:44:31Z</time>
        <sat>10</sat>
      </trkpt>
      <trkpt lat="43.568257" lon="10.975977">
        <ele>108.5</ele>
        <time>2016-07-06T17:44:32Z</time>
        <sat>10</sat>
      </trkpt>
      <trkpt lat="43.568431" lon="10.975995">
        <ele>106.9</ele>
        <time>2016-07-06T17:44:33Z</time>
        <sat>10</sat>
      </trkpt>
      <trkpt lat="43.568602" lon="10.976020">
        <ele>105.3</ele>
        <time>2016-07-06T17:44:34Z</time>
        <sat>9</sat>
      </trkpt>
      <trkpt lat="43.568770" lon="10.976054">
        <ele>103.9</ele>
        <time>2016-07-06T17:44:35Z</time>
        <sat>10</sat>
      </trkpt>
      <trkpt lat="43.568934" lon="10.976097">
        <ele>101.8</ele>
        <time>2016-07-06T17:44:36Z</time>
        <sat>10</sat>
      </trkpt>
      <trkpt lat="43.569097" lon="10.976158">
        <ele>99.7</ele>
        <time>2016-07-06T17:44:37Z</time>
        <sat>10</sat>
      </trkpt>
      <trkpt lat="43.569256" lon="10.976239">
        <ele>98.2</ele>
        <time>2016-07-06T17:44:38Z</time>
        <sat>10</sat>
      </trkpt>
      <trkpt lat="43.569409" lon="10.976326">
        <ele>96.7</ele>
        <time>2016-07-06T17:44:39Z</time>
        <sat>10</sat>
      </trkpt>
      <trkpt lat="43.569556" lon="10.976418">
        <ele>95.2</ele>
        <time>2016-07-06T17:44:40Z</time>
        <sat>10</sat>
      </trkpt>
      <trkpt lat="43.569701" lon="10.976528">
        <ele>93.9</ele>
        <time>2016-07-06T17:44:41Z</time>
        <sat>10</sat>
      </trkpt>
      <trkpt lat="43.569845" lon="10.976662">
        <ele>92.1</ele>
        <time>2016-07-06T17:44:42Z</time>
        <sat>9</sat>
      </trkpt>
      <trkpt lat="43.569980" lon="10.976828">
        <ele>90.7</ele>
        <time>2016-07-06T17:44:43Z</time>
        <sat>10</sat>
      </trkpt>
      <trkpt lat="43.570101" lon="10.977033">
        <ele>89.2</ele>
        <time>2016-07-06T17:44:44Z</time>
        <sat>9</sat>
      </trkpt>
      <trkpt lat="43.570213" lon="10.977267">
        <ele>87.6</ele>
        <time>2016-07-06T17:44:45Z</time>
        <sat>9</sat>
      </trkpt>
      <trkpt lat="43.570325" lon="10.977523">
        <ele>86.7</ele>
        <time>2016-07-06T17:44:46Z</time>
        <sat>10</sat>
      </trkpt>
      <trkpt lat="43.570438" lon="10.977779">
        <ele>85.2</ele>
        <time>2016-07-06T17:44:47Z</time>
        <sat>9</sat>
      </trkpt>
      <trkpt lat="43.570547" lon="10.978034">
        <ele>84.0</ele>
        <time>2016-07-06T17:44:48Z</time>
        <sat>10</sat>
      </trkpt>
      <trkpt lat="43.570651" lon="10.978285">
        <ele>82.7</ele>
        <time>2016-07-06T17:44:49Z</time>
        <sat>9</sat>
      </trkpt>
      <trkpt lat="43.570751" lon="10.978533">
        <ele>81.5</ele>
        <time>2016-07-06T17:44:50Z</time>
        <sat>10</sat>
      </trkpt>
      <trkpt lat="43.570845" lon="10.978765">
        <ele>80.3</ele>
        <time>2016-07-06T17:44:51Z</time>
        <sat>10</sat>
      </trkpt>
      <trkpt lat="43.570934" lon="10.978982">
        <ele>79.4</ele>
        <time>2016-07-06T17:44:52Z</time>
        <sat>10</sat>
      </trkpt>
      <trkpt lat="43.571028" lon="10.979182">
        <ele>78.4</ele>
        <time>2016-07-06T17:44:53Z</time>
        <sat>10</sat>
      </trkpt>
      <trkpt lat="43.571133" lon="10.979352">
        <ele>77.2</ele>
        <time>2016-07-06T17:44:54Z</time>
        <sat>10</sat>
      </trkpt>
      <trkpt lat="43.571255" lon="10.979493">
        <ele>76.2</ele>
        <time>2016-07-06T17:44:55Z</time>
        <sat>10</sat>
      </trkpt>
      <trkpt lat="43.571398" lon="10.979594">
        <ele>74.8</ele>
        <time>2016-07-06T17:44:56Z</time>
        <sat>10</sat>
      </trkpt>
      <trkpt lat="43.571561" lon="10.979663">
        <ele>73.4</ele>
        <time>2016-07-06T17:44:57Z</time>
        <sat>9</sat>
      </trkpt>
      <trkpt lat="43.571735" lon="10.979702">
        <ele>72.2</ele>
        <time>2016-07-06T17:44:58Z</time>
        <sat>10</sat>
      </trkpt>
      <trkpt lat="43.571921" lon="10.979713">
        <ele>71.5</ele>
        <time>2016-07-06T17:44:59Z</time>
        <sat>10</sat>
      </trkpt>
      <trkpt lat="43.572106" lon="10.979701">
        <ele>70.5</ele>
        <time>2016-07-06T17:45:00Z</time>
        <sat>10</sat>
      </trkpt>
      <trkpt lat="43.572287" lon="10.979659">
        <ele>69.5</ele>
        <time>2016-07-06T17:45:01Z</time>
        <sat>10</sat>
      </trkpt>
      <trkpt lat="43.572458" lon="10.979581">
        <ele>68.8</ele>
        <time>2016-07-06T17:45:02Z</time>
        <sat>10</sat>
      </trkpt>
      <trkpt lat="43.572612" lon="10.979466">
        <ele>68.1</ele>
        <time>2016-07-06T17:45:03Z</time>
        <sat>10</sat>
      </trkpt>
      <trkpt lat="43.572860" lon="10.979112">
        <ele>66.8</ele>
        <time>2016-07-06T17:45:05Z</time>
        <sat>10</sat>
      </trkpt>
      <trkpt lat="43.572962" lon="10.978883">
        <ele>66.0</ele>
        <time>2016-07-06T17:45:06Z</time>
        <sat>10</sat>
      </trkpt>
      <trkpt lat="43.573061" lon="10.978636">
        <ele>65.1</ele>
        <time>2016-07-06T17:45:07Z</time>
        <sat>10</sat>
      </trkpt>
      <trkpt lat="43.573161" lon="10.978376">
        <ele>64.3</ele>
        <time>2016-07-06T17:45:08Z</time>
        <sat>10</sat>
      </trkpt>
      <trkpt lat="43.573259" lon="10.978119">
        <ele>63.6</ele>
        <time>2016-07-06T17:45:09Z</time>
        <sat>10</sat>
      </trkpt>
      <trkpt lat="43.573350" lon="10.977876">
        <ele>63.0</ele>
        <time>2016-07-06T17:45:10Z</time>
        <sat>8</sat>
      </trkpt>
      <trkpt lat="43.573435" lon="10.977646">
        <ele>62.8</ele>
        <time>2016-07-06T17:45:11Z</time>
        <sat>10</sat>
      </trkpt>
      <trkpt lat="43.573524" lon="10.977423">
        <ele>62.5</ele>
        <time>2016-07-06T17:45:12Z</time>
        <sat>10</sat>
      </trkpt>
      <trkpt lat="43.573635" lon="10.977212">
        <ele>62.3</ele>
        <time>2016-07-06T17:45:13Z</time>
        <sat>10</sat>
      </trkpt>
      <trkpt lat="43.573765" lon="10.977011">
        <ele>62.1</ele>
        <time>2016-07-06T17:45:14Z</time>
        <sat>10</sat>
      </trkpt>
      <trkpt lat="43.573899" lon="10.976827">
        <ele>61.9</ele>
        <time>2016-07-06T17:45:15Z</time>
        <sat>10</sat>
      </trkpt>
      <trkpt lat="43.574027" lon="10.976654">
        <ele>61.6</ele>
        <time>2016-07-06T17:45:16Z</time>
        <sat>10</sat>
      </trkpt>
      <trkpt lat="43.574157" lon="10.976484">
        <ele>61.5</ele>
        <time>2016-07-06T17:45:17Z</time>
        <sat>10</sat>
      </trkpt>
      <trkpt lat="43.574289" lon="10.976311">
        <ele>61.2</ele>
        <time>2016-07-06T17:45:18Z</time>
        <sat>10</sat>
      </trkpt>
      <trkpt lat="43.574419" lon="10.976130">
        <ele>60.9</ele>
        <time>2016-07-06T17:45:19Z</time>
        <sat>10</sat>
      </trkpt>
      <trkpt lat="43.574545" lon="10.975934">
        <ele>60.2</ele>
        <time>2016-07-06T17:45:20Z</time>
        <sat>10</sat>
      </trkpt>
      <trkpt lat="43.574663" lon="10.975720">
        <ele>59.5</ele>
        <time>2016-07-06T17:45:21Z</time>
        <sat>10</sat>
      </trkpt>
      <trkpt lat="43.574772" lon="10.975495">
        <ele>58.7</ele>
        <time>2016-07-06T17:45:22Z</time>
        <sat>10</sat>
      </trkpt>
      <trkpt lat="43.574877" lon="10.975272">
        <ele>57.8</ele>
        <time>2016-07-06T17:45:23Z</time>
        <sat>10</sat>
      </trkpt>
      <trkpt lat="43.574989" lon="10.975062">
        <ele>56.9</ele>
        <time>2016-07-06T17:45:24Z</time>
        <sat>10</sat>
      </trkpt>
      <trkpt lat="43.575121" lon="10.974879">
        <ele>56.0</ele>
        <time>2016-07-06T17:45:25Z</time>
        <sat>10</sat>
      </trkpt>
      <trkpt lat="43.575278" lon="10.974730">
        <ele>55.3</ele>
        <time>2016-07-06T17:45:26Z</time>
        <sat>10</sat>
      </trkpt>
      <trkpt lat="43.575455" lon="10.974611">
        <ele>54.8</ele>
        <time>2016-07-06T17:45:27Z</time>
        <sat>10</sat>
      </trkpt>
      <trkpt lat="43.575638" lon="10.974510">
        <ele>54.5</ele>
        <time>2016-07-06T17:45:28Z</time>
        <sat>10</sat>
      </trkpt>
      <trkpt lat="43.575817" lon="10.974414">
        <ele>54.1</ele>
        <time>2016-07-06T17:45:29Z</time>
        <sat>10</sat>
      </trkpt>
      <trkpt lat="43.575985" lon="10.974306">
        <ele>53.7</ele>
        <time>2016-07-06T17:45:30Z</time>
        <sat>10</sat>
      </trkpt>
      <trkpt lat="43.576148" lon="10.974177">
        <ele>53.3</ele>
        <time>2016-07-06T17:45:31Z</time>
        <sat>10</sat>
      </trkpt>
      <trkpt lat="43.576301" lon="10.974022">
        <ele>52.9</ele>
        <time>2016-07-06T17:45:32Z</time>
        <sat>10</sat>
      </trkpt>
      <trkpt lat="43.576446" lon="10.973853">
        <ele>52.7</ele>
        <time>2016-07-06T17:45:33Z</time>
        <sat>10</sat>
      </trkpt>
      <trkpt lat="43.576590" lon="10.973676">
        <ele>52.7</ele>
        <time>2016-07-06T17:45:34Z</time>
        <sat>10</sat>
      </trkpt>
      <trkpt lat="43.576734" lon="10.973495">
        <ele>52.4</ele>
        <time>2016-07-06T17:45:35Z</time>
        <sat>7</sat>
      </trkpt>
      <trkpt lat="43.576878" lon="10.973316">
        <ele>52.1</ele>
        <time>2016-07-06T17:45:36Z</time>
        <sat>10</sat>
      </trkpt>
      <trkpt lat="43.577019" lon="10.973140">
        <ele>52.0</ele>
        <time>2016-07-06T17:45:37Z</time>
        <sat>10</sat>
      </trkpt>
      <trkpt lat="43.577157" lon="10.972964">
        <ele>51.8</ele>
        <time>2016-07-06T17:45:38Z</time>
        <sat>10</sat>
      </trkpt>
      <trkpt lat="43.577291" lon="10.972790">
        <ele>51.7</ele>
        <time>2016-07-06T17:45:39Z</time>
        <sat>9</sat>
      </trkpt>
      <trkpt lat="43.577423" lon="10.972620">
        <ele>51.4</ele>
        <time>2016-07-06T17:45:40Z</time>
        <sat>10</sat>
      </trkpt>
      <trkpt lat="43.577549" lon="10.972455">
        <ele>51.0</ele>
        <time>2016-07-06T17:45:41Z</time>
        <sat>10</sat>
      </trkpt>
      <trkpt lat="43.577680" lon="10.972297">
        <ele>50.6</ele>
        <time>2016-07-06T17:45:42Z</time>
        <sat>10</sat>
      </trkpt>
      <trkpt lat="43.577821" lon="10.972144">
        <ele>50.0</ele>
        <time>2016-07-06T17:45:43Z</time>
        <sat>10</sat>
      </trkpt>
      <trkpt lat="43.577969" lon="10.971995">
        <ele>49.6</ele>
        <time>2016-07-06T17:45:44Z</time>
        <sat>10</sat>
      </trkpt>
      <trkpt lat="43.578124" lon="10.971852">
        <ele>49.2</ele>
        <time>2016-07-06T17:45:45Z</time>
        <sat>10</sat>
      </trkpt>
      <trkpt lat="43.578282" lon="10.971716">
        <ele>49.0</ele>
        <time>2016-07-06T17:45:46Z</time>
        <sat>10</sat>
      </trkpt>
      <trkpt lat="43.578442" lon="10.971578">
        <ele>48.4</ele>
        <time>2016-07-06T17:45:47Z</time>
        <sat>10</sat>
      </trkpt>
      <trkpt lat="43.578604" lon="10.971437">
        <ele>47.3</ele>
        <time>2016-07-06T17:45:48Z</time>
        <sat>10</sat>
      </trkpt>
      <trkpt lat="43.578770" lon="10.971293">
        <ele>46.0</ele>
        <time>2016-07-06T17:45:49Z</time>
        <sat>10</sat>
      </trkpt>
      <trkpt lat="43.578939" lon="10.971149">
        <ele>44.7</ele>
        <time>2016-07-06T17:45:50Z</time>
        <sat>10</sat>
      </trkpt>
      <trkpt lat="43.579108" lon="10.971008">
        <ele>43.5</ele>
        <time>2016-07-06T17:45:51Z</time>
        <sat>10</sat>
      </trkpt>
      <trkpt lat="43.579278" lon="10.970871">
        <ele>42.4</ele>
        <time>2016-07-06T17:45:52Z</time>
        <sat>10</sat>
      </trkpt>
      <trkpt lat="43.579446" lon="10.970736">
        <ele>40.9</ele>
        <time>2016-07-06T17:45:53Z</time>
        <sat>9</sat>
      </trkpt>
      <trkpt lat="43.579616" lon="10.970605">
        <ele>39.5</ele>
        <time>2016-07-06T17:45:54Z</time>
        <sat>10</sat>
      </trkpt>
      <trkpt lat="43.579784" lon="10.970479">
        <ele>38.2</ele>
        <time>2016-07-06T17:45:55Z</time>
        <sat>9</sat>
      </trkpt>
      <trkpt lat="43.579953" lon="10.970365">
        <ele>36.8</ele>
        <time>2016-07-06T17:45:56Z</time>
        <sat>8</sat>
      </trkpt>
      <trkpt lat="43.580115" lon="10.970255">
        <ele>36.2</ele>
        <time>2016-07-06T17:45:57Z</time>
        <sat>9</sat>
      </trkpt>
      <trkpt lat="43.580284" lon="10.970164">
        <ele>35.4</ele>
        <time>2016-07-06T17:45:58Z</time>
        <sat>10</sat>
      </trkpt>
      <trkpt lat="43.580458" lon="10.970100">
        <ele>35.2</ele>
        <time>2016-07-06T17:45:59Z</time>
        <sat>9</sat>
      </trkpt>
      <trkpt lat="43.580652" lon="10.970066">
        <ele>35.2</ele>
        <time>2016-07-06T17:46:00Z</time>
        <sat>10</sat>
      </trkpt>
      <trkpt lat="43.580861" lon="10.970052">
        <ele>35.4</ele>
        <time>2016-07-06T17:46:01Z</time>
        <sat>10</sat>
      </trkpt>
      <trkpt lat="43.581069" lon="10.970040">
        <ele>35.2</ele>
        <time>2016-07-06T17:46:02Z</time>
        <sat>10</sat>
      </trkpt>
      <trkpt lat="43.581263" lon="10.970031">
        <ele>34.8</ele>
        <time>2016-07-06T17:46:03Z</time>
        <sat>10</sat>
      </trkpt>
      <trkpt lat="43.581447" lon="10.970026">
        <ele>34.0</ele>
        <time>2016-07-06T17:46:04Z</time>
        <sat>10</sat>
      </trkpt>
      <trkpt lat="43.581809" lon="10.970012">
        <ele>32.4</ele>
        <time>2016-07-06T17:46:06Z</time>
        <sat>10</sat>
      </trkpt>
      <trkpt lat="43.581994" lon="10.969998">
        <ele>31.3</ele>
        <time>2016-07-06T17:46:07Z</time>
        <sat>10</sat>
      </trkpt>
      <trkpt lat="43.582181" lon="10.969971">
        <ele>30.2</ele>
        <time>2016-07-06T17:46:08Z</time>
        <sat>10</sat>
      </trkpt>
      <trkpt lat="43.582366" lon="10.969927">
        <ele>29.1</ele>
        <time>2016-07-06T17:46:09Z</time>
        <sat>10</sat>
      </trkpt>
      <trkpt lat="43.582547" lon="10.969872">
        <ele>27.9</ele>
        <time>2016-07-06T17:46:10Z</time>
        <sat>10</sat>
      </trkpt>
      <trkpt lat="43.582724" lon="10.969811">
        <ele>26.8</ele>
        <time>2016-07-06T17:46:11Z</time>
        <sat>10</sat>
      </trkpt>
      <trkpt lat="43.582898" lon="10.969747">
        <ele>25.7</ele>
        <time>2016-07-06T17:46:12Z</time>
        <sat>10</sat>
      </trkpt>
      <trkpt lat="43.583069" lon="10.969685">
        <ele>24.4</ele>
        <time>2016-07-06T17:46:13Z</time>
        <sat>10</sat>
      </trkpt>
      <trkpt lat="43.583238" lon="10.969625">
        <ele>23.0</ele>
        <time>2016-07-06T17:46:14Z</time>
        <sat>10</sat>
      </trkpt>
      <trkpt lat="43.583403" lon="10.969565">
        <ele>21.6</ele>
        <time>2016-07-06T17:46:15Z</time>
        <sat>10</sat>
      </trkpt>
      <trkpt lat="43.583566" lon="10.969510">
        <ele>20.1</ele>
        <time>2016-07-06T17:46:16Z</time>
        <sat>10</sat>
      </trkpt>
      <trkpt lat="43.583727" lon="10.969454">
        <ele>18.5</ele>
        <time>2016-07-06T17:46:17Z</time>
        <sat>10</sat>
      </trkpt>
      <trkpt lat="43.583890" lon="10.969397">
        <ele>17.0</ele>
        <time>2016-07-06T17:46:18Z</time>
        <sat>10</sat>
      </trkpt>
      <trkpt lat="43.584052" lon="10.969335">
        <ele>15.5</ele>
        <time>2016-07-06T17:46:19Z</time>
        <sat>10</sat>
      </trkpt>
      <trkpt lat="43.584213" lon="10.969266">
        <ele>14.1</ele>
        <time>2016-07-06T17:46:20Z</time>
        <sat>10</sat>
      </trkpt>
      <trkpt lat="43.584369" lon="10.969180">
        <ele>12.7</ele>
        <time>2016-07-06T17:46:21Z</time>
        <sat>10</sat>
      </trkpt>
      <trkpt lat="43.584522" lon="10.969069">
        <ele>11.2</ele>
        <time>2016-07-06T17:46:22Z</time>
        <sat>9</sat>
      </trkpt>
      <trkpt lat="43.584671" lon="10.968936">
        <ele>10.0</ele>
        <time>2016-07-06T17:46:23Z</time>
        <sat>10</sat>
      </trkpt>
      <trkpt lat="43.584817" lon="10.968789">
        <ele>9.0</ele>
        <time>2016-07-06T17:46:24Z</time>
        <sat>10</sat>
      </trkpt>
      <trkpt lat="43.584955" lon="10.968641">
        <ele>8.2</ele>
        <time>2016-07-06T17:46:25Z</time>
        <sat>10</sat>
      </trkpt>
      <trkpt lat="43.585079" lon="10.968492">
        <ele>7.6</ele>
        <time>2016-07-06T17:46:26Z</time>
        <sat>10</sat>
      </trkpt>
      <trkpt lat="43.585184" lon="10.968337">
        <ele>7.2</ele>
        <time>2016-07-06T17:46:27Z</time>
        <sat>10</sat>
      </trkpt>
      <trkpt lat="43.585263" lon="10.968177">
        <ele>6.9</ele>
        <time>2016-07-06T17:46:28Z</time>
        <sat>10</sat>
      </trkpt>
      <trkpt lat="43.585321" lon="10.968024">
        <ele>6.7</ele>
        <time>2016-07-06T17:46:29Z</time>
        <sat>10</sat>
      </trkpt>
      <trkpt lat="43.585371" lon="10.967886">
        <ele>6.4</ele>
        <time>2016-07-06T17:46:30Z</time>
        <sat>9</sat>
      </trkpt>
      <trkpt lat="43.585420" lon="10.967772">
        <ele>6.2</ele>
        <time>2016-07-06T17:46:31Z</time>
        <sat>10</sat>
      </trkpt>
      <trkpt lat="43.585523" lon="10.967654">
        <ele>6.0</ele>
        <time>2016-07-06T17:46:33Z</time>
        <sat>10</sat>
      </trkpt>
      <trkpt lat="43.585645" lon="10.967697">
        <ele>6.1</ele>
        <time>2016-07-06T17:46:35Z</time>
        <sat>10</sat>
      </trkpt>
      <trkpt lat="43.585720" lon="10.967776">
        <ele>6.1</ele>
        <time>2016-07-06T17:46:36Z</time>
        <sat>10</sat>
      </trkpt>
      <trkpt lat="43.585806" lon="10.967876">
        <ele>6.0</ele>
        <time>2016-07-06T17:46:37Z</time>
        <sat>10</sat>
      </trkpt>
      <trkpt lat="43.585906" lon="10.967988">
        <ele>6.0</ele>
        <time>2016-07-06T17:46:38Z</time>
        <sat>10</sat>
      </trkpt>
      <trkpt lat="43.586019" lon="10.968113">
        <ele>5.8</ele>
        <time>2016-07-06T17:46:39Z</time>
        <sat>10</sat>
      </trkpt>
      <trkpt lat="43.586147" lon="10.968249">
        <ele>5.7</ele>
        <time>2016-07-06T17:46:40Z</time>
        <sat>10</sat>
      </trkpt>
      <trkpt lat="43.586285" lon="10.968398">
        <ele>5.6</ele>
        <time>2016-07-06T17:46:41Z</time>
        <sat>10</sat>
      </trkpt>
      <trkpt lat="43.586426" lon="10.968557">
        <ele>5.4</ele>
        <time>2016-07-06T17:46:42Z</time>
        <sat>10</sat>
      </trkpt>
      <trkpt lat="43.586568" lon="10.968719">
        <ele>5.2</ele>
        <time>2016-07-06T17:46:43Z</time>
        <sat>10</sat>
      </trkpt>
      <trkpt lat="43.586713" lon="10.968878">
        <ele>4.7</ele>
        <time>2016-07-06T17:46:44Z</time>
        <sat>10</sat>
      </trkpt>
      <trkpt lat="43.586864" lon="10.969033">
        <ele>5.1</ele>
        <time>2016-07-06T17:46:45Z</time>
        <sat>10</sat>
      </trkpt>
      <trkpt lat="43.587011" lon="10.969190">
        <ele>5.1</ele>
        <time>2016-07-06T17:46:46Z</time>
        <sat>10</sat>
      </trkpt>
      <trkpt lat="43.587165" lon="10.969356">
        <ele>5.2</ele>
        <time>2016-07-06T17:46:47Z</time>
        <sat>10</sat>
      </trkpt>
      <trkpt lat="43.587320" lon="10.969541">
        <ele>5.2</ele>
        <time>2016-07-06T17:46:48Z</time>
        <sat>10</sat>
      </trkpt>
      <trkpt lat="43.587484" lon="10.969744">
        <ele>5.3</ele>
        <time>2016-07-06T17:46:49Z</time>
        <sat>10</sat>
      </trkpt>
      <trkpt lat="43.587676" lon="10.969959">
        <ele>5.5</ele>
        <time>2016-07-06T17:46:50Z</time>
        <sat>10</sat>
      </trkpt>
      <trkpt lat="43.587878" lon="10.970166">
        <ele>5.8</ele>
        <time>2016-07-06T17:46:51Z</time>
        <sat>10</sat>
      </trkpt>
      <trkpt lat="43.588063" lon="10.970351">
        <ele>6.3</ele>
        <time>2016-07-06T17:46:52Z</time>
        <sat>10</sat>
      </trkpt>
      <trkpt lat="43.588225" lon="10.970531">
        <ele>6.0</ele>
        <time>2016-07-06T17:46:53Z</time>
        <sat>10</sat>
      </trkpt>
      <trkpt lat="43.588377" lon="10.970700">
        <ele>6.2</ele>
        <time>2016-07-06T17:46:54Z</time>
        <sat>10</sat>
      </trkpt>
      <trkpt lat="43.588525" lon="10.970857">
        <ele>5.7</ele>
        <time>2016-07-06T17:46:55Z</time>
        <sat>10</sat>
      </trkpt>
      <trkpt lat="43.588672" lon="10.971006">
        <ele>5.6</ele>
        <time>2016-07-06T17:46:56Z</time>
        <sat>10</sat>
      </trkpt>
      <trkpt lat="43.588818" lon="10.971153">
        <ele>5.4</ele>
        <time>2016-07-06T17:46:57Z</time>
        <sat>10</sat>
      </trkpt>
      <trkpt lat="43.588970" lon="10.971293">
        <ele>5.1</ele>
        <time>2016-07-06T17:46:58Z</time>
        <sat>10</sat>
      </trkpt>
      <trkpt lat="43.589127" lon="10.971422">
        <ele>4.8</ele>
        <time>2016-07-06T17:46:59Z</time>
        <sat>10</sat>
      </trkpt>
      <trkpt lat="43.589291" lon="10.971534">
        <ele>4.6</ele>
        <time>2016-07-06T17:47:00Z</time>
        <sat>10</sat>
      </trkpt>
      <trkpt lat="43.589460" lon="10.971636">
        <ele>4.4</ele>
        <time>2016-07-06T17:47:01Z</time>
        <sat>10</sat>
      </trkpt>
      <trkpt lat="43.589641" lon="10.971730">
        <ele>4.2</ele>
        <time>2016-07-06T17:47:02Z</time>
        <sat>10</sat>
      </trkpt>
      <trkpt lat="43.589822" lon="10.971815">
        <ele>4.0</ele>
        <time>2016-07-06T17:47:03Z</time>
        <sat>10</sat>
      </trkpt>
      <trkpt lat="43.590002" lon="10.971894">
        <ele>3.8</ele>
        <time>2016-07-06T17:47:04Z</time>
        <sat>10</sat>
      </trkpt>
      <trkpt lat="43.590187" lon="10.971960">
        <ele>3.8</ele>
        <time>2016-07-06T17:47:05Z</time>
        <sat>10</sat>
      </trkpt>
      <trkpt lat="43.590549" lon="10.972052">
        <ele>3.1</ele>
        <time>2016-07-06T17:47:07Z</time>
        <sat>10</sat>
      </trkpt>
      <trkpt lat="43.590730" lon="10.972087">
        <ele>2.9</ele>
        <time>2016-07-06T17:47:08Z</time>
        <sat>10</sat>
      </trkpt>
      <trkpt lat="43.590908" lon="10.972118">
        <ele>2.8</ele>
        <time>2016-07-06T17:47:09Z</time>
        <sat>10</sat>
      </trkpt>
      <trkpt lat="43.591082" lon="10.972154">
        <ele>3.0</ele>
        <time>2016-07-06T17:47:10Z</time>
        <sat>10</sat>
      </trkpt>
      <trkpt lat="43.591248" lon="10.972191">
        <ele>3.0</ele>
        <time>2016-07-06T17:47:11Z</time>
        <sat>10</sat>
      </trkpt>
      <trkpt lat="43.591404" lon="10.972224">
        <ele>2.9</ele>
        <time>2016-07-06T17:47:12Z</time>
        <sat>10</sat>
      </trkpt>
      <trkpt lat="43.591563" lon="10.972249">
        <ele>3.2</ele>
        <time>2016-07-06T17:47:13Z</time>
        <sat>10</sat>
      </trkpt>
      <trkpt lat="43.591721" lon="10.972267">
        <ele>3.4</ele>
        <time>2016-07-06T17:47:14Z</time>
        <sat>10</sat>
      </trkpt>
      <trkpt lat="43.591869" lon="10.972279">
        <ele>3.5</ele>
        <time>2016-07-06T17:47:15Z</time>
        <sat>10</sat>
      </trkpt>
      <trkpt lat="43.592006" lon="10.972293">
        <ele>3.6</ele>
        <time>2016-07-06T17:47:16Z</time>
        <sat>10</sat>
      </trkpt>
      <trkpt lat="43.592139" lon="10.972311">
        <ele>3.8</ele>
        <time>2016-07-06T17:47:17Z</time>
        <sat>10</sat>
      </trkpt>
      <trkpt lat="43.592269" lon="10.972331">
        <ele>3.7</ele>
        <time>2016-07-06T17:47:18Z</time>
        <sat>10</sat>
      </trkpt>
      <trkpt lat="43.592392" lon="10.972349">
        <ele>3.7</ele>
        <time>2016-07-06T17:47:19Z</time>
        <sat>10</sat>
      </trkpt>
      <trkpt lat="43.592500" lon="10.972368">
        <ele>3.7</ele>
        <time>2016-07-06T17:47:20Z</time>
        <sat>10</sat>
      </trkpt>
      <trkpt lat="43.592596" lon="10.972404">
        <ele>3.9</ele>
        <time>2016-07-06T17:47:21Z</time>
        <sat>10</sat>
      </trkpt>
      <trkpt lat="43.592688" lon="10.972458">
        <ele>3.9</ele>
        <time>2016-07-06T17:47:22Z</time>
        <sat>10</sat>
      </trkpt>
      <trkpt lat="43.592775" lon="10.972505">
        <ele>3.8</ele>
        <time>2016-07-06T17:47:23Z</time>
        <sat>10</sat>
      </trkpt>
      <trkpt lat="43.592937" lon="10.972504">
        <ele>3.3</ele>
        <time>2016-07-06T17:47:25Z</time>
        <sat>10</sat>
      </trkpt>
      <trkpt lat="43.593035" lon="10.972379">
        <ele>3.0</ele>
        <time>2016-07-06T17:47:27Z</time>
        <sat>10</sat>
      </trkpt>
      <trkpt lat="43.593022" lon="10.972210">
        <ele>2.9</ele>
        <time>2016-07-06T17:47:29Z</time>
        <sat>10</sat>
      </trkpt>
      <trkpt lat="43.592912" lon="10.972095">
        <ele>3.0</ele>
        <time>2016-07-06T17:47:31Z</time>
        <sat>10</sat>
      </trkpt>
      <trkpt lat="43.592770" lon="10.972137">
        <ele>3.4</ele>
        <time>2016-07-06T17:47:33Z</time>
        <sat>10</sat>
      </trkpt>
      <trkpt lat="43.592712" lon="10.972340">
        <ele>3.4</ele>
        <time>2016-07-06T17:47:35Z</time>
        <sat>10</sat>
      </trkpt>
      <trkpt lat="43.592718" lon="10.972471">
        <ele>4.0</ele>
        <time>2016-07-06T17:47:36Z</time>
        <sat>10</sat>
      </trkpt>
      <trkpt lat="43.592739" lon="10.972616">
        <ele>3.8</ele>
        <time>2016-07-06T17:47:37Z</time>
        <sat>10</sat>
      </trkpt>
      <trkpt lat="43.592757" lon="10.972797">
        <ele>3.2</ele>
        <time>2016-07-06T17:47:38Z</time>
        <sat>10</sat>
      </trkpt>
      <trkpt lat="43.592751" lon="10.973021">
        <ele>2.8</ele>
        <time>2016-07-06T17:47:39Z</time>
        <sat>10</sat>
      </trkpt>
      <trkpt lat="43.592720" lon="10.973274">
        <ele>2.8</ele>
        <time>2016-07-06T17:47:40Z</time>
        <sat>10</sat>
      </trkpt>
      <trkpt lat="43.592681" lon="10.973532">
        <ele>2.7</ele>
        <time>2016-07-06T17:47:41Z</time>
        <sat>10</sat>
      </trkpt>
      <trkpt lat="43.592641" lon="10.973787">
        <ele>2.5</ele>
        <time>2016-07-06T17:47:42Z</time>
        <sat>10</sat>
      </trkpt>
      <trkpt lat="43.592602" lon="10.974037">
        <ele>2.4</ele>
        <time>2016-07-06T17:47:43Z</time>
        <sat>10</sat>
      </trkpt>
      <trkpt lat="43.592559" lon="10.974280">
        <ele>2.4</ele>
        <time>2016-07-06T17:47:44Z</time>
        <sat>10</sat>
      </trkpt>
      <trkpt lat="43.592511" lon="10.974527">
        <ele>2.4</ele>
        <time>2016-07-06T17:47:45Z</time>
        <sat>10</sat>
      </trkpt>
      <trkpt lat="43.592464" lon="10.974776">
        <ele>2.3</ele>
        <time>2016-07-06T17:47:46Z</time>
        <sat>9</sat>
      </trkpt>
      <trkpt lat="43.592425" lon="10.975012">
        <ele>2.4</ele>
        <time>2016-07-06T17:47:47Z</time>
        <sat>10</sat>
      </trkpt>
      <trkpt lat="43.592401" lon="10.975244">
        <ele>2.4</ele>
        <time>2016-07-06T17:47:48Z</time>
        <sat>10</sat>
      </trkpt>
      <trkpt lat="43.592392" lon="10.975484">
        <ele>2.4</ele>
        <time>2016-07-06T17:47:49Z</time>
        <sat>10</sat>
      </trkpt>
      <trkpt lat="43.592402" lon="10.975728">
        <ele>2.9</ele>
        <time>2016-07-06T17:47:50Z</time>
        <sat>10</sat>
      </trkpt>
      <trkpt lat="43.592424" lon="10.975979">
        <ele>4.9</ele>
        <time>2016-07-06T17:47:51Z</time>
        <sat>10</sat>
      </trkpt>
      <trkpt lat="43.592451" lon="10.976228">
        <ele>5.2</ele>
        <time>2016-07-06T17:47:52Z</time>
        <sat>10</sat>
      </trkpt>
      <trkpt lat="43.592485" lon="10.976463">
        <ele>6.1</ele>
        <time>2016-07-06T17:47:53Z</time>
        <sat>10</sat>
      </trkpt>
      <trkpt lat="43.592518" lon="10.976689">
        <ele>6.8</ele>
        <time>2016-07-06T17:47:54Z</time>
        <sat>10</sat>
      </trkpt>
      <trkpt lat="43.592550" lon="10.976928">
        <ele>7.2</ele>
        <time>2016-07-06T17:47:55Z</time>
        <sat>10</sat>
      </trkpt>
      <trkpt lat="43.592591" lon="10.977197">
        <ele>6.9</ele>
        <time>2016-07-06T17:47:56Z</time>
        <sat>10</sat>
      </trkpt>
      <trkpt lat="43.592637" lon="10.977500">
        <ele>6.5</ele>
        <time>2016-07-06T17:47:57Z</time>
        <sat>10</sat>
      </trkpt>
      <trkpt lat="43.592678" lon="10.977808">
        <ele>6.5</ele>
        <time>2016-07-06T17:47:58Z</time>
        <sat>10</sat>
      </trkpt>
      <trkpt lat="43.592720" lon="10.978098">
        <ele>6.3</ele>
        <time>2016-07-06T17:47:59Z</time>
        <sat>10</sat>
      </trkpt>
      <trkpt lat="43.592765" lon="10.978370">
        <ele>5.8</ele>
        <time>2016-07-06T17:48:00Z</time>
        <sat>10</sat>
      </trkpt>
      <trkpt lat="43.592806" lon="10.978633">
        <ele>5.0</ele>
        <time>2016-07-06T17:48:01Z</time>
        <sat>10</sat>
      </trkpt>
      <trkpt lat="43.592846" lon="10.978885">
        <ele>4.6</ele>
        <time>2016-07-06T17:48:02Z</time>
        <sat>10</sat>
      </trkpt>
      <trkpt lat="43.592884" lon="10.979130">
        <ele>4.6</ele>
        <time>2016-07-06T17:48:03Z</time>
        <sat>10</sat>
      </trkpt>
      <trkpt lat="43.592918" lon="10.979366">
        <ele>5.2</ele>
        <time>2016-07-06T17:48:04Z</time>
        <sat>10</sat>
      </trkpt>
      <trkpt lat="43.592954" lon="10.979590">
        <ele>6.0</ele>
        <time>2016-07-06T17:48:05Z</time>
        <sat>9</sat>
      </trkpt>
      <trkpt lat="43.592987" lon="10.979811">
        <ele>9.2</ele>
        <time>2016-07-06T17:48:06Z</time>
        <sat>10</sat>
      </trkpt>
      <trkpt lat="43.593057" lon="10.980243">
        <ele>10.9</ele>
        <time>2016-07-06T17:48:08Z</time>
        <sat>10</sat>
      </trkpt>
      <trkpt lat="43.593091" lon="10.980452">
        <ele>11.5</ele>
        <time>2016-07-06T17:48:09Z</time>
        <sat>10</sat>
      </trkpt>
      <trkpt lat="43.593122" lon="10.980656">
        <ele>11.8</ele>
        <time>2016-07-06T17:48:10Z</time>
        <sat>10</sat>
      </trkpt>
      <trkpt lat="43.593146" lon="10.980857">
        <ele>11.0</ele>
        <time>2016-07-06T17:48:11Z</time>
        <sat>10</sat>
      </trkpt>
      <trkpt lat="43.593160" lon="10.981056">
        <ele>9.6</ele>
        <time>2016-07-06T17:48:12Z</time>
        <sat>10</sat>
      </trkpt>
      <trkpt lat="43.593153" lon="10.981255">
        <ele>8.3</ele>
        <time>2016-07-06T17:48:13Z</time>
        <sat>10</sat>
      </trkpt>
      <trkpt lat="43.593116" lon="10.981461">
        <ele>6.6</ele>
        <time>2016-07-06T17:48:14Z</time>
        <sat>10</sat>
      </trkpt>
      <trkpt lat="43.593048" lon="10.981663">
        <ele>5.2</ele>
        <time>2016-07-06T17:48:15Z</time>
        <sat>10</sat>
      </trkpt>
      <trkpt lat="43.592958" lon="10.981844">
        <ele>4.1</ele>
        <time>2016-07-06T17:48:16Z</time>
        <sat>10</sat>
      </trkpt>
      <trkpt lat="43.592859" lon="10.982000">
        <ele>3.1</ele>
        <time>2016-07-06T17:48:17Z</time>
        <sat>10</sat>
      </trkpt>
      <trkpt lat="43.592763" lon="10.982139">
        <ele>2.4</ele>
        <time>2016-07-06T17:48:18Z</time>
        <sat>10</sat>
      </trkpt>
      <trkpt lat="43.592677" lon="10.982265">
        <ele>1.9</ele>
        <time>2016-07-06T17:48:19Z</time>
        <sat>10</sat>
      </trkpt>
      <trkpt lat="43.592597" lon="10.982382">
        <ele>1.3</ele>
        <time>2016-07-06T17:48:20Z</time>
        <sat>10</sat>
      </trkpt>
      <trkpt lat="43.592521" lon="10.982491">
        <ele>0.9</ele>
        <time>2016-07-06T17:48:21Z</time>
        <sat>10</sat>
      </trkpt>
      <trkpt lat="43.592447" lon="10.982596">
        <ele>0.3</ele>
        <time>2016-07-06T17:48:22Z</time>
        <sat>10</sat>
      </trkpt>
      <trkpt lat="43.592372" lon="10.982701">
        <ele>0.1</ele>
        <time>2016-07-06T17:48:23Z</time>
        <sat>10</sat>
      </trkpt>
      <trkpt lat="43.592299" lon="10.982816">
        <ele>1.2</ele>
        <time>2016-07-06T17:48:24Z</time>
        <sat>10</sat>
      </trkpt>
      <trkpt lat="43.592251" lon="10.982941">
        <ele>1.3</ele>
        <time>2016-07-06T17:48:25Z</time>
        <sat>10</sat>
      </trkpt>
      <trkpt lat="43.592232" lon="10.983081">
        <ele>0.6</ele>
        <time>2016-07-06T17:48:26Z</time>
        <sat>10</sat>
      </trkpt>
      <trkpt lat="43.592237" lon="10.983226">
        <ele>0.8</ele>
        <time>2016-07-06T17:48:27Z</time>
        <sat>10</sat>
      </trkpt>
      <trkpt lat="43.592265" lon="10.983373">
        <ele>0.7</ele>
        <time>2016-07-06T17:48:28Z</time>
        <sat>10</sat>
      </trkpt>
      <trkpt lat="43.592288" lon="10.983512">
        <ele>0.4</ele>
        <time>2016-07-06T17:48:29Z</time>
        <sat>10</sat>
      </trkpt>
      <trkpt lat="43.592283" lon="10.983639">
        <ele>-0.1</ele>
        <time>2016-07-06T17:48:30Z</time>
        <sat>10</sat>
      </trkpt>
      <trkpt lat="43.592249" lon="10.983765">
        <ele>-0.2</ele>
        <time>2016-07-06T17:48:31Z</time>
        <sat>10</sat>
      </trkpt>
      <trkpt lat="43.592190" lon="10.983892">
        <ele>-0.1</ele>
        <time>2016-07-06T17:48:32Z</time>
        <sat>10</sat>
      </trkpt>
      <trkpt lat="43.592116" lon="10.984020">
        <ele>-0.1</ele>
        <time>2016-07-06T17:48:33Z</time>
        <sat>10</sat>
      </trkpt>
      <trkpt lat="43.592041" lon="10.984148">
        <ele>-0.0</ele>
        <time>2016-07-06T17:48:34Z</time>
        <sat>10</sat>
      </trkpt>
      <trkpt lat="43.591971" lon="10.984266">
        <ele>0.2</ele>
        <time>2016-07-06T17:48:35Z</time>
        <sat>10</sat>
      </trkpt>
      <trkpt lat="43.591902" lon="10.984381">
        <ele>0.4</ele>
        <time>2016-07-06T17:48:36Z</time>
        <sat>10</sat>
      </trkpt>
      <trkpt lat="43.591832" lon="10.984499">
        <ele>0.7</ele>
        <time>2016-07-06T17:48:37Z</time>
        <sat>10</sat>
      </trkpt>
      <trkpt lat="43.591762" lon="10.984622">
        <ele>0.9</ele>
        <time>2016-07-06T17:48:38Z</time>
        <sat>10</sat>
      </trkpt>
      <trkpt lat="43.591690" lon="10.984752">
        <ele>1.0</ele>
        <time>2016-07-06T17:48:39Z</time>
        <sat>10</sat>
      </trkpt>
      <trkpt lat="43.591612" lon="10.984890">
        <ele>1.0</ele>
        <time>2016-07-06T17:48:40Z</time>
        <sat>10</sat>
      </trkpt>
      <trkpt lat="43.591524" lon="10.985038">
        <ele>1.1</ele>
        <time>2016-07-06T17:48:41Z</time>
        <sat>10</sat>
      </trkpt>
      <trkpt lat="43.591428" lon="10.985199">
        <ele>1.2</ele>
        <time>2016-07-06T17:48:42Z</time>
        <sat>10</sat>
      </trkpt>
      <trkpt lat="43.591322" lon="10.985374">
        <ele>1.2</ele>
        <time>2016-07-06T17:48:43Z</time>
        <sat>10</sat>
      </trkpt>
      <trkpt lat="43.591213" lon="10.985559">
        <ele>1.4</ele>
        <time>2016-07-06T17:48:44Z</time>
        <sat>10</sat>
      </trkpt>
      <trkpt lat="43.591102" lon="10.985750">
        <ele>2.2</ele>
        <time>2016-07-06T17:48:45Z</time>
        <sat>10</sat>
      </trkpt>
      <trkpt lat="43.590994" lon="10.985938">
        <ele>2.8</ele>
        <time>2016-07-06T17:48:46Z</time>
        <sat>10</sat>
      </trkpt>
      <trkpt lat="43.590892" lon="10.986114">
        <ele>3.4</ele>
        <time>2016-07-06T17:48:47Z</time>
        <sat>10</sat>
      </trkpt>
      <trkpt lat="43.590795" lon="10.986286">
        <ele>3.9</ele>
        <time>2016-07-06T17:48:48Z</time>
        <sat>10</sat>
      </trkpt>
      <trkpt lat="43.590700" lon="10.986456">
        <ele>4.1</ele>
        <time>2016-07-06T17:48:49Z</time>
        <sat>10</sat>
      </trkpt>
      <trkpt lat="43.590604" lon="10.986627">
        <ele>4.1</ele>
        <time>2016-07-06T17:48:50Z</time>
        <sat>10</sat>
      </trkpt>
      <trkpt lat="43.590504" lon="10.986803">
        <ele>4.1</ele>
        <time>2016-07-06T17:48:51Z</time>
        <sat>10</sat>
      </trkpt>
      <trkpt lat="43.590400" lon="10.986984">
        <ele>3.8</ele>
        <time>2016-07-06T17:48:52Z</time>
        <sat>10</sat>
      </trkpt>
      <trkpt lat="43.590293" lon="10.987169">
        <ele>3.5</ele>
        <time>2016-07-06T17:48:53Z</time>
        <sat>10</sat>
      </trkpt>
      <trkpt lat="43.590182" lon="10.987358">
        <ele>3.2</ele>
        <time>2016-07-06T17:48:54Z</time>
        <sat>10</sat>
      </trkpt>
      <trkpt lat="43.590075" lon="10.987550">
        <ele>3.4</ele>
        <time>2016-07-06T17:48:55Z</time>
        <sat>10</sat>
      </trkpt>
      <trkpt lat="43.589971" lon="10.987741">
        <ele>4.2</ele>
        <time>2016-07-06T17:48:56Z</time>
        <sat>10</sat>
      </trkpt>
      <trkpt lat="43.589868" lon="10.987927">
        <ele>4.4</ele>
        <time>2016-07-06T17:48:57Z</time>
        <sat>10</sat>
      </trkpt>
      <trkpt lat="43.589763" lon="10.988110">
        <ele>4.7</ele>
        <time>2016-07-06T17:48:58Z</time>
        <sat>10</sat>
      </trkpt>
      <trkpt lat="43.589656" lon="10.988295">
        <ele>3.8</ele>
        <time>2016-07-06T17:48:59Z</time>
        <sat>10</sat>
      </trkpt>
      <trkpt lat="43.589546" lon="10.988490">
        <ele>3.7</ele>
        <time>2016-07-06T17:49:00Z</time>
        <sat>10</sat>
      </trkpt>
      <trkpt lat="43.589432" lon="10.988684">
        <ele>3.7</ele>
        <time>2016-07-06T17:49:01Z</time>
        <sat>10</sat>
      </trkpt>
      <trkpt lat="43.589322" lon="10.988874">
        <ele>3.7</ele>
        <time>2016-07-06T17:49:02Z</time>
        <sat>10</sat>
      </trkpt>
      <trkpt lat="43.589214" lon="10.989060">
        <ele>3.7</ele>
        <time>2016-07-06T17:49:03Z</time>
        <sat>10</sat>
      </trkpt>
      <trkpt lat="43.589105" lon="10.989246">
        <ele>3.2</ele>
        <time>2016-07-06T17:49:04Z</time>
        <sat>10</sat>
      </trkpt>
      <trkpt lat="43.588994" lon="10.989434">
        <ele>3.3</ele>
        <time>2016-07-06T17:49:05Z</time>
        <sat>10</sat>
      </trkpt>
      <trkpt lat="43.588881" lon="10.989624">
        <ele>3.1</ele>
        <time>2016-07-06T17:49:06Z</time>
        <sat>10</sat>
      </trkpt>
      <trkpt lat="43.588766" lon="10.989826">
        <ele>3.1</ele>
        <time>2016-07-06T17:49:07Z</time>
        <sat>10</sat>
      </trkpt>
      <trkpt lat="43.588553" lon="10.990228">
        <ele>3.3</ele>
        <time>2016-07-06T17:49:09Z</time>
        <sat>10</sat>
      </trkpt>
      <trkpt lat="43.588457" lon="10.990410">
        <ele>3.3</ele>
        <time>2016-07-06T17:49:10Z</time>
        <sat>10</sat>
      </trkpt>
      <trkpt lat="43.588365" lon="10.990583">
        <ele>3.3</ele>
        <time>2016-07-06T17:49:11Z</time>
        <sat>10</sat>
      </trkpt>
      <trkpt lat="43.588270" lon="10.990751">
        <ele>3.6</ele>
        <time>2016-07-06T17:49:12Z</time>
        <sat>10</sat>
      </trkpt>
      <trkpt lat="43.588178" lon="10.990915">
        <ele>3.4</ele>
        <time>2016-07-06T17:49:13Z</time>
        <sat>10</sat>
      </trkpt>
      <trkpt lat="43.588083" lon="10.991080">
        <ele>3.3</ele>
        <time>2016-07-06T17:49:14Z</time>
        <sat>10</sat>
      </trkpt>
      <trkpt lat="43.587987" lon="10.991247">
        <ele>3.2</ele>
        <time>2016-07-06T17:49:15Z</time>
        <sat>10</sat>
      </trkpt>
      <trkpt lat="43.587890" lon="10.991416">
        <ele>3.3</ele>
        <time>2016-07-06T17:49:16Z</time>
        <sat>10</sat>
      </trkpt>
      <trkpt lat="43.587792" lon="10.991588">
        <ele>3.2</ele>
        <time>2016-07-06T17:49:17Z</time>
        <sat>10</sat>
      </trkpt>
      <trkpt lat="43.587697" lon="10.991762">
        <ele>3.3</ele>
        <time>2016-07-06T17:49:18Z</time>
        <sat>10</sat>
      </trkpt>
      <trkpt lat="43.587603" lon="10.991934">
        <ele>3.3</ele>
        <time>2016-07-06T17:49:19Z</time>
        <sat>10</sat>
      </trkpt>
      <trkpt lat="43.587510" lon="10.992100">
        <ele>3.4</ele>
        <time>2016-07-06T17:49:20Z</time>
        <sat>10</sat>
      </trkpt>
      <trkpt lat="43.587418" lon="10.992263">
        <ele>3.7</ele>
        <time>2016-07-06T17:49:21Z</time>
        <sat>10</sat>
      </trkpt>
      <trkpt lat="43.587325" lon="10.992424">
        <ele>3.6</ele>
        <time>2016-07-06T17:49:22Z</time>
        <sat>9</sat>
      </trkpt>
      <trkpt lat="43.587234" lon="10.992589">
        <ele>3.8</ele>
        <time>2016-07-06T17:49:23Z</time>
        <sat>10</sat>
      </trkpt>
      <trkpt lat="43.587143" lon="10.992754">
        <ele>3.9</ele>
        <time>2016-07-06T17:49:24Z</time>
        <sat>10</sat>
      </trkpt>
      <trkpt lat="43.587053" lon="10.992913">
        <ele>4.0</ele>
        <time>2016-07-06T17:49:25Z</time>
        <sat>10</sat>
      </trkpt>
      <trkpt lat="43.586962" lon="10.993073">
        <ele>3.5</ele>
        <time>2016-07-06T17:49:26Z</time>
        <sat>9</sat>
      </trkpt>
      <trkpt lat="43.586872" lon="10.993233">
        <ele>3.1</ele>
        <time>2016-07-06T17:49:27Z</time>
        <sat>10</sat>
      </trkpt>
      <trkpt lat="43.586780" lon="10.993397">
        <ele>2.9</ele>
        <time>2016-07-06T17:49:28Z</time>
        <sat>9</sat>
      </trkpt>
      <trkpt lat="43.586685" lon="10.993560">
        <ele>2.9</ele>
        <time>2016-07-06T17:49:29Z</time>
        <sat>10</sat>
      </trkpt>
      <trkpt lat="43.586590" lon="10.993730">
        <ele>3.0</ele>
        <time>2016-07-06T17:49:30Z</time>
        <sat>10</sat>
      </trkpt>
      <trkpt lat="43.586496" lon="10.993905">
        <ele>3.2</ele>
        <time>2016-07-06T17:49:31Z</time>
        <sat>10</sat>
      </trkpt>
      <trkpt lat="43.586403" lon="10.994082">
        <ele>3.5</ele>
        <time>2016-07-06T17:49:32Z</time>
        <sat>10</sat>
      </trkpt>
      <trkpt lat="43.586306" lon="10.994253">
        <ele>3.3</ele>
        <time>2016-07-06T17:49:33Z</time>
        <sat>10</sat>
      </trkpt>
      <trkpt lat="43.586208" lon="10.994422">
        <ele>3.0</ele>
        <time>2016-07-06T17:49:34Z</time>
        <sat>10</sat>
      </trkpt>
      <trkpt lat="43.586106" lon="10.994603">
        <ele>3.4</ele>
        <time>2016-07-06T17:49:35Z</time>
        <sat>10</sat>
      </trkpt>
      <trkpt lat="43.586009" lon="10.994783">
        <ele>2.0</ele>
        <time>2016-07-06T17:49:36Z</time>
        <sat>10</sat>
      </trkpt>
      <trkpt lat="43.585908" lon="10.994968">
        <ele>2.6</ele>
        <time>2016-07-06T17:49:37Z</time>
        <sat>10</sat>
      </trkpt>
      <trkpt lat="43.585806" lon="10.995154">
        <ele>2.6</ele>
        <time>2016-07-06T17:49:38Z</time>
        <sat>10</sat>
      </trkpt>
      <trkpt lat="43.585703" lon="10.995347">
        <ele>2.8</ele>
        <time>2016-07-06T17:49:39Z</time>
        <sat>10</sat>
      </trkpt>
      <trkpt lat="43.585592" lon="10.995537">
        <ele>3.6</ele>
        <time>2016-07-06T17:49:40Z</time>
        <sat>10</sat>
      </trkpt>
      <trkpt lat="43.585475" lon="10.995731">
        <ele>3.8</ele>
        <time>2016-07-06T17:49:41Z</time>
        <sat>10</sat>
      </trkpt>
      <trkpt lat="43.585355" lon="10.995937">
        <ele>2.6</ele>
        <time>2016-07-06T17:49:42Z</time>
        <sat>10</sat>
      </trkpt>
      <trkpt lat="43.585233" lon="10.996143">
        <ele>2.4</ele>
        <time>2016-07-06T17:49:43Z</time>
        <sat>10</sat>
      </trkpt>
      <trkpt lat="43.585116" lon="10.996349">
        <ele>2.6</ele>
        <time>2016-07-06T17:49:44Z</time>
        <sat>10</sat>
      </trkpt>
      <trkpt lat="43.585003" lon="10.996542">
        <ele>2.8</ele>
        <time>2016-07-06T17:49:45Z</time>
        <sat>10</sat>
      </trkpt>
      <trkpt lat="43.584898" lon="10.996728">
        <ele>2.8</ele>
        <time>2016-07-06T17:49:46Z</time>
        <sat>10</sat>
      </trkpt>
      <trkpt lat="43.584797" lon="10.996908">
        <ele>2.8</ele>
        <time>2016-07-06T17:49:47Z</time>
        <sat>10</sat>
      </trkpt>
      <trkpt lat="43.584700" lon="10.997082">
        <ele>2.7</ele>
        <time>2016-07-06T17:49:48Z</time>
        <sat>9</sat>
      </trkpt>
      <trkpt lat="43.584602" lon="10.997255">
        <ele>2.7</ele>
        <time>2016-07-06T17:49:49Z</time>
        <sat>10</sat>
      </trkpt>
      <trkpt lat="43.584507" lon="10.997428">
        <ele>3.0</ele>
        <time>2016-07-06T17:49:50Z</time>
        <sat>9</sat>
      </trkpt>
      <trkpt lat="43.584414" lon="10.997601">
        <ele>3.5</ele>
        <time>2016-07-06T17:49:51Z</time>
        <sat>10</sat>
      </trkpt>
      <trkpt lat="43.584322" lon="10.997771">
        <ele>3.9</ele>
        <time>2016-07-06T17:49:52Z</time>
        <sat>10</sat>
      </trkpt>
      <trkpt lat="43.584230" lon="10.997940">
        <ele>4.2</ele>
        <time>2016-07-06T17:49:53Z</time>
        <sat>10</sat>
      </trkpt>
      <trkpt lat="43.584135" lon="10.998112">
        <ele>4.2</ele>
        <time>2016-07-06T17:49:54Z</time>
        <sat>10</sat>
      </trkpt>
      <trkpt lat="43.584036" lon="10.998289">
        <ele>4.1</ele>
        <time>2016-07-06T17:49:55Z</time>
        <sat>10</sat>
      </trkpt>
      <trkpt lat="43.583934" lon="10.998467">
        <ele>4.1</ele>
        <time>2016-07-06T17:49:56Z</time>
        <sat>10</sat>
      </trkpt>
      <trkpt lat="43.583834" lon="10.998643">
        <ele>4.0</ele>
        <time>2016-07-06T17:49:57Z</time>
        <sat>10</sat>
      </trkpt>
      <trkpt lat="43.583735" lon="10.998817">
        <ele>4.2</ele>
        <time>2016-07-06T17:49:58Z</time>
        <sat>10</sat>
      </trkpt>
      <trkpt lat="43.583637" lon="10.998988">
        <ele>4.2</ele>
        <time>2016-07-06T17:49:59Z</time>
        <sat>10</sat>
      </trkpt>
      <trkpt lat="43.583544" lon="10.999155">
        <ele>4.4</ele>
        <time>2016-07-06T17:50:00Z</time>
        <sat>10</sat>
      </trkpt>
      <trkpt lat="43.583452" lon="10.999318">
        <ele>4.6</ele>
        <time>2016-07-06T17:50:01Z</time>
        <sat>10</sat>
      </trkpt>
      <trkpt lat="43.583363" lon="10.999474">
        <ele>4.7</ele>
        <time>2016-07-06T17:50:02Z</time>
        <sat>10</sat>
      </trkpt>
      <trkpt lat="43.583279" lon="10.999624">
        <ele>4.7</ele>
        <time>2016-07-06T17:50:03Z</time>
        <sat>10</sat>
      </trkpt>
      <trkpt lat="43.583193" lon="10.999777">
        <ele>4.8</ele>
        <time>2016-07-06T17:50:04Z</time>
        <sat>10</sat>
      </trkpt>
      <trkpt lat="43.583106" lon="10.999936">
        <ele>4.9</ele>
        <time>2016-07-06T17:50:05Z</time>
        <sat>10</sat>
      </trkpt>
      <trkpt lat="43.583019" lon="11.000094">
        <ele>5.1</ele>
        <time>2016-07-06T17:50:06Z</time>
        <sat>10</sat>
      </trkpt>
      <trkpt lat="43.582930" lon="11.000254">
        <ele>5.3</ele>
        <time>2016-07-06T17:50:07Z</time>
        <sat>10</sat>
      </trkpt>
      <trkpt lat="43.582840" lon="11.000415">
        <ele>5.5</ele>
        <time>2016-07-06T17:50:08Z</time>
        <sat>10</sat>
      </trkpt>
      <trkpt lat="43.582665" lon="11.000727">
        <ele>5.7</ele>
        <time>2016-07-06T17:50:10Z</time>
        <sat>10</sat>
      </trkpt>
      <trkpt lat="43.582582" lon="11.000869">
        <ele>5.7</ele>
        <time>2016-07-06T17:50:11Z</time>
        <sat>9</sat>
      </trkpt>
      <trkpt lat="43.582501" lon="11.001010">
        <ele>5.7</ele>
        <time>2016-07-06T17:50:12Z</time>
        <sat>9</sat>
      </trkpt>
      <trkpt lat="43.582422" lon="11.001149">
        <ele>5.7</ele>
        <time>2016-07-06T17:50:13Z</time>
        <sat>10</sat>
      </trkpt>
      <trkpt lat="43.582345" lon="11.001282">
        <ele>5.7</ele>
        <time>2016-07-06T17:50:14Z</time>
        <sat>10</sat>
      </trkpt>
      <trkpt lat="43.582271" lon="11.001411">
        <ele>5.7</ele>
        <time>2016-07-06T17:50:15Z</time>
        <sat>10</sat>
      </trkpt>
      <trkpt lat="43.582196" lon="11.001544">
        <ele>5.6</ele>
        <time>2016-07-06T17:50:16Z</time>
        <sat>9</sat>
      </trkpt>
      <trkpt lat="43.582120" lon="11.001682">
        <ele>5.5</ele>
        <time>2016-07-06T17:50:17Z</time>
        <sat>8</sat>
      </trkpt>
      <trkpt lat="43.582043" lon="11.001822">
        <ele>5.4</ele>
        <time>2016-07-06T17:50:18Z</time>
        <sat>9</sat>
      </trkpt>
      <trkpt lat="43.581965" lon="11.001961">
        <ele>5.4</ele>
        <time>2016-07-06T17:50:19Z</time>
        <sat>10</sat>
      </trkpt>
      <trkpt lat="43.581886" lon="11.002099">
        <ele>5.4</ele>
        <time>2016-07-06T17:50:20Z</time>
        <sat>10</sat>
      </trkpt>
      <trkpt lat="43.581804" lon="11.002241">
        <ele>5.4</ele>
        <time>2016-07-06T17:50:21Z</time>
        <sat>10</sat>
      </trkpt>
      <trkpt lat="43.581720" lon="11.002391">
        <ele>5.3</ele>
        <time>2016-07-06T17:50:22Z</time>
        <sat>10</sat>
      </trkpt>
      <trkpt lat="43.581635" lon="11.002543">
        <ele>5.1</ele>
        <time>2016-07-06T17:50:23Z</time>
        <sat>10</sat>
      </trkpt>
      <trkpt lat="43.581549" lon="11.002699">
        <ele>5.0</ele>
        <time>2016-07-06T17:50:24Z</time>
        <sat>10</sat>
      </trkpt>
      <trkpt lat="43.581461" lon="11.002857">
        <ele>5.0</ele>
        <time>2016-07-06T17:50:25Z</time>
        <sat>10</sat>
      </trkpt>
      <trkpt lat="43.581371" lon="11.003018">
        <ele>5.0</ele>
        <time>2016-07-06T17:50:26Z</time>
        <sat>9</sat>
      </trkpt>
      <trkpt lat="43.581280" lon="11.003179">
        <ele>5.1</ele>
        <time>2016-07-06T17:50:27Z</time>
        <sat>9</sat>
      </trkpt>
      <trkpt lat="43.581190" lon="11.003339">
        <ele>5.1</ele>
        <time>2016-07-06T17:50:28Z</time>
        <sat>10</sat>
      </trkpt>
      <trkpt lat="43.581105" lon="11.003497">
        <ele>5.2</ele>
        <time>2016-07-06T17:50:29Z</time>
        <sat>10</sat>
      </trkpt>
      <trkpt lat="43.581019" lon="11.003647">
        <ele>5.3</ele>
        <time>2016-07-06T17:50:30Z</time>
        <sat>10</sat>
      </trkpt>
      <trkpt lat="43.580933" lon="11.003794">
        <ele>5.2</ele>
        <time>2016-07-06T17:50:31Z</time>
        <sat>10</sat>
      </trkpt>
      <trkpt lat="43.580849" lon="11.003943">
        <ele>5.2</ele>
        <time>2016-07-06T17:50:32Z</time>
        <sat>10</sat>
      </trkpt>
      <trkpt lat="43.580763" lon="11.004095">
        <ele>5.3</ele>
        <time>2016-07-06T17:50:33Z</time>
        <sat>10</sat>
      </trkpt>
      <trkpt lat="43.580677" lon="11.004250">
        <ele>5.7</ele>
        <time>2016-07-06T17:50:34Z</time>
        <sat>10</sat>
      </trkpt>
      <trkpt lat="43.580591" lon="11.004406">
        <ele>5.9</ele>
        <time>2016-07-06T17:50:35Z</time>
        <sat>10</sat>
      </trkpt>
      <trkpt lat="43.580507" lon="11.004560">
        <ele>6.0</ele>
        <time>2016-07-06T17:50:36Z</time>
        <sat>10</sat>
      </trkpt>
      <trkpt lat="43.580422" lon="11.004713">
        <ele>6.0</ele>
        <time>2016-07-06T17:50:37Z</time>
        <sat>10</sat>
      </trkpt>
      <trkpt lat="43.580334" lon="11.004865">
        <ele>6.0</ele>
        <time>2016-07-06T17:50:38Z</time>
        <sat>10</sat>
      </trkpt>
      <trkpt lat="43.580234" lon="11.005014">
        <ele>6.6</ele>
        <time>2016-07-06T17:50:39Z</time>
        <sat>10</sat>
      </trkpt>
      <trkpt lat="43.580123" lon="11.005152">
        <ele>7.3</ele>
        <time>2016-07-06T17:50:40Z</time>
        <sat>10</sat>
      </trkpt>
      <trkpt lat="43.580007" lon="11.005275">
        <ele>7.5</ele>
        <time>2016-07-06T17:50:41Z</time>
        <sat>10</sat>
      </trkpt>
      <trkpt lat="43.579892" lon="11.005389">
        <ele>7.3</ele>
        <time>2016-07-06T17:50:42Z</time>
        <sat>10</sat>
      </trkpt>
      <trkpt lat="43.579779" lon="11.005501">
        <ele>7.0</ele>
        <time>2016-07-06T17:50:43Z</time>
        <sat>10</sat>
      </trkpt>
      <trkpt lat="43.579666" lon="11.005615">
        <ele>6.9</ele>
        <time>2016-07-06T17:50:44Z</time>
        <sat>10</sat>
      </trkpt>
      <trkpt lat="43.579552" lon="11.005731">
        <ele>6.7</ele>
        <time>2016-07-06T17:50:45Z</time>
        <sat>10</sat>
      </trkpt>
      <trkpt lat="43.579436" lon="11.005845">
        <ele>7.5</ele>
        <time>2016-07-06T17:50:46Z</time>
        <sat>10</sat>
      </trkpt>
      <trkpt lat="43.579322" lon="11.005959">
        <ele>7.9</ele>
        <time>2016-07-06T17:50:47Z</time>
        <sat>10</sat>
      </trkpt>
      <trkpt lat="43.579209" lon="11.006074">
        <ele>8.2</ele>
        <time>2016-07-06T17:50:48Z</time>
        <sat>9</sat>
      </trkpt>
      <trkpt lat="43.579095" lon="11.006190">
        <ele>8.4</ele>
        <time>2016-07-06T17:50:49Z</time>
        <sat>10</sat>
      </trkpt>
      <trkpt lat="43.578976" lon="11.006302">
        <ele>8.7</ele>
        <time>2016-07-06T17:50:50Z</time>
        <sat>10</sat>
      </trkpt>
      <trkpt lat="43.578854" lon="11.006416">
        <ele>8.8</ele>
        <time>2016-07-06T17:50:51Z</time>
        <sat>10</sat>
      </trkpt>
      <trkpt lat="43.578733" lon="11.006527">
        <ele>9.0</ele>
        <time>2016-07-06T17:50:52Z</time>
        <sat>10</sat>
      </trkpt>
      <trkpt lat="43.578619" lon="11.006637">
        <ele>8.6</ele>
        <time>2016-07-06T17:50:53Z</time>
        <sat>10</sat>
      </trkpt>
      <trkpt lat="43.578506" lon="11.006745">
        <ele>8.6</ele>
        <time>2016-07-06T17:50:54Z</time>
        <sat>10</sat>
      </trkpt>
      <trkpt lat="43.578389" lon="11.006859">
        <ele>8.2</ele>
        <time>2016-07-06T17:50:55Z</time>
        <sat>10</sat>
      </trkpt>
      <trkpt lat="43.578268" lon="11.006980">
        <ele>8.1</ele>
        <time>2016-07-06T17:50:56Z</time>
        <sat>10</sat>
      </trkpt>
      <trkpt lat="43.578139" lon="11.007105">
        <ele>8.1</ele>
        <time>2016-07-06T17:50:57Z</time>
        <sat>10</sat>
      </trkpt>
      <trkpt lat="43.578011" lon="11.007227">
        <ele>8.0</ele>
        <time>2016-07-06T17:50:58Z</time>
        <sat>10</sat>
      </trkpt>
      <trkpt lat="43.577892" lon="11.007344">
        <ele>7.9</ele>
        <time>2016-07-06T17:50:59Z</time>
        <sat>9</sat>
      </trkpt>
      <trkpt lat="43.577785" lon="11.007455">
        <ele>8.1</ele>
        <time>2016-07-06T17:51:00Z</time>
        <sat>10</sat>
      </trkpt>
      <trkpt lat="43.577689" lon="11.007562">
        <ele>8.8</ele>
        <time>2016-07-06T17:51:01Z</time>
        <sat>10</sat>
      </trkpt>
      <trkpt lat="43.577605" lon="11.007643">
        <ele>9.2</ele>
        <time>2016-07-06T17:51:02Z</time>
        <sat>8</sat>
      </trkpt>
      <trkpt lat="43.577528" lon="11.007709">
        <ele>7.8</ele>
        <time>2016-07-06T17:51:03Z</time>
        <sat>10</sat>
      </trkpt>
      <trkpt lat="43.577406" lon="11.007827">
        <ele>8.1</ele>
        <time>2016-07-06T17:51:05Z</time>
        <sat>10</sat>
      </trkpt>
      <trkpt lat="43.577319" lon="11.007920">
        <ele>7.9</ele>
        <time>2016-07-06T17:51:08Z</time>
        <sat>10</sat>
      </trkpt>
      <trkpt lat="43.577353" lon="11.008055">
        <ele>6.8</ele>
        <time>2016-07-06T17:51:11Z</time>
        <sat>10</sat>
      </trkpt>
      <trkpt lat="43.577536" lon="11.008339">
        <ele>7.8</ele>
        <time>2016-07-06T17:51:14Z</time>
        <sat>10</sat>
      </trkpt>
      <trkpt lat="43.577606" lon="11.008479">
        <ele>8.2</ele>
        <time>2016-07-06T17:51:15Z</time>
        <sat>10</sat>
      </trkpt>
      <trkpt lat="43.577679" lon="11.008629">
        <ele>8.7</ele>
        <time>2016-07-06T17:51:16Z</time>
        <sat>10</sat>
      </trkpt>
      <trkpt lat="43.577752" lon="11.008784">
        <ele>9.3</ele>
        <time>2016-07-06T17:51:17Z</time>
        <sat>10</sat>
      </trkpt>
      <trkpt lat="43.577815" lon="11.008936">
        <ele>10.3</ele>
        <time>2016-07-06T17:51:18Z</time>
        <sat>10</sat>
      </trkpt>
      <trkpt lat="43.577854" lon="11.009078">
        <ele>11.5</ele>
        <time>2016-07-06T17:51:19Z</time>
        <sat>9</sat>
      </trkpt>
      <trkpt lat="43.577863" lon="11.009210">
        <ele>12.8</ele>
        <time>2016-07-06T17:51:20Z</time>
        <sat>8</sat>
      </trkpt>
      <trkpt lat="43.577849" lon="11.009340">
        <ele>13.9</ele>
        <time>2016-07-06T17:51:21Z</time>
        <sat>9</sat>
      </trkpt>
      <trkpt lat="43.577821" lon="11.009468">
        <ele>14.9</ele>
        <time>2016-07-06T17:51:22Z</time>
        <sat>8</sat>
      </trkpt>
      <trkpt lat="43.577803" lon="11.009604">
        <ele>15.7</ele>
        <time>2016-07-06T17:51:23Z</time>
        <sat>8</sat>
      </trkpt>
      <trkpt lat="43.577806" lon="11.009764">
        <ele>16.1</ele>
        <time>2016-07-06T17:51:24Z</time>
        <sat>9</sat>
      </trkpt>
      <trkpt lat="43.577828" lon="11.009960">
        <ele>16.4</ele>
        <time>2016-07-06T17:51:25Z</time>
        <sat>9</sat>
      </trkpt>
      <trkpt lat="43.577854" lon="11.010188">
        <ele>16.6</ele>
        <time>2016-07-06T17:51:26Z</time>
        <sat>10</sat>
      </trkpt>
      <trkpt lat="43.577879" lon="11.010421">
        <ele>17.0</ele>
        <time>2016-07-06T17:51:27Z</time>
        <sat>10</sat>
      </trkpt>
      <trkpt lat="43.577901" lon="11.010631">
        <ele>17.4</ele>
        <time>2016-07-06T17:51:28Z</time>
        <sat>9</sat>
      </trkpt>
      <trkpt lat="43.577921" lon="11.010823">
        <ele>17.7</ele>
        <time>2016-07-06T17:51:29Z</time>
        <sat>10</sat>
      </trkpt>
      <trkpt lat="43.577943" lon="11.011008">
        <ele>17.9</ele>
        <time>2016-07-06T17:51:30Z</time>
        <sat>10</sat>
      </trkpt>
      <trkpt lat="43.577980" lon="11.011182">
        <ele>18.4</ele>
        <time>2016-07-06T17:51:31Z</time>
        <sat>10</sat>
      </trkpt>
      <trkpt lat="43.578036" lon="11.011333">
        <ele>19.0</ele>
        <time>2016-07-06T17:51:32Z</time>
        <sat>10</sat>
      </trkpt>
      <trkpt lat="43.578116" lon="11.011458">
        <ele>19.7</ele>
        <time>2016-07-06T17:51:33Z</time>
        <sat>10</sat>
      </trkpt>
      <trkpt lat="43.578223" lon="11.011558">
        <ele>20.7</ele>
        <time>2016-07-06T17:51:34Z</time>
        <sat>9</sat>
      </trkpt>
      <trkpt lat="43.578350" lon="11.011634">
        <ele>21.8</ele>
        <time>2016-07-06T17:51:35Z</time>
        <sat>9</sat>
      </trkpt>
      <trkpt lat="43.578483" lon="11.011694">
        <ele>23.0</ele>
        <time>2016-07-06T17:51:36Z</time>
        <sat>10</sat>
      </trkpt>
      <trkpt lat="43.578607" lon="11.011776">
        <ele>24.1</ele>
        <time>2016-07-06T17:51:37Z</time>
        <sat>10</sat>
      </trkpt>
      <trkpt lat="43.578716" lon="11.011892">
        <ele>25.7</ele>
        <time>2016-07-06T17:51:38Z</time>
        <sat>10</sat>
      </trkpt>
      <trkpt lat="43.578813" lon="11.012031">
        <ele>27.3</ele>
        <time>2016-07-06T17:51:39Z</time>
        <sat>10</sat>
      </trkpt>
      <trkpt lat="43.578897" lon="11.012175">
        <ele>28.8</ele>
        <time>2016-07-06T17:51:40Z</time>
        <sat>10</sat>
      </trkpt>
      <trkpt lat="43.578975" lon="11.012302">
        <ele>30.5</ele>
        <time>2016-07-06T17:51:41Z</time>
        <sat>10</sat>
      </trkpt>
      <trkpt lat="43.579061" lon="11.012404">
        <ele>32.2</ele>
        <time>2016-07-06T17:51:42Z</time>
        <sat>10</sat>
      </trkpt>
      <trkpt lat="43.579158" lon="11.012488">
        <ele>33.9</ele>
        <time>2016-07-06T17:51:43Z</time>
        <sat>10</sat>
      </trkpt>
      <trkpt lat="43.579275" lon="11.012541">
        <ele>35.7</ele>
        <time>2016-07-06T17:51:44Z</time>
        <sat>10</sat>
      </trkpt>
      <trkpt lat="43.579408" lon="11.012560">
        <ele>37.4</ele>
        <time>2016-07-06T17:51:45Z</time>
        <sat>9</sat>
      </trkpt>
      <trkpt lat="43.579547" lon="11.012556">
        <ele>39.0</ele>
        <time>2016-07-06T17:51:46Z</time>
        <sat>10</sat>
      </trkpt>
      <trkpt lat="43.579681" lon="11.012545">
        <ele>40.4</ele>
        <time>2016-07-06T17:51:47Z</time>
        <sat>10</sat>
      </trkpt>
      <trkpt lat="43.579810" lon="11.012547">
        <ele>41.3</ele>
        <time>2016-07-06T17:51:48Z</time>
        <sat>10</sat>
      </trkpt>
      <trkpt lat="43.579929" lon="11.012567">
        <ele>42.4</ele>
        <time>2016-07-06T17:51:49Z</time>
        <sat>8</sat>
      </trkpt>
      <trkpt lat="43.580031" lon="11.012626">
        <ele>42.8</ele>
        <time>2016-07-06T17:51:50Z</time>
        <sat>10</sat>
      </trkpt>
      <trkpt lat="43.580134" lon="11.012722">
        <ele>42.7</ele>
        <time>2016-07-06T17:51:51Z</time>
        <sat>10</sat>
      </trkpt>
      <trkpt lat="43.580228" lon="11.012856">
        <ele>43.0</ele>
        <time>2016-07-06T17:51:52Z</time>
        <sat>10</sat>
      </trkpt>
      <trkpt lat="43.580326" lon="11.013012">
        <ele>44.3</ele>
        <time>2016-07-06T17:51:53Z</time>
        <sat>10</sat>
      </trkpt>
      <trkpt lat="43.580433" lon="11.013163">
        <ele>44.6</ele>
        <time>2016-07-06T17:51:54Z</time>
        <sat>10</sat>
      </trkpt>
      <trkpt lat="43.580539" lon="11.013305">
        <ele>45.5</ele>
        <time>2016-07-06T17:51:55Z</time>
        <sat>10</sat>
      </trkpt>
      <trkpt lat="43.580639" lon="11.013428">
        <ele>46.0</ele>
        <time>2016-07-06T17:51:56Z</time>
        <sat>9</sat>
      </trkpt>
      <trkpt lat="43.580751" lon="11.013525">
        <ele>46.3</ele>
        <time>2016-07-06T17:51:57Z</time>
        <sat>9</sat>
      </trkpt>
      <trkpt lat="43.580860" lon="11.013582">
        <ele>45.1</ele>
        <time>2016-07-06T17:51:58Z</time>
        <sat>10</sat>
      </trkpt>
      <trkpt lat="43.580992" lon="11.013617">
        <ele>44.5</ele>
        <time>2016-07-06T17:51:59Z</time>
        <sat>10</sat>
      </trkpt>
      <trkpt lat="43.581139" lon="11.013638">
        <ele>45.5</ele>
        <time>2016-07-06T17:52:00Z</time>
        <sat>10</sat>
      </trkpt>
      <trkpt lat="43.581289" lon="11.013657">
        <ele>45.1</ele>
        <time>2016-07-06T17:52:01Z</time>
        <sat>10</sat>
      </trkpt>
      <trkpt lat="43.581444" lon="11.013685">
        <ele>44.9</ele>
        <time>2016-07-06T17:52:02Z</time>
        <sat>9</sat>
      </trkpt>
      <trkpt lat="43.581590" lon="11.013725">
        <ele>46.1</ele>
        <time>2016-07-06T17:52:03Z</time>
        <sat>10</sat>
      </trkpt>
      <trkpt lat="43.581728" lon="11.013775">
        <ele>46.8</ele>
        <time>2016-07-06T17:52:04Z</time>
        <sat>9</sat>
      </trkpt>
      <trkpt lat="43.581858" lon="11.013838">
        <ele>47.5</ele>
        <time>2016-07-06T17:52:05Z</time>
        <sat>10</sat>
      </trkpt>
      <trkpt lat="43.581984" lon="11.013904">
        <ele>47.8</ele>
        <time>2016-07-06T17:52:06Z</time>
        <sat>10</sat>
      </trkpt>
      <trkpt lat="43.582104" lon="11.013964">
        <ele>48.0</ele>
        <time>2016-07-06T17:52:07Z</time>
        <sat>10</sat>
      </trkpt>
      <trkpt lat="43.582215" lon="11.014012">
        <ele>47.9</ele>
        <time>2016-07-06T17:52:08Z</time>
        <sat>10</sat>
      </trkpt>
      <trkpt lat="43.582330" lon="11.014027">
        <ele>47.4</ele>
        <time>2016-07-06T17:52:09Z</time>
        <sat>10</sat>
      </trkpt>
      <trkpt lat="43.582441" lon="11.014007">
        <ele>47.4</ele>
        <time>2016-07-06T17:52:10Z</time>
        <sat>10</sat>
      </trkpt>
      <trkpt lat="43.582544" lon="11.013970">
        <ele>48.0</ele>
        <time>2016-07-06T17:52:11Z</time>
        <sat>10</sat>
      </trkpt>
      <trkpt lat="43.582635" lon="11.013929">
        <ele>48.7</ele>
        <time>2016-07-06T17:52:12Z</time>
        <sat>10</sat>
      </trkpt>
      <trkpt lat="43.582793" lon="11.013981">
        <ele>50.2</ele>
        <time>2016-07-06T17:52:14Z</time>
        <sat>10</sat>
      </trkpt>
      <trkpt lat="43.583057" lon="11.014289">
        <ele>54.5</ele>
        <time>2016-07-06T17:52:18Z</time>
        <sat>10</sat>
      </trkpt>
      <trkpt lat="43.583155" lon="11.014309">
        <ele>55.9</ele>
        <time>2016-07-06T17:52:19Z</time>
        <sat>10</sat>
      </trkpt>
      <trkpt lat="43.583259" lon="11.014300">
        <ele>57.2</ele>
        <time>2016-07-06T17:52:20Z</time>
        <sat>10</sat>
      </trkpt>
      <trkpt lat="43.583359" lon="11.014292">
        <ele>58.5</ele>
        <time>2016-07-06T17:52:21Z</time>
        <sat>10</sat>
      </trkpt>
      <trkpt lat="43.583493" lon="11.014382">
        <ele>61.5</ele>
        <time>2016-07-06T17:52:23Z</time>
        <sat>10</sat>
      </trkpt>
      <trkpt lat="43.583570" lon="11.014572">
        <ele>64.2</ele>
        <time>2016-07-06T17:52:25Z</time>
        <sat>10</sat>
      </trkpt>
      <trkpt lat="43.583647" lon="11.014788">
        <ele>65.6</ele>
        <time>2016-07-06T17:52:27Z</time>
        <sat>10</sat>
      </trkpt>
      <trkpt lat="43.583811" lon="11.014905">
        <ele>66.9</ele>
        <time>2016-07-06T17:52:29Z</time>
        <sat>10</sat>
      </trkpt>
      <trkpt lat="43.583918" lon="11.014929">
        <ele>67.9</ele>
        <time>2016-07-06T17:52:30Z</time>
        <sat>10</sat>
      </trkpt>
      <trkpt lat="43.584040" lon="11.014943">
        <ele>69.4</ele>
        <time>2016-07-06T17:52:31Z</time>
        <sat>9</sat>
      </trkpt>
      <trkpt lat="43.584170" lon="11.014946">
        <ele>70.7</ele>
        <time>2016-07-06T17:52:32Z</time>
        <sat>10</sat>
      </trkpt>
      <trkpt lat="43.584290" lon="11.014953">
        <ele>71.7</ele>
        <time>2016-07-06T17:52:33Z</time>
        <sat>10</sat>
      </trkpt>
      <trkpt lat="43.584395" lon="11.014980">
        <ele>72.6</ele>
        <time>2016-07-06T17:52:34Z</time>
        <sat>10</sat>
      </trkpt>
      <trkpt lat="43.584486" lon="11.015039">
        <ele>73.4</ele>
        <time>2016-07-06T17:52:35Z</time>
        <sat>10</sat>
      </trkpt>
      <trkpt lat="43.584559" lon="11.015127">
        <ele>74.4</ele>
        <time>2016-07-06T17:52:36Z</time>
        <sat>10</sat>
      </trkpt>
      <trkpt lat="43.584612" lon="11.015237">
        <ele>75.5</ele>
        <time>2016-07-06T17:52:37Z</time>
        <sat>10</sat>
      </trkpt>
      <trkpt lat="43.584651" lon="11.015363">
        <ele>76.7</ele>
        <time>2016-07-06T17:52:38Z</time>
        <sat>10</sat>
      </trkpt>
      <trkpt lat="43.584698" lon="11.015486">
        <ele>77.9</ele>
        <time>2016-07-06T17:52:39Z</time>
        <sat>10</sat>
      </trkpt>
      <trkpt lat="43.584768" lon="11.015594">
        <ele>79.1</ele>
        <time>2016-07-06T17:52:40Z</time>
        <sat>10</sat>
      </trkpt>
      <trkpt lat="43.584858" lon="11.015697">
        <ele>80.3</ele>
        <time>2016-07-06T17:52:41Z</time>
        <sat>10</sat>
      </trkpt>
      <trkpt lat="43.584965" lon="11.015805">
        <ele>81.2</ele>
        <time>2016-07-06T17:52:42Z</time>
        <sat>10</sat>
      </trkpt>
      <trkpt lat="43.585077" lon="11.015917">
        <ele>82.3</ele>
        <time>2016-07-06T17:52:43Z</time>
        <sat>10</sat>
      </trkpt>
      <trkpt lat="43.585188" lon="11.016031">
        <ele>83.4</ele>
        <time>2016-07-06T17:52:44Z</time>
        <sat>10</sat>
      </trkpt>
      <trkpt lat="43.585296" lon="11.016147">
        <ele>84.4</ele>
        <time>2016-07-06T17:52:45Z</time>
        <sat>10</sat>
      </trkpt>
      <trkpt lat="43.585395" lon="11.016253">
        <ele>85.6</ele>
        <time>2016-07-06T17:52:46Z</time>
        <sat>10</sat>
      </trkpt>
      <trkpt lat="43.585495" lon="11.016337">
        <ele>87.7</ele>
        <time>2016-07-06T17:52:47Z</time>
        <sat>10</sat>
      </trkpt>
      <trkpt lat="43.585597" lon="11.016392">
        <ele>89.3</ele>
        <time>2016-07-06T17:52:48Z</time>
        <sat>10</sat>
      </trkpt>
      <trkpt lat="43.585711" lon="11.016412">
        <ele>90.8</ele>
        <time>2016-07-06T17:52:49Z</time>
        <sat>10</sat>
      </trkpt>
      <trkpt lat="43.585836" lon="11.016409">
        <ele>92.6</ele>
        <time>2016-07-06T17:52:50Z</time>
        <sat>10</sat>
      </trkpt>
      <trkpt lat="43.585968" lon="11.016399">
        <ele>94.3</ele>
        <time>2016-07-06T17:52:51Z</time>
        <sat>10</sat>
      </trkpt>
      <trkpt lat="43.586097" lon="11.016390">
        <ele>95.9</ele>
        <time>2016-07-06T17:52:52Z</time>
        <sat>10</sat>
      </trkpt>
      <trkpt lat="43.586221" lon="11.016382">
        <ele>97.5</ele>
        <time>2016-07-06T17:52:53Z</time>
        <sat>10</sat>
      </trkpt>
      <trkpt lat="43.586337" lon="11.016384">
        <ele>99.0</ele>
        <time>2016-07-06T17:52:54Z</time>
        <sat>10</sat>
      </trkpt>
      <trkpt lat="43.586446" lon="11.016406">
        <ele>101.0</ele>
        <time>2016-07-06T17:52:55Z</time>
        <sat>10</sat>
      </trkpt>
      <trkpt lat="43.586550" lon="11.016455">
        <ele>102.9</ele>
        <time>2016-07-06T17:52:56Z</time>
        <sat>10</sat>
      </trkpt>
      <trkpt lat="43.586648" lon="11.016519">
        <ele>104.4</ele>
        <time>2016-07-06T17:52:57Z</time>
        <sat>10</sat>
      </trkpt>
      <trkpt lat="43.586748" lon="11.016571">
        <ele>105.8</ele>
        <time>2016-07-06T17:52:58Z</time>
        <sat>10</sat>
      </trkpt>
      <trkpt lat="43.586853" lon="11.016599">
        <ele>107.2</ele>
        <time>2016-07-06T17:52:59Z</time>
        <sat>10</sat>
      </trkpt>
      <trkpt lat="43.586963" lon="11.016618">
        <ele>108.8</ele>
        <time>2016-07-06T17:53:00Z</time>
        <sat>9</sat>
      </trkpt>
      <trkpt lat="43.587080" lon="11.016635">
        <ele>109.6</ele>
        <time>2016-07-06T17:53:01Z</time>
        <sat>10</sat>
      </trkpt>
      <trkpt lat="43.587192" lon="11.016643">
        <ele>110.6</ele>
        <time>2016-07-06T17:53:02Z</time>
        <sat>10</sat>
      </trkpt>
      <trkpt lat="43.587300" lon="11.016654">
        <ele>112.0</ele>
        <time>2016-07-06T17:53:03Z</time>
        <sat>10</sat>
      </trkpt>
      <trkpt lat="43.587404" lon="11.016679">
        <ele>113.0</ele>
        <time>2016-07-06T17:53:04Z</time>
        <sat>9</sat>
      </trkpt>
      <trkpt lat="43.587501" lon="11.016729">
        <ele>114.4</ele>
        <time>2016-07-06T17:53:05Z</time>
        <sat>10</sat>
      </trkpt>
      <trkpt lat="43.587580" lon="11.016793">
        <ele>114.7</ele>
        <time>2016-07-06T17:53:06Z</time>
        <sat>9</sat>
      </trkpt>
      <trkpt lat="43.587670" lon="11.016971">
        <ele>117.0</ele>
        <time>2016-07-06T17:53:08Z</time>
        <sat>9</sat>
      </trkpt>
      <trkpt lat="43.587709" lon="11.017217">
        <ele>121.0</ele>
        <time>2016-07-06T17:53:10Z</time>
        <sat>9</sat>
      </trkpt>
      <trkpt lat="43.587722" lon="11.017364">
        <ele>123.8</ele>
        <time>2016-07-06T17:53:11Z</time>
        <sat>9</sat>
      </trkpt>
      <trkpt lat="43.587738" lon="11.017529">
        <ele>125.1</ele>
        <time>2016-07-06T17:53:12Z</time>
        <sat>10</sat>
      </trkpt>
      <trkpt lat="43.587755" lon="11.017719">
        <ele>126.1</ele>
        <time>2016-07-06T17:53:13Z</time>
        <sat>10</sat>
      </trkpt>
      <trkpt lat="43.587784" lon="11.017934">
        <ele>127.7</ele>
        <time>2016-07-06T17:53:14Z</time>
        <sat>10</sat>
      </trkpt>
      <trkpt lat="43.587819" lon="11.018152">
        <ele>129.1</ele>
        <time>2016-07-06T17:53:15Z</time>
        <sat>10</sat>
      </trkpt>
      <trkpt lat="43.587884" lon="11.018564">
        <ele>131.7</ele>
        <time>2016-07-06T17:53:17Z</time>
        <sat>10</sat>
      </trkpt>
      <trkpt lat="43.587919" lon="11.018748">
        <ele>132.9</ele>
        <time>2016-07-06T17:53:18Z</time>
        <sat>10</sat>
      </trkpt>
      <trkpt lat="43.587957" lon="11.018911">
        <ele>133.6</ele>
        <time>2016-07-06T17:53:19Z</time>
        <sat>10</sat>
      </trkpt>
      <trkpt lat="43.588009" lon="11.019061">
        <ele>134.5</ele>
        <time>2016-07-06T17:53:20Z</time>
        <sat>10</sat>
      </trkpt>
      <trkpt lat="43.588071" lon="11.019203">
        <ele>135.2</ele>
        <time>2016-07-06T17:53:21Z</time>
        <sat>10</sat>
      </trkpt>
      <trkpt lat="43.588145" lon="11.019334">
        <ele>135.6</ele>
        <time>2016-07-06T17:53:22Z</time>
        <sat>9</sat>
      </trkpt>
      <trkpt lat="43.588229" lon="11.019448">
        <ele>135.8</ele>
        <time>2016-07-06T17:53:23Z</time>
        <sat>10</sat>
      </trkpt>
      <trkpt lat="43.588317" lon="11.019545">
        <ele>136.0</ele>
        <time>2016-07-06T17:53:24Z</time>
        <sat>10</sat>
      </trkpt>
      <trkpt lat="43.588418" lon="11.019604">
        <ele>136.2</ele>
        <time>2016-07-06T17:53:25Z</time>
        <sat>10</sat>
      </trkpt>
      <trkpt lat="43.588530" lon="11.019649">
        <ele>136.1</ele>
        <time>2016-07-06T17:53:26Z</time>
        <sat>10</sat>
      </trkpt>
      <trkpt lat="43.588658" lon="11.019694">
        <ele>135.9</ele>
        <time>2016-07-06T17:53:27Z</time>
        <sat>10</sat>
      </trkpt>
      <trkpt lat="43.588800" lon="11.019743">
        <ele>135.8</ele>
        <time>2016-07-06T17:53:28Z</time>
        <sat>10</sat>
      </trkpt>
      <trkpt lat="43.588947" lon="11.019793">
        <ele>135.8</ele>
        <time>2016-07-06T17:53:29Z</time>
        <sat>10</sat>
      </trkpt>
      <trkpt lat="43.589094" lon="11.019832">
        <ele>135.6</ele>
        <time>2016-07-06T17:53:30Z</time>
        <sat>10</sat>
      </trkpt>
      <trkpt lat="43.589230" lon="11.019865">
        <ele>135.6</ele>
        <time>2016-07-06T17:53:31Z</time>
        <sat>9</sat>
      </trkpt>
      <trkpt lat="43.589356" lon="11.019894">
        <ele>135.7</ele>
        <time>2016-07-06T17:53:32Z</time>
        <sat>10</sat>
      </trkpt>
      <trkpt lat="43.589472" lon="11.019907">
        <ele>135.6</ele>
        <time>2016-07-06T17:53:33Z</time>
        <sat>10</sat>
      </trkpt>
      <trkpt lat="43.589586" lon="11.019910">
        <ele>135.5</ele>
        <time>2016-07-06T17:53:34Z</time>
        <sat>10</sat>
      </trkpt>
      <trkpt lat="43.589713" lon="11.019892">
        <ele>135.6</ele>
        <time>2016-07-06T17:53:35Z</time>
        <sat>10</sat>
      </trkpt>
      <trkpt lat="43.589845" lon="11.019855">
        <ele>135.4</ele>
        <time>2016-07-06T17:53:36Z</time>
        <sat>9</sat>
      </trkpt>
      <trkpt lat="43.589980" lon="11.019809">
        <ele>135.2</ele>
        <time>2016-07-06T17:53:37Z</time>
        <sat>10</sat>
      </trkpt>
      <trkpt lat="43.590115" lon="11.019746">
        <ele>135.3</ele>
        <time>2016-07-06T17:53:38Z</time>
        <sat>10</sat>
      </trkpt>
      <trkpt lat="43.590245" lon="11.019678">
        <ele>134.1</ele>
        <time>2016-07-06T17:53:39Z</time>
        <sat>10</sat>
      </trkpt>
      <trkpt lat="43.590368" lon="11.019598">
        <ele>132.9</ele>
        <time>2016-07-06T17:53:40Z</time>
        <sat>9</sat>
      </trkpt>
      <trkpt lat="43.590493" lon="11.019506">
        <ele>130.1</ele>
        <time>2016-07-06T17:53:41Z</time>
        <sat>9</sat>
      </trkpt>
      <trkpt lat="43.590628" lon="11.019408">
        <ele>128.0</ele>
        <time>2016-07-06T17:53:42Z</time>
        <sat>10</sat>
      </trkpt>
      <trkpt lat="43.590764" lon="11.019318">
        <ele>125.7</ele>
        <time>2016-07-06T17:53:43Z</time>
        <sat>8</sat>
      </trkpt>
      <trkpt lat="43.590897" lon="11.019235">
        <ele>123.6</ele>
        <time>2016-07-06T17:53:44Z</time>
        <sat>10</sat>
      </trkpt>
      <trkpt lat="43.591028" lon="11.019156">
        <ele>120.8</ele>
        <time>2016-07-06T17:53:45Z</time>
        <sat>10</sat>
      </trkpt>
      <trkpt lat="43.591156" lon="11.019074">
        <ele>118.8</ele>
        <time>2016-07-06T17:53:46Z</time>
        <sat>10</sat>
      </trkpt>
      <trkpt lat="43.591287" lon="11.018991">
        <ele>116.7</ele>
        <time>2016-07-06T17:53:47Z</time>
        <sat>10</sat>
      </trkpt>
      <trkpt lat="43.591423" lon="11.018906">
        <ele>114.7</ele>
        <time>2016-07-06T17:53:48Z</time>
        <sat>10</sat>
      </trkpt>
      <trkpt lat="43.591568" lon="11.018820">
        <ele>112.7</ele>
        <time>2016-07-06T17:53:49Z</time>
        <sat>10</sat>
      </trkpt>
      <trkpt lat="43.591723" lon="11.018734">
        <ele>111.1</ele>
        <time>2016-07-06T17:53:50Z</time>
        <sat>9</sat>
      </trkpt>
      <trkpt lat="43.591882" lon="11.018651">
        <ele>109.6</ele>
        <time>2016-07-06T17:53:51Z</time>
        <sat>10</sat>
      </trkpt>
      <trkpt lat="43.592038" lon="11.018575">
        <ele>108.4</ele>
        <time>2016-07-06T17:53:52Z</time>
        <sat>10</sat>
      </trkpt>
      <trkpt lat="43.592184" lon="11.018510">
        <ele>107.1</ele>
        <time>2016-07-06T17:53:53Z</time>
        <sat>10</sat>
      </trkpt>
      <trkpt lat="43.592320" lon="11.018458">
        <ele>106.2</ele>
        <time>2016-07-06T17:53:54Z</time>
        <sat>10</sat>
      </trkpt>
      <trkpt lat="43.592443" lon="11.018414">
        <ele>105.5</ele>
        <time>2016-07-06T17:53:55Z</time>
        <sat>10</sat>
      </trkpt>
      <trkpt lat="43.592555" lon="11.018379">
        <ele>104.8</ele>
        <time>2016-07-06T17:53:56Z</time>
        <sat>10</sat>
      </trkpt>
      <trkpt lat="43.592653" lon="11.018361">
        <ele>105.0</ele>
        <time>2016-07-06T17:53:57Z</time>
        <sat>10</sat>
      </trkpt>
      <trkpt lat="43.592752" lon="11.018362">
        <ele>104.5</ele>
        <time>2016-07-06T17:53:58Z</time>
        <sat>10</sat>
      </trkpt>
      <trkpt lat="43.592864" lon="11.018379">
        <ele>102.0</ele>
        <time>2016-07-06T17:53:59Z</time>
        <sat>10</sat>
      </trkpt>
      <trkpt lat="43.592986" lon="11.018418">
        <ele>101.5</ele>
        <time>2016-07-06T17:54:00Z</time>
        <sat>10</sat>
      </trkpt>
      <trkpt lat="43.593116" lon="11.018462">
        <ele>100.9</ele>
        <time>2016-07-06T17:54:01Z</time>
        <sat>10</sat>
      </trkpt>
      <trkpt lat="43.593244" lon="11.018518">
        <ele>101.3</ele>
        <time>2016-07-06T17:54:02Z</time>
        <sat>10</sat>
      </trkpt>
      <trkpt lat="43.593367" lon="11.018569">
        <ele>100.7</ele>
        <time>2016-07-06T17:54:03Z</time>
        <sat>9</sat>
      </trkpt>
      <trkpt lat="43.593482" lon="11.018622">
        <ele>100.1</ele>
        <time>2016-07-06T17:54:04Z</time>
        <sat>10</sat>
      </trkpt>
      <trkpt lat="43.593598" lon="11.018685">
        <ele>99.1</ele>
        <time>2016-07-06T17:54:05Z</time>
        <sat>9</sat>
      </trkpt>
      <trkpt lat="43.593717" lon="11.018768">
        <ele>97.5</ele>
        <time>2016-07-06T17:54:06Z</time>
        <sat>10</sat>
      </trkpt>
      <trkpt lat="43.593841" lon="11.018868">
        <ele>95.9</ele>
        <time>2016-07-06T17:54:07Z</time>
        <sat>10</sat>
      </trkpt>
      <trkpt lat="43.593971" lon="11.018976">
        <ele>94.6</ele>
        <time>2016-07-06T17:54:08Z</time>
        <sat>10</sat>
      </trkpt>
      <trkpt lat="43.594101" lon="11.019082">
        <ele>93.2</ele>
        <time>2016-07-06T17:54:09Z</time>
        <sat>10</sat>
      </trkpt>
      <trkpt lat="43.594221" lon="11.019179">
        <ele>91.9</ele>
        <time>2016-07-06T17:54:10Z</time>
        <sat>9</sat>
      </trkpt>
      <trkpt lat="43.594326" lon="11.019271">
        <ele>90.7</ele>
        <time>2016-07-06T17:54:11Z</time>
        <sat>8</sat>
      </trkpt>
      <trkpt lat="43.594421" lon="11.019363">
        <ele>89.4</ele>
        <time>2016-07-06T17:54:12Z</time>
        <sat>8</sat>
      </trkpt>
      <trkpt lat="43.594507" lon="11.019450">
        <ele>88.3</ele>
        <time>2016-07-06T17:54:13Z</time>
        <sat>9</sat>
      </trkpt>
      <trkpt lat="43.594594" lon="11.019537">
        <ele>86.5</ele>
        <time>2016-07-06T17:54:14Z</time>
        <sat>8</sat>
      </trkpt>
      <trkpt lat="43.594682" lon="11.019645">
        <ele>85.6</ele>
        <time>2016-07-06T17:54:15Z</time>
        <sat>10</sat>
      </trkpt>
      <trkpt lat="43.594758" lon="11.019767">
        <ele>83.4</ele>
        <time>2016-07-06T17:54:16Z</time>
        <sat>10</sat>
      </trkpt>
      <trkpt lat="43.594857" lon="11.019904">
        <ele>84.3</ele>
        <time>2016-07-06T17:54:17Z</time>
        <sat>9</sat>
      </trkpt>
      <trkpt lat="43.595071" lon="11.020166">
        <ele>82.1</ele>
        <time>2016-07-06T17:54:19Z</time>
        <sat>10</sat>
      </trkpt>
      <trkpt lat="43.595158" lon="11.020300">
        <ele>80.7</ele>
        <time>2016-07-06T17:54:20Z</time>
        <sat>9</sat>
      </trkpt>
      <trkpt lat="43.595241" lon="11.020430">
        <ele>80.2</ele>
        <time>2016-07-06T17:54:21Z</time>
        <sat>10</sat>
      </trkpt>
      <trkpt lat="43.595325" lon="11.020555">
        <ele>79.6</ele>
        <time>2016-07-06T17:54:22Z</time>
        <sat>10</sat>
      </trkpt>
      <trkpt lat="43.595397" lon="11.020677">
        <ele>78.4</ele>
        <time>2016-07-06T17:54:23Z</time>
        <sat>10</sat>
      </trkpt>
      <trkpt lat="43.595468" lon="11.020796">
        <ele>77.6</ele>
        <time>2016-07-06T17:54:24Z</time>
        <sat>10</sat>
      </trkpt>
      <trkpt lat="43.595546" lon="11.020911">
        <ele>76.9</ele>
        <time>2016-07-06T17:54:25Z</time>
        <sat>10</sat>
      </trkpt>
      <trkpt lat="43.595625" lon="11.021018">
        <ele>76.3</ele>
        <time>2016-07-06T17:54:26Z</time>
        <sat>8</sat>
      </trkpt>
      <trkpt lat="43.595704" lon="11.021106">
        <ele>76.9</ele>
        <time>2016-07-06T17:54:27Z</time>
        <sat>10</sat>
      </trkpt>
      <trkpt lat="43.595796" lon="11.021170">
        <ele>76.8</ele>
        <time>2016-07-06T17:54:28Z</time>
        <sat>10</sat>
      </trkpt>
      <trkpt lat="43.595886" lon="11.021230">
        <ele>76.8</ele>
        <time>2016-07-06T17:54:29Z</time>
        <sat>9</sat>
      </trkpt>
      <trkpt lat="43.595995" lon="11.021257">
        <ele>76.6</ele>
        <time>2016-07-06T17:54:30Z</time>
        <sat>10</sat>
      </trkpt>
      <trkpt lat="43.596103" lon="11.021272">
        <ele>77.1</ele>
        <time>2016-07-06T17:54:31Z</time>
        <sat>10</sat>
      </trkpt>
      <trkpt lat="43.596279" lon="11.021273">
        <ele>77.8</ele>
        <time>2016-07-06T17:54:33Z</time>
        <sat>9</sat>
      </trkpt>
      <trkpt lat="43.596412" lon="11.021220">
        <ele>76.4</ele>
        <time>2016-07-06T17:54:35Z</time>
        <sat>10</sat>
      </trkpt>
      <trkpt lat="43.596490" lon="11.021089">
        <ele>74.6</ele>
        <time>2016-07-06T17:54:37Z</time>
        <sat>9</sat>
      </trkpt>
      <trkpt lat="43.596528" lon="11.020862">
        <ele>72.8</ele>
        <time>2016-07-06T17:54:39Z</time>
        <sat>10</sat>
      </trkpt>
      <trkpt lat="43.596526" lon="11.020616">
        <ele>71.9</ele>
        <time>2016-07-06T17:54:41Z</time>
        <sat>8</sat>
      </trkpt>
      <trkpt lat="43.596517" lon="11.020460">
        <ele>71.2</ele>
        <time>2016-07-06T17:54:42Z</time>
        <sat>9</sat>
      </trkpt>
      <trkpt lat="43.596523" lon="11.020298">
        <ele>70.4</ele>
        <time>2016-07-06T17:54:43Z</time>
        <sat>9</sat>
      </trkpt>
      <trkpt lat="43.596537" lon="11.020141">
        <ele>69.0</ele>
        <time>2016-07-06T17:54:44Z</time>
        <sat>9</sat>
      </trkpt>
      <trkpt lat="43.596545" lon="11.019996">
        <ele>67.9</ele>
        <time>2016-07-06T17:54:45Z</time>
        <sat>9</sat>
      </trkpt>
      <trkpt lat="43.596544" lon="11.019867">
        <ele>67.9</ele>
        <time>2016-07-06T17:54:46Z</time>
        <sat>9</sat>
      </trkpt>
      <trkpt lat="43.596576" lon="11.019673">
        <ele>67.9</ele>
        <time>2016-07-06T17:54:48Z</time>
        <sat>9</sat>
      </trkpt>
      <trkpt lat="43.596571" lon="11.019532">
        <ele>64.3</ele>
        <time>2016-07-06T17:54:50Z</time>
        <sat>9</sat>
      </trkpt>
      <trkpt lat="43.596674" lon="11.019544">
        <ele>65.6</ele>
        <time>2016-07-06T17:54:54Z</time>
        <sat>9</sat>
      </trkpt>
      <trkpt lat="43.596720" lon="11.019707">
        <ele>65.0</ele>
        <time>2016-07-06T17:54:56Z</time>
        <sat>8</sat>
      </trkpt>
      <trkpt lat="43.596723" lon="11.019917">
        <ele>64.1</ele>
        <time>2016-07-06T17:54:58Z</time>
        <sat>9</sat>
      </trkpt>
      <trkpt lat="43.596737" lon="11.020095">
        <ele>62.5</ele>
        <time>2016-07-06T17:55:00Z</time>
        <sat>8</sat>
      </trkpt>
      <trkpt lat="43.596780" lon="11.020218">
        <ele>61.0</ele>
        <time>2016-07-06T17:55:02Z</time>
        <sat>9</sat>
      </trkpt>
      <trkpt lat="43.596894" lon="11.020273">
        <ele>61.6</ele>
        <time>2016-07-06T17:55:05Z</time>
        <sat>9</sat>
      </trkpt>
      <trkpt lat="43.597003" lon="11.020107">
        <ele>61.3</ele>
        <time>2016-07-06T17:55:08Z</time>
        <sat>8</sat>
      </trkpt>
      <trkpt lat="43.597082" lon="11.019985">
        <ele>61.1</ele>
        <time>2016-07-06T17:55:09Z</time>
        <sat>8</sat>
      </trkpt>
      <trkpt lat="43.597135" lon="11.019829">
        <ele>56.3</ele>
        <time>2016-07-06T17:55:10Z</time>
        <sat>9</sat>
      </trkpt>
      <trkpt lat="43.597185" lon="11.019681">
        <ele>55.5</ele>
        <time>2016-07-06T17:55:11Z</time>
        <sat>9</sat>
      </trkpt>
      <trkpt lat="43.597223" lon="11.019552">
        <ele>53.6</ele>
        <time>2016-07-06T17:55:12Z</time>
        <sat>9</sat>
      </trkpt>
      <trkpt lat="43.597304" lon="11.019343">
        <ele>50.5</ele>
        <time>2016-07-06T17:55:14Z</time>
        <sat>9</sat>
      </trkpt>
      <trkpt lat="43.597372" lon="11.019208">
        <ele>50.2</ele>
        <time>2016-07-06T17:55:16Z</time>
        <sat>9</sat>
      </trkpt>
      <trkpt lat="43.597405" lon="11.019331">
        <ele>46.7</ele>
        <time>2016-07-06T17:55:20Z</time>
        <sat>9</sat>
      </trkpt>
      <trkpt lat="43.597267" lon="11.019722">
        <ele>41.5</ele>
        <time>2016-07-06T17:55:24Z</time>
        <sat>7</sat>
      </trkpt>
      <trkpt lat="43.597221" lon="11.019868">
        <ele>40.2</ele>
        <time>2016-07-06T17:55:27Z</time>
        <sat>9</sat>
      </trkpt>
      <trkpt lat="43.597315" lon="11.019850">
        <ele>37.9</ele>
        <time>2016-07-06T17:55:30Z</time>
        <sat>8</sat>
      </trkpt>
      <trkpt lat="43.597455" lon="11.019714">
        <ele>34.4</ele>
        <time>2016-07-06T17:55:32Z</time>
        <sat>9</sat>
      </trkpt>
      <trkpt lat="43.597544" lon="11.019618">
        <ele>32.7</ele>
        <time>2016-07-06T17:55:33Z</time>
        <sat>9</sat>
      </trkpt>
      <trkpt lat="43.597639" lon="11.019514">
        <ele>30.7</ele>
        <time>2016-07-06T17:55:34Z</time>
        <sat>7</sat>
      </trkpt>
      <trkpt lat="43.597748" lon="11.019427">
        <ele>28.1</ele>
        <time>2016-07-06T17:55:35Z</time>
        <sat>7</sat>
      </trkpt>
      <trkpt lat="43.597844" lon="11.019359">
        <ele>26.2</ele>
        <time>2016-07-06T17:55:36Z</time>
        <sat>9</sat>
      </trkpt>
      <trkpt lat="43.597924" lon="11.019288">
        <ele>27.5</ele>
        <time>2016-07-06T17:55:37Z</time>
        <sat>9</sat>
      </trkpt>
      <trkpt lat="43.598003" lon="11.019182">
        <ele>25.9</ele>
        <time>2016-07-06T17:55:38Z</time>
        <sat>9</sat>
      </trkpt>
      <trkpt lat="43.598057" lon="11.019075">
        <ele>24.7</ele>
        <time>2016-07-06T17:55:39Z</time>
        <sat>9</sat>
      </trkpt>
      <trkpt lat="43.598154" lon="11.018891">
        <ele>22.9</ele>
        <time>2016-07-06T17:55:41Z</time>
        <sat>9</sat>
      </trkpt>
      <trkpt lat="43.598227" lon="11.018798">
        <ele>20.9</ele>
        <time>2016-07-06T17:55:42Z</time>
        <sat>9</sat>
      </trkpt>
      <trkpt lat="43.598323" lon="11.018720">
        <ele>19.5</ele>
        <time>2016-07-06T17:55:43Z</time>
        <sat>9</sat>
      </trkpt>
      <trkpt lat="43.598459" lon="11.018646">
        <ele>17.4</ele>
        <time>2016-07-06T17:55:44Z</time>
        <sat>9</sat>
      </trkpt>
      <trkpt lat="43.598602" lon="11.018585">
        <ele>15.3</ele>
        <time>2016-07-06T17:55:45Z</time>
        <sat>9</sat>
      </trkpt>
      <trkpt lat="43.598749" lon="11.018536">
        <ele>13.7</ele>
        <time>2016-07-06T17:55:46Z</time>
        <sat>9</sat>
      </trkpt>
      <trkpt lat="43.598899" lon="11.018484">
        <ele>12.3</ele>
        <time>2016-07-06T17:55:47Z</time>
        <sat>8</sat>
      </trkpt>
      <trkpt lat="43.599058" lon="11.018428">
        <ele>11.2</ele>
        <time>2016-07-06T17:55:48Z</time>
        <sat>9</sat>
      </trkpt>
      <trkpt lat="43.599226" lon="11.018369">
        <ele>10.8</ele>
        <time>2016-07-06T17:55:49Z</time>
        <sat>9</sat>
      </trkpt>
      <trkpt lat="43.599391" lon="11.018311">
        <ele>11.1</ele>
        <time>2016-07-06T17:55:50Z</time>
        <sat>9</sat>
      </trkpt>
      <trkpt lat="43.599553" lon="11.018257">
        <ele>11.0</ele>
        <time>2016-07-06T17:55:51Z</time>
        <sat>10</sat>
      </trkpt>
      <trkpt lat="43.599721" lon="11.018202">
        <ele>12.0</ele>
        <time>2016-07-06T17:55:52Z</time>
        <sat>10</sat>
      </trkpt>
      <trkpt lat="43.599892" lon="11.018145">
        <ele>12.2</ele>
        <time>2016-07-06T17:55:53Z</time>
        <sat>10</sat>
      </trkpt>
      <trkpt lat="43.600071" lon="11.018090">
        <ele>13.2</ele>
        <time>2016-07-06T17:55:54Z</time>
        <sat>10</sat>
      </trkpt>
      <trkpt lat="43.600243" lon="11.018040">
        <ele>13.7</ele>
        <time>2016-07-06T17:55:55Z</time>
        <sat>10</sat>
      </trkpt>
      <trkpt lat="43.600404" lon="11.017998">
        <ele>13.6</ele>
        <time>2016-07-06T17:55:56Z</time>
        <sat>10</sat>
      </trkpt>
      <trkpt lat="43.600560" lon="11.017948">
        <ele>13.4</ele>
        <time>2016-07-06T17:55:57Z</time>
        <sat>10</sat>
      </trkpt>
      <trkpt lat="43.600718" lon="11.017895">
        <ele>13.4</ele>
        <time>2016-07-06T17:55:58Z</time>
        <sat>10</sat>
      </trkpt>
      <trkpt lat="43.600879" lon="11.017843">
        <ele>13.6</ele>
        <time>2016-07-06T17:55:59Z</time>
        <sat>10</sat>
      </trkpt>
      <trkpt lat="43.601034" lon="11.017795">
        <ele>13.8</ele>
        <time>2016-07-06T17:56:00Z</time>
        <sat>10</sat>
      </trkpt>
      <trkpt lat="43.601172" lon="11.017750">
        <ele>13.8</ele>
        <time>2016-07-06T17:56:01Z</time>
        <sat>10</sat>
      </trkpt>
      <trkpt lat="43.601297" lon="11.017703">
        <ele>14.0</ele>
        <time>2016-07-06T17:56:02Z</time>
        <sat>10</sat>
      </trkpt>
      <trkpt lat="43.601422" lon="11.017657">
        <ele>14.1</ele>
        <time>2016-07-06T17:56:03Z</time>
        <sat>10</sat>
      </trkpt>
      <trkpt lat="43.601541" lon="11.017618">
        <ele>14.2</ele>
        <time>2016-07-06T17:56:04Z</time>
        <sat>9</sat>
      </trkpt>
      <trkpt lat="43.601647" lon="11.017586">
        <ele>14.4</ele>
        <time>2016-07-06T17:56:05Z</time>
        <sat>10</sat>
      </trkpt>
      <trkpt lat="43.601740" lon="11.017562">
        <ele>14.7</ele>
        <time>2016-07-06T17:56:06Z</time>
        <sat>10</sat>
      </trkpt>
      <trkpt lat="43.601909" lon="11.017510">
        <ele>15.7</ele>
        <time>2016-07-06T17:56:08Z</time>
        <sat>10</sat>
      </trkpt>
      <trkpt lat="43.602011" lon="11.017471">
        <ele>16.0</ele>
        <time>2016-07-06T17:56:09Z</time>
        <sat>10</sat>
      </trkpt>
      <trkpt lat="43.602133" lon="11.017429">
        <ele>15.9</ele>
        <time>2016-07-06T17:56:10Z</time>
        <sat>10</sat>
      </trkpt>
      <trkpt lat="43.602276" lon="11.017383">
        <ele>15.9</ele>
        <time>2016-07-06T17:56:11Z</time>
        <sat>10</sat>
      </trkpt>
      <trkpt lat="43.602438" lon="11.017331">
        <ele>15.9</ele>
        <time>2016-07-06T17:56:12Z</time>
        <sat>10</sat>
      </trkpt>
      <trkpt lat="43.602616" lon="11.017272">
        <ele>15.8</ele>
        <time>2016-07-06T17:56:13Z</time>
        <sat>10</sat>
      </trkpt>
      <trkpt lat="43.602799" lon="11.017211">
        <ele>15.9</ele>
        <time>2016-07-06T17:56:14Z</time>
        <sat>10</sat>
      </trkpt>
      <trkpt lat="43.602983" lon="11.017148">
        <ele>15.7</ele>
        <time>2016-07-06T17:56:15Z</time>
        <sat>10</sat>
      </trkpt>
      <trkpt lat="43.603166" lon="11.017086">
        <ele>15.7</ele>
        <time>2016-07-06T17:56:16Z</time>
        <sat>10</sat>
      </trkpt>
      <trkpt lat="43.603346" lon="11.017024">
        <ele>15.6</ele>
        <time>2016-07-06T17:56:17Z</time>
        <sat>10</sat>
      </trkpt>
      <trkpt lat="43.603526" lon="11.016961">
        <ele>15.7</ele>
        <time>2016-07-06T17:56:18Z</time>
        <sat>10</sat>
      </trkpt>
      <trkpt lat="43.603705" lon="11.016898">
        <ele>15.9</ele>
        <time>2016-07-06T17:56:19Z</time>
        <sat>10</sat>
      </trkpt>
      <trkpt lat="43.603884" lon="11.016839">
        <ele>16.1</ele>
        <time>2016-07-06T17:56:20Z</time>
        <sat>10</sat>
      </trkpt>
      <trkpt lat="43.604058" lon="11.016785">
        <ele>16.3</ele>
        <time>2016-07-06T17:56:21Z</time>
        <sat>10</sat>
      </trkpt>
      <trkpt lat="43.604228" lon="11.016731">
        <ele>16.6</ele>
        <time>2016-07-06T17:56:22Z</time>
        <sat>10</sat>
      </trkpt>
      <trkpt lat="43.604582" lon="11.016615">
        <ele>17.1</ele>
        <time>2016-07-06T17:56:24Z</time>
        <sat>10</sat>
      </trkpt>
      <trkpt lat="43.604755" lon="11.016557">
        <ele>17.5</ele>
        <time>2016-07-06T17:56:25Z</time>
        <sat>10</sat>
      </trkpt>
      <trkpt lat="43.604925" lon="11.016500">
        <ele>17.8</ele>
        <time>2016-07-06T17:56:26Z</time>
        <sat>10</sat>
      </trkpt>
      <trkpt lat="43.605090" lon="11.016444">
        <ele>18.1</ele>
        <time>2016-07-06T17:56:27Z</time>
        <sat>10</sat>
      </trkpt>
      <trkpt lat="43.605249" lon="11.016390">
        <ele>18.3</ele>
        <time>2016-07-06T17:56:28Z</time>
        <sat>10</sat>
      </trkpt>
      <trkpt lat="43.605407" lon="11.016339">
        <ele>18.5</ele>
        <time>2016-07-06T17:56:29Z</time>
        <sat>10</sat>
      </trkpt>
      <trkpt lat="43.605567" lon="11.016285">
        <ele>18.7</ele>
        <time>2016-07-06T17:56:30Z</time>
        <sat>10</sat>
      </trkpt>
      <trkpt lat="43.605733" lon="11.016231">
        <ele>19.1</ele>
        <time>2016-07-06T17:56:31Z</time>
        <sat>8</sat>
      </trkpt>
      <trkpt lat="43.605909" lon="11.016180">
        <ele>19.2</ele>
        <time>2016-07-06T17:56:32Z</time>
        <sat>9</sat>
      </trkpt>
      <trkpt lat="43.606091" lon="11.016132">
        <ele>19.1</ele>
        <time>2016-07-06T17:56:33Z</time>
        <sat>9</sat>
      </trkpt>
      <trkpt lat="43.606270" lon="11.016093">
        <ele>19.0</ele>
        <time>2016-07-06T17:56:34Z</time>
        <sat>9</sat>
      </trkpt>
      <trkpt lat="43.606448" lon="11.016077">
        <ele>19.0</ele>
        <time>2016-07-06T17:56:35Z</time>
        <sat>9</sat>
      </trkpt>
      <trkpt lat="43.606629" lon="11.016077">
        <ele>19.1</ele>
        <time>2016-07-06T17:56:36Z</time>
        <sat>9</sat>
      </trkpt>
      <trkpt lat="43.606815" lon="11.016085">
        <ele>19.1</ele>
        <time>2016-07-06T17:56:37Z</time>
        <sat>9</sat>
      </trkpt>
      <trkpt lat="43.607007" lon="11.016099">
        <ele>19.2</ele>
        <time>2016-07-06T17:56:38Z</time>
        <sat>9</sat>
      </trkpt>
      <trkpt lat="43.607206" lon="11.016114">
        <ele>19.5</ele>
        <time>2016-07-06T17:56:39Z</time>
        <sat>9</sat>
      </trkpt>
      <trkpt lat="43.607409" lon="11.016129">
        <ele>19.9</ele>
        <time>2016-07-06T17:56:40Z</time>
        <sat>9</sat>
      </trkpt>
      <trkpt lat="43.607611" lon="11.016143">
        <ele>20.4</ele>
        <time>2016-07-06T17:56:41Z</time>
        <sat>9</sat>
      </trkpt>
      <trkpt lat="43.607805" lon="11.016153">
        <ele>20.9</ele>
        <time>2016-07-06T17:56:42Z</time>
        <sat>9</sat>
      </trkpt>
      <trkpt lat="43.607989" lon="11.016167">
        <ele>21.1</ele>
        <time>2016-07-06T17:56:43Z</time>
        <sat>9</sat>
      </trkpt>
      <trkpt lat="43.608160" lon="11.016190">
        <ele>21.3</ele>
        <time>2016-07-06T17:56:44Z</time>
        <sat>9</sat>
      </trkpt>
      <trkpt lat="43.608317" lon="11.016237">
        <ele>21.6</ele>
        <time>2016-07-06T17:56:45Z</time>
        <sat>9</sat>
      </trkpt>
      <trkpt lat="43.608471" lon="11.016308">
        <ele>21.6</ele>
        <time>2016-07-06T17:56:46Z</time>
        <sat>9</sat>
      </trkpt>
      <trkpt lat="43.608622" lon="11.016401">
        <ele>21.8</ele>
        <time>2016-07-06T17:56:47Z</time>
        <sat>7</sat>
      </trkpt>
      <trkpt lat="43.608776" lon="11.016525">
        <ele>21.8</ele>
        <time>2016-07-06T17:56:48Z</time>
        <sat>9</sat>
      </trkpt>
      <trkpt lat="43.608939" lon="11.016663">
        <ele>21.8</ele>
        <time>2016-07-06T17:56:49Z</time>
        <sat>9</sat>
      </trkpt>
      <trkpt lat="43.609115" lon="11.016788">
        <ele>21.8</ele>
        <time>2016-07-06T17:56:50Z</time>
        <sat>9</sat>
      </trkpt>
      <trkpt lat="43.609291" lon="11.016897">
        <ele>21.8</ele>
        <time>2016-07-06T17:56:51Z</time>
        <sat>9</sat>
      </trkpt>
      <trkpt lat="43.609452" lon="11.017005">
        <ele>22.0</ele>
        <time>2016-07-06T17:56:52Z</time>
        <sat>9</sat>
      </trkpt>
      <trkpt lat="43.609599" lon="11.017139">
        <ele>22.1</ele>
        <time>2016-07-06T17:56:53Z</time>
        <sat>9</sat>
      </trkpt>
      <trkpt lat="43.609737" lon="11.017301">
        <ele>22.2</ele>
        <time>2016-07-06T17:56:54Z</time>
        <sat>8</sat>
      </trkpt>
      <trkpt lat="43.609880" lon="11.017473">
        <ele>22.3</ele>
        <time>2016-07-06T17:56:55Z</time>
        <sat>9</sat>
      </trkpt>
      <trkpt lat="43.610040" lon="11.017637">
        <ele>22.5</ele>
        <time>2016-07-06T17:56:56Z</time>
        <sat>9</sat>
      </trkpt>
      <trkpt lat="43.610213" lon="11.017786">
        <ele>22.5</ele>
        <time>2016-07-06T17:56:57Z</time>
        <sat>9</sat>
      </trkpt>
      <trkpt lat="43.610384" lon="11.017926">
        <ele>22.4</ele>
        <time>2016-07-06T17:56:58Z</time>
        <sat>9</sat>
      </trkpt>
      <trkpt lat="43.610545" lon="11.018064">
        <ele>22.3</ele>
        <time>2016-07-06T17:56:59Z</time>
        <sat>9</sat>
      </trkpt>
      <trkpt lat="43.610694" lon="11.018204">
        <ele>22.2</ele>
        <time>2016-07-06T17:57:00Z</time>
        <sat>9</sat>
      </trkpt>
      <trkpt lat="43.610836" lon="11.018345">
        <ele>22.2</ele>
        <time>2016-07-06T17:57:01Z</time>
        <sat>9</sat>
      </trkpt>
      <trkpt lat="43.610977" lon="11.018491">
        <ele>22.2</ele>
        <time>2016-07-06T17:57:02Z</time>
        <sat>9</sat>
      </trkpt>
      <trkpt lat="43.611127" lon="11.018640">
        <ele>22.5</ele>
        <time>2016-07-06T17:57:03Z</time>
        <sat>9</sat>
      </trkpt>
      <trkpt lat="43.611290" lon="11.018790">
        <ele>22.7</ele>
        <time>2016-07-06T17:57:04Z</time>
        <sat>9</sat>
      </trkpt>
      <trkpt lat="43.611467" lon="11.018939">
        <ele>22.6</ele>
        <time>2016-07-06T17:57:05Z</time>
        <sat>9</sat>
      </trkpt>
      <trkpt lat="43.611656" lon="11.019088">
        <ele>22.3</ele>
        <time>2016-07-06T17:57:06Z</time>
        <sat>9</sat>
      </trkpt>
      <trkpt lat="43.611856" lon="11.019233">
        <ele>21.8</ele>
        <time>2016-07-06T17:57:07Z</time>
        <sat>9</sat>
      </trkpt>
      <trkpt lat="43.612054" lon="11.019370">
        <ele>21.4</ele>
        <time>2016-07-06T17:57:08Z</time>
        <sat>9</sat>
      </trkpt>
      <trkpt lat="43.612242" lon="11.019499">
        <ele>21.0</ele>
        <time>2016-07-06T17:57:09Z</time>
        <sat>9</sat>
      </trkpt>
      <trkpt lat="43.612418" lon="11.019623">
        <ele>20.8</ele>
        <time>2016-07-06T17:57:10Z</time>
        <sat>9</sat>
      </trkpt>
      <trkpt lat="43.612587" lon="11.019741">
        <ele>20.6</ele>
        <time>2016-07-06T17:57:11Z</time>
        <sat>9</sat>
      </trkpt>
      <trkpt lat="43.612748" lon="11.019856">
        <ele>20.6</ele>
        <time>2016-07-06T17:57:12Z</time>
        <sat>9</sat>
      </trkpt>
      <trkpt lat="43.612897" lon="11.019963">
        <ele>20.6</ele>
        <time>2016-07-06T17:57:13Z</time>
        <sat>9</sat>
      </trkpt>
      <trkpt lat="43.613027" lon="11.020075">
        <ele>20.7</ele>
        <time>2016-07-06T17:57:14Z</time>
        <sat>9</sat>
      </trkpt>
      <trkpt lat="43.613137" lon="11.020210">
        <ele>20.7</ele>
        <time>2016-07-06T17:57:15Z</time>
        <sat>9</sat>
      </trkpt>
      <trkpt lat="43.613225" lon="11.020378">
        <ele>20.8</ele>
        <time>2016-07-06T17:57:16Z</time>
        <sat>9</sat>
      </trkpt>
      <trkpt lat="43.613291" lon="11.020581">
        <ele>21.0</ele>
        <time>2016-07-06T17:57:17Z</time>
        <sat>9</sat>
      </trkpt>
      <trkpt lat="43.613344" lon="11.020815">
        <ele>21.2</ele>
        <time>2016-07-06T17:57:18Z</time>
        <sat>9</sat>
      </trkpt>
      <trkpt lat="43.613398" lon="11.021067">
        <ele>21.3</ele>
        <time>2016-07-06T17:57:19Z</time>
        <sat>9</sat>
      </trkpt>
      <trkpt lat="43.613450" lon="11.021319">
        <ele>21.6</ele>
        <time>2016-07-06T17:57:20Z</time>
        <sat>9</sat>
      </trkpt>
      <trkpt lat="43.613498" lon="11.021560">
        <ele>22.1</ele>
        <time>2016-07-06T17:57:21Z</time>
        <sat>9</sat>
      </trkpt>
      <trkpt lat="43.613546" lon="11.021788">
        <ele>22.7</ele>
        <time>2016-07-06T17:57:22Z</time>
        <sat>9</sat>
      </trkpt>
      <trkpt lat="43.613595" lon="11.021993">
        <ele>22.4</ele>
        <time>2016-07-06T17:57:23Z</time>
        <sat>9</sat>
      </trkpt>
      <trkpt lat="43.613652" lon="11.022173">
        <ele>23.7</ele>
        <time>2016-07-06T17:57:24Z</time>
        <sat>9</sat>
      </trkpt>
      <trkpt lat="43.613823" lon="11.022484">
        <ele>22.4</ele>
        <time>2016-07-06T17:57:26Z</time>
        <sat>9</sat>
      </trkpt>
      <trkpt lat="43.613959" lon="11.022611">
        <ele>22.3</ele>
        <time>2016-07-06T17:57:27Z</time>
        <sat>9</sat>
      </trkpt>
      <trkpt lat="43.614121" lon="11.022713">
        <ele>22.3</ele>
        <time>2016-07-06T17:57:28Z</time>
        <sat>9</sat>
      </trkpt>
      <trkpt lat="43.614299" lon="11.022802">
        <ele>22.1</ele>
        <time>2016-07-06T17:57:29Z</time>
        <sat>9</sat>
      </trkpt>
      <trkpt lat="43.614488" lon="11.022888">
        <ele>22.0</ele>
        <time>2016-07-06T17:57:30Z</time>
        <sat>9</sat>
      </trkpt>
      <trkpt lat="43.614676" lon="11.022971">
        <ele>21.9</ele>
        <time>2016-07-06T17:57:31Z</time>
        <sat>9</sat>
      </trkpt>
      <trkpt lat="43.614851" lon="11.023049">
        <ele>21.9</ele>
        <time>2016-07-06T17:57:32Z</time>
        <sat>9</sat>
      </trkpt>
      <trkpt lat="43.615004" lon="11.023115">
        <ele>22.1</ele>
        <time>2016-07-06T17:57:33Z</time>
        <sat>9</sat>
      </trkpt>
      <trkpt lat="43.615133" lon="11.023172">
        <ele>22.6</ele>
        <time>2016-07-06T17:57:34Z</time>
        <sat>9</sat>
      </trkpt>
      <trkpt lat="43.615239" lon="11.023229">
        <ele>22.6</ele>
        <time>2016-07-06T17:57:35Z</time>
        <sat>9</sat>
      </trkpt>
      <trkpt lat="43.615327" lon="11.023307">
        <ele>22.0</ele>
        <time>2016-07-06T17:57:36Z</time>
        <sat>8</sat>
      </trkpt>
      <trkpt lat="43.615400" lon="11.023425">
        <ele>21.7</ele>
        <time>2016-07-06T17:57:37Z</time>
        <sat>9</sat>
      </trkpt>
      <trkpt lat="43.615456" lon="11.023581">
        <ele>21.5</ele>
        <time>2016-07-06T17:57:38Z</time>
        <sat>9</sat>
      </trkpt>
      <trkpt lat="43.615498" lon="11.023736">
        <ele>21.4</ele>
        <time>2016-07-06T17:57:39Z</time>
        <sat>9</sat>
      </trkpt>
      <trkpt lat="43.615528" lon="11.023868">
        <ele>21.3</ele>
        <time>2016-07-06T17:57:40Z</time>
        <sat>9</sat>
      </trkpt>
      <trkpt lat="43.615589" lon="11.024067">
        <ele>21.2</ele>
        <time>2016-07-06T17:57:42Z</time>
        <sat>9</sat>
      </trkpt>
      <trkpt lat="43.615662" lon="11.024163">
        <ele>20.9</ele>
        <time>2016-07-06T17:57:44Z</time>
        <sat>9</sat>
      </trkpt>
      <trkpt lat="43.615746" lon="11.024002">
        <ele>20.1</ele>
        <time>2016-07-06T17:57:47Z</time>
        <sat>9</sat>
      </trkpt>
      <trkpt lat="43.615776" lon="11.023870">
        <ele>20.0</ele>
        <time>2016-07-06T17:57:48Z</time>
        <sat>9</sat>
      </trkpt>
      <trkpt lat="43.615814" lon="11.023703">
        <ele>20.0</ele>
        <time>2016-07-06T17:57:49Z</time>
        <sat>9</sat>
      </trkpt>
      <trkpt lat="43.615867" lon="11.023512">
        <ele>19.9</ele>
        <time>2016-07-06T17:57:50Z</time>
        <sat>9</sat>
      </trkpt>
      <trkpt lat="43.615934" lon="11.023302">
        <ele>19.8</ele>
        <time>2016-07-06T17:57:51Z</time>
        <sat>9</sat>
      </trkpt>
      <trkpt lat="43.616006" lon="11.023076">
        <ele>19.7</ele>
        <time>2016-07-06T17:57:52Z</time>
        <sat>9</sat>
      </trkpt>
      <trkpt lat="43.616077" lon="11.022846">
        <ele>19.6</ele>
        <time>2016-07-06T17:57:53Z</time>
        <sat>9</sat>
      </trkpt>
      <trkpt lat="43.616143" lon="11.022620">
        <ele>19.5</ele>
        <time>2016-07-06T17:57:54Z</time>
        <sat>9</sat>
      </trkpt>
      <trkpt lat="43.616207" lon="11.022402">
        <ele>19.5</ele>
        <time>2016-07-06T17:57:55Z</time>
        <sat>9</sat>
      </trkpt>
      <trkpt lat="43.616268" lon="11.022192">
        <ele>19.4</ele>
        <time>2016-07-06T17:57:56Z</time>
        <sat>9</sat>
      </trkpt>
      <trkpt lat="43.616317" lon="11.021987">
        <ele>19.5</ele>
        <time>2016-07-06T17:57:57Z</time>
        <sat>9</sat>
      </trkpt>
      <trkpt lat="43.616346" lon="11.021793">
        <ele>19.8</ele>
        <time>2016-07-06T17:57:58Z</time>
        <sat>9</sat>
      </trkpt>
      <trkpt lat="43.616358" lon="11.021611">
        <ele>20.2</ele>
        <time>2016-07-06T17:57:59Z</time>
        <sat>9</sat>
      </trkpt>
      <trkpt lat="43.616358" lon="11.021453">
        <ele>21.0</ele>
        <time>2016-07-06T17:58:00Z</time>
        <sat>9</sat>
      </trkpt>
      <trkpt lat="43.616355" lon="11.021315">
        <ele>21.6</ele>
        <time>2016-07-06T17:58:01Z</time>
        <sat>9</sat>
      </trkpt>
      <trkpt lat="43.616351" lon="11.021104">
        <ele>22.3</ele>
        <time>2016-07-06T17:58:03Z</time>
        <sat>9</sat>
      </trkpt>
      <trkpt lat="43.616344" lon="11.020964">
        <ele>23.4</ele>
        <time>2016-07-06T17:58:06Z</time>
        <sat>9</sat>
      </trkpt>
      <trkpt lat="43.616321" lon="11.020829">
        <ele>25.2</ele>
        <time>2016-07-06T17:58:44Z</time>
        <sat>10</sat>
      </trkpt>
      <trkpt lat="43.616244" lon="11.020433">
        <ele>24.4</ele>
        <time>2016-07-06T17:58:48Z</time>
        <sat>10</sat>
      </trkpt>
      <trkpt lat="43.616220" lon="11.020314">
        <ele>24.2</ele>
        <time>2016-07-06T17:58:49Z</time>
        <sat>10</sat>
      </trkpt>
      <trkpt lat="43.616169" lon="11.020076">
        <ele>23.7</ele>
        <time>2016-07-06T17:58:51Z</time>
        <sat>10</sat>
      </trkpt>
      <trkpt lat="43.616147" lon="11.019941">
        <ele>23.2</ele>
        <time>2016-07-06T17:58:52Z</time>
        <sat>10</sat>
      </trkpt>
      <trkpt lat="43.616134" lon="11.019800">
        <ele>23.1</ele>
        <time>2016-07-06T17:58:53Z</time>
        <sat>10</sat>
      </trkpt>
      <trkpt lat="43.616134" lon="11.019649">
        <ele>22.9</ele>
        <time>2016-07-06T17:58:54Z</time>
        <sat>10</sat>
      </trkpt>
      <trkpt lat="43.616150" lon="11.019481">
        <ele>22.6</ele>
        <time>2016-07-06T17:58:55Z</time>
        <sat>10</sat>
      </trkpt>
      <trkpt lat="43.616172" lon="11.019306">
        <ele>22.4</ele>
        <time>2016-07-06T17:58:56Z</time>
        <sat>10</sat>
      </trkpt>
      <trkpt lat="43.616192" lon="11.019131">
        <ele>22.2</ele>
        <time>2016-07-06T17:58:57Z</time>
        <sat>10</sat>
      </trkpt>
      <trkpt lat="43.616208" lon="11.018971">
        <ele>22.1</ele>
        <time>2016-07-06T17:58:58Z</time>
        <sat>10</sat>
      </trkpt>
      <trkpt lat="43.616216" lon="11.018830">
        <ele>21.8</ele>
        <time>2016-07-06T17:58:59Z</time>
        <sat>10</sat>
      </trkpt>
      <trkpt lat="43.616217" lon="11.018589">
        <ele>22.0</ele>
        <time>2016-07-06T17:59:01Z</time>
        <sat>10</sat>
      </trkpt>
      <trkpt lat="43.616172" lon="11.018352">
        <ele>21.7</ele>
        <time>2016-07-06T17:59:03Z</time>
        <sat>10</sat>
      </trkpt>
      <trkpt lat="43.616121" lon="11.018244">
        <ele>21.6</ele>
        <time>2016-07-06T17:59:04Z</time>
        <sat>10</sat>
      </trkpt>
      <trkpt lat="43.616045" lon="11.018157">
        <ele>21.7</ele>
        <time>2016-07-06T17:59:05Z</time>
        <sat>10</sat>
      </trkpt>
      <trkpt lat="43.615963" lon="11.018083">
        <ele>21.9</ele>
        <time>2016-07-06T17:59:06Z</time>
        <sat>9</sat>
      </trkpt>
      <trkpt lat="43.615837" lon="11.017931">
        <ele>22.6</ele>
        <time>2016-07-06T17:59:08Z</time>
        <sat>9</sat>
      </trkpt>
      <trkpt lat="43.615775" lon="11.017706">
        <ele>22.5</ele>
        <time>2016-07-06T17:59:10Z</time>
        <sat>10</sat>
      </trkpt>
      <trkpt lat="43.615759" lon="11.017558">
        <ele>22.6</ele>
        <time>2016-07-06T17:59:11Z</time>
        <sat>10</sat>
      </trkpt>
      <trkpt lat="43.615744" lon="11.017394">
        <ele>23.0</ele>
        <time>2016-07-06T17:59:12Z</time>
        <sat>10</sat>
      </trkpt>
      <trkpt lat="43.615723" lon="11.017225">
        <ele>23.4</ele>
        <time>2016-07-06T17:59:13Z</time>
        <sat>8</sat>
      </trkpt>
      <trkpt lat="43.615695" lon="11.017055">
        <ele>23.8</ele>
        <time>2016-07-06T17:59:14Z</time>
        <sat>9</sat>
      </trkpt>
      <trkpt lat="43.615659" lon="11.016886">
        <ele>24.0</ele>
        <time>2016-07-06T17:59:15Z</time>
        <sat>9</sat>
      </trkpt>
      <trkpt lat="43.615607" lon="11.016721">
        <ele>24.0</ele>
        <time>2016-07-06T17:59:16Z</time>
        <sat>7</sat>
      </trkpt>
      <trkpt lat="43.615536" lon="11.016559">
        <ele>23.8</ele>
        <time>2016-07-06T17:59:17Z</time>
        <sat>9</sat>
      </trkpt>
      <trkpt lat="43.615448" lon="11.016391">
        <ele>23.6</ele>
        <time>2016-07-06T17:59:18Z</time>
        <sat>8</sat>
      </trkpt>
      <trkpt lat="43.615357" lon="11.016227">
        <ele>23.5</ele>
        <time>2016-07-06T17:59:19Z</time>
        <sat>8</sat>
      </trkpt>
      <trkpt lat="43.615277" lon="11.016076">
        <ele>23.4</ele>
        <time>2016-07-06T17:59:20Z</time>
        <sat>8</sat>
      </trkpt>
      <trkpt lat="43.615197" lon="11.015932">
        <ele>23.2</ele>
        <time>2016-07-06T17:59:21Z</time>
        <sat>8</sat>
      </trkpt>
      <trkpt lat="43.615117" lon="11.015776">
        <ele>23.0</ele>
        <time>2016-07-06T17:59:22Z</time>
        <sat>8</sat>
      </trkpt>
      <trkpt lat="43.615039" lon="11.015611">
        <ele>22.7</ele>
        <time>2016-07-06T17:59:23Z</time>
        <sat>8</sat>
      </trkpt>
      <trkpt lat="43.614968" lon="11.015470">
        <ele>22.3</ele>
        <time>2016-07-06T17:59:24Z</time>
        <sat>8</sat>
      </trkpt>
      <trkpt lat="43.614894" lon="11.015356">
        <ele>21.9</ele>
        <time>2016-07-06T17:59:25Z</time>
        <sat>8</sat>
      </trkpt>
      <trkpt lat="43.614804" lon="11.015248">
        <ele>21.5</ele>
        <time>2016-07-06T17:59:26Z</time>
        <sat>8</sat>
      </trkpt>
      <trkpt lat="43.614707" lon="11.015117">
        <ele>21.1</ele>
        <time>2016-07-06T17:59:27Z</time>
        <sat>8</sat>
      </trkpt>
      <trkpt lat="43.614606" lon="11.014964">
        <ele>20.5</ele>
        <time>2016-07-06T17:59:28Z</time>
        <sat>8</sat>
      </trkpt>
      <trkpt lat="43.614503" lon="11.014807">
        <ele>20.0</ele>
        <time>2016-07-06T17:59:29Z</time>
        <sat>8</sat>
      </trkpt>
      <trkpt lat="43.614406" lon="11.014658">
        <ele>19.8</ele>
        <time>2016-07-06T17:59:30Z</time>
        <sat>8</sat>
      </trkpt>
      <trkpt lat="43.614320" lon="11.014537">
        <ele>19.6</ele>
        <time>2016-07-06T17:59:31Z</time>
        <sat>8</sat>
      </trkpt>
      <trkpt lat="43.614241" lon="11.014434">
        <ele>20.5</ele>
        <time>2016-07-06T17:59:32Z</time>
        <sat>9</sat>
      </trkpt>
      <trkpt lat="43.614160" lon="11.014331">
        <ele>20.6</ele>
        <time>2016-07-06T17:59:33Z</time>
        <sat>9</sat>
      </trkpt>
      <trkpt lat="43.614070" lon="11.014218">
        <ele>21.2</ele>
        <time>2016-07-06T17:59:34Z</time>
        <sat>9</sat>
      </trkpt>
      <trkpt lat="43.613978" lon="11.014083">
        <ele>21.0</ele>
        <time>2016-07-06T17:59:35Z</time>
        <sat>9</sat>
      </trkpt>
      <trkpt lat="43.613890" lon="11.013927">
        <ele>20.7</ele>
        <time>2016-07-06T17:59:36Z</time>
        <sat>9</sat>
      </trkpt>
      <trkpt lat="43.613806" lon="11.013757">
        <ele>20.3</ele>
        <time>2016-07-06T17:59:37Z</time>
        <sat>9</sat>
      </trkpt>
      <trkpt lat="43.613732" lon="11.013584">
        <ele>20.1</ele>
        <time>2016-07-06T17:59:38Z</time>
        <sat>9</sat>
      </trkpt>
      <trkpt lat="43.613675" lon="11.013414">
        <ele>20.0</ele>
        <time>2016-07-06T17:59:39Z</time>
        <sat>9</sat>
      </trkpt>
      <trkpt lat="43.613635" lon="11.013245">
        <ele>19.5</ele>
        <time>2016-07-06T17:59:40Z</time>
        <sat>9</sat>
      </trkpt>
      <trkpt lat="43.613607" lon="11.013075">
        <ele>19.4</ele>
        <time>2016-07-06T17:59:41Z</time>
        <sat>9</sat>
      </trkpt>
      <trkpt lat="43.613594" lon="11.012903">
        <ele>19.1</ele>
        <time>2016-07-06T17:59:42Z</time>
        <sat>8</sat>
      </trkpt>
      <trkpt lat="43.613592" lon="11.012737">
        <ele>18.9</ele>
        <time>2016-07-06T17:59:43Z</time>
        <sat>9</sat>
      </trkpt>
      <trkpt lat="43.613598" lon="11.012595">
        <ele>18.6</ele>
        <time>2016-07-06T17:59:44Z</time>
        <sat>9</sat>
      </trkpt>
      <trkpt lat="43.613613" lon="11.012414">
        <ele>18.6</ele>
        <time>2016-07-06T17:59:46Z</time>
        <sat>10</sat>
      </trkpt>
      <trkpt lat="43.613875" lon="11.012510">
        <ele>20.2</ele>
        <time>2016-07-06T17:59:52Z</time>
        <sat>10</sat>
      </trkpt>
      <trkpt lat="43.614047" lon="11.012484">
        <ele>22.7</ele>
        <time>2016-07-06T17:59:54Z</time>
        <sat>10</sat>
      </trkpt>
      <trkpt lat="43.614139" lon="11.012436">
        <ele>24.1</ele>
        <time>2016-07-06T17:59:55Z</time>
        <sat>10</sat>
      </trkpt>
      <trkpt lat="43.614238" lon="11.012384">
        <ele>25.3</ele>
        <time>2016-07-06T17:59:56Z</time>
        <sat>8</sat>
      </trkpt>
      <trkpt lat="43.614328" lon="11.012370">
        <ele>27.0</ele>
        <time>2016-07-06T17:59:57Z</time>
        <sat>9</sat>
      </trkpt>
      <trkpt lat="43.614425" lon="11.012486">
        <ele>32.6</ele>
        <time>2016-07-06T18:00:00Z</time>
        <sat>10</sat>
      </trkpt>
      <trkpt lat="43.614446" lon="11.012737">
        <ele>36.7</ele>
        <time>2016-07-06T18:00:02Z</time>
        <sat>9</sat>
      </trkpt>
      <trkpt lat="43.614450" lon="11.012901">
        <ele>38.5</ele>
        <time>2016-07-06T18:00:03Z</time>
        <sat>9</sat>
      </trkpt>
      <trkpt lat="43.614457" lon="11.013066">
        <ele>39.5</ele>
        <time>2016-07-06T18:00:04Z</time>
        <sat>10</sat>
      </trkpt>
      <trkpt lat="43.614474" lon="11.013208">
        <ele>39.9</ele>
        <time>2016-07-06T18:00:05Z</time>
        <sat>10</sat>
      </trkpt>
      <trkpt lat="43.614526" lon="11.013322">
        <ele>41.4</ele>
        <time>2016-07-06T18:00:06Z</time>
        <sat>9</sat>
      </trkpt>
      <trkpt lat="43.614594" lon="11.013416">
        <ele>43.0</ele>
        <time>2016-07-06T18:00:07Z</time>
        <sat>10</sat>
      </trkpt>
      <trkpt lat="43.614680" lon="11.013476">
        <ele>44.2</ele>
        <time>2016-07-06T18:00:08Z</time>
        <sat>10</sat>
      </trkpt>
      <trkpt lat="43.614793" lon="11.013500">
        <ele>46.6</ele>
        <time>2016-07-06T18:00:09Z</time>
        <sat>7</sat>
      </trkpt>
      <trkpt lat="43.614905" lon="11.013507">
        <ele>48.4</ele>
        <time>2016-07-06T18:00:10Z</time>
        <sat>10</sat>
      </trkpt>
      <trkpt lat="43.615032" lon="11.013508">
        <ele>50.5</ele>
        <time>2016-07-06T18:00:11Z</time>
        <sat>10</sat>
      </trkpt>
      <trkpt lat="43.615165" lon="11.013516">
        <ele>52.5</ele>
        <time>2016-07-06T18:00:12Z</time>
        <sat>10</sat>
      </trkpt>
      <trkpt lat="43.615292" lon="11.013538">
        <ele>55.5</ele>
        <time>2016-07-06T18:00:13Z</time>
        <sat>10</sat>
      </trkpt>
      <trkpt lat="43.615410" lon="11.013562">
        <ele>57.5</ele>
        <time>2016-07-06T18:00:14Z</time>
        <sat>10</sat>
      </trkpt>
      <trkpt lat="43.615518" lon="11.013549">
        <ele>59.5</ele>
        <time>2016-07-06T18:00:15Z</time>
        <sat>10</sat>
      </trkpt>
      <trkpt lat="43.615609" lon="11.013489">
        <ele>60.5</ele>
        <time>2016-07-06T18:00:16Z</time>
        <sat>9</sat>
      </trkpt>
      <trkpt lat="43.615692" lon="11.013389">
        <ele>62.7</ele>
        <time>2016-07-06T18:00:17Z</time>
        <sat>10</sat>
      </trkpt>
      <trkpt lat="43.615765" lon="11.013283">
        <ele>64.5</ele>
        <time>2016-07-06T18:00:18Z</time>
        <sat>10</sat>
      </trkpt>
      <trkpt lat="43.615841" lon="11.013207">
        <ele>66.0</ele>
        <time>2016-07-06T18:00:19Z</time>
        <sat>10</sat>
      </trkpt>
      <trkpt lat="43.615932" lon="11.013180">
        <ele>67.8</ele>
        <time>2016-07-06T18:00:20Z</time>
        <sat>10</sat>
      </trkpt>
      <trkpt lat="43.616028" lon="11.013207">
        <ele>69.8</ele>
        <time>2016-07-06T18:00:21Z</time>
        <sat>10</sat>
      </trkpt>
      <trkpt lat="43.616117" lon="11.013282">
        <ele>71.5</ele>
        <time>2016-07-06T18:00:22Z</time>
        <sat>10</sat>
      </trkpt>
      <trkpt lat="43.616209" lon="11.013387">
        <ele>73.3</ele>
        <time>2016-07-06T18:00:23Z</time>
        <sat>10</sat>
      </trkpt>
      <trkpt lat="43.616307" lon="11.013501">
        <ele>75.0</ele>
        <time>2016-07-06T18:00:24Z</time>
        <sat>9</sat>
      </trkpt>
      <trkpt lat="43.616406" lon="11.013618">
        <ele>76.6</ele>
        <time>2016-07-06T18:00:25Z</time>
        <sat>10</sat>
      </trkpt>
      <trkpt lat="43.616495" lon="11.013725">
        <ele>78.2</ele>
        <time>2016-07-06T18:00:26Z</time>
        <sat>10</sat>
      </trkpt>
      <trkpt lat="43.616580" lon="11.013812">
        <ele>79.4</ele>
        <time>2016-07-06T18:00:27Z</time>
        <sat>9</sat>
      </trkpt>
      <trkpt lat="43.616673" lon="11.013857">
        <ele>80.6</ele>
        <time>2016-07-06T18:00:28Z</time>
        <sat>10</sat>
      </trkpt>
      <trkpt lat="43.616767" lon="11.013842">
        <ele>81.3</ele>
        <time>2016-07-06T18:00:29Z</time>
        <sat>10</sat>
      </trkpt>
      <trkpt lat="43.616887" lon="11.013801">
        <ele>81.7</ele>
        <time>2016-07-06T18:00:30Z</time>
        <sat>10</sat>
      </trkpt>
      <trkpt lat="43.617041" lon="11.013774">
        <ele>81.9</ele>
        <time>2016-07-06T18:00:31Z</time>
        <sat>10</sat>
      </trkpt>
      <trkpt lat="43.617212" lon="11.013764">
        <ele>80.8</ele>
        <time>2016-07-06T18:00:32Z</time>
        <sat>10</sat>
      </trkpt>
      <trkpt lat="43.617385" lon="11.013766">
        <ele>80.8</ele>
        <time>2016-07-06T18:00:33Z</time>
        <sat>10</sat>
      </trkpt>
      <trkpt lat="43.617573" lon="11.013779">
        <ele>80.4</ele>
        <time>2016-07-06T18:00:34Z</time>
        <sat>10</sat>
      </trkpt>
      <trkpt lat="43.617756" lon="11.013793">
        <ele>80.1</ele>
        <time>2016-07-06T18:00:35Z</time>
        <sat>10</sat>
      </trkpt>
      <trkpt lat="43.617934" lon="11.013804">
        <ele>79.9</ele>
        <time>2016-07-06T18:00:36Z</time>
        <sat>10</sat>
      </trkpt>
      <trkpt lat="43.618109" lon="11.013816">
        <ele>79.9</ele>
        <time>2016-07-06T18:00:37Z</time>
        <sat>10</sat>
      </trkpt>
      <trkpt lat="43.618286" lon="11.013831">
        <ele>80.0</ele>
        <time>2016-07-06T18:00:38Z</time>
        <sat>10</sat>
      </trkpt>
      <trkpt lat="43.618463" lon="11.013848">
        <ele>80.5</ele>
        <time>2016-07-06T18:00:39Z</time>
        <sat>10</sat>
      </trkpt>
      <trkpt lat="43.618638" lon="11.013863">
        <ele>81.3</ele>
        <time>2016-07-06T18:00:40Z</time>
        <sat>10</sat>
      </trkpt>
      <trkpt lat="43.618803" lon="11.013876">
        <ele>82.0</ele>
        <time>2016-07-06T18:00:41Z</time>
        <sat>10</sat>
      </trkpt>
      <trkpt lat="43.618952" lon="11.013892">
        <ele>82.3</ele>
        <time>2016-07-06T18:00:42Z</time>
        <sat>10</sat>
      </trkpt>
      <trkpt lat="43.619087" lon="11.013910">
        <ele>82.8</ele>
        <time>2016-07-06T18:00:43Z</time>
        <sat>10</sat>
      </trkpt>
      <trkpt lat="43.619214" lon="11.013930">
        <ele>82.9</ele>
        <time>2016-07-06T18:00:44Z</time>
        <sat>10</sat>
      </trkpt>
      <trkpt lat="43.619335" lon="11.013950">
        <ele>82.8</ele>
        <time>2016-07-06T18:00:45Z</time>
        <sat>10</sat>
      </trkpt>
      <trkpt lat="43.619452" lon="11.013970">
        <ele>82.2</ele>
        <time>2016-07-06T18:00:46Z</time>
        <sat>10</sat>
      </trkpt>
      <trkpt lat="43.619564" lon="11.013990">
        <ele>82.3</ele>
        <time>2016-07-06T18:00:47Z</time>
        <sat>10</sat>
      </trkpt>
      <trkpt lat="43.619670" lon="11.014010">
        <ele>82.4</ele>
        <time>2016-07-06T18:00:48Z</time>
        <sat>10</sat>
      </trkpt>
      <trkpt lat="43.619864" lon="11.014043">
        <ele>82.9</ele>
        <time>2016-07-06T18:00:50Z</time>
        <sat>10</sat>
      </trkpt>
      <trkpt lat="43.619959" lon="11.014060">
        <ele>83.4</ele>
        <time>2016-07-06T18:00:51Z</time>
        <sat>10</sat>
      </trkpt>
      <trkpt lat="43.620053" lon="11.014077">
        <ele>84.0</ele>
        <time>2016-07-06T18:00:52Z</time>
        <sat>9</sat>
      </trkpt>
      <trkpt lat="43.620145" lon="11.014099">
        <ele>84.9</ele>
        <time>2016-07-06T18:00:53Z</time>
        <sat>10</sat>
      </trkpt>
      <trkpt lat="43.620240" lon="11.014131">
        <ele>85.6</ele>
        <time>2016-07-06T18:00:54Z</time>
        <sat>10</sat>
      </trkpt>
      <trkpt lat="43.620344" lon="11.014167">
        <ele>86.4</ele>
        <time>2016-07-06T18:00:55Z</time>
        <sat>10</sat>
      </trkpt>
      <trkpt lat="43.620457" lon="11.014206">
        <ele>87.6</ele>
        <time>2016-07-06T18:00:56Z</time>
        <sat>10</sat>
      </trkpt>
      <trkpt lat="43.620573" lon="11.014252">
        <ele>88.8</ele>
        <time>2016-07-06T18:00:57Z</time>
        <sat>10</sat>
      </trkpt>
      <trkpt lat="43.620688" lon="11.014308">
        <ele>90.0</ele>
        <time>2016-07-06T18:00:58Z</time>
        <sat>10</sat>
      </trkpt>
      <trkpt lat="43.620802" lon="11.014368">
        <ele>90.9</ele>
        <time>2016-07-06T18:00:59Z</time>
        <sat>10</sat>
      </trkpt>
      <trkpt lat="43.620918" lon="11.014419">
        <ele>91.5</ele>
        <time>2016-07-06T18:01:00Z</time>
        <sat>10</sat>
      </trkpt>
      <trkpt lat="43.621044" lon="11.014451">
        <ele>92.0</ele>
        <time>2016-07-06T18:01:01Z</time>
        <sat>10</sat>
      </trkpt>
      <trkpt lat="43.621182" lon="11.014467">
        <ele>92.9</ele>
        <time>2016-07-06T18:01:02Z</time>
        <sat>10</sat>
      </trkpt>
      <trkpt lat="43.621332" lon="11.014473">
        <ele>93.9</ele>
        <time>2016-07-06T18:01:03Z</time>
        <sat>10</sat>
      </trkpt>
      <trkpt lat="43.621488" lon="11.014481">
        <ele>94.8</ele>
        <time>2016-07-06T18:01:04Z</time>
        <sat>10</sat>
      </trkpt>
      <trkpt lat="43.621634" lon="11.014492">
        <ele>95.9</ele>
        <time>2016-07-06T18:01:05Z</time>
        <sat>10</sat>
      </trkpt>
      <trkpt lat="43.621766" lon="11.014500">
        <ele>97.0</ele>
        <time>2016-07-06T18:01:06Z</time>
        <sat>10</sat>
      </trkpt>
      <trkpt lat="43.621891" lon="11.014506">
        <ele>98.2</ele>
        <time>2016-07-06T18:01:07Z</time>
        <sat>9</sat>
      </trkpt>
      <trkpt lat="43.622015" lon="11.014523">
        <ele>99.5</ele>
        <time>2016-07-06T18:01:08Z</time>
        <sat>10</sat>
      </trkpt>
      <trkpt lat="43.622142" lon="11.014561">
        <ele>100.7</ele>
        <time>2016-07-06T18:01:09Z</time>
        <sat>10</sat>
      </trkpt>
      <trkpt lat="43.622267" lon="11.014629">
        <ele>101.2</ele>
        <time>2016-07-06T18:01:10Z</time>
        <sat>10</sat>
      </trkpt>
      <trkpt lat="43.622397" lon="11.014715">
        <ele>101.0</ele>
        <time>2016-07-06T18:01:11Z</time>
        <sat>10</sat>
      </trkpt>
      <trkpt lat="43.622536" lon="11.014812">
        <ele>101.1</ele>
        <time>2016-07-06T18:01:12Z</time>
        <sat>10</sat>
      </trkpt>
      <trkpt lat="43.622689" lon="11.014904">
        <ele>100.8</ele>
        <time>2016-07-06T18:01:13Z</time>
        <sat>10</sat>
      </trkpt>
      <trkpt lat="43.622847" lon="11.014989">
        <ele>100.2</ele>
        <time>2016-07-06T18:01:14Z</time>
        <sat>10</sat>
      </trkpt>
      <trkpt lat="43.623003" lon="11.015070">
        <ele>99.6</ele>
        <time>2016-07-06T18:01:15Z</time>
        <sat>10</sat>
      </trkpt>
      <trkpt lat="43.623155" lon="11.015146">
        <ele>99.1</ele>
        <time>2016-07-06T18:01:16Z</time>
        <sat>10</sat>
      </trkpt>
      <trkpt lat="43.623303" lon="11.015206">
        <ele>98.3</ele>
        <time>2016-07-06T18:01:17Z</time>
        <sat>10</sat>
      </trkpt>
      <trkpt lat="43.623445" lon="11.015249">
        <ele>98.0</ele>
        <time>2016-07-06T18:01:18Z</time>
        <sat>9</sat>
      </trkpt>
      <trkpt lat="43.623576" lon="11.015284">
        <ele>98.0</ele>
        <time>2016-07-06T18:01:19Z</time>
        <sat>10</sat>
      </trkpt>
      <trkpt lat="43.623700" lon="11.015319">
        <ele>98.0</ele>
        <time>2016-07-06T18:01:20Z</time>
        <sat>10</sat>
      </trkpt>
      <trkpt lat="43.623822" lon="11.015368">
        <ele>97.8</ele>
        <time>2016-07-06T18:01:21Z</time>
        <sat>10</sat>
      </trkpt>
      <trkpt lat="43.623954" lon="11.015442">
        <ele>97.4</ele>
        <time>2016-07-06T18:01:22Z</time>
        <sat>10</sat>
      </trkpt>
      <trkpt lat="43.624090" lon="11.015538">
        <ele>96.9</ele>
        <time>2016-07-06T18:01:23Z</time>
        <sat>10</sat>
      </trkpt>
      <trkpt lat="43.624236" lon="11.015640">
        <ele>96.4</ele>
        <time>2016-07-06T18:01:24Z</time>
        <sat>10</sat>
      </trkpt>
      <trkpt lat="43.624389" lon="11.015736">
        <ele>95.8</ele>
        <time>2016-07-06T18:01:25Z</time>
        <sat>10</sat>
      </trkpt>
      <trkpt lat="43.624545" lon="11.015831">
        <ele>95.2</ele>
        <time>2016-07-06T18:01:26Z</time>
        <sat>10</sat>
      </trkpt>
      <trkpt lat="43.624699" lon="11.015937">
        <ele>95.0</ele>
        <time>2016-07-06T18:01:27Z</time>
        <sat>10</sat>
      </trkpt>
      <trkpt lat="43.624840" lon="11.016054">
        <ele>94.7</ele>
        <time>2016-07-06T18:01:28Z</time>
        <sat>10</sat>
      </trkpt>
      <trkpt lat="43.624966" lon="11.016182">
        <ele>94.7</ele>
        <time>2016-07-06T18:01:29Z</time>
        <sat>10</sat>
      </trkpt>
      <trkpt lat="43.625079" lon="11.016326">
        <ele>94.7</ele>
        <time>2016-07-06T18:01:30Z</time>
        <sat>10</sat>
      </trkpt>
      <trkpt lat="43.625186" lon="11.016489">
        <ele>94.8</ele>
        <time>2016-07-06T18:01:31Z</time>
        <sat>10</sat>
      </trkpt>
      <trkpt lat="43.625293" lon="11.016671">
        <ele>94.4</ele>
        <time>2016-07-06T18:01:32Z</time>
        <sat>10</sat>
      </trkpt>
      <trkpt lat="43.625393" lon="11.016875">
        <ele>93.9</ele>
        <time>2016-07-06T18:01:33Z</time>
        <sat>10</sat>
      </trkpt>
      <trkpt lat="43.625484" lon="11.017093">
        <ele>93.4</ele>
        <time>2016-07-06T18:01:34Z</time>
        <sat>10</sat>
      </trkpt>
      <trkpt lat="43.625565" lon="11.017320">
        <ele>93.2</ele>
        <time>2016-07-06T18:01:35Z</time>
        <sat>10</sat>
      </trkpt>
      <trkpt lat="43.625642" lon="11.017547">
        <ele>93.2</ele>
        <time>2016-07-06T18:01:36Z</time>
        <sat>10</sat>
      </trkpt>
      <trkpt lat="43.625720" lon="11.017772">
        <ele>93.3</ele>
        <time>2016-07-06T18:01:37Z</time>
        <sat>10</sat>
      </trkpt>
      <trkpt lat="43.625792" lon="11.017977">
        <ele>93.7</ele>
        <time>2016-07-06T18:01:38Z</time>
        <sat>10</sat>
      </trkpt>
      <trkpt lat="43.625863" lon="11.018166">
        <ele>94.4</ele>
        <time>2016-07-06T18:01:39Z</time>
        <sat>10</sat>
      </trkpt>
      <trkpt lat="43.625927" lon="11.018347">
        <ele>94.5</ele>
        <time>2016-07-06T18:01:40Z</time>
        <sat>10</sat>
      </trkpt>
      <trkpt lat="43.625982" lon="11.018515">
        <ele>96.1</ele>
        <time>2016-07-06T18:01:41Z</time>
        <sat>10</sat>
      </trkpt>
      <trkpt lat="43.626035" lon="11.018652">
        <ele>97.2</ele>
        <time>2016-07-06T18:01:42Z</time>
        <sat>10</sat>
      </trkpt>
      <trkpt lat="43.626087" lon="11.018759">
        <ele>98.1</ele>
        <time>2016-07-06T18:01:43Z</time>
        <sat>10</sat>
      </trkpt>
      <trkpt lat="43.626164" lon="11.018883">
        <ele>99.6</ele>
        <time>2016-07-06T18:01:45Z</time>
        <sat>10</sat>
      </trkpt>
      <trkpt lat="43.626270" lon="11.018988">
        <ele>100.8</ele>
        <time>2016-07-06T18:01:47Z</time>
        <sat>10</sat>
      </trkpt>
      <trkpt lat="43.626352" lon="11.019045">
        <ele>101.4</ele>
        <time>2016-07-06T18:01:48Z</time>
        <sat>10</sat>
      </trkpt>
      <trkpt lat="43.626439" lon="11.019099">
        <ele>101.9</ele>
        <time>2016-07-06T18:01:49Z</time>
        <sat>10</sat>
      </trkpt>
      <trkpt lat="43.626531" lon="11.019152">
        <ele>102.8</ele>
        <time>2016-07-06T18:01:50Z</time>
        <sat>10</sat>
      </trkpt>
      <trkpt lat="43.626754" lon="11.019258">
        <ele>104.9</ele>
        <time>2016-07-06T18:01:52Z</time>
        <sat>10</sat>
      </trkpt>
      <trkpt lat="43.626882" lon="11.019316">
        <ele>106.1</ele>
        <time>2016-07-06T18:01:53Z</time>
        <sat>10</sat>
      </trkpt>
      <trkpt lat="43.627014" lon="11.019375">
        <ele>107.2</ele>
        <time>2016-07-06T18:01:54Z</time>
        <sat>9</sat>
      </trkpt>
      <trkpt lat="43.627154" lon="11.019435">
        <ele>108.1</ele>
        <time>2016-07-06T18:01:55Z</time>
        <sat>10</sat>
      </trkpt>
      <trkpt lat="43.627292" lon="11.019497">
        <ele>109.3</ele>
        <time>2016-07-06T18:01:56Z</time>
        <sat>10</sat>
      </trkpt>
      <trkpt lat="43.627421" lon="11.019558">
        <ele>110.4</ele>
        <time>2016-07-06T18:01:57Z</time>
        <sat>10</sat>
      </trkpt>
      <trkpt lat="43.627542" lon="11.019619">
        <ele>111.5</ele>
        <time>2016-07-06T18:01:58Z</time>
        <sat>10</sat>
      </trkpt>
      <trkpt lat="43.627658" lon="11.019682">
        <ele>112.6</ele>
        <time>2016-07-06T18:01:59Z</time>
        <sat>9</sat>
      </trkpt>
      <trkpt lat="43.627773" lon="11.019739">
        <ele>113.6</ele>
        <time>2016-07-06T18:02:00Z</time>
        <sat>10</sat>
      </trkpt>
      <trkpt lat="43.627895" lon="11.019779">
        <ele>114.5</ele>
        <time>2016-07-06T18:02:01Z</time>
        <sat>9</sat>
      </trkpt>
      <trkpt lat="43.628017" lon="11.019810">
        <ele>115.0</ele>
        <time>2016-07-06T18:02:02Z</time>
        <sat>9</sat>
      </trkpt>
      <trkpt lat="43.628142" lon="11.019834">
        <ele>115.4</ele>
        <time>2016-07-06T18:02:03Z</time>
        <sat>9</sat>
      </trkpt>
      <trkpt lat="43.628262" lon="11.019847">
        <ele>114.8</ele>
        <time>2016-07-06T18:02:04Z</time>
        <sat>9</sat>
      </trkpt>
      <trkpt lat="43.628387" lon="11.019863">
        <ele>114.2</ele>
        <time>2016-07-06T18:02:05Z</time>
        <sat>9</sat>
      </trkpt>
      <trkpt lat="43.628518" lon="11.019888">
        <ele>111.7</ele>
        <time>2016-07-06T18:02:06Z</time>
        <sat>9</sat>
      </trkpt>
      <trkpt lat="43.628647" lon="11.019939">
        <ele>111.1</ele>
        <time>2016-07-06T18:02:07Z</time>
        <sat>9</sat>
      </trkpt>
      <trkpt lat="43.628780" lon="11.020011">
        <ele>110.1</ele>
        <time>2016-07-06T18:02:08Z</time>
        <sat>9</sat>
      </trkpt>
      <trkpt lat="43.628915" lon="11.020109">
        <ele>109.5</ele>
        <time>2016-07-06T18:02:09Z</time>
        <sat>10</sat>
      </trkpt>
      <trkpt lat="43.629057" lon="11.020216">
        <ele>109.1</ele>
        <time>2016-07-06T18:02:10Z</time>
        <sat>10</sat>
      </trkpt>
      <trkpt lat="43.629211" lon="11.020328">
        <ele>108.8</ele>
        <time>2016-07-06T18:02:11Z</time>
        <sat>10</sat>
      </trkpt>
      <trkpt lat="43.629376" lon="11.020435">
        <ele>108.4</ele>
        <time>2016-07-06T18:02:12Z</time>
        <sat>10</sat>
      </trkpt>
      <trkpt lat="43.629544" lon="11.020531">
        <ele>108.1</ele>
        <time>2016-07-06T18:02:13Z</time>
        <sat>10</sat>
      </trkpt>
      <trkpt lat="43.629706" lon="11.020618">
        <ele>108.2</ele>
        <time>2016-07-06T18:02:14Z</time>
        <sat>10</sat>
      </trkpt>
      <trkpt lat="43.629861" lon="11.020698">
        <ele>108.4</ele>
        <time>2016-07-06T18:02:15Z</time>
        <sat>10</sat>
      </trkpt>
      <trkpt lat="43.630008" lon="11.020771">
        <ele>109.6</ele>
        <time>2016-07-06T18:02:16Z</time>
        <sat>10</sat>
      </trkpt>
      <trkpt lat="43.630142" lon="11.020837">
        <ele>110.6</ele>
        <time>2016-07-06T18:02:17Z</time>
        <sat>10</sat>
      </trkpt>
      <trkpt lat="43.630265" lon="11.020891">
        <ele>111.5</ele>
        <time>2016-07-06T18:02:18Z</time>
        <sat>10</sat>
      </trkpt>
      <trkpt lat="43.630390" lon="11.020914">
        <ele>111.5</ele>
        <time>2016-07-06T18:02:19Z</time>
        <sat>9</sat>
      </trkpt>
      <trkpt lat="43.630513" lon="11.020892">
        <ele>111.3</ele>
        <time>2016-07-06T18:02:20Z</time>
        <sat>10</sat>
      </trkpt>
      <trkpt lat="43.630644" lon="11.020826">
        <ele>110.5</ele>
        <time>2016-07-06T18:02:21Z</time>
        <sat>10</sat>
      </trkpt>
      <trkpt lat="43.630782" lon="11.020732">
        <ele>110.5</ele>
        <time>2016-07-06T18:02:22Z</time>
        <sat>10</sat>
      </trkpt>
      <trkpt lat="43.630929" lon="11.020640">
        <ele>110.4</ele>
        <time>2016-07-06T18:02:23Z</time>
        <sat>10</sat>
      </trkpt>
      <trkpt lat="43.631081" lon="11.020557">
        <ele>110.4</ele>
        <time>2016-07-06T18:02:24Z</time>
        <sat>10</sat>
      </trkpt>
      <trkpt lat="43.631229" lon="11.020477">
        <ele>110.4</ele>
        <time>2016-07-06T18:02:25Z</time>
        <sat>10</sat>
      </trkpt>
      <trkpt lat="43.631365" lon="11.020400">
        <ele>110.4</ele>
        <time>2016-07-06T18:02:26Z</time>
        <sat>10</sat>
      </trkpt>
      <trkpt lat="43.631482" lon="11.020330">
        <ele>110.5</ele>
        <time>2016-07-06T18:02:27Z</time>
        <sat>10</sat>
      </trkpt>
      <trkpt lat="43.631589" lon="11.020268">
        <ele>110.5</ele>
        <time>2016-07-06T18:02:28Z</time>
        <sat>10</sat>
      </trkpt>
      <trkpt lat="43.631691" lon="11.020209">
        <ele>110.5</ele>
        <time>2016-07-06T18:02:29Z</time>
        <sat>10</sat>
      </trkpt>
      <trkpt lat="43.631781" lon="11.020154">
        <ele>110.6</ele>
        <time>2016-07-06T18:02:30Z</time>
        <sat>10</sat>
      </trkpt>
      <trkpt lat="43.631933" lon="11.020053">
        <ele>111.1</ele>
        <time>2016-07-06T18:02:32Z</time>
        <sat>10</sat>
      </trkpt>
      <trkpt lat="43.632031" lon="11.019952">
        <ele>111.2</ele>
        <time>2016-07-06T18:02:34Z</time>
        <sat>10</sat>
      </trkpt>
      <trkpt lat="43.632057" lon="11.019818">
        <ele>110.8</ele>
        <time>2016-07-06T18:02:36Z</time>
        <sat>10</sat>
      </trkpt>
      <trkpt lat="43.632114" lon="11.019678">
        <ele>110.5</ele>
        <time>2016-07-06T18:02:38Z</time>
        <sat>10</sat>
      </trkpt>
      <trkpt lat="43.632183" lon="11.019582">
        <ele>110.4</ele>
        <time>2016-07-06T18:02:40Z</time>
        <sat>9</sat>
      </trkpt>
      <trkpt lat="43.632199" lon="11.019447">
        <ele>110.8</ele>
        <time>2016-07-06T18:02:43Z</time>
        <sat>10</sat>
      </trkpt>
      <trkpt lat="43.632134" lon="11.019351">
        <ele>110.6</ele>
        <time>2016-07-06T18:02:47Z</time>
        <sat>10</sat>
      </trkpt>
      <trkpt lat="43.632136" lon="11.019478">
        <ele>111.6</ele>
        <time>2016-07-06T18:20:34Z</time>
        <sat>10</sat>
      </trkpt>
    </trkseg>
  </trk>
</gpx>
